
Distance (Route):
Temperature : 20.8°C
Humidity : 54.1%
Pressure : 940.0hPa| Receiver | Frames | First received | Last received |
|---|---|---|---|
| OE5MMP-10 | 562 | 2026-09-02 11:13:16 | 2026-09-02 13:13:42 |
| DO3MHA-11 | 430 | 2026-09-02 10:46:07 | 2026-09-02 13:11:41 |
| BAUMI2-15 | 397 | 2026-09-02 11:28:34 | 2026-09-02 12:56:39 |
| OE5WHR-10 | 301 | 2026-09-02 11:06:23 | 2026-09-02 13:08:52 |
| OE5DXL-15 | 259 | 2026-09-02 10:52:44 | 2026-09-02 13:16:09 |
| OE5DRO-10 | 226 | 2026-09-02 10:59:20 | 2026-09-02 13:13:35 |
| DG1MFX-10 | 202 | 2026-09-02 11:20:08 | 2026-09-02 13:10:44 |
| PG1ADW-2 | 138 | 2026-09-02 11:03:13 | 2026-09-02 13:03:33 |
| DL6DJ-15 | 97 | 2026-09-02 10:51:24 | 2026-09-02 12:55:08 |
| OE5REO-15 | 74 | 2026-09-02 11:34:08 | 2026-09-02 12:48:44 |
| OE5FHM-15 | 71 | 2026-09-02 11:17:38 | 2026-09-02 13:04:33 |
| OE5HKT-10 | 62 | 2026-09-02 11:31:17 | 2026-09-02 13:08:57 |
| DG1MJG | 59 | 2026-09-02 11:07:10 | 2026-09-02 12:05:38 |
| DO7DH-14 | 55 | 2026-09-02 11:34:17 | 2026-09-02 13:03:52 |
| OE3JTB-15 | 53 | 2026-09-02 10:55:24 | 2026-09-02 12:36:00 |
| OE8JPQ-2 | 48 | 2026-09-02 11:49:13 | 2026-09-02 12:25:42 |
| OM5KV | 47 | 2026-09-02 11:57:26 | 2026-09-02 12:05:11 |
| PETON7-10 | 45 | 2026-09-02 11:46:59 | 2026-09-02 12:09:19 |
| DB0UT-7 | 36 | 2026-09-02 11:05:08 | 2026-09-02 12:51:08 |
| DK5PH-5 | 12 | 2026-09-02 11:58:30 | 2026-09-02 12:06:07 |
| DF7PN | 11 | 2026-09-02 12:11:56 | 2026-09-02 12:39:22 |
| DH7VM-15 | 5 | 2026-09-02 11:19:22 | 2026-09-02 11:39:29 |
| DO8TBO-1 | 2 | 2026-09-02 12:18:04 | 2026-09-02 12:18:51 |
| DB0ND-19 | 2 | 2026-09-02 12:40:51 | 2026-09-02 12:46:01 |
| NBG1-10 | 1 | 2026-09-02 11:52:53 | 2026-09-02 11:52:53 |
| Receiver | Date | Latitude | Longitude | Direction | Speed | Altitude | Climb | Temperature | Humidity | Pressure | Voltage | Killtimer | Uptime | BKT | XDATA |
|---|---|---|---|---|---|---|---|---|---|---|---|---|---|---|---|
| OE5DXL-15 | 2026-09-02 13:16:09 | 48.06625 | 12.96010 | 140° | 5km/h | 727m | -5.4m/s | 20.8°C | 54.1% | 940.0hPa | 2.7V | 00:00:00 | 00:00:00 | 00:00:00 | |
| OE5DXL-15 | 2026-09-02 13:16:03 | 48.06633 | 12.96003 | 126° | 7km/h | 757m | -4.7m/s | 20.5°C | 54.8% | 937.0hPa | 2.7V | 00:00:00 | 00:00:00 | 00:00:00 | |
| OE5DXL-15 | 2026-09-02 13:15:57 | 48.06638 | 12.95988 | 106° | 9km/h | 788m | -5.4m/s | 20.3°C | 54.9% | 933.6hPa | 2.7V | 07:41:00 | 00:00:00 | 00:00:00 | |
| OE5DXL-15 | 2026-09-02 13:15:51 | 48.06641 | 12.95967 | 87° | 7km/h | 819m | -5.4m/s | 20.0°C | 56.2% | 930.2hPa | 2.7V | 00:00:00 | 00:00:00 | 00:00:00 | |
| OE5DXL-15 | 2026-09-02 13:15:45 | 48.06642 | 12.95951 | 69° | 7km/h | 851m | -6.7m/s | 19.7°C | 55.5% | 927.0hPa | 2.7V | 00:00:00 | 00:00:00 | 00:00:00 | |
| OE5DXL-15 | 2026-09-02 13:15:39 | 48.06638 | 12.95936 | 85° | 9km/h | 891m | -6.3m/s | 19.5°C | 52.0% | 922.8hPa | 2.7V | 00:00:00 | 00:00:00 | 00:00:00 | |
| OE5DXL-15 | 2026-09-02 13:15:32 | 48.06633 | 12.95910 | 72° | 11km/h | 937m | -6.5m/s | 18.9°C | 55.6% | 917.8hPa | 2.7V | 00:00:00 | 00:00:00 | 00:00:00 | |
| OE5DXL-15 | 2026-09-02 13:15:26 | 48.06629 | 12.95888 | 76° | 9km/h | 976m | -6.4m/s | 18.5°C | 57.0% | 913.5hPa | 2.7V | 00:00:00 | 00:00:00 | 00:00:00 | |
| OE5DXL-15 | 2026-09-02 13:15:20 | 48.06625 | 12.95867 | 76° | 15km/h | 1015m | -6.0m/s | 18.3°C | 56.0% | 909.4hPa | 2.7V | 00:00:00 | 00:00:00 | 00:00:00 | |
| OE5DXL-15 | 2026-09-02 13:15:14 | 48.06622 | 12.95836 | 91° | 13km/h | 1052m | -6.0m/s | 17.9°C | 56.7% | 905.7hPa | 2.7V | 00:00:00 | 00:00:00 | 00:00:00 | |
| OE5DXL-15 | 2026-09-02 13:15:08 | 48.06623 | 12.95806 | 95° | 15km/h | 1087m | -5.9m/s | 17.6°C | 57.9% | 902.0hPa | 2.7V | 07:41:00 | 00:00:00 | 00:00:00 | |
| OE5DXL-15 | 2026-09-02 13:15:02 | 48.06626 | 12.95775 | 97° | 15km/h | 1124m | -6.0m/s | 17.2°C | 58.1% | 898.1hPa | 2.7V | 00:00:00 | 00:00:00 | 00:00:00 | |
| OE5DXL-15 | 2026-09-02 13:14:56 | 48.06627 | 12.95742 | 94° | 15km/h | 1161m | -6.1m/s | 16.9°C | 60.2% | 894.0hPa | 2.7V | 00:00:00 | 00:00:00 | 00:00:00 | |
| OE5DXL-15 | 2026-09-02 13:14:50 | 48.06629 | 12.95708 | 98° | 15km/h | 1198m | -6.1m/s | 16.5°C | 60.5% | 890.3hPa | 2.7V | 00:00:00 | 00:00:00 | 00:00:00 | |
| OE5DXL-15 | 2026-09-02 13:14:44 | 48.06632 | 12.95675 | 96° | 16km/h | 1236m | -6.1m/s | 16.2°C | 61.4% | 886.4hPa | 2.7V | 00:00:00 | 00:00:00 | 00:00:00 | |
| OE5DXL-15 | 2026-09-02 13:14:37 | 48.06636 | 12.95633 | 104° | 15km/h | 1281m | -6.4m/s | 15.7°C | 64.5% | 881.6hPa | 2.7V | 00:00:00 | 00:00:00 | 00:00:00 | |
| OE5DXL-15 | 2026-09-02 13:14:32 | 48.06639 | 12.95604 | 99° | 15km/h | 1313m | -6.5m/s | 15.3°C | 71.7% | 878.4hPa | 2.7V | 00:00:00 | 00:00:00 | 00:00:00 | |
| OE5DXL-15 | 2026-09-02 13:14:26 | 48.06643 | 12.95570 | 104° | 18km/h | 1350m | -5.9m/s | 14.9°C | 72.9% | 874.5hPa | 2.7V | 00:00:00 | 00:00:00 | 00:00:00 | |
| OE5DXL-15 | 2026-09-02 13:14:20 | 48.06650 | 12.95528 | 109° | 20km/h | 1389m | -6.9m/s | 14.6°C | 73.9% | 870.6hPa | 2.7V | 07:42:00 | 00:00:00 | 00:00:00 | |
| OE5DXL-15 | 2026-09-02 13:14:14 | 48.06660 | 12.95484 | 108° | 22km/h | 1429m | -6.6m/s | 14.1°C | 76.5% | 866.4hPa | 2.7V | 00:00:00 | 00:00:00 | 00:00:00 | |
| OE5DXL-15 | 2026-09-02 13:14:08 | 48.06670 | 12.95437 | 106° | 24km/h | 1467m | -6.3m/s | 13.9°C | 72.2% | 862.5hPa | 2.7V | 00:00:00 | 00:00:00 | 00:00:00 | |
| OE5DXL-15 | 2026-09-02 13:13:54 | 48.06695 | 12.95314 | 107° | 26km/h | 1554m | -6.5m/s | 12.9°C | 81.2% | 853.7hPa | 2.7V | 00:00:00 | 00:00:00 | 00:00:00 | |
| OE5MMP-10 | 2026-09-02 13:13:42 | 48.06720 | 12.95206 | 112° | 29km/h | 1632m | -6.9m/s | 12.2°C | 83.5% | 845.5hPa | 2.7V | 00:00:00 | 02:44:13 | 00:00:00 | |
| OE5DRO-10 | 2026-09-02 13:13:35 | 48.06737 | 12.95141 | 113° | 26km/h | 1678m | -5.6m/s | 11.9°C | 83.6% | 840.8hPa | 2.7V | 07:43:00 | 00:00:00 | 00:00:00 | |
| OE5DXL-15 | 2026-09-02 13:13:35 | 48.06737 | 12.95141 | 113° | 26km/h | 1678m | -5.6m/s | 11.9°C | 83.6% | 840.8hPa | 2.7V | 00:00:00 | 00:00:00 | 00:00:00 | |
| OE5DRO-10 | 2026-09-02 13:13:28 | 48.06758 | 12.95080 | 124° | 26km/h | 1718m | -5.4m/s | 11.5°C | 85.2% | 836.8hPa | 2.7V | 00:00:00 | 00:00:00 | 00:00:00 | |
| OE5DXL-15 | 2026-09-02 13:13:15 | 48.06802 | 12.94970 | 117° | 27km/h | 1793m | -6.4m/s | 10.8°C | 88.9% | 829.3hPa | 2.7V | 00:00:00 | 00:00:00 | 00:00:00 | |
| OE5DRO-10 | 2026-09-02 13:13:14 | 48.06805 | 12.94961 | 113° | 26km/h | 1800m | -6.3m/s | 10.6°C | 90.6% | 828.7hPa | 2.7V | 00:00:00 | 00:00:00 | 00:00:00 | |
| OE5DRO-10 | 2026-09-02 13:13:07 | 48.06820 | 12.94895 | 105° | 27km/h | 1846m | -7.4m/s | 10.2°C | 92.9% | 824.2hPa | 2.7V | 00:00:00 | 00:00:00 | 00:00:00 | |
| OE5DRO-10 | 2026-09-02 13:13:00 | 48.06832 | 12.94823 | 101° | 31km/h | 1895m | -7.0m/s | 10.3°C | 82.8% | 819.5hPa | 2.7V | 00:00:00 | 00:00:00 | 00:00:00 | |
| OE5DXL-15 | 2026-09-02 13:12:55 | 48.06834 | 12.94765 | 87° | 35km/h | 1930m | -6.9m/s | 9.8°C | 87.4% | 816.3hPa | 2.7V | 00:00:00 | 00:00:00 | 00:00:00 | |
| OE5DRO-10 | 2026-09-02 13:12:53 | 48.06832 | 12.94740 | 84° | 33km/h | 1943m | -6.7m/s | 9.6°C | 87.9% | 815.0hPa | 2.7V | 00:00:00 | 00:00:00 | 00:00:00 | |
| OE5DRO-10 | 2026-09-02 13:12:46 | 48.06826 | 12.94643 | 80° | 35km/h | 1990m | -5.5m/s | 9.1°C | 91.8% | 810.1hPa | 2.7V | 00:00:00 | 00:00:00 | 00:00:00 | |
| OE5MMP-10 | 2026-09-02 13:12:44 | 48.06824 | 12.94630 | 81° | 35km/h | 1996m | -5.7m/s | 9.2°C | 91.2% | 809.5hPa | 2.7V | 00:00:00 | 02:43:15 | 00:00:00 | |
| OE5MMP-10 | 2026-09-02 13:12:39 | 48.06814 | 12.94565 | 76° | 37km/h | 2025m | -5.6m/s | 9.5°C | 76.0% | 806.8hPa | 2.7V | 00:00:00 | 02:43:10 | 00:00:00 | |
| OE5DRO-10 | 2026-09-02 13:12:38 | 48.06812 | 12.94552 | 78° | 37km/h | 2031m | -5.1m/s | 9.5°C | 76.0% | 806.4hPa | 2.7V | 07:44:00 | 00:00:00 | 00:00:00 | |
| OE5DXL-15 | 2026-09-02 13:12:35 | 48.06805 | 12.94512 | 73° | 38km/h | 2047m | -5.7m/s | 9.5°C | 75.8% | 804.8hPa | 2.7V | 00:00:00 | 00:00:00 | 00:00:00 | |
| OE5DRO-10 | 2026-09-02 13:12:32 | 48.06792 | 12.94459 | 70° | 35km/h | 2069m | -5.3m/s | 9.6°C | 72.2% | 802.7hPa | 2.7V | 00:00:00 | 00:00:00 | 00:00:00 | |
| OE5MMP-10 | 2026-09-02 13:12:29 | 48.06787 | 12.94434 | 72° | 38km/h | 2080m | -5.2m/s | 9.5°C | 71.3% | 801.5hPa | 2.7V | 00:00:00 | 02:43:00 | 00:00:00 | |
| OE5DRO-10 | 2026-09-02 13:12:24 | 48.06773 | 12.94369 | 72° | 40km/h | 2107m | -5.4m/s | 9.4°C | 69.6% | 799.0hPa | 2.7V | 00:00:00 | 00:00:00 | 00:00:00 | |
| OE5MMP-10 | 2026-09-02 13:12:19 | 48.06757 | 12.94298 | 72° | 40km/h | 2132m | -5.5m/s | 9.1°C | 71.8% | 796.6hPa | 2.7V | 00:00:00 | 02:42:50 | 00:00:00 | |
| OE5DRO-10 | 2026-09-02 13:12:17 | 48.06751 | 12.94269 | 73° | 38km/h | 2143m | -5.2m/s | 9.1°C | 68.8% | 795.5hPa | 2.7V | 00:00:00 | 00:00:00 | 00:00:00 | |
| OE5DXL-15 | 2026-09-02 13:12:15 | 48.06746 | 12.94240 | 77° | 40km/h | 2154m | -5.5m/s | 9.0°C | 69.4% | 794.5hPa | 2.7V | 07:44:00 | 00:00:00 | 00:00:00 | |
| OE5DRO-10 | 2026-09-02 13:12:10 | 48.06733 | 12.94170 | 76° | 40km/h | 2181m | -5.3m/s | 8.8°C | 68.2% | 791.9hPa | 2.7V | 00:00:00 | 00:00:00 | 00:00:00 | |
| OE5MMP-10 | 2026-09-02 13:12:09 | 48.06730 | 12.94156 | 77° | 40km/h | 2187m | -5.4m/s | 8.8°C | 68.5% | 791.3hPa | 2.7V | 00:00:00 | 02:42:40 | 00:00:00 | |
| OE5DRO-10 | 2026-09-02 13:12:03 | 48.06718 | 12.94066 | 79° | 42km/h | 2219m | -5.0m/s | 8.6°C | 65.7% | 788.3hPa | 2.7V | 00:00:00 | 00:00:00 | 00:00:00 | |
| OE5DRO-10 | 2026-09-02 13:11:56 | 48.06701 | 12.93958 | 77° | 42km/h | 2256m | -5.7m/s | 8.1°C | 69.6% | 784.8hPa | 2.7V | 00:00:00 | 00:00:00 | 00:00:00 | |
| OE5DXL-15 | 2026-09-02 13:11:55 | 48.06698 | 12.93943 | 76° | 44km/h | 2262m | -5.6m/s | 8.0°C | 71.4% | 784.3hPa | 2.7V | 00:00:00 | 00:00:00 | 00:00:00 | |
| OE5DRO-10 | 2026-09-02 13:11:49 | 48.06686 | 12.93850 | 81° | 44km/h | 2293m | -4.7m/s | 7.9°C | 66.1% | 781.2hPa | 2.7V | 00:00:00 | 00:00:00 | 00:00:00 | |
| OE5DRO-10 | 2026-09-02 13:11:42 | 48.06673 | 12.93736 | 81° | 46km/h | 2328m | -5.1m/s | 7.6°C | 64.1% | 778.1hPa | 2.7V | 07:45:00 | 00:00:00 | 00:00:00 | |
| DO3MHA-11 | 2026-09-02 13:11:41 | 48.06671 | 12.93719 | 82° | 46km/h | 2333m | -4.7m/s | 7.6°C | 64.4% | 777.7hPa | 2.7V | 00:00:00 | 02:42:12 | 00:00:00 | |
| OE5DXL-15 | 2026-09-02 13:11:35 | 48.06662 | 12.93617 | 83° | 49km/h | 2363m | -5.5m/s | 7.3°C | 64.4% | 774.6hPa | 2.7V | 00:00:00 | 00:00:00 | 00:00:00 | |
| DO3MHA-11 | 2026-09-02 13:11:34 | 48.06661 | 12.93601 | 85° | 47km/h | 2368m | -5.1m/s | 7.3°C | 63.7% | 774.2hPa | 2.7V | 00:00:00 | 02:42:05 | 00:00:00 | |
| DO3MHA-11 | 2026-09-02 13:11:29 | 48.06653 | 12.93511 | 84° | 51km/h | 2394m | -5.5m/s | 7.1°C | 63.9% | 771.7hPa | 2.7V | 00:00:00 | 02:42:00 | 00:00:00 | |
| OE5DRO-10 | 2026-09-02 13:11:28 | 48.06652 | 12.93493 | 83° | 49km/h | 2399m | -5.0m/s | 7.1°C | 59.3% | 771.3hPa | 2.7V | 00:00:00 | 00:00:00 | 00:00:00 | |
| OE5MMP-10 | 2026-09-02 13:11:27 | 48.06651 | 12.93474 | 83° | 51km/h | 2404m | -5.0m/s | 7.1°C | 57.8% | 770.7hPa | 2.7V | 00:00:00 | 02:41:58 | 00:00:00 | |
| OE5DRO-10 | 2026-09-02 13:11:21 | 48.06643 | 12.93362 | 84° | 51km/h | 2435m | -5.3m/s | 6.9°C | 55.2% | 767.7hPa | 2.7V | 00:00:00 | 00:00:00 | 00:00:00 | |
| OE5MMP-10 | 2026-09-02 13:11:17 | 48.06638 | 12.93284 | 84° | 51km/h | 2457m | -4.9m/s | 6.7°C | 52.9% | 765.8hPa | 2.7V | 07:45:00 | 02:41:48 | 00:00:00 | |
| OE5DXL-15 | 2026-09-02 13:11:15 | 48.06635 | 12.93245 | 85° | 51km/h | 2467m | -4.7m/s | 6.7°C | 51.8% | 764.9hPa | 2.7V | 00:00:00 | 00:00:00 | 00:00:00 | |
| OE5DRO-10 | 2026-09-02 13:11:14 | 48.06634 | 12.93225 | 84° | 51km/h | 2472m | -5.7m/s | 6.6°C | 50.3% | 764.5hPa | 2.7V | 00:00:00 | 00:00:00 | 00:00:00 | |
| DO3MHA-11 | 2026-09-02 13:11:13 | 48.06632 | 12.93206 | 84° | 51km/h | 2478m | -5.5m/s | 6.6°C | 47.9% | 763.9hPa | 2.7V | 00:00:00 | 02:41:44 | 00:00:00 | |
| DO3MHA-11 | 2026-09-02 13:11:08 | 48.06626 | 12.93109 | 88° | 51km/h | 2504m | -4.8m/s | 6.6°C | 36.5% | 761.5hPa | 2.7V | 07:45:00 | 02:41:39 | 00:00:00 | |
| OE5DRO-10 | 2026-09-02 13:11:07 | 48.06625 | 12.93089 | 87° | 51km/h | 2509m | -5.4m/s | 6.6°C | 36.6% | 761.0hPa | 2.7V | 00:00:00 | 00:00:00 | 00:00:00 | |
| DO3MHA-11 | 2026-09-02 13:11:03 | 48.06622 | 12.93011 | 87° | 51km/h | 2531m | -5.2m/s | 6.4°C | 36.0% | 759.2hPa | 2.7V | 00:00:00 | 02:41:34 | 00:00:00 | |
| OE5MMP-10 | 2026-09-02 13:10:59 | 48.06618 | 12.92934 | 87° | 49km/h | 2552m | -4.8m/s | 6.3°C | 31.1% | 757.3hPa | 2.7V | 00:00:00 | 02:41:30 | 00:00:00 | |
| DO3MHA-11 | 2026-09-02 13:10:58 | 48.06617 | 12.92915 | 87° | 47km/h | 2557m | -5.3m/s | 6.3°C | 30.0% | 756.7hPa | 2.7V | 00:00:00 | 02:41:29 | 00:00:00 | |
| OE5DXL-15 | 2026-09-02 13:10:55 | 48.06615 | 12.92858 | 87° | 47km/h | 2573m | -5.3m/s | 6.2°C | 29.3% | 755.3hPa | 2.7V | 00:00:00 | 00:00:00 | 00:00:00 | |
| OE5DRO-10 | 2026-09-02 13:10:51 | 48.06613 | 12.92784 | 88° | 47km/h | 2594m | -4.8m/s | 6.1°C | 31.1% | 753.4hPa | 2.7V | 00:00:00 | 00:00:00 | 00:00:00 | |
| OE5MMP-10 | 2026-09-02 13:10:49 | 48.06612 | 12.92747 | 87° | 47km/h | 2605m | -4.8m/s | 6.1°C | 31.0% | 752.3hPa | 2.7V | 00:00:00 | 02:41:20 | 00:00:00 | |
| DG1MFX-10 | 2026-09-02 13:10:44 | 48.06610 | 12.92674 | 88° | 47km/h | 2626m | -5.7m/s | 6.0°C | 30.7% | 750.4hPa | 2.7V | 07:46:00 | 00:00:00 | 00:00:00 | |
| OE5MMP-10 | 2026-09-02 13:10:39 | 48.06607 | 12.92567 | 88° | 46km/h | 2658m | -5.2m/s | 5.7°C | 29.8% | 747.4hPa | 2.7V | 00:00:00 | 02:41:10 | 00:00:00 | |
| OE5DRO-10 | 2026-09-02 13:10:35 | 48.06606 | 12.92498 | 89° | 46km/h | 2680m | -5.6m/s | 5.6°C | 29.7% | 745.3hPa | 2.7V | 00:00:00 | 00:00:00 | 00:00:00 | |
| OE5MMP-10 | 2026-09-02 13:10:29 | 48.06606 | 12.92395 | 90° | 44km/h | 2712m | -5.3m/s | 5.4°C | 26.1% | 742.3hPa | 2.7V | 00:00:00 | 02:41:00 | 00:00:00 | |
| OE5DXL-15 | 2026-09-02 13:10:25 | 48.06605 | 12.92326 | 88° | 44km/h | 2733m | -5.4m/s | 5.3°C | 23.5% | 740.3hPa | 2.7V | 00:00:00 | 00:00:00 | 00:00:00 | |
| DG1MFX-10 | 2026-09-02 13:10:23 | 48.06605 | 12.92309 | 90° | 46km/h | 2739m | -5.4m/s | 5.4°C | 23.1% | 740.0hPa | 2.7V | 07:46:00 | 00:00:00 | 00:00:00 | |
| OE5DRO-10 | 2026-09-02 13:10:19 | 48.06602 | 12.92225 | 90° | 44km/h | 2766m | -4.9m/s | 5.2°C | 24.5% | 737.6hPa | 2.7V | 07:46:00 | 00:00:00 | 00:00:00 | |
| OE5MMP-10 | 2026-09-02 13:10:16 | 48.06601 | 12.92175 | 90° | 44km/h | 2783m | -5.4m/s | 5.1°C | 24.6% | 736.0hPa | 2.7V | 00:00:00 | 02:40:47 | 00:00:00 | |
| OE5MMP-10 | 2026-09-02 13:10:06 | 48.06595 | 12.92008 | 89° | 42km/h | 2837m | -4.9m/s | 4.7°C | 32.4% | 731.0hPa | 2.7V | 00:00:00 | 02:40:37 | 00:00:00 | |
| OE5DRO-10 | 2026-09-02 13:10:03 | 48.06594 | 12.91960 | 88° | 42km/h | 2853m | -5.6m/s | 4.6°C | 32.6% | 729.6hPa | 2.7V | 00:00:00 | 00:00:00 | 00:00:00 | |
| OE5MMP-10 | 2026-09-02 13:09:56 | 48.06594 | 12.91850 | 90° | 42km/h | 2891m | -5.0m/s | 4.4°C | 26.4% | 726.2hPa | 2.7V | 00:00:00 | 02:40:27 | 00:00:00 | |
| OE5DXL-15 | 2026-09-02 13:09:55 | 48.06594 | 12.91834 | 91° | 42km/h | 2897m | -5.2m/s | 4.4°C | 25.2% | 725.7hPa | 2.7V | 00:00:00 | 00:00:00 | 00:00:00 | |
| OE5DRO-10 | 2026-09-02 13:09:47 | 48.06596 | 12.91708 | 92° | 40km/h | 2939m | -5.5m/s | 4.1°C | 24.8% | 721.7hPa | 2.7V | 00:00:00 | 00:00:00 | 00:00:00 | |
| OE5MMP-10 | 2026-09-02 13:09:46 | 48.06596 | 12.91692 | 92° | 40km/h | 2944m | -5.0m/s | 4.1°C | 25.3% | 721.3hPa | 2.7V | 07:47:00 | 02:40:17 | 00:00:00 | |
| DG1MFX-10 | 2026-09-02 13:09:42 | 48.06597 | 12.91645 | 94° | 40km/h | 2960m | -5.9m/s | 4.0°C | 29.2% | 720.0hPa | 2.7V | 07:47:00 | 00:00:00 | 00:00:00 | |
| OE5MMP-10 | 2026-09-02 13:09:36 | 48.06598 | 12.91538 | 89° | 42km/h | 3000m | -5.4m/s | 3.6°C | 32.2% | 716.5hPa | 2.7V | 00:00:00 | 02:40:07 | 00:00:00 | |
| OE5DRO-10 | 2026-09-02 13:09:31 | 48.06599 | 12.91413 | 92° | 42km/h | 3044m | -6.0m/s | 3.3°C | 31.7% | 712.8hPa | 2.7V | 00:00:00 | 00:00:00 | 00:00:00 | |
| OE5MMP-10 | 2026-09-02 13:09:26 | 48.06599 | 12.91382 | 89° | 42km/h | 3056m | -5.5m/s | 3.2°C | 31.4% | 711.6hPa | 2.7V | 00:00:00 | 02:39:57 | 00:00:00 | |
| OE5DXL-15 | 2026-09-02 13:09:25 | 48.06599 | 12.91366 | 90° | 42km/h | 3061m | -5.2m/s | 3.1°C | 31.4% | 711.1hPa | 2.7V | 00:00:00 | 00:00:00 | 00:00:00 | |
| DG1MFX-10 | 2026-09-02 13:09:21 | 48.06600 | 12.91319 | 91° | 42km/h | 3078m | -5.6m/s | 3.1°C | 31.5% | 709.6hPa | 2.7V | 07:47:00 | 00:00:00 | 00:00:00 | |
| DO3MHA-11 | 2026-09-02 13:09:19 | 48.06600 | 12.91272 | 90° | 46km/h | 3094m | -6.0m/s | 2.9°C | 32.5% | 708.3hPa | 2.7V | 00:00:00 | 02:39:50 | 00:00:00 | |
| OE5MMP-10 | 2026-09-02 13:09:16 | 48.06600 | 12.91225 | 91° | 42km/h | 3111m | -5.9m/s | 2.7°C | 33.0% | 706.6hPa | 2.7V | 00:00:00 | 02:39:47 | 00:00:00 | |
| OE5DRO-10 | 2026-09-02 13:09:15 | 48.06600 | 12.91162 | 91° | 42km/h | 3134m | -6.0m/s | 2.5°C | 33.6% | 704.7hPa | 2.7V | 00:00:00 | 00:00:00 | 00:00:00 | |
| OE5MMP-10 | 2026-09-02 13:09:06 | 48.06601 | 12.91068 | 91° | 42km/h | 3169m | -5.7m/s | 2.2°C | 33.6% | 701.9hPa | 2.7V | 00:00:00 | 02:39:37 | 00:00:00 | |
| DG1MFX-10 | 2026-09-02 13:09:01 | 48.06602 | 12.90988 | 92° | 44km/h | 3198m | -5.5m/s | 2.0°C | 31.0% | 699.3hPa | 2.7V | 07:48:00 | 00:00:00 | 00:00:00 | |
| OE5DRO-10 | 2026-09-02 13:08:59 | 48.06602 | 12.90957 | 90° | 42km/h | 3209m | -5.2m/s | 1.8°C | 31.0% | 698.3hPa | 2.7V | 00:00:00 | 00:00:00 | 00:00:00 | |
| OE5HKT-10 | 2026-09-02 13:08:57 | 48.06602 | 12.90924 | 91° | 64km/h | 3219m | -5.4m/s | 1.7°C | 30.7% | 697.3hPa | 2.7V | 00:00:00 | 02:39:28 | 00:00:00 | |
| OE5MMP-10 | 2026-09-02 13:08:56 | 48.06603 | 12.90908 | 92° | 42km/h | 3224m | -5.0m/s | 1.7°C | 30.5% | 696.9hPa | 2.7V | 00:00:00 | 02:39:27 | 00:00:00 | |
| OE5DXL-15 | 2026-09-02 13:08:55 | 48.06603 | 12.90892 | 91° | 42km/h | 3229m | -4.9m/s | 1.6°C | 30.5% | 696.5hPa | 2.7V | 07:48:00 | 00:00:00 | 00:00:00 | |
| OE5WHR-10 | 2026-09-02 13:08:52 | 48.06603 | 12.90844 | 91° | 42km/h | 3246m | -6.0m/s | 1.5°C | 32.1% | 695.1hPa | 2.7V | 00:00:00 | 00:00:00 | 00:00:00 | |
| OE5MMP-10 | 2026-09-02 13:08:46 | 48.06607 | 12.90750 | 93° | 42km/h | 3280m | -5.8m/s | 1.2°C | 34.8% | 692.1hPa | 2.7V | 00:00:00 | 02:39:17 | 00:00:00 | |
| OE5DRO-10 | 2026-09-02 13:08:43 | 48.06608 | 12.90703 | 92° | 40km/h | 3296m | -4.9m/s | 1.1°C | 35.3% | 690.6hPa | 2.7V | 00:00:00 | 00:00:00 | 00:00:00 | |
| DG1MFX-10 | 2026-09-02 13:08:39 | 48.06608 | 12.90656 | 92° | 42km/h | 3312m | -5.1m/s | 1.0°C | 35.3% | 689.2hPa | 2.7V | 07:48:00 | 00:00:00 | 00:00:00 | |
| OE5MMP-10 | 2026-09-02 13:08:36 | 48.06607 | 12.90593 | 89° | 40km/h | 3334m | -6.1m/s | 0.8°C | 30.2% | 687.3hPa | 2.7V | 00:00:00 | 02:39:07 | 00:00:00 | |
| OE5WHR-10 | 2026-09-02 13:08:35 | 48.06607 | 12.90578 | 90° | 40km/h | 3340m | -5.5m/s | 0.8°C | 29.6% | 686.8hPa | 2.7V | 00:00:00 | 02:39:06 | 00:00:00 | |
| OE5MMP-10 | 2026-09-02 13:08:26 | 48.06601 | 12.90439 | 85° | 40km/h | 3391m | -6.3m/s | 0.4°C | 33.6% | 682.5hPa | 2.7V | 07:48:00 | 02:38:57 | 00:00:00 | |
| OE5DXL-15 | 2026-09-02 13:08:25 | 48.06600 | 12.90424 | 84° | 42km/h | 3397m | -6.2m/s | 0.4°C | 34.0% | 682.0hPa | 2.7V | 00:00:00 | 00:00:00 | 00:00:00 | |
| OE5WHR-10 | 2026-09-02 13:08:18 | 48.06590 | 12.90318 | 82° | 42km/h | 3439m | -6.0m/s | 0.2°C | 33.9% | 678.5hPa | 2.7V | 00:00:00 | 00:00:00 | 00:00:00 | |
| OE5MMP-10 | 2026-09-02 13:08:16 | 48.06587 | 12.90287 | 83° | 42km/h | 3452m | -6.3m/s | 0.2°C | 34.3% | 677.6hPa | 2.7V | 00:00:00 | 02:38:47 | 00:00:00 | |
| OE5DRO-10 | 2026-09-02 13:08:11 | 48.06579 | 12.90175 | 83° | 44km/h | 3492m | -5.6m/s | 0.2°C | 30.3% | 674.1hPa | 2.7V | 07:48:00 | 00:00:00 | 00:00:00 | |
| OE5MMP-10 | 2026-09-02 13:08:06 | 48.06576 | 12.90126 | 86° | 44km/h | 3509m | -5.5m/s | 0.2°C | 26.4% | 672.7hPa | 2.7V | 00:00:00 | 02:38:37 | 00:00:00 | |
| OE5WHR-10 | 2026-09-02 13:08:01 | 48.06571 | 12.90044 | 85° | 46km/h | 3539m | -6.3m/s | 0.1°C | 24.5% | 670.2hPa | 2.7V | 00:00:00 | 00:00:00 | 00:00:00 | |
| DG1MFX-10 | 2026-09-02 13:07:58 | 48.06569 | 12.90011 | 86° | 44km/h | 3551m | -5.8m/s | 0.1°C | 23.6% | 669.3hPa | 2.7V | 07:49:00 | 00:00:00 | 00:00:00 | |
| OE5MMP-10 | 2026-09-02 13:07:56 | 48.06565 | 12.89962 | 85° | 46km/h | 3568m | -6.0m/s | -0.0°C | 27.9% | 667.7hPa | 2.7V | 00:00:00 | 02:38:27 | 00:00:00 | |
| OE5DXL-15 | 2026-09-02 13:07:55 | 48.06564 | 12.89945 | 86° | 46km/h | 3574m | -5.7m/s | -0.0°C | 28.6% | 667.4hPa | 2.7V | 00:00:00 | 00:00:00 | 00:00:00 | |
| OE5DRO-10 | 2026-09-02 13:07:52 | 48.06560 | 12.89859 | 88° | 47km/h | 3602m | -6.0m/s | -0.2°C | 31.8% | 665.0hPa | 2.7V | 00:00:00 | 00:00:00 | 00:00:00 | |
| OE5MMP-10 | 2026-09-02 13:07:46 | 48.06558 | 12.89790 | 89° | 46km/h | 3626m | -5.7m/s | -0.3°C | 31.8% | 663.0hPa | 2.7V | 00:00:00 | 02:38:17 | 00:00:00 | |
| OE5WHR-10 | 2026-09-02 13:07:44 | 48.06557 | 12.89755 | 89° | 46km/h | 3637m | -5.6m/s | -0.4°C | 30.5% | 662.0hPa | 2.7V | 07:49:00 | 02:38:15 | 00:00:00 | |
| DG1MFX-10 | 2026-09-02 13:07:38 | 48.06555 | 12.89668 | 91° | 47km/h | 3666m | -5.9m/s | -0.6°C | 25.7% | 659.6hPa | 2.7V | 07:49:00 | 00:00:00 | 00:00:00 | |
| OE5MMP-10 | 2026-09-02 13:07:36 | 48.06554 | 12.89615 | 90° | 46km/h | 3684m | -6.2m/s | -0.6°C | 22.6% | 658.1hPa | 2.7V | 00:00:00 | 02:38:07 | 00:00:00 | |
| OE5DRO-10 | 2026-09-02 13:07:35 | 48.06554 | 12.89580 | 90° | 46km/h | 3696m | -5.9m/s | -0.7°C | 20.4% | 657.1hPa | 2.7V | 00:00:00 | 00:00:00 | 00:00:00 | |
| OE5WHR-10 | 2026-09-02 13:07:27 | 48.06553 | 12.89457 | 90° | 46km/h | 3738m | -6.0m/s | -0.9°C | 17.9% | 653.7hPa | 2.7V | 00:00:00 | 00:00:00 | 00:00:00 | |
| OE5MMP-10 | 2026-09-02 13:07:26 | 48.06553 | 12.89440 | 89° | 46km/h | 3744m | -5.8m/s | -1.0°C | 18.0% | 653.1hPa | 2.7V | 00:00:00 | 02:37:57 | 00:00:00 | |
| OE5DXL-15 | 2026-09-02 13:07:25 | 48.06553 | 12.89423 | 89° | 46km/h | 3750m | -5.9m/s | -1.0°C | 19.2% | 652.7hPa | 2.7V | 00:00:00 | 00:00:00 | 00:00:00 | |
| OE5DRO-10 | 2026-09-02 13:07:19 | 48.06553 | 12.89319 | 92° | 46km/h | 3784m | -6.2m/s | -1.2°C | 19.1% | 649.8hPa | 2.7V | 00:00:00 | 00:00:00 | 00:00:00 | |
| DG1MFX-10 | 2026-09-02 13:07:17 | 48.06553 | 12.89302 | 92° | 46km/h | 3790m | -6.2m/s | -1.3°C | 18.8% | 649.3hPa | 2.7V | 07:50:00 | 00:00:00 | 00:00:00 | |
| OE5MMP-10 | 2026-09-02 13:07:16 | 48.06554 | 12.89267 | 90° | 46km/h | 3803m | -6.0m/s | -1.3°C | 18.9% | 648.3hPa | 2.7V | 00:00:00 | 02:37:47 | 00:00:00 | |
| OE5WHR-10 | 2026-09-02 13:07:10 | 48.06553 | 12.89162 | 88° | 44km/h | 3838m | -6.6m/s | -1.6°C | 18.4% | 645.5hPa | 2.7V | 00:00:00 | 00:00:00 | 00:00:00 | |
| OE5MMP-10 | 2026-09-02 13:07:06 | 48.06551 | 12.89095 | 89° | 44km/h | 3862m | -5.3m/s | -1.8°C | 16.8% | 643.4hPa | 2.7V | 07:49:00 | 02:37:37 | 00:00:00 | |
| OE5DRO-10 | 2026-09-02 13:07:03 | 48.06551 | 12.89045 | 88° | 44km/h | 3879m | -6.3m/s | -1.9°C | 16.8% | 642.1hPa | 2.7V | 00:00:00 | 00:00:00 | 00:00:00 | |
| OE5MMP-10 | 2026-09-02 13:06:56 | 48.06550 | 12.88929 | 89° | 44km/h | 3921m | -5.9m/s | -2.2°C | 18.7% | 638.7hPa | 2.7V | 00:00:00 | 02:37:27 | 00:00:00 | |
| OE5DXL-15 | 2026-09-02 13:06:55 | 48.06550 | 12.88912 | 90° | 46km/h | 3927m | -6.5m/s | -2.3°C | 18.8% | 638.2hPa | 2.7V | 00:00:00 | 00:00:00 | 00:00:00 | |
| OE5WHR-10 | 2026-09-02 13:06:53 | 48.06567 | 12.88877 | 90° | 44km/h | 3940m | -6.6m/s | -2.4°C | 18.8% | 637.1hPa | 2.7V | 00:00:00 | 02:37:24 | 00:00:00 | |
| OE5DRO-10 | 2026-09-02 13:06:47 | 48.06550 | 12.88778 | 90° | 46km/h | 3976m | -6.0m/s | -2.6°C | 17.1% | 634.2hPa | 2.7V | 00:00:00 | 00:00:00 | 00:00:00 | |
| OE5MMP-10 | 2026-09-02 13:06:46 | 48.06550 | 12.88761 | 91° | 46km/h | 3983m | -6.3m/s | -2.7°C | 17.1% | 633.6hPa | 2.7V | 00:00:00 | 02:37:17 | 00:00:00 | |
| OE5MMP-10 | 2026-09-02 13:06:36 | 48.06551 | 12.88590 | 90° | 46km/h | 4045m | -6.5m/s | -3.2°C | 17.9% | 628.8hPa | 2.7V | 00:00:00 | 02:37:07 | 00:00:00 | |
| DG1MFX-10 | 2026-09-02 13:06:35 | 48.06551 | 12.88590 | 91° | 46km/h | 4045m | -6.6m/s | -3.3°C | 17.7% | 628.8hPa | 2.7V | 07:51:00 | 00:00:00 | 00:00:00 | |
| OE5DRO-10 | 2026-09-02 13:06:31 | 48.06552 | 12.88504 | 91° | 47km/h | 4076m | -6.7m/s | -3.4°C | 18.1% | 626.3hPa | 2.7V | 00:00:00 | 00:00:00 | 00:00:00 | |
| OE5MMP-10 | 2026-09-02 13:06:26 | 48.06552 | 12.88416 | 90° | 47km/h | 4108m | -6.0m/s | -3.7°C | 18.9% | 623.7hPa | 2.7V | 00:00:00 | 02:36:57 | 00:00:00 | |
| OE5DXL-15 | 2026-09-02 13:06:25 | 48.06552 | 12.88398 | 91° | 46km/h | 4114m | -6.6m/s | -3.7°C | 19.3% | 623.3hPa | 2.7V | 00:00:00 | 00:00:00 | 00:00:00 | |
| OE5WHR-10 | 2026-09-02 13:06:19 | 48.06551 | 12.88292 | 88° | 46km/h | 4152m | -6.0m/s | -4.0°C | 21.6% | 620.2hPa | 2.7V | 00:00:00 | 00:00:00 | 00:00:00 | |
| OE5MMP-10 | 2026-09-02 13:06:16 | 48.06550 | 12.88238 | 90° | 46km/h | 4171m | -6.0m/s | -4.2°C | 23.1% | 618.7hPa | 2.7V | 00:00:00 | 02:36:47 | 00:00:00 | |
| OE5DRO-10 | 2026-09-02 13:06:15 | 48.06550 | 12.88221 | 88° | 46km/h | 4177m | -6.4m/s | -4.3°C | 23.0% | 618.3hPa | 2.7V | 00:00:00 | 00:00:00 | 00:00:00 | |
| DG1MFX-10 | 2026-09-02 13:06:14 | 48.06550 | 12.88221 | 88° | 46km/h | 4177m | -6.5m/s | -4.3°C | 22.6% | 618.4hPa | 2.7V | 07:51:00 | 00:00:00 | 00:00:00 | |
| OE5MMP-10 | 2026-09-02 13:06:06 | 48.06543 | 12.88067 | 86° | 46km/h | 4234m | -6.3m/s | -4.7°C | 20.4% | 613.9hPa | 2.7V | 00:00:00 | 02:36:37 | 00:00:00 | |
| OE5WHR-10 | 2026-09-02 13:06:02 | 48.06540 | 12.87996 | 87° | 47km/h | 4260m | -6.6m/s | -4.8°C | 20.7% | 611.8hPa | 2.7V | 00:00:00 | 02:36:33 | 00:00:00 | |
| OE5DRO-10 | 2026-09-02 13:05:59 | 48.06537 | 12.87943 | 87° | 47km/h | 4279m | -6.0m/s | -5.0°C | 19.5% | 610.3hPa | 2.7V | 07:51:00 | 00:00:00 | 00:00:00 | |
| OE5MMP-10 | 2026-09-02 13:05:56 | 48.06534 | 12.87891 | 86° | 47km/h | 4298m | -6.6m/s | -5.1°C | 18.2% | 608.8hPa | 2.7V | 00:00:00 | 02:36:27 | 00:00:00 | |
| OE5DXL-15 | 2026-09-02 13:05:55 | 48.06534 | 12.87873 | 85° | 49km/h | 4305m | -7.0m/s | -5.1°C | 17.9% | 608.4hPa | 2.7V | 00:00:00 | 00:00:00 | 00:00:00 | |
| DG1MFX-10 | 2026-09-02 13:05:54 | 48.06533 | 12.87873 | 86° | 47km/h | 4305m | -7.0m/s | -5.2°C | 17.6% | 608.4hPa | 2.7V | 07:51:00 | 00:00:00 | 00:00:00 | |
| OE5MMP-10 | 2026-09-02 13:05:46 | 48.06525 | 12.87708 | 86° | 49km/h | 4363m | -6.2m/s | -5.5°C | 19.7% | 603.9hPa | 2.7V | 07:51:00 | 02:36:17 | 00:00:00 | |
| OE5WHR-10 | 2026-09-02 13:05:45 | 48.06524 | 12.87690 | 86° | 49km/h | 4370m | -6.6m/s | -5.6°C | 19.8% | 603.4hPa | 2.7V | 00:00:00 | 00:00:00 | 00:00:00 | |
| OE5DRO-10 | 2026-09-02 13:05:43 | 48.06523 | 12.87653 | 85° | 49km/h | 4382m | -6.5m/s | -5.7°C | 20.1% | 602.4hPa | 2.7V | 00:00:00 | 00:00:00 | 00:00:00 | |
| OE5MMP-10 | 2026-09-02 13:05:36 | 48.06519 | 12.87523 | 90° | 51km/h | 4429m | -6.6m/s | -6.0°C | 18.0% | 598.9hPa | 2.7V | 00:00:00 | 02:36:07 | 00:00:00 | |
| DG1MFX-10 | 2026-09-02 13:05:34 | 48.06519 | 12.87504 | 91° | 49km/h | 4435m | -6.5m/s | -6.1°C | 17.6% | 598.6hPa | 2.7V | 07:52:00 | 00:00:00 | 00:00:00 | |
| OE5WHR-10 | 2026-09-02 13:05:28 | 48.06519 | 12.87370 | 91° | 51km/h | 4481m | -6.6m/s | -6.4°C | 18.9% | 594.9hPa | 2.7V | 07:51:00 | 00:00:00 | 00:00:00 | |
| OE5DRO-10 | 2026-09-02 13:05:27 | 48.06519 | 12.87350 | 93° | 51km/h | 4488m | -6.4m/s | -6.4°C | 19.6% | 594.4hPa | 2.7V | 00:00:00 | 00:00:00 | 00:00:00 | |
| OE5MMP-10 | 2026-09-02 13:05:26 | 48.06519 | 12.87331 | 90° | 51km/h | 4494m | -6.8m/s | -6.5°C | 20.5% | 593.9hPa | 2.7V | 00:00:00 | 02:35:57 | 00:00:00 | |
| OE5DXL-15 | 2026-09-02 13:05:25 | 48.06519 | 12.87312 | 91° | 53km/h | 4501m | -6.8m/s | -6.5°C | 21.4% | 593.4hPa | 2.7V | 00:00:00 | 02:35:56 | 00:00:00 | |
| OE5MMP-10 | 2026-09-02 13:05:16 | 48.06523 | 12.87134 | 95° | 53km/h | 4561m | -6.1m/s | -7.0°C | 25.7% | 588.8hPa | 2.7V | 00:00:00 | 02:35:47 | 00:00:00 | |
| DG1MFX-10 | 2026-09-02 13:05:13 | 48.06524 | 12.87095 | 93° | 53km/h | 4575m | -6.9m/s | -7.1°C | 23.7% | 587.8hPa | 2.7V | 07:52:00 | 00:00:00 | 00:00:00 | |
| OE5WHR-10 | 2026-09-02 13:05:11 | 48.06526 | 12.87036 | 93° | 53km/h | 4595m | -7.1m/s | -7.2°C | 24.6% | 586.3hPa | 2.7V | 00:00:00 | 02:35:42 | 00:00:00 | |
| OE5MMP-10 | 2026-09-02 13:05:06 | 48.06530 | 12.86936 | 94° | 55km/h | 4629m | -6.9m/s | -7.6°C | 31.0% | 583.8hPa | 2.7V | 00:00:00 | 02:35:37 | 00:00:00 | |
| OE5MMP-10 | 2026-09-02 13:04:56 | 48.06543 | 12.86733 | 97° | 53km/h | 4698m | -6.7m/s | -8.1°C | 31.6% | 578.6hPa | 2.7V | 00:00:00 | 02:35:27 | 00:00:00 | |
| OE5DXL-15 | 2026-09-02 13:04:55 | 48.06545 | 12.86712 | 96° | 53km/h | 4705m | -6.5m/s | -8.2°C | 32.7% | 578.1hPa | 2.7V | 07:52:00 | 00:00:00 | 00:00:00 | |
| OE5WHR-10 | 2026-09-02 13:04:54 | 48.06546 | 12.86692 | 95° | 53km/h | 4711m | -7.3m/s | -8.2°C | 32.2% | 577.5hPa | 2.7V | 00:00:00 | 00:00:00 | 00:00:00 | |
| DG1MFX-10 | 2026-09-02 13:04:52 | 48.06547 | 12.86672 | 95° | 55km/h | 4719m | -6.9m/s | -8.3°C | 32.3% | 577.1hPa | 2.7V | 07:52:00 | 00:00:00 | 00:00:00 | |
| OE5MMP-10 | 2026-09-02 13:04:46 | 48.06554 | 12.86532 | 94° | 53km/h | 4767m | -6.6m/s | -8.6°C | 29.8% | 573.5hPa | 2.7V | 00:00:00 | 02:35:17 | 00:00:00 | |
| DO3MHA-11 | 2026-09-02 13:04:42 | 48.06558 | 12.86453 | 95° | 53km/h | 4795m | -7.3m/s | -8.8°C | 27.7% | 571.4hPa | 2.7V | 00:00:00 | 02:35:13 | 00:00:00 | |
| OE5DRO-10 | 2026-09-02 13:04:39 | 48.06563 | 12.86373 | 96° | 51km/h | 4822m | -6.4m/s | -9.1°C | 27.8% | 569.4hPa | 2.7V | 00:00:00 | 00:00:00 | 00:00:00 | |
| OE5WHR-10 | 2026-09-02 13:04:37 | 48.06564 | 12.86353 | 94° | 51km/h | 4829m | -6.9m/s | -9.1°C | 27.8% | 568.9hPa | 2.7V | 00:00:00 | 00:00:00 | 00:00:00 | |
| DO3MHA-11 | 2026-09-02 13:04:36 | 48.06565 | 12.86334 | 95° | 51km/h | 4836m | -7.1m/s | -9.2°C | 27.2% | 568.4hPa | 2.7V | 00:00:00 | 02:35:07 | 00:00:00 | |
| OE5FHM-15 | 2026-09-02 13:04:33 | 48.06568 | 12.86274 | 94° | 51km/h | 4855m | -6.8m/s | -9.3°C | 25.7% | 566.9hPa | 2.7V | 00:00:00 | 02:35:04 | 00:00:00 | |
| DG1MFX-10 | 2026-09-02 13:04:31 | 48.06569 | 12.86255 | 96° | 51km/h | 4862m | -6.7m/s | -9.4°C | 25.4% | 566.5hPa | 2.7V | 07:52:00 | 00:00:00 | 00:00:00 | |
| DO3MHA-11 | 2026-09-02 13:04:29 | 48.06572 | 12.86198 | 94° | 51km/h | 4883m | -6.9m/s | -9.6°C | 26.5% | 564.9hPa | 2.7V | 00:00:00 | 02:35:00 | 00:00:00 | |
| OE5MMP-10 | 2026-09-02 13:04:26 | 48.06575 | 12.86140 | 96° | 51km/h | 4903m | -7.1m/s | -9.7°C | 24.5% | 563.4hPa | 2.7V | 07:52:00 | 02:34:57 | 00:00:00 | |
| OE5DXL-15 | 2026-09-02 13:04:25 | 48.06577 | 12.86121 | 98° | 49km/h | 4910m | -6.3m/s | -9.8°C | 22.2% | 562.9hPa | 2.7V | 00:00:00 | 00:00:00 | 00:00:00 | |
| DO3MHA-11 | 2026-09-02 13:04:24 | 48.06578 | 12.86102 | 95° | 51km/h | 4917m | -7.1m/s | -9.8°C | 20.7% | 562.4hPa | 2.7V | 07:52:00 | 02:34:55 | 00:00:00 | |
| OE5DRO-10 | 2026-09-02 13:04:23 | 48.06582 | 12.86044 | 97° | 49km/h | 4938m | -6.9m/s | -9.9°C | 16.8% | 560.9hPa | 2.7V | 00:00:00 | 00:00:00 | 00:00:00 | |
| OE5WHR-10 | 2026-09-02 13:04:20 | 48.06584 | 12.86025 | 98° | 49km/h | 4944m | -6.4m/s | -10.0°C | 14.5% | 560.4hPa | 2.7V | 00:00:00 | 02:34:51 | 00:00:00 | |
| DO3MHA-11 | 2026-09-02 13:04:19 | 48.06585 | 12.86007 | 95° | 51km/h | 4951m | -6.7m/s | -10.0°C | 12.7% | 559.9hPa | 2.7V | 00:00:00 | 02:34:50 | 00:00:00 | |
| OE5MMP-10 | 2026-09-02 13:04:16 | 48.06589 | 12.85950 | 96° | 49km/h | 4971m | -6.9m/s | -10.1°C | 11.2% | 558.5hPa | 2.7V | 00:00:00 | 02:34:47 | 00:00:00 | |
| DO3MHA-11 | 2026-09-02 13:04:14 | 48.06592 | 12.85912 | 97° | 49km/h | 4985m | -6.4m/s | -10.2°C | 11.0% | 557.5hPa | 2.7V | 00:00:00 | 02:34:45 | 00:00:00 | |
| DG1MFX-10 | 2026-09-02 13:04:11 | 48.06594 | 12.85874 | 97° | 49km/h | 4998m | -7.0m/s | -10.4°C | 10.7% | 556.6hPa | 2.7V | 07:52:00 | 00:00:00 | 00:00:00 | |
| DO3MHA-11 | 2026-09-02 13:04:09 | 48.06598 | 12.85818 | 96° | 49km/h | 5019m | -6.7m/s | -10.4°C | 11.0% | 555.1hPa | 2.7V | 00:00:00 | 02:34:40 | 00:00:00 | |
| OE5MMP-10 | 2026-09-02 13:04:06 | 48.06602 | 12.85762 | 98° | 49km/h | 5039m | -6.5m/s | -10.6°C | 10.9% | 553.7hPa | 2.7V | 00:00:00 | 02:34:37 | 00:00:00 | |
| OE5FHM-15 | 2026-09-02 13:04:03 | 48.06607 | 12.85706 | 97° | 47km/h | 5059m | -6.7m/s | -10.7°C | 11.3% | 552.2hPa | 2.7V | 00:00:00 | 02:34:34 | 00:00:00 | |
| DO3MHA-11 | 2026-09-02 13:03:59 | 48.06612 | 12.85632 | 95° | 49km/h | 5086m | -6.9m/s | -10.8°C | 11.7% | 550.3hPa | 2.7V | 00:00:00 | 02:34:30 | 00:00:00 | |
| OE5DRO-10 | 2026-09-02 13:03:57 | 48.06613 | 12.85577 | 93° | 47km/h | 5106m | -6.3m/s | -10.9°C | 12.6% | 548.9hPa | 2.7V | 00:00:00 | 00:00:00 | 00:00:00 | |
| OE5MMP-10 | 2026-09-02 13:03:56 | 48.06613 | 12.85577 | 93° | 47km/h | 5106m | -6.3m/s | -10.9°C | 12.6% | 548.9hPa | 2.7V | 00:00:00 | 02:34:27 | 00:00:00 | |
| OE5DXL-15 | 2026-09-02 13:03:55 | 48.06614 | 12.85558 | 92° | 47km/h | 5113m | -6.3m/s | -11.0°C | 13.3% | 548.4hPa | 2.7V | 00:00:00 | 00:00:00 | 00:00:00 | |
| DO7DH-14 | 2026-09-02 13:03:52 | 48.06615 | 12.85503 | 94° | 47km/h | 5131m | -6.1m/s | -11.1°C | 15.8% | 547.0hPa | 2.7V | 00:00:00 | 02:34:23 | 00:00:00 | |
| DG1MFX-10 | 2026-09-02 13:03:50 | 48.06616 | 12.85485 | 92° | 47km/h | 5137m | -6.5m/s | -11.2°C | 15.7% | 546.6hPa | 2.7V | 07:53:00 | 00:00:00 | 00:00:00 | |
| DO3MHA-11 | 2026-09-02 13:03:49 | 48.06617 | 12.85449 | 92° | 49km/h | 5151m | -6.9m/s | -11.2°C | 16.7% | 545.5hPa | 2.7V | 00:00:00 | 02:34:20 | 00:00:00 | |
| OE5WHR-10 | 2026-09-02 13:03:46 | 48.06618 | 12.85394 | 92° | 47km/h | 5170m | -6.3m/s | -11.3°C | 17.2% | 544.3hPa | 2.7V | 00:00:00 | 00:00:00 | 00:00:00 | |
| OE5DRO-10 | 2026-09-02 13:03:40 | 48.06620 | 12.85285 | 92° | 47km/h | 5208m | -6.7m/s | -11.5°C | 20.5% | 541.4hPa | 2.7V | 07:53:00 | 00:00:00 | 00:00:00 | |
| OE5MMP-10 | 2026-09-02 13:03:36 | 48.06622 | 12.85214 | 93° | 47km/h | 5236m | -7.0m/s | -11.6°C | 25.3% | 539.6hPa | 2.7V | 00:00:00 | 02:34:07 | 00:00:00 | |
| PG1ADW-2 | 2026-09-02 13:03:33 | 48.06623 | 12.85160 | 93° | 51km/h | 5256m | -6.7m/s | -11.8°C | 25.5% | 538.2hPa | 2.7V | 00:00:00 | 00:00:00 | 00:00:00 | |
| DG1MFX-10 | 2026-09-02 13:03:30 | 48.06625 | 12.85124 | 95° | 47km/h | 5270m | -6.7m/s | -12.0°C | 24.8% | 537.4hPa | 2.7V | 07:53:00 | 00:00:00 | 00:00:00 | |
| OE5WHR-10 | 2026-09-02 13:03:29 | 48.06627 | 12.85088 | 96° | 47km/h | 5283m | -6.4m/s | -12.0°C | 25.7% | 536.4hPa | 2.7V | 00:00:00 | 02:34:00 | 00:00:00 | |
| OE5MMP-10 | 2026-09-02 13:03:26 | 48.06630 | 12.85034 | 96° | 47km/h | 5302m | -6.1m/s | -12.2°C | 24.7% | 535.0hPa | 2.7V | 00:00:00 | 02:33:57 | 00:00:00 | |
| OE5DXL-15 | 2026-09-02 13:03:25 | 48.06632 | 12.85016 | 99° | 49km/h | 5308m | -6.2m/s | -12.2°C | 24.5% | 534.5hPa | 2.7V | 00:00:00 | 00:00:00 | 00:00:00 | |
| OE5DRO-10 | 2026-09-02 13:03:24 | 48.06634 | 12.84999 | 98° | 47km/h | 5315m | -6.6m/s | -12.2°C | 23.6% | 534.1hPa | 2.7V | 00:00:00 | 00:00:00 | 00:00:00 | |
| OE5FHM-15 | 2026-09-02 13:03:23 | 48.06635 | 12.84981 | 98° | 46km/h | 5322m | -6.8m/s | -12.3°C | 23.3% | 533.6hPa | 2.7V | 00:00:00 | 02:33:54 | 00:00:00 | |
| DO7DH-14 | 2026-09-02 13:03:22 | 48.06636 | 12.84964 | 98° | 51km/h | 5328m | -6.5m/s | -12.3°C | 23.0% | 533.2hPa | 2.7V | 00:00:00 | 02:33:53 | 00:00:00 | |
| OE5MMP-10 | 2026-09-02 13:03:16 | 48.06648 | 12.84860 | 99° | 49km/h | 5368m | -6.6m/s | -12.6°C | 18.9% | 530.4hPa | 2.7V | 00:00:00 | 02:33:47 | 00:00:00 | |
| DG1MFX-10 | 2026-09-02 13:03:09 | 48.06659 | 12.84751 | 100° | 49km/h | 5407m | -6.9m/s | -12.9°C | 13.8% | 527.8hPa | 2.7V | 07:54:00 | 00:00:00 | 00:00:00 | |
| OE5DRO-10 | 2026-09-02 13:03:08 | 48.06663 | 12.84715 | 99° | 51km/h | 5421m | -6.9m/s | -12.9°C | 15.8% | 526.8hPa | 2.7V | 00:00:00 | 00:00:00 | 00:00:00 | |
| OE5MMP-10 | 2026-09-02 13:03:06 | 48.06667 | 12.84678 | 99° | 51km/h | 5434m | -6.5m/s | -13.0°C | 21.2% | 525.9hPa | 2.7V | 07:53:00 | 02:33:37 | 00:00:00 | |
| DO3MHA-11 | 2026-09-02 13:03:04 | 48.06671 | 12.84641 | 99° | 53km/h | 5447m | -6.3m/s | -13.0°C | 25.9% | 524.9hPa | 2.7V | 00:00:00 | 02:33:35 | 00:00:00 | |
| OE5MMP-10 | 2026-09-02 13:02:56 | 48.06686 | 12.84484 | 98° | 55km/h | 5499m | -6.6m/s | -13.4°C | 28.5% | 521.4hPa | 2.7V | 00:00:00 | 02:33:27 | 00:00:00 | |
| OE5WHR-10 | 2026-09-02 13:02:55 | 48.06688 | 12.84464 | 97° | 55km/h | 5506m | -6.8m/s | -13.4°C | 29.9% | 521.0hPa | 2.7V | 00:00:00 | 00:00:00 | 00:00:00 | |
| DO3MHA-11 | 2026-09-02 13:02:54 | 48.06690 | 12.84444 | 97° | 57km/h | 5512m | -6.6m/s | -13.4°C | 31.0% | 520.5hPa | 2.7V | 00:00:00 | 02:33:25 | 00:00:00 | |
| PG1ADW-2 | 2026-09-02 13:02:52 | 48.06692 | 12.84403 | 96° | 57km/h | 5525m | -6.4m/s | -13.6°C | 33.9% | 519.6hPa | 2.7V | 07:54:00 | 00:00:00 | 00:00:00 | |
| DG1MFX-10 | 2026-09-02 13:02:48 | 48.06697 | 12.84342 | 97° | 55km/h | 5545m | -6.2m/s | -13.8°C | 45.9% | 518.3hPa | 2.7V | 07:54:00 | 00:00:00 | 00:00:00 | |
| OE5MMP-10 | 2026-09-02 13:02:46 | 48.06702 | 12.84280 | 97° | 57km/h | 5564m | -6.0m/s | -13.9°C | 58.4% | 517.0hPa | 2.7V | 00:00:00 | 02:33:17 | 00:00:00 | |
| OE5FHM-15 | 2026-09-02 13:02:42 | 48.06708 | 12.84197 | 97° | 57km/h | 5589m | -6.7m/s | -14.1°C | 59.6% | 515.3hPa | 2.7V | 07:54:00 | 02:33:13 | 00:00:00 | |
| OE5WHR-10 | 2026-09-02 13:02:38 | 48.06714 | 12.84113 | 97° | 57km/h | 5615m | -6.5m/s | -14.4°C | 58.4% | 513.6hPa | 2.7V | 00:00:00 | 02:33:09 | 00:00:00 | |
| OE5MMP-10 | 2026-09-02 13:02:36 | 48.06718 | 12.84070 | 96° | 57km/h | 5628m | -6.2m/s | -14.5°C | 59.5% | 512.7hPa | 2.7V | 00:00:00 | 02:33:07 | 00:00:00 | |
| DO3MHA-11 | 2026-09-02 13:02:34 | 48.06721 | 12.84028 | 97° | 57km/h | 5640m | -6.0m/s | -14.6°C | 62.8% | 511.9hPa | 2.7V | 07:54:00 | 02:33:05 | 00:00:00 | |
| OE5DRO-10 | 2026-09-02 13:02:33 | 48.06723 | 12.84006 | 98° | 55km/h | 5646m | -6.3m/s | -14.7°C | 64.3% | 511.5hPa | 2.7V | 00:00:00 | 00:00:00 | 00:00:00 | |
| PG1ADW-2 | 2026-09-02 13:02:32 | 48.06724 | 12.83985 | 97° | 55km/h | 5652m | -5.9m/s | -14.7°C | 65.9% | 510.9hPa | 2.7V | 00:00:00 | 00:00:00 | 00:00:00 | |
| DG1MFX-10 | 2026-09-02 13:02:28 | 48.06729 | 12.83922 | 97° | 57km/h | 5671m | -6.5m/s | -15.0°C | 69.2% | 509.9hPa | 2.7V | 07:54:00 | 00:00:00 | 00:00:00 | |
| OE5MMP-10 | 2026-09-02 13:02:26 | 48.06734 | 12.83859 | 97° | 55km/h | 5690m | -5.9m/s | -15.1°C | 74.1% | 508.6hPa | 2.7V | 00:00:00 | 02:32:57 | 00:00:00 | |
| OE5DXL-15 | 2026-09-02 13:02:25 | 48.06736 | 12.83838 | 98° | 55km/h | 5696m | -5.9m/s | -15.2°C | 75.3% | 508.1hPa | 2.7V | 00:00:00 | 00:00:00 | 00:00:00 | |
| OE5WHR-10 | 2026-09-02 13:02:17 | 48.06747 | 12.83673 | 96° | 55km/h | 5745m | -6.1m/s | -15.6°C | 85.5% | 504.8hPa | 2.7V | 00:00:00 | 00:00:00 | 00:00:00 | |
| OE5MMP-10 | 2026-09-02 13:02:16 | 48.06748 | 12.83652 | 98° | 55km/h | 5751m | -5.5m/s | -15.7°C | 85.9% | 504.4hPa | 2.7V | 00:00:00 | 02:32:47 | 00:00:00 | |
| OE5DRO-10 | 2026-09-02 13:02:14 | 48.06751 | 12.83611 | 97° | 57km/h | 5763m | -6.0m/s | -15.8°C | 88.4% | 503.6hPa | 2.7V | 00:00:00 | 00:00:00 | 00:00:00 | |
| PG1ADW-2 | 2026-09-02 13:02:12 | 48.06755 | 12.83570 | 97° | 57km/h | 5775m | -6.4m/s | -15.9°C | 90.2% | 502.8hPa | 2.7V | 00:00:00 | 02:32:43 | 00:00:00 | |
| DG1MFX-10 | 2026-09-02 13:02:07 | 48.06763 | 12.83488 | 101° | 55km/h | 5799m | -6.2m/s | -16.1°C | 79.9% | 501.2hPa | 2.7V | 07:55:00 | 00:00:00 | 00:00:00 | |
| OE5MMP-10 | 2026-09-02 13:02:06 | 48.06768 | 12.83447 | 101° | 57km/h | 5812m | -6.3m/s | -16.1°C | 76.6% | 500.4hPa | 2.7V | 00:00:00 | 02:32:37 | 00:00:00 | |
| DO7DH-14 | 2026-09-02 13:02:04 | 48.06773 | 12.83406 | 102° | 58km/h | 5824m | -5.9m/s | -16.2°C | 70.2% | 499.5hPa | 2.7V | 00:00:00 | 02:32:35 | 00:00:00 | |
| OE5FHM-15 | 2026-09-02 13:01:56 | 48.06801 | 12.83239 | 103° | 57km/h | 5870m | -5.6m/s | -16.3°C | 35.4% | 496.4hPa | 2.7V | 00:00:00 | 02:32:27 | 00:00:00 | |
| OE5DXL-15 | 2026-09-02 13:01:55 | 48.06804 | 12.83218 | 104° | 58km/h | 5876m | -5.6m/s | -16.3°C | 33.6% | 496.0hPa | 2.7V | 00:00:00 | 00:00:00 | 00:00:00 | |
| PG1ADW-2 | 2026-09-02 13:01:50 | 48.06821 | 12.83110 | 105° | 58km/h | 5906m | -5.7m/s | -16.5°C | 22.4% | 494.0hPa | 2.7V | 00:00:00 | 00:00:00 | 00:00:00 | |
| OE5MMP-10 | 2026-09-02 13:01:46 | 48.06836 | 12.83024 | 104° | 58km/h | 5929m | -5.8m/s | -16.4°C | 17.3% | 492.5hPa | 2.7V | 07:55:00 | 02:32:17 | 00:00:00 | |
| OE5MMP-10 | 2026-09-02 13:01:36 | 48.06866 | 12.82806 | 102° | 57km/h | 5988m | -5.3m/s | -16.5°C | 17.9% | 488.7hPa | 2.7V | 00:00:00 | 02:32:07 | 00:00:00 | |
| OE5WHR-10 | 2026-09-02 13:01:35 | 48.06869 | 12.82785 | 102° | 55km/h | 5994m | -6.4m/s | -16.5°C | 17.9% | 488.2hPa | 2.7V | 00:00:00 | 02:32:06 | 00:00:00 | |
| PG1ADW-2 | 2026-09-02 13:01:30 | 48.06883 | 12.82680 | 102° | 55km/h | 6023m | -6.0m/s | -16.6°C | 18.5% | 486.3hPa | 2.7V | 00:00:00 | 00:00:00 | 00:00:00 | |
| DO7DH-14 | 2026-09-02 13:01:27 | 48.06891 | 12.82617 | 100° | 55km/h | 6041m | -5.5m/s | -16.7°C | 19.0% | 485.2hPa | 2.7V | 00:00:00 | 02:31:58 | 00:00:00 | |
| OE5MMP-10 | 2026-09-02 13:01:26 | 48.06894 | 12.82596 | 101° | 55km/h | 6047m | -5.9m/s | -16.7°C | 18.9% | 484.9hPa | 2.7V | 00:00:00 | 02:31:57 | 00:00:00 | |
| DO3MHA-11 | 2026-09-02 13:01:25 | 48.06896 | 12.82575 | 102° | 64km/h | 6052m | -5.5m/s | -16.8°C | 18.7% | 484.4hPa | 2.7V | 00:00:00 | 02:31:56 | 00:00:00 | |
| OE5MMP-10 | 2026-09-02 13:01:16 | 48.06919 | 12.82393 | 101° | 55km/h | 6105m | -5.7m/s | -17.2°C | 17.8% | 481.1hPa | 2.7V | 00:00:00 | 02:31:47 | 00:00:00 | |
| OE5WHR-10 | 2026-09-02 13:01:14 | 48.06924 | 12.82353 | 101° | 57km/h | 6117m | -6.2m/s | -17.3°C | 17.6% | 480.3hPa | 2.7V | 00:00:00 | 00:00:00 | 00:00:00 | |
| OE5DRO-10 | 2026-09-02 13:01:11 | 48.06932 | 12.82292 | 101° | 57km/h | 6134m | -5.8m/s | -17.4°C | 17.8% | 479.2hPa | 2.7V | 07:55:00 | 00:00:00 | 00:00:00 | |
| OE5MMP-10 | 2026-09-02 13:01:06 | 48.06945 | 12.82190 | 101° | 57km/h | 6164m | -5.8m/s | -17.7°C | 17.8% | 477.3hPa | 2.7V | 00:00:00 | 02:31:37 | 00:00:00 | |
| DG1MFX-10 | 2026-09-02 13:01:05 | 48.06945 | 12.82190 | 102° | 57km/h | 6164m | -5.8m/s | -17.7°C | 17.0% | 477.4hPa | 2.7V | 07:56:00 | 00:00:00 | 00:00:00 | |
| DO7DH-14 | 2026-09-02 13:00:57 | 48.06969 | 12.82002 | 103° | 58km/h | 6217m | -5.4m/s | -18.0°C | 28.0% | 474.0hPa | 2.7V | 00:00:00 | 02:31:28 | 00:00:00 | |
| OE5MMP-10 | 2026-09-02 13:00:56 | 48.06973 | 12.81981 | 102° | 57km/h | 6222m | -5.9m/s | -18.0°C | 28.7% | 473.6hPa | 2.7V | 00:00:00 | 02:31:27 | 00:00:00 | |
| OE5DXL-15 | 2026-09-02 13:00:55 | 48.06975 | 12.81960 | 102° | 58km/h | 6229m | -6.1m/s | -18.1°C | 30.0% | 473.2hPa | 2.7V | 07:56:00 | 00:00:00 | 00:00:00 | |
| OE5WHR-10 | 2026-09-02 13:00:53 | 48.06982 | 12.81917 | 103° | 58km/h | 6240m | -6.1m/s | -18.2°C | 31.9% | 472.5hPa | 2.7V | 00:00:00 | 00:00:00 | 00:00:00 | |
| OE5DRO-10 | 2026-09-02 13:00:52 | 48.06988 | 12.81875 | 104° | 58km/h | 6252m | -5.7m/s | -18.3°C | 34.1% | 471.7hPa | 2.7V | 00:00:00 | 00:00:00 | 00:00:00 | |
| PG1ADW-2 | 2026-09-02 13:00:50 | 48.06992 | 12.81853 | 104° | 58km/h | 6258m | -5.6m/s | -18.4°C | 34.5% | 471.4hPa | 2.7V | 00:00:00 | 02:31:21 | 00:00:00 | |
| OE5FHM-15 | 2026-09-02 13:00:47 | 48.07001 | 12.81790 | 103° | 60km/h | 6276m | -5.8m/s | -18.5°C | 36.8% | 470.2hPa | 2.7V | 00:00:00 | 02:31:18 | 00:00:00 | |
| OE5MMP-10 | 2026-09-02 13:00:46 | 48.07004 | 12.81769 | 102° | 58km/h | 6282m | -6.0m/s | -18.6°C | 37.3% | 469.9hPa | 2.7V | 00:00:00 | 02:31:17 | 00:00:00 | |
| DG1MFX-10 | 2026-09-02 13:00:44 | 48.07007 | 12.81747 | 102° | 58km/h | 6288m | -6.1m/s | -18.7°C | 37.3% | 469.5hPa | 2.7V | 07:57:00 | 00:00:00 | 00:00:00 | |
| OE5MMP-10 | 2026-09-02 13:00:37 | 48.07034 | 12.81550 | 101° | 60km/h | 6341m | -5.8m/s | -19.2°C | 41.2% | 466.3hPa | 2.7V | 00:00:00 | 02:31:07 | 00:00:00 | |
| OE5DRO-10 | 2026-09-02 13:00:33 | 48.07043 | 12.81482 | 100° | 62km/h | 6358m | -6.0m/s | -19.3°C | 43.4% | 465.1hPa | 2.7V | 00:00:00 | 00:00:00 | 00:00:00 | |
| OE5WHR-10 | 2026-09-02 13:00:32 | 48.07045 | 12.81460 | 100° | 62km/h | 6364m | -5.5m/s | -19.3°C | 45.6% | 464.7hPa | 2.7V | 07:56:00 | 02:31:03 | 00:00:00 | |
| PG1ADW-2 | 2026-09-02 13:00:30 | 48.07051 | 12.81414 | 99° | 62km/h | 6376m | -5.9m/s | -19.4°C | 49.9% | 464.0hPa | 2.7V | 00:00:00 | 00:00:00 | 00:00:00 | |
| DO7DH-14 | 2026-09-02 13:00:27 | 48.07058 | 12.81345 | 100° | 64km/h | 6393m | -5.7m/s | -19.5°C | 58.0% | 462.9hPa | 2.7V | 07:56:00 | 02:30:58 | 00:00:00 | |
| OE5MMP-10 | 2026-09-02 13:00:26 | 48.07060 | 12.81323 | 100° | 62km/h | 6399m | -5.3m/s | -19.6°C | 56.8% | 462.6hPa | 2.7V | 07:56:00 | 02:30:57 | 00:00:00 | |
| OE5DXL-15 | 2026-09-02 13:00:25 | 48.07062 | 12.81300 | 99° | 64km/h | 6405m | -6.0m/s | -19.6°C | 53.7% | 462.2hPa | 2.7V | 00:00:00 | 00:00:00 | 00:00:00 | |
| DG1MFX-10 | 2026-09-02 13:00:24 | 48.07062 | 12.81300 | 100° | 60km/h | 6405m | -6.1m/s | -19.7°C | 51.9% | 462.3hPa | 2.7V | 07:57:00 | 00:00:00 | 00:00:00 | |
| OE5FHM-15 | 2026-09-02 13:00:17 | 48.07085 | 12.81116 | 102° | 66km/h | 6453m | -5.9m/s | -19.9°C | 48.4% | 459.3hPa | 2.7V | 00:00:00 | 02:30:48 | 00:00:00 | |
| OE5MMP-10 | 2026-09-02 13:00:16 | 48.07088 | 12.81093 | 100° | 64km/h | 6459m | -6.0m/s | -19.9°C | 47.1% | 458.8hPa | 2.7V | 00:00:00 | 02:30:47 | 00:00:00 | |
| OE5DRO-10 | 2026-09-02 13:00:14 | 48.07093 | 12.81045 | 102° | 66km/h | 6471m | -5.9m/s | -20.0°C | 47.8% | 458.2hPa | 2.7V | 00:00:00 | 00:00:00 | 00:00:00 | |
| OE5WHR-10 | 2026-09-02 13:00:11 | 48.07102 | 12.80974 | 101° | 66km/h | 6489m | -5.8m/s | -20.1°C | 43.1% | 457.0hPa | 2.7V | 00:00:00 | 00:00:00 | 00:00:00 | |
| PG1ADW-2 | 2026-09-02 13:00:10 | 48.07105 | 12.80950 | 100° | 66km/h | 6494m | -5.6m/s | -20.1°C | 40.5% | 456.6hPa | 2.7V | 07:56:00 | 00:00:00 | 00:00:00 | |
| OE5MMP-10 | 2026-09-02 13:00:06 | 48.07115 | 12.80854 | 99° | 66km/h | 6518m | -6.2m/s | -20.2°C | 38.3% | 455.2hPa | 2.7V | 00:00:00 | 02:30:37 | 00:00:00 | |
| DG1MFX-10 | 2026-09-02 13:00:04 | 48.07118 | 12.80829 | 100° | 68km/h | 6524m | -5.6m/s | -20.2°C | 37.6% | 455.0hPa | 2.7V | 07:57:00 | 00:00:00 | 00:00:00 | |
| DO7DH-14 | 2026-09-02 12:59:57 | 48.07137 | 12.80631 | 97° | 68km/h | 6571m | -5.6m/s | -20.5°C | 38.8% | 452.1hPa | 2.7V | 00:00:00 | 02:30:28 | 00:00:00 | |
| OE5MMP-10 | 2026-09-02 12:59:56 | 48.07139 | 12.80606 | 97° | 68km/h | 6577m | -5.9m/s | -20.6°C | 40.8% | 451.7hPa | 2.7V | 00:00:00 | 02:30:27 | 00:00:00 | |
| OE5DXL-15 | 2026-09-02 12:59:55 | 48.07141 | 12.80581 | 98° | 68km/h | 6583m | -5.6m/s | -20.6°C | 44.2% | 451.3hPa | 2.7V | 00:00:00 | 00:00:00 | 00:00:00 | |
| OE5WHR-10 | 2026-09-02 12:59:50 | 48.07149 | 12.80455 | 96° | 68km/h | 6612m | -6.1m/s | -20.9°C | 48.4% | 449.5hPa | 2.7V | 00:00:00 | 00:00:00 | 00:00:00 | |
| OE5FHM-15 | 2026-09-02 12:59:47 | 48.07155 | 12.80379 | 97° | 64km/h | 6630m | -5.6m/s | -21.1°C | 52.5% | 448.4hPa | 2.7V | 00:00:00 | 02:30:18 | 00:00:00 | |
| OE5MMP-10 | 2026-09-02 12:59:46 | 48.07156 | 12.80354 | 96° | 68km/h | 6636m | -5.5m/s | -21.1°C | 53.0% | 448.1hPa | 2.7V | 00:00:00 | 02:30:17 | 00:00:00 | |
| DG1MFX-10 | 2026-09-02 12:59:43 | 48.07160 | 12.80304 | 96° | 66km/h | 6647m | -6.0m/s | -21.3°C | 53.2% | 447.3hPa | 2.7V | 07:57:00 | 00:00:00 | 00:00:00 | |
| OE5MMP-10 | 2026-09-02 12:59:36 | 48.07173 | 12.80098 | 96° | 69km/h | 6695m | -6.3m/s | -21.6°C | 59.3% | 444.4hPa | 2.7V | 00:00:00 | 02:30:07 | 00:00:00 | |
| PG1ADW-2 | 2026-09-02 12:59:30 | 48.07185 | 12.79943 | 98° | 69km/h | 6732m | -6.2m/s | -21.9°C | 65.0% | 442.2hPa | 2.7V | 00:00:00 | 02:30:01 | 00:00:00 | |
| OE5WHR-10 | 2026-09-02 12:59:29 | 48.07187 | 12.79918 | 98° | 69km/h | 6739m | -6.3m/s | -21.9°C | 65.1% | 441.9hPa | 2.7V | 00:00:00 | 02:30:00 | 00:00:00 | |
| DO7DH-14 | 2026-09-02 12:59:27 | 48.07192 | 12.79866 | 99° | 69km/h | 6751m | -6.2m/s | -22.0°C | 65.5% | 441.1hPa | 2.7V | 00:00:00 | 02:29:58 | 00:00:00 | |
| OE5MMP-10 | 2026-09-02 12:59:26 | 48.07195 | 12.79839 | 100° | 69km/h | 6757m | -5.8m/s | -22.0°C | 65.8% | 440.8hPa | 2.7V | 00:00:00 | 02:29:57 | 00:00:00 | |
| OE5DXL-15 | 2026-09-02 12:59:25 | 48.07197 | 12.79813 | 100° | 69km/h | 6764m | -6.0m/s | -22.1°C | 66.2% | 440.4hPa | 2.7V | 00:00:00 | 00:00:00 | 00:00:00 | |
| DG1MFX-10 | 2026-09-02 12:59:22 | 48.07204 | 12.79761 | 101° | 69km/h | 6775m | -6.1m/s | -22.2°C | 65.0% | 439.7hPa | 2.7V | 07:57:00 | 00:00:00 | 00:00:00 | |
| OE5DRO-10 | 2026-09-02 12:59:17 | 48.07223 | 12.79606 | 103° | 69km/h | 6814m | -6.5m/s | -22.4°C | 72.5% | 437.5hPa | 2.7V | 00:00:00 | 00:00:00 | 00:00:00 | |
| OE5MMP-10 | 2026-09-02 12:59:16 | 48.07227 | 12.79581 | 103° | 69km/h | 6821m | -6.6m/s | -22.3°C | 73.9% | 437.1hPa | 2.7V | 00:00:00 | 02:29:47 | 00:00:00 | |
| PG1ADW-2 | 2026-09-02 12:59:10 | 48.07252 | 12.79431 | 106° | 69km/h | 6862m | -6.2m/s | -22.5°C | 75.0% | 434.7hPa | 2.7V | 00:00:00 | 00:00:00 | 00:00:00 | |
| OE5WHR-10 | 2026-09-02 12:59:08 | 48.07262 | 12.79380 | 107° | 68km/h | 6874m | -6.2m/s | -22.6°C | 75.4% | 433.9hPa | 2.7V | 00:00:00 | 00:00:00 | 00:00:00 | |
| OE5MMP-10 | 2026-09-02 12:59:06 | 48.07271 | 12.79329 | 105° | 69km/h | 6888m | -7.0m/s | -22.7°C | 75.7% | 433.1hPa | 2.7V | 07:57:00 | 02:29:37 | 00:00:00 | |
| DG1MFX-10 | 2026-09-02 12:59:02 | 48.07291 | 12.79227 | 108° | 69km/h | 6916m | -6.8m/s | -23.0°C | 74.5% | 431.6hPa | 2.7V | 07:58:00 | 00:00:00 | 00:00:00 | |
| OE5DRO-10 | 2026-09-02 12:58:58 | 48.07314 | 12.79128 | 111° | 66km/h | 6940m | -5.9m/s | -23.1°C | 78.8% | 430.1hPa | 2.7V | 00:00:00 | 00:00:00 | 00:00:00 | |
| DO7DH-14 | 2026-09-02 12:58:57 | 48.07320 | 12.79104 | 111° | 64km/h | 6946m | -5.6m/s | -23.2°C | 79.2% | 429.9hPa | 2.7V | 00:00:00 | 02:29:28 | 00:00:00 | |
| OE5MMP-10 | 2026-09-02 12:58:56 | 48.07326 | 12.79080 | 111° | 66km/h | 6952m | -5.5m/s | -23.2°C | 79.7% | 429.5hPa | 2.7V | 00:00:00 | 02:29:27 | 00:00:00 | |
| OE5DXL-15 | 2026-09-02 12:58:55 | 48.07332 | 12.79056 | 113° | 62km/h | 6957m | -5.3m/s | -23.3°C | 80.2% | 429.1hPa | 2.7V | 00:00:00 | 00:00:00 | 00:00:00 | |
| PG1ADW-2 | 2026-09-02 12:58:50 | 48.07363 | 12.78942 | 113° | 62km/h | 6986m | -5.5m/s | -23.5°C | 81.8% | 427.5hPa | 2.7V | 00:00:00 | 00:00:00 | 00:00:00 | |
| OE5WHR-10 | 2026-09-02 12:58:47 | 48.07383 | 12.78875 | 115° | 62km/h | 7002m | -5.2m/s | -23.5°C | 83.8% | 426.5hPa | 2.7V | 00:00:00 | 00:00:00 | 00:00:00 | |
| OE5MMP-10 | 2026-09-02 12:58:46 | 48.07389 | 12.78852 | 114° | 64km/h | 7008m | -5.3m/s | -23.6°C | 84.1% | 426.2hPa | 2.7V | 00:00:00 | 02:29:17 | 00:00:00 | |
| DG1MFX-10 | 2026-09-02 12:58:41 | 48.07416 | 12.78764 | 115° | 64km/h | 7030m | -5.7m/s | -23.6°C | 81.9% | 424.9hPa | 2.7V | 07:58:00 | 00:00:00 | 00:00:00 | |
| OE5DRO-10 | 2026-09-02 12:58:39 | 48.07436 | 12.78699 | 116° | 60km/h | 7047m | -5.2m/s | -23.4°C | 83.9% | 423.9hPa | 2.7V | 07:58:00 | 00:00:00 | 00:00:00 | |
| OE5MMP-10 | 2026-09-02 12:58:36 | 48.07456 | 12.78635 | 115° | 60km/h | 7063m | -5.8m/s | -23.5°C | 83.9% | 422.9hPa | 2.7V | 00:00:00 | 02:29:07 | 00:00:00 | |
| PG1ADW-2 | 2026-09-02 12:58:30 | 48.07495 | 12.78512 | 117° | 62km/h | 7097m | -5.9m/s | -23.8°C | 85.6% | 420.9hPa | 2.7V | 00:00:00 | 00:00:00 | 00:00:00 | |
| OE5FHM-15 | 2026-09-02 12:58:29 | 48.07502 | 12.78491 | 117° | 62km/h | 7103m | -6.0m/s | -23.9°C | 86.0% | 420.5hPa | 2.7V | 00:00:00 | 02:29:00 | 00:00:00 | |
| DO7DH-14 | 2026-09-02 12:58:27 | 48.07516 | 12.78451 | 118° | 62km/h | 7115m | -5.8m/s | -24.0°C | 86.1% | 419.9hPa | 2.7V | 00:00:00 | 02:28:58 | 00:00:00 | |
| OE5MMP-10 | 2026-09-02 12:58:26 | 48.07523 | 12.78431 | 119° | 60km/h | 7121m | -5.9m/s | -24.0°C | 86.4% | 419.5hPa | 2.7V | 00:00:00 | 02:28:57 | 00:00:00 | |
| OE5DXL-15 | 2026-09-02 12:58:25 | 48.07530 | 12.78411 | 120° | 64km/h | 7127m | -5.8m/s | -24.1°C | 86.8% | 419.2hPa | 2.7V | 00:00:00 | 00:00:00 | 00:00:00 | |
| OE5DRO-10 | 2026-09-02 12:58:20 | 48.07566 | 12.78310 | 119° | 64km/h | 7156m | -5.3m/s | -24.3°C | 87.3% | 417.5hPa | 2.7V | 00:00:00 | 00:00:00 | 00:00:00 | |
| OE5MMP-10 | 2026-09-02 12:58:16 | 48.07595 | 12.78227 | 118° | 64km/h | 7178m | -5.4m/s | -24.5°C | 84.1% | 416.2hPa | 2.7V | 00:00:00 | 02:28:47 | 00:00:00 | |
| PG1ADW-2 | 2026-09-02 12:58:10 | 48.07640 | 12.78101 | 119° | 66km/h | 7212m | -5.7m/s | -24.6°C | 81.8% | 414.2hPa | 2.7V | 00:00:00 | 02:28:41 | 00:00:00 | |
| OE5MMP-10 | 2026-09-02 12:58:06 | 48.07671 | 12.78015 | 119° | 64km/h | 7236m | -6.0m/s | -24.8°C | 83.3% | 412.8hPa | 2.7V | 00:00:00 | 02:28:37 | 00:00:00 | |
| OE5WHR-10 | 2026-09-02 12:58:05 | 48.07678 | 12.77994 | 119° | 66km/h | 7242m | -5.8m/s | -24.9°C | 83.6% | 412.5hPa | 2.7V | 00:00:00 | 00:00:00 | 00:00:00 | |
| OE5DRO-10 | 2026-09-02 12:58:01 | 48.07710 | 12.77907 | 119° | 66km/h | 7265m | -5.5m/s | -25.1°C | 85.2% | 411.2hPa | 2.7V | 00:00:00 | 00:00:00 | 00:00:00 | |
| OE5FHM-15 | 2026-09-02 12:57:59 | 48.07725 | 12.77864 | 117° | 66km/h | 7276m | -5.7m/s | -25.2°C | 85.9% | 410.6hPa | 2.7V | 00:00:00 | 02:28:30 | 00:00:00 | |
| DO7DH-14 | 2026-09-02 12:57:57 | 48.07740 | 12.77820 | 117° | 68km/h | 7287m | -6.0m/s | -25.3°C | 86.4% | 409.9hPa | 2.7V | 00:00:00 | 02:28:28 | 00:00:00 | |
| OE5MMP-10 | 2026-09-02 12:57:56 | 48.07747 | 12.77799 | 116° | 66km/h | 7294m | -6.1m/s | -25.3°C | 86.5% | 409.6hPa | 2.7V | 00:00:00 | 02:28:27 | 00:00:00 | |
| OE5DXL-15 | 2026-09-02 12:57:55 | 48.07754 | 12.77777 | 116° | 68km/h | 7300m | -5.9m/s | -25.4°C | 86.7% | 409.2hPa | 2.7V | 00:00:00 | 00:00:00 | 00:00:00 | |
| PG1ADW-2 | 2026-09-02 12:57:50 | 48.07790 | 12.77665 | 116° | 68km/h | 7329m | -5.9m/s | -25.6°C | 87.9% | 407.6hPa | 2.7V | 00:00:00 | 00:00:00 | 00:00:00 | |
| OE5MMP-10 | 2026-09-02 12:57:46 | 48.07819 | 12.77573 | 115° | 68km/h | 7352m | -5.6m/s | -25.8°C | 88.6% | 406.3hPa | 2.7V | 07:59:00 | 02:28:17 | 00:00:00 | |
| OE5WHR-10 | 2026-09-02 12:57:44 | 48.07832 | 12.77527 | 114° | 68km/h | 7364m | -5.9m/s | -25.8°C | 89.8% | 405.7hPa | 2.7V | 07:59:00 | 00:00:00 | 00:00:00 | |
| OE5DRO-10 | 2026-09-02 12:57:42 | 48.07847 | 12.77481 | 116° | 69km/h | 7376m | -5.7m/s | -25.9°C | 90.7% | 405.0hPa | 2.7V | 00:00:00 | 00:00:00 | 00:00:00 | |
| DG1MFX-10 | 2026-09-02 12:57:40 | 48.07861 | 12.77435 | 116° | 68km/h | 7388m | -5.9m/s | -26.0°C | 87.4% | 404.3hPa | 2.7V | 07:59:00 | 00:00:00 | 00:00:00 | |
| OE5MMP-10 | 2026-09-02 12:57:36 | 48.07890 | 12.77342 | 116° | 69km/h | 7412m | -5.8m/s | -26.1°C | 90.3% | 403.0hPa | 2.7V | 00:00:00 | 02:28:07 | 00:00:00 | |
| PG1ADW-2 | 2026-09-02 12:57:30 | 48.07934 | 12.77200 | 114° | 69km/h | 7449m | -6.1m/s | -26.4°C | 88.2% | 400.9hPa | 2.7V | 07:59:00 | 00:00:00 | 00:00:00 | |
| OE5FHM-15 | 2026-09-02 12:57:27 | 48.07955 | 12.77130 | 115° | 69km/h | 7467m | -6.1m/s | -26.5°C | 88.0% | 399.9hPa | 2.7V | 00:00:00 | 02:27:58 | 00:00:00 | |
| OE5MMP-10 | 2026-09-02 12:57:26 | 48.07962 | 12.77106 | 116° | 69km/h | 7473m | -5.8m/s | -26.6°C | 87.9% | 399.5hPa | 2.7V | 00:00:00 | 02:27:57 | 00:00:00 | |
| OE5DXL-15 | 2026-09-02 12:57:25 | 48.07970 | 12.77082 | 115° | 69km/h | 7479m | -6.4m/s | -26.7°C | 87.1% | 399.2hPa | 2.7V | 00:00:00 | 00:00:00 | 00:00:00 | |
| OE5WHR-10 | 2026-09-02 12:57:23 | 48.07984 | 12.77034 | 116° | 69km/h | 7492m | -6.0m/s | -26.7°C | 83.1% | 398.6hPa | 2.7V | 00:00:00 | 02:27:54 | 00:00:00 | |
| DG1MFX-10 | 2026-09-02 12:57:18 | 48.08014 | 12.76939 | 116° | 69km/h | 7517m | -6.1m/s | -26.7°C | 67.3% | 397.2hPa | 2.7V | 08:00:00 | 00:00:00 | 00:00:00 | |
| OE5MMP-10 | 2026-09-02 12:57:16 | 48.08035 | 12.76868 | 116° | 69km/h | 7535m | -5.8m/s | -26.8°C | 70.0% | 396.2hPa | 2.7V | 00:00:00 | 02:27:47 | 00:00:00 | |
| PG1ADW-2 | 2026-09-02 12:57:10 | 48.08078 | 12.76726 | 115° | 68km/h | 7573m | -6.2m/s | -27.1°C | 65.7% | 394.1hPa | 2.7V | 00:00:00 | 00:00:00 | 00:00:00 | |
| OE5MMP-10 | 2026-09-02 12:57:06 | 48.08107 | 12.76632 | 114° | 68km/h | 7598m | -6.3m/s | -27.3°C | 61.9% | 392.7hPa | 2.7V | 00:00:00 | 02:27:37 | 00:00:00 | |
| OE5DRO-10 | 2026-09-02 12:57:04 | 48.08121 | 12.76585 | 114° | 68km/h | 7611m | -6.3m/s | -27.4°C | 60.3% | 392.0hPa | 2.7V | 00:00:00 | 00:00:00 | 00:00:00 | |
| OE5HKT-10 | 2026-09-02 12:57:03 | 48.08128 | 12.76562 | 114° | 68km/h | 7618m | -6.3m/s | -27.5°C | 59.0% | 391.7hPa | 2.7V | 00:00:00 | 00:00:00 | 00:00:00 | |
| DO7DH-14 | 2026-09-02 12:56:57 | 48.08171 | 12.76422 | 115° | 69km/h | 7656m | -6.4m/s | -27.8°C | 56.5% | 389.6hPa | 2.7V | 00:00:00 | 02:27:28 | 00:00:00 | |
| OE5MMP-10 | 2026-09-02 12:56:56 | 48.08178 | 12.76398 | 115° | 68km/h | 7663m | -6.4m/s | -27.8°C | 56.4% | 389.3hPa | 2.7V | 00:00:00 | 02:27:27 | 00:00:00 | |
| OE5FHM-15 | 2026-09-02 12:56:55 | 48.08185 | 12.76375 | 116° | 69km/h | 7669m | -6.0m/s | -27.9°C | 56.4% | 388.9hPa | 2.7V | 08:00:00 | 02:27:26 | 00:00:00 | |
| PG1ADW-2 | 2026-09-02 12:56:50 | 48.08222 | 12.76258 | 115° | 69km/h | 7700m | -6.6m/s | -28.2°C | 56.2% | 387.2hPa | 2.7V | 00:00:00 | 02:27:21 | 00:00:00 | |
| OE5MMP-10 | 2026-09-02 12:56:46 | 48.08251 | 12.76167 | 116° | 69km/h | 7726m | -6.3m/s | -28.4°C | 56.4% | 385.8hPa | 2.7V | 00:00:00 | 02:27:17 | 00:00:00 | |
| OE5DRO-10 | 2026-09-02 12:56:45 | 48.08258 | 12.76143 | 117° | 71km/h | 7732m | -6.2m/s | -28.5°C | 56.5% | 385.5hPa | 2.7V | 00:00:00 | 00:00:00 | 00:00:00 | |
| OE5WHR-10 | 2026-09-02 12:56:41 | 48.08289 | 12.76049 | 116° | 71km/h | 7758m | -6.1m/s | -28.7°C | 57.1% | 384.1hPa | 2.7V | 00:00:00 | 00:00:00 | 00:00:00 | |
| BAUMI2-15 | 2026-09-02 12:56:39 | 48.08304 | 12.76001 | 117° | 69km/h | 7770m | -5.9m/s | -28.9°C | 57.4% | 383.5hPa | 2.7V | 00:00:00 | 02:27:10 | 00:00:00 | |
| OE5MMP-10 | 2026-09-02 12:56:36 | 48.08327 | 12.75930 | 116° | 71km/h | 7789m | -6.2m/s | -29.0°C | 57.4% | 382.5hPa | 2.7V | 00:00:00 | 02:27:07 | 00:00:00 | |
| BAUMI2-15 | 2026-09-02 12:56:34 | 48.08343 | 12.75883 | 117° | 71km/h | 7801m | -6.1m/s | -29.1°C | 58.1% | 381.8hPa | 2.7V | 00:00:00 | 02:27:05 | 00:00:00 | |
| PG1ADW-2 | 2026-09-02 12:56:31 | 48.08376 | 12.75788 | 118° | 73km/h | 7825m | -6.1m/s | -29.3°C | 59.4% | 380.5hPa | 2.7V | 00:00:00 | 00:00:00 | 00:00:00 | |
| BAUMI2-15 | 2026-09-02 12:56:29 | 48.08385 | 12.75764 | 118° | 71km/h | 7831m | -6.5m/s | -29.4°C | 59.6% | 380.2hPa | 2.7V | 00:00:00 | 02:27:00 | 00:00:00 | |
| DO7DH-14 | 2026-09-02 12:56:27 | 48.08401 | 12.75716 | 118° | 75km/h | 7844m | -6.4m/s | -29.5°C | 60.2% | 379.5hPa | 2.7V | 00:00:00 | 02:26:58 | 00:00:00 | |
| OE5MMP-10 | 2026-09-02 12:56:26 | 48.08410 | 12.75692 | 119° | 73km/h | 7851m | -6.3m/s | -29.6°C | 60.5% | 379.2hPa | 2.7V | 08:00:00 | 02:26:57 | 00:00:00 | |
| OE5DXL-15 | 2026-09-02 12:56:25 | 48.08419 | 12.75668 | 118° | 77km/h | 7857m | -6.4m/s | -29.6°C | 60.5% | 378.8hPa | 2.7V | 00:00:00 | 00:00:00 | 00:00:00 | |
| BAUMI2-15 | 2026-09-02 12:56:24 | 48.08427 | 12.75643 | 119° | 73km/h | 7864m | -6.1m/s | -29.7°C | 60.8% | 378.5hPa | 2.7V | 00:00:00 | 02:26:55 | 00:00:00 | |
| OE5WHR-10 | 2026-09-02 12:56:20 | 48.08462 | 12.75545 | 119° | 77km/h | 7889m | -6.2m/s | -29.9°C | 61.8% | 377.1hPa | 2.7V | 00:00:00 | 02:26:51 | 00:00:00 | |
| BAUMI2-15 | 2026-09-02 12:56:19 | 48.08471 | 12.75521 | 120° | 75km/h | 7895m | -6.0m/s | -30.0°C | 61.8% | 376.7hPa | 2.7V | 08:00:00 | 02:26:50 | 00:00:00 | |
| OE5MMP-10 | 2026-09-02 12:56:16 | 48.08499 | 12.75447 | 119° | 77km/h | 7914m | -6.2m/s | -30.2°C | 62.7% | 375.8hPa | 2.7V | 00:00:00 | 02:26:47 | 00:00:00 | |
| DG1MFX-10 | 2026-09-02 12:56:15 | 48.08499 | 12.75447 | 120° | 75km/h | 7914m | -6.3m/s | -30.2°C | 59.6% | 375.8hPa | 2.7V | 08:01:00 | 00:00:00 | 00:00:00 | |
| BAUMI2-15 | 2026-09-02 12:56:14 | 48.08517 | 12.75397 | 119° | 75km/h | 7927m | -6.6m/s | -30.3°C | 63.2% | 375.1hPa | 2.7V | 00:00:00 | 02:26:45 | 00:00:00 | |
| PG1ADW-2 | 2026-09-02 12:56:10 | 48.08554 | 12.75297 | 119° | 77km/h | 7953m | -6.2m/s | -30.5°C | 63.9% | 373.7hPa | 2.7V | 00:00:00 | 00:00:00 | 00:00:00 | |
| BAUMI2-15 | 2026-09-02 12:56:09 | 48.08563 | 12.75271 | 119° | 77km/h | 7959m | -6.0m/s | -30.6°C | 63.9% | 373.3hPa | 2.7V | 00:00:00 | 02:26:40 | 00:00:00 | |
| OE5DRO-10 | 2026-09-02 12:56:07 | 48.08582 | 12.75221 | 120° | 78km/h | 7971m | -6.4m/s | -30.7°C | 64.2% | 372.7hPa | 2.7V | 00:00:00 | 00:00:00 | 00:00:00 | |
| OE5MMP-10 | 2026-09-02 12:56:06 | 48.08591 | 12.75195 | 120° | 77km/h | 7978m | -6.6m/s | -30.8°C | 64.4% | 372.4hPa | 2.7V | 00:00:00 | 02:26:37 | 00:00:00 | |
| BAUMI2-15 | 2026-09-02 12:56:04 | 48.08610 | 12.75144 | 120° | 77km/h | 7991m | -6.5m/s | -30.9°C | 64.8% | 371.7hPa | 2.7V | 00:00:00 | 02:26:35 | 00:00:00 | |
| OE5WHR-10 | 2026-09-02 12:56:00 | 48.08658 | 12.75017 | 119° | 78km/h | 8023m | -6.5m/s | -31.2°C | 67.2% | 370.1hPa | 2.7V | 08:01:00 | 00:00:00 | 00:00:00 | |
| DO7DH-14 | 2026-09-02 12:55:57 | 48.08677 | 12.74965 | 119° | 80km/h | 8035m | -5.8m/s | -31.3°C | 68.0% | 369.4hPa | 2.7V | 00:00:00 | 02:26:28 | 00:00:00 | |
| OE5MMP-10 | 2026-09-02 12:55:56 | 48.08686 | 12.74940 | 118° | 78km/h | 8041m | -6.1m/s | -31.3°C | 68.3% | 369.0hPa | 2.7V | 00:00:00 | 02:26:27 | 00:00:00 | |
| OE5FHM-15 | 2026-09-02 12:55:55 | 48.08695 | 12.74913 | 118° | 80km/h | 8048m | -6.3m/s | -31.4°C | 68.6% | 368.7hPa | 2.7V | 00:00:00 | 02:26:26 | 00:00:00 | |
| BAUMI2-15 | 2026-09-02 12:55:54 | 48.08704 | 12.74887 | 118° | 78km/h | 8054m | -6.6m/s | -31.5°C | 68.8% | 368.4hPa | 2.7V | 00:00:00 | 02:26:25 | 00:00:00 | |
| PG1ADW-2 | 2026-09-02 12:55:50 | 48.08741 | 12.74782 | 119° | 80km/h | 8080m | -6.0m/s | -31.7°C | 69.7% | 367.0hPa | 2.7V | 00:00:00 | 00:00:00 | 00:00:00 | |
| OE5DRO-10 | 2026-09-02 12:55:49 | 48.08769 | 12.74702 | 118° | 82km/h | 8099m | -6.6m/s | -31.9°C | 70.0% | 366.0hPa | 2.7V | 00:00:00 | 00:00:00 | 00:00:00 | |
| OE5MMP-10 | 2026-09-02 12:55:46 | 48.08779 | 12.74675 | 118° | 80km/h | 8106m | -6.4m/s | -31.9°C | 70.1% | 365.8hPa | 2.7V | 00:00:00 | 02:26:17 | 00:00:00 | |
| BAUMI2-15 | 2026-09-02 12:55:44 | 48.08797 | 12.74622 | 118° | 80km/h | 8118m | -6.4m/s | -32.0°C | 71.0% | 365.1hPa | 2.7V | 00:00:00 | 02:26:15 | 00:00:00 | |
| BAUMI2-15 | 2026-09-02 12:55:39 | 48.08844 | 12.74487 | 117° | 82km/h | 8150m | -6.4m/s | -32.3°C | 76.8% | 363.4hPa | 2.7V | 00:00:00 | 02:26:10 | 00:00:00 | |
| OE5WHR-10 | 2026-09-02 12:55:38 | 48.08853 | 12.74459 | 117° | 84km/h | 8156m | -6.6m/s | -32.4°C | 77.5% | 363.1hPa | 2.7V | 00:00:00 | 00:00:00 | 00:00:00 | |
| OE5MMP-10 | 2026-09-02 12:55:36 | 48.08872 | 12.74403 | 116° | 84km/h | 8170m | -6.5m/s | -32.5°C | 78.6% | 362.4hPa | 2.7V | 00:00:00 | 02:26:07 | 00:00:00 | |
| BAUMI2-15 | 2026-09-02 12:55:34 | 48.08890 | 12.74347 | 116° | 84km/h | 8182m | -6.1m/s | -32.6°C | 78.6% | 361.8hPa | 2.7V | 08:01:00 | 02:26:05 | 00:00:00 | |
| DG1MFX-10 | 2026-09-02 12:55:33 | 48.08890 | 12.74347 | 117° | 84km/h | 8182m | -6.2m/s | -32.6°C | 74.8% | 361.8hPa | 2.7V | 08:02:00 | 00:00:00 | 00:00:00 | |
| BAUMI2-15 | 2026-09-02 12:55:31 | 48.08936 | 12.74204 | 114° | 84km/h | 8214m | -6.3m/s | -32.9°C | 76.7% | 360.1hPa | 2.7V | 00:00:00 | 02:26:00 | 00:00:00 | |
| DO7DH-14 | 2026-09-02 12:55:27 | 48.08953 | 12.74147 | 114° | 84km/h | 8227m | -6.5m/s | -33.0°C | 74.9% | 359.5hPa | 2.7V | 00:00:00 | 02:25:58 | 00:00:00 | |
| OE5MMP-10 | 2026-09-02 12:55:26 | 48.08961 | 12.74118 | 114° | 84km/h | 8233m | -6.3m/s | -33.0°C | 73.7% | 359.3hPa | 2.7V | 00:00:00 | 02:25:57 | 00:00:00 | |
| OE5FHM-15 | 2026-09-02 12:55:25 | 48.08970 | 12.74088 | 115° | 84km/h | 8239m | -6.0m/s | -33.1°C | 72.8% | 358.8hPa | 2.7V | 00:00:00 | 02:25:56 | 00:00:00 | |
| BAUMI2-15 | 2026-09-02 12:55:24 | 48.08979 | 12.74060 | 114° | 84km/h | 8245m | -6.4m/s | -33.1°C | 72.0% | 358.5hPa | 2.7V | 00:00:00 | 02:25:55 | 00:00:00 | |
| DO3MHA-11 | 2026-09-02 12:55:19 | 48.09021 | 12.73916 | 114° | 84km/h | 8277m | -6.5m/s | -33.3°C | 68.2% | 356.9hPa | 2.7V | 08:01:00 | 02:25:50 | 00:00:00 | |
| OE5WHR-10 | 2026-09-02 12:55:17 | 48.09038 | 12.73858 | 114° | 86km/h | 8290m | -6.6m/s | -33.4°C | 65.2% | 356.2hPa | 2.7V | 00:00:00 | 02:25:48 | 00:00:00 | |
| OE5MMP-10 | 2026-09-02 12:55:16 | 48.09047 | 12.73829 | 114° | 84km/h | 8297m | -6.2m/s | -33.4°C | 63.6% | 355.9hPa | 2.7V | 00:00:00 | 02:25:47 | 00:00:00 | |
| BAUMI2-15 | 2026-09-02 12:55:14 | 48.09064 | 12.73770 | 113° | 84km/h | 8309m | -6.4m/s | -33.6°C | 62.6% | 355.2hPa | 2.7V | 00:00:00 | 02:25:45 | 00:00:00 | |
| DG1MFX-10 | 2026-09-02 12:55:12 | 48.09072 | 12.73740 | 114° | 86km/h | 8316m | -6.5m/s | -33.7°C | 58.5% | 354.9hPa | 2.7V | 08:02:00 | 00:00:00 | 00:00:00 | |
| PG1ADW-2 | 2026-09-02 12:55:10 | 48.09097 | 12.73652 | 114° | 86km/h | 8336m | -6.4m/s | -33.8°C | 61.3% | 353.9hPa | 2.7V | 00:00:00 | 00:00:00 | 00:00:00 | |
| BAUMI2-15 | 2026-09-02 12:55:09 | 48.09106 | 12.73623 | 113° | 84km/h | 8342m | -6.5m/s | -33.8°C | 61.3% | 353.6hPa | 2.7V | 00:00:00 | 02:25:40 | 00:00:00 | |
| DL6DJ-15 | 2026-09-02 12:55:08 | 48.09123 | 12.73564 | 112° | 84km/h | 8355m | -6.5m/s | -34.0°C | 58.4% | 353.0hPa | 2.7V | 00:00:00 | 00:00:00 | 00:00:00 | |
| OE5MMP-10 | 2026-09-02 12:55:06 | 48.09131 | 12.73534 | 114° | 86km/h | 8362m | -6.2m/s | -34.0°C | 62.5% | 352.6hPa | 2.7V | 00:00:00 | 02:25:37 | 00:00:00 | |
| BAUMI2-15 | 2026-09-02 12:55:04 | 48.09147 | 12.73475 | 113° | 86km/h | 8374m | -6.4m/s | -34.2°C | 63.5% | 352.0hPa | 2.7V | 00:00:00 | 02:25:35 | 00:00:00 | |
| BAUMI2-15 | 2026-09-02 12:54:59 | 48.09189 | 12.73326 | 112° | 86km/h | 8407m | -6.3m/s | -34.5°C | 63.5% | 350.4hPa | 2.7V | 00:00:00 | 02:25:30 | 00:00:00 | |
| DO7DH-14 | 2026-09-02 12:54:57 | 48.09205 | 12.73266 | 112° | 86km/h | 8419m | -6.3m/s | -34.6°C | 62.9% | 349.7hPa | 2.7V | 08:02:00 | 02:25:28 | 00:00:00 | |
| OE5MMP-10 | 2026-09-02 12:54:56 | 48.09214 | 12.73236 | 113° | 86km/h | 8426m | -5.9m/s | -34.6°C | 62.6% | 349.4hPa | 2.7V | 08:02:00 | 02:25:27 | 00:00:00 | |
| OE5FHM-15 | 2026-09-02 12:54:55 | 48.09222 | 12.73206 | 112° | 88km/h | 8432m | -6.2m/s | -34.7°C | 62.1% | 349.1hPa | 2.7V | 00:00:00 | 02:25:26 | 00:00:00 | |
| BAUMI2-15 | 2026-09-02 12:54:54 | 48.09230 | 12.73175 | 113° | 86km/h | 8438m | -6.2m/s | -34.7°C | 61.2% | 348.7hPa | 2.7V | 00:00:00 | 02:25:25 | 00:00:00 | |
| DG1MFX-10 | 2026-09-02 12:54:51 | 48.09246 | 12.73115 | 113° | 86km/h | 8451m | -6.6m/s | -34.9°C | 57.6% | 348.2hPa | 2.7V | 08:02:00 | 00:00:00 | 00:00:00 | |
| PG1ADW-2 | 2026-09-02 12:54:50 | 48.09262 | 12.73055 | 112° | 88km/h | 8464m | -6.3m/s | -35.0°C | 61.1% | 347.5hPa | 2.7V | 08:02:00 | 00:00:00 | 00:00:00 | |
| BAUMI2-15 | 2026-09-02 12:54:49 | 48.09271 | 12.73025 | 112° | 86km/h | 8471m | -6.5m/s | -35.0°C | 61.2% | 347.1hPa | 2.7V | 08:02:00 | 02:25:20 | 00:00:00 | |
| OE5MMP-10 | 2026-09-02 12:54:46 | 48.09295 | 12.72934 | 113° | 88km/h | 8490m | -6.0m/s | -35.2°C | 62.1% | 346.2hPa | 2.7V | 00:00:00 | 02:25:17 | 00:00:00 | |
| BAUMI2-15 | 2026-09-02 12:54:44 | 48.09311 | 12.72873 | 112° | 86km/h | 8502m | -6.6m/s | -35.3°C | 62.8% | 345.6hPa | 2.7V | 00:00:00 | 02:25:15 | 00:00:00 | |
| OE5MMP-10 | 2026-09-02 12:54:36 | 48.09376 | 12.72629 | 111° | 88km/h | 8554m | -6.5m/s | -35.8°C | 63.8% | 343.0hPa | 2.7V | 00:00:00 | 02:25:07 | 00:00:00 | |
| OE5WHR-10 | 2026-09-02 12:54:35 | 48.09384 | 12.72598 | 111° | 89km/h | 8560m | -6.4m/s | -35.9°C | 63.7% | 342.7hPa | 2.7V | 00:00:00 | 00:00:00 | 00:00:00 | |
| OE5DRO-10 | 2026-09-02 12:54:32 | 48.09407 | 12.72505 | 112° | 89km/h | 8580m | -6.0m/s | -36.1°C | 63.4% | 341.8hPa | 2.7V | 00:00:00 | 00:00:00 | 00:00:00 | |
| DG1MFX-10 | 2026-09-02 12:54:31 | 48.09407 | 12.72505 | 112° | 88km/h | 8580m | -6.0m/s | -36.1°C | 59.7% | 341.8hPa | 2.7V | 08:03:00 | 00:00:00 | 00:00:00 | |
| PG1ADW-2 | 2026-09-02 12:54:30 | 48.09423 | 12.72443 | 111° | 89km/h | 8592m | -6.4m/s | -36.2°C | 63.5% | 341.1hPa | 2.7V | 00:00:00 | 00:00:00 | 00:00:00 | |
| DO7DH-14 | 2026-09-02 12:54:27 | 48.09446 | 12.72350 | 111° | 89km/h | 8611m | -6.5m/s | -36.4°C | 63.7% | 340.2hPa | 2.7V | 00:00:00 | 02:24:58 | 00:00:00 | |
| OE5MMP-10 | 2026-09-02 12:54:26 | 48.09454 | 12.72319 | 111° | 89km/h | 8618m | -6.4m/s | -36.4°C | 64.0% | 339.9hPa | 2.7V | 00:00:00 | 02:24:57 | 00:00:00 | |
| OE5FHM-15 | 2026-09-02 12:54:25 | 48.09462 | 12.72287 | 111° | 89km/h | 8624m | -6.3m/s | -36.5°C | 64.4% | 339.6hPa | 2.7V | 00:00:00 | 02:24:56 | 00:00:00 | |
| OE5MMP-10 | 2026-09-02 12:54:16 | 48.09532 | 12.71998 | 110° | 89km/h | 8682m | -6.5m/s | -37.0°C | 63.7% | 336.8hPa | 2.7V | 00:00:00 | 02:24:47 | 00:00:00 | |
| OE5WHR-10 | 2026-09-02 12:54:14 | 48.09547 | 12.71935 | 111° | 89km/h | 8694m | -6.2m/s | -37.1°C | 64.6% | 336.2hPa | 2.7V | 00:00:00 | 02:24:45 | 00:00:00 | |
| OE5DRO-10 | 2026-09-02 12:54:13 | 48.09555 | 12.71903 | 111° | 89km/h | 8701m | -6.5m/s | -37.2°C | 65.2% | 335.8hPa | 2.7V | 08:02:00 | 00:00:00 | 00:00:00 | |
| PG1ADW-2 | 2026-09-02 12:54:10 | 48.09579 | 12.71809 | 112° | 89km/h | 8720m | -6.3m/s | -37.3°C | 63.0% | 334.8hPa | 2.7V | 00:00:00 | 02:24:41 | 00:00:00 | |
| OE5MMP-10 | 2026-09-02 12:54:06 | 48.09612 | 12.71681 | 112° | 89km/h | 8746m | -6.3m/s | -37.4°C | 49.1% | 333.6hPa | 2.7V | 00:00:00 | 02:24:37 | 00:00:00 | |
| DO3MHA-11 | 2026-09-02 12:54:03 | 48.09637 | 12.71587 | 113° | 89km/h | 8765m | -6.5m/s | -37.6°C | 43.7% | 332.7hPa | 2.7V | 00:00:00 | 02:24:34 | 00:00:00 | |
| DO7DH-14 | 2026-09-02 12:53:57 | 48.09689 | 12.71400 | 113° | 89km/h | 8804m | -6.5m/s | -37.8°C | 39.6% | 330.9hPa | 2.7V | 00:00:00 | 02:24:28 | 00:00:00 | |
| OE5MMP-10 | 2026-09-02 12:53:56 | 48.09698 | 12.71368 | 113° | 89km/h | 8811m | -6.6m/s | -37.8°C | 39.5% | 330.5hPa | 2.7V | 00:00:00 | 02:24:27 | 00:00:00 | |
| OE5FHM-15 | 2026-09-02 12:53:55 | 48.09706 | 12.71336 | 114° | 88km/h | 8817m | -6.6m/s | -37.9°C | 39.5% | 330.2hPa | 2.7V | 00:00:00 | 02:24:26 | 00:00:00 | |
| OE5DRO-10 | 2026-09-02 12:53:54 | 48.09716 | 12.71305 | 114° | 89km/h | 8824m | -6.6m/s | -37.9°C | 39.5% | 329.9hPa | 2.7V | 00:00:00 | 00:00:00 | 00:00:00 | |
| OE5WHR-10 | 2026-09-02 12:53:53 | 48.09725 | 12.71274 | 113° | 89km/h | 8830m | -6.7m/s | -38.0°C | 39.6% | 329.6hPa | 2.7V | 00:00:00 | 00:00:00 | 00:00:00 | |
| DO3MHA-11 | 2026-09-02 12:53:52 | 48.09734 | 12.71243 | 114° | 89km/h | 8837m | -6.6m/s | -38.0°C | 39.7% | 329.3hPa | 2.7V | 00:00:00 | 02:24:23 | 00:00:00 | |
| DG1MFX-10 | 2026-09-02 12:53:50 | 48.09743 | 12.71212 | 115° | 89km/h | 8843m | -6.3m/s | -38.1°C | 36.6% | 329.0hPa | 2.7V | 08:03:00 | 00:00:00 | 00:00:00 | |
| OE5MMP-10 | 2026-09-02 12:53:46 | 48.09788 | 12.71057 | 114° | 89km/h | 8875m | -6.4m/s | -38.3°C | 38.5% | 327.4hPa | 2.7V | 00:00:00 | 02:24:17 | 00:00:00 | |
| DO3MHA-11 | 2026-09-02 12:53:42 | 48.09824 | 12.70933 | 114° | 88km/h | 8902m | -6.5m/s | -38.6°C | 36.5% | 326.2hPa | 2.7V | 00:00:00 | 02:24:13 | 00:00:00 | |
| OE5MMP-10 | 2026-09-02 12:53:36 | 48.09877 | 12.70749 | 113° | 86km/h | 8941m | -6.8m/s | -38.9°C | 32.6% | 324.4hPa | 2.7V | 00:00:00 | 02:24:07 | 00:00:00 | |
| OE5DRO-10 | 2026-09-02 12:53:35 | 48.09886 | 12.70719 | 113° | 84km/h | 8947m | -6.5m/s | -38.9°C | 32.0% | 324.0hPa | 2.7V | 00:00:00 | 00:00:00 | 00:00:00 | |
| DL6DJ-15 | 2026-09-02 12:53:34 | 48.09894 | 12.70689 | 112° | 86km/h | 8954m | -6.5m/s | -39.0°C | -1.0% | 323.8hPa | 2.7V | 00:00:00 | 00:00:00 | 00:00:00 | |
| DO3MHA-11 | 2026-09-02 12:53:32 | 48.09910 | 12.70629 | 113° | 84km/h | 8967m | -6.5m/s | -39.1°C | 29.9% | 323.1hPa | 2.7V | 00:00:00 | 02:24:03 | 00:00:00 | |
| PG1ADW-2 | 2026-09-02 12:53:30 | 48.09926 | 12.70569 | 112° | 84km/h | 8980m | -6.7m/s | -39.2°C | 27.9% | 322.5hPa | 2.7V | 00:00:00 | 00:00:00 | 00:00:00 | |
| DO7DH-14 | 2026-09-02 12:53:27 | 48.09950 | 12.70482 | 112° | 82km/h | 9000m | -6.4m/s | -39.4°C | 23.6% | 321.6hPa | 2.7V | 00:00:00 | 02:23:58 | 00:00:00 | |
| OE5MMP-10 | 2026-09-02 12:53:26 | 48.09958 | 12.70453 | 112° | 84km/h | 9006m | -6.6m/s | -39.4°C | 22.0% | 321.2hPa | 2.7V | 08:03:00 | 02:23:57 | 00:00:00 | |
| OE5DXL-15 | 2026-09-02 12:53:25 | 48.09966 | 12.70423 | 112° | 84km/h | 9013m | -6.7m/s | -39.4°C | 20.8% | 320.9hPa | 2.7V | 00:00:00 | 00:00:00 | 00:00:00 | |
| DO3MHA-11 | 2026-09-02 12:53:22 | 48.09987 | 12.70336 | 110° | 84km/h | 9033m | -6.8m/s | -39.5°C | 18.5% | 320.0hPa | 2.7V | 00:00:00 | 02:23:53 | 00:00:00 | |
| OE5MMP-10 | 2026-09-02 12:53:16 | 48.10026 | 12.70156 | 107° | 82km/h | 9073m | -6.6m/s | -39.7°C | 17.1% | 318.1hPa | 2.7V | 00:00:00 | 02:23:47 | 00:00:00 | |
| DO3MHA-11 | 2026-09-02 12:53:11 | 48.10055 | 12.70004 | 106° | 82km/h | 9107m | -6.5m/s | -39.9°C | 16.5% | 316.6hPa | 2.7V | 00:00:00 | 02:23:42 | 00:00:00 | |
| PG1ADW-2 | 2026-09-02 12:53:10 | 48.10061 | 12.69974 | 106° | 84km/h | 9113m | -6.3m/s | -40.0°C | 16.3% | 316.3hPa | 2.7V | 00:00:00 | 00:00:00 | 00:00:00 | |
| DG1MFX-10 | 2026-09-02 12:53:09 | 48.10061 | 12.69974 | 107° | 82km/h | 9113m | -6.4m/s | -40.0°C | 14.2% | 316.3hPa | 2.7V | 08:03:00 | 00:00:00 | 00:00:00 | |
| OE5MMP-10 | 2026-09-02 12:53:06 | 48.10085 | 12.69856 | 108° | 84km/h | 9140m | -6.8m/s | -40.1°C | 16.2% | 315.1hPa | 2.7V | 00:00:00 | 02:23:37 | 00:00:00 | |
| DL6DJ-15 | 2026-09-02 12:53:03 | 48.10104 | 12.69766 | 107° | 82km/h | 9159m | -6.5m/s | -40.3°C | -1.0% | 314.2hPa | 2.7V | 00:00:00 | 00:00:00 | 00:00:00 | |
| DO3MHA-11 | 2026-09-02 12:53:01 | 48.10117 | 12.69705 | 108° | 84km/h | 9173m | -6.5m/s | -40.3°C | 16.9% | 313.5hPa | 2.7V | 08:04:00 | 02:23:32 | 00:00:00 | |
| OE5MMP-10 | 2026-09-02 12:52:56 | 48.10151 | 12.69554 | 110° | 84km/h | 9204m | -6.6m/s | -40.5°C | 17.6% | 312.0hPa | 2.7V | 00:00:00 | 02:23:27 | 00:00:00 | |
| OE5DXL-15 | 2026-09-02 12:52:55 | 48.10158 | 12.69524 | 111° | 84km/h | 9211m | -6.7m/s | -40.5°C | 17.6% | 311.8hPa | 2.7V | 00:00:00 | 00:00:00 | 00:00:00 | |
| DO7DH-14 | 2026-09-02 12:52:51 | 48.10188 | 12.69408 | 113° | 84km/h | 9239m | -6.8m/s | -40.7°C | 18.0% | 310.5hPa | 2.7V | 00:00:00 | 02:23:22 | 00:00:00 | |
| OE5WHR-10 | 2026-09-02 12:52:50 | 48.10197 | 12.69378 | 113° | 84km/h | 9246m | -6.7m/s | -40.8°C | 18.2% | 310.2hPa | 2.7V | 08:04:00 | 00:00:00 | 00:00:00 | |
| DG1MFX-10 | 2026-09-02 12:52:49 | 48.10197 | 12.69378 | 113° | 84km/h | 9246m | -6.8m/s | -40.9°C | 15.9% | 310.2hPa | 2.7V | 08:04:00 | 00:00:00 | 00:00:00 | |
| OE5DRO-10 | 2026-09-02 12:52:48 | 48.10213 | 12.69319 | 113° | 84km/h | 9260m | -6.8m/s | -40.9°C | 18.5% | 309.6hPa | 2.7V | 00:00:00 | 00:00:00 | 00:00:00 | |
| OE5MMP-10 | 2026-09-02 12:52:46 | 48.10229 | 12.69260 | 113° | 84km/h | 9274m | -7.1m/s | -41.0°C | 18.8% | 308.9hPa | 2.7V | 00:00:00 | 02:23:17 | 00:00:00 | |
| DO3MHA-11 | 2026-09-02 12:52:41 | 48.10269 | 12.69112 | 113° | 84km/h | 9308m | -6.9m/s | -41.3°C | 19.5% | 307.3hPa | 2.7V | 00:00:00 | 02:23:12 | 00:00:00 | |
| BAUMI2-15 | 2026-09-02 12:52:39 | 48.10286 | 12.69054 | 113° | 84km/h | 9322m | -6.6m/s | -41.4°C | 19.9% | 306.7hPa | 2.7V | 00:00:00 | 02:23:10 | 00:00:00 | |
| OE5MMP-10 | 2026-09-02 12:52:36 | 48.10310 | 12.68966 | 113° | 86km/h | 9342m | -6.9m/s | -41.6°C | 20.2% | 305.8hPa | 2.7V | 00:00:00 | 02:23:07 | 00:00:00 | |
| BAUMI2-15 | 2026-09-02 12:52:34 | 48.10327 | 12.68906 | 114° | 86km/h | 9356m | -6.8m/s | -41.7°C | 20.4% | 305.2hPa | 2.7V | 00:00:00 | 02:23:05 | 00:00:00 | |
| DL6DJ-15 | 2026-09-02 12:52:32 | 48.10344 | 12.68847 | 111° | 84km/h | 9370m | -6.7m/s | -41.9°C | -1.0% | 304.6hPa | 2.7V | 00:00:00 | 00:00:00 | 00:00:00 | |
| DO3MHA-11 | 2026-09-02 12:52:31 | 48.10352 | 12.68817 | 112° | 86km/h | 9376m | -6.8m/s | -41.8°C | 20.7% | 304.3hPa | 2.7V | 00:00:00 | 02:23:02 | 00:00:00 | |
| PG1ADW-2 | 2026-09-02 12:52:30 | 48.10360 | 12.68787 | 112° | 86km/h | 9383m | -7.0m/s | -41.9°C | 20.7% | 304.0hPa | 2.7V | 00:00:00 | 00:00:00 | 00:00:00 | |
| DG1MFX-10 | 2026-09-02 12:52:29 | 48.10368 | 12.68757 | 112° | 86km/h | 9390m | -6.8m/s | -42.0°C | 18.1% | 303.7hPa | 2.7V | 08:04:00 | 00:00:00 | 00:00:00 | |
| OE5MMP-10 | 2026-09-02 12:52:26 | 48.10391 | 12.68667 | 112° | 86km/h | 9410m | -6.7m/s | -42.1°C | 21.1% | 302.8hPa | 2.7V | 00:00:00 | 02:22:57 | 00:00:00 | |
| OE5DXL-15 | 2026-09-02 12:52:25 | 48.10399 | 12.68637 | 111° | 84km/h | 9417m | -6.8m/s | -42.2°C | 21.2% | 302.5hPa | 2.7V | 00:00:00 | 00:00:00 | 00:00:00 | |
| BAUMI2-15 | 2026-09-02 12:52:24 | 48.10406 | 12.68607 | 111° | 86km/h | 9424m | -6.8m/s | -42.2°C | 21.3% | 302.1hPa | 2.7V | 00:00:00 | 02:22:55 | 00:00:00 | |
| BAUMI2-15 | 2026-09-02 12:52:19 | 48.10444 | 12.68456 | 111° | 84km/h | 9458m | -6.7m/s | -42.5°C | 21.8% | 300.7hPa | 2.7V | 00:00:00 | 02:22:50 | 00:00:00 | |
| DO3MHA-11 | 2026-09-02 12:52:17 | 48.10459 | 12.68395 | 110° | 84km/h | 9471m | -6.6m/s | -42.6°C | 22.0% | 300.1hPa | 2.7V | 00:00:00 | 02:22:48 | 00:00:00 | |
| OE5MMP-10 | 2026-09-02 12:52:16 | 48.10467 | 12.68365 | 110° | 84km/h | 9478m | -6.7m/s | -42.7°C | 22.1% | 299.7hPa | 2.7V | 00:00:00 | 02:22:47 | 00:00:00 | |
| DO7DH-14 | 2026-09-02 12:52:13 | 48.10488 | 12.68274 | 109° | 84km/h | 9498m | -6.8m/s | -42.9°C | 22.4% | 298.8hPa | 2.7V | 00:00:00 | 02:22:44 | 00:00:00 | |
| PG1ADW-2 | 2026-09-02 12:52:10 | 48.10508 | 12.68184 | 108° | 84km/h | 9519m | -6.6m/s | -43.1°C | 22.8% | 297.9hPa | 2.7V | 00:00:00 | 00:00:00 | 00:00:00 | |
| BAUMI2-15 | 2026-09-02 12:52:09 | 48.10514 | 12.68153 | 108° | 84km/h | 9525m | -6.6m/s | -43.2°C | 22.9% | 297.6hPa | 2.7V | 00:00:00 | 02:22:40 | 00:00:00 | |
| OE5WHR-10 | 2026-09-02 12:52:08 | 48.10521 | 12.68123 | 108° | 84km/h | 9532m | -7.0m/s | -43.2°C | 23.0% | 297.3hPa | 2.7V | 00:00:00 | 02:22:39 | 00:00:00 | |
| DO3MHA-11 | 2026-09-02 12:52:07 | 48.10527 | 12.68092 | 108° | 82km/h | 9539m | -6.9m/s | -43.3°C | 23.0% | 297.1hPa | 2.7V | 00:00:00 | 02:22:38 | 00:00:00 | |
| OE5MMP-10 | 2026-09-02 12:52:06 | 48.10534 | 12.68062 | 109° | 84km/h | 9546m | -6.8m/s | -43.3°C | 23.1% | 296.7hPa | 2.7V | 00:00:00 | 02:22:37 | 00:00:00 | |
| BAUMI2-15 | 2026-09-02 12:52:04 | 48.10546 | 12.68001 | 108° | 84km/h | 9559m | -6.8m/s | -43.4°C | 23.3% | 296.1hPa | 2.7V | 08:05:00 | 02:22:35 | 00:00:00 | |
| DL6DJ-15 | 2026-09-02 12:52:01 | 48.10565 | 12.67910 | 106° | 84km/h | 9579m | -6.7m/s | 0°C | -1.0% | -1.0hPa | 2.7V | 00:00:00 | 00:00:00 | 00:00:00 | |
| BAUMI2-15 | 2026-09-02 12:51:59 | 48.10577 | 12.67849 | 107° | 84km/h | 9593m | -6.8m/s | -43.7°C | 23.9% | 294.6hPa | 2.7V | 00:00:00 | 02:22:30 | 00:00:00 | |
| OE5MMP-10 | 2026-09-02 12:51:56 | 48.10594 | 12.67757 | 106° | 84km/h | 9614m | -7.0m/s | -43.9°C | 24.2% | 293.7hPa | 2.7V | 08:05:00 | 02:22:27 | 00:00:00 | |
| OE5DXL-15 | 2026-09-02 12:51:55 | 48.10600 | 12.67727 | 105° | 84km/h | 9620m | -6.9m/s | -43.9°C | 24.3% | 293.4hPa | 2.7V | 00:00:00 | 00:00:00 | 00:00:00 | |
| OE5HKT-10 | 2026-09-02 12:51:54 | 48.10605 | 12.67696 | 106° | 86km/h | 9627m | -6.8m/s | -44.0°C | 24.4% | 293.1hPa | 2.7V | 00:00:00 | 00:00:00 | 00:00:00 | |
| OE5FHM-15 | 2026-09-02 12:51:52 | 48.10616 | 12.67634 | 105° | 84km/h | 9641m | -6.9m/s | -44.1°C | 24.6% | 292.5hPa | 2.7V | 00:00:00 | 02:22:23 | 00:00:00 | |
| OE5DRO-10 | 2026-09-02 12:51:51 | 48.10621 | 12.67603 | 105° | 86km/h | 9648m | -6.8m/s | -44.2°C | 24.7% | 292.2hPa | 2.7V | 00:00:00 | 00:00:00 | 00:00:00 | |
| BAUMI2-15 | 2026-09-02 12:51:50 | 48.10632 | 12.67541 | 104° | 86km/h | 9662m | -6.8m/s | -44.3°C | 24.8% | 291.7hPa | 2.7V | 00:00:00 | 02:22:20 | 00:00:00 | |
| OE5WHR-10 | 2026-09-02 12:51:47 | 48.10642 | 12.67479 | 103° | 86km/h | 9675m | -6.8m/s | -44.4°C | 24.8% | 291.0hPa | 2.7V | 00:00:00 | 00:00:00 | 00:00:00 | |
| OE5MMP-10 | 2026-09-02 12:51:46 | 48.10646 | 12.67447 | 103° | 86km/h | 9682m | -6.9m/s | -44.5°C | 24.7% | 290.7hPa | 2.7V | 00:00:00 | 02:22:17 | 00:00:00 | |
| BAUMI2-15 | 2026-09-02 12:51:44 | 48.10655 | 12.67384 | 102° | 86km/h | 9696m | -6.9m/s | -44.6°C | 24.7% | 290.2hPa | 2.7V | 00:00:00 | 02:22:15 | 00:00:00 | |
| DO7DH-14 | 2026-09-02 12:51:43 | 48.10660 | 12.67352 | 103° | 84km/h | 9703m | -6.7m/s | -44.6°C | 24.8% | 289.9hPa | 2.7V | 00:00:00 | 02:22:14 | 00:00:00 | |
| BAUMI2-15 | 2026-09-02 12:51:40 | 48.10679 | 12.67226 | 103° | 86km/h | 9730m | -6.6m/s | -44.8°C | 24.8% | 288.6hPa | 2.7V | 00:00:00 | 02:22:10 | 00:00:00 | |
| OE5MMP-10 | 2026-09-02 12:51:36 | 48.10692 | 12.67132 | 103° | 84km/h | 9750m | -6.8m/s | -45.0°C | 24.6% | 287.9hPa | 2.7V | 00:00:00 | 02:22:07 | 00:00:00 | |
| BAUMI2-15 | 2026-09-02 12:51:34 | 48.10702 | 12.67069 | 103° | 84km/h | 9763m | -6.5m/s | -45.1°C | 24.5% | 287.3hPa | 2.7V | 00:00:00 | 02:22:05 | 00:00:00 | |
| OE5DRO-10 | 2026-09-02 12:51:32 | 48.10711 | 12.67006 | 102° | 84km/h | 9776m | -6.6m/s | -45.1°C | 23.8% | 286.6hPa | 2.7V | 00:00:00 | 00:00:00 | 00:00:00 | |
| PG1ADW-2 | 2026-09-02 12:51:30 | 48.10719 | 12.66944 | 102° | 84km/h | 9789m | -6.4m/s | -45.1°C | 23.3% | 286.1hPa | 2.7V | 00:00:00 | 02:22:01 | 00:00:00 | |
| OE5HKT-10 | 2026-09-02 12:51:29 | 48.10724 | 12.66913 | 102° | 84km/h | 9796m | -6.6m/s | -45.2°C | 23.1% | 285.8hPa | 2.7V | 00:00:00 | 02:22:00 | 00:00:00 | |
| DG1MFX-10 | 2026-09-02 12:51:27 | 48.10728 | 12.66882 | 103° | 84km/h | 9802m | -6.8m/s | -45.2°C | 20.0% | 285.6hPa | 2.7V | 08:05:00 | 00:00:00 | 00:00:00 | |
| OE5WHR-10 | 2026-09-02 12:51:26 | 48.10737 | 12.66819 | 103° | 84km/h | 9816m | -6.4m/s | -45.3°C | 23.2% | 285.0hPa | 2.7V | 00:00:00 | 00:00:00 | 00:00:00 | |
| OE5DXL-15 | 2026-09-02 12:51:25 | 48.10742 | 12.66788 | 103° | 82km/h | 9822m | -6.6m/s | -45.3°C | 23.2% | 284.7hPa | 2.7V | 00:00:00 | 00:00:00 | 00:00:00 | |
| BAUMI2-15 | 2026-09-02 12:51:24 | 48.10746 | 12.66757 | 103° | 84km/h | 9829m | -6.7m/s | -45.4°C | 23.4% | 284.5hPa | 2.7V | 00:00:00 | 02:21:55 | 00:00:00 | |
| BAUMI2-15 | 2026-09-02 12:51:20 | 48.10770 | 12.66604 | 103° | 84km/h | 9862m | -6.4m/s | -45.7°C | 23.9% | 283.0hPa | 2.7V | 08:05:00 | 02:21:50 | 00:00:00 | |
| OE5MMP-10 | 2026-09-02 12:51:16 | 48.10782 | 12.66511 | 101° | 84km/h | 9881m | -6.7m/s | -45.9°C | 24.2% | 282.2hPa | 2.7V | 00:00:00 | 02:21:47 | 00:00:00 | |
| BAUMI2-15 | 2026-09-02 12:51:14 | 48.10790 | 12.66449 | 100° | 84km/h | 9894m | -6.8m/s | -46.0°C | 24.3% | 281.6hPa | 2.7V | 00:00:00 | 02:21:45 | 00:00:00 | |
| OE5DRO-10 | 2026-09-02 12:51:13 | 48.10793 | 12.66419 | 100° | 82km/h | 9901m | -6.8m/s | -46.1°C | 24.3% | 281.4hPa | 2.7V | 08:05:00 | 00:00:00 | 00:00:00 | |
| PG1ADW-2 | 2026-09-02 12:51:10 | 48.10803 | 12.66325 | 100° | 80km/h | 9922m | -7.0m/s | -46.2°C | 24.6% | 280.4hPa | 2.7V | 00:00:00 | 00:00:00 | 00:00:00 | |
| BAUMI2-15 | 2026-09-02 12:51:09 | 48.10807 | 12.66294 | 99° | 82km/h | 9929m | -6.8m/s | -46.3°C | 24.8% | 280.2hPa | 2.7V | 00:00:00 | 02:21:40 | 00:00:00 | |
| DB0UT-7 | 2026-09-02 12:51:08 | 48.10810 | 12.66263 | 99° | 77km/h | 9935m | -6.6m/s | -46.4°C | 24.8% | 280.0hPa | 2.7V | 00:00:00 | 02:21:39 | 00:00:00 | |
| OE5MMP-10 | 2026-09-02 12:51:06 | 48.10816 | 12.66201 | 99° | 80km/h | 9948m | -6.2m/s | -46.5°C | 25.3% | 279.3hPa | 2.7V | 00:00:00 | 02:21:37 | 00:00:00 | |
| OE5WHR-10 | 2026-09-02 12:51:05 | 48.10819 | 12.66171 | 99° | 80km/h | 9954m | -6.4m/s | -46.5°C | 25.4% | 279.1hPa | 2.7V | 00:00:00 | 02:21:36 | 00:00:00 | |
| BAUMI2-15 | 2026-09-02 12:51:04 | 48.10822 | 12.66140 | 99° | 80km/h | 9961m | -6.2m/s | -46.5°C | 25.5% | 278.8hPa | 2.7V | 00:00:00 | 02:21:35 | 00:00:00 | |
| BAUMI2-15 | 2026-09-02 12:50:59 | 48.10838 | 12.65990 | 100° | 78km/h | 9994m | -7.2m/s | -46.8°C | 26.0% | 277.4hPa | 2.7V | 00:00:00 | 02:21:30 | 00:00:00 | |
| OE5MMP-10 | 2026-09-02 12:50:56 | 48.10847 | 12.65901 | 99° | 78km/h | 10015m | -6.7m/s | -47.0°C | 26.5% | 276.6hPa | 2.7V | 00:00:00 | 02:21:27 | 00:00:00 | |
| OE5DXL-15 | 2026-09-02 12:50:55 | 48.10850 | 12.65872 | 99° | 80km/h | 10021m | -6.5m/s | -47.0°C | 26.8% | 276.3hPa | 2.7V | 00:00:00 | 00:00:00 | 00:00:00 | |
| OE5DRO-10 | 2026-09-02 12:50:54 | 48.10853 | 12.65843 | 98° | 80km/h | 10028m | -6.7m/s | -47.1°C | 27.2% | 276.0hPa | 2.7V | 00:00:00 | 00:00:00 | 00:00:00 | |
| OE5FHM-15 | 2026-09-02 12:50:50 | 48.10863 | 12.65727 | 98° | 80km/h | 10055m | -6.4m/s | -47.4°C | 28.7% | 274.9hPa | 2.7V | 00:00:00 | 02:21:21 | 00:00:00 | |
| BAUMI2-15 | 2026-09-02 12:50:49 | 48.10866 | 12.65697 | 99° | 82km/h | 10061m | -6.3m/s | -47.4°C | 28.9% | 274.6hPa | 2.7V | 00:00:00 | 02:21:20 | 00:00:00 | |
| OE5HKT-10 | 2026-09-02 12:50:48 | 48.10871 | 12.65636 | 98° | 80km/h | 10074m | -6.5m/s | -47.6°C | 29.0% | 274.1hPa | 2.7V | 00:00:00 | 00:00:00 | 00:00:00 | |
| DG1MFX-10 | 2026-09-02 12:50:46 | 48.10871 | 12.65636 | 98° | 82km/h | 10074m | -6.6m/s | -47.6°C | 25.2% | 274.2hPa | 2.7V | 08:06:00 | 00:00:00 | 00:00:00 | |
| DO3MHA-11 | 2026-09-02 12:50:45 | 48.10876 | 12.65574 | 96° | 82km/h | 10087m | -6.2m/s | -47.7°C | 29.7% | 273.6hPa | 2.7V | 00:00:00 | 02:21:16 | 00:00:00 | |
| OE5WHR-10 | 2026-09-02 12:50:44 | 48.10878 | 12.65543 | 95° | 80km/h | 10094m | -6.7m/s | -47.8°C | 29.7% | 273.3hPa | 2.7V | 00:00:00 | 00:00:00 | 00:00:00 | |
| OE5MMP-10 | 2026-09-02 12:50:36 | 48.10887 | 12.65298 | 91° | 80km/h | 10156m | -7.8m/s | -48.3°C | 30.0% | 270.8hPa | 2.7V | 00:00:00 | 02:21:07 | 00:00:00 | |
| OE5DRO-10 | 2026-09-02 12:50:35 | 48.10887 | 12.65267 | 91° | 78km/h | 10164m | -7.4m/s | -48.4°C | 30.3% | 270.4hPa | 2.7V | 00:00:00 | 00:00:00 | 00:00:00 | |
| PG1ADW-2 | 2026-09-02 12:50:30 | 48.10887 | 12.65114 | 90° | 78km/h | 10200m | -7.4m/s | -48.8°C | 31.5% | 268.9hPa | 2.7V | 00:00:00 | 00:00:00 | 00:00:00 | |
| OE5MMP-10 | 2026-09-02 12:50:26 | 48.10887 | 12.64995 | 91° | 78km/h | 10230m | -7.2m/s | -48.9°C | 31.4% | 267.7hPa | 2.7V | 08:06:00 | 02:20:57 | 00:00:00 | |
| DO3MHA-11 | 2026-09-02 12:50:25 | 48.10887 | 12.64965 | 91° | 78km/h | 10237m | -7.2m/s | -48.9°C | 31.4% | 267.4hPa | 2.7V | 00:00:00 | 02:20:56 | 00:00:00 | |
| OE5WHR-10 | 2026-09-02 12:50:23 | 48.10887 | 12.64906 | 91° | 77km/h | 10252m | -7.0m/s | -49.0°C | 31.8% | 266.8hPa | 2.7V | 00:00:00 | 00:00:00 | 00:00:00 | |
| OE5FHM-15 | 2026-09-02 12:50:20 | 48.10887 | 12.64818 | 90° | 75km/h | 10274m | -7.1m/s | -49.1°C | 31.7% | 265.9hPa | 2.7V | 00:00:00 | 02:20:51 | 00:00:00 | |
| OE5MMP-10 | 2026-09-02 12:50:16 | 48.10887 | 12.64701 | 91° | 77km/h | 10303m | -7.2m/s | -49.4°C | 32.2% | 264.8hPa | 2.7V | 00:00:00 | 02:20:47 | 00:00:00 | |
| DO3MHA-11 | 2026-09-02 12:50:15 | 48.10887 | 12.64672 | 91° | 77km/h | 10310m | -7.0m/s | -49.5°C | 32.3% | 264.5hPa | 2.7V | 08:06:00 | 02:20:46 | 00:00:00 | |
| PG1ADW-2 | 2026-09-02 12:50:10 | 48.10887 | 12.64528 | 90° | 69km/h | 10345m | -7.2m/s | -49.8°C | 32.5% | 263.0hPa | 2.7V | 00:00:00 | 02:20:41 | 00:00:00 | |
| DO7DH-14 | 2026-09-02 12:50:06 | 48.10886 | 12.64414 | 90° | 73km/h | 10374m | -7.3m/s | -50.1°C | 32.9% | 261.9hPa | 2.7V | 08:06:00 | 02:20:37 | 00:00:00 | |
| OE5HKT-10 | 2026-09-02 12:50:05 | 48.10886 | 12.64386 | 89° | 75km/h | 10381m | -7.2m/s | -50.1°C | 33.1% | 261.6hPa | 2.7V | 00:00:00 | 00:00:00 | 00:00:00 | |
| OE5WHR-10 | 2026-09-02 12:50:02 | 48.10885 | 12.64300 | 89° | 73km/h | 10403m | -7.4m/s | -50.3°C | 33.5% | 260.7hPa | 2.7V | 00:00:00 | 02:20:33 | 00:00:00 | |
| OE5DRO-10 | 2026-09-02 12:49:57 | 48.10884 | 12.64158 | 91° | 73km/h | 10439m | -7.2m/s | -50.7°C | 34.0% | 259.3hPa | 2.7V | 00:00:00 | 00:00:00 | 00:00:00 | |
| OE5MMP-10 | 2026-09-02 12:49:56 | 48.10884 | 12.64130 | 92° | 73km/h | 10446m | -7.3m/s | -50.7°C | 34.0% | 258.9hPa | 2.7V | 00:00:00 | 02:20:27 | 00:00:00 | |
| OE5DXL-15 | 2026-09-02 12:49:55 | 48.10885 | 12.64102 | 92° | 71km/h | 10454m | -7.5m/s | -50.8°C | 34.0% | 258.6hPa | 2.7V | 08:07:00 | 00:00:00 | 00:00:00 | |
| DB0UT-7 | 2026-09-02 12:49:53 | 48.10886 | 12.64046 | 93° | 71km/h | 10468m | -7.4m/s | -50.9°C | 34.4% | 258.1hPa | 2.7V | 00:00:00 | 00:00:00 | 00:00:00 | |
| OE5FHM-15 | 2026-09-02 12:49:50 | 48.10889 | 12.63963 | 94° | 71km/h | 10490m | -7.2m/s | -51.1°C | 34.4% | 257.2hPa | 2.7V | 00:00:00 | 02:20:21 | 00:00:00 | |
| OE5MMP-10 | 2026-09-02 12:49:46 | 48.10893 | 12.63853 | 94° | 71km/h | 10520m | -7.6m/s | -51.3°C | 34.3% | 256.1hPa | 2.7V | 00:00:00 | 02:20:17 | 00:00:00 | |
| OE5HKT-10 | 2026-09-02 12:49:45 | 48.10895 | 12.63799 | 94° | 71km/h | 10535m | -7.4m/s | -51.3°C | 34.3% | 255.4hPa | 2.7V | 00:00:00 | 00:00:00 | 00:00:00 | |
| OE5WHR-10 | 2026-09-02 12:49:41 | 48.10899 | 12.63719 | 96° | 71km/h | 10557m | -7.5m/s | -51.5°C | 34.9% | 254.6hPa | 2.7V | 08:07:00 | 00:00:00 | 00:00:00 | |
| OE5DRO-10 | 2026-09-02 12:49:38 | 48.10905 | 12.63639 | 97° | 71km/h | 10579m | -7.3m/s | -51.6°C | 35.3% | 253.7hPa | 2.7V | 00:00:00 | 00:00:00 | 00:00:00 | |
| DO7DH-14 | 2026-09-02 12:49:36 | 48.10910 | 12.63586 | 98° | 73km/h | 10594m | -7.6m/s | -51.7°C | 35.4% | 253.2hPa | 2.7V | 00:00:00 | 02:20:07 | 00:00:00 | |
| DO3MHA-11 | 2026-09-02 12:49:35 | 48.10912 | 12.63560 | 98° | 73km/h | 10602m | -7.4m/s | -51.7°C | 35.5% | 252.8hPa | 2.7V | 00:00:00 | 02:20:06 | 00:00:00 | |
| OE5MMP-10 | 2026-09-02 12:49:26 | 48.10937 | 12.63323 | 102° | 73km/h | 10669m | -7.5m/s | -52.3°C | 36.6% | 250.2hPa | 2.7V | 00:00:00 | 02:19:57 | 00:00:00 | |
| OE5DXL-15 | 2026-09-02 12:49:25 | 48.10941 | 12.63297 | 102° | 77km/h | 10676m | -7.4m/s | -52.3°C | 36.6% | 249.9hPa | 2.7V | 00:00:00 | 00:00:00 | 00:00:00 | |
| DB0UT-7 | 2026-09-02 12:49:23 | 48.10949 | 12.63244 | 103° | 77km/h | 10691m | -7.4m/s | -52.5°C | 37.0% | 249.4hPa | 2.7V | 00:00:00 | 02:19:54 | 00:00:00 | |
| OE5FHM-15 | 2026-09-02 12:49:20 | 48.10961 | 12.63164 | 104° | 78km/h | 10714m | -7.5m/s | -52.6°C | 37.1% | 248.5hPa | 2.7V | 00:00:00 | 02:19:51 | 00:00:00 | |
| OE5DRO-10 | 2026-09-02 12:49:19 | 48.10965 | 12.63137 | 103° | 77km/h | 10721m | -7.6m/s | -52.7°C | 37.2% | 248.2hPa | 2.7V | 00:00:00 | 00:00:00 | 00:00:00 | |
| OE5MMP-10 | 2026-09-02 12:49:16 | 48.10977 | 12.63056 | 103° | 77km/h | 10744m | -7.6m/s | -52.8°C | 37.1% | 247.3hPa | 2.7V | 00:00:00 | 02:19:47 | 00:00:00 | |
| OE5MMP-10 | 2026-09-02 12:49:06 | 48.11020 | 12.62773 | 103° | 80km/h | 10819m | -7.5m/s | -53.4°C | 37.0% | 244.5hPa | 2.7V | 00:00:00 | 02:19:37 | 00:00:00 | |
| DG1MFX-10 | 2026-09-02 12:49:03 | 48.11029 | 12.62715 | 103° | 80km/h | 10834m | -7.7m/s | -53.6°C | 31.7% | 243.9hPa | 2.7V | 08:08:00 | 00:00:00 | 00:00:00 | |
| OE5HKT-10 | 2026-09-02 12:49:02 | 48.11037 | 12.62656 | 103° | 80km/h | 10849m | -7.6m/s | -53.6°C | 36.6% | 243.3hPa | 2.7V | 00:00:00 | 00:00:00 | 00:00:00 | |
| OE5DRO-10 | 2026-09-02 12:49:00 | 48.11046 | 12.62597 | 103° | 80km/h | 10864m | -7.4m/s | -53.6°C | 36.5% | 242.8hPa | 2.7V | 00:00:00 | 00:00:00 | 00:00:00 | |
| OE5WHR-10 | 2026-09-02 12:48:59 | 48.11050 | 12.62567 | 102° | 80km/h | 10872m | -7.5m/s | -53.7°C | 36.4% | 242.4hPa | 2.7V | 00:00:00 | 02:19:30 | 00:00:00 | |
| OE5MMP-10 | 2026-09-02 12:48:56 | 48.11062 | 12.62477 | 101° | 80km/h | 10894m | -7.6m/s | -53.8°C | 36.0% | 241.6hPa | 2.7V | 08:08:00 | 02:19:27 | 00:00:00 | |
| OE5DXL-15 | 2026-09-02 12:48:55 | 48.11066 | 12.62447 | 102° | 80km/h | 10902m | -7.6m/s | -53.9°C | 36.0% | 241.3hPa | 2.7V | 00:00:00 | 00:00:00 | 00:00:00 | |
| OE5FHM-15 | 2026-09-02 12:48:50 | 48.11085 | 12.62297 | 101° | 80km/h | 10940m | -7.6m/s | -53.9°C | 34.6% | 239.8hPa | 2.7V | 00:00:00 | 02:19:21 | 00:00:00 | |
| OE5MMP-10 | 2026-09-02 12:48:46 | 48.11097 | 12.62180 | 99° | 80km/h | 10970m | -7.5m/s | -54.0°C | 33.7% | 238.7hPa | 2.7V | 00:00:00 | 02:19:17 | 00:00:00 | |
| OE5REO-15 | 2026-09-02 12:48:44 | 48.11100 | 12.62151 | 98° | 78km/h | 10978m | -7.5m/s | -54.1°C | 28.3% | 238.5hPa | 2.7V | 08:09:00 | 00:00:00 | 00:00:00 | |
| DG1MFX-10 | 2026-09-02 12:48:43 | 48.11102 | 12.62122 | 98° | 78km/h | 10986m | -7.6m/s | -54.2°C | 28.3% | 238.2hPa | 2.7V | 08:09:00 | 00:00:00 | 00:00:00 | |
| OE5DRO-10 | 2026-09-02 12:48:41 | 48.11110 | 12.62033 | 98° | 80km/h | 11008m | -7.6m/s | -54.3°C | 33.2% | 237.4hPa | 2.7V | 00:00:00 | 00:00:00 | 00:00:00 | |
| BAUMI2-15 | 2026-09-02 12:48:39 | 48.11115 | 12.61973 | 98° | 80km/h | 11023m | -7.5m/s | -54.4°C | 32.9% | 236.8hPa | 2.7V | 00:00:00 | 02:19:10 | 00:00:00 | |
| OE5WHR-10 | 2026-09-02 12:48:38 | 48.11118 | 12.61943 | 99° | 80km/h | 11031m | -7.6m/s | -54.4°C | 32.7% | 236.5hPa | 2.7V | 00:00:00 | 00:00:00 | 00:00:00 | |
| DO7DH-14 | 2026-09-02 12:48:36 | 48.11123 | 12.61882 | 99° | 80km/h | 11046m | -7.5m/s | -54.6°C | 32.4% | 235.9hPa | 2.7V | 00:00:00 | 02:19:07 | 00:00:00 | |
| DO3MHA-11 | 2026-09-02 12:48:35 | 48.11127 | 12.61852 | 99° | 80km/h | 11054m | -7.6m/s | -54.6°C | 32.1% | 235.7hPa | 2.7V | 00:00:00 | 02:19:06 | 00:00:00 | |
| BAUMI2-15 | 2026-09-02 12:48:34 | 48.11130 | 12.61822 | 99° | 80km/h | 11061m | -7.6m/s | -54.6°C | 31.9% | 235.4hPa | 2.7V | 08:08:00 | 02:19:05 | 00:00:00 | |
| BAUMI2-15 | 2026-09-02 12:48:29 | 48.11146 | 12.61672 | 100° | 80km/h | 11099m | -7.5m/s | -54.6°C | 30.5% | 234.0hPa | 2.7V | 00:00:00 | 02:19:00 | 00:00:00 | |
| OE5REO-15 | 2026-09-02 12:48:28 | 48.11146 | 12.61672 | 101° | 80km/h | 11099m | -7.6m/s | -54.7°C | 25.4% | 234.0hPa | 2.7V | 08:09:00 | 00:00:00 | 00:00:00 | |
| OE5MMP-10 | 2026-09-02 12:48:26 | 48.11157 | 12.61582 | 102° | 78km/h | 11122m | -7.6m/s | -54.5°C | 29.2% | 233.2hPa | 2.7V | 00:00:00 | 02:18:57 | 00:00:00 | |
| DO3MHA-11 | 2026-09-02 12:48:25 | 48.11161 | 12.61553 | 102° | 78km/h | 11129m | -7.4m/s | -54.5°C | 29.1% | 232.9hPa | 2.7V | 00:00:00 | 02:18:56 | 00:00:00 | |
| BAUMI2-15 | 2026-09-02 12:48:24 | 48.11165 | 12.61523 | 103° | 78km/h | 11137m | -7.7m/s | -54.6°C | 29.0% | 232.6hPa | 2.7V | 00:00:00 | 02:18:55 | 00:00:00 | |
| OE5DRO-10 | 2026-09-02 12:48:22 | 48.11174 | 12.61465 | 103° | 82km/h | 11153m | -7.6m/s | -54.7°C | 28.8% | 232.1hPa | 2.7V | 08:08:00 | 00:00:00 | 00:00:00 | |
| OE5FHM-15 | 2026-09-02 12:48:20 | 48.11183 | 12.61407 | 105° | 91km/h | 11168m | -7.5m/s | -54.8°C | 28.5% | 231.5hPa | 2.7V | 00:00:00 | 02:18:51 | 00:00:00 | |
| BAUMI2-15 | 2026-09-02 12:48:19 | 48.11188 | 12.61378 | 106° | 78km/h | 11175m | -7.4m/s | -54.8°C | 28.4% | 231.3hPa | 2.7V | 00:00:00 | 02:18:50 | 00:00:00 | |
| OE5WHR-10 | 2026-09-02 12:48:17 | 48.11199 | 12.61321 | 106° | 84km/h | 11190m | -7.5m/s | -55.0°C | 28.5% | 230.7hPa | 2.7V | 00:00:00 | 00:00:00 | 00:00:00 | |
| OE5MMP-10 | 2026-09-02 12:48:16 | 48.11204 | 12.61292 | 107° | 82km/h | 11198m | -7.3m/s | -55.0°C | 28.3% | 230.4hPa | 2.7V | 00:00:00 | 02:18:47 | 00:00:00 | |
| DO3MHA-11 | 2026-09-02 12:48:15 | 48.11210 | 12.61263 | 107° | 84km/h | 11205m | -7.5m/s | -55.1°C | 28.3% | 230.2hPa | 2.7V | 00:00:00 | 02:18:46 | 00:00:00 | |
| BAUMI2-15 | 2026-09-02 12:48:14 | 48.11215 | 12.61234 | 107° | 82km/h | 11213m | -7.5m/s | -55.1°C | 27.9% | 229.9hPa | 2.7V | 00:00:00 | 02:18:45 | 00:00:00 | |
| BAUMI2-15 | 2026-09-02 12:48:09 | 48.11247 | 12.61085 | 109° | 86km/h | 11250m | -7.6m/s | -55.3°C | 26.7% | 228.5hPa | 2.7V | 00:00:00 | 02:18:40 | 00:00:00 | |
| DO7DH-14 | 2026-09-02 12:48:06 | 48.11268 | 12.60993 | 109° | 91km/h | 11273m | -7.5m/s | -55.4°C | 26.3% | 227.7hPa | 2.7V | 00:00:00 | 02:18:37 | 00:00:00 | |
| DO3MHA-11 | 2026-09-02 12:48:05 | 48.11275 | 12.60962 | 109° | 86km/h | 11281m | -7.7m/s | -55.4°C | 26.0% | 227.5hPa | 2.7V | 00:00:00 | 02:18:36 | 00:00:00 | |
| BAUMI2-15 | 2026-09-02 12:48:04 | 48.11281 | 12.60932 | 108° | 84km/h | 11289m | -7.6m/s | -55.4°C | 25.6% | 227.2hPa | 2.7V | 00:00:00 | 02:18:35 | 00:00:00 | |
| OE5DRO-10 | 2026-09-02 12:48:03 | 48.11288 | 12.60902 | 108° | 89km/h | 11296m | -7.5m/s | -55.4°C | 25.2% | 226.9hPa | 2.7V | 00:00:00 | 00:00:00 | 00:00:00 | |
| DG1MFX-10 | 2026-09-02 12:48:01 | 48.11294 | 12.60871 | 109° | 84km/h | 11304m | -7.7m/s | -55.3°C | 20.1% | 226.7hPa | 2.7V | 08:09:00 | 00:00:00 | 00:00:00 | |
| OE5HKT-10 | 2026-09-02 12:47:59 | 48.11314 | 12.60780 | 109° | 37km/h | 11327m | -7.3m/s | -55.2°C | 23.7% | 225.8hPa | 2.7V | 08:09:00 | 00:00:00 | 00:00:00 | |
| OE5REO-15 | 2026-09-02 12:47:57 | 48.11321 | 12.60749 | 110° | 86km/h | 11334m | -7.5m/s | -55.3°C | 18.8% | 225.6hPa | 2.7V | 08:09:00 | 00:00:00 | 00:00:00 | |
| OE5WHR-10 | 2026-09-02 12:47:56 | 48.11336 | 12.60686 | 110° | 93km/h | 11349m | -7.2m/s | -55.1°C | 22.6% | 225.0hPa | 2.7V | 00:00:00 | 02:18:27 | 00:00:00 | |
| DO3MHA-11 | 2026-09-02 12:47:55 | 48.11343 | 12.60655 | 111° | 91km/h | 11357m | -7.6m/s | -55.1°C | 22.1% | 224.7hPa | 2.7V | 08:09:00 | 02:18:26 | 00:00:00 | |
| BAUMI2-15 | 2026-09-02 12:47:54 | 48.11351 | 12.60624 | 111° | 89km/h | 11364m | -7.7m/s | -55.1°C | 21.8% | 224.5hPa | 2.7V | 00:00:00 | 02:18:25 | 00:00:00 | |
| BAUMI2-15 | 2026-09-02 12:47:49 | 48.11390 | 12.60465 | 111° | 95km/h | 11403m | -7.7m/s | -54.9°C | 19.4% | 223.1hPa | 2.7V | 08:09:00 | 02:18:20 | 00:00:00 | |
| OE5MMP-10 | 2026-09-02 12:47:46 | 48.11416 | 12.60365 | 112° | 97km/h | 11426m | -7.8m/s | -55.0°C | 18.5% | 222.3hPa | 2.7V | 00:00:00 | 02:18:17 | 00:00:00 | |
| DO3MHA-11 | 2026-09-02 12:47:45 | 48.11425 | 12.60331 | 112° | 97km/h | 11434m | -7.6m/s | -55.1°C | 18.1% | 222.0hPa | 2.7V | 00:00:00 | 02:18:16 | 00:00:00 | |
| BAUMI2-15 | 2026-09-02 12:47:44 | 48.11435 | 12.60297 | 113° | 99km/h | 11441m | -7.5m/s | -54.9°C | 17.4% | 221.8hPa | 2.7V | 00:00:00 | 02:18:15 | 00:00:00 | |
| OE5REO-15 | 2026-09-02 12:47:42 | 48.11444 | 12.60262 | 114° | 99km/h | 11449m | -7.7m/s | -55.0°C | 13.0% | 221.6hPa | 2.7V | 08:09:00 | 00:00:00 | 00:00:00 | |
| DG1MFX-10 | 2026-09-02 12:47:41 | 48.11454 | 12.60227 | 114° | 99km/h | 11457m | -7.6m/s | -55.0°C | 12.7% | 221.3hPa | 2.7V | 00:00:00 | 00:00:00 | 00:00:00 | |
| OE5FHM-15 | 2026-09-02 12:47:39 | 48.11484 | 12.60126 | 114° | 97km/h | 11479m | -7.7m/s | -54.8°C | 15.4% | 220.4hPa | 2.7V | 00:00:00 | 02:18:10 | 00:00:00 | |
| DO7DH-14 | 2026-09-02 12:47:36 | 48.11512 | 12.60027 | 114° | 99km/h | 11503m | -7.6m/s | -54.7°C | 14.3% | 219.7hPa | 2.7V | 00:00:00 | 02:18:07 | 00:00:00 | |
| OE5WHR-10 | 2026-09-02 12:47:35 | 48.11522 | 12.59994 | 115° | 97km/h | 11510m | -7.7m/s | -54.6°C | 13.8% | 219.4hPa | 2.7V | 00:00:00 | 00:00:00 | 00:00:00 | |
| BAUMI2-15 | 2026-09-02 12:47:34 | 48.11532 | 12.59962 | 115° | 95km/h | 11518m | -7.6m/s | -54.6°C | 13.5% | 219.1hPa | 2.7V | 00:00:00 | 02:18:05 | 00:00:00 | |
| BAUMI2-15 | 2026-09-02 12:47:29 | 48.11584 | 12.59798 | 116° | 97km/h | 11556m | -7.8m/s | -54.3°C | 11.9% | 217.8hPa | 2.7V | 00:00:00 | 02:18:00 | 00:00:00 | |
| OE5DXL-15 | 2026-09-02 12:47:26 | 48.11627 | 12.59668 | 117° | 100km/h | 11588m | -7.8m/s | -54.4°C | 11.0% | 216.7hPa | 2.7V | 00:00:00 | 00:00:00 | 00:00:00 | |
| BAUMI2-15 | 2026-09-02 12:47:24 | 48.11638 | 12.59635 | 118° | 97km/h | 11596m | -8.0m/s | -54.4°C | 10.8% | 216.5hPa | 2.7V | 00:00:00 | 02:17:55 | 00:00:00 | |
| BAUMI2-15 | 2026-09-02 12:47:19 | 48.11697 | 12.59475 | 121° | 100km/h | 11636m | -7.8m/s | -54.1°C | 9.5% | 215.2hPa | 2.7V | 00:00:00 | 02:17:50 | 00:00:00 | |
| DG1MFX-10 | 2026-09-02 12:47:18 | 48.11697 | 12.59475 | 121° | 99km/h | 11636m | -7.9m/s | -54.1°C | 6.4% | 215.2hPa | 2.7V | 00:00:00 | 00:00:00 | 00:00:00 | |
| OE5MMP-10 | 2026-09-02 12:47:16 | 48.11736 | 12.59378 | 122° | 102km/h | 11659m | -7.8m/s | -54.2°C | 9.1% | 214.3hPa | 2.7V | 00:00:00 | 02:17:47 | 00:00:00 | |
| OE5WHR-10 | 2026-09-02 12:47:14 | 48.11763 | 12.59314 | 124° | 102km/h | 11675m | -7.9m/s | -54.3°C | 8.8% | 213.8hPa | 2.7V | 00:00:00 | 00:00:00 | 00:00:00 | |
| OE5REO-15 | 2026-09-02 12:47:10 | 48.11805 | 12.59219 | 125° | 102km/h | 11699m | -8.1m/s | -54.2°C | 5.2% | 213.1hPa | 2.7V | 08:09:00 | 00:00:00 | 00:00:00 | |
| DO7DH-14 | 2026-09-02 12:47:06 | 48.11878 | 12.59056 | 124° | 99km/h | 11739m | -7.9m/s | -54.1°C | 7.5% | 211.7hPa | 2.7V | 00:00:00 | 02:17:37 | 00:00:00 | |
| BAUMI2-15 | 2026-09-02 12:47:05 | 48.11906 | 12.58992 | 123° | 99km/h | 11756m | -7.9m/s | -53.9°C | 7.2% | 211.1hPa | 2.7V | 08:10:00 | 02:17:35 | 00:00:00 | |
| BAUMI2-15 | 2026-09-02 12:46:59 | 48.11973 | 12.58834 | 124° | 102km/h | 11797m | -8.3m/s | -53.2°C | 6.6% | 209.8hPa | 2.7V | 00:00:00 | 02:17:30 | 00:00:00 | |
| DG1MFX-10 | 2026-09-02 12:46:57 | 48.12002 | 12.58771 | 126° | 102km/h | 11813m | -8.2m/s | -53.1°C | 3.8% | 209.3hPa | 2.7V | 08:10:00 | 00:00:00 | 00:00:00 | |
| OE5MMP-10 | 2026-09-02 12:46:56 | 48.12016 | 12.58739 | 125° | 102km/h | 11822m | -8.3m/s | -52.8°C | 6.4% | 209.0hPa | 2.7V | 00:00:00 | 02:17:27 | 00:00:00 | |
| OE5DXL-15 | 2026-09-02 12:46:55 | 48.12031 | 12.58706 | 126° | 99km/h | 11830m | -8.2m/s | -52.7°C | 6.3% | 208.7hPa | 2.7V | 00:00:00 | 00:00:00 | 00:00:00 | |
| BAUMI2-15 | 2026-09-02 12:46:54 | 48.12047 | 12.58674 | 126° | 104km/h | 11838m | -8.4m/s | -52.8°C | 6.3% | 208.4hPa | 2.7V | 00:00:00 | 02:17:25 | 00:00:00 | |
| OE5WHR-10 | 2026-09-02 12:46:53 | 48.12062 | 12.58642 | 126° | 97km/h | 11847m | -8.2m/s | -52.8°C | 6.4% | 208.2hPa | 2.7V | 00:00:00 | 02:17:24 | 00:00:00 | |
| BAUMI2-15 | 2026-09-02 12:46:49 | 48.12122 | 12.58516 | 126° | 99km/h | 11880m | -8.1m/s | -52.5°C | 6.3% | 207.2hPa | 2.7V | 00:00:00 | 02:17:20 | 00:00:00 | |
| OE5MMP-10 | 2026-09-02 12:46:46 | 48.12164 | 12.58425 | 125° | 95km/h | 11904m | -8.2m/s | -52.5°C | 6.2% | 206.3hPa | 2.7V | 00:00:00 | 02:17:17 | 00:00:00 | |
| BAUMI2-15 | 2026-09-02 12:46:44 | 48.12192 | 12.58364 | 124° | 95km/h | 11921m | -8.5m/s | -52.6°C | 6.1% | 205.8hPa | 2.7V | 00:00:00 | 02:17:15 | 00:00:00 | |
| OE5FHM-15 | 2026-09-02 12:46:39 | 48.12257 | 12.58216 | 124° | 97km/h | 11962m | -8.5m/s | -52.6°C | 6.3% | 204.5hPa | 2.7V | 08:10:00 | 02:17:10 | 00:00:00 | |
| DG1MFX-10 | 2026-09-02 12:46:37 | 48.12283 | 12.58158 | 125° | 93km/h | 11979m | -8.4m/s | -52.7°C | 3.8% | 204.0hPa | 2.7V | 08:10:00 | 00:00:00 | 00:00:00 | |
| DO7DH-14 | 2026-09-02 12:46:36 | 48.12296 | 12.58129 | 125° | 97km/h | 11988m | -8.6m/s | -52.5°C | 6.4% | 203.7hPa | 2.7V | 00:00:00 | 02:17:07 | 00:00:00 | |
| OE5WHR-10 | 2026-09-02 12:46:32 | 48.12351 | 12.58011 | 126° | 99km/h | 12022m | -8.5m/s | -52.4°C | 6.2% | 202.6hPa | 2.7V | 08:10:00 | 00:00:00 | 00:00:00 | |
| OE5DRO-10 | 2026-09-02 12:46:28 | 48.12409 | 12.57890 | 128° | 99km/h | 12055m | -8.3m/s | -52.6°C | 6.2% | 201.6hPa | 2.7V | 00:00:00 | 00:00:00 | 00:00:00 | |
| OE5MMP-10 | 2026-09-02 12:46:26 | 48.12440 | 12.57830 | 128° | 100km/h | 12072m | -8.7m/s | -52.7°C | 6.2% | 201.0hPa | 2.7V | 00:00:00 | 02:16:57 | 00:00:00 | |
| OE5DXL-15 | 2026-09-02 12:46:25 | 48.12456 | 12.57799 | 128° | 97km/h | 12081m | -8.7m/s | -52.7°C | 6.1% | 200.8hPa | 2.7V | 00:00:00 | 00:00:00 | 00:00:00 | |
| OE5REO-15 | 2026-09-02 12:46:24 | 48.12456 | 12.57799 | 129° | 102km/h | 12081m | -8.7m/s | -52.7°C | 3.6% | 200.9hPa | 2.7V | 08:10:00 | 00:00:00 | 00:00:00 | |
| DO3MHA-11 | 2026-09-02 12:46:17 | 48.12577 | 12.57559 | 126° | 97km/h | 12150m | -8.5m/s | -52.8°C | 6.0% | 198.6hPa | 2.7V | 00:00:00 | 02:16:48 | 00:00:00 | |
| OE5MMP-10 | 2026-09-02 12:46:16 | 48.12591 | 12.57529 | 127° | 97km/h | 12158m | -8.7m/s | -52.8°C | 6.0% | 198.3hPa | 2.7V | 00:00:00 | 02:16:47 | 00:00:00 | |
| DG1MFX-10 | 2026-09-02 12:46:15 | 48.12591 | 12.57529 | 127° | 97km/h | 12158m | -8.8m/s | -52.8°C | 3.4% | 198.4hPa | 2.7V | 00:00:00 | 00:00:00 | 00:00:00 | |
| OE5WHR-10 | 2026-09-02 12:46:11 | 48.12662 | 12.57382 | 126° | 97km/h | 12201m | -8.2m/s | -52.8°C | 6.0% | 197.1hPa | 2.7V | 00:00:00 | 00:00:00 | 00:00:00 | |
| OE5REO-15 | 2026-09-02 12:46:09 | 48.12690 | 12.57322 | 125° | 97km/h | 12218m | -8.5m/s | -52.9°C | 3.4% | 196.6hPa | 2.7V | 00:00:00 | 00:00:00 | 00:00:00 | |
| DO3MHA-11 | 2026-09-02 12:46:07 | 48.12718 | 12.57261 | 123° | 75km/h | 12235m | -8.8m/s | -52.9°C | 6.0% | 196.0hPa | 2.7V | 00:00:00 | 02:16:38 | 00:00:00 | |
| DO7DH-14 | 2026-09-02 12:46:06 | 48.12731 | 12.57230 | 122° | 95km/h | 12244m | -8.7m/s | -53.0°C | 6.0% | 195.7hPa | 2.7V | 00:00:00 | 02:16:37 | 00:00:00 | |
| DB0ND-19 | 2026-09-02 12:46:01 | 48.12979 | 12.56727 | 133° | 95km/h | 12393m | -8.9m/s | 0°C | -1.0% | -1.0hPa | 2.7V | 00:00:00 | 00:00:00 | 00:00:00 | |
| DB0UT-7 | 2026-09-02 12:45:58 | 48.12838 | 12.56985 | 126° | 78km/h | 12314m | -8.7m/s | -52.9°C | 6.1% | 193.6hPa | 2.7V | 00:00:00 | 02:16:29 | 00:00:00 | |
| OE5MMP-10 | 2026-09-02 12:45:56 | 48.12867 | 12.56926 | 127° | 97km/h | 12332m | -8.8m/s | -52.9°C | 6.0% | 193.1hPa | 2.7V | 08:11:00 | 02:16:27 | 00:00:00 | |
| OE5DXL-15 | 2026-09-02 12:45:55 | 48.12882 | 12.56897 | 128° | 88km/h | 12340m | -8.9m/s | -53.0°C | 6.0% | 192.9hPa | 2.7V | 00:00:00 | 00:00:00 | 00:00:00 | |
| OE5REO-15 | 2026-09-02 12:45:53 | 48.12897 | 12.56868 | 129° | 99km/h | 12349m | -8.8m/s | -53.0°C | 3.2% | 192.6hPa | 2.7V | 00:00:00 | 00:00:00 | 00:00:00 | |
| OE5WHR-10 | 2026-09-02 12:45:50 | 48.12962 | 12.56754 | 134° | 88km/h | 12384m | -8.5m/s | -52.3°C | 5.5% | 191.6hPa | 2.7V | 00:00:00 | 02:16:21 | 00:00:00 | |
| OE5MMP-10 | 2026-09-02 12:45:46 | 48.13027 | 12.56651 | 135° | 88km/h | 12420m | -8.8m/s | -52.2°C | 5.3% | 190.5hPa | 2.7V | 00:00:00 | 02:16:17 | 00:00:00 | |
| OE5FHM-15 | 2026-09-02 12:45:39 | 48.13139 | 12.56485 | 136° | 75km/h | 12481m | -8.6m/s | -51.3°C | 4.6% | 188.6hPa | 2.7V | 00:00:00 | 02:16:10 | 00:00:00 | |
| OE5REO-15 | 2026-09-02 12:45:37 | 48.13154 | 12.56462 | 136° | 86km/h | 12490m | -9.1m/s | -51.1°C | 2.2% | 188.5hPa | 2.7V | 00:00:00 | 00:00:00 | 00:00:00 | |
| DO7DH-14 | 2026-09-02 12:45:36 | 48.13185 | 12.56417 | 136° | 75km/h | 12508m | -9.0m/s | -50.8°C | 4.3% | 187.9hPa | 2.7V | 00:00:00 | 02:16:07 | 08:30:00 | |
| DG1MFX-10 | 2026-09-02 12:45:34 | 48.13200 | 12.56395 | 136° | 82km/h | 12517m | -8.9m/s | -50.8°C | 2.1% | 187.7hPa | 2.7V | 00:00:00 | 00:00:00 | 00:00:00 | |
| OE5WHR-10 | 2026-09-02 12:45:29 | 48.13284 | 12.56265 | 134° | 75km/h | 12571m | -8.9m/s | -50.9°C | 4.2% | 186.1hPa | 2.7V | 00:00:00 | 00:00:00 | 00:00:00 | |
| OE5MMP-10 | 2026-09-02 12:45:27 | 48.13324 | 12.56199 | 131° | 75km/h | 12598m | -9.1m/s | -51.2°C | 4.1% | 185.4hPa | 2.7V | 00:00:00 | 02:15:57 | 00:00:00 | |
| OE5DXL-15 | 2026-09-02 12:45:26 | 48.13336 | 12.56177 | 130° | 71km/h | 12607m | -8.6m/s | -51.2°C | 4.1% | 185.1hPa | 2.7V | 08:11:00 | 00:00:00 | 00:00:00 | |
| OE5REO-15 | 2026-09-02 12:45:21 | 48.13372 | 12.56111 | 130° | 75km/h | 12633m | -8.5m/s | -51.5°C | 1.9% | 184.3hPa | 2.7V | 08:12:00 | 00:00:00 | 00:00:00 | |
| OE5MMP-10 | 2026-09-02 12:45:16 | 48.13438 | 12.55977 | 125° | 71km/h | 12687m | -8.9m/s | -51.6°C | 4.1% | 182.8hPa | 2.7V | 00:00:00 | 02:15:47 | 00:00:00 | |
| DG1MFX-10 | 2026-09-02 12:45:13 | 48.13459 | 12.55932 | 125° | 73km/h | 12705m | -8.8m/s | -51.7°C | 1.8% | 182.4hPa | 2.7V | 00:00:00 | 00:00:00 | 00:00:00 | |
| OE5FHM-15 | 2026-09-02 12:45:09 | 48.13508 | 12.55817 | 122° | 69km/h | 12750m | -8.9m/s | -51.9°C | 4.1% | 181.1hPa | 2.7V | 00:00:00 | 02:15:40 | 00:00:00 | |
| OE5WHR-10 | 2026-09-02 12:45:08 | 48.13518 | 12.55794 | 120° | 69km/h | 12759m | -9.0m/s | -51.9°C | 4.1% | 180.7hPa | 2.7V | 00:00:00 | 00:00:00 | 00:00:00 | |
| OE5MMP-10 | 2026-09-02 12:45:06 | 48.13535 | 12.55746 | 119° | 71km/h | 12777m | -8.7m/s | -52.0°C | 4.1% | 180.3hPa | 2.7V | 00:00:00 | 02:15:37 | 00:00:00 | |
| OE5REO-15 | 2026-09-02 12:45:05 | 48.13535 | 12.55746 | 119° | 73km/h | 12777m | -8.7m/s | -52.1°C | 1.8% | 180.3hPa | 2.7V | 08:12:00 | 00:00:00 | 00:00:00 | |
| DO7DH-14 | 2026-09-02 12:45:02 | 48.13567 | 12.55646 | 115° | 68km/h | 12812m | -8.9m/s | -52.3°C | 4.2% | 179.3hPa | 2.7V | 00:00:00 | 02:15:33 | 00:00:00 | |
| OE5MMP-10 | 2026-09-02 12:44:56 | 48.13610 | 12.55506 | 115° | 68km/h | 12866m | -9.0m/s | -52.5°C | 4.2% | 177.8hPa | 2.7V | 00:00:00 | 02:15:27 | 00:00:00 | |
| OE5DXL-15 | 2026-09-02 12:44:55 | 48.13618 | 12.55483 | 114° | 64km/h | 12875m | -8.7m/s | -52.5°C | 4.3% | 177.5hPa | 2.7V | 00:00:00 | 00:00:00 | 00:00:00 | |
| OE5DRO-10 | 2026-09-02 12:44:53 | 48.13631 | 12.55436 | 112° | 66km/h | 12893m | -9.0m/s | -52.5°C | 4.3% | 177.0hPa | 2.7V | 08:12:00 | 00:00:00 | 00:00:00 | |
| OE5REO-15 | 2026-09-02 12:44:48 | 48.13655 | 12.55340 | 111° | 66km/h | 12929m | -9.1m/s | -51.8°C | 1.6% | 176.1hPa | 2.7V | 08:12:00 | 00:00:00 | 00:00:00 | |
| OE5WHR-10 | 2026-09-02 12:44:47 | 48.13666 | 12.55294 | 110° | 64km/h | 12947m | -9.2m/s | -51.4°C | 3.7% | 175.6hPa | 2.7V | 00:00:00 | 02:15:18 | 00:00:00 | |
| OE5MMP-10 | 2026-09-02 12:44:46 | 48.13672 | 12.55271 | 111° | 64km/h | 12956m | -8.8m/s | -51.4°C | 3.7% | 175.3hPa | 2.7V | 00:00:00 | 02:15:17 | 00:00:00 | |
| OE5FHM-15 | 2026-09-02 12:44:39 | 48.13714 | 12.55110 | 112° | 60km/h | 13020m | -9.1m/s | -51.3°C | 3.7% | 173.6hPa | 2.7V | 00:00:00 | 02:15:10 | 00:00:00 | |
| OE5MMP-10 | 2026-09-02 12:44:36 | 48.13733 | 12.55044 | 114° | 62km/h | 13048m | -8.8m/s | -51.5°C | 3.7% | 172.9hPa | 2.7V | 00:00:00 | 02:15:07 | 00:00:00 | |
| BAUMI2-15 | 2026-09-02 12:44:34 | 48.13745 | 12.55001 | 115° | 62km/h | 13066m | -9.1m/s | -51.5°C | 3.7% | 172.4hPa | 2.7V | 00:00:00 | 02:15:05 | 00:00:00 | |
| DG1MFX-10 | 2026-09-02 12:44:33 | 48.13745 | 12.55001 | 116° | 64km/h | 13066m | -9.2m/s | -51.5°C | 1.6% | 172.4hPa | 2.7V | 08:13:00 | 00:00:00 | 00:00:00 | |
| DO3MHA-11 | 2026-09-02 12:44:32 | 48.13759 | 12.54958 | 116° | 60km/h | 13084m | -9.1m/s | -51.6°C | 3.7% | 171.9hPa | 2.7V | 00:00:00 | 02:15:03 | 00:00:00 | |
| OE5REO-15 | 2026-09-02 12:44:30 | 48.13766 | 12.54936 | 118° | 62km/h | 13093m | -9.0m/s | -51.7°C | 1.5% | 171.7hPa | 2.7V | 08:13:00 | 00:00:00 | 00:00:00 | |
| BAUMI2-15 | 2026-09-02 12:44:29 | 48.13780 | 12.54895 | 118° | 60km/h | 13111m | -9.0m/s | -51.7°C | 3.8% | 171.2hPa | 2.7V | 00:00:00 | 02:15:00 | 00:00:00 | |
| OE5MMP-10 | 2026-09-02 12:44:26 | 48.13801 | 12.54835 | 119° | 57km/h | 13139m | -9.2m/s | -51.9°C | 3.9% | 170.4hPa | 2.7V | 08:12:00 | 02:14:57 | 00:00:00 | |
| DO7DH-14 | 2026-09-02 12:44:25 | 48.13808 | 12.54815 | 119° | 38km/h | 13148m | -9.1m/s | -52.0°C | 3.9% | 170.2hPa | 2.7V | 00:00:00 | 02:14:56 | 00:00:00 | |
| BAUMI2-15 | 2026-09-02 12:44:24 | 48.13815 | 12.54796 | 118° | 57km/h | 13157m | -9.1m/s | -52.0°C | 3.9% | 170.0hPa | 2.7V | 00:00:00 | 02:14:55 | 00:00:00 | |
| DO3MHA-11 | 2026-09-02 12:44:22 | 48.13829 | 12.54757 | 116° | 60km/h | 13175m | -9.0m/s | -52.2°C | 3.9% | 169.5hPa | 2.7V | 00:00:00 | 02:14:53 | 00:00:00 | |
| BAUMI2-15 | 2026-09-02 12:44:19 | 48.13846 | 12.54698 | 113° | 57km/h | 13203m | -9.1m/s | -52.2°C | 3.9% | 168.8hPa | 2.7V | 08:12:00 | 02:14:50 | 00:00:00 | |
| DB0UT-7 | 2026-09-02 12:44:17 | 48.13856 | 12.54658 | 111° | 60km/h | 13221m | -9.1m/s | -52.2°C | 3.9% | 168.3hPa | 2.7V | 00:00:00 | 02:14:48 | 00:00:00 | |
| OE5MMP-10 | 2026-09-02 12:44:16 | 48.13861 | 12.54638 | 110° | 58km/h | 13230m | -9.1m/s | -52.2°C | 3.8% | 168.0hPa | 2.7V | 00:00:00 | 02:14:47 | 00:00:00 | |
| OE5DRO-10 | 2026-09-02 12:44:15 | 48.13865 | 12.54618 | 108° | 66km/h | 13239m | -9.0m/s | -52.2°C | 3.9% | 167.8hPa | 2.7V | 00:00:00 | 00:00:00 | 00:00:00 | |
| BAUMI2-15 | 2026-09-02 12:44:14 | 48.13870 | 12.54597 | 108° | 58km/h | 13248m | -9.2m/s | -52.2°C | 3.8% | 167.6hPa | 2.7V | 00:00:00 | 02:14:45 | 00:00:00 | |
| DG1MFX-10 | 2026-09-02 12:44:12 | 48.13874 | 12.54576 | 108° | 58km/h | 13258m | -9.0m/s | -52.3°C | 1.6% | 167.4hPa | 2.7V | 08:13:00 | 00:00:00 | 00:00:00 | |
| OE5FHM-15 | 2026-09-02 12:44:09 | 48.13890 | 12.54491 | 105° | 68km/h | 13294m | -9.0m/s | -52.0°C | 3.8% | 166.4hPa | 2.7V | 00:00:00 | 02:14:40 | 00:00:00 | |
| OE5MMP-10 | 2026-09-02 12:44:06 | 48.13902 | 12.54424 | 105° | 64km/h | 13322m | -9.1m/s | -52.0°C | 3.7% | 165.7hPa | 2.7V | 00:00:00 | 02:14:37 | 00:00:00 | |
| OE5WHR-10 | 2026-09-02 12:44:05 | 48.13906 | 12.54402 | 105° | 68km/h | 13331m | -9.1m/s | -52.0°C | 3.8% | 165.5hPa | 2.7V | 00:00:00 | 00:00:00 | 00:00:00 | |
| BAUMI2-15 | 2026-09-02 12:44:04 | 48.13909 | 12.54379 | 104° | 64km/h | 13340m | -9.4m/s | -52.0°C | 3.8% | 165.2hPa | 2.7V | 00:00:00 | 02:14:35 | 00:00:00 | |
| BAUMI2-15 | 2026-09-02 12:43:59 | 48.13927 | 12.54262 | 102° | 68km/h | 13387m | -9.1m/s | -52.2°C | 3.8% | 164.0hPa | 2.7V | 00:00:00 | 02:14:30 | 00:00:00 | |
| OE5REO-15 | 2026-09-02 12:43:57 | 48.13929 | 12.54238 | 101° | 66km/h | 13396m | -9.4m/s | -52.4°C | 1.5% | 163.9hPa | 2.7V | 08:13:00 | 00:00:00 | 00:00:00 | |
| OE5MMP-10 | 2026-09-02 12:43:56 | 48.13936 | 12.54188 | 100° | 69km/h | 13415m | -9.1m/s | -52.5°C | 3.9% | 163.3hPa | 2.7V | 00:00:00 | 02:14:27 | 00:00:00 | |
| OE5DXL-15 | 2026-09-02 12:43:55 | 48.13938 | 12.54162 | 101° | 75km/h | 13424m | -9.4m/s | -52.6°C | 3.9% | 163.0hPa | 2.7V | 00:00:00 | 00:00:00 | 00:00:00 | |
| BAUMI2-15 | 2026-09-02 12:43:54 | 48.13942 | 12.54137 | 101° | 69km/h | 13433m | -9.3m/s | -52.6°C | 3.9% | 162.9hPa | 2.7V | 00:00:00 | 02:14:25 | 00:00:00 | |
| DG1MFX-10 | 2026-09-02 12:43:52 | 48.13945 | 12.54111 | 103° | 69km/h | 13443m | -9.4m/s | -52.7°C | 1.6% | 162.6hPa | 2.7V | 08:13:00 | 00:00:00 | 00:00:00 | |
| BAUMI2-15 | 2026-09-02 12:43:49 | 48.13959 | 12.54008 | 103° | 71km/h | 13481m | -9.3m/s | -52.7°C | 4.0% | 161.7hPa | 2.7V | 00:00:00 | 02:14:20 | 00:00:00 | |
| OE5MMP-10 | 2026-09-02 12:43:46 | 48.13971 | 12.53929 | 103° | 77km/h | 13509m | -9.4m/s | -52.8°C | 4.0% | 160.9hPa | 2.7V | 00:00:00 | 02:14:17 | 00:00:00 | |
| OE5WHR-10 | 2026-09-02 12:43:44 | 48.13978 | 12.53874 | 101° | 78km/h | 13528m | -9.8m/s | -52.9°C | 4.0% | 160.4hPa | 2.7V | 00:00:00 | 02:14:15 | 00:00:00 | |
| OE5REO-15 | 2026-09-02 12:43:42 | 48.13982 | 12.53846 | 102° | 77km/h | 13538m | -9.4m/s | -53.0°C | 1.6% | 160.3hPa | 2.7V | 00:00:00 | 00:00:00 | 00:00:00 | |
| OE5DRO-10 | 2026-09-02 12:43:40 | 48.13993 | 12.53760 | 100° | 78km/h | 13567m | -9.5m/s | -52.6°C | 3.9% | 159.5hPa | 2.7V | 00:00:00 | 00:00:00 | 00:00:00 | |
| OE5FHM-15 | 2026-09-02 12:43:39 | 48.13996 | 12.53730 | 99° | 78km/h | 13576m | -9.8m/s | -52.4°C | 3.8% | 159.3hPa | 2.7V | 00:00:00 | 02:14:10 | 00:00:00 | |
| OE5MMP-10 | 2026-09-02 12:43:36 | 48.14006 | 12.53641 | 100° | 78km/h | 13605m | -9.5m/s | -52.5°C | 3.9% | 158.6hPa | 2.7V | 00:00:00 | 02:14:07 | 00:00:00 | |
| BAUMI2-15 | 2026-09-02 12:43:34 | 48.14012 | 12.53582 | 101° | 78km/h | 13625m | -9.6m/s | -52.6°C | 3.9% | 158.1hPa | 2.7V | 08:13:00 | 02:14:05 | 00:00:00 | |
| DG1MFX-10 | 2026-09-02 12:43:31 | 48.14020 | 12.53523 | 102° | 78km/h | 13644m | -9.5m/s | -52.7°C | 1.5% | 157.6hPa | 2.7V | 08:14:00 | 00:00:00 | 00:00:00 | |
| BAUMI2-15 | 2026-09-02 12:43:29 | 48.14033 | 12.53436 | 103° | 78km/h | 13673m | -9.6m/s | -52.8°C | 3.9% | 156.9hPa | 2.7V | 00:00:00 | 02:14:00 | 00:00:00 | |
| OE5MMP-10 | 2026-09-02 12:43:26 | 48.14047 | 12.53349 | 105° | 78km/h | 13702m | -9.5m/s | -52.5°C | 3.8% | 156.2hPa | 2.7V | 00:00:00 | 02:13:57 | 00:00:00 | |
| OE5DXL-15 | 2026-09-02 12:43:25 | 48.14052 | 12.53320 | 105° | 78km/h | 13712m | -9.9m/s | -52.4°C | 3.8% | 155.9hPa | 2.7V | 00:00:00 | 02:13:56 | 00:00:00 | |
| BAUMI2-15 | 2026-09-02 12:43:24 | 48.14057 | 12.53291 | 107° | 78km/h | 13721m | -9.5m/s | -52.3°C | 3.8% | 155.7hPa | 2.7V | 00:00:00 | 02:13:55 | 00:00:00 | |
| OE5WHR-10 | 2026-09-02 12:43:23 | 48.14063 | 12.53263 | 107° | 78km/h | 13731m | -9.6m/s | -52.3°C | 3.8% | 155.5hPa | 2.7V | 08:13:00 | 00:00:00 | 00:00:00 | |
| DO3MHA-11 | 2026-09-02 12:43:22 | 48.14069 | 12.53235 | 108° | 78km/h | 13741m | -9.5m/s | -52.4°C | 3.8% | 155.3hPa | 2.7V | 00:00:00 | 02:13:53 | 00:00:00 | |
| OE5DRO-10 | 2026-09-02 12:43:21 | 48.14075 | 12.53206 | 109° | 78km/h | 13750m | -9.5m/s | -52.5°C | 3.8% | 155.1hPa | 2.7V | 00:00:00 | 00:00:00 | 00:00:00 | |
| OE5MMP-10 | 2026-09-02 12:43:16 | 48.14108 | 12.53066 | 111° | 78km/h | 13798m | -9.6m/s | -52.8°C | 3.8% | 153.9hPa | 2.7V | 00:00:00 | 02:13:47 | 00:00:00 | |
| BAUMI2-15 | 2026-09-02 12:43:14 | 48.14121 | 12.53012 | 111° | 77km/h | 13818m | -9.5m/s | -52.9°C | 3.9% | 153.4hPa | 2.7V | 00:00:00 | 02:13:45 | 00:00:00 | |
| DO3MHA-11 | 2026-09-02 12:43:11 | 48.14142 | 12.52931 | 112° | 69km/h | 13847m | -9.8m/s | -53.0°C | 3.9% | 152.7hPa | 2.7V | 00:00:00 | 02:13:42 | 00:00:00 | |
| OE5REO-15 | 2026-09-02 12:43:10 | 48.14142 | 12.52931 | 113° | 77km/h | 13847m | -9.8m/s | -53.1°C | 1.5% | 152.7hPa | 2.7V | 00:00:00 | 00:00:00 | 00:00:00 | |
| OE5FHM-15 | 2026-09-02 12:43:09 | 48.14157 | 12.52876 | 112° | 77km/h | 13866m | -9.4m/s | -53.2°C | 4.0% | 152.3hPa | 2.7V | 00:00:00 | 02:13:40 | 00:00:00 | |
| OE5MMP-10 | 2026-09-02 12:43:06 | 48.14180 | 12.52792 | 114° | 78km/h | 13896m | -9.7m/s | -53.4°C | 4.0% | 151.6hPa | 2.7V | 00:00:00 | 02:13:37 | 00:00:00 | |
| BAUMI2-15 | 2026-09-02 12:43:04 | 48.14197 | 12.52735 | 115° | 80km/h | 13915m | -9.8m/s | -53.6°C | 4.0% | 151.1hPa | 2.7V | 00:00:00 | 02:13:35 | 00:00:00 | |
| OE5WHR-10 | 2026-09-02 12:43:02 | 48.14214 | 12.52680 | 116° | 75km/h | 13935m | -9.8m/s | -53.7°C | 4.1% | 150.6hPa | 2.7V | 00:00:00 | 00:00:00 | 00:00:00 | |
| BAUMI2-15 | 2026-09-02 12:42:59 | 48.14240 | 12.52599 | 117° | 75km/h | 13964m | -9.8m/s | -54.0°C | 4.2% | 150.0hPa | 2.7V | 00:00:00 | 02:13:30 | 00:00:00 | |
| OE5MMP-10 | 2026-09-02 12:42:56 | 48.14265 | 12.52523 | 116° | 73km/h | 13993m | -9.5m/s | -54.3°C | 4.4% | 149.3hPa | 2.7V | 08:14:00 | 02:13:27 | 00:00:00 | |
| OE5DXL-15 | 2026-09-02 12:42:55 | 48.14273 | 12.52498 | 116° | 75km/h | 14002m | -9.5m/s | -54.3°C | 4.4% | 149.1hPa | 2.7V | 00:00:00 | 00:00:00 | 00:00:00 | |
| BAUMI2-15 | 2026-09-02 12:42:54 | 48.14280 | 12.52472 | 114° | 73km/h | 14012m | -9.8m/s | -54.4°C | 4.4% | 148.8hPa | 2.7V | 00:00:00 | 02:13:25 | 00:00:00 | |
| DG1MFX-10 | 2026-09-02 12:42:50 | 48.14303 | 12.52397 | 113° | 73km/h | 14041m | -9.6m/s | -53.9°C | 1.7% | 148.2hPa | 2.7V | 08:14:00 | 00:00:00 | 00:00:00 | |
| BAUMI2-15 | 2026-09-02 12:42:49 | 48.14316 | 12.52345 | 111° | 73km/h | 14060m | -10.0m/s | -53.9°C | 4.2% | 147.7hPa | 2.7V | 08:14:00 | 02:13:20 | 00:00:00 | |
| OE5MMP-10 | 2026-09-02 12:42:46 | 48.14334 | 12.52266 | 109° | 73km/h | 14090m | -9.6m/s | -54.0°C | 4.3% | 147.0hPa | 2.7V | 00:00:00 | 02:13:17 | 00:00:00 | |
| BAUMI2-15 | 2026-09-02 12:42:44 | 48.14346 | 12.52214 | 109° | 71km/h | 14109m | -9.7m/s | -54.1°C | 4.3% | 146.6hPa | 2.7V | 00:00:00 | 02:13:15 | 00:00:00 | |
| OE5DRO-10 | 2026-09-02 12:42:43 | 48.14352 | 12.52188 | 109° | 77km/h | 14119m | -9.7m/s | -54.1°C | 4.3% | 146.3hPa | 2.7V | 00:00:00 | 00:00:00 | 00:00:00 | |
| OE5WHR-10 | 2026-09-02 12:42:41 | 48.14364 | 12.52136 | 110° | 78km/h | 14139m | -9.7m/s | -54.1°C | 4.3% | 145.9hPa | 2.7V | 00:00:00 | 02:13:12 | 00:00:00 | |
| OE5FHM-15 | 2026-09-02 12:42:39 | 48.14376 | 12.52083 | 110° | 57km/h | 14159m | -9.9m/s | -54.1°C | 4.4% | 145.5hPa | 2.7V | 00:00:00 | 02:13:10 | 00:00:00 | |
| OE5REO-15 | 2026-09-02 12:42:38 | 48.14376 | 12.52083 | 110° | 73km/h | 14159m | -9.9m/s | -54.1°C | 1.7% | 145.5hPa | 2.7V | 08:14:00 | 00:00:00 | 00:00:00 | |
| OE5MMP-10 | 2026-09-02 12:42:36 | 48.14395 | 12.52002 | 108° | 78km/h | 14188m | -9.9m/s | -53.4°C | 4.1% | 144.8hPa | 2.7V | 00:00:00 | 02:13:07 | 00:00:00 | |
| DG1MFX-10 | 2026-09-02 12:42:29 | 48.14427 | 12.51831 | 107° | 80km/h | 14247m | -9.9m/s | -53.5°C | 1.6% | 143.5hPa | 2.7V | 08:14:00 | 00:00:00 | 00:00:00 | |
| OE5DXL-15 | 2026-09-02 12:42:26 | 48.14459 | 12.51686 | 112° | 69km/h | 14297m | -9.6m/s | -53.5°C | 4.1% | 142.4hPa | 2.7V | 00:00:00 | 00:00:00 | 00:00:00 | |
| OE5DRO-10 | 2026-09-02 12:42:24 | 48.14467 | 12.51657 | 112° | 73km/h | 14306m | -9.7m/s | -53.6°C | 4.1% | 142.2hPa | 2.7V | 00:00:00 | 00:00:00 | 00:00:00 | |
| OE5REO-15 | 2026-09-02 12:42:23 | 48.14466 | 12.51657 | 112° | 82km/h | 14306m | -9.7m/s | -53.6°C | 1.5% | 142.2hPa | 2.7V | 08:14:00 | 00:00:00 | 00:00:00 | |
| OE5WHR-10 | 2026-09-02 12:42:20 | 48.14497 | 12.51544 | 113° | 69km/h | 14345m | -9.6m/s | -53.3°C | 4.0% | 141.3hPa | 2.7V | 00:00:00 | 00:00:00 | 00:00:00 | |
| OE5MMP-10 | 2026-09-02 12:42:16 | 48.14527 | 12.51438 | 114° | 69km/h | 14385m | -9.9m/s | -52.9°C | 3.8% | 140.4hPa | 2.7V | 00:00:00 | 02:12:47 | 00:00:00 | |
| DL6DJ-15 | 2026-09-02 12:42:11 | 48.14573 | 12.51293 | 116° | 69km/h | 14445m | -10.2m/s | -53.0°C | 1.4% | 139.2hPa | 2.7V | 00:00:00 | 00:00:00 | 00:00:00 | |
| DG1MFX-10 | 2026-09-02 12:42:08 | 48.14580 | 12.51269 | 118° | 68km/h | 14455m | -10.1m/s | -52.9°C | 1.4% | 139.0hPa | 2.7V | 08:14:00 | 00:00:00 | 00:00:00 | |
| OE5REO-15 | 2026-09-02 12:42:07 | 48.14588 | 12.51247 | 117° | 68km/h | 14465m | -10.1m/s | -52.8°C | 1.3% | 138.5hPa | 2.7V | 08:14:00 | 00:00:00 | 00:00:00 | |
| OE5MMP-10 | 2026-09-02 12:42:06 | 48.14603 | 12.51202 | 117° | 64km/h | 14486m | -10.2m/s | -52.7°C | 3.7% | 138.2hPa | 2.7V | 00:00:00 | 02:12:37 | 00:00:00 | |
| OE5DRO-10 | 2026-09-02 12:42:05 | 48.14610 | 12.51180 | 117° | 60km/h | 14496m | -10.2m/s | -52.7°C | 3.8% | 138.0hPa | 2.7V | 00:00:00 | 00:00:00 | 00:00:00 | |
| OE5WHR-10 | 2026-09-02 12:41:59 | 48.14653 | 12.51050 | 118° | 55km/h | 14558m | -10.0m/s | -53.0°C | 3.8% | 136.7hPa | 2.7V | 00:00:00 | 00:00:00 | 00:00:00 | |
| OE5MMP-10 | 2026-09-02 12:41:56 | 48.14675 | 12.50989 | 119° | 57km/h | 14588m | -10.3m/s | -53.0°C | 3.8% | 136.1hPa | 2.7V | 00:00:00 | 02:12:27 | 00:00:00 | |
| OE5DXL-15 | 2026-09-02 12:41:55 | 48.14682 | 12.50969 | 120° | 53km/h | 14598m | -9.9m/s | -53.1°C | 3.8% | 135.8hPa | 2.7V | 00:00:00 | 00:00:00 | 00:00:00 | |
| OE5REO-15 | 2026-09-02 12:41:51 | 48.14704 | 12.50910 | 120° | 57km/h | 14629m | -10.5m/s | -53.3°C | 1.3% | 135.2hPa | 2.7V | 00:00:00 | 00:00:00 | 00:00:00 | |
| DG1MFX-10 | 2026-09-02 12:41:48 | 48.14725 | 12.50855 | 121° | 55km/h | 14660m | -10.5m/s | -53.4°C | 1.4% | 134.6hPa | 2.7V | 08:15:00 | 00:00:00 | 00:00:00 | |
| OE5MMP-10 | 2026-09-02 12:41:46 | 48.14745 | 12.50803 | 121° | 49km/h | 14691m | -10.3m/s | -53.4°C | 3.9% | 133.9hPa | 2.7V | 00:00:00 | 02:12:17 | 00:00:00 | |
| DL6DJ-15 | 2026-09-02 12:41:40 | 48.14802 | 12.50636 | 111° | 49km/h | 14795m | -10.3m/s | -53.3°C | 1.3% | 131.8hPa | 2.7V | 00:00:00 | 00:00:00 | 00:00:00 | |
| OE5MMP-10 | 2026-09-02 12:41:36 | 48.14802 | 12.50636 | 112° | 51km/h | 14795m | -10.3m/s | -53.3°C | 3.7% | 131.7hPa | 2.7V | 00:00:00 | 02:12:07 | 00:00:00 | |
| OE5REO-15 | 2026-09-02 12:41:35 | 48.14802 | 12.50636 | 112° | 51km/h | 14795m | -10.3m/s | -53.3°C | 1.3% | 131.8hPa | 2.7V | 00:00:00 | 00:00:00 | 00:00:00 | |
| DG1MFX-10 | 2026-09-02 12:41:28 | 48.14831 | 12.50503 | 106° | 49km/h | 14869m | -10.7m/s | -53.2°C | 1.3% | 130.3hPa | 2.7V | 08:15:00 | 00:00:00 | 00:00:00 | |
| OE5DRO-10 | 2026-09-02 12:41:27 | 48.14838 | 12.50468 | 106° | 47km/h | 14891m | -10.4m/s | -53.2°C | 3.7% | 129.8hPa | 2.7V | 00:00:00 | 00:00:00 | 00:00:00 | |
| OE5MMP-10 | 2026-09-02 12:41:26 | 48.14840 | 12.50451 | 104° | 46km/h | 14901m | -10.4m/s | -53.3°C | 3.7% | 129.6hPa | 2.7V | 08:15:00 | 02:11:57 | 00:00:00 | |
| OE5DXL-15 | 2026-09-02 12:41:25 | 48.14843 | 12.50434 | 104° | 51km/h | 14911m | -10.5m/s | -53.3°C | 3.7% | 129.4hPa | 2.7V | 00:00:00 | 00:00:00 | 00:00:00 | |
| OE5FHM-15 | 2026-09-02 12:41:23 | 48.14850 | 12.50382 | 101° | 27km/h | 14943m | -10.4m/s | -53.4°C | 3.8% | 128.7hPa | 2.7V | 00:00:00 | 02:11:53 | 08:30:00 | |
| OE5WHR-10 | 2026-09-02 12:41:17 | 48.14859 | 12.50296 | 100° | 53km/h | 14997m | -10.5m/s | -53.5°C | 3.7% | 127.6hPa | 2.7V | 00:00:00 | 00:00:00 | 00:00:00 | |
| OE5MMP-10 | 2026-09-02 12:41:16 | 48.14860 | 12.50279 | 96° | 49km/h | 15007m | -10.6m/s | -53.5°C | 3.7% | 127.4hPa | 2.7V | 00:00:00 | 02:11:47 | 00:00:00 | |
| OE5REO-15 | 2026-09-02 12:41:14 | 48.14862 | 12.50261 | 96° | 47km/h | 15018m | -10.6m/s | -53.6°C | 1.2% | 127.3hPa | 2.7V | 00:00:00 | 00:00:00 | 00:00:00 | |
| OE5DRO-10 | 2026-09-02 12:41:08 | 48.14864 | 12.50133 | 88° | 60km/h | 15093m | -10.6m/s | -53.9°C | 3.8% | 125.8hPa | 2.7V | 00:00:00 | 00:00:00 | 00:00:00 | |
| DG1MFX-10 | 2026-09-02 12:41:07 | 48.14864 | 12.50133 | 89° | 51km/h | 15093m | -10.7m/s | -53.9°C | 1.3% | 125.8hPa | 2.7V | 08:16:00 | 00:00:00 | 00:00:00 | |
| OE5MMP-10 | 2026-09-02 12:41:06 | 48.14862 | 12.50093 | 87° | 57km/h | 15115m | -10.7m/s | -54.0°C | 3.8% | 125.3hPa | 2.7V | 00:00:00 | 02:11:37 | 00:00:00 | |
| DB0ND-19 | 2026-09-02 12:40:51 | 48.14845 | 12.49728 | 90° | 68km/h | 15289m | -10.7m/s | 0°C | -1.0% | -1.0hPa | 2.7V | 00:00:00 | 00:00:00 | 00:00:00 | |
| OE5DRO-10 | 2026-09-02 12:40:49 | 48.14845 | 12.49702 | 91° | 66km/h | 15300m | -11.0m/s | -54.9°C | 4.2% | 121.7hPa | 2.7V | 00:00:00 | 00:00:00 | 00:00:00 | |
| OE5MMP-10 | 2026-09-02 12:40:46 | 48.14849 | 12.49624 | 97° | 66km/h | 15333m | -11.0m/s | -54.7°C | 4.1% | 121.1hPa | 2.7V | 00:00:00 | 02:11:17 | 00:00:00 | |
| BAUMI2-15 | 2026-09-02 12:40:38 | 48.14868 | 12.49429 | 97° | 66km/h | 15420m | -11.0m/s | -54.2°C | 4.0% | 119.5hPa | 2.7V | 00:00:00 | 02:11:09 | 00:00:00 | |
| OE5MMP-10 | 2026-09-02 12:40:36 | 48.14871 | 12.49380 | 98° | 66km/h | 15442m | -11.0m/s | -54.2°C | 4.0% | 119.0hPa | 2.7V | 00:00:00 | 02:11:07 | 00:00:00 | |
| OE5WHR-10 | 2026-09-02 12:40:35 | 48.14873 | 12.49356 | 98° | 71km/h | 15453m | -10.9m/s | -54.2°C | 3.9% | 118.8hPa | 2.7V | 00:00:00 | 02:11:06 | 00:00:00 | |
| BAUMI2-15 | 2026-09-02 12:40:34 | 48.14879 | 12.49307 | 99° | 66km/h | 15475m | -11.0m/s | -54.0°C | 3.9% | 118.5hPa | 2.7V | 00:00:00 | 02:11:04 | 00:00:00 | |
| OE5DRO-10 | 2026-09-02 12:40:30 | 48.14888 | 12.49234 | 102° | 73km/h | 15508m | -11.2m/s | -53.5°C | 3.7% | 117.8hPa | 2.7V | 00:00:00 | 00:00:00 | 00:00:00 | |
| BAUMI2-15 | 2026-09-02 12:40:28 | 48.14895 | 12.49184 | 103° | 68km/h | 15531m | -10.9m/s | -53.4°C | 3.7% | 117.4hPa | 2.7V | 00:00:00 | 02:10:59 | 00:00:00 | |
| OE5MMP-10 | 2026-09-02 12:40:26 | 48.14902 | 12.49134 | 103° | 73km/h | 15553m | -10.9m/s | -53.4°C | 3.7% | 117.0hPa | 2.7V | 00:00:00 | 02:10:57 | 00:00:00 | |
| OE5DXL-15 | 2026-09-02 12:40:25 | 48.14906 | 12.49109 | 101° | 69km/h | 15564m | -11.1m/s | -53.4°C | 3.8% | 116.8hPa | 2.7V | 00:00:00 | 00:00:00 | 00:00:00 | |
| BAUMI2-15 | 2026-09-02 12:40:23 | 48.14911 | 12.49056 | 99° | 73km/h | 15586m | -11.2m/s | -53.4°C | 3.8% | 116.4hPa | 2.7V | 00:00:00 | 02:10:54 | 00:00:00 | |
| BAUMI2-15 | 2026-09-02 12:40:18 | 48.14926 | 12.48917 | 101° | 77km/h | 15643m | -11.4m/s | -53.5°C | 3.8% | 115.4hPa | 2.7V | 00:00:00 | 02:10:49 | 00:00:00 | |
| OE5MMP-10 | 2026-09-02 12:40:16 | 48.14934 | 12.48860 | 103° | 75km/h | 15666m | -11.4m/s | -53.6°C | 3.8% | 115.0hPa | 2.7V | 00:00:00 | 02:10:47 | 00:00:00 | |
| OE5WHR-10 | 2026-09-02 12:40:14 | 48.14943 | 12.48804 | 105° | 66km/h | 15689m | -11.3m/s | -53.7°C | 3.9% | 114.6hPa | 2.7V | 08:16:00 | 00:00:00 | 00:00:00 | |
| BAUMI2-15 | 2026-09-02 12:40:13 | 48.14949 | 12.48777 | 107° | 75km/h | 15700m | -11.1m/s | -53.7°C | 3.9% | 114.4hPa | 2.7V | 00:00:00 | 02:10:44 | 00:00:00 | |
| OE5DRO-10 | 2026-09-02 12:40:11 | 48.14960 | 12.48723 | 109° | 64km/h | 15722m | -11.2m/s | -53.6°C | 3.9% | 114.0hPa | 2.7V | 00:00:00 | 00:00:00 | 00:00:00 | |
| OE5REO-15 | 2026-09-02 12:40:10 | 48.14960 | 12.48723 | 109° | 73km/h | 15722m | -11.3m/s | -53.7°C | 1.2% | 114.0hPa | 2.7V | 08:17:00 | 00:00:00 | 00:00:00 | |
| BAUMI2-15 | 2026-09-02 12:40:08 | 48.14978 | 12.48645 | 110° | 69km/h | 15757m | -11.8m/s | -53.4°C | 3.8% | 113.3hPa | 2.7V | 00:00:00 | 02:10:39 | 00:00:00 | |
| DL6DJ-15 | 2026-09-02 12:40:07 | 48.14984 | 12.48620 | 110° | 69km/h | 15769m | -11.9m/s | 0°C | -1.0% | -1.0hPa | 2.7V | 00:00:00 | 00:00:00 | 00:00:00 | |
| OE5MMP-10 | 2026-09-02 12:40:06 | 48.14990 | 12.48595 | 112° | 62km/h | 15780m | -11.9m/s | -53.2°C | 3.7% | 112.9hPa | 2.7V | 00:00:00 | 02:10:37 | 00:00:00 | |
| DG1MFX-10 | 2026-09-02 12:40:05 | 48.14990 | 12.48595 | 113° | 69km/h | 15780m | -11.9m/s | -53.2°C | 1.2% | 113.0hPa | 2.7V | 08:17:00 | 00:00:00 | 00:00:00 | |
| BAUMI2-15 | 2026-09-02 12:39:58 | 48.15045 | 12.48422 | 122° | 57km/h | 15873m | -11.6m/s | -53.0°C | 3.6% | 111.4hPa | 2.7V | 00:00:00 | 02:10:29 | 00:00:00 | |
| OE5MMP-10 | 2026-09-02 12:39:56 | 48.15061 | 12.48385 | 125° | 51km/h | 15896m | -11.4m/s | -53.1°C | 3.7% | 111.0hPa | 2.7V | 08:17:00 | 02:10:27 | 00:00:00 | |
| OE5DXL-15 | 2026-09-02 12:39:55 | 48.15069 | 12.48368 | 124° | 46km/h | 15907m | -11.5m/s | -53.1°C | 3.6% | 110.7hPa | 2.7V | 00:00:00 | 00:00:00 | 00:00:00 | |
| OE5WHR-10 | 2026-09-02 12:39:53 | 48.15083 | 12.48335 | 124° | 47km/h | 15931m | -11.9m/s | -53.1°C | 3.7% | 110.3hPa | 2.7V | 00:00:00 | 00:00:00 | 00:00:00 | |
| DB0UT-7 | 2026-09-02 12:39:52 | 48.15090 | 12.48319 | 123° | 51km/h | 15942m | -11.7m/s | -53.1°C | 3.7% | 110.1hPa | 2.7V | 00:00:00 | 02:10:23 | 00:00:00 | |
| BAUMI2-15 | 2026-09-02 12:39:48 | 48.15116 | 12.48253 | 117° | 49km/h | 15990m | -11.7m/s | -53.1°C | 3.7% | 109.3hPa | 2.7V | 00:00:00 | 02:10:19 | 00:00:00 | |
| OE5MMP-10 | 2026-09-02 12:39:46 | 48.15127 | 12.48219 | 116° | 47km/h | 16013m | -11.9m/s | -53.2°C | 3.7% | 108.9hPa | 2.7V | 00:00:00 | 02:10:17 | 00:00:00 | |
| DG1MFX-10 | 2026-09-02 12:39:45 | 48.15127 | 12.48219 | 116° | 49km/h | 16013m | -11.9m/s | -53.3°C | 1.2% | 109.0hPa | 2.7V | 08:17:00 | 00:00:00 | 00:00:00 | |
| BAUMI2-15 | 2026-09-02 12:39:43 | 48.15143 | 12.48168 | 116° | 47km/h | 16048m | -11.4m/s | -53.1°C | 3.7% | 108.3hPa | 2.7V | 00:00:00 | 02:10:14 | 00:00:00 | |
| OE5REO-15 | 2026-09-02 12:39:40 | 48.15153 | 12.48135 | 114° | 47km/h | 16071m | -11.8m/s | -53.2°C | 1.1% | 108.0hPa | 2.7V | 08:17:00 | 00:00:00 | 00:00:00 | |
| BAUMI2-15 | 2026-09-02 12:39:38 | 48.15167 | 12.48085 | 112° | 44km/h | 16107m | -11.9m/s | -53.0°C | 3.7% | 107.3hPa | 2.7V | 00:00:00 | 02:10:09 | 00:00:00 | |
| DL6DJ-15 | 2026-09-02 12:39:36 | 48.15187 | 12.48009 | 110° | 40km/h | 16166m | -12.1m/s | 0°C | -1.0% | -1.0hPa | 2.7V | 00:00:00 | 00:00:00 | 00:00:00 | |
| BAUMI2-15 | 2026-09-02 12:39:33 | 48.15187 | 12.48009 | 111° | 38km/h | 16166m | -12.0m/s | -52.9°C | 3.6% | 106.3hPa | 2.7V | 00:00:00 | 02:10:04 | 00:00:00 | |
| OE5WHR-10 | 2026-09-02 12:39:32 | 48.15190 | 12.47995 | 109° | 35km/h | 16178m | -11.9m/s | -52.9°C | 3.6% | 106.1hPa | 2.7V | 00:00:00 | 02:10:03 | 00:00:00 | |
| BAUMI2-15 | 2026-09-02 12:39:28 | 48.15203 | 12.47943 | 111° | 33km/h | 16226m | -11.6m/s | -53.2°C | 3.7% | 105.4hPa | 2.7V | 00:00:00 | 02:09:59 | 00:00:00 | |
| OE5MMP-10 | 2026-09-02 12:39:26 | 48.15207 | 12.47919 | 104° | 33km/h | 16250m | -12.1m/s | -53.3°C | 3.7% | 105.0hPa | 2.7V | 00:00:00 | 02:09:57 | 00:00:00 | |
| OE5DXL-15 | 2026-09-02 12:39:25 | 48.15209 | 12.47906 | 101° | 40km/h | 16262m | -12.1m/s | -53.4°C | 3.7% | 104.7hPa | 2.7V | 00:00:00 | 00:00:00 | 00:00:00 | |
| DG1MFX-10 | 2026-09-02 12:39:24 | 48.15209 | 12.47906 | 102° | 33km/h | 16262m | -12.2m/s | -53.5°C | 1.2% | 104.8hPa | 2.7V | 08:18:00 | 00:00:00 | 00:00:00 | |
| BAUMI2-15 | 2026-09-02 12:39:23 | 48.15211 | 12.47884 | 99° | 31km/h | 16286m | -11.8m/s | -53.5°C | 3.7% | 104.4hPa | 2.7V | 00:00:00 | 02:09:54 | 00:00:00 | |
| DF7PN | 2026-09-02 12:39:22 | 48.15212 | 12.47872 | 91° | 31km/h | 16297m | -12.2m/s | -53.6°C | 1.1% | 104.2hPa | 2.7V | 00:00:00 | 00:00:00 | 00:00:00 | |
| BAUMI2-15 | 2026-09-02 12:39:18 | 48.15210 | 12.47825 | 82° | 37km/h | 16345m | -11.8m/s | -53.6°C | 3.8% | 103.4hPa | 2.7V | 08:17:00 | 02:09:49 | 00:00:00 | |
| OE5MMP-10 | 2026-09-02 12:39:16 | 48.15207 | 12.47798 | 78° | 40km/h | 16369m | -11.9m/s | -53.7°C | 3.8% | 103.0hPa | 2.7V | 00:00:00 | 02:09:47 | 00:00:00 | |
| BAUMI2-15 | 2026-09-02 12:39:13 | 48.15201 | 12.47755 | 75° | 42km/h | 16405m | -12.1m/s | -53.5°C | 3.7% | 102.5hPa | 2.7V | 00:00:00 | 02:09:44 | 00:00:00 | |
| OE5WHR-10 | 2026-09-02 12:39:11 | 48.15196 | 12.47725 | 78° | 46km/h | 16429m | -12.3m/s | -53.7°C | 3.8% | 102.0hPa | 2.7V | 00:00:00 | 00:00:00 | 00:00:00 | |
| DO3MHA-11 | 2026-09-02 12:39:10 | 48.15193 | 12.47709 | 79° | 44km/h | 16442m | -12.5m/s | -53.7°C | 3.8% | 101.9hPa | 2.7V | 00:00:00 | 02:09:41 | 00:00:00 | |
| BAUMI2-15 | 2026-09-02 12:39:08 | 48.15189 | 12.47677 | 82° | 44km/h | 16467m | -12.3m/s | -53.6°C | 3.8% | 101.5hPa | 2.7V | 00:00:00 | 02:09:39 | 00:00:00 | |
| OE5MMP-10 | 2026-09-02 12:39:06 | 48.15186 | 12.47645 | 84° | 44km/h | 16491m | -12.2m/s | -53.5°C | 3.8% | 101.1hPa | 2.7V | 00:00:00 | 02:09:37 | 00:00:00 | |
| BAUMI2-15 | 2026-09-02 12:39:03 | 48.15185 | 12.47595 | 88° | 44km/h | 16528m | -12.3m/s | -53.5°C | 3.7% | 100.5hPa | 2.7V | 00:00:00 | 02:09:34 | 00:00:00 | |
| DO3MHA-11 | 2026-09-02 12:38:59 | 48.15185 | 12.47528 | 91° | 46km/h | 16577m | -12.4m/s | -53.6°C | 3.7% | 99.7hPa | 2.7V | 00:00:00 | 02:09:30 | 00:00:00 | |
| BAUMI2-15 | 2026-09-02 12:38:58 | 48.15185 | 12.47511 | 91° | 46km/h | 16590m | -12.4m/s | -53.7°C | 3.7% | 99.5hPa | 2.7V | 00:00:00 | 02:09:29 | 00:00:00 | |
| OE5MMP-10 | 2026-09-02 12:38:56 | 48.15184 | 12.47476 | 90° | 47km/h | 16615m | -12.4m/s | -53.8°C | 3.8% | 99.1hPa | 2.7V | 00:00:00 | 02:09:27 | 00:00:00 | |
| OE5DXL-15 | 2026-09-02 12:38:55 | 48.15184 | 12.47459 | 92° | 47km/h | 16628m | -12.6m/s | -53.9°C | 3.8% | 99.0hPa | 2.7V | 00:00:00 | 00:00:00 | 00:00:00 | |
| BAUMI2-15 | 2026-09-02 12:38:53 | 48.15185 | 12.47423 | 92° | 47km/h | 16653m | -12.4m/s | -53.9°C | 3.8% | 98.6hPa | 2.7V | 00:00:00 | 02:09:24 | 00:00:00 | |
| OE5WHR-10 | 2026-09-02 12:38:50 | 48.15187 | 12.47370 | 95° | 47km/h | 16691m | -12.9m/s | -53.8°C | 3.7% | 98.0hPa | 2.7V | 00:00:00 | 00:00:00 | 00:00:00 | |
| BAUMI2-15 | 2026-09-02 12:38:49 | 48.15190 | 12.47334 | 99° | 47km/h | 16717m | -13.1m/s | -53.6°C | 3.7% | 97.6hPa | 2.7V | 00:00:00 | 02:09:19 | 00:00:00 | |
| OE5MMP-10 | 2026-09-02 12:38:46 | 48.15193 | 12.47298 | 101° | 44km/h | 16743m | -12.9m/s | -53.5°C | 3.7% | 97.2hPa | 2.7V | 00:00:00 | 02:09:17 | 00:00:00 | |
| BAUMI2-15 | 2026-09-02 12:38:43 | 48.15199 | 12.47248 | 100° | 44km/h | 16780m | -10.9m/s | -53.3°C | 3.7% | 96.6hPa | 2.7V | 00:00:00 | 02:09:14 | 00:00:00 | |
| DG1MFX-10 | 2026-09-02 12:38:42 | 48.15199 | 12.47248 | 100° | 44km/h | 16780m | -11.0m/s | -53.4°C | 1.1% | 96.6hPa | 2.7V | 08:18:00 | 00:00:00 | 00:00:00 | |
| OE5DRO-10 | 2026-09-02 12:38:40 | 48.15204 | 12.47199 | 99° | 49km/h | 16814m | -11.2m/s | -53.4°C | 3.7% | 96.1hPa | 2.7V | 00:00:00 | 00:00:00 | 00:00:00 | |
| DO3MHA-11 | 2026-09-02 12:38:39 | 48.15206 | 12.47183 | 97° | 49km/h | 16825m | -11.0m/s | -53.4°C | 3.7% | 96.0hPa | 2.7V | 00:00:00 | 02:09:10 | 00:00:00 | |
| OE5MMP-10 | 2026-09-02 12:38:36 | 48.15207 | 12.47131 | 91° | 51km/h | 16859m | -11.0m/s | -53.5°C | 3.6% | 95.4hPa | 2.7V | 00:00:00 | 02:09:07 | 00:00:00 | |
| DL6DJ-15 | 2026-09-02 12:38:33 | 48.15205 | 12.47056 | 86° | 51km/h | 16904m | -11.4m/s | 0°C | -1.0% | -1.0hPa | 2.7V | 00:00:00 | 00:00:00 | 00:00:00 | |
| DO3MHA-11 | 2026-09-02 12:38:29 | 48.15203 | 12.46997 | 91° | 53km/h | 16939m | -11.6m/s | -53.3°C | 3.6% | 94.3hPa | 2.7V | 00:00:00 | 02:09:00 | 00:00:00 | |
| OE5MMP-10 | 2026-09-02 12:38:26 | 48.15205 | 12.46937 | 93° | 53km/h | 16973m | -11.3m/s | -53.4°C | 3.6% | 93.8hPa | 2.7V | 08:18:00 | 02:08:57 | 00:00:00 | |
| OE5DXL-15 | 2026-09-02 12:38:25 | 48.15205 | 12.46918 | 92° | 51km/h | 16985m | -11.7m/s | -53.4°C | 3.6% | 93.6hPa | 2.7V | 00:00:00 | 00:00:00 | 00:00:00 | |
| DG1MFX-10 | 2026-09-02 12:38:21 | 48.15205 | 12.46859 | 89° | 53km/h | 17019m | -11.6m/s | -53.5°C | 1.0% | 93.1hPa | 2.7V | 08:19:00 | 00:00:00 | 00:00:00 | |
| OE5MMP-10 | 2026-09-02 12:38:16 | 48.15199 | 12.46739 | 87° | 49km/h | 17088m | -11.1m/s | -53.4°C | 3.6% | 92.1hPa | 2.7V | 00:00:00 | 02:08:47 | 00:00:00 | |
| DO3MHA-11 | 2026-09-02 12:38:13 | 48.15197 | 12.46682 | 87° | 51km/h | 17122m | -11.5m/s | -53.6°C | 3.7% | 91.6hPa | 2.7V | 00:00:00 | 02:08:44 | 00:00:00 | |
| OE5WHR-10 | 2026-09-02 12:38:08 | 48.15197 | 12.46589 | 94° | 49km/h | 17179m | -11.4m/s | -53.8°C | 3.6% | 90.8hPa | 2.7V | 00:00:00 | 00:00:00 | 00:00:00 | |
| OE5MMP-10 | 2026-09-02 12:38:06 | 48.15198 | 12.46551 | 96° | 51km/h | 17202m | -11.8m/s | -53.9°C | 3.7% | 90.4hPa | 2.7V | 00:00:00 | 02:08:37 | 00:00:00 | |
| DO3MHA-11 | 2026-09-02 12:38:03 | 48.15204 | 12.46491 | 101° | 51km/h | 17237m | -12.1m/s | -54.1°C | 3.7% | 89.9hPa | 2.7V | 08:19:00 | 02:08:34 | 00:00:00 | |
| DB0UT-7 | 2026-09-02 12:38:01 | 48.15209 | 12.46452 | 104° | 38km/h | 17261m | -11.6m/s | -54.2°C | 3.7% | 89.6hPa | 2.7V | 00:00:00 | 00:00:00 | 00:00:00 | |
| DG1MFX-10 | 2026-09-02 12:38:00 | 48.15209 | 12.46451 | 104° | 53km/h | 17261m | -11.7m/s | -54.2°C | 1.1% | 89.7hPa | 2.7V | 08:19:00 | 00:00:00 | 00:00:00 | |
| OE5MMP-10 | 2026-09-02 12:37:56 | 48.15227 | 12.46361 | 110° | 44km/h | 17319m | -11.6m/s | -54.3°C | 3.8% | 88.8hPa | 2.7V | 00:00:00 | 02:08:27 | 00:00:00 | |
| OE5DXL-15 | 2026-09-02 12:37:55 | 48.15232 | 12.46344 | 109° | 40km/h | 17330m | -11.8m/s | -54.3°C | 3.8% | 88.6hPa | 2.7V | 00:00:00 | 00:00:00 | 00:00:00 | |
| DO3MHA-11 | 2026-09-02 12:37:53 | 48.15239 | 12.46311 | 111° | 44km/h | 17354m | -12.0m/s | -54.2°C | 3.8% | 88.3hPa | 2.7V | 00:00:00 | 02:08:24 | 00:00:00 | |
| OE5MMP-10 | 2026-09-02 12:37:47 | 48.15273 | 12.46210 | 124° | 35km/h | 17437m | -11.5m/s | -54.3°C | 3.8% | 87.2hPa | 2.7V | 00:00:00 | 02:08:17 | 00:00:00 | |
| DG1MFX-10 | 2026-09-02 12:37:39 | 48.15300 | 12.46139 | 117° | 33km/h | 17508m | -11.7m/s | -54.5°C | 1.1% | 86.3hPa | 2.7V | 08:20:00 | 00:00:00 | 00:00:00 | |
| OE5DRO-10 | 2026-09-02 12:37:37 | 48.15308 | 12.46103 | 102° | 42km/h | 17544m | -11.7m/s | -54.3°C | 3.8% | 85.8hPa | 2.7V | 08:19:00 | 00:00:00 | 00:00:00 | |
| OE5MMP-10 | 2026-09-02 12:37:36 | 48.15310 | 12.46091 | 103° | 40km/h | 17556m | -11.6m/s | -54.4°C | 3.8% | 85.6hPa | 2.7V | 00:00:00 | 02:08:07 | 00:00:00 | |
| DB0UT-7 | 2026-09-02 12:37:29 | 48.15319 | 12.45986 | 101° | 20km/h | 17638m | -11.8m/s | -54.4°C | 3.9% | 84.5hPa | 2.7V | 00:00:00 | 02:08:00 | 00:00:00 | |
| OE5WHR-10 | 2026-09-02 12:37:26 | 48.15325 | 12.45941 | 101° | 49km/h | 17674m | -11.9m/s | -54.3°C | 3.9% | 84.0hPa | 2.7V | 00:00:00 | 02:07:57 | 00:00:00 | |
| OE5DXL-15 | 2026-09-02 12:37:25 | 48.15327 | 12.45926 | 99° | 46km/h | 17686m | -11.9m/s | -54.3°C | 3.9% | 83.9hPa | 2.7V | 00:00:00 | 00:00:00 | 00:00:00 | |
| DG1MFX-10 | 2026-09-02 12:37:20 | 48.15334 | 12.45842 | 96° | 49km/h | 17745m | -11.9m/s | -54.3°C | 1.1% | 83.1hPa | 2.7V | 08:20:00 | 00:00:00 | 00:00:00 | |
| OE5DRO-10 | 2026-09-02 12:37:18 | 48.15337 | 12.45804 | 98° | 46km/h | 17769m | -12.1m/s | -54.0°C | 3.8% | 82.7hPa | 2.7V | 00:00:00 | 00:00:00 | 00:00:00 | |
| OE5MMP-10 | 2026-09-02 12:37:16 | 48.15341 | 12.45763 | 98° | 51km/h | 17793m | -11.9m/s | -53.8°C | 3.8% | 82.4hPa | 2.7V | 00:00:00 | 02:07:47 | 00:00:00 | |
| OE5MMP-10 | 2026-09-02 12:37:06 | 48.15364 | 12.45575 | 97° | 38km/h | 17915m | -12.3m/s | -53.8°C | 3.8% | 80.9hPa | 2.7V | 00:00:00 | 02:07:37 | 00:00:00 | |
| OE5WHR-10 | 2026-09-02 12:37:05 | 48.15365 | 12.45560 | 94° | 37km/h | 17927m | -12.0m/s | -53.7°C | 3.8% | 80.8hPa | 2.7V | 08:19:00 | 00:00:00 | 00:00:00 | |
| OE5DRO-10 | 2026-09-02 12:36:59 | 48.15360 | 12.45474 | 82° | 37km/h | 18001m | -12.3m/s | -52.9°C | 3.6% | 79.8hPa | 2.7V | 00:00:00 | 00:00:00 | 00:00:00 | |
| OE5MMP-10 | 2026-09-02 12:36:56 | 48.15357 | 12.45433 | 86° | 37km/h | 18037m | -12.1m/s | -52.6°C | 3.4% | 79.4hPa | 2.7V | 08:20:00 | 02:07:27 | 00:00:00 | |
| OE5DXL-15 | 2026-09-02 12:36:55 | 48.15357 | 12.45420 | 88° | 40km/h | 18050m | -12.2m/s | -52.7°C | 3.4% | 79.2hPa | 2.7V | 00:00:00 | 00:00:00 | 00:00:00 | |
| OE5MMP-10 | 2026-09-02 12:36:46 | 48.15345 | 12.45299 | 79° | 38km/h | 18162m | -12.2m/s | -52.9°C | 3.4% | 77.8hPa | 2.7V | 00:00:00 | 02:07:17 | 00:00:00 | |
| OE5WHR-10 | 2026-09-02 12:36:45 | 48.15340 | 12.45271 | 76° | 42km/h | 18187m | -12.8m/s | -52.8°C | 3.4% | 77.6hPa | 2.7V | 00:00:00 | 00:00:00 | 00:00:00 | |
| OE5DRO-10 | 2026-09-02 12:36:40 | 48.15329 | 12.45217 | 74° | 44km/h | 18238m | -12.5m/s | -52.9°C | 3.5% | 76.9hPa | 2.7V | 00:00:00 | 00:00:00 | 00:00:00 | |
| BAUMI2-15 | 2026-09-02 12:36:39 | 48.15326 | 12.45203 | 73° | 40km/h | 18251m | -12.8m/s | -53.0°C | 3.5% | 76.8hPa | 2.7V | 00:00:00 | 02:07:10 | 00:00:00 | |
| OE5MMP-10 | 2026-09-02 12:36:36 | 48.15316 | 12.45158 | 73° | 46km/h | 18290m | -12.8m/s | -53.3°C | 3.6% | 76.3hPa | 2.7V | 00:00:00 | 02:07:07 | 00:00:00 | |
| BAUMI2-15 | 2026-09-02 12:36:34 | 48.15310 | 12.45126 | 75° | 46km/h | 18315m | -12.8m/s | -53.6°C | 3.7% | 76.0hPa | 2.7V | 08:20:00 | 02:07:05 | 00:00:00 | |
| OE5MMP-10 | 2026-09-02 12:36:26 | 48.15286 | 12.44990 | 79° | 40km/h | 18417m | -13.1m/s | -54.1°C | 3.9% | 74.8hPa | 2.7V | 00:00:00 | 02:06:57 | 00:00:00 | |
| OE5DXL-15 | 2026-09-02 12:36:25 | 48.15284 | 12.44975 | 79° | 37km/h | 18430m | -12.9m/s | -53.9°C | 3.8% | 74.7hPa | 2.7V | 08:20:00 | 00:00:00 | 00:00:00 | |
| OE5WHR-10 | 2026-09-02 12:36:23 | 48.15281 | 12.44944 | 84° | 40km/h | 18455m | -13.1m/s | -53.3°C | 3.6% | 74.4hPa | 2.7V | 00:00:00 | 02:06:54 | 00:00:00 | |
| BAUMI2-15 | 2026-09-02 12:36:21 | 48.15280 | 12.44915 | 90° | 40km/h | 18481m | -12.9m/s | -53.4°C | 3.6% | 74.1hPa | 2.7V | 00:00:00 | 02:06:52 | 00:00:00 | |
| DO3MHA-11 | 2026-09-02 12:36:18 | 48.15282 | 12.44869 | 100° | 42km/h | 18520m | -13.4m/s | -53.4°C | 3.7% | 73.6hPa | 2.7V | 00:00:00 | 02:06:49 | 00:00:00 | |
| BAUMI2-15 | 2026-09-02 12:36:11 | 48.15305 | 12.44761 | 113° | 40km/h | 18611m | -12.8m/s | -53.3°C | 3.7% | 72.6hPa | 2.7V | 00:00:00 | 02:06:42 | 00:00:00 | |
| OE5MMP-10 | 2026-09-02 12:36:06 | 48.15324 | 12.44691 | 111° | 29km/h | 18676m | -13.4m/s | -53.0°C | 3.6% | 71.9hPa | 2.7V | 00:00:00 | 02:06:37 | 00:00:00 | |
| DO3MHA-11 | 2026-09-02 12:36:04 | 48.15330 | 12.44666 | 111° | 33km/h | 18703m | -13.0m/s | -52.9°C | 3.6% | 71.6hPa | 2.7V | 00:00:00 | 02:06:35 | 00:00:00 | |
| OE5WHR-10 | 2026-09-02 12:36:02 | 48.15335 | 12.44645 | 110° | 33km/h | 18729m | -13.1m/s | -52.8°C | 3.5% | 71.3hPa | 2.7V | 00:00:00 | 00:00:00 | 00:00:00 | |
| BAUMI2-15 | 2026-09-02 12:36:01 | 48.15338 | 12.44635 | 109° | 27km/h | 18742m | -13.1m/s | -52.9°C | 3.5% | 71.1hPa | 2.7V | 00:00:00 | 02:06:32 | 00:00:00 | |
| OE3JTB-15 | 2026-09-02 12:36:00 | 48.15344 | 12.44607 | 111° | 31km/h | 18782m | -13.8m/s | -53.1°C | 3.6% | 70.7hPa | 2.7V | 00:00:00 | 02:06:29 | 00:00:00 | |
| DG1MFX-10 | 2026-09-02 12:35:57 | 48.15344 | 12.44607 | 111° | 26km/h | 18782m | -13.9m/s | -53.1°C | 1.0% | 70.7hPa | 2.7V | 08:21:00 | 00:00:00 | 00:00:00 | |
| OE5MMP-10 | 2026-09-02 12:35:56 | 48.15350 | 12.44587 | 120° | 37km/h | 18810m | -13.3m/s | -53.0°C | 3.6% | 70.4hPa | 2.7V | 00:00:00 | 02:06:27 | 00:00:00 | |
| OE5DXL-15 | 2026-09-02 12:35:55 | 48.15354 | 12.44577 | 116° | 33km/h | 18823m | -13.7m/s | -52.9°C | 3.6% | 70.3hPa | 2.7V | 00:00:00 | 00:00:00 | 00:00:00 | |
| BAUMI2-15 | 2026-09-02 12:35:51 | 48.15372 | 12.44527 | 120° | 38km/h | 18887m | -16.0m/s | -52.9°C | 3.6% | 69.6hPa | 2.7V | 00:00:00 | 02:06:22 | 00:00:00 | |
| PG1ADW-2 | 2026-09-02 12:35:49 | 48.15382 | 12.44501 | 122° | 29km/h | 18916m | -14.5m/s | -53.1°C | 3.6% | 69.3hPa | 2.7V | 00:00:00 | 00:00:00 | 00:00:00 | |
| BAUMI2-15 | 2026-09-02 12:35:47 | 48.15395 | 12.44467 | 122° | 29km/h | 18961m | -14.8m/s | -53.2°C | 3.6% | 68.7hPa | 2.7V | 08:21:00 | 02:06:17 | 00:00:00 | |
| OE5MMP-10 | 2026-09-02 12:35:46 | 48.15395 | 12.44467 | 122° | 27km/h | 18961m | -14.8m/s | -53.2°C | 3.6% | 68.7hPa | 2.7V | 00:00:00 | 02:06:17 | 00:00:00 | |
| DO3MHA-11 | 2026-09-02 12:35:45 | 48.15400 | 12.44456 | 124° | 27km/h | 18975m | -14.0m/s | -53.3°C | 3.6% | 68.6hPa | 2.7V | 00:00:00 | 02:06:16 | 00:00:00 | |
| OE5WHR-10 | 2026-09-02 12:35:42 | 48.15414 | 12.44421 | 116° | 33km/h | 19034m | -15.1m/s | -53.1°C | 3.6% | 68.0hPa | 2.7V | 00:00:00 | 00:00:00 | 00:00:00 | |
| BAUMI2-15 | 2026-09-02 12:35:40 | 48.15416 | 12.44413 | 111° | 26km/h | 19049m | -15.1m/s | -53.2°C | 3.6% | 67.8hPa | 2.7V | 00:00:00 | 02:06:11 | 00:00:00 | |
| OE5MMP-10 | 2026-09-02 12:35:36 | 48.15423 | 12.44376 | 101° | 33km/h | 19104m | -12.9m/s | -53.5°C | 3.8% | 67.2hPa | 2.7V | 00:00:00 | 02:06:07 | 00:00:00 | |
| BAUMI2-15 | 2026-09-02 12:35:35 | 48.15423 | 12.44366 | 96° | 29km/h | 19118m | -13.2m/s | -53.4°C | 3.7% | 67.1hPa | 2.7V | 00:00:00 | 02:06:06 | 00:00:00 | |
| DO3MHA-11 | 2026-09-02 12:35:33 | 48.15425 | 12.44346 | 97° | 37km/h | 19144m | -13.7m/s | -52.9°C | 3.6% | 66.8hPa | 2.7V | 00:00:00 | 02:06:04 | 00:00:00 | |
| BAUMI2-15 | 2026-09-02 12:35:30 | 48.15429 | 12.44310 | 101° | 38km/h | 19186m | -13.8m/s | -53.0°C | 3.6% | 66.4hPa | 2.7V | 00:00:00 | 02:06:01 | 00:00:00 | |
| PG1ADW-2 | 2026-09-02 12:35:29 | 48.15430 | 12.44297 | 102° | 33km/h | 19200m | -14.0m/s | -53.0°C | 3.6% | 66.3hPa | 2.7V | 00:00:00 | 00:00:00 | 00:00:00 | |
| OE5MMP-10 | 2026-09-02 12:35:26 | 48.15437 | 12.44253 | 105° | 38km/h | 19241m | -13.4m/s | -53.2°C | 3.7% | 65.8hPa | 2.7V | 08:21:00 | 02:05:57 | 00:00:00 | |
| OE5DRO-10 | 2026-09-02 12:35:24 | 48.15442 | 12.44222 | 103° | 29km/h | 19268m | -13.6m/s | -53.3°C | 3.7% | 65.6hPa | 2.7V | 00:00:00 | 00:00:00 | 00:00:00 | |
| DO3MHA-11 | 2026-09-02 12:35:23 | 48.15444 | 12.44207 | 102° | 31km/h | 19281m | -13.6m/s | -53.3°C | 3.7% | 65.4hPa | 2.7V | 00:00:00 | 02:05:54 | 00:00:00 | |
| OE5WHR-10 | 2026-09-02 12:35:20 | 48.15450 | 12.44164 | 99° | 22km/h | 19322m | -13.8m/s | -53.5°C | 3.8% | 65.0hPa | 2.7V | 00:00:00 | 02:05:51 | 00:00:00 | |
| OE5MMP-10 | 2026-09-02 12:35:16 | 48.15456 | 12.44114 | 105° | 24km/h | 19377m | -13.3m/s | -53.0°C | 3.6% | 64.4hPa | 2.7V | 00:00:00 | 02:05:47 | 00:00:00 | |
| BAUMI2-15 | 2026-09-02 12:35:15 | 48.15458 | 12.44103 | 106° | 27km/h | 19391m | -13.8m/s | -52.6°C | 3.5% | 64.3hPa | 2.7V | 00:00:00 | 02:05:46 | 00:00:00 | |
| DO3MHA-11 | 2026-09-02 12:35:11 | 48.15468 | 12.44068 | 116° | 16km/h | 19447m | -14.1m/s | -52.3°C | 3.4% | 63.7hPa | 2.7V | 00:00:00 | 02:05:42 | 00:00:00 | |
| PG1ADW-2 | 2026-09-02 12:35:10 | 48.15473 | 12.44055 | 129° | 27km/h | 19475m | -13.7m/s | -52.3°C | 3.4% | 63.5hPa | 2.7V | 00:00:00 | 00:00:00 | 00:00:00 | |
| BAUMI2-15 | 2026-09-02 12:35:09 | 48.15473 | 12.44055 | 129° | 18km/h | 19475m | -13.7m/s | -52.3°C | 3.4% | 63.5hPa | 2.7V | 00:00:00 | 02:05:40 | 00:00:00 | |
| OE5MMP-10 | 2026-09-02 12:35:06 | 48.15481 | 12.44039 | 133° | 15km/h | 19517m | -13.6m/s | -52.4°C | 3.4% | 63.0hPa | 2.7V | 00:00:00 | 02:05:37 | 00:00:00 | |
| OE5DRO-10 | 2026-09-02 12:35:05 | 48.15484 | 12.44034 | 121° | 18km/h | 19531m | -14.0m/s | -52.4°C | 3.5% | 62.9hPa | 2.7V | 00:00:00 | 00:00:00 | 00:00:00 | |
| BAUMI2-15 | 2026-09-02 12:35:04 | 48.15485 | 12.44029 | 120° | 15km/h | 19545m | -13.9m/s | -52.4°C | 3.4% | 62.8hPa | 2.7V | 00:00:00 | 02:05:35 | 00:00:00 | |
| DO3MHA-11 | 2026-09-02 12:35:01 | 48.15488 | 12.44015 | 95° | 16km/h | 19587m | -14.1m/s | -52.5°C | 3.4% | 62.3hPa | 2.7V | 00:00:00 | 02:05:32 | 00:00:00 | |
| OE3JTB-15 | 2026-09-02 12:34:59 | 48.15484 | 12.43995 | 62° | 20km/h | 19644m | -13.6m/s | -52.8°C | 3.5% | 61.8hPa | 2.7V | 00:00:00 | 00:00:00 | 00:00:00 | |
| DG1MFX-10 | 2026-09-02 12:34:57 | 48.15484 | 12.43995 | 63° | 16km/h | 19644m | -13.7m/s | -52.9°C | 0.9% | 61.8hPa | 2.7V | 08:22:00 | 00:00:00 | 00:00:00 | |
| OE5MMP-10 | 2026-09-02 12:34:56 | 48.15483 | 12.43989 | 72° | 20km/h | 19658m | -13.9m/s | -52.9°C | 3.5% | 61.7hPa | 2.7V | 00:00:00 | 02:05:27 | 00:00:00 | |
| OE5DXL-15 | 2026-09-02 12:34:55 | 48.15482 | 12.43983 | 73° | 20km/h | 19672m | -14.5m/s | -53.0°C | 3.5% | 61.5hPa | 2.7V | 00:00:00 | 00:00:00 | 00:00:00 | |
| BAUMI2-15 | 2026-09-02 12:34:54 | 48.15480 | 12.43977 | 69° | 18km/h | 19687m | -14.5m/s | -53.1°C | 3.5% | 61.4hPa | 2.7V | 00:00:00 | 02:05:25 | 00:00:00 | |
| DO3MHA-11 | 2026-09-02 12:34:51 | 48.15476 | 12.43956 | 80° | 22km/h | 19730m | -13.9m/s | -53.1°C | 3.5% | 61.0hPa | 2.7V | 08:22:00 | 02:05:22 | 00:00:00 | |
| BAUMI2-15 | 2026-09-02 12:34:49 | 48.15474 | 12.43939 | 81° | 24km/h | 19758m | -14.1m/s | -53.1°C | 3.5% | 60.7hPa | 2.7V | 00:00:00 | 02:05:20 | 00:00:00 | |
| OE5DRO-10 | 2026-09-02 12:34:46 | 48.15473 | 12.43912 | 90° | 20km/h | 19801m | -14.2m/s | -53.3°C | 3.6% | 60.3hPa | 2.7V | 08:22:00 | 00:00:00 | 00:00:00 | |
| BAUMI2-15 | 2026-09-02 12:34:44 | 48.15473 | 12.43895 | 93° | 20km/h | 19829m | -14.1m/s | -53.5°C | 3.7% | 60.0hPa | 2.7V | 00:00:00 | 02:05:15 | 00:00:00 | |
| DO3MHA-11 | 2026-09-02 12:34:41 | 48.15476 | 12.43872 | 106° | 22km/h | 19871m | -14.2m/s | -53.6°C | 3.7% | 59.6hPa | 2.7V | 00:00:00 | 02:05:12 | 00:00:00 | |
| OE5WHR-10 | 2026-09-02 12:34:38 | 48.15482 | 12.43849 | 117° | 15km/h | 19915m | -14.9m/s | -53.7°C | 3.7% | 59.2hPa | 2.7V | 00:00:00 | 00:00:00 | 00:00:00 | |
| OE5MMP-10 | 2026-09-02 12:34:36 | 48.15487 | 12.43834 | 115° | 18km/h | 19944m | -14.3m/s | -53.8°C | 3.8% | 58.9hPa | 2.7V | 00:00:00 | 02:05:07 | 00:00:00 | |
| DG1MFX-10 | 2026-09-02 12:34:35 | 48.15487 | 12.43834 | 115° | 22km/h | 19944m | -14.4m/s | -53.9°C | 1.0% | 59.0hPa | 2.7V | 08:22:00 | 00:00:00 | 00:00:00 | |
| DO3MHA-11 | 2026-09-02 12:34:31 | 48.15495 | 12.43799 | 99° | 13km/h | 20016m | -14.5m/s | -54.0°C | 3.8% | 58.3hPa | 2.7V | 00:00:00 | 02:05:02 | 00:00:00 | |
| OE3JTB-15 | 2026-09-02 12:34:30 | 48.15497 | 12.43780 | 101° | 7km/h | 20060m | -15.0m/s | -53.7°C | 3.7% | 57.9hPa | 2.7V | 00:00:00 | 02:04:59 | 00:00:00 | |
| OE5DRO-10 | 2026-09-02 12:34:27 | 48.15498 | 12.43775 | 100° | 9km/h | 20075m | -15.2m/s | -53.7°C | 3.7% | 57.8hPa | 2.7V | 00:00:00 | 00:00:00 | 00:00:00 | |
| OE5DXL-15 | 2026-09-02 12:34:25 | 48.15499 | 12.43767 | 103° | 7km/h | 20105m | -14.3m/s | -53.7°C | 3.8% | 57.5hPa | 2.7V | 00:00:00 | 00:00:00 | 00:00:00 | |
| DO3MHA-11 | 2026-09-02 12:34:21 | 48.15497 | 12.43756 | 70° | 11km/h | 20164m | -14.8m/s | -53.2°C | 3.6% | 57.0hPa | 2.7V | 00:00:00 | 02:04:52 | 00:00:00 | |
| OE5WHR-10 | 2026-09-02 12:34:17 | 48.15500 | 12.43746 | 132° | 7km/h | 20223m | -14.5m/s | -53.5°C | 3.6% | 56.4hPa | 2.7V | 00:00:00 | 02:04:48 | 00:00:00 | |
| OE5MMP-10 | 2026-09-02 12:34:15 | 48.15505 | 12.43740 | 150° | 11km/h | 20252m | -14.7m/s | -53.7°C | 3.6% | 56.2hPa | 2.7V | 00:00:00 | 02:04:46 | 00:00:00 | |
| DG1MFX-10 | 2026-09-02 12:34:14 | 48.15505 | 12.43740 | 151° | 15km/h | 20252m | -14.8m/s | -53.7°C | 1.0% | 56.2hPa | 2.7V | 08:23:00 | 00:00:00 | 00:00:00 | |
| DF7PN | 2026-09-02 12:34:12 | 48.15516 | 12.43732 | 174° | 9km/h | 20312m | -14.8m/s | -54.1°C | 1.0% | 55.7hPa | 2.7V | 00:00:00 | 00:00:00 | 00:00:00 | |
| DO3MHA-11 | 2026-09-02 12:34:11 | 48.15516 | 12.43732 | 175° | 5km/h | 20312m | -14.8m/s | -54.1°C | 3.8% | 55.7hPa | 2.7V | 00:00:00 | 02:04:42 | 00:00:00 | |
| OE5DRO-10 | 2026-09-02 12:34:08 | 48.15523 | 12.43732 | 181° | 5km/h | 20355m | -14.5m/s | -54.0°C | 3.8% | 55.3hPa | 2.7V | 00:00:00 | 00:00:00 | 00:00:00 | |
| OE5MMP-10 | 2026-09-02 12:34:05 | 48.15528 | 12.43733 | 190° | 4km/h | 20399m | -14.1m/s | -53.6°C | 3.6% | 54.9hPa | 2.7V | 00:00:00 | 02:04:36 | 00:00:00 | |
| DO3MHA-11 | 2026-09-02 12:34:00 | 48.15532 | 12.43730 | 102° | 9km/h | 20472m | -15.4m/s | -53.9°C | 3.7% | 54.3hPa | 2.7V | 00:00:00 | 02:04:31 | 00:00:00 | |
| OE5WHR-10 | 2026-09-02 12:33:56 | 48.15530 | 12.43729 | 25° | 16km/h | 20533m | -15.3m/s | -54.3°C | 3.9% | 53.8hPa | 2.7V | 08:23:00 | 00:00:00 | 00:00:00 | |
| OE5MMP-10 | 2026-09-02 12:33:55 | 48.15529 | 12.43729 | 14° | 9km/h | 20547m | -15.0m/s | -54.3°C | 3.9% | 53.6hPa | 2.7V | 08:23:00 | 02:04:26 | 00:00:00 | |
| DG1MFX-10 | 2026-09-02 12:33:54 | 48.15528 | 12.43729 | 14° | 4km/h | 20547m | -15.1m/s | -54.4°C | 1.0% | 53.7hPa | 2.7V | 08:23:00 | 00:00:00 | 00:00:00 | |
| OE5DRO-10 | 2026-09-02 12:33:49 | 48.15517 | 12.43727 | 39° | 11km/h | 20636m | -15.0m/s | -54.7°C | 4.1% | 52.9hPa | 2.7V | 00:00:00 | 00:00:00 | 00:00:00 | |
| DO3MHA-11 | 2026-09-02 12:33:46 | 48.15512 | 12.43716 | 77° | 18km/h | 20682m | -15.1m/s | -54.4°C | 4.0% | 52.5hPa | 2.7V | 00:00:00 | 02:04:17 | 00:00:00 | |
| OE5MMP-10 | 2026-09-02 12:33:45 | 48.15512 | 12.43711 | 84° | 26km/h | 20697m | -15.5m/s | -54.4°C | 4.0% | 52.4hPa | 2.7V | 00:00:00 | 02:04:16 | 00:00:00 | |
| DF7PN | 2026-09-02 12:33:41 | 48.15517 | 12.43668 | 109° | 29km/h | 20773m | -15.6m/s | -54.1°C | -1.0% | 51.9hPa | 2.7V | 00:00:00 | 00:00:00 | 00:00:00 | |
| OE5MMP-10 | 2026-09-02 12:33:35 | 48.15532 | 12.43619 | 124° | 22km/h | 20850m | -15.3m/s | -53.7°C | 3.9% | 51.2hPa | 2.7V | 00:00:00 | 02:04:06 | 00:00:00 | |
| DG1MFX-10 | 2026-09-02 12:33:33 | 48.15536 | 12.43611 | 126° | 26km/h | 20865m | -15.6m/s | -53.8°C | 1.0% | 51.1hPa | 2.7V | 08:24:00 | 00:00:00 | 00:00:00 | |
| DO3MHA-11 | 2026-09-02 12:33:23 | 48.15566 | 12.43549 | 133° | 9km/h | 21036m | -15.2m/s | -53.3°C | 3.7% | 49.7hPa | 2.7V | 00:00:00 | 02:03:54 | 00:00:00 | |
| OE5MMP-10 | 2026-09-02 12:33:15 | 48.15573 | 12.43535 | 100° | 7km/h | 21162m | -15.8m/s | -52.3°C | 3.4% | 48.7hPa | 2.7V | 00:00:00 | 02:03:46 | 00:00:00 | |
| OE5WHR-10 | 2026-09-02 12:33:14 | 48.15573 | 12.43534 | 74° | 11km/h | 21178m | -16.1m/s | -52.4°C | 3.4% | 48.6hPa | 2.7V | 00:00:00 | 02:03:45 | 00:00:00 | |
| DG1MFX-10 | 2026-09-02 12:33:13 | 48.15573 | 12.43534 | 75° | 4km/h | 21178m | -16.1m/s | -52.4°C | 0.9% | 48.6hPa | 2.7V | 08:24:00 | 00:00:00 | 00:00:00 | |
| DO3MHA-11 | 2026-09-02 12:33:03 | 48.15552 | 12.43526 | 23° | 9km/h | 21356m | -15.7m/s | -53.5°C | 3.8% | 47.3hPa | 2.7V | 00:00:00 | 02:03:34 | 00:00:00 | |
| OE5DXL-15 | 2026-09-02 12:32:55 | 48.15533 | 12.43491 | 49° | 15km/h | 21486m | -16.6m/s | -52.5°C | 3.5% | 46.4hPa | 2.7V | 00:00:00 | 00:00:00 | 00:00:00 | |
| OE5WHR-10 | 2026-09-02 12:32:54 | 48.15529 | 12.43481 | 64° | 16km/h | 21518m | -16.5m/s | -52.7°C | 3.6% | 46.1hPa | 2.7V | 00:00:00 | 00:00:00 | 00:00:00 | |
| DG1MFX-10 | 2026-09-02 12:32:52 | 48.15528 | 12.43481 | 65° | 16km/h | 21518m | -16.5m/s | -52.7°C | 0.9% | 46.2hPa | 2.7V | 08:24:00 | 00:00:00 | 00:00:00 | |
| OE5DRO-10 | 2026-09-02 12:32:44 | 48.15540 | 12.43441 | 149° | 13km/h | 21668m | -16.4m/s | -52.7°C | 3.6% | 45.1hPa | 2.7V | 00:00:00 | 00:00:00 | 00:00:00 | |
| DF7PN | 2026-09-02 12:32:38 | 48.15569 | 12.43414 | 145° | 15km/h | 21786m | -17.1m/s | -52.6°C | -1.0% | 44.3hPa | 2.7V | 00:00:00 | 00:00:00 | 00:00:00 | |
| BAUMI2-15 | 2026-09-02 12:32:37 | 48.15569 | 12.43414 | 146° | 13km/h | 21786m | -17.0m/s | -52.5°C | 3.5% | 44.2hPa | 2.7V | 00:00:00 | 02:03:08 | 00:00:00 | |
| OE5WHR-10 | 2026-09-02 12:32:32 | 48.15578 | 12.43394 | 109° | 9km/h | 21869m | -16.6m/s | -52.8°C | 3.6% | 43.7hPa | 2.7V | 00:00:00 | 00:00:00 | 00:00:00 | |
| DG1MFX-10 | 2026-09-02 12:32:31 | 48.15578 | 12.43394 | 109° | 11km/h | 21869m | -16.7m/s | -52.9°C | 0.9% | 43.7hPa | 2.7V | 08:25:00 | 00:00:00 | 00:00:00 | |
| BAUMI2-15 | 2026-09-02 12:32:27 | 48.15584 | 12.43374 | 132° | 9km/h | 21953m | -16.8m/s | -52.9°C | 3.6% | 43.1hPa | 2.7V | 00:00:00 | 02:02:58 | 00:00:00 | |
| OE5DXL-15 | 2026-09-02 12:32:25 | 48.15588 | 12.43368 | 141° | 9km/h | 21987m | -16.5m/s | -52.7°C | 3.6% | 42.8hPa | 2.7V | 00:00:00 | 00:00:00 | 00:00:00 | |
| OE5DRO-10 | 2026-09-02 12:32:23 | 48.15592 | 12.43363 | 149° | 9km/h | 22021m | -16.9m/s | -52.4°C | 3.5% | 42.6hPa | 2.7V | 00:00:00 | 00:00:00 | 00:00:00 | |
| BAUMI2-15 | 2026-09-02 12:32:22 | 48.15594 | 12.43362 | 156° | 5km/h | 22038m | -16.7m/s | -52.4°C | 3.5% | 42.5hPa | 2.7V | 00:00:00 | 02:02:53 | 00:00:00 | |
| BAUMI2-15 | 2026-09-02 12:32:17 | 48.15601 | 12.43359 | 185° | 9km/h | 22123m | -17.1m/s | -52.5°C | 3.5% | 41.9hPa | 2.7V | 00:00:00 | 02:02:48 | 00:00:00 | |
| BAUMI2-15 | 2026-09-02 12:32:12 | 48.15612 | 12.43358 | 182° | 13km/h | 22209m | -17.1m/s | -52.8°C | 3.6% | 41.4hPa | 2.7V | 08:24:00 | 02:02:43 | 00:00:00 | |
| OE5WHR-10 | 2026-09-02 12:32:11 | 48.15615 | 12.43358 | 187° | 7km/h | 22226m | -17.1m/s | -52.8°C | 3.6% | 41.3hPa | 2.7V | 00:00:00 | 02:02:42 | 00:00:00 | |
| DG1MFX-10 | 2026-09-02 12:32:10 | 48.15615 | 12.43358 | 188° | 13km/h | 22226m | -17.1m/s | -52.9°C | 0.9% | 41.3hPa | 2.7V | 08:25:00 | 00:00:00 | 00:00:00 | |
| BAUMI2-15 | 2026-09-02 12:32:07 | 48.15627 | 12.43362 | 206° | 9km/h | 22296m | -17.4m/s | -53.0°C | 3.7% | 40.8hPa | 2.7V | 00:00:00 | 02:02:38 | 00:00:00 | |
| OE5DRO-10 | 2026-09-02 12:32:04 | 48.15631 | 12.43369 | 258° | 5km/h | 22347m | -17.0m/s | -52.8°C | 3.6% | 40.5hPa | 2.7V | 00:00:00 | 00:00:00 | 00:00:00 | |
| BAUMI2-15 | 2026-09-02 12:32:02 | 48.15631 | 12.43374 | 283° | 7km/h | 22381m | -17.1m/s | -52.2°C | 3.4% | 40.3hPa | 2.7V | 00:00:00 | 02:02:33 | 00:00:00 | |
| BAUMI2-15 | 2026-09-02 12:31:57 | 48.15627 | 12.43387 | 274° | 5km/h | 22467m | -16.6m/s | -52.4°C | 3.5% | 39.7hPa | 2.7V | 00:00:00 | 02:02:28 | 00:00:00 | |
| OE5DXL-15 | 2026-09-02 12:31:55 | 48.15627 | 12.43392 | 275° | 4km/h | 22499m | -16.1m/s | -52.3°C | 3.4% | 39.5hPa | 2.7V | 08:25:00 | 00:00:00 | 00:00:00 | |
| DO3MHA-11 | 2026-09-02 12:31:54 | 48.15627 | 12.43394 | 249° | 2km/h | 22516m | -16.4m/s | -52.3°C | 3.4% | 39.4hPa | 2.7V | 08:25:00 | 02:02:25 | 00:00:00 | |
| BAUMI2-15 | 2026-09-02 12:31:51 | 48.15629 | 12.43398 | 215° | 2km/h | 22566m | -17.6m/s | -52.4°C | 3.4% | 39.1hPa | 2.7V | 00:00:00 | 02:02:22 | 00:00:00 | |
| OE5WHR-10 | 2026-09-02 12:31:50 | 48.15629 | 12.43399 | 152° | 4km/h | 22584m | -17.7m/s | -52.4°C | 3.4% | 39.0hPa | 2.7V | 00:00:00 | 00:00:00 | 00:00:00 | |
| DG1MFX-10 | 2026-09-02 12:31:49 | 48.15629 | 12.43399 | 0° | 0km/h | 22584m | -17.7m/s | -52.4°C | 0.9% | 39.0hPa | 2.7V | 08:26:00 | 00:00:00 | 00:00:00 | |
| BAUMI2-15 | 2026-09-02 12:31:46 | 48.15629 | 12.43398 | 204° | 2km/h | 22654m | -17.8m/s | -52.6°C | 3.5% | 38.6hPa | 2.7V | 00:00:00 | 02:02:17 | 00:00:00 | |
| OE5DRO-10 | 2026-09-02 12:31:45 | 48.15629 | 12.43398 | 81° | 5km/h | 22672m | -17.7m/s | -52.7°C | 3.5% | 38.4hPa | 2.7V | 00:00:00 | 00:00:00 | 00:00:00 | |
| DO3MHA-11 | 2026-09-02 12:31:44 | 48.15629 | 12.43397 | 118° | 4km/h | 22690m | -18.2m/s | -52.8°C | 3.6% | 38.4hPa | 2.7V | 00:00:00 | 02:02:15 | 00:00:00 | |
| BAUMI2-15 | 2026-09-02 12:31:41 | 48.15631 | 12.43394 | 151° | 4km/h | 22743m | -17.2m/s | -53.0°C | 3.7% | 38.0hPa | 2.7V | 00:00:00 | 02:02:12 | 00:00:00 | |
| BAUMI2-15 | 2026-09-02 12:31:36 | 48.15635 | 12.43391 | 149° | 7km/h | 22828m | -17.4m/s | -52.7°C | 3.5% | 37.5hPa | 2.7V | 00:00:00 | 02:02:07 | 00:00:00 | |
| DO3MHA-11 | 2026-09-02 12:31:34 | 48.15638 | 12.43388 | 151° | 5km/h | 22862m | -17.3m/s | -52.8°C | 3.5% | 37.3hPa | 2.7V | 00:00:00 | 02:02:05 | 00:00:00 | |
| BAUMI2-15 | 2026-09-02 12:31:31 | 48.15643 | 12.43385 | 165° | 4km/h | 22915m | -17.4m/s | -52.9°C | 3.6% | 37.0hPa | 2.7V | 00:00:00 | 02:02:02 | 00:00:00 | |
| DG1MFX-10 | 2026-09-02 12:31:30 | 48.15644 | 12.43384 | 136° | 5km/h | 22932m | -17.7m/s | -52.9°C | 0.9% | 37.0hPa | 2.7V | 08:26:00 | 00:00:00 | 00:00:00 | |
| OE5WHR-10 | 2026-09-02 12:31:29 | 48.15645 | 12.43383 | 168° | 9km/h | 22950m | -17.3m/s | -52.8°C | 3.6% | 36.8hPa | 2.7V | 00:00:00 | 00:00:00 | 00:00:00 | |
| BAUMI2-15 | 2026-09-02 12:31:26 | 48.15646 | 12.43383 | 189° | 4km/h | 23001m | -17.5m/s | -52.8°C | 3.6% | 36.5hPa | 2.7V | 08:25:00 | 02:01:57 | 00:00:00 | |
| OE5DXL-15 | 2026-09-02 12:31:25 | 48.15647 | 12.43384 | 250° | 15km/h | 23018m | -17.3m/s | -52.9°C | 3.6% | 36.4hPa | 2.7V | 00:00:00 | 00:00:00 | 00:00:00 | |
| DO3MHA-11 | 2026-09-02 12:31:24 | 48.15647 | 12.43386 | 268° | 9km/h | 23036m | -17.3m/s | -52.9°C | 3.6% | 36.3hPa | 2.7V | 00:00:00 | 02:01:55 | 00:00:00 | |
| BAUMI2-15 | 2026-09-02 12:31:21 | 48.15647 | 12.43393 | 287° | 9km/h | 23088m | -18.1m/s | -53.0°C | 3.7% | 36.0hPa | 2.7V | 00:00:00 | 02:01:52 | 00:00:00 | |
| BAUMI2-15 | 2026-09-02 12:31:16 | 48.15641 | 12.43408 | 326° | 13km/h | 23174m | -17.4m/s | -53.4°C | 3.9% | 35.5hPa | 2.7V | 00:00:00 | 02:01:47 | 00:00:00 | |
| DO3MHA-11 | 2026-09-02 12:31:11 | 48.15627 | 12.43418 | 347° | 15km/h | 23257m | -16.8m/s | -53.3°C | 3.9% | 35.0hPa | 2.7V | 00:00:00 | 02:01:42 | 00:00:00 | |
| OE5WHR-10 | 2026-09-02 12:31:08 | 48.15617 | 12.43417 | 12° | 18km/h | 23309m | -18.4m/s | -53.2°C | 3.9% | 34.8hPa | 2.7V | 00:00:00 | 02:01:39 | 00:00:00 | |
| OE5DRO-10 | 2026-09-02 12:31:07 | 48.15614 | 12.43416 | 27° | 15km/h | 23327m | -18.7m/s | -52.9°C | 3.8% | 34.7hPa | 2.7V | 00:00:00 | 00:00:00 | 08:30:00 | |
| BAUMI2-15 | 2026-09-02 12:31:06 | 48.15610 | 12.43413 | 32° | 18km/h | 23346m | -18.7m/s | -52.7°C | 3.7% | 34.6hPa | 2.7V | 00:00:00 | 02:01:37 | 00:00:00 | |
| DF7PN | 2026-09-02 12:31:05 | 48.15580 | 12.43345 | 58° | 18km/h | 23545m | -18.8m/s | -52.0°C | -1.0% | 33.6hPa | 2.7V | 00:00:00 | 00:00:00 | 00:00:00 | |
| BAUMI2-15 | 2026-09-02 12:30:56 | 48.15582 | 12.43351 | 70° | 18km/h | 23527m | -18.5m/s | -52.0°C | 3.4% | 33.6hPa | 2.7V | 00:00:00 | 02:01:27 | 00:00:00 | |
| OE5DXL-15 | 2026-09-02 12:30:55 | 48.15580 | 12.43345 | 59° | 13km/h | 23545m | -18.7m/s | -52.0°C | 3.5% | 33.5hPa | 2.7V | 00:00:00 | 00:00:00 | 00:00:00 | |
| DG1MFX-10 | 2026-09-02 12:30:48 | 48.15573 | 12.43311 | 88° | 16km/h | 23656m | -18.7m/s | -52.2°C | 0.9% | 33.0hPa | 2.7V | 08:26:00 | 00:00:00 | 00:00:00 | |
| OE5WHR-10 | 2026-09-02 12:30:47 | 48.15573 | 12.43301 | 88° | 11km/h | 23692m | -18.6m/s | -52.2°C | 3.6% | 32.8hPa | 2.7V | 08:26:00 | 00:00:00 | 00:00:00 | |
| BAUMI2-15 | 2026-09-02 12:30:46 | 48.15572 | 12.43294 | 84° | 9km/h | 23729m | -18.3m/s | -52.3°C | 3.6% | 32.6hPa | 2.7V | 00:00:00 | 02:01:16 | 00:00:00 | |
| DG1MFX-10 | 2026-09-02 12:30:28 | 48.15534 | 12.43251 | 77° | 11km/h | 24015m | -18.4m/s | -51.7°C | 0.9% | 31.2hPa | 2.7V | 08:26:00 | 00:00:00 | 00:00:00 | |
| OE5MMP-10 | 2026-09-02 12:30:26 | 48.15532 | 12.43241 | 62° | 5km/h | 24072m | -18.9m/s | -51.2°C | 3.4% | 30.9hPa | 2.7V | 00:00:00 | 02:00:57 | 00:00:00 | |
| OE5MMP-10 | 2026-09-02 12:30:16 | 48.15530 | 12.43221 | 129° | 7km/h | 24251m | -17.7m/s | -51.0°C | 3.4% | 30.0hPa | 2.7V | 00:00:00 | 02:00:47 | 00:00:00 | |
| DG1MFX-10 | 2026-09-02 12:30:07 | 48.15539 | 12.43210 | 153° | 7km/h | 24396m | -18.8m/s | -50.5°C | 0.8% | 29.4hPa | 2.7V | 08:27:00 | 00:00:00 | 00:00:00 | |
| OE5MMP-10 | 2026-09-02 12:30:06 | 48.15543 | 12.43206 | 137° | 15km/h | 24432m | -18.8m/s | -50.4°C | 3.2% | 29.2hPa | 2.7V | 00:00:00 | 02:00:37 | 00:00:00 | |
| OE5WHR-10 | 2026-09-02 12:30:05 | 48.15545 | 12.43203 | 147° | 13km/h | 24451m | -18.7m/s | -50.3°C | 3.2% | 29.1hPa | 2.7V | 00:00:00 | 02:00:36 | 00:00:00 | |
| OE3JTB-15 | 2026-09-02 12:30:00 | 48.15571 | 12.43192 | 191° | 13km/h | 24595m | -18.7m/s | -50.6°C | 3.3% | 28.4hPa | 2.7V | 00:00:00 | 00:00:00 | 00:00:00 | |
| OE5MMP-10 | 2026-09-02 12:29:56 | 48.15576 | 12.43192 | 181° | 11km/h | 24614m | -18.5m/s | -50.6°C | 3.3% | 28.4hPa | 2.7V | 00:00:00 | 02:00:27 | 00:00:00 | |
| OE5DXL-15 | 2026-09-02 12:29:55 | 48.15581 | 12.43193 | 191° | 9km/h | 24632m | -19.0m/s | -50.5°C | 3.3% | 28.3hPa | 2.7V | 00:00:00 | 00:00:00 | 00:00:00 | |
| DG1MFX-10 | 2026-09-02 12:29:47 | 48.15600 | 12.43201 | 250° | 2km/h | 24764m | -19.1m/s | -50.5°C | 0.8% | 27.7hPa | 2.7V | 08:27:00 | 00:00:00 | 00:00:00 | |
| OE5MMP-10 | 2026-09-02 12:29:46 | 48.15600 | 12.43204 | 275° | 7km/h | 24802m | -18.8m/s | -50.3°C | 3.3% | 27.5hPa | 2.7V | 08:27:00 | 02:00:17 | 00:00:00 | |
| OE5WHR-10 | 2026-09-02 12:29:44 | 48.15600 | 12.43209 | 286° | 7km/h | 24839m | -18.5m/s | -50.1°C | 3.3% | 27.4hPa | 2.7V | 00:00:00 | 00:00:00 | 00:00:00 | |
| OE5MMP-10 | 2026-09-02 12:29:36 | 48.15598 | 12.43230 | 314° | 9km/h | 24986m | -18.3m/s | -49.8°C | 3.1% | 26.7hPa | 2.7V | 00:00:00 | 02:00:07 | 00:00:00 | |
| DF7PN | 2026-09-02 12:29:33 | 48.15590 | 12.43232 | 2° | 11km/h | 25061m | -19.8m/s | -50.2°C | -1.0% | 26.5hPa | 2.7V | 00:00:00 | 00:00:00 | 00:00:00 | |
| OE5MMP-10 | 2026-09-02 12:29:26 | 48.15575 | 12.43233 | 7° | 4km/h | 25173m | -19.4m/s | -49.9°C | 3.2% | 26.0hPa | 2.7V | 00:00:00 | 01:59:57 | 00:00:00 | |
| OE5DXL-15 | 2026-09-02 12:29:25 | 48.15575 | 12.43232 | 94° | 9km/h | 25192m | -18.9m/s | -49.8°C | 3.2% | 25.9hPa | 2.7V | 00:00:00 | 00:00:00 | 00:00:00 | |
| OE5HKT-10 | 2026-09-02 12:29:24 | 48.15575 | 12.43231 | 83° | 7km/h | 25211m | -19.4m/s | -49.8°C | 3.2% | 25.8hPa | 2.7V | 00:00:00 | 00:00:00 | 00:00:00 | |
| OE5WHR-10 | 2026-09-02 12:29:23 | 48.15575 | 12.43230 | 128° | 7km/h | 25230m | -19.2m/s | -49.7°C | 3.2% | 25.8hPa | 2.7V | 00:00:00 | 00:00:00 | 00:00:00 | |
| OE5MMP-10 | 2026-09-02 12:29:16 | 48.15572 | 12.43227 | 323° | 9km/h | 25364m | -19.3m/s | -49.5°C | 3.1% | 25.2hPa | 2.7V | 00:00:00 | 01:59:47 | 00:00:00 | |
| OE5MMP-10 | 2026-09-02 12:29:06 | 48.15576 | 12.43258 | 192° | 11km/h | 25556m | -19.4m/s | -49.7°C | 3.2% | 24.5hPa | 2.7V | 00:00:00 | 01:59:37 | 00:00:00 | |
| DG1MFX-10 | 2026-09-02 12:29:05 | 48.15577 | 12.43258 | 193° | 4km/h | 25556m | -19.4m/s | -49.8°C | 0.8% | 24.6hPa | 2.7V | 08:28:00 | 00:00:00 | 00:00:00 | |
| DF7PN | 2026-09-02 12:29:01 | 48.15572 | 12.43260 | 339° | 13km/h | 25650m | -19.0m/s | 0°C | -1.0% | -1.0hPa | 2.7V | 00:00:00 | 00:00:00 | 00:00:00 | |
| OE5HKT-10 | 2026-09-02 12:29:00 | 48.15568 | 12.43262 | 333° | 11km/h | 25668m | -18.0m/s | -49.9°C | 3.2% | 24.0hPa | 2.7V | 00:00:00 | 01:59:31 | 00:00:00 | |
| OE5MMP-10 | 2026-09-02 12:28:56 | 48.15556 | 12.43277 | 298° | 9km/h | 25744m | -19.2m/s | -49.8°C | 3.3% | 23.8hPa | 2.7V | 00:00:00 | 01:59:27 | 00:00:00 | |
| OE5DXL-15 | 2026-09-02 12:28:55 | 48.15555 | 12.43281 | 303° | 11km/h | 25763m | -18.9m/s | -49.8°C | 3.3% | 23.7hPa | 2.7V | 00:00:00 | 00:00:00 | 00:00:00 | |
| DG1MFX-10 | 2026-09-02 12:28:46 | 48.15536 | 12.43282 | 361° | 15km/h | 25941m | -20.1m/s | -49.2°C | 0.7% | 23.1hPa | 2.7V | 08:28:00 | 00:00:00 | 00:00:00 | |
| DO3MHA-11 | 2026-09-02 12:28:42 | 48.15528 | 12.43292 | 269° | 13km/h | 26017m | -18.2m/s | -48.9°C | 3.1% | 22.8hPa | 2.7V | 00:00:00 | 01:59:13 | 00:00:00 | |
| OE5WHR-10 | 2026-09-02 12:28:41 | 48.15529 | 12.43296 | 252° | 11km/h | 26035m | -19.2m/s | -48.9°C | 3.1% | 22.7hPa | 2.7V | 00:00:00 | 00:00:00 | 00:00:00 | |
| OE5HKT-10 | 2026-09-02 12:28:39 | 48.15532 | 12.43303 | 210° | 11km/h | 26073m | -19.1m/s | -49.0°C | 3.1% | 22.6hPa | 2.7V | 00:00:00 | 00:00:00 | 00:00:00 | |
| OE5MMP-10 | 2026-09-02 12:28:36 | 48.15543 | 12.43310 | 207° | 13km/h | 26132m | -19.9m/s | -48.9°C | 3.1% | 22.4hPa | 2.7V | 00:00:00 | 01:59:07 | 00:00:00 | |
| BAUMI2-15 | 2026-09-02 12:28:34 | 48.15548 | 12.43316 | 217° | 11km/h | 26170m | -18.8m/s | -48.8°C | 3.1% | 22.2hPa | 2.7V | 00:00:00 | 01:59:05 | 00:00:00 | |
| DO3MHA-11 | 2026-09-02 12:28:32 | 48.15551 | 12.43322 | 259° | 11km/h | 26209m | -19.5m/s | -48.8°C | 3.1% | 22.1hPa | 2.7V | 00:00:00 | 01:59:03 | 00:00:00 | |
| BAUMI2-15 | 2026-09-02 12:28:29 | 48.15552 | 12.43335 | 260° | 13km/h | 26268m | -19.4m/s | -49.0°C | 3.2% | 21.9hPa | 2.7V | 00:00:00 | 01:59:00 | 00:00:00 | |
| OE5MMP-10 | 2026-09-02 12:28:26 | 48.15553 | 12.43351 | 265° | 11km/h | 26324m | -19.2m/s | -48.9°C | 3.3% | 21.7hPa | 2.7V | 00:00:00 | 01:58:57 | 00:00:00 | |
| OE5DXL-15 | 2026-09-02 12:28:25 | 48.15553 | 12.43354 | 272° | 9km/h | 26342m | -18.0m/s | -48.7°C | 3.2% | 21.6hPa | 2.7V | 00:00:00 | 00:00:00 | 00:00:00 | |
| BAUMI2-15 | 2026-09-02 12:28:24 | 48.15553 | 12.43358 | 280° | 9km/h | 26361m | -19.1m/s | -48.4°C | 3.1% | 21.6hPa | 2.7V | 00:00:00 | 01:58:55 | 00:00:00 | |
| DO3MHA-11 | 2026-09-02 12:28:22 | 48.15551 | 12.43363 | 298° | 9km/h | 26398m | -18.8m/s | -48.1°C | 3.0% | 21.5hPa | 2.7V | 00:00:00 | 01:58:53 | 00:00:00 | |
| OE5WHR-10 | 2026-09-02 12:28:20 | 48.15547 | 12.43366 | 340° | 11km/h | 26436m | -18.5m/s | -48.1°C | 3.0% | 21.3hPa | 2.7V | 00:00:00 | 00:00:00 | 00:00:00 | |
| BAUMI2-15 | 2026-09-02 12:28:19 | 48.15543 | 12.43368 | 344° | 18km/h | 26454m | -18.9m/s | -48.0°C | 2.9% | 21.3hPa | 2.7V | 00:00:00 | 01:58:50 | 00:00:00 | |
| OE5HKT-10 | 2026-09-02 12:28:17 | 48.15536 | 12.43372 | 329° | 9km/h | 26494m | -21.0m/s | -47.7°C | 2.9% | 21.2hPa | 2.7V | 00:00:00 | 00:00:00 | 00:00:00 | |
| OE5MMP-10 | 2026-09-02 12:28:16 | 48.15532 | 12.43377 | 316° | 13km/h | 26515m | -21.8m/s | -47.7°C | 2.9% | 21.1hPa | 2.7V | 08:28:00 | 01:58:47 | 00:00:00 | |
| BAUMI2-15 | 2026-09-02 12:28:14 | 48.15528 | 12.43390 | 287° | 13km/h | 26562m | -24.0m/s | -47.7°C | 2.9% | 20.9hPa | 2.7V | 00:00:00 | 01:58:45 | 00:00:00 | |
| BAUMI2-15 | 2026-09-02 12:28:09 | 48.15523 | 12.43411 | 351° | 7km/h | 26674m | -23.4m/s | -48.0°C | 3.2% | 20.6hPa | 2.7V | 00:00:00 | 01:58:40 | 00:00:00 | |
| OE5MMP-10 | 2026-09-02 12:28:06 | 48.15519 | 12.43408 | 67° | 4km/h | 26748m | -25.0m/s | -48.1°C | 3.1% | 20.3hPa | 2.7V | 00:00:00 | 01:58:37 | 00:00:00 | |
| BAUMI2-15 | 2026-09-02 12:28:04 | 48.15517 | 12.43407 | 12° | 4km/h | 26813m | -42.7m/s | -47.8°C | 3.1% | 20.3hPa | 2.7V | 00:00:00 | 01:58:35 | 00:00:00 | |
| DG1MFX-10 | 2026-09-02 12:28:03 | 48.15517 | 12.43407 | 12° | 2km/h | 26813m | -42.8m/s | -47.8°C | 0.7% | 20.3hPa | 2.7V | 08:29:00 | 00:00:00 | 00:00:00 | |
| OE5WHR-10 | 2026-09-02 12:27:59 | 48.15514 | 12.43411 | 345° | 7km/h | 27017m | -38.9m/s | -48.0°C | 3.2% | 19.6hPa | 2.7V | 00:00:00 | 01:58:30 | 00:00:00 | |
| DO3MHA-11 | 2026-09-02 12:27:57 | 48.15512 | 12.43410 | 17° | 18km/h | 27098m | -40.7m/s | -47.8°C | 3.2% | 19.4hPa | 2.7V | 00:00:00 | 01:58:28 | 08:30:00 | |
| OE5HKT-10 | 2026-09-02 12:27:56 | 48.15510 | 12.43409 | 24° | 7km/h | 27138m | -39.8m/s | -47.6°C | 3.2% | 19.3hPa | 2.7V | 00:00:00 | 01:58:27 | 00:00:00 | |
| OE5DXL-15 | 2026-09-02 12:27:55 | 48.15508 | 12.43408 | 29° | 7km/h | 27177m | -39.2m/s | -47.5°C | 3.1% | 19.2hPa | 2.7V | 00:00:00 | 00:00:00 | 00:00:00 | |
| BAUMI2-15 | 2026-09-02 12:27:54 | 48.15506 | 12.43405 | 50° | 11km/h | 27216m | -38.5m/s | -47.4°C | 3.1% | 19.0hPa | 2.7V | 08:29:00 | 01:58:25 | 00:00:00 | |
| BAUMI2-15 | 2026-09-02 12:27:49 | 48.15499 | 12.43390 | 80° | 7km/h | 27392m | -34.0m/s | -46.4°C | 3.0% | 18.5hPa | 2.7V | 00:00:00 | 01:58:20 | 00:00:00 | |
| OE5MMP-10 | 2026-09-02 12:27:46 | 48.15499 | 12.43382 | 97° | 4km/h | 27489m | -33.6m/s | -45.5°C | 2.8% | 18.2hPa | 2.7V | 00:00:00 | 01:58:17 | 00:00:00 | |
| BAUMI2-15 | 2026-09-02 12:27:44 | 48.15499 | 12.43378 | 87° | 4km/h | 27555m | -33.5m/s | -45.4°C | 2.8% | 18.0hPa | 2.7V | 00:00:00 | 01:58:15 | 00:00:00 | |
| DG1MFX-10 | 2026-09-02 12:27:42 | 48.15499 | 12.43377 | 0° | 0km/h | 27588m | -32.5m/s | -45.3°C | 0.6% | 18.0hPa | 2.7V | 08:29:00 | 00:00:00 | 00:00:00 | |
| DL6DJ-15 | 2026-09-02 12:27:41 | 48.15496 | 12.43376 | 31° | 5km/h | 27722m | -33.6m/s | 0°C | -1.0% | -1.0hPa | 2.7V | 00:00:00 | 00:00:00 | 00:00:00 | |
| BAUMI2-15 | 2026-09-02 12:27:39 | 48.15496 | 12.43376 | 32° | 5km/h | 27722m | -33.5m/s | -45.0°C | 2.7% | 17.6hPa | 2.7V | 00:00:00 | 01:58:10 | 00:00:00 | |
| OE5WHR-10 | 2026-09-02 12:27:38 | 48.15495 | 12.43375 | 28° | 7km/h | 27755m | -33.6m/s | -44.9°C | 2.7% | 17.5hPa | 2.7V | 08:29:00 | 00:00:00 | 00:00:00 | |
| OE5MMP-10 | 2026-09-02 12:27:36 | 48.15492 | 12.43374 | 345° | 5km/h | 27822m | -33.6m/s | -44.7°C | 2.6% | 17.3hPa | 2.7V | 00:00:00 | 01:58:07 | 00:00:00 | |
| OE5HKT-10 | 2026-09-02 12:27:34 | 48.15490 | 12.43376 | 321° | 16km/h | 27890m | -34.4m/s | -44.6°C | 2.7% | 17.1hPa | 2.7V | 00:00:00 | 00:00:00 | 00:00:00 | |
| BAUMI2-15 | 2026-09-02 12:27:29 | 48.15484 | 12.43386 | 303° | 7km/h | 28062m | -34.5m/s | -44.1°C | 2.6% | 16.7hPa | 2.7V | 00:00:00 | 01:58:00 | 00:00:00 | |
| OE5REO-15 | 2026-09-02 12:27:27 | 48.15483 | 12.43388 | 303° | 7km/h | 28096m | -35.1m/s | -44.0°C | 0.5% | 16.6hPa | 2.7V | 00:00:00 | 00:00:00 | 00:00:00 | |
| OE5MMP-10 | 2026-09-02 12:27:26 | 48.15481 | 12.43392 | 299° | 9km/h | 28169m | -39.2m/s | -43.7°C | 2.5% | 16.4hPa | 2.7V | 00:00:00 | 01:57:57 | 00:00:00 | |
| OE5DXL-15 | 2026-09-02 12:27:25 | 48.15480 | 12.43394 | 318° | 15km/h | 28210m | -43.0m/s | -43.6°C | 2.5% | 16.3hPa | 2.7V | 00:00:00 | 00:00:00 | 08:30:00 | |
| BAUMI2-15 | 2026-09-02 12:27:24 | 48.15478 | 12.43395 | 348° | 7km/h | 28253m | -44.5m/s | -43.5°C | 2.4% | 16.3hPa | 2.7V | 00:00:00 | 01:57:55 | 00:00:00 | |
| DG1MFX-10 | 2026-09-02 12:27:21 | 48.15476 | 12.43397 | 3° | 7km/h | 28340m | -43.2m/s | -43.3°C | 0.5% | 16.1hPa | 2.7V | 00:00:00 | 00:00:00 | 00:00:00 | |
| BAUMI2-15 | 2026-09-02 12:27:19 | 48.15470 | 12.43394 | 23° | 15km/h | 28465m | -41.8m/s | -43.3°C | 2.5% | 15.7hPa | 2.7V | 00:00:00 | 01:57:50 | 00:00:00 | |
| OE5WHR-10 | 2026-09-02 12:27:17 | 48.15464 | 12.43390 | 38° | 18km/h | 28545m | -38.4m/s | -43.4°C | 2.5% | 15.5hPa | 2.7V | 00:00:00 | 00:00:00 | 00:00:00 | |
| OE5MMP-10 | 2026-09-02 12:27:16 | 48.15462 | 12.43386 | 44° | 18km/h | 28582m | -37.2m/s | -43.5°C | 2.5% | 15.4hPa | 2.7V | 00:00:00 | 01:57:47 | 00:00:00 | |
| BAUMI2-15 | 2026-09-02 12:27:14 | 48.15455 | 12.43377 | 43° | 20km/h | 28656m | -38.2m/s | -43.6°C | 2.6% | 15.2hPa | 2.7V | 00:00:00 | 01:57:45 | 00:00:00 | |
| BAUMI2-15 | 2026-09-02 12:27:09 | 48.15437 | 12.43351 | 41° | 15km/h | 28862m | -46.2m/s | -43.0°C | 2.4% | 14.8hPa | 2.7V | 00:00:00 | 01:57:40 | 08:30:00 | |
| OE5MMP-10 | 2026-09-02 12:27:06 | 48.15429 | 12.43338 | 49° | 18km/h | 28997m | -43.7m/s | -42.6°C | 2.3% | 14.5hPa | 2.7V | 00:00:00 | 01:57:37 | 00:00:00 | |
| BAUMI2-15 | 2026-09-02 12:27:04 | 48.15425 | 12.43330 | 55° | 16km/h | 29087m | -47.9m/s | -42.3°C | 2.3% | 14.3hPa | 2.7V | 00:00:00 | 01:57:35 | 00:00:00 | |
| DG1MFX-10 | 2026-09-02 12:27:00 | 48.15417 | 12.43317 | 42° | 16km/h | 29232m | -47.3m/s | -41.8°C | 0.5% | 14.0hPa | 2.7V | 00:00:00 | 00:00:00 | 00:00:00 | |
| BAUMI2-15 | 2026-09-02 12:26:59 | 48.15410 | 12.43307 | 47° | 22km/h | 29326m | -47.5m/s | -41.7°C | 2.2% | 13.8hPa | 2.7V | 00:00:00 | 01:57:30 | 00:00:00 | |
| OE5WHR-10 | 2026-09-02 12:26:56 | 48.15399 | 12.43286 | 59° | 33km/h | 29472m | -50.2m/s | -41.9°C | 2.2% | 13.5hPa | 2.7V | 00:00:00 | 01:57:27 | 00:00:00 | |
| OE5DXL-15 | 2026-09-02 12:26:55 | 48.15397 | 12.43279 | 63° | 31km/h | 29523m | -50.8m/s | -42.1°C | 2.2% | 13.4hPa | 2.7V | 00:00:00 | 00:00:00 | 00:00:00 | |
| BAUMI2-15 | 2026-09-02 12:26:54 | 48.15395 | 12.43271 | 68° | 22km/h | 29574m | -51.3m/s | -42.1°C | 2.2% | 13.3hPa | 2.7V | 00:00:00 | 01:57:25 | 00:00:00 | |
| BAUMI2-15 | 2026-09-02 12:26:49 | 48.15384 | 12.43233 | 60° | 40km/h | 29824m | -48.2m/s | -42.1°C | 2.2% | 12.7hPa | 2.7V | 00:00:00 | 01:57:20 | 00:00:00 | |
| BAUMI2-15 | 2026-09-02 12:26:44 | 48.15354 | 12.43169 | 51° | 42km/h | 30052m | -43.4m/s | -42.3°C | 2.2% | 12.3hPa | 2.7V | 00:00:00 | 01:57:15 | 00:00:00 | |
| OE5REO-15 | 2026-09-02 12:26:41 | 48.15341 | 12.43141 | 61° | 42km/h | 30138m | -44.0m/s | -42.6°C | 0.4% | 12.2hPa | 2.7V | 00:00:00 | 00:00:00 | 00:00:00 | |
| DG1MFX-10 | 2026-09-02 12:26:40 | 48.15335 | 12.43128 | 61° | 40km/h | 30181m | -40.7m/s | -42.7°C | 0.5% | 12.1hPa | 2.7V | 00:00:00 | 00:00:00 | 00:00:00 | |
| OE5WHR-10 | 2026-09-02 12:26:35 | 48.15327 | 12.43063 | 102° | 27km/h | 30336m | -6.0m/s | -42.4°C | 2.3% | 11.6hPa | 2.7V | 00:00:00 | 00:00:00 | 00:00:00 | |
| DO3MHA-11 | 2026-09-02 12:26:28 | 48.15331 | 12.42986 | 92° | 27km/h | 30304m | 6.4m/s | -42.5°C | 2.2% | 11.7hPa | 2.7V | 00:00:00 | 01:56:59 | 00:00:00 | |
| OE5DXL-15 | 2026-09-02 12:26:25 | 48.15330 | 12.42956 | 81° | 27km/h | 30287m | 5.8m/s | -42.8°C | 2.3% | 11.7hPa | 2.7V | 00:00:00 | 00:00:00 | 00:00:00 | |
| OE5REO-15 | 2026-09-02 12:26:23 | 48.15329 | 12.42947 | 74° | 26km/h | 30281m | 6.8m/s | -42.9°C | 0.5% | 11.8hPa | 2.7V | 00:00:00 | 00:00:00 | 00:00:00 | |
| DG1MFX-10 | 2026-09-02 12:26:19 | 48.15321 | 12.42909 | 86° | 24km/h | 30258m | 6.6m/s | -42.7°C | 0.5% | 11.8hPa | 2.7V | 00:00:00 | 00:00:00 | 00:00:00 | |
| DO3MHA-11 | 2026-09-02 12:26:15 | 48.15325 | 12.42858 | 90° | 29km/h | 30229m | 5.4m/s | -42.5°C | 2.3% | 11.8hPa | 2.7V | 00:00:00 | 01:56:46 | 00:00:00 | |
| OE5WHR-10 | 2026-09-02 12:26:14 | 48.15325 | 12.42845 | 87° | 27km/h | 30224m | 5.1m/s | -42.6°C | 2.4% | 11.8hPa | 2.7V | 00:00:00 | 00:00:00 | 00:00:00 | |
| OE5REO-15 | 2026-09-02 12:26:07 | 48.15319 | 12.42785 | 75° | 27km/h | 30190m | 6.4m/s | -42.7°C | 0.5% | 11.9hPa | 2.7V | 00:00:00 | 00:00:00 | 00:00:00 | |
| DO3MHA-11 | 2026-09-02 12:26:05 | 48.15312 | 12.42754 | 72° | 27km/h | 30174m | 5.9m/s | -42.8°C | 2.3% | 11.9hPa | 2.7V | 00:00:00 | 01:56:36 | 00:00:00 | |
| OE5MMP-10 | 2026-09-02 12:26:02 | 48.15306 | 12.42727 | 69° | 31km/h | 30157m | 5.3m/s | -42.9°C | 2.4% | 12.0hPa | 2.7V | 00:00:00 | 01:56:33 | 08:30:00 | |
| DG1MFX-10 | 2026-09-02 12:25:58 | 48.15297 | 12.42698 | 68° | 31km/h | 30139m | 5.3m/s | -42.7°C | 0.5% | 12.1hPa | 2.7V | 00:00:00 | 00:00:00 | 00:00:00 | |
| OE5DXL-15 | 2026-09-02 12:25:55 | 48.15291 | 12.42654 | 85° | 29km/h | 30116m | 5.0m/s | -42.7°C | 2.4% | 12.0hPa | 2.7V | 00:00:00 | 00:00:00 | 00:00:00 | |
| OE5WHR-10 | 2026-09-02 12:25:53 | 48.15288 | 12.42630 | 74° | 29km/h | 30104m | 6.4m/s | -42.7°C | 2.3% | 12.1hPa | 2.7V | 00:00:00 | 01:56:24 | 00:00:00 | |
| OE5REO-15 | 2026-09-02 12:25:52 | 48.15288 | 12.42630 | 75° | 35km/h | 30104m | 6.4m/s | -42.8°C | 0.5% | 12.1hPa | 2.7V | 00:00:00 | 00:00:00 | 00:00:00 | |
| OE5MMP-10 | 2026-09-02 12:25:48 | 48.15272 | 12.42579 | 61° | 31km/h | 30075m | 5.0m/s | -42.6°C | 2.3% | 12.1hPa | 2.7V | 00:00:00 | 01:56:19 | 00:00:00 | |
| OE8JPQ-2 | 2026-09-02 12:25:42 | 48.15255 | 12.42523 | 80° | 31km/h | 30041m | 6.6m/s | -42.3°C | 2.3% | 12.2hPa | 2.7V | 00:00:00 | 00:00:00 | 00:00:00 | |
| DG1MFX-10 | 2026-09-02 12:25:38 | 48.15251 | 12.42492 | 75° | 31km/h | 30025m | 6.1m/s | -42.5°C | 0.5% | 12.3hPa | 2.7V | 00:00:00 | 00:00:00 | 00:00:00 | |
| OE5REO-15 | 2026-09-02 12:25:35 | 48.15238 | 12.42457 | 52° | 37km/h | 30008m | 4.1m/s | -42.3°C | 0.4% | 12.3hPa | 2.7V | 00:00:00 | 00:00:00 | 00:00:00 | |
| OE5MMP-10 | 2026-09-02 12:25:33 | 48.15219 | 12.42425 | 52° | 27km/h | 29986m | 5.2m/s | -42.4°C | 2.3% | 12.3hPa | 2.7V | 00:00:00 | 01:56:03 | 00:00:00 | |
| OE5WHR-10 | 2026-09-02 12:25:32 | 48.15219 | 12.42425 | 52° | 27km/h | 29986m | 5.2m/s | -42.4°C | 2.3% | 12.3hPa | 2.7V | 00:00:00 | 00:00:00 | 00:00:00 | |
| OE5DXL-15 | 2026-09-02 12:25:25 | 48.15195 | 12.42363 | 60° | 31km/h | 29948m | 6.0m/s | -42.3°C | 2.2% | 12.4hPa | 2.7V | 00:00:00 | 00:00:00 | 00:00:00 | |
| OE5MMP-10 | 2026-09-02 12:25:22 | 48.15183 | 12.42335 | 54° | 29km/h | 29931m | 5.0m/s | -42.4°C | 2.3% | 12.4hPa | 2.7V | 00:00:00 | 01:55:53 | 00:00:00 | |
| OE8JPQ-2 | 2026-09-02 12:25:20 | 48.15174 | 12.42320 | 44° | 33km/h | 29920m | 6.6m/s | -42.3°C | 2.2% | 12.4hPa | 2.7V | 00:00:00 | 01:55:51 | 00:00:00 | |
| OE5REO-15 | 2026-09-02 12:25:19 | 48.15174 | 12.42320 | 45° | 31km/h | 29920m | 6.6m/s | -42.4°C | 0.4% | 12.5hPa | 2.7V | 00:00:00 | 00:00:00 | 00:00:00 | |
| OE5HKT-10 | 2026-09-02 12:25:17 | 48.15156 | 12.42294 | 48° | 31km/h | 29904m | 5.6m/s | -42.6°C | 2.3% | 12.5hPa | 2.7V | 00:00:00 | 00:00:00 | 00:00:00 | |
| OE5MMP-10 | 2026-09-02 12:25:12 | 48.15139 | 12.42249 | 64° | 33km/h | 29876m | 6.2m/s | -42.6°C | 2.3% | 12.5hPa | 2.7V | 00:00:00 | 01:55:43 | 00:00:00 | |
| DO3MHA-11 | 2026-09-02 12:25:06 | 48.15107 | 12.42190 | 43° | 26km/h | 29842m | 5.1m/s | -42.9°C | 2.3% | 12.6hPa | 2.7V | 00:00:00 | 01:55:37 | 00:00:00 | |
| OE5MMP-10 | 2026-09-02 12:25:02 | 48.15087 | 12.42156 | 56° | 35km/h | 29820m | 5.2m/s | -42.9°C | 2.3% | 12.6hPa | 2.7V | 00:00:00 | 01:55:33 | 00:00:00 | |
| DG1MFX-10 | 2026-09-02 12:24:57 | 48.15069 | 12.42099 | 68° | 31km/h | 29792m | 5.2m/s | -43.0°C | 0.5% | 12.7hPa | 2.7V | 00:00:00 | 00:00:00 | 00:00:00 | |
| OE5HKT-10 | 2026-09-02 12:24:56 | 48.15066 | 12.42088 | 64° | 22km/h | 29786m | 6.4m/s | -43.0°C | 2.4% | 12.7hPa | 2.7V | 00:00:00 | 01:55:27 | 00:00:00 | |
| OE5DXL-15 | 2026-09-02 12:24:55 | 48.15061 | 12.42077 | 58° | 24km/h | 29780m | 5.6m/s | -42.8°C | 2.4% | 12.7hPa | 2.7V | 00:00:00 | 00:00:00 | 00:00:00 | |
| OE8JPQ-2 | 2026-09-02 12:24:53 | 48.15051 | 12.42056 | 51° | 26km/h | 29770m | 5.6m/s | -42.9°C | 2.4% | 12.7hPa | 2.7V | 00:00:00 | 00:00:00 | 00:00:00 | |
| OE5MMP-10 | 2026-09-02 12:24:52 | 48.15046 | 12.42047 | 47° | 26km/h | 29764m | 6.6m/s | -43.0°C | 2.4% | 12.7hPa | 2.7V | 00:00:00 | 01:55:23 | 00:00:00 | |
| OE5WHR-10 | 2026-09-02 12:24:50 | 48.15037 | 12.42034 | 41° | 24km/h | 29752m | 5.5m/s | -43.1°C | 2.4% | 12.7hPa | 2.7V | 00:00:00 | 01:55:21 | 00:00:00 | |
| DO3MHA-11 | 2026-09-02 12:24:46 | 48.15019 | 12.42005 | 55° | 27km/h | 29730m | 5.1m/s | -43.2°C | 2.4% | 12.8hPa | 2.7V | 00:00:00 | 01:55:17 | 00:00:00 | |
| OE5MMP-10 | 2026-09-02 12:24:42 | 48.15005 | 12.41973 | 52° | 22km/h | 29707m | 5.1m/s | -43.0°C | 2.4% | 12.8hPa | 2.7V | 00:00:00 | 01:55:13 | 00:00:00 | |
| BAUMI2-15 | 2026-09-02 12:24:38 | 48.14983 | 12.41945 | 38° | 18km/h | 29684m | 5.4m/s | -42.8°C | 2.3% | 12.9hPa | 2.7V | 00:00:00 | 01:55:09 | 00:00:00 | |
| DO3MHA-11 | 2026-09-02 12:24:36 | 48.14975 | 12.41934 | 45° | 18km/h | 29672m | 5.3m/s | -42.7°C | 2.3% | 12.9hPa | 2.7V | 00:00:00 | 01:55:07 | 00:00:00 | |
| OE5REO-15 | 2026-09-02 12:24:35 | 48.14975 | 12.41934 | 45° | 16km/h | 29672m | 5.4m/s | -42.8°C | 0.5% | 13.0hPa | 2.7V | 00:00:00 | 00:00:00 | 00:00:00 | |
| OE5HKT-10 | 2026-09-02 12:24:33 | 48.14969 | 12.41919 | 70° | 15km/h | 29656m | 6.2m/s | -42.9°C | 2.4% | 12.9hPa | 2.7V | 00:00:00 | 00:00:00 | 08:30:00 | |
| OE5MMP-10 | 2026-09-02 12:24:32 | 48.14967 | 12.41912 | 72° | 20km/h | 29650m | 5.3m/s | -43.0°C | 2.4% | 13.0hPa | 2.7V | 00:00:00 | 01:55:03 | 00:00:00 | |
| OE5WHR-10 | 2026-09-02 12:24:29 | 48.14963 | 12.41891 | 71° | 15km/h | 29633m | 5.7m/s | -42.6°C | 2.4% | 13.0hPa | 2.7V | 00:00:00 | 00:00:00 | 08:30:00 | |
| BAUMI2-15 | 2026-09-02 12:24:28 | 48.14961 | 12.41885 | 57° | 20km/h | 29627m | 5.0m/s | -42.7°C | 2.3% | 13.0hPa | 2.7V | 00:00:00 | 01:54:59 | 00:00:00 | |
| DO3MHA-11 | 2026-09-02 12:24:26 | 48.14954 | 12.41878 | 23° | 15km/h | 29616m | 7.0m/s | -42.8°C | 2.4% | 13.0hPa | 2.7V | 00:00:00 | 01:54:57 | 00:00:00 | |
| OE5DXL-15 | 2026-09-02 12:24:25 | 48.14949 | 12.41875 | 16° | 15km/h | 29609m | 6.3m/s | -42.7°C | 2.4% | 13.0hPa | 2.7V | 00:00:00 | 00:00:00 | 00:00:00 | |
| OE5MMP-10 | 2026-09-02 12:24:22 | 48.14930 | 12.41870 | 7° | 11km/h | 29594m | 6.2m/s | -42.8°C | 2.4% | 13.1hPa | 2.7V | 00:00:00 | 01:54:53 | 08:30:00 | |
| BAUMI2-15 | 2026-09-02 12:24:18 | 48.14925 | 12.41865 | 100° | 13km/h | 29571m | 6.0m/s | -42.9°C | 2.4% | 13.1hPa | 2.7V | 00:00:00 | 01:54:49 | 00:00:00 | |
| DO3MHA-11 | 2026-09-02 12:24:16 | 48.14924 | 12.41858 | 75° | 16km/h | 29559m | 4.9m/s | -42.7°C | 2.4% | 13.1hPa | 2.7V | 00:00:00 | 01:54:47 | 00:00:00 | |
| DG1MFX-10 | 2026-09-02 12:24:15 | 48.14924 | 12.41858 | 76° | 13km/h | 29559m | 4.9m/s | -42.7°C | 0.5% | 13.2hPa | 2.7V | 00:00:00 | 00:00:00 | 00:00:00 | |
| BAUMI2-15 | 2026-09-02 12:24:13 | 48.14920 | 12.41844 | 57° | 15km/h | 29543m | 6.1m/s | -42.6°C | 2.3% | 13.2hPa | 2.7V | 00:00:00 | 01:54:44 | 00:00:00 | |
| OE5HKT-10 | 2026-09-02 12:24:12 | 48.14918 | 12.41840 | 47° | 15km/h | 29538m | 5.2m/s | -42.7°C | 2.3% | 13.2hPa | 2.7V | 00:00:00 | 00:00:00 | 00:00:00 | |
| OE5WHR-10 | 2026-09-02 12:24:08 | 48.14904 | 12.41830 | 20° | 16km/h | 29515m | 5.3m/s | -42.7°C | 2.4% | 13.2hPa | 2.7V | 00:00:00 | 00:00:00 | 00:00:00 | |
| DO3MHA-11 | 2026-09-02 12:24:06 | 48.14893 | 12.41825 | 14° | 15km/h | 29505m | 5.7m/s | -42.4°C | 2.3% | 13.3hPa | 2.7V | 00:00:00 | 01:54:37 | 08:30:00 | |
| BAUMI2-15 | 2026-09-02 12:24:03 | 48.14885 | 12.41822 | 39° | 15km/h | 29488m | 4.8m/s | -42.3°C | 2.3% | 13.3hPa | 2.7V | 00:00:00 | 01:54:34 | 00:00:00 | |
| OE5MMP-10 | 2026-09-02 12:24:02 | 48.14884 | 12.41820 | 58° | 18km/h | 29483m | 5.9m/s | -42.3°C | 2.3% | 13.3hPa | 2.7V | 00:00:00 | 01:54:33 | 00:00:00 | |
| BAUMI2-15 | 2026-09-02 12:23:58 | 48.14876 | 12.41797 | 62° | 20km/h | 29460m | 6.2m/s | -42.4°C | 2.3% | 13.4hPa | 2.7V | 00:00:00 | 01:54:29 | 00:00:00 | |
| OE5REO-15 | 2026-09-02 12:23:57 | 48.14876 | 12.41797 | 63° | 20km/h | 29460m | 6.2m/s | -42.5°C | 0.5% | 13.4hPa | 2.7V | 00:00:00 | 00:00:00 | 00:00:00 | |
| OE5DXL-15 | 2026-09-02 12:23:55 | 48.14867 | 12.41780 | 38° | 20km/h | 29443m | 4.8m/s | -42.1°C | 2.3% | 13.4hPa | 2.7V | 00:00:00 | 00:00:00 | 00:00:00 | |
| OE5MMP-10 | 2026-09-02 12:23:52 | 48.14854 | 12.41766 | 36° | 20km/h | 29425m | 5.4m/s | -42.1°C | 2.3% | 13.4hPa | 2.7V | 00:00:00 | 01:54:23 | 00:00:00 | |
| OE5HKT-10 | 2026-09-02 12:23:50 | 48.14846 | 12.41757 | 47° | 15km/h | 29414m | 6.6m/s | -42.2°C | 2.2% | 13.4hPa | 2.7V | 00:00:00 | 01:54:21 | 00:00:00 | |
| BAUMI2-15 | 2026-09-02 12:23:48 | 48.14843 | 12.41748 | 84° | 20km/h | 29403m | 4.6m/s | -42.3°C | 2.3% | 13.5hPa | 2.7V | 00:00:00 | 01:54:19 | 00:00:00 | |
| OE5WHR-10 | 2026-09-02 12:23:47 | 48.14843 | 12.41742 | 87° | 22km/h | 29398m | 4.4m/s | -42.3°C | 2.3% | 13.5hPa | 2.7V | 00:00:00 | 01:54:18 | 00:00:00 | |
| BAUMI2-15 | 2026-09-02 12:23:44 | 48.14833 | 12.41711 | 48° | 24km/h | 29376m | 4.7m/s | -42.1°C | 2.2% | 13.5hPa | 2.7V | 00:00:00 | 01:54:14 | 00:00:00 | |
| OE5MMP-10 | 2026-09-02 12:23:42 | 48.14828 | 12.41704 | 42° | 24km/h | 29371m | 6.0m/s | -42.2°C | 2.2% | 13.5hPa | 2.7V | 00:00:00 | 01:54:13 | 00:00:00 | |
| BAUMI2-15 | 2026-09-02 12:23:38 | 48.14810 | 12.41684 | 40° | 24km/h | 29349m | 4.8m/s | -42.3°C | 2.2% | 13.6hPa | 2.7V | 00:00:00 | 01:54:09 | 08:30:00 | |
| DG1MFX-10 | 2026-09-02 12:23:34 | 48.14799 | 12.41665 | 56° | 27km/h | 29331m | 5.6m/s | -42.3°C | 0.5% | 13.7hPa | 2.7V | 00:00:00 | 00:00:00 | 00:00:00 | |
| BAUMI2-15 | 2026-09-02 12:23:33 | 48.14792 | 12.41648 | 59° | 18km/h | 29320m | 6.1m/s | -42.2°C | 2.3% | 13.6hPa | 2.7V | 00:00:00 | 01:54:04 | 00:00:00 | |
| OE5MMP-10 | 2026-09-02 12:23:32 | 48.14788 | 12.41641 | 58° | 16km/h | 29314m | 6.3m/s | -42.2°C | 2.3% | 13.6hPa | 2.7V | 00:00:00 | 01:54:03 | 00:00:00 | |
| BAUMI2-15 | 2026-09-02 12:23:28 | 48.14776 | 12.41623 | 28° | 16km/h | 29290m | 5.4m/s | -42.6°C | 2.3% | 13.7hPa | 2.7V | 00:00:00 | 01:53:59 | 00:00:00 | |
| OE5WHR-10 | 2026-09-02 12:23:26 | 48.14768 | 12.41618 | 15° | 15km/h | 29279m | 5.7m/s | -42.7°C | 2.3% | 13.7hPa | 2.7V | 00:00:00 | 00:00:00 | 00:00:00 | |
| OE5DXL-15 | 2026-09-02 12:23:25 | 48.14764 | 12.41617 | 10° | 16km/h | 29273m | 6.5m/s | -42.7°C | 2.3% | 13.7hPa | 2.7V | 00:00:00 | 00:00:00 | 00:00:00 | |
| BAUMI2-15 | 2026-09-02 12:23:23 | 48.14758 | 12.41615 | 26° | 20km/h | 29263m | 4.5m/s | -42.6°C | 2.3% | 13.7hPa | 2.7V | 00:00:00 | 01:53:54 | 00:00:00 | |
| OE5MMP-10 | 2026-09-02 12:23:22 | 48.14755 | 12.41612 | 37° | 18km/h | 29257m | 6.2m/s | -42.6°C | 2.3% | 13.8hPa | 2.7V | 00:00:00 | 01:53:53 | 00:00:00 | |
| BAUMI2-15 | 2026-09-02 12:23:18 | 48.14740 | 12.41586 | 57° | 15km/h | 29234m | 5.9m/s | -42.7°C | 2.3% | 13.8hPa | 2.7V | 00:00:00 | 01:53:49 | 00:00:00 | |
| BAUMI2-15 | 2026-09-02 12:23:13 | 48.14729 | 12.41565 | 34° | 13km/h | 29205m | 6.0m/s | -42.7°C | 2.3% | 13.9hPa | 2.7V | 00:00:00 | 01:53:44 | 00:00:00 | |
| OE5MMP-10 | 2026-09-02 12:23:12 | 48.14726 | 12.41562 | 27° | 16km/h | 29200m | 5.0m/s | -42.7°C | 2.3% | 13.9hPa | 2.7V | 00:00:00 | 01:53:43 | 00:00:00 | |
| BAUMI2-15 | 2026-09-02 12:23:08 | 48.14715 | 12.41556 | 33° | 18km/h | 29177m | 4.6m/s | -42.8°C | 2.3% | 13.9hPa | 2.7V | 00:00:00 | 01:53:39 | 00:00:00 | |
| OE5HKT-10 | 2026-09-02 12:23:07 | 48.14713 | 12.41553 | 49° | 20km/h | 29172m | 5.0m/s | -42.8°C | 2.3% | 14.0hPa | 2.7V | 00:00:00 | 00:00:00 | 00:00:00 | |
| OE5WHR-10 | 2026-09-02 12:23:05 | 48.14708 | 12.41542 | 61° | 20km/h | 29160m | 6.0m/s | -43.0°C | 2.4% | 14.0hPa | 2.7V | 00:00:00 | 00:00:00 | 00:00:00 | |
| BAUMI2-15 | 2026-09-02 12:23:03 | 48.14701 | 12.41523 | 65° | 20km/h | 29150m | 4.4m/s | -42.8°C | 2.3% | 14.0hPa | 2.7V | 00:00:00 | 01:53:34 | 00:00:00 | |
| OE5MMP-10 | 2026-09-02 12:23:02 | 48.14699 | 12.41514 | 68° | 18km/h | 29145m | 5.9m/s | -42.8°C | 2.3% | 14.0hPa | 2.7V | 00:00:00 | 01:53:33 | 00:00:00 | |
| BAUMI2-15 | 2026-09-02 12:22:58 | 48.14692 | 12.41492 | 50° | 18km/h | 29123m | 4.8m/s | -42.9°C | 2.3% | 14.1hPa | 2.7V | 00:00:00 | 01:53:29 | 00:00:00 | |
| OE5DXL-15 | 2026-09-02 12:22:55 | 48.14683 | 12.41479 | 43° | 20km/h | 29105m | 5.6m/s | -43.1°C | 2.4% | 14.1hPa | 2.7V | 00:00:00 | 00:00:00 | 08:30:00 | |
| DO3MHA-11 | 2026-09-02 12:22:54 | 48.14678 | 12.41473 | 43° | 22km/h | 29100m | 5.2m/s | -43.1°C | 2.3% | 14.1hPa | 2.7V | 00:00:00 | 01:53:25 | 00:00:00 | |
| BAUMI2-15 | 2026-09-02 12:22:53 | 48.14674 | 12.41467 | 44° | 18km/h | 29094m | 5.9m/s | -43.0°C | 2.3% | 14.1hPa | 2.7V | 00:00:00 | 01:53:24 | 08:30:00 | |
| OE5MMP-10 | 2026-09-02 12:22:52 | 48.14670 | 12.41461 | 47° | 18km/h | 29088m | 5.8m/s | -42.9°C | 2.3% | 14.2hPa | 2.7V | 00:00:00 | 01:53:23 | 08:30:00 | |
| BAUMI2-15 | 2026-09-02 12:22:48 | 48.14658 | 12.41442 | 42° | 18km/h | 29065m | 6.7m/s | -43.1°C | 2.4% | 14.2hPa | 2.7V | 00:00:00 | 01:53:19 | 00:00:00 | |
| OE5HKT-10 | 2026-09-02 12:22:46 | 48.14651 | 12.41432 | 46° | 18km/h | 29054m | 5.1m/s | -43.2°C | 2.4% | 14.2hPa | 2.7V | 00:00:00 | 00:00:00 | 00:00:00 | |
| OE5WHR-10 | 2026-09-02 12:22:44 | 48.14645 | 12.41422 | 57° | 20km/h | 29041m | 5.6m/s | -42.9°C | 2.4% | 14.2hPa | 2.7V | 00:00:00 | 01:53:15 | 00:00:00 | |
| BAUMI2-15 | 2026-09-02 12:22:43 | 48.14643 | 12.41417 | 55° | 18km/h | 29036m | 4.8m/s | -42.9°C | 2.4% | 14.3hPa | 2.7V | 00:00:00 | 01:53:14 | 00:00:00 | |
| OE5MMP-10 | 2026-09-02 12:22:42 | 48.14640 | 12.41411 | 49° | 20km/h | 29031m | 5.7m/s | -42.9°C | 2.3% | 14.3hPa | 2.7V | 00:00:00 | 01:53:13 | 00:00:00 | |
| DO3MHA-11 | 2026-09-02 12:22:36 | 48.14613 | 12.41381 | 32° | 18km/h | 28995m | 5.1m/s | -43.2°C | 2.4% | 14.3hPa | 2.7V | 00:00:00 | 01:53:07 | 00:00:00 | |
| OE5MMP-10 | 2026-09-02 12:22:32 | 48.14597 | 12.41366 | 33° | 20km/h | 28972m | 5.4m/s | -43.0°C | 2.4% | 14.4hPa | 2.7V | 00:00:00 | 01:53:03 | 00:00:00 | |
| DG1MFX-10 | 2026-09-02 12:22:31 | 48.14597 | 12.41366 | 34° | 22km/h | 28972m | 5.5m/s | -43.1°C | 0.5% | 14.4hPa | 2.7V | 00:00:00 | 00:00:00 | 00:00:00 | |
| DO3MHA-11 | 2026-09-02 12:22:26 | 48.14575 | 12.41341 | 47° | 24km/h | 28937m | 6.8m/s | -43.3°C | 2.4% | 14.5hPa | 2.7V | 00:00:00 | 01:52:57 | 00:00:00 | |
| OE5DXL-15 | 2026-09-02 12:22:25 | 48.14572 | 12.41336 | 47° | 20km/h | 28931m | 6.0m/s | -43.4°C | 2.4% | 14.5hPa | 2.7V | 00:00:00 | 00:00:00 | 00:00:00 | |
| OE5WHR-10 | 2026-09-02 12:22:23 | 48.14563 | 12.41323 | 41° | 22km/h | 28919m | 5.9m/s | -43.3°C | 2.4% | 14.5hPa | 2.7V | 00:00:00 | 00:00:00 | 00:00:00 | |
| OE5MMP-10 | 2026-09-02 12:22:22 | 48.14559 | 12.41318 | 35° | 20km/h | 28913m | 6.3m/s | -43.3°C | 2.4% | 14.5hPa | 2.7V | 00:00:00 | 01:52:53 | 00:00:00 | |
| DO3MHA-11 | 2026-09-02 12:22:16 | 48.14530 | 12.41296 | 35° | 20km/h | 28878m | 5.5m/s | -43.5°C | 2.4% | 14.6hPa | 2.7V | 00:00:00 | 01:52:47 | 00:00:00 | |
| OE5MMP-10 | 2026-09-02 12:22:12 | 48.14517 | 12.41275 | 58° | 22km/h | 28854m | 6.0m/s | -43.4°C | 2.3% | 14.6hPa | 2.7V | 00:00:00 | 01:52:43 | 00:00:00 | |
| DG1MFX-10 | 2026-09-02 12:22:10 | 48.14514 | 12.41268 | 53° | 22km/h | 28848m | 6.4m/s | -43.4°C | 0.5% | 14.7hPa | 2.7V | 00:00:00 | 00:00:00 | 00:00:00 | |
| DO3MHA-11 | 2026-09-02 12:22:06 | 48.14492 | 12.41242 | 29° | 20km/h | 28819m | 5.4m/s | -43.5°C | 2.4% | 14.7hPa | 2.7V | 00:00:00 | 01:52:37 | 00:00:00 | |
| OE5MMP-10 | 2026-09-02 12:22:02 | 48.14472 | 12.41224 | 36° | 18km/h | 28797m | 4.9m/s | -43.6°C | 2.4% | 14.8hPa | 2.7V | 00:00:00 | 01:52:33 | 00:00:00 | |
| OE5HKT-10 | 2026-09-02 12:21:59 | 48.14462 | 12.41213 | 41° | 18km/h | 28778m | 5.3m/s | -43.8°C | 2.5% | 14.8hPa | 2.7V | 00:00:00 | 00:00:00 | 00:00:00 | |
| OE5DXL-15 | 2026-09-02 12:21:56 | 48.14449 | 12.41195 | 40° | 18km/h | 28755m | 5.0m/s | -44.1°C | 2.5% | 14.9hPa | 2.7V | 00:00:00 | 00:00:00 | 00:00:00 | |
| OE5MMP-10 | 2026-09-02 12:21:52 | 48.14437 | 12.41182 | 31° | 16km/h | 28737m | 5.8m/s | -44.1°C | 2.6% | 14.9hPa | 2.7V | 00:00:00 | 01:52:23 | 00:00:00 | |
| DG1MFX-10 | 2026-09-02 12:21:49 | 48.14430 | 12.41176 | 30° | 18km/h | 28725m | 6.6m/s | -44.0°C | 0.6% | 15.0hPa | 2.7V | 00:00:00 | 00:00:00 | 00:00:00 | |
| OE5MMP-10 | 2026-09-02 12:21:42 | 48.14397 | 12.41165 | 12° | 18km/h | 28680m | 6.8m/s | -43.4°C | 2.4% | 15.1hPa | 2.7V | 00:00:00 | 01:52:13 | 00:00:00 | |
| OE5WHR-10 | 2026-09-02 12:21:41 | 48.14392 | 12.41163 | 23° | 16km/h | 28673m | 5.7m/s | -43.5°C | 2.4% | 15.1hPa | 2.7V | 00:00:00 | 01:52:12 | 00:00:00 | |
| OE5HKT-10 | 2026-09-02 12:21:38 | 48.14377 | 12.41150 | 36° | 16km/h | 28655m | 6.5m/s | -43.6°C | 2.5% | 15.1hPa | 2.7V | 00:00:00 | 00:00:00 | 00:00:00 | |
| OE5MMP-10 | 2026-09-02 12:21:32 | 48.14361 | 12.41126 | 37° | 16km/h | 28620m | 4.8m/s | -43.5°C | 2.5% | 15.2hPa | 2.7V | 00:00:00 | 01:52:03 | 00:00:00 | |
| DG1MFX-10 | 2026-09-02 12:21:28 | 48.14351 | 12.41124 | 345° | 16km/h | 28602m | 5.8m/s | -43.4°C | 0.5% | 15.3hPa | 2.7V | 00:00:00 | 00:00:00 | 00:00:00 | |
| OE5DXL-15 | 2026-09-02 12:21:25 | 48.14333 | 12.41125 | 13° | 11km/h | 28578m | 5.9m/s | -43.3°C | 2.4% | 15.3hPa | 2.7V | 00:00:00 | 01:51:56 | 00:00:00 | |
| OE5WHR-10 | 2026-09-02 12:21:20 | 48.14319 | 12.41116 | 55° | 11km/h | 28548m | 6.6m/s | -43.0°C | 2.4% | 15.4hPa | 2.7V | 00:00:00 | 00:00:00 | 08:30:00 | |
| OE5REO-15 | 2026-09-02 12:21:19 | 48.14319 | 12.41116 | 55° | 13km/h | 28548m | 6.6m/s | -43.0°C | 0.5% | 15.4hPa | 2.7V | 00:00:00 | 00:00:00 | 00:00:00 | |
| OE5HKT-10 | 2026-09-02 12:21:16 | 48.14311 | 12.41110 | 325° | 13km/h | 28525m | 6.3m/s | -43.0°C | 2.3% | 15.4hPa | 2.7V | 00:00:00 | 01:51:47 | 00:00:00 | |
| OE5MMP-10 | 2026-09-02 12:21:12 | 48.14300 | 12.41124 | 340° | 9km/h | 28503m | 6.3m/s | -43.3°C | 2.4% | 15.5hPa | 2.7V | 00:00:00 | 01:51:43 | 00:00:00 | |
| DG1MFX-10 | 2026-09-02 12:21:08 | 48.14292 | 12.41122 | 36° | 9km/h | 28487m | 5.4m/s | -43.1°C | 0.5% | 15.6hPa | 2.7V | 00:00:00 | 00:00:00 | 00:00:00 | |
| OE5REO-15 | 2026-09-02 12:21:03 | 48.14285 | 12.41122 | 340° | 7km/h | 28457m | 6.8m/s | -43.4°C | 0.5% | 15.6hPa | 2.7V | 00:00:00 | 00:00:00 | 00:00:00 | |
| OE5MMP-10 | 2026-09-02 12:21:02 | 48.14280 | 12.41123 | 349° | 7km/h | 28445m | 4.7m/s | -43.3°C | 2.4% | 15.6hPa | 2.7V | 00:00:00 | 01:51:33 | 00:00:00 | |
| OE5WHR-10 | 2026-09-02 12:20:59 | 48.14274 | 12.41131 | 292° | 9km/h | 28428m | 6.3m/s | -43.0°C | 2.4% | 15.7hPa | 2.7V | 00:00:00 | 00:00:00 | 00:00:00 | |
| OE5HKT-10 | 2026-09-02 12:20:55 | 48.14273 | 12.41143 | 292° | 7km/h | 28404m | 5.5m/s | -43.0°C | 2.4% | 15.7hPa | 2.7V | 00:00:00 | 00:00:00 | 08:30:00 | |
| OE5MMP-10 | 2026-09-02 12:20:52 | 48.14271 | 12.41146 | 310° | 9km/h | 28387m | 5.8m/s | -42.8°C | 2.4% | 15.7hPa | 2.7V | 00:00:00 | 01:51:23 | 00:00:00 | |
| DG1MFX-10 | 2026-09-02 12:20:47 | 48.14264 | 12.41150 | 357° | 9km/h | 28363m | 5.1m/s | -43.0°C | 0.5% | 15.9hPa | 2.7V | 00:00:00 | 00:00:00 | 00:00:00 | |
| OE5MMP-10 | 2026-09-02 12:20:42 | 48.14260 | 12.41167 | 227° | 9km/h | 28328m | 6.3m/s | -43.1°C | 2.3% | 15.9hPa | 2.7V | 00:00:00 | 01:51:13 | 00:00:00 | |
| OE5WHR-10 | 2026-09-02 12:20:38 | 48.14268 | 12.41175 | 239° | 7km/h | 28306m | 5.4m/s | -43.1°C | 2.4% | 16.0hPa | 2.7V | 00:00:00 | 01:51:09 | 00:00:00 | |
| BAUMI2-15 | 2026-09-02 12:20:34 | 48.14261 | 12.41180 | 4° | 9km/h | 28278m | 5.0m/s | -43.2°C | 2.4% | 16.0hPa | 2.7V | 00:00:00 | 01:51:04 | 00:00:00 | |
| OE5MMP-10 | 2026-09-02 12:20:32 | 48.14258 | 12.41180 | 347° | 5km/h | 28272m | 6.5m/s | -43.3°C | 2.4% | 16.0hPa | 2.7V | 00:00:00 | 01:51:03 | 00:00:00 | |
| OE5HKT-10 | 2026-09-02 12:20:30 | 48.14256 | 12.41184 | 283° | 11km/h | 28260m | 5.3m/s | -43.4°C | 2.4% | 16.1hPa | 2.7V | 00:00:00 | 00:00:00 | 00:00:00 | |
| BAUMI2-15 | 2026-09-02 12:20:28 | 48.14256 | 12.41190 | 249° | 4km/h | 28249m | 6.5m/s | -43.4°C | 2.4% | 16.1hPa | 2.7V | 00:00:00 | 01:50:59 | 00:00:00 | |
| DG1MFX-10 | 2026-09-02 12:20:26 | 48.14256 | 12.41191 | 218° | 4km/h | 28242m | 5.9m/s | -43.3°C | 0.5% | 16.2hPa | 2.7V | 00:00:00 | 00:00:00 | 00:00:00 | |
| OE5DXL-15 | 2026-09-02 12:20:25 | 48.14257 | 12.41192 | 235° | 9km/h | 28231m | 5.5m/s | -43.2°C | 2.4% | 16.1hPa | 2.7V | 00:00:00 | 00:00:00 | 00:00:00 | |
| BAUMI2-15 | 2026-09-02 12:20:23 | 48.14257 | 12.41195 | 294° | 11km/h | 28220m | 5.6m/s | -43.3°C | 2.4% | 16.2hPa | 2.7V | 00:00:00 | 01:50:54 | 00:00:00 | |
| OE5MMP-10 | 2026-09-02 12:20:22 | 48.14256 | 12.41197 | 312° | 13km/h | 28214m | 4.8m/s | -43.3°C | 2.3% | 16.2hPa | 2.7V | 00:00:00 | 01:50:53 | 00:00:00 | |
| BAUMI2-15 | 2026-09-02 12:20:18 | 48.14244 | 12.41202 | 358° | 13km/h | 28192m | 4.8m/s | -43.3°C | 2.4% | 16.2hPa | 2.7V | 00:00:00 | 01:50:49 | 00:00:00 | |
| OE5WHR-10 | 2026-09-02 12:20:17 | 48.14241 | 12.41203 | 346° | 9km/h | 28187m | 5.9m/s | -43.3°C | 2.4% | 16.2hPa | 2.7V | 00:00:00 | 00:00:00 | 00:00:00 | |
| OE5MMP-10 | 2026-09-02 12:20:13 | 48.14231 | 12.41216 | 330° | 11km/h | 28158m | 5.9m/s | -43.3°C | 2.4% | 16.3hPa | 2.7V | 00:00:00 | 01:50:43 | 00:00:00 | |
| BAUMI2-15 | 2026-09-02 12:20:08 | 48.14224 | 12.41221 | 315° | 13km/h | 28136m | 6.3m/s | -43.7°C | 2.4% | 16.4hPa | 2.7V | 00:00:00 | 01:50:39 | 08:30:00 | |
| DG1MFX-10 | 2026-09-02 12:20:06 | 48.14220 | 12.41228 | 316° | 15km/h | 28125m | 4.9m/s | -43.8°C | 0.5% | 16.5hPa | 2.7V | 00:00:00 | 00:00:00 | 00:00:00 | |
| BAUMI2-15 | 2026-09-02 12:20:03 | 48.14211 | 12.41235 | 345° | 9km/h | 28108m | 4.9m/s | -43.7°C | 2.4% | 16.4hPa | 2.7V | 00:00:00 | 01:50:34 | 00:00:00 | |
| OE5MMP-10 | 2026-09-02 12:20:02 | 48.14208 | 12.41236 | 338° | 9km/h | 28103m | 5.7m/s | -43.6°C | 2.4% | 16.5hPa | 2.7V | 00:00:00 | 01:50:33 | 00:00:00 | |
| BAUMI2-15 | 2026-09-02 12:19:58 | 48.14205 | 12.41244 | 237° | 7km/h | 28080m | 6.6m/s | -43.4°C | 2.4% | 16.5hPa | 2.7V | 00:00:00 | 01:50:29 | 00:00:00 | |
| OE5WHR-10 | 2026-09-02 12:19:56 | 48.14207 | 12.41247 | 236° | 13km/h | 28069m | 4.9m/s | -43.4°C | 2.4% | 16.5hPa | 2.7V | 00:00:00 | 00:00:00 | 00:00:00 | |
| OE5DXL-15 | 2026-09-02 12:19:55 | 48.14207 | 12.41249 | 255° | 11km/h | 28064m | 6.0m/s | -43.5°C | 2.4% | 16.5hPa | 2.7V | 00:00:00 | 00:00:00 | 00:00:00 | |
| OE5DRO-10 | 2026-09-02 12:19:54 | 48.14208 | 12.41254 | 268° | 13km/h | 28057m | 6.1m/s | -43.5°C | 2.4% | 16.6hPa | 2.7V | 00:00:00 | 00:00:00 | 00:00:00 | |
| BAUMI2-15 | 2026-09-02 12:19:53 | 48.14207 | 12.41260 | 282° | 20km/h | 28052m | 4.6m/s | -43.7°C | 2.4% | 16.6hPa | 2.7V | 00:00:00 | 01:50:24 | 00:00:00 | |
| OE5MMP-10 | 2026-09-02 12:19:52 | 48.14206 | 12.41267 | 295° | 15km/h | 28047m | 4.6m/s | -43.8°C | 2.4% | 16.6hPa | 2.7V | 00:00:00 | 01:50:23 | 08:30:00 | |
| BAUMI2-15 | 2026-09-02 12:19:48 | 48.14190 | 12.41284 | 345° | 13km/h | 28025m | 5.0m/s | -43.9°C | 2.4% | 16.7hPa | 2.7V | 00:00:00 | 01:50:19 | 00:00:00 | |
| DG1MFX-10 | 2026-09-02 12:19:44 | 48.14182 | 12.41291 | 291° | 7km/h | 28009m | 4.8m/s | -43.8°C | 0.5% | 16.7hPa | 2.7V | 00:00:00 | 00:00:00 | 00:00:00 | |
| BAUMI2-15 | 2026-09-02 12:19:43 | 48.14183 | 12.41295 | 210° | 9km/h | 27998m | 6.5m/s | -43.8°C | 2.4% | 16.7hPa | 2.7V | 00:00:00 | 01:50:14 | 00:00:00 | |
| OE5MMP-10 | 2026-09-02 12:19:42 | 48.14185 | 12.41296 | 187° | 11km/h | 27991m | 6.1m/s | -43.8°C | 2.5% | 16.7hPa | 2.7V | 00:00:00 | 01:50:13 | 00:00:00 | |
| BAUMI2-15 | 2026-09-02 12:19:38 | 48.14193 | 12.41301 | 252° | 11km/h | 27970m | 5.7m/s | -44.1°C | 2.4% | 16.8hPa | 2.7V | 00:00:00 | 01:50:09 | 00:00:00 | |
| OE5WHR-10 | 2026-09-02 12:19:35 | 48.14190 | 12.41312 | 332° | 7km/h | 27955m | 5.6m/s | -44.3°C | 2.5% | 16.8hPa | 2.7V | 00:00:00 | 01:50:06 | 00:00:00 | |
| BAUMI2-15 | 2026-09-02 12:19:33 | 48.14185 | 12.41312 | 26° | 7km/h | 27945m | 4.7m/s | -44.2°C | 2.5% | 16.9hPa | 2.7V | 00:00:00 | 01:50:04 | 00:00:00 | |
| OE5MMP-10 | 2026-09-02 12:19:32 | 48.14182 | 12.41310 | 41° | 4km/h | 27940m | 4.9m/s | -44.2°C | 2.5% | 16.8hPa | 2.7V | 00:00:00 | 01:50:03 | 00:00:00 | |
| BAUMI2-15 | 2026-09-02 12:19:28 | 48.14180 | 12.41306 | 225° | 2km/h | 27917m | 5.1m/s | -44.3°C | 2.5% | 16.9hPa | 2.7V | 00:00:00 | 01:49:59 | 00:00:00 | |
| OE5DXL-15 | 2026-09-02 12:19:25 | 48.14181 | 12.41307 | 73° | 9km/h | 27900m | 5.0m/s | -44.5°C | 2.5% | 17.0hPa | 2.7V | 00:00:00 | 00:00:00 | 00:00:00 | |
| BAUMI2-15 | 2026-09-02 12:19:23 | 48.14180 | 12.41307 | 327° | 9km/h | 27890m | 6.2m/s | -44.4°C | 2.6% | 17.0hPa | 2.7V | 00:00:00 | 01:49:54 | 08:30:00 | |
| OE5MMP-10 | 2026-09-02 12:19:22 | 48.14179 | 12.41308 | 325° | 11km/h | 27884m | 5.2m/s | -44.3°C | 2.5% | 17.0hPa | 2.7V | 00:00:00 | 01:49:53 | 00:00:00 | |
| BAUMI2-15 | 2026-09-02 12:19:18 | 48.14167 | 12.41308 | 26° | 13km/h | 27861m | 5.1m/s | -44.5°C | 2.5% | 17.1hPa | 2.7V | 00:00:00 | 01:49:49 | 00:00:00 | |
| OE5WHR-10 | 2026-09-02 12:19:14 | 48.14155 | 12.41300 | 347° | 7km/h | 27840m | 5.7m/s | -44.5°C | 2.5% | 17.1hPa | 2.7V | 00:00:00 | 00:00:00 | 00:00:00 | |
| BAUMI2-15 | 2026-09-02 12:19:13 | 48.14155 | 12.41301 | 302° | 5km/h | 27834m | 5.9m/s | -44.6°C | 2.5% | 17.1hPa | 2.7V | 00:00:00 | 01:49:44 | 00:00:00 | |
| OE5MMP-10 | 2026-09-02 12:19:12 | 48.14155 | 12.41302 | 264° | 9km/h | 27828m | 6.1m/s | -44.6°C | 2.5% | 17.2hPa | 2.7V | 00:00:00 | 01:49:43 | 00:00:00 | |
| OE5DRO-10 | 2026-09-02 12:19:11 | 48.14155 | 12.41303 | 238° | 9km/h | 27822m | 4.7m/s | -44.5°C | 2.5% | 17.2hPa | 2.7V | 00:00:00 | 00:00:00 | 00:00:00 | |
| BAUMI2-15 | 2026-09-02 12:19:08 | 48.14157 | 12.41310 | 253° | 9km/h | 27806m | 5.2m/s | -44.5°C | 2.6% | 17.2hPa | 2.7V | 00:00:00 | 01:49:39 | 00:00:00 | |
| BAUMI2-15 | 2026-09-02 12:19:03 | 48.14149 | 12.41309 | 31° | 13km/h | 27780m | 4.6m/s | -44.9°C | 2.5% | 17.3hPa | 2.7V | 00:00:00 | 01:49:34 | 00:00:00 | |
| OE5MMP-10 | 2026-09-02 12:19:02 | 48.14145 | 12.41306 | 28° | 9km/h | 27775m | 5.4m/s | -44.9°C | 2.5% | 17.3hPa | 2.7V | 00:00:00 | 01:49:33 | 00:00:00 | |
| BAUMI2-15 | 2026-09-02 12:18:58 | 48.14138 | 12.41305 | 229° | 7km/h | 27754m | 5.4m/s | -44.8°C | 2.5% | 17.4hPa | 2.7V | 00:00:00 | 01:49:29 | 00:00:00 | |
| OE5DXL-15 | 2026-09-02 12:18:55 | 48.14143 | 12.41307 | 172° | 9km/h | 27738m | 4.7m/s | -45.0°C | 2.6% | 17.4hPa | 2.7V | 00:00:00 | 00:00:00 | 00:00:00 | |
| BAUMI2-15 | 2026-09-02 12:18:53 | 48.14147 | 12.41306 | 183° | 5km/h | 27727m | 6.3m/s | -45.0°C | 2.6% | 17.4hPa | 2.7V | 00:00:00 | 01:49:24 | 00:00:00 | |
| OE5MMP-10 | 2026-09-02 12:18:52 | 48.14148 | 12.41306 | 198° | 7km/h | 27721m | 5.2m/s | -45.0°C | 2.5% | 17.4hPa | 2.7V | 00:00:00 | 01:49:23 | 00:00:00 | |
| DO8TBO-1 | 2026-09-02 12:18:51 | 48.14149 | 12.41307 | 195° | 7km/h | 27716m | 4.2m/s | 0°C | 0% | 0hPa | 2.7V | 00:00:00 | 01:49:22 | 00:00:00 | |
| BAUMI2-15 | 2026-09-02 12:18:48 | 48.14149 | 12.41301 | 83° | 9km/h | 27701m | 5.7m/s | -45.1°C | 2.6% | 17.5hPa | 2.7V | 00:00:00 | 01:49:19 | 00:00:00 | |
| BAUMI2-15 | 2026-09-02 12:18:43 | 48.14152 | 12.41289 | 204° | 13km/h | 27674m | 5.0m/s | -45.2°C | 2.6% | 17.6hPa | 2.7V | 00:00:00 | 01:49:14 | 00:00:00 | |
| OE5MMP-10 | 2026-09-02 12:18:42 | 48.14155 | 12.41291 | 203° | 11km/h | 27669m | 5.0m/s | -45.2°C | 2.6% | 17.6hPa | 2.7V | 00:00:00 | 01:49:13 | 00:00:00 | |
| OE5DRO-10 | 2026-09-02 12:18:33 | 48.14165 | 12.41275 | 62° | 9km/h | 27621m | 6.3m/s | -45.1°C | 2.6% | 17.7hPa | 2.7V | 00:00:00 | 00:00:00 | 00:00:00 | |
| OE5MMP-10 | 2026-09-02 12:18:32 | 48.14163 | 12.41270 | 64° | 9km/h | 27615m | 5.0m/s | -45.2°C | 2.6% | 17.7hPa | 2.7V | 00:00:00 | 01:49:03 | 00:00:00 | |
| OE5DXL-15 | 2026-09-02 12:18:25 | 48.14165 | 12.41253 | 136° | 9km/h | 27576m | 4.8m/s | -45.5°C | 2.6% | 17.8hPa | 2.7V | 00:00:00 | 00:00:00 | 08:30:00 | |
| OE5MMP-10 | 2026-09-02 12:18:22 | 48.14168 | 12.41246 | 71° | 7km/h | 27559m | 5.1m/s | -45.4°C | 2.6% | 17.9hPa | 2.7V | 00:00:00 | 01:48:53 | 08:30:00 | |
| OE5DRO-10 | 2026-09-02 12:18:14 | 48.14158 | 12.41228 | 350° | 9km/h | 27516m | 5.3m/s | -45.7°C | 2.6% | 18.0hPa | 2.7V | 00:00:00 | 00:00:00 | 00:00:00 | |
| OE5MMP-10 | 2026-09-02 12:18:12 | 48.14157 | 12.41227 | 92° | 5km/h | 27504m | 5.1m/s | -45.7°C | 2.6% | 18.0hPa | 2.7V | 00:00:00 | 01:48:43 | 00:00:00 | |
| OE5WHR-10 | 2026-09-02 12:18:11 | 48.14157 | 12.41226 | 101° | 13km/h | 27499m | 4.3m/s | -45.8°C | 2.6% | 18.1hPa | 2.7V | 00:00:00 | 00:00:00 | 08:30:00 | |
| DO8TBO-1 | 2026-09-02 12:18:04 | 48.14156 | 12.41216 | 112° | 13km/h | 27462m | 6.0m/s | 0°C | 0% | 0hPa | 2.7V | 00:00:00 | 01:48:35 | 00:00:00 | |
| OE5MMP-10 | 2026-09-02 12:18:02 | 48.14158 | 12.41206 | 103° | 16km/h | 27451m | 5.0m/s | -46.2°C | 2.7% | 18.2hPa | 2.7V | 00:00:00 | 01:48:33 | 00:00:00 | |
| DG1MFX-10 | 2026-09-02 12:18:01 | 48.14158 | 12.41206 | 103° | 16km/h | 27451m | 5.0m/s | -46.3°C | 0.6% | 18.3hPa | 2.7V | 00:00:00 | 00:00:00 | 00:00:00 | |
| OE5DXL-15 | 2026-09-02 12:17:55 | 48.14151 | 12.41162 | 69° | 11km/h | 27413m | 4.3m/s | -46.7°C | 2.7% | 18.3hPa | 2.7V | 00:00:00 | 00:00:00 | 00:00:00 | |
| OE5MMP-10 | 2026-09-02 12:17:52 | 48.14143 | 12.41149 | 29° | 9km/h | 27395m | 5.5m/s | -46.8°C | 2.7% | 18.4hPa | 2.7V | 00:00:00 | 01:48:23 | 00:00:00 | |
| OE5WHR-10 | 2026-09-02 12:17:50 | 48.14138 | 12.41145 | 29° | 9km/h | 27384m | 6.5m/s | -46.9°C | 2.8% | 18.4hPa | 2.7V | 00:00:00 | 00:00:00 | 00:00:00 | |
| OE5MMP-10 | 2026-09-02 12:17:42 | 48.14122 | 12.41134 | 45° | 11km/h | 27338m | 5.1m/s | -47.4°C | 2.8% | 18.5hPa | 2.7V | 00:00:00 | 01:48:13 | 00:00:00 | |
| DG1MFX-10 | 2026-09-02 12:17:41 | 48.14120 | 12.41130 | 42° | 15km/h | 27334m | 4.7m/s | -47.4°C | 0.6% | 18.6hPa | 2.7V | 00:00:00 | 00:00:00 | 00:00:00 | |
| OE5DRO-10 | 2026-09-02 12:17:36 | 48.14101 | 12.41125 | 348° | 7km/h | 27306m | 6.1m/s | -47.2°C | 2.8% | 18.6hPa | 2.7V | 00:00:00 | 00:00:00 | 00:00:00 | |
| OE5MMP-10 | 2026-09-02 12:17:32 | 48.14097 | 12.41128 | 326° | 7km/h | 27283m | 5.7m/s | -47.2°C | 2.9% | 18.7hPa | 2.7V | 00:00:00 | 01:48:03 | 00:00:00 | |
| OE5WHR-10 | 2026-09-02 12:17:29 | 48.14092 | 12.41130 | 2° | 7km/h | 27265m | 5.8m/s | -47.3°C | 2.8% | 18.7hPa | 2.7V | 00:00:00 | 01:48:00 | 00:00:00 | |
| OE5DXL-15 | 2026-09-02 12:17:25 | 48.14086 | 12.41122 | 38° | 7km/h | 27243m | 6.7m/s | -47.6°C | 2.8% | 18.8hPa | 2.7V | 00:00:00 | 00:00:00 | 00:00:00 | |
| OE5MMP-10 | 2026-09-02 12:17:22 | 48.14080 | 12.41117 | 36° | 7km/h | 27226m | 6.0m/s | -47.6°C | 2.8% | 18.8hPa | 2.7V | 00:00:00 | 01:47:53 | 00:00:00 | |
| DG1MFX-10 | 2026-09-02 12:17:20 | 48.14079 | 12.41116 | 79° | 2km/h | 27220m | 6.3m/s | -47.5°C | 0.6% | 18.9hPa | 2.7V | 00:00:00 | 00:00:00 | 00:00:00 | |
| OE5MMP-10 | 2026-09-02 12:17:12 | 48.14073 | 12.41132 | 22° | 7km/h | 27169m | 4.9m/s | -47.9°C | 2.9% | 19.0hPa | 2.7V | 00:00:00 | 01:47:43 | 00:00:00 | |
| OE5WHR-10 | 2026-09-02 12:17:08 | 48.14066 | 12.41130 | 351° | 9km/h | 27147m | 5.2m/s | -48.0°C | 2.9% | 19.1hPa | 2.7V | 00:00:00 | 00:00:00 | 00:00:00 | |
| OE5MMP-10 | 2026-09-02 12:17:02 | 48.14069 | 12.41145 | 251° | 5km/h | 27112m | 5.4m/s | -48.1°C | 3.1% | 19.2hPa | 2.7V | 00:00:00 | 01:47:33 | 00:00:00 | |
| DG1MFX-10 | 2026-09-02 12:16:59 | 48.14071 | 12.41151 | 257° | 5km/h | 27102m | 5.2m/s | -48.1°C | 0.7% | 19.2hPa | 2.7V | 00:00:00 | 00:00:00 | 00:00:00 | |
| OE5DRO-10 | 2026-09-02 12:16:58 | 48.14071 | 12.41153 | 153° | 9km/h | 27090m | 6.1m/s | -48.1°C | 3.0% | 19.2hPa | 2.7V | 00:00:00 | 00:00:00 | 00:00:00 | |
| OE5DXL-15 | 2026-09-02 12:16:55 | 48.14073 | 12.41148 | 60° | 11km/h | 27074m | 6.5m/s | -48.3°C | 3.0% | 19.3hPa | 2.7V | 00:00:00 | 00:00:00 | 00:00:00 | |
| OE5MMP-10 | 2026-09-02 12:16:52 | 48.14070 | 12.41153 | 286° | 13km/h | 27057m | 5.3m/s | -48.0°C | 3.0% | 19.4hPa | 2.7V | 00:00:00 | 01:47:23 | 08:30:00 | |
| OE5WHR-10 | 2026-09-02 12:16:47 | 48.14077 | 12.41181 | 240° | 11km/h | 27027m | 5.5m/s | -47.9°C | 3.0% | 19.4hPa | 2.7V | 00:00:00 | 00:00:00 | 00:00:00 | |
| OE5MMP-10 | 2026-09-02 12:16:42 | 48.14087 | 12.41188 | 167° | 11km/h | 26999m | 4.7m/s | -48.2°C | 3.1% | 19.5hPa | 2.7V | 00:00:00 | 01:47:13 | 00:00:00 | |
| BAUMI2-15 | 2026-09-02 12:16:41 | 48.14084 | 12.41194 | 302° | 15km/h | 26976m | 5.2m/s | -48.1°C | 3.0% | 19.6hPa | 2.7V | 00:00:00 | 01:47:09 | 08:30:00 | |
| BAUMI2-15 | 2026-09-02 12:16:33 | 48.14087 | 12.41219 | 236° | 13km/h | 26948m | 5.7m/s | -47.9°C | 2.9% | 19.7hPa | 2.7V | 00:00:00 | 01:47:04 | 00:00:00 | |
| OE5MMP-10 | 2026-09-02 12:16:32 | 48.14089 | 12.41223 | 218° | 11km/h | 26942m | 4.9m/s | -47.8°C | 2.9% | 19.7hPa | 2.7V | 00:00:00 | 01:47:03 | 00:00:00 | |
| BAUMI2-15 | 2026-09-02 12:16:28 | 48.14101 | 12.41218 | 140° | 11km/h | 26919m | 4.4m/s | -47.7°C | 3.0% | 19.8hPa | 2.7V | 00:00:00 | 01:46:59 | 00:00:00 | |
| OE5WHR-10 | 2026-09-02 12:16:26 | 48.14103 | 12.41212 | 97° | 9km/h | 26910m | 6.5m/s | -47.7°C | 3.0% | 19.8hPa | 2.7V | 00:00:00 | 01:46:57 | 00:00:00 | |
| OE5DXL-15 | 2026-09-02 12:16:25 | 48.14103 | 12.41211 | 345° | 9km/h | 26903m | 5.7m/s | -47.7°C | 3.0% | 19.8hPa | 2.7V | 00:00:00 | 00:00:00 | 00:00:00 | |
| BAUMI2-15 | 2026-09-02 12:16:24 | 48.14098 | 12.41217 | 308° | 15km/h | 26892m | 6.1m/s | -47.8°C | 2.9% | 19.8hPa | 2.7V | 00:00:00 | 01:46:54 | 00:00:00 | |
| OE5MMP-10 | 2026-09-02 12:16:22 | 48.14095 | 12.41223 | 297° | 9km/h | 26886m | 6.3m/s | -47.8°C | 2.9% | 19.9hPa | 2.7V | 00:00:00 | 01:46:53 | 00:00:00 | |
| DO3MHA-11 | 2026-09-02 12:16:20 | 48.14093 | 12.41234 | 278° | 7km/h | 26875m | 4.7m/s | -47.9°C | 2.9% | 19.9hPa | 2.7V | 00:00:00 | 01:46:51 | 00:00:00 | |
| DG1MFX-10 | 2026-09-02 12:16:19 | 48.14093 | 12.41234 | 279° | 13km/h | 26875m | 4.8m/s | -48.0°C | 0.7% | 19.9hPa | 2.7V | 00:00:00 | 00:00:00 | 00:00:00 | |
| BAUMI2-15 | 2026-09-02 12:16:18 | 48.14093 | 12.41240 | 276° | 4km/h | 26864m | 5.9m/s | -47.9°C | 3.0% | 19.9hPa | 2.7V | 00:00:00 | 01:46:49 | 00:00:00 | |
| BAUMI2-15 | 2026-09-02 12:16:13 | 48.14094 | 12.41233 | 122° | 9km/h | 26836m | 5.5m/s | -47.9°C | 3.1% | 20.0hPa | 2.7V | 00:00:00 | 01:46:44 | 00:00:00 | |
| OE5MMP-10 | 2026-09-02 12:16:12 | 48.14095 | 12.41230 | 108° | 13km/h | 26830m | 4.6m/s | -47.9°C | 3.0% | 20.0hPa | 2.7V | 00:00:00 | 01:46:43 | 00:00:00 | |
| DO3MHA-11 | 2026-09-02 12:16:10 | 48.14094 | 12.41224 | 47° | 13km/h | 26818m | 6.6m/s | -48.0°C | 3.0% | 20.1hPa | 2.7V | 00:00:00 | 01:46:41 | 00:00:00 | |
| BAUMI2-15 | 2026-09-02 12:16:08 | 48.14088 | 12.41221 | 10° | 15km/h | 26807m | 6.2m/s | -47.9°C | 3.0% | 20.1hPa | 2.7V | 00:00:00 | 01:46:39 | 00:00:00 | |
| OE5WHR-10 | 2026-09-02 12:16:05 | 48.14077 | 12.41222 | 349° | 11km/h | 26789m | 6.0m/s | -47.8°C | 2.9% | 20.1hPa | 2.7V | 00:00:00 | 00:00:00 | 00:00:00 | |
| BAUMI2-15 | 2026-09-02 12:16:03 | 48.14070 | 12.41224 | 353° | 5km/h | 26778m | 4.8m/s | -47.8°C | 3.0% | 20.2hPa | 2.7V | 00:00:00 | 01:46:34 | 00:00:00 | |
| OE5MMP-10 | 2026-09-02 12:16:02 | 48.14067 | 12.41225 | 351° | 7km/h | 26772m | 5.4m/s | -47.7°C | 3.0% | 20.2hPa | 2.7V | 00:00:00 | 01:46:33 | 00:00:00 | |
| OE5DRO-10 | 2026-09-02 12:16:01 | 48.14065 | 12.41225 | 338° | 11km/h | 26766m | 6.5m/s | -47.6°C | 3.0% | 20.3hPa | 2.7V | 00:00:00 | 00:00:00 | 00:00:00 | |
| DO3MHA-11 | 2026-09-02 12:16:00 | 48.14064 | 12.41226 | 254° | 7km/h | 26760m | 5.4m/s | -47.5°C | 3.0% | 20.2hPa | 2.7V | 00:00:00 | 01:46:31 | 08:30:00 | |
| BAUMI2-15 | 2026-09-02 12:15:58 | 48.14065 | 12.41225 | 88° | 7km/h | 26749m | 6.5m/s | 0°C | 0% | 0hPa | 2.7V | 00:00:00 | 01:46:29 | 00:00:00 | |
| OE5DXL-15 | 2026-09-02 12:15:55 | 48.14061 | 12.41219 | 20° | 13km/h | 26732m | 5.7m/s | -47.8°C | 2.9% | 20.4hPa | 2.7V | 00:00:00 | 00:00:00 | 00:00:00 | |
| BAUMI2-15 | 2026-09-02 12:15:53 | 48.14057 | 12.41220 | 331° | 15km/h | 26720m | 5.3m/s | -47.7°C | 3.0% | 20.4hPa | 2.7V | 00:00:00 | 01:46:24 | 08:30:00 | |
| OE5MMP-10 | 2026-09-02 12:15:52 | 48.14054 | 12.41223 | 325° | 13km/h | 26715m | 5.4m/s | -47.6°C | 2.9% | 20.4hPa | 2.7V | 00:00:00 | 01:46:23 | 00:00:00 | |
| DO3MHA-11 | 2026-09-02 12:15:50 | 48.14047 | 12.41230 | 329° | 13km/h | 26703m | 5.4m/s | -47.5°C | 2.9% | 20.4hPa | 2.7V | 00:00:00 | 01:46:21 | 00:00:00 | |
| BAUMI2-15 | 2026-09-02 12:15:48 | 48.14041 | 12.41237 | 314° | 11km/h | 26692m | 5.8m/s | -47.5°C | 2.9% | 20.5hPa | 2.7V | 00:00:00 | 01:46:19 | 00:00:00 | |
| OE5WHR-10 | 2026-09-02 12:15:44 | 48.14037 | 12.41252 | 301° | 13km/h | 26671m | 6.4m/s | -47.4°C | 3.0% | 20.5hPa | 2.7V | 00:00:00 | 00:00:00 | 00:00:00 | |
| BAUMI2-15 | 2026-09-02 12:15:43 | 48.14036 | 12.41253 | 341° | 13km/h | 26664m | 6.2m/s | -47.4°C | 3.0% | 20.6hPa | 2.7V | 00:00:00 | 01:46:14 | 00:00:00 | |
| OE5MMP-10 | 2026-09-02 12:15:42 | 48.14033 | 12.41254 | 360° | 16km/h | 26658m | 5.7m/s | -47.5°C | 3.0% | 20.6hPa | 2.7V | 00:00:00 | 01:46:13 | 00:00:00 | |
| DO3MHA-11 | 2026-09-02 12:15:40 | 48.14026 | 12.41254 | 357° | 16km/h | 26647m | 6.5m/s | -47.4°C | 2.9% | 20.6hPa | 2.7V | 00:00:00 | 01:46:11 | 00:00:00 | |
| OE5DRO-10 | 2026-09-02 12:15:39 | 48.14023 | 12.41255 | 347° | 15km/h | 26641m | 5.2m/s | -47.2°C | 2.9% | 20.6hPa | 2.7V | 00:00:00 | 00:00:00 | 00:00:00 | |
| BAUMI2-15 | 2026-09-02 12:15:38 | 48.14019 | 12.41256 | 344° | 18km/h | 26636m | 5.2m/s | -47.2°C | 2.9% | 20.7hPa | 2.7V | 00:00:00 | 01:46:09 | 00:00:00 | |
| BAUMI2-15 | 2026-09-02 12:15:33 | 48.13998 | 12.41270 | 309° | 15km/h | 26607m | 6.8m/s | -47.2°C | 2.9% | 20.8hPa | 2.7V | 00:00:00 | 01:46:04 | 00:00:00 | |
| OE5MMP-10 | 2026-09-02 12:15:32 | 48.13996 | 12.41275 | 290° | 11km/h | 26601m | 5.9m/s | -47.1°C | 2.9% | 20.7hPa | 2.7V | 00:00:00 | 01:46:03 | 00:00:00 | |
| BAUMI2-15 | 2026-09-02 12:15:28 | 48.13990 | 12.41294 | 323° | 11km/h | 26578m | 4.4m/s | -47.0°C | 2.9% | 20.8hPa | 2.7V | 00:00:00 | 01:45:59 | 00:00:00 | |
| OE5DXL-15 | 2026-09-02 12:15:25 | 48.13984 | 12.41301 | 319° | 15km/h | 26561m | 5.8m/s | -47.1°C | 2.9% | 20.9hPa | 2.7V | 00:00:00 | 00:00:00 | 00:00:00 | |
| OE5WHR-10 | 2026-09-02 12:15:23 | 48.13981 | 12.41305 | 323° | 15km/h | 26550m | 5.2m/s | -46.9°C | 2.8% | 20.9hPa | 2.7V | 00:00:00 | 01:45:54 | 00:00:00 | |
| OE5MMP-10 | 2026-09-02 12:15:22 | 48.13979 | 12.41307 | 334° | 18km/h | 26544m | 6.5m/s | -46.9°C | 2.8% | 20.9hPa | 2.7V | 00:00:00 | 01:45:53 | 08:30:00 | |
| OE5DRO-10 | 2026-09-02 12:15:20 | 48.13973 | 12.41311 | 325° | 16km/h | 26533m | 4.5m/s | -47.0°C | 2.8% | 21.0hPa | 2.7V | 00:00:00 | 00:00:00 | 00:00:00 | |
| DG1MFX-10 | 2026-09-02 12:15:18 | 48.13969 | 12.41321 | 290° | 18km/h | 26521m | 6.8m/s | -47.1°C | 0.7% | 21.1hPa | 2.7V | 00:00:00 | 00:00:00 | 00:00:00 | |
| BAUMI2-15 | 2026-09-02 12:15:13 | 48.13965 | 12.41360 | 282° | 15km/h | 26493m | 4.7m/s | -46.9°C | 2.8% | 21.1hPa | 2.7V | 00:00:00 | 01:45:44 | 00:00:00 | |
| OE5MMP-10 | 2026-09-02 12:15:12 | 48.13964 | 12.41366 | 278° | 13km/h | 26488m | 5.7m/s | -46.9°C | 2.8% | 21.1hPa | 2.7V | 00:00:00 | 01:45:43 | 00:00:00 | |
| BAUMI2-15 | 2026-09-02 12:15:08 | 48.13961 | 12.41386 | 313° | 11km/h | 26466m | 6.7m/s | -46.8°C | 2.7% | 21.2hPa | 2.7V | 00:00:00 | 01:45:39 | 08:30:00 | |
| OE5WHR-10 | 2026-09-02 12:15:02 | 48.13952 | 12.41408 | 270° | 13km/h | 26431m | 5.6m/s | -47.1°C | 2.8% | 21.3hPa | 2.7V | 00:00:00 | 00:00:00 | 08:30:00 | |
| OE5DRO-10 | 2026-09-02 12:15:01 | 48.13952 | 12.41415 | 273° | 13km/h | 26425m | 6.4m/s | -47.2°C | 2.8% | 21.3hPa | 2.7V | 00:00:00 | 00:00:00 | 00:00:00 | |
| BAUMI2-15 | 2026-09-02 12:14:58 | 48.13953 | 12.41435 | 253° | 15km/h | 26408m | 6.4m/s | -47.3°C | 2.8% | 21.4hPa | 2.7V | 00:00:00 | 01:45:29 | 00:00:00 | |
| OE5HKT-10 | 2026-09-02 12:14:57 | 48.13955 | 12.41442 | 248° | 11km/h | 26403m | 5.0m/s | -47.3°C | 2.9% | 21.4hPa | 2.7V | 00:00:00 | 01:45:28 | 00:00:00 | |
| OE5DXL-15 | 2026-09-02 12:14:55 | 48.13958 | 12.41453 | 254° | 11km/h | 26392m | 6.6m/s | -47.3°C | 2.9% | 21.4hPa | 2.7V | 00:00:00 | 00:00:00 | 00:00:00 | |
| BAUMI2-15 | 2026-09-02 12:14:53 | 48.13958 | 12.41459 | 306° | 7km/h | 26380m | 5.2m/s | -47.3°C | 2.8% | 21.5hPa | 2.7V | 00:00:00 | 01:45:24 | 00:00:00 | |
| OE5MMP-10 | 2026-09-02 12:14:52 | 48.13957 | 12.41461 | 311° | 11km/h | 26375m | 5.6m/s | -47.4°C | 2.8% | 21.5hPa | 2.7V | 00:00:00 | 01:45:23 | 00:00:00 | |
| BAUMI2-15 | 2026-09-02 12:14:48 | 48.13953 | 12.41470 | 312° | 13km/h | 26352m | 6.3m/s | -47.6°C | 2.8% | 21.6hPa | 2.7V | 00:00:00 | 01:45:19 | 00:00:00 | |
| BAUMI2-15 | 2026-09-02 12:14:43 | 48.13945 | 12.41490 | 277° | 15km/h | 26324m | 5.2m/s | -47.9°C | 2.9% | 21.7hPa | 2.7V | 00:00:00 | 01:45:14 | 00:00:00 | |
| OE5MMP-10 | 2026-09-02 12:14:42 | 48.13945 | 12.41497 | 275° | 9km/h | 26319m | 4.6m/s | -47.9°C | 2.9% | 21.7hPa | 2.7V | 00:00:00 | 01:45:13 | 00:00:00 | |
| OE5WHR-10 | 2026-09-02 12:14:41 | 48.13945 | 12.41502 | 276° | 11km/h | 26313m | 6.3m/s | -48.0°C | 2.9% | 21.7hPa | 2.7V | 00:00:00 | 00:00:00 | 00:00:00 | |
| OE5HKT-10 | 2026-09-02 12:14:36 | 48.13947 | 12.41517 | 239° | 11km/h | 26286m | 4.6m/s | -48.4°C | 3.0% | 21.8hPa | 2.7V | 00:00:00 | 00:00:00 | 00:00:00 | |
| OE5MMP-10 | 2026-09-02 12:14:32 | 48.13945 | 12.41525 | 304° | 13km/h | 26264m | 5.6m/s | -48.6°C | 3.1% | 21.9hPa | 2.7V | 00:00:00 | 01:45:03 | 00:00:00 | |
| OE5DXL-15 | 2026-09-02 12:14:25 | 48.13945 | 12.41559 | 241° | 11km/h | 26228m | 5.0m/s | -48.4°C | 3.0% | 22.0hPa | 2.7V | 00:00:00 | 00:00:00 | 00:00:00 | |
| OE5MMP-10 | 2026-09-02 12:14:22 | 48.13950 | 12.41571 | 235° | 11km/h | 26212m | 4.2m/s | -48.4°C | 2.9% | 22.1hPa | 2.7V | 00:00:00 | 01:44:53 | 00:00:00 | |
| OE5WHR-10 | 2026-09-02 12:14:20 | 48.13954 | 12.41579 | 235° | 13km/h | 26201m | 6.1m/s | -48.6°C | 3.0% | 22.1hPa | 2.7V | 00:00:00 | 01:44:51 | 00:00:00 | |
| DG1MFX-10 | 2026-09-02 12:14:16 | 48.13956 | 12.41587 | 261° | 9km/h | 26184m | 6.2m/s | -48.5°C | 0.7% | 22.2hPa | 2.7V | 00:00:00 | 00:00:00 | 00:00:00 | |
| OE5MMP-10 | 2026-09-02 12:14:12 | 48.13959 | 12.41607 | 224° | 15km/h | 26157m | 5.0m/s | -48.6°C | 3.0% | 22.3hPa | 2.7V | 00:00:00 | 01:44:43 | 00:00:00 | |
| DF7PN | 2026-09-02 12:14:00 | 48.13994 | 12.41647 | 242° | 11km/h | 26069m | 5.5m/s | -48.8°C | -1.0% | 22.6hPa | 2.7V | 00:00:00 | 00:00:00 | 00:00:00 | |
| OE5WHR-10 | 2026-09-02 12:13:59 | 48.13993 | 12.41639 | 287° | 9km/h | 26085m | 4.4m/s | -48.6°C | 3.1% | 22.5hPa | 2.7V | 00:00:00 | 00:00:00 | 00:00:00 | |
| OE5DXL-15 | 2026-09-02 12:13:55 | 48.13996 | 12.41651 | 232° | 9km/h | 26064m | 4.9m/s | -48.7°C | 3.0% | 22.6hPa | 2.7V | 00:00:00 | 00:00:00 | 08:30:00 | |
| OE5MMP-10 | 2026-09-02 12:13:52 | 48.14003 | 12.41658 | 189° | 9km/h | 26048m | 5.1m/s | -48.7°C | 3.0% | 22.6hPa | 2.7V | 00:00:00 | 01:44:23 | 08:30:00 | |
| OE5HKT-10 | 2026-09-02 12:13:51 | 48.14005 | 12.41658 | 190° | 7km/h | 26043m | 4.8m/s | -48.6°C | 3.0% | 22.7hPa | 2.7V | 00:00:00 | 01:44:22 | 00:00:00 | |
| DO3MHA-11 | 2026-09-02 12:13:42 | 48.13996 | 12.41681 | 322° | 9km/h | 25994m | 4.7m/s | -48.8°C | 3.0% | 22.8hPa | 2.7V | 00:00:00 | 01:44:13 | 00:00:00 | |
| DG1MFX-10 | 2026-09-02 12:13:35 | 48.13989 | 12.41688 | 205° | 5km/h | 25961m | 6.6m/s | -49.1°C | 0.7% | 23.0hPa | 2.7V | 00:00:00 | 00:00:00 | 00:00:00 | |
| DO3MHA-11 | 2026-09-02 12:13:32 | 48.13997 | 12.41694 | 186° | 7km/h | 25938m | 5.4m/s | -49.0°C | 3.0% | 23.0hPa | 2.7V | 00:00:00 | 01:44:03 | 00:00:00 | |
| DF7PN | 2026-09-02 12:13:29 | 48.13992 | 12.41702 | 337° | 9km/h | 25905m | 6.2m/s | -49.4°C | -1.0% | 23.2hPa | 2.7V | 00:00:00 | 00:00:00 | 00:00:00 | |
| OE5DXL-15 | 2026-09-02 12:13:25 | 48.13990 | 12.41703 | 346° | 13km/h | 25900m | 4.6m/s | -49.5°C | 3.2% | 23.2hPa | 2.7V | 00:00:00 | 00:00:00 | 00:00:00 | |
| OE5MMP-10 | 2026-09-02 12:13:22 | 48.13984 | 12.41709 | 300° | 7km/h | 25884m | 5.6m/s | -49.5°C | 3.1% | 23.2hPa | 2.7V | 00:00:00 | 01:43:53 | 00:00:00 | |
| OE5WHR-10 | 2026-09-02 12:13:17 | 48.13981 | 12.41723 | 298° | 13km/h | 25857m | 4.5m/s | -49.6°C | 3.1% | 23.3hPa | 2.7V | 00:00:00 | 01:43:48 | 00:00:00 | |
| DG1MFX-10 | 2026-09-02 12:13:15 | 48.13981 | 12.41724 | 290° | 4km/h | 25852m | 5.9m/s | -49.8°C | 0.8% | 23.4hPa | 2.7V | 00:00:00 | 00:00:00 | 00:00:00 | |
| OE5MMP-10 | 2026-09-02 12:13:12 | 48.13975 | 12.41732 | 345° | 16km/h | 25831m | 6.4m/s | -49.6°C | 3.3% | 23.4hPa | 2.7V | 00:00:00 | 01:43:43 | 00:00:00 | |
| OE5MMP-10 | 2026-09-02 12:13:02 | 48.13938 | 12.41764 | 316° | 13km/h | 25774m | 5.8m/s | -49.7°C | 3.1% | 23.6hPa | 2.7V | 00:00:00 | 01:43:33 | 00:00:00 | |
| OE5WHR-10 | 2026-09-02 12:12:56 | 48.13923 | 12.41777 | 335° | 9km/h | 25742m | 6.1m/s | -49.5°C | 3.2% | 23.7hPa | 2.7V | 00:00:00 | 00:00:00 | 00:00:00 | |
| OE5DXL-15 | 2026-09-02 12:12:55 | 48.13921 | 12.41780 | 324° | 9km/h | 25737m | 5.2m/s | -49.5°C | 3.2% | 23.8hPa | 2.7V | 00:00:00 | 00:00:00 | 00:00:00 | |
| DG1MFX-10 | 2026-09-02 12:12:54 | 48.13921 | 12.41780 | 325° | 13km/h | 25737m | 5.3m/s | -49.6°C | 0.8% | 23.8hPa | 2.7V | 00:00:00 | 00:00:00 | 00:00:00 | |
| OE5MMP-10 | 2026-09-02 12:12:52 | 48.13913 | 12.41788 | 331° | 7km/h | 25722m | 6.3m/s | -49.6°C | 0% | 23.8hPa | 2.7V | 00:00:00 | 01:43:23 | 00:00:00 | |
| OE5MMP-10 | 2026-09-02 12:12:42 | 48.13901 | 12.41810 | 332° | 7km/h | 25669m | 5.1m/s | -49.8°C | 3.2% | 24.0hPa | 2.7V | 00:00:00 | 01:43:13 | 00:00:00 | |
| OE5HKT-10 | 2026-09-02 12:12:38 | 48.13898 | 12.41818 | 263° | 9km/h | 25647m | 4.8m/s | -49.5°C | 3.2% | 24.1hPa | 2.7V | 00:00:00 | 00:00:00 | 00:00:00 | |
| OE5WHR-10 | 2026-09-02 12:12:35 | 48.13901 | 12.41822 | 209° | 9km/h | 25631m | 4.9m/s | -49.5°C | 3.2% | 24.2hPa | 2.7V | 00:00:00 | 00:00:00 | 00:00:00 | |
| DG1MFX-10 | 2026-09-02 12:12:34 | 48.13901 | 12.41822 | 210° | 7km/h | 25631m | 4.9m/s | -49.5°C | 0.8% | 24.2hPa | 2.7V | 00:00:00 | 00:00:00 | 00:00:00 | |
| BAUMI2-15 | 2026-09-02 12:12:33 | 48.13904 | 12.41828 | 249° | 9km/h | 25620m | 5.7m/s | -49.4°C | 3.2% | 24.2hPa | 2.7V | 00:00:00 | 01:43:04 | 00:00:00 | |
| OE5MMP-10 | 2026-09-02 12:12:32 | 48.13905 | 12.41832 | 265° | 7km/h | 25615m | 4.8m/s | -49.3°C | 3.2% | 24.2hPa | 2.7V | 00:00:00 | 01:43:03 | 00:00:00 | |
| BAUMI2-15 | 2026-09-02 12:12:28 | 48.13902 | 12.41843 | 336° | 4km/h | 25593m | 5.3m/s | -49.3°C | 3.2% | 24.3hPa | 2.7V | 00:00:00 | 01:42:59 | 00:00:00 | |
| DF7PN | 2026-09-02 12:12:27 | 48.13900 | 12.41846 | 317° | 4km/h | 25582m | 4.9m/s | 0°C | -1.0% | 24.4hPa | 2.7V | 00:00:00 | 00:00:00 | 00:00:00 | |
| OE5DXL-15 | 2026-09-02 12:12:25 | 48.13899 | 12.41847 | 298° | 11km/h | 25577m | 4.3m/s | -49.4°C | 3.1% | 24.4hPa | 2.7V | 00:00:00 | 00:00:00 | 00:00:00 | |
| BAUMI2-15 | 2026-09-02 12:12:23 | 48.13900 | 12.41847 | 165° | 11km/h | 25566m | 5.6m/s | -49.5°C | 3.2% | 24.4hPa | 2.7V | 00:00:00 | 01:42:54 | 08:30:00 | |
| OE5MMP-10 | 2026-09-02 12:12:22 | 48.13902 | 12.41847 | 184° | 13km/h | 25561m | 4.5m/s | -49.6°C | 3.2% | 24.4hPa | 2.7V | 00:00:00 | 01:42:53 | 08:30:00 | |
| BAUMI2-15 | 2026-09-02 12:12:18 | 48.13913 | 12.41858 | 229° | 13km/h | 25539m | 5.7m/s | -49.4°C | 3.2% | 24.5hPa | 2.7V | 00:00:00 | 01:42:49 | 00:00:00 | |
| OE5HKT-10 | 2026-09-02 12:12:17 | 48.13915 | 12.41862 | 237° | 11km/h | 25533m | 5.3m/s | -49.4°C | 3.2% | 24.5hPa | 2.7V | 00:00:00 | 00:00:00 | 00:00:00 | |
| OE5WHR-10 | 2026-09-02 12:12:14 | 48.13916 | 12.41875 | 291° | 9km/h | 25517m | 6.3m/s | -49.3°C | 3.2% | 24.6hPa | 2.7V | 00:00:00 | 01:42:45 | 00:00:00 | |
| BAUMI2-15 | 2026-09-02 12:12:13 | 48.13914 | 12.41881 | 301° | 9km/h | 25511m | 4.9m/s | -49.2°C | 3.2% | 24.6hPa | 2.7V | 00:00:00 | 01:42:44 | 00:00:00 | |
| OE5MMP-10 | 2026-09-02 12:12:12 | 48.13912 | 12.41886 | 310° | 9km/h | 25507m | 4.5m/s | -49.3°C | 3.1% | 24.6hPa | 2.7V | 00:00:00 | 01:42:43 | 00:00:00 | |
| DL6DJ-15 | 2026-09-02 12:12:09 | 48.13907 | 12.41892 | 240° | 2km/h | 25486m | 5.5m/s | -49.3°C | 0.7% | 24.8hPa | 2.7V | 00:00:00 | 00:00:00 | 00:00:00 | |
| BAUMI2-15 | 2026-09-02 12:12:08 | 48.13907 | 12.41892 | 241° | 9km/h | 25486m | 5.5m/s | -49.3°C | 3.1% | 24.7hPa | 2.7V | 00:00:00 | 01:42:39 | 00:00:00 | |
| BAUMI2-15 | 2026-09-02 12:12:03 | 48.13917 | 12.41906 | 215° | 15km/h | 25458m | 4.8m/s | -49.4°C | 3.2% | 24.8hPa | 2.7V | 00:00:00 | 01:42:34 | 00:00:00 | |
| DF7PN | 2026-09-02 12:11:56 | 48.13924 | 12.41923 | 220° | 2km/h | 25406m | 5.4m/s | 0°C | -1.0% | -1.0hPa | 2.7V | 00:00:00 | 00:00:00 | 00:00:00 | |
| OE5DXL-15 | 2026-09-02 12:11:55 | 48.13923 | 12.41925 | 93° | 5km/h | 25417m | 4.4m/s | -49.2°C | 3.2% | 25.0hPa | 2.7V | 00:00:00 | 00:00:00 | 00:00:00 | |
| BAUMI2-15 | 2026-09-02 12:11:53 | 48.13923 | 12.41923 | 221° | 5km/h | 25406m | 5.4m/s | -49.3°C | 3.1% | 25.0hPa | 2.7V | 00:00:00 | 01:42:24 | 00:00:00 | |
| OE5MMP-10 | 2026-09-02 12:11:52 | 48.13924 | 12.41924 | 253° | 7km/h | 25401m | 5.2m/s | -49.2°C | 3.1% | 25.0hPa | 2.7V | 00:00:00 | 01:42:23 | 00:00:00 | |
| BAUMI2-15 | 2026-09-02 12:11:48 | 48.13927 | 12.41935 | 243° | 7km/h | 25379m | 4.7m/s | -49.2°C | 3.1% | 25.1hPa | 2.7V | 00:00:00 | 01:42:19 | 00:00:00 | |
| BAUMI2-15 | 2026-09-02 12:11:43 | 48.13928 | 12.41946 | 56° | 4km/h | 25352m | 6.1m/s | -49.3°C | 3.1% | 25.2hPa | 2.7V | 00:00:00 | 01:42:14 | 00:00:00 | |
| OE5MMP-10 | 2026-09-02 12:11:42 | 48.13928 | 12.41945 | 85° | 4km/h | 25347m | 4.8m/s | -49.3°C | 3.1% | 25.2hPa | 2.7V | 00:00:00 | 01:42:13 | 00:00:00 | |
| BAUMI2-15 | 2026-09-02 12:11:38 | 48.13928 | 12.41942 | 270° | 2km/h | 25326m | 4.8m/s | -49.3°C | 3.2% | 25.3hPa | 2.7V | 00:00:00 | 01:42:09 | 08:30:00 | |
| OE5HKT-10 | 2026-09-02 12:11:35 | 48.13928 | 12.41945 | 257° | 7km/h | 25309m | 4.8m/s | -49.3°C | 3.2% | 25.4hPa | 2.7V | 00:00:00 | 00:00:00 | 08:30:00 | |
| BAUMI2-15 | 2026-09-02 12:11:33 | 48.13928 | 12.41947 | 287° | 5km/h | 25299m | 6.1m/s | -49.2°C | 3.1% | 25.4hPa | 2.7V | 00:00:00 | 01:42:04 | 00:00:00 | |
| OE5WHR-10 | 2026-09-02 12:11:32 | 48.13927 | 12.41949 | 295° | 7km/h | 25293m | 4.8m/s | -49.3°C | 3.1% | 25.5hPa | 2.7V | 00:00:00 | 00:00:00 | 00:00:00 | |
| DO3MHA-11 | 2026-09-02 12:11:29 | 48.13924 | 12.41951 | 50° | 5km/h | 25278m | 5.8m/s | -49.3°C | 3.1% | 25.5hPa | 2.7V | 00:00:00 | 01:42:00 | 08:30:00 | |
| BAUMI2-15 | 2026-09-02 12:11:28 | 48.13923 | 12.41949 | 71° | 7km/h | 25272m | 4.8m/s | -49.3°C | 3.1% | 25.5hPa | 2.7V | 00:00:00 | 01:41:59 | 00:00:00 | |
| OE5DXL-15 | 2026-09-02 12:11:25 | 48.13921 | 12.41940 | 36° | 9km/h | 25257m | 5.9m/s | -49.4°C | 3.1% | 25.6hPa | 2.7V | 00:00:00 | 00:00:00 | 00:00:00 | |
| BAUMI2-15 | 2026-09-02 12:11:23 | 48.13919 | 12.41940 | 321° | 5km/h | 25246m | 5.0m/s | -49.4°C | 3.1% | 25.6hPa | 2.7V | 00:00:00 | 01:41:54 | 00:00:00 | |
| OE5MMP-10 | 2026-09-02 12:11:22 | 48.13918 | 12.41942 | 317° | 7km/h | 25241m | 6.2m/s | -49.5°C | 3.1% | 25.7hPa | 2.7V | 00:00:00 | 01:41:53 | 00:00:00 | |
| DO3MHA-11 | 2026-09-02 12:11:18 | 48.13912 | 12.41945 | 332° | 11km/h | 25220m | 5.9m/s | -49.4°C | 3.1% | 25.8hPa | 2.7V | 00:00:00 | 01:41:49 | 00:00:00 | |
| OE5HKT-10 | 2026-09-02 12:11:14 | 48.13903 | 12.41950 | 29° | 11km/h | 25199m | 6.3m/s | -49.5°C | 3.2% | 25.8hPa | 2.7V | 00:00:00 | 00:00:00 | 00:00:00 | |
| BAUMI2-15 | 2026-09-02 12:11:13 | 48.13902 | 12.41948 | 64° | 13km/h | 25193m | 5.6m/s | -49.4°C | 3.1% | 25.9hPa | 2.7V | 00:00:00 | 01:41:44 | 00:00:00 | |
| OE5MMP-10 | 2026-09-02 12:11:12 | 48.13901 | 12.41945 | 62° | 13km/h | 25188m | 5.0m/s | -49.5°C | 3.2% | 25.9hPa | 2.7V | 00:00:00 | 01:41:43 | 00:00:00 | |
| OE5WHR-10 | 2026-09-02 12:11:11 | 48.13899 | 12.41941 | 52° | 13km/h | 25182m | 6.3m/s | -49.5°C | 3.2% | 25.9hPa | 2.7V | 00:00:00 | 01:41:42 | 00:00:00 | |
| OE8JPQ-2 | 2026-09-02 12:11:10 | 48.13897 | 12.41937 | 39° | 13km/h | 25176m | 5.2m/s | -49.5°C | 3.2% | 25.9hPa | 2.7V | 00:00:00 | 01:41:41 | 00:00:00 | |
| DO3MHA-11 | 2026-09-02 12:11:08 | 48.13891 | 12.41932 | 30° | 15km/h | 25166m | 5.9m/s | -49.5°C | 3.1% | 26.0hPa | 2.7V | 00:00:00 | 01:41:39 | 00:00:00 | |
| DL6DJ-15 | 2026-09-02 12:11:07 | 48.13888 | 12.41930 | 19° | 9km/h | 25160m | 5.1m/s | -49.5°C | 0.7% | 26.1hPa | 2.7V | 00:00:00 | 00:00:00 | 00:00:00 | |
| BAUMI2-15 | 2026-09-02 12:11:03 | 48.13879 | 12.41939 | 306° | 9km/h | 25138m | 4.0m/s | -49.6°C | 3.2% | 26.1hPa | 2.7V | 00:00:00 | 01:41:34 | 00:00:00 | |
| OE5MMP-10 | 2026-09-02 12:11:02 | 48.13877 | 12.41943 | 304° | 13km/h | 25134m | 3.9m/s | -49.6°C | 3.2% | 26.1hPa | 2.7V | 00:00:00 | 01:41:33 | 00:00:00 | |
| BAUMI2-15 | 2026-09-02 12:10:58 | 48.13874 | 12.41941 | 74° | 16km/h | 25113m | 4.7m/s | -49.8°C | 3.2% | 26.2hPa | 2.7V | 00:00:00 | 01:41:29 | 00:00:00 | |
| OE5DXL-15 | 2026-09-02 12:10:55 | 48.13866 | 12.41927 | 30° | 7km/h | 25098m | 4.2m/s | -49.8°C | 3.2% | 26.2hPa | 2.7V | 00:00:00 | 00:00:00 | 00:00:00 | |
| OE5HKT-10 | 2026-09-02 12:10:53 | 48.13860 | 12.41923 | 11° | 7km/h | 25088m | 5.5m/s | -49.7°C | 3.2% | 26.3hPa | 2.7V | 00:00:00 | 01:41:24 | 00:00:00 | |
| OE5MMP-10 | 2026-09-02 12:10:52 | 48.13857 | 12.41923 | 356° | 7km/h | 25083m | 5.7m/s | -49.7°C | 3.3% | 26.3hPa | 2.7V | 00:00:00 | 01:41:23 | 08:30:00 | |
| DG1MFX-10 | 2026-09-02 12:10:51 | 48.13857 | 12.41923 | 356° | 7km/h | 25083m | 5.8m/s | -49.8°C | 0.8% | 26.4hPa | 2.7V | 00:00:00 | 00:00:00 | 00:00:00 | |
| OE5WHR-10 | 2026-09-02 12:10:50 | 48.13854 | 12.41925 | 317° | 7km/h | 25072m | 4.8m/s | -49.6°C | 3.3% | 26.4hPa | 2.7V | 00:00:00 | 00:00:00 | 00:00:00 | |
| BAUMI2-15 | 2026-09-02 12:10:48 | 48.13851 | 12.41929 | 332° | 7km/h | 25061m | 5.5m/s | -49.7°C | 3.2% | 26.4hPa | 2.7V | 00:00:00 | 01:41:19 | 00:00:00 | |
| OE8JPQ-2 | 2026-09-02 12:10:46 | 48.13847 | 12.41930 | 353° | 7km/h | 25050m | 6.5m/s | -49.5°C | 3.2% | 26.4hPa | 2.7V | 00:00:00 | 00:00:00 | 00:00:00 | |
| BAUMI2-15 | 2026-09-02 12:10:43 | 48.13844 | 12.41927 | 36° | 9km/h | 25034m | 5.7m/s | -49.5°C | 3.1% | 26.5hPa | 2.7V | 00:00:00 | 01:41:14 | 00:00:00 | |
| OE5MMP-10 | 2026-09-02 12:10:42 | 48.13842 | 12.41926 | 23° | 9km/h | 25027m | 6.0m/s | -49.4°C | 3.1% | 26.5hPa | 2.7V | 00:00:00 | 01:41:13 | 00:00:00 | |
| DL6DJ-15 | 2026-09-02 12:10:37 | 48.13832 | 12.41935 | 300° | 9km/h | 24989m | 5.2m/s | 0°C | -1.0% | 26.8hPa | 2.7V | 00:00:00 | 00:00:00 | 00:00:00 | |
| OE5MMP-10 | 2026-09-02 12:10:32 | 48.13829 | 12.41942 | 278° | 5km/h | 24973m | 5.9m/s | -49.6°C | 3.2% | 26.8hPa | 2.7V | 00:00:00 | 01:41:03 | 00:00:00 | |
| DG1MFX-10 | 2026-09-02 12:10:30 | 48.13829 | 12.41943 | 272° | 2km/h | 24968m | 4.9m/s | -49.7°C | 0.8% | 26.8hPa | 2.7V | 00:00:00 | 00:00:00 | 00:00:00 | |
| OE5WHR-10 | 2026-09-02 12:10:29 | 48.13828 | 12.41944 | 10° | 7km/h | 24957m | 6.2m/s | -49.7°C | 3.2% | 26.8hPa | 2.7V | 00:00:00 | 00:00:00 | 00:00:00 | |
| OE8JPQ-2 | 2026-09-02 12:10:26 | 48.13822 | 12.41945 | 334° | 9km/h | 24941m | 6.3m/s | -49.6°C | 3.2% | 26.9hPa | 2.7V | 00:00:00 | 00:00:00 | 00:00:00 | |
| OE5DXL-15 | 2026-09-02 12:10:25 | 48.13821 | 12.41946 | 301° | 7km/h | 24934m | 5.7m/s | -49.5°C | 3.2% | 26.9hPa | 2.7V | 00:00:00 | 00:00:00 | 00:00:00 | |
| OE5MMP-10 | 2026-09-02 12:10:22 | 48.13819 | 12.41954 | 269° | 9km/h | 24918m | 5.0m/s | -49.3°C | 3.1% | 27.0hPa | 2.7V | 00:00:00 | 01:40:53 | 00:00:00 | |
| OE5HKT-10 | 2026-09-02 12:10:11 | 48.13813 | 12.41973 | 308° | 5km/h | 24859m | 4.6m/s | -49.5°C | 3.2% | 27.2hPa | 2.7V | 00:00:00 | 00:00:00 | 00:00:00 | |
| DG1MFX-10 | 2026-09-02 12:10:10 | 48.13813 | 12.41973 | 308° | 9km/h | 24859m | 4.6m/s | -49.5°C | 0.8% | 27.3hPa | 2.7V | 00:00:00 | 00:00:00 | 00:00:00 | |
| OE5WHR-10 | 2026-09-02 12:10:08 | 48.13812 | 12.41979 | 224° | 7km/h | 24844m | 5.8m/s | -49.5°C | 3.1% | 27.3hPa | 2.7V | 00:00:00 | 01:40:39 | 00:00:00 | |
| OE8JPQ-2 | 2026-09-02 12:10:06 | 48.13813 | 12.41979 | 169° | 7km/h | 24834m | 4.5m/s | -49.6°C | 3.1% | 27.4hPa | 2.7V | 00:00:00 | 01:40:37 | 00:00:00 | |
| DL6DJ-15 | 2026-09-02 12:10:05 | 48.13815 | 12.41980 | 215° | 5km/h | 24822m | 5.9m/s | 0°C | -1.0% | 27.5hPa | 2.7V | 00:00:00 | 00:00:00 | 00:00:00 | |
| OE5MMP-10 | 2026-09-02 12:10:02 | 48.13817 | 12.41983 | 239° | 5km/h | 24812m | 5.3m/s | -50.0°C | 3.2% | 27.4hPa | 2.7V | 00:00:00 | 01:40:33 | 00:00:00 | |
| OE5DXL-15 | 2026-09-02 12:09:55 | 48.13822 | 12.41985 | 177° | 15km/h | 24774m | 6.1m/s | -50.0°C | 3.3% | 27.6hPa | 2.7V | 00:00:00 | 00:00:00 | 00:00:00 | |
| OE5MMP-10 | 2026-09-02 12:09:52 | 48.13830 | 12.41984 | 188° | 13km/h | 24757m | 5.6m/s | -50.1°C | 3.2% | 27.7hPa | 2.7V | 00:00:00 | 01:40:23 | 00:00:00 | |
| OE5WHR-10 | 2026-09-02 12:09:47 | 48.13841 | 12.41997 | 225° | 16km/h | 24730m | 4.7m/s | -50.1°C | 3.3% | 27.8hPa | 2.7V | 00:00:00 | 00:00:00 | 00:00:00 | |
| OE8JPQ-2 | 2026-09-02 12:09:43 | 48.13855 | 12.42002 | 174° | 16km/h | 24708m | 5.5m/s | -49.9°C | 3.3% | 27.9hPa | 2.7V | 00:00:00 | 00:00:00 | 08:30:00 | |
| OE5MMP-10 | 2026-09-02 12:09:42 | 48.13860 | 12.42000 | 164° | 15km/h | 24702m | 6.3m/s | -49.9°C | 3.3% | 27.9hPa | 2.7V | 00:00:00 | 01:40:13 | 00:00:00 | |
| OE5MMP-10 | 2026-09-02 12:09:32 | 48.13895 | 12.41992 | 158° | 20km/h | 24649m | 5.3m/s | -49.9°C | 3.1% | 28.2hPa | 2.7V | 00:00:00 | 01:40:03 | 00:00:00 | |
| OE5HKT-10 | 2026-09-02 12:09:29 | 48.13908 | 12.41986 | 160° | 18km/h | 24633m | 5.9m/s | -49.9°C | 3.2% | 28.2hPa | 2.7V | 00:00:00 | 00:00:00 | 00:00:00 | |
| OE5WHR-10 | 2026-09-02 12:09:26 | 48.13923 | 12.41975 | 159° | 18km/h | 24616m | 5.4m/s | -50.0°C | 3.3% | 28.3hPa | 2.7V | 00:00:00 | 00:00:00 | 00:00:00 | |
| OE5DXL-15 | 2026-09-02 12:09:25 | 48.13929 | 12.41973 | 166° | 18km/h | 24610m | 5.8m/s | -50.0°C | 3.3% | 28.3hPa | 2.7V | 00:00:00 | 00:00:00 | 08:30:00 | |
| OE8JPQ-2 | 2026-09-02 12:09:23 | 48.13938 | 12.41970 | 170° | 18km/h | 24600m | 5.5m/s | -50.1°C | 3.3% | 28.4hPa | 2.7V | 00:00:00 | 00:00:00 | 00:00:00 | |
| OE5MMP-10 | 2026-09-02 12:09:22 | 48.13942 | 12.41969 | 164° | 16km/h | 24594m | 6.0m/s | -50.1°C | 3.3% | 28.4hPa | 2.7V | 00:00:00 | 01:39:53 | 08:30:00 | |
| PETON7-10 | 2026-09-02 12:09:19 | 48.13952 | 12.41964 | 166° | 13km/h | 24578m | 6.0m/s | -50.3°C | 3.3% | 28.5hPa | 2.7V | 00:00:00 | 00:00:00 | 00:00:00 | |
| OE5MMP-10 | 2026-09-02 12:09:12 | 48.13979 | 12.41942 | 154° | 20km/h | 24539m | 5.5m/s | -50.2°C | 3.3% | 28.7hPa | 2.7V | 00:00:00 | 01:39:43 | 00:00:00 | |
| DG1MFX-10 | 2026-09-02 12:09:09 | 48.13989 | 12.41934 | 152° | 22km/h | 24529m | 5.9m/s | -50.2°C | 0.8% | 28.7hPa | 2.7V | 00:00:00 | 00:00:00 | 00:00:00 | |
| OE5HKT-10 | 2026-09-02 12:09:08 | 48.13998 | 12.41925 | 145° | 16km/h | 24518m | 4.9m/s | -50.1°C | 3.3% | 28.8hPa | 2.7V | 00:00:00 | 00:00:00 | 00:00:00 | |
| OE5WHR-10 | 2026-09-02 12:09:05 | 48.14010 | 12.41914 | 144° | 15km/h | 24501m | 4.6m/s | -49.9°C | 3.2% | 28.8hPa | 2.7V | 00:00:00 | 01:39:36 | 00:00:00 | |
| DL6DJ-15 | 2026-09-02 12:09:03 | 48.14032 | 12.41874 | 128° | 16km/h | 24457m | 5.3m/s | 0°C | -1.0% | 29.1hPa | 2.7V | 00:00:00 | 00:00:00 | 00:00:00 | |
| OE8JPQ-2 | 2026-09-02 12:09:02 | 48.14019 | 12.41898 | 119° | 13km/h | 24484m | 4.9m/s | -49.8°C | 3.1% | 28.9hPa | 2.7V | 00:00:00 | 01:39:33 | 00:00:00 | |
| OE5DRO-10 | 2026-09-02 12:08:55 | 48.14038 | 12.41864 | 140° | 13km/h | 24447m | 5.1m/s | -49.9°C | 3.2% | 29.1hPa | 2.7V | 00:00:00 | 00:00:00 | 00:00:00 | |
| OE5MMP-10 | 2026-09-02 12:08:52 | 48.14051 | 12.41853 | 151° | 11km/h | 24431m | 4.7m/s | -49.9°C | 3.2% | 29.1hPa | 2.7V | 00:00:00 | 01:39:23 | 00:00:00 | |
| DG1MFX-10 | 2026-09-02 12:08:48 | 48.14057 | 12.41842 | 109° | 11km/h | 24415m | 4.7m/s | -50.1°C | 0.8% | 29.2hPa | 2.7V | 00:00:00 | 00:00:00 | 00:00:00 | |
| OE5HKT-10 | 2026-09-02 12:08:47 | 48.14058 | 12.41836 | 114° | 13km/h | 24404m | 5.4m/s | -50.2°C | 3.2% | 29.3hPa | 2.7V | 00:00:00 | 01:39:18 | 00:00:00 | |
| OE5WHR-10 | 2026-09-02 12:08:44 | 48.14060 | 12.41827 | 94° | 13km/h | 24388m | 5.9m/s | -50.2°C | 3.3% | 29.4hPa | 2.7V | 00:00:00 | 00:00:00 | 08:30:00 | |
| OE5MMP-10 | 2026-09-02 12:08:42 | 48.14060 | 12.41819 | 106° | 16km/h | 24378m | 4.5m/s | -50.3°C | 3.3% | 29.4hPa | 2.7V | 00:00:00 | 01:39:13 | 00:00:00 | |
| BAUMI2-15 | 2026-09-02 12:08:38 | 48.14070 | 12.41807 | 143° | 20km/h | 24358m | 4.6m/s | -50.3°C | 3.2% | 29.5hPa | 2.7V | 00:00:00 | 01:39:09 | 00:00:00 | |
| OE5DRO-10 | 2026-09-02 12:08:36 | 48.14076 | 12.41796 | 120° | 11km/h | 24347m | 4.8m/s | -50.4°C | 3.2% | 29.5hPa | 2.7V | 00:00:00 | 00:00:00 | 00:00:00 | |
| DO3MHA-11 | 2026-09-02 12:08:33 | 48.14083 | 12.41773 | 118° | 9km/h | 24332m | 5.5m/s | -50.2°C | 3.2% | 29.6hPa | 2.7V | 00:00:00 | 01:39:04 | 00:00:00 | |
| OE5MMP-10 | 2026-09-02 12:08:32 | 48.14085 | 12.41767 | 124° | 7km/h | 24327m | 4.6m/s | -50.2°C | 3.2% | 29.6hPa | 2.7V | 00:00:00 | 01:39:03 | 00:00:00 | |
| BAUMI2-15 | 2026-09-02 12:08:28 | 48.14089 | 12.41754 | 72° | 4km/h | 24306m | 4.9m/s | -50.4°C | 3.3% | 29.7hPa | 2.7V | 00:00:00 | 01:38:59 | 00:00:00 | |
| DG1MFX-10 | 2026-09-02 12:08:27 | 48.14089 | 12.41754 | 72° | 5km/h | 24306m | 5.0m/s | -50.4°C | 0.8% | 29.8hPa | 2.7V | 00:00:00 | 00:00:00 | 00:00:00 | |
| OE5HKT-10 | 2026-09-02 12:08:26 | 48.14089 | 12.41752 | 157° | 9km/h | 24294m | 5.9m/s | -50.4°C | 3.3% | 29.8hPa | 2.7V | 00:00:00 | 00:00:00 | 08:30:00 | |
| OE5DXL-15 | 2026-09-02 12:08:25 | 48.14090 | 12.41751 | 164° | 13km/h | 24289m | 4.1m/s | -50.4°C | 3.2% | 29.8hPa | 2.7V | 00:00:00 | 00:00:00 | 00:00:00 | |
| DO3MHA-11 | 2026-09-02 12:08:23 | 48.14092 | 12.41748 | 114° | 11km/h | 24280m | 5.8m/s | -50.6°C | 3.2% | 29.8hPa | 2.7V | 00:00:00 | 01:38:54 | 00:00:00 | |
| OE8JPQ-2 | 2026-09-02 12:08:22 | 48.14092 | 12.41744 | 98° | 15km/h | 24275m | 5.6m/s | -50.8°C | 3.3% | 29.9hPa | 2.7V | 00:00:00 | 00:00:00 | 00:00:00 | |
| BAUMI2-15 | 2026-09-02 12:08:18 | 48.14095 | 12.41716 | 109° | 9km/h | 24254m | 5.1m/s | -50.7°C | 3.4% | 29.9hPa | 2.7V | 00:00:00 | 01:38:49 | 00:00:00 | |
| OE5DRO-10 | 2026-09-02 12:08:17 | 48.14096 | 12.41710 | 107° | 9km/h | 24249m | 4.8m/s | -50.7°C | 3.4% | 30.0hPa | 2.7V | 00:00:00 | 00:00:00 | 00:00:00 | |
| BAUMI2-15 | 2026-09-02 12:08:13 | 48.14095 | 12.41703 | 317° | 5km/h | 24227m | 6.3m/s | -50.9°C | 3.4% | 30.1hPa | 2.7V | 00:00:00 | 01:38:44 | 00:00:00 | |
| OE5MMP-10 | 2026-09-02 12:08:12 | 48.14094 | 12.41705 | 295° | 15km/h | 24222m | 4.5m/s | -50.9°C | 3.4% | 30.1hPa | 2.7V | 00:00:00 | 01:38:43 | 00:00:00 | |
| PETON7-10 | 2026-09-02 12:08:10 | 48.14092 | 12.41708 | 360° | 11km/h | 24213m | 4.9m/s | -50.9°C | 3.4% | 30.1hPa | 2.7V | 00:00:00 | 01:38:41 | 00:00:00 | |
| BAUMI2-15 | 2026-09-02 12:08:08 | 48.14090 | 12.41703 | 70° | 20km/h | 24203m | 4.9m/s | -50.8°C | 3.3% | 30.2hPa | 2.7V | 00:00:00 | 01:38:39 | 08:30:00 | |
| DG1MFX-10 | 2026-09-02 12:08:06 | 48.14089 | 12.41697 | 79° | 20km/h | 24198m | 4.3m/s | -50.8°C | 0.8% | 30.3hPa | 2.7V | 00:00:00 | 00:00:00 | 00:00:00 | |
| OE5HKT-10 | 2026-09-02 12:08:05 | 48.14088 | 12.41681 | 95° | 15km/h | 24187m | 5.4m/s | -50.8°C | 3.4% | 30.3hPa | 2.7V | 00:00:00 | 00:00:00 | 00:00:00 | |
| BAUMI2-15 | 2026-09-02 12:08:03 | 48.14090 | 12.41667 | 109° | 15km/h | 24178m | 4.5m/s | -50.6°C | 3.3% | 30.3hPa | 2.7V | 00:00:00 | 01:38:34 | 00:00:00 | |
| DL6DJ-15 | 2026-09-02 12:08:00 | 48.14093 | 12.41649 | 93° | 13km/h | 24162m | 4.7m/s | 0°C | -1.0% | 30.4hPa | 2.7V | 00:00:00 | 00:00:00 | 00:00:00 | |
| BAUMI2-15 | 2026-09-02 12:07:58 | 48.14093 | 12.41640 | 96° | 7km/h | 24153m | 5.9m/s | -50.7°C | 3.3% | 30.4hPa | 2.7V | 00:00:00 | 01:38:29 | 00:00:00 | |
| OE5DXL-15 | 2026-09-02 12:07:55 | 48.14093 | 12.41633 | 65° | 13km/h | 24137m | 5.7m/s | -50.5°C | 3.2% | 30.5hPa | 2.7V | 00:00:00 | 00:00:00 | 00:00:00 | |
| BAUMI2-15 | 2026-09-02 12:07:53 | 48.14090 | 12.41626 | 66° | 11km/h | 24127m | 4.4m/s | -50.5°C | 3.2% | 30.5hPa | 2.7V | 00:00:00 | 01:38:24 | 00:00:00 | |
| OE5MMP-10 | 2026-09-02 12:07:52 | 48.14089 | 12.41621 | 72° | 11km/h | 24122m | 4.8m/s | -50.6°C | 3.2% | 30.6hPa | 2.7V | 00:00:00 | 01:38:23 | 08:30:00 | |
| DG1MFX-10 | 2026-09-02 12:07:46 | 48.14090 | 12.41600 | 93° | 11km/h | 24097m | 5.3m/s | -50.8°C | 0.8% | 30.7hPa | 2.7V | 00:00:00 | 00:00:00 | 00:00:00 | |
| BAUMI2-15 | 2026-09-02 12:07:43 | 48.14092 | 12.41585 | 112° | 9km/h | 24076m | 4.8m/s | -51.0°C | 3.3% | 30.8hPa | 2.7V | 00:00:00 | 01:38:14 | 00:00:00 | |
| OE5MMP-10 | 2026-09-02 12:07:42 | 48.14093 | 12.41581 | 99° | 9km/h | 24071m | 6.0m/s | -51.1°C | 3.3% | 30.8hPa | 2.7V | 00:00:00 | 01:38:13 | 00:00:00 | |
| OE5WHR-10 | 2026-09-02 12:07:41 | 48.14093 | 12.41577 | 84° | 13km/h | 24065m | 5.2m/s | -51.2°C | 3.3% | 30.8hPa | 2.7V | 00:00:00 | 00:00:00 | 00:00:00 | |
| BAUMI2-15 | 2026-09-02 12:07:38 | 48.14092 | 12.41568 | 97° | 7km/h | 24049m | 5.5m/s | -51.4°C | 3.4% | 30.9hPa | 2.7V | 00:00:00 | 01:38:09 | 00:00:00 | |
| PETON7-10 | 2026-09-02 12:07:33 | 48.14089 | 12.41554 | 54° | 16km/h | 24024m | 4.3m/s | -51.5°C | 3.4% | 31.1hPa | 2.7V | 00:00:00 | 00:00:00 | 00:00:00 | |
| OE5MMP-10 | 2026-09-02 12:07:32 | 48.14087 | 12.41550 | 60° | 18km/h | 24019m | 5.7m/s | -51.5°C | 3.4% | 31.1hPa | 2.7V | 00:00:00 | 01:38:03 | 00:00:00 | |
| BAUMI2-15 | 2026-09-02 12:07:28 | 48.14079 | 12.41525 | 63° | 20km/h | 23998m | 5.7m/s | -51.6°C | 3.4% | 31.2hPa | 2.7V | 00:00:00 | 01:37:59 | 00:00:00 | |
| OE5DXL-15 | 2026-09-02 12:07:25 | 48.14071 | 12.41503 | 61° | 13km/h | 23983m | 6.0m/s | -51.8°C | 3.5% | 31.2hPa | 2.7V | 00:00:00 | 00:00:00 | 00:00:00 | |
| BAUMI2-15 | 2026-09-02 12:07:23 | 48.14068 | 12.41494 | 59° | 15km/h | 23973m | 4.5m/s | -51.9°C | 3.5% | 31.3hPa | 2.7V | 00:00:00 | 01:37:54 | 08:30:00 | |
| OE5MMP-10 | 2026-09-02 12:07:22 | 48.14066 | 12.41491 | 52° | 16km/h | 23968m | 5.4m/s | -52.0°C | 3.5% | 31.3hPa | 2.7V | 00:00:00 | 01:37:53 | 00:00:00 | |
| OE8JPQ-2 | 2026-09-02 12:07:21 | 48.14064 | 12.41487 | 48° | 13km/h | 23962m | 5.6m/s | -52.1°C | 3.6% | 31.3hPa | 2.7V | 00:00:00 | 00:00:00 | 00:00:00 | |
| OE5WHR-10 | 2026-09-02 12:07:20 | 48.14061 | 12.41482 | 49° | 13km/h | 23957m | 5.1m/s | -52.2°C | 3.6% | 31.4hPa | 2.7V | 00:00:00 | 00:00:00 | 00:00:00 | |
| BAUMI2-15 | 2026-09-02 12:07:18 | 48.14056 | 12.41473 | 61° | 18km/h | 23946m | 5.7m/s | -52.2°C | 3.5% | 31.4hPa | 2.7V | 00:00:00 | 01:37:49 | 00:00:00 | |
| PETON7-10 | 2026-09-02 12:07:17 | 48.14055 | 12.41468 | 68° | 9km/h | 23941m | 4.5m/s | -52.2°C | 3.6% | 31.5hPa | 2.7V | 00:00:00 | 01:37:48 | 00:00:00 | |
| BAUMI2-15 | 2026-09-02 12:07:13 | 48.14045 | 12.41442 | 55° | 15km/h | 23921m | 4.2m/s | -52.2°C | 3.6% | 31.5hPa | 2.7V | 00:00:00 | 01:37:44 | 00:00:00 | |
| OE5MMP-10 | 2026-09-02 12:07:12 | 48.14042 | 12.41436 | 54° | 11km/h | 23916m | 6.0m/s | -52.3°C | 3.6% | 31.6hPa | 2.7V | 00:00:00 | 01:37:43 | 00:00:00 | |
| BAUMI2-15 | 2026-09-02 12:07:08 | 48.14032 | 12.41426 | 18° | 9km/h | 23895m | 5.0m/s | -52.1°C | 3.5% | 31.7hPa | 2.7V | 00:00:00 | 01:37:39 | 00:00:00 | |
| DG1MFX-10 | 2026-09-02 12:07:04 | 48.14025 | 12.41421 | 42° | 7km/h | 23880m | 5.8m/s | -52.3°C | 0.9% | 31.8hPa | 2.7V | 00:00:00 | 00:00:00 | 00:00:00 | |
| BAUMI2-15 | 2026-09-02 12:07:03 | 48.14024 | 12.41418 | 86° | 9km/h | 23870m | 4.3m/s | -52.2°C | 3.7% | 31.8hPa | 2.7V | 00:00:00 | 01:37:34 | 00:00:00 | |
| OE5MMP-10 | 2026-09-02 12:07:02 | 48.14024 | 12.41416 | 73° | 13km/h | 23866m | 4.8m/s | -52.2°C | 3.6% | 31.8hPa | 2.7V | 00:00:00 | 01:37:33 | 00:00:00 | |
| PETON7-10 | 2026-09-02 12:07:01 | 48.14023 | 12.41413 | 52° | 13km/h | 23860m | 6.1m/s | -52.3°C | 3.6% | 31.9hPa | 2.7V | 00:00:00 | 00:00:00 | 08:30:00 | |
| OE5WHR-10 | 2026-09-02 12:06:59 | 48.14019 | 12.41407 | 42° | 15km/h | 23850m | 3.9m/s | -52.2°C | 3.6% | 31.9hPa | 2.7V | 00:00:00 | 01:37:30 | 00:00:00 | |
| BAUMI2-15 | 2026-09-02 12:06:58 | 48.14016 | 12.41403 | 48° | 13km/h | 23845m | 4.9m/s | -52.3°C | 3.5% | 31.9hPa | 2.7V | 00:00:00 | 01:37:29 | 00:00:00 | |
| OE5REO-15 | 2026-09-02 12:06:57 | 48.14016 | 12.41403 | 49° | 15km/h | 23845m | 4.9m/s | -52.3°C | 0.9% | 32.0hPa | 2.7V | 00:00:00 | 00:00:00 | 00:00:00 | |
| OE5DXL-15 | 2026-09-02 12:06:55 | 48.14012 | 12.41390 | 76° | 15km/h | 23829m | 4.8m/s | -52.3°C | 3.6% | 32.0hPa | 2.7V | 00:00:00 | 00:00:00 | 00:00:00 | |
| BAUMI2-15 | 2026-09-02 12:06:53 | 48.14009 | 12.41381 | 69° | 13km/h | 23818m | 4.9m/s | -52.2°C | 3.6% | 32.1hPa | 2.7V | 00:00:00 | 01:37:24 | 00:00:00 | |
| OE5MMP-10 | 2026-09-02 12:06:52 | 48.14008 | 12.41377 | 77° | 15km/h | 23813m | 4.7m/s | -52.2°C | 3.6% | 32.1hPa | 2.7V | 00:00:00 | 01:37:23 | 00:00:00 | |
| OE5HKT-10 | 2026-09-02 12:06:51 | 48.14008 | 12.41372 | 89° | 15km/h | 23808m | 5.9m/s | -52.2°C | 3.7% | 32.1hPa | 2.7V | 00:00:00 | 01:37:22 | 00:00:00 | |
| DO3MHA-11 | 2026-09-02 12:06:50 | 48.14008 | 12.41367 | 101° | 15km/h | 23802m | 5.4m/s | -52.2°C | 3.7% | 32.2hPa | 2.7V | 00:00:00 | 01:37:21 | 00:00:00 | |
| BAUMI2-15 | 2026-09-02 12:06:48 | 48.14009 | 12.41357 | 91° | 16km/h | 23792m | 5.9m/s | -52.2°C | 3.6% | 32.2hPa | 2.7V | 00:00:00 | 01:37:19 | 00:00:00 | |
| PETON7-10 | 2026-09-02 12:06:45 | 48.14006 | 12.41338 | 76° | 15km/h | 23777m | 6.1m/s | -52.2°C | 3.6% | 32.3hPa | 2.7V | 00:00:00 | 00:00:00 | 00:00:00 | |
| BAUMI2-15 | 2026-09-02 12:06:44 | 48.14005 | 12.41327 | 75° | 13km/h | 23765m | 4.9m/s | -52.2°C | 3.6% | 32.3hPa | 2.7V | 00:00:00 | 01:37:14 | 00:00:00 | |
| OE5MMP-10 | 2026-09-02 12:06:42 | 48.14003 | 12.41322 | 65° | 15km/h | 23760m | 5.9m/s | -52.3°C | 3.6% | 32.4hPa | 2.7V | 00:00:00 | 01:37:13 | 00:00:00 | |
| OE8JPQ-2 | 2026-09-02 12:06:41 | 48.14002 | 12.41317 | 60° | 15km/h | 23754m | 5.4m/s | -52.3°C | 3.6% | 32.4hPa | 2.7V | 00:00:00 | 00:00:00 | 08:30:00 | |
| DO3MHA-11 | 2026-09-02 12:06:40 | 48.14000 | 12.41312 | 64° | 13km/h | 23749m | 4.0m/s | -52.1°C | 3.6% | 32.4hPa | 2.7V | 00:00:00 | 01:37:11 | 00:00:00 | |
| OE5WHR-10 | 2026-09-02 12:06:38 | 48.13998 | 12.41302 | 91° | 15km/h | 23738m | 5.5m/s | -52.1°C | 3.6% | 32.5hPa | 2.7V | 00:00:00 | 00:00:00 | 00:00:00 | |
| OE5DRO-10 | 2026-09-02 12:06:33 | 48.13997 | 12.41277 | 74° | 15km/h | 23713m | 4.5m/s | -52.2°C | 3.6% | 32.6hPa | 2.7V | 00:00:00 | 00:00:00 | 00:00:00 | |
| OE5MMP-10 | 2026-09-02 12:06:32 | 48.13997 | 12.41273 | 80° | 15km/h | 23708m | 5.6m/s | -52.1°C | 3.6% | 32.6hPa | 2.7V | 00:00:00 | 01:37:03 | 00:00:00 | |
| DO3MHA-11 | 2026-09-02 12:06:30 | 48.13997 | 12.41264 | 90° | 16km/h | 23698m | 4.2m/s | -52.0°C | 3.6% | 32.7hPa | 2.7V | 00:00:00 | 01:37:01 | 00:00:00 | |
| OE5DXL-15 | 2026-09-02 12:06:25 | 48.13990 | 12.41233 | 71° | 22km/h | 23672m | 5.5m/s | -51.9°C | 3.6% | 32.8hPa | 2.7V | 00:00:00 | 00:00:00 | 00:00:00 | |
| DG1MFX-10 | 2026-09-02 12:06:24 | 48.13990 | 12.41233 | 72° | 18km/h | 23672m | 5.5m/s | -52.0°C | 0.9% | 32.8hPa | 2.7V | 00:00:00 | 00:00:00 | 00:00:00 | |
| OE5MMP-10 | 2026-09-02 12:06:22 | 48.13989 | 12.41217 | 92° | 18km/h | 23656m | 5.5m/s | -51.9°C | 3.5% | 32.9hPa | 2.7V | 00:00:00 | 01:36:53 | 08:30:00 | |
| OE8JPQ-2 | 2026-09-02 12:06:21 | 48.13988 | 12.41212 | 84° | 24km/h | 23651m | 5.7m/s | -51.8°C | 3.4% | 32.9hPa | 2.7V | 00:00:00 | 00:00:00 | 00:00:00 | |
| DO3MHA-11 | 2026-09-02 12:06:20 | 48.13988 | 12.41207 | 77° | 20km/h | 23645m | 5.0m/s | -51.8°C | 3.4% | 32.9hPa | 2.7V | 00:00:00 | 01:36:51 | 08:30:00 | |
| OE5WHR-10 | 2026-09-02 12:06:17 | 48.13986 | 12.41190 | 91° | 26km/h | 23629m | 5.3m/s | -51.8°C | 3.5% | 33.0hPa | 2.7V | 00:00:00 | 00:00:00 | 00:00:00 | |
| OE5DRO-10 | 2026-09-02 12:06:14 | 48.13984 | 12.41168 | 68° | 26km/h | 23613m | 5.7m/s | -51.7°C | 3.5% | 33.1hPa | 2.7V | 00:00:00 | 00:00:00 | 08:30:00 | |
| PETON7-10 | 2026-09-02 12:06:13 | 48.13981 | 12.41160 | 64° | 26km/h | 23608m | 4.4m/s | -51.7°C | 3.5% | 33.1hPa | 2.7V | 00:00:00 | 00:00:00 | 00:00:00 | |
| OE5MMP-10 | 2026-09-02 12:06:12 | 48.13979 | 12.41151 | 66° | 27km/h | 23603m | 5.9m/s | -51.8°C | 3.5% | 33.2hPa | 2.7V | 00:00:00 | 01:36:43 | 00:00:00 | |
| DO3MHA-11 | 2026-09-02 12:06:10 | 48.13973 | 12.41131 | 69° | 27km/h | 23592m | 4.5m/s | -51.8°C | 3.6% | 33.2hPa | 2.7V | 00:00:00 | 01:36:41 | 00:00:00 | |
| OE5REO-15 | 2026-09-02 12:06:09 | 48.13973 | 12.41131 | 69° | 29km/h | 23592m | 4.6m/s | -51.9°C | 0.9% | 33.3hPa | 2.7V | 00:00:00 | 00:00:00 | 00:00:00 | |
| DK5PH-5 | 2026-09-02 12:06:07 | 48.13964 | 12.41101 | 69° | 20km/h | 23576m | 4.7m/s | -52.0°C | 3.5% | 33.3hPa | 2.7V | 00:00:00 | 01:36:38 | 08:30:00 | |
| DG1MFX-10 | 2026-09-02 12:06:03 | 48.13960 | 12.41072 | 79° | 24km/h | 23561m | 4.3m/s | -52.3°C | 0.9% | 33.5hPa | 2.7V | 00:00:00 | 00:00:00 | 00:00:00 | |
| OE5MMP-10 | 2026-09-02 12:06:02 | 48.13956 | 12.41055 | 62° | 22km/h | 23551m | 5.3m/s | -52.3°C | 3.5% | 33.4hPa | 2.7V | 00:00:00 | 01:36:33 | 00:00:00 | |
| OE8JPQ-2 | 2026-09-02 12:06:01 | 48.13952 | 12.41047 | 57° | 22km/h | 23545m | 4.9m/s | -52.3°C | 3.6% | 33.5hPa | 2.7V | 00:00:00 | 01:36:32 | 00:00:00 | |
| DO3MHA-11 | 2026-09-02 12:06:00 | 48.13949 | 12.41040 | 58° | 20km/h | 23540m | 5.8m/s | -52.1°C | 3.5% | 33.5hPa | 2.7V | 00:00:00 | 01:36:31 | 00:00:00 | |
| PETON7-10 | 2026-09-02 12:05:57 | 48.13940 | 12.41018 | 52° | 22km/h | 23525m | 5.8m/s | -52.2°C | 3.5% | 33.6hPa | 2.7V | 00:00:00 | 00:00:00 | 00:00:00 | |
| OE5WHR-10 | 2026-09-02 12:05:56 | 48.13936 | 12.41012 | 45° | 20km/h | 23519m | 5.9m/s | -52.3°C | 3.6% | 33.6hPa | 2.7V | 00:00:00 | 01:36:27 | 00:00:00 | |
| OE5DXL-15 | 2026-09-02 12:05:55 | 48.13932 | 12.41006 | 42° | 18km/h | 23513m | 4.9m/s | -52.3°C | 3.6% | 33.6hPa | 2.7V | 00:00:00 | 00:00:00 | 00:00:00 | |
| OE5REO-15 | 2026-09-02 12:05:53 | 48.13928 | 12.41001 | 45° | 20km/h | 23508m | 5.6m/s | -52.3°C | 0.8% | 33.7hPa | 2.7V | 00:00:00 | 00:00:00 | 00:00:00 | |
| OE5MMP-10 | 2026-09-02 12:05:52 | 48.13922 | 12.40990 | 54° | 22km/h | 23497m | 4.8m/s | -52.3°C | 3.6% | 33.7hPa | 2.7V | 00:00:00 | 01:36:23 | 00:00:00 | |
| DO3MHA-11 | 2026-09-02 12:05:50 | 48.13916 | 12.40979 | 46° | 20km/h | 23486m | 5.2m/s | -52.5°C | 3.5% | 33.8hPa | 2.7V | 00:00:00 | 01:36:21 | 00:00:00 | |
| PETON7-10 | 2026-09-02 12:05:42 | 48.13886 | 12.40931 | 34° | 15km/h | 23444m | 4.9m/s | -52.4°C | 3.5% | 34.0hPa | 2.7V | 00:00:00 | 01:36:13 | 00:00:00 | |
| OE8JPQ-2 | 2026-09-02 12:05:41 | 48.13882 | 12.40927 | 37° | 16km/h | 23439m | 5.8m/s | -52.5°C | 3.6% | 34.0hPa | 2.7V | 00:00:00 | 00:00:00 | 00:00:00 | |
| DO3MHA-11 | 2026-09-02 12:05:39 | 48.13877 | 12.40921 | 38° | 18km/h | 23428m | 5.1m/s | -52.5°C | 3.6% | 34.1hPa | 2.7V | 00:00:00 | 01:36:10 | 00:00:00 | |
| DG1MJG | 2026-09-02 12:05:38 | 48.13877 | 12.40921 | 38° | 13km/h | 23428m | 5.1m/s | -52.6°C | 0.9% | 34.1hPa | 2.7V | 00:00:00 | 00:00:00 | 00:00:00 | |
| DK5PH-5 | 2026-09-02 12:05:37 | 48.13871 | 12.40916 | 24° | 15km/h | 23417m | 5.1m/s | -52.6°C | 3.6% | 34.1hPa | 2.7V | 00:00:00 | 01:36:08 | 00:00:00 | |
| OE5DRO-10 | 2026-09-02 12:05:36 | 48.13867 | 12.40913 | 26° | 18km/h | 23412m | 4.6m/s | -52.7°C | 3.6% | 34.2hPa | 2.7V | 00:00:00 | 00:00:00 | 00:00:00 | |
| OE5WHR-10 | 2026-09-02 12:05:35 | 48.13863 | 12.40910 | 31° | 16km/h | 23407m | 5.8m/s | -53.0°C | 3.6% | 34.2hPa | 2.7V | 00:00:00 | 00:00:00 | 08:30:00 | |
| DO3MHA-11 | 2026-09-02 12:05:26 | 48.13824 | 12.40889 | 356° | 9km/h | 23358m | 4.9m/s | -53.2°C | 3.8% | 34.5hPa | 2.7V | 00:00:00 | 01:35:57 | 00:00:00 | |
| OE5DXL-15 | 2026-09-02 12:05:25 | 48.13820 | 12.40890 | 354° | 13km/h | 23353m | 5.7m/s | -53.3°C | 3.8% | 34.5hPa | 2.7V | 00:00:00 | 00:00:00 | 00:00:00 | |
| DG1MFX-10 | 2026-09-02 12:05:22 | 48.13812 | 12.40891 | 355° | 16km/h | 23342m | 4.9m/s | -53.5°C | 1.0% | 34.6hPa | 2.7V | 00:00:00 | 00:00:00 | 00:00:00 | |
| OE5REO-15 | 2026-09-02 12:05:21 | 48.13809 | 12.40891 | 357° | 15km/h | 23336m | 5.9m/s | -53.6°C | 1.0% | 34.6hPa | 2.7V | 00:00:00 | 00:00:00 | 00:00:00 | |
| OE8JPQ-2 | 2026-09-02 12:05:19 | 48.13799 | 12.40891 | 8° | 15km/h | 23321m | 4.8m/s | -53.6°C | 3.9% | 34.7hPa | 2.7V | 00:00:00 | 00:00:00 | 00:00:00 | |
| OE5DRO-10 | 2026-09-02 12:05:15 | 48.13781 | 12.40886 | 15° | 13km/h | 23301m | 5.8m/s | -53.4°C | 3.8% | 34.8hPa | 2.7V | 00:00:00 | 00:00:00 | 00:00:00 | |
| OE5WHR-10 | 2026-09-02 12:05:14 | 48.13778 | 12.40884 | 15° | 11km/h | 23295m | 5.6m/s | -53.2°C | 3.8% | 34.8hPa | 2.7V | 00:00:00 | 00:00:00 | 00:00:00 | |
| OM5KV | 2026-09-02 12:05:11 | 48.13774 | 12.40884 | 338° | 7km/h | 23286m | 4.7m/s | 0°C | 0% | 0hPa | 2.7V | 00:00:00 | 00:00:00 | 00:00:00 | |
| DO3MHA-11 | 2026-09-02 12:05:09 | 48.13768 | 12.40891 | 320° | 11km/h | 23270m | 4.6m/s | -53.3°C | 3.8% | 35.0hPa | 2.7V | 00:00:00 | 01:35:40 | 00:00:00 | |
| DK5PH-5 | 2026-09-02 12:05:07 | 48.13763 | 12.40897 | 320° | 11km/h | 23259m | 5.7m/s | -53.2°C | 3.8% | 35.0hPa | 2.7V | 00:00:00 | 01:35:38 | 00:00:00 | |
| DG1MFX-10 | 2026-09-02 12:05:02 | 48.13751 | 12.40910 | 325° | 18km/h | 23237m | 4.3m/s | -53.0°C | 1.0% | 35.2hPa | 2.7V | 00:00:00 | 00:00:00 | 00:00:00 | |
| OE8JPQ-2 | 2026-09-02 12:04:59 | 48.13740 | 12.40925 | 309° | 13km/h | 23217m | 5.5m/s | -53.1°C | 3.8% | 35.2hPa | 2.7V | 00:00:00 | 01:35:30 | 00:00:00 | |
| OE5DRO-10 | 2026-09-02 12:04:56 | 48.13737 | 12.40934 | 281° | 13km/h | 23199m | 6.5m/s | -53.0°C | 3.7% | 35.3hPa | 2.7V | 00:00:00 | 00:00:00 | 00:00:00 | |
| OE5DXL-15 | 2026-09-02 12:04:55 | 48.13736 | 12.40937 | 276° | 11km/h | 23194m | 4.6m/s | -53.0°C | 3.8% | 35.4hPa | 2.7V | 00:00:00 | 00:00:00 | 08:30:00 | |
| DO3MHA-11 | 2026-09-02 12:04:54 | 48.13736 | 12.40941 | 284° | 11km/h | 23189m | 3.9m/s | -53.2°C | 3.7% | 35.4hPa | 2.7V | 00:00:00 | 01:35:25 | 00:00:00 | |
| OE5HKT-10 | 2026-09-02 12:04:53 | 48.13735 | 12.40946 | 295° | 13km/h | 23184m | 6.3m/s | -53.3°C | 3.8% | 35.4hPa | 2.7V | 00:00:00 | 01:35:24 | 00:00:00 | |
| OE5REO-15 | 2026-09-02 12:04:47 | 48.13719 | 12.40977 | 298° | 16km/h | 23158m | 5.0m/s | -53.2°C | 0.9% | 35.6hPa | 2.7V | 00:00:00 | 00:00:00 | 00:00:00 | |
| DO3MHA-11 | 2026-09-02 12:04:43 | 48.13717 | 12.40988 | 139° | 9km/h | 23131m | 6.4m/s | -52.9°C | 3.8% | 35.7hPa | 2.7V | 00:00:00 | 01:35:14 | 00:00:00 | |
| DG1MFX-10 | 2026-09-02 12:04:41 | 48.13719 | 12.40986 | 140° | 9km/h | 23125m | 5.2m/s | -52.9°C | 1.0% | 35.8hPa | 2.7V | 00:00:00 | 00:00:00 | 00:00:00 | |
| OE8JPQ-2 | 2026-09-02 12:04:39 | 48.13721 | 12.40981 | 30° | 7km/h | 23111m | 5.7m/s | -52.9°C | 3.8% | 35.8hPa | 2.7V | 00:00:00 | 00:00:00 | 00:00:00 | |
| DK5PH-5 | 2026-09-02 12:04:37 | 48.13717 | 12.40983 | 324° | 7km/h | 23101m | 5.0m/s | -52.8°C | 3.7% | 35.9hPa | 2.7V | 00:00:00 | 01:35:08 | 00:00:00 | |
| BAUMI2-15 | 2026-09-02 12:04:34 | 48.13713 | 12.40994 | 281° | 7km/h | 23086m | 5.0m/s | -52.8°C | 3.7% | 36.0hPa | 2.7V | 00:00:00 | 01:35:05 | 08:30:00 | |
| DO3MHA-11 | 2026-09-02 12:04:33 | 48.13712 | 12.40999 | 280° | 7km/h | 23080m | 5.1m/s | -52.7°C | 3.7% | 36.0hPa | 2.7V | 00:00:00 | 01:35:04 | 08:30:00 | |
| OE5WHR-10 | 2026-09-02 12:04:32 | 48.13712 | 12.41002 | 279° | 7km/h | 23075m | 5.4m/s | -52.6°C | 3.7% | 36.0hPa | 2.7V | 00:00:00 | 00:00:00 | 00:00:00 | |
| OE5HKT-10 | 2026-09-02 12:04:31 | 48.13712 | 12.41004 | 265° | 7km/h | 23070m | 4.8m/s | -52.6°C | 3.7% | 36.1hPa | 2.7V | 00:00:00 | 00:00:00 | 00:00:00 | |
| BAUMI2-15 | 2026-09-02 12:04:29 | 48.13714 | 12.41007 | 198° | 7km/h | 23059m | 6.0m/s | -52.6°C | 3.7% | 36.1hPa | 2.7V | 00:00:00 | 01:35:00 | 00:00:00 | |
| OE5DXL-15 | 2026-09-02 12:04:25 | 48.13719 | 12.41003 | 89° | 7km/h | 23039m | 4.6m/s | -52.7°C | 3.8% | 36.2hPa | 2.7V | 00:00:00 | 00:00:00 | 00:00:00 | |
| BAUMI2-15 | 2026-09-02 12:04:24 | 48.13719 | 12.41001 | 62° | 5km/h | 23034m | 4.1m/s | -52.6°C | 3.8% | 36.3hPa | 2.7V | 00:00:00 | 01:34:55 | 00:00:00 | |
| DO3MHA-11 | 2026-09-02 12:04:23 | 48.13718 | 12.41000 | 48° | 7km/h | 23030m | 5.0m/s | -52.6°C | 3.7% | 36.3hPa | 2.7V | 00:00:00 | 01:34:54 | 00:00:00 | |
| DG1MFX-10 | 2026-09-02 12:04:21 | 48.13718 | 12.40999 | 0° | 0km/h | 23024m | 5.8m/s | -52.6°C | 1.0% | 36.4hPa | 2.7V | 00:00:00 | 00:00:00 | 00:00:00 | |
| OE8JPQ-2 | 2026-09-02 12:04:19 | 48.13718 | 12.41005 | 263° | 9km/h | 23008m | 6.0m/s | -52.5°C | 3.6% | 36.4hPa | 2.7V | 00:00:00 | 00:00:00 | 00:00:00 | |
| BAUMI2-15 | 2026-09-02 12:04:18 | 48.13718 | 12.41007 | 255° | 7km/h | 23002m | 5.0m/s | -52.6°C | 3.6% | 36.5hPa | 2.7V | 00:00:00 | 01:34:49 | 00:00:00 | |
| BAUMI2-15 | 2026-09-02 12:04:13 | 48.13727 | 12.41010 | 147° | 11km/h | 22976m | 6.3m/s | -52.5°C | 3.6% | 36.6hPa | 2.7V | 00:00:00 | 01:34:44 | 00:00:00 | |
| OE5WHR-10 | 2026-09-02 12:04:11 | 48.13729 | 12.41003 | 106° | 9km/h | 22965m | 4.5m/s | -52.3°C | 3.5% | 36.7hPa | 2.7V | 00:00:00 | 00:00:00 | 00:00:00 | |
| OE5HKT-10 | 2026-09-02 12:04:09 | 48.13731 | 12.40996 | 119° | 13km/h | 22954m | 5.2m/s | -52.5°C | 3.6% | 36.7hPa | 2.7V | 00:00:00 | 00:00:00 | 00:00:00 | |
| BAUMI2-15 | 2026-09-02 12:04:08 | 48.13732 | 12.40993 | 126° | 7km/h | 22949m | 4.7m/s | -52.5°C | 3.6% | 36.8hPa | 2.7V | 00:00:00 | 01:34:39 | 00:00:00 | |
| DK5PH-5 | 2026-09-02 12:04:07 | 48.13733 | 12.40991 | 126° | 7km/h | 22944m | 5.2m/s | -52.4°C | 3.6% | 36.8hPa | 2.7V | 00:00:00 | 01:34:38 | 00:00:00 | |
| DG1MJG | 2026-09-02 12:04:06 | 48.13733 | 12.40991 | 126° | 7km/h | 22944m | 5.3m/s | -52.4°C | 0.9% | 36.8hPa | 2.7V | 00:00:00 | 00:00:00 | 00:00:00 | |
| BAUMI2-15 | 2026-09-02 12:04:03 | 48.13738 | 12.40986 | 181° | 11km/h | 22922m | 5.8m/s | -52.5°C | 3.6% | 36.9hPa | 2.7V | 00:00:00 | 01:34:34 | 00:00:00 | |
| DO3MHA-11 | 2026-09-02 12:04:02 | 48.13741 | 12.40986 | 180° | 11km/h | 22917m | 5.0m/s | -52.5°C | 3.7% | 36.9hPa | 2.7V | 00:00:00 | 01:34:33 | 00:00:00 | |
| DG1MFX-10 | 2026-09-02 12:04:01 | 48.13741 | 12.40986 | 181° | 11km/h | 22917m | 5.0m/s | -52.6°C | 1.0% | 37.0hPa | 2.7V | 00:00:00 | 00:00:00 | 00:00:00 | |
| OE8JPQ-2 | 2026-09-02 12:03:59 | 48.13749 | 12.40982 | 137° | 7km/h | 22901m | 4.2m/s | -52.5°C | 3.6% | 37.0hPa | 2.7V | 00:00:00 | 01:34:30 | 00:00:00 | |
| BAUMI2-15 | 2026-09-02 12:03:58 | 48.13751 | 12.40979 | 135° | 11km/h | 22896m | 5.3m/s | -52.6°C | 3.6% | 37.1hPa | 2.7V | 00:00:00 | 01:34:29 | 00:00:00 | |
| OE5DXL-15 | 2026-09-02 12:03:55 | 48.13757 | 12.40969 | 119° | 7km/h | 22881m | 5.3m/s | -52.8°C | 3.7% | 37.2hPa | 2.7V | 00:00:00 | 00:00:00 | 00:00:00 | |
| BAUMI2-15 | 2026-09-02 12:03:53 | 48.13758 | 12.40962 | 87° | 7km/h | 22870m | 4.2m/s | -52.6°C | 3.7% | 37.2hPa | 2.7V | 00:00:00 | 01:34:24 | 00:00:00 | |
| DO3MHA-11 | 2026-09-02 12:03:52 | 48.13758 | 12.40960 | 95° | 7km/h | 22866m | 5.1m/s | -52.5°C | 3.6% | 37.2hPa | 2.7V | 00:00:00 | 01:34:23 | 00:00:00 | |
| OE5REO-15 | 2026-09-02 12:03:51 | 48.13758 | 12.40960 | 96° | 5km/h | 22866m | 5.1m/s | -52.5°C | 0.9% | 37.3hPa | 2.7V | 00:00:00 | 00:00:00 | 00:00:00 | |
| OE5WHR-10 | 2026-09-02 12:03:50 | 48.13760 | 12.40957 | 176° | 7km/h | 22855m | 4.4m/s | -52.4°C | 3.6% | 37.3hPa | 2.7V | 00:00:00 | 01:34:21 | 00:00:00 | |
| BAUMI2-15 | 2026-09-02 12:03:48 | 48.13764 | 12.40957 | 179° | 7km/h | 22845m | 5.6m/s | -52.5°C | 3.6% | 37.4hPa | 2.7V | 00:00:00 | 01:34:19 | 08:30:00 | |
| BAUMI2-15 | 2026-09-02 12:03:43 | 48.13771 | 12.40951 | 134° | 7km/h | 22819m | 5.5m/s | -52.3°C | 3.5% | 37.5hPa | 2.7V | 00:00:00 | 01:34:14 | 00:00:00 | |
| DO3MHA-11 | 2026-09-02 12:03:42 | 48.13771 | 12.40949 | 123° | 7km/h | 22813m | 5.0m/s | -52.4°C | 3.5% | 37.5hPa | 2.7V | 00:00:00 | 01:34:13 | 00:00:00 | |
| DG1MFX-10 | 2026-09-02 12:03:40 | 48.13772 | 12.40947 | 105° | 7km/h | 22808m | 5.8m/s | -52.5°C | 0.9% | 37.7hPa | 2.7V | 00:00:00 | 00:00:00 | 00:00:00 | |
| BAUMI2-15 | 2026-09-02 12:03:38 | 48.13774 | 12.40940 | 138° | 7km/h | 22793m | 5.9m/s | -52.5°C | 3.6% | 37.7hPa | 2.7V | 00:00:00 | 01:34:09 | 00:00:00 | |
| OE8JPQ-2 | 2026-09-02 12:03:36 | 48.13777 | 12.40937 | 170° | 5km/h | 22783m | 4.6m/s | -52.7°C | 3.7% | 37.7hPa | 2.7V | 00:00:00 | 00:00:00 | 08:30:00 | |
| DG1MJG | 2026-09-02 12:03:35 | 48.13777 | 12.40938 | 170° | 7km/h | 22783m | 4.7m/s | -52.8°C | 0.9% | 37.8hPa | 2.7V | 00:00:00 | 00:00:00 | 00:00:00 | |
| BAUMI2-15 | 2026-09-02 12:03:33 | 48.13782 | 12.40936 | 170° | 7km/h | 22768m | 5.2m/s | -52.6°C | 3.7% | 37.8hPa | 2.7V | 00:00:00 | 01:34:04 | 00:00:00 | |
| DO3MHA-11 | 2026-09-02 12:03:32 | 48.13783 | 12.40936 | 166° | 7km/h | 22762m | 5.4m/s | -52.7°C | 3.7% | 37.8hPa | 2.7V | 00:00:00 | 01:34:03 | 00:00:00 | |
| OE5WHR-10 | 2026-09-02 12:03:29 | 48.13787 | 12.40931 | 97° | 5km/h | 22748m | 5.9m/s | -52.7°C | 3.7% | 37.9hPa | 2.7V | 00:00:00 | 00:00:00 | 00:00:00 | |
| BAUMI2-15 | 2026-09-02 12:03:28 | 48.13787 | 12.40927 | 71° | 9km/h | 22743m | 5.3m/s | -52.6°C | 3.7% | 38.0hPa | 2.7V | 00:00:00 | 01:33:59 | 00:00:00 | |
| OE5DXL-15 | 2026-09-02 12:03:25 | 48.13784 | 12.40917 | 83° | 5km/h | 22728m | 5.4m/s | -52.7°C | 3.6% | 38.1hPa | 2.7V | 00:00:00 | 00:00:00 | 00:00:00 | |
| BAUMI2-15 | 2026-09-02 12:03:23 | 48.13784 | 12.40913 | 107° | 2km/h | 22719m | 4.0m/s | -52.7°C | 3.7% | 38.1hPa | 2.7V | 00:00:00 | 01:33:54 | 00:00:00 | |
| DO3MHA-11 | 2026-09-02 12:03:22 | 48.13784 | 12.40912 | 63° | 5km/h | 22714m | 5.9m/s | -52.7°C | 3.7% | 38.1hPa | 2.7V | 00:00:00 | 01:33:53 | 00:00:00 | |
| DG1MFX-10 | 2026-09-02 12:03:19 | 48.13784 | 12.40914 | 300° | 4km/h | 22704m | 4.0m/s | -52.9°C | 1.0% | 38.3hPa | 2.7V | 00:00:00 | 00:00:00 | 00:00:00 | |
| BAUMI2-15 | 2026-09-02 12:03:18 | 48.13784 | 12.40914 | 173° | 7km/h | 22694m | 5.7m/s | -52.8°C | 3.7% | 38.3hPa | 2.7V | 00:00:00 | 01:33:49 | 00:00:00 | |
| OE8JPQ-2 | 2026-09-02 12:03:16 | 48.13788 | 12.40912 | 144° | 5km/h | 22684m | 4.6m/s | -52.5°C | 3.7% | 38.3hPa | 2.7V | 00:00:00 | 00:00:00 | 00:00:00 | |
| BAUMI2-15 | 2026-09-02 12:03:13 | 48.13791 | 12.40904 | 90° | 5km/h | 22669m | 4.1m/s | -52.5°C | 3.6% | 38.4hPa | 2.7V | 00:00:00 | 01:33:44 | 00:00:00 | |
| DO3MHA-11 | 2026-09-02 12:03:12 | 48.13791 | 12.40902 | 86° | 7km/h | 22665m | 5.1m/s | -52.6°C | 3.6% | 38.4hPa | 2.7V | 00:00:00 | 01:33:43 | 00:00:00 | |
| OE5WHR-10 | 2026-09-02 12:03:08 | 48.13793 | 12.40897 | 220° | 5km/h | 22644m | 6.0m/s | -52.6°C | 3.6% | 38.6hPa | 2.7V | 00:00:00 | 00:00:00 | 00:00:00 | |
| DG1MJG | 2026-09-02 12:03:05 | 48.13793 | 12.40899 | 200° | 4km/h | 22634m | 4.5m/s | -52.7°C | 0.9% | 38.7hPa | 2.7V | 00:00:00 | 00:00:00 | 00:00:00 | |
| DK5PH-5 | 2026-09-02 12:03:03 | 48.13799 | 12.40895 | 148° | 7km/h | 22619m | 3.8m/s | -52.8°C | 3.7% | 38.7hPa | 2.7V | 00:00:00 | 01:33:34 | 00:00:00 | |
| OE5REO-15 | 2026-09-02 12:03:02 | 48.13799 | 12.40895 | 148° | 11km/h | 22619m | 3.8m/s | -52.8°C | 0.9% | 38.8hPa | 2.7V | 00:00:00 | 00:00:00 | 00:00:00 | |
| BAUMI2-15 | 2026-09-02 12:02:58 | 48.13805 | 12.40890 | 212° | 5km/h | 22595m | 5.4m/s | -52.7°C | 3.7% | 38.8hPa | 2.7V | 00:00:00 | 01:33:29 | 00:00:00 | |
| OE5DXL-15 | 2026-09-02 12:02:55 | 48.13803 | 12.40893 | 330° | 7km/h | 22579m | 5.6m/s | -52.6°C | 3.7% | 38.9hPa | 2.7V | 00:00:00 | 00:00:00 | 00:00:00 | |
| BAUMI2-15 | 2026-09-02 12:02:53 | 48.13799 | 12.40897 | 336° | 4km/h | 22570m | 4.8m/s | -52.6°C | 3.6% | 39.0hPa | 2.7V | 00:00:00 | 01:33:24 | 00:00:00 | |
| BAUMI2-15 | 2026-09-02 12:02:49 | 48.13796 | 12.40899 | 253° | 7km/h | 22544m | 4.6m/s | -52.9°C | 3.7% | 39.2hPa | 2.7V | 00:00:00 | 01:33:19 | 00:00:00 | |
| OE5REO-15 | 2026-09-02 12:02:48 | 48.13796 | 12.40899 | 254° | 2km/h | 22544m | 4.7m/s | -53.0°C | 0.9% | 39.2hPa | 2.7V | 00:00:00 | 00:00:00 | 00:00:00 | |
| OE5WHR-10 | 2026-09-02 12:02:47 | 48.13797 | 12.40901 | 226° | 9km/h | 22539m | 5.7m/s | -53.0°C | 3.7% | 39.2hPa | 2.7V | 00:00:00 | 01:33:18 | 00:00:00 | |
| BAUMI2-15 | 2026-09-02 12:02:43 | 48.13802 | 12.40915 | 269° | 13km/h | 22519m | 5.8m/s | -52.7°C | 3.6% | 39.3hPa | 2.7V | 00:00:00 | 01:33:14 | 00:00:00 | |
| DG1MFX-10 | 2026-09-02 12:02:38 | 48.13799 | 12.40937 | 308° | 7km/h | 22494m | 5.6m/s | -53.0°C | 1.0% | 39.5hPa | 2.7V | 00:00:00 | 00:00:00 | 00:00:00 | |
| OE8JPQ-2 | 2026-09-02 12:02:35 | 48.13795 | 12.40941 | 324° | 9km/h | 22479m | 4.9m/s | -52.7°C | 3.7% | 39.6hPa | 2.7V | 00:00:00 | 00:00:00 | 00:00:00 | |
| DK5PH-5 | 2026-09-02 12:02:33 | 48.13796 | 12.40942 | 194° | 13km/h | 22469m | 4.0m/s | -52.7°C | 3.6% | 39.6hPa | 2.7V | 00:00:00 | 01:33:04 | 00:00:00 | |
| OE5REO-15 | 2026-09-02 12:02:32 | 48.13799 | 12.40943 | 200° | 9km/h | 22465m | 3.9m/s | -52.8°C | 1.0% | 39.7hPa | 2.7V | 00:00:00 | 00:00:00 | 00:00:00 | |
| OE5WHR-10 | 2026-09-02 12:02:26 | 48.13802 | 12.40957 | 253° | 15km/h | 22434m | 5.3m/s | -52.8°C | 3.5% | 39.8hPa | 2.7V | 00:00:00 | 00:00:00 | 08:30:00 | |
| OE5DXL-15 | 2026-09-02 12:02:25 | 48.13803 | 12.40961 | 244° | 15km/h | 22429m | 4.4m/s | -52.8°C | 3.6% | 39.9hPa | 2.7V | 00:00:00 | 00:00:00 | 00:00:00 | |
| OE5MMP-10 | 2026-09-02 12:02:21 | 48.13812 | 12.40981 | 206° | 13km/h | 22405m | 5.8m/s | -53.0°C | 3.8% | 40.0hPa | 2.7V | 00:00:00 | 01:32:51 | 00:00:00 | |
| DG1MFX-10 | 2026-09-02 12:02:17 | 48.13824 | 12.40980 | 160° | 16km/h | 22389m | 5.8m/s | -53.2°C | 1.0% | 40.2hPa | 2.7V | 00:00:00 | 00:00:00 | 00:00:00 | |
| OE5REO-15 | 2026-09-02 12:02:16 | 48.13824 | 12.40980 | 160° | 16km/h | 22389m | 5.8m/s | -53.2°C | 1.0% | 40.2hPa | 2.7V | 00:00:00 | 00:00:00 | 00:00:00 | |
| OE8JPQ-2 | 2026-09-02 12:02:12 | 48.13838 | 12.40970 | 183° | 15km/h | 22364m | 4.3m/s | -52.9°C | 3.7% | 40.3hPa | 2.7V | 00:00:00 | 00:00:00 | 00:00:00 | |
| OE5MMP-10 | 2026-09-02 12:02:10 | 48.13843 | 12.40972 | 214° | 13km/h | 22353m | 5.0m/s | -53.1°C | 3.7% | 40.4hPa | 2.7V | 00:00:00 | 01:32:41 | 00:00:00 | |
| OE5WHR-10 | 2026-09-02 12:02:05 | 48.13862 | 12.40984 | 180° | 15km/h | 22328m | 5.9m/s | -53.1°C | 3.7% | 40.5hPa | 2.7V | 00:00:00 | 00:00:00 | 00:00:00 | |
| DG1MJG | 2026-09-02 12:02:04 | 48.13862 | 12.40984 | 180° | 16km/h | 22328m | 6.0m/s | -53.1°C | 0.9% | 40.6hPa | 2.7V | 00:00:00 | 00:00:00 | 00:00:00 | |
| OE5REO-15 | 2026-09-02 12:02:00 | 48.13874 | 12.40971 | 138° | 18km/h | 22308m | 5.4m/s | -53.1°C | 1.0% | 40.7hPa | 2.7V | 00:00:00 | 00:00:00 | 00:00:00 | |
| DG1MFX-10 | 2026-09-02 12:01:56 | 48.13886 | 12.40960 | 169° | 9km/h | 22288m | 5.2m/s | -53.1°C | 1.0% | 40.8hPa | 2.7V | 00:00:00 | 00:00:00 | 00:00:00 | |
| OE5MMP-10 | 2026-09-02 12:01:55 | 48.13891 | 12.40961 | 195° | 15km/h | 22278m | 6.0m/s | -52.9°C | 3.8% | 40.8hPa | 2.7V | 00:00:00 | 01:32:26 | 00:00:00 | |
| OE8JPQ-2 | 2026-09-02 12:01:48 | 48.13916 | 12.40966 | 163° | 13km/h | 22242m | 4.4m/s | -52.7°C | 3.7% | 41.1hPa | 2.7V | 00:00:00 | 01:32:19 | 00:00:00 | |
| OE5MMP-10 | 2026-09-02 12:01:45 | 48.13925 | 12.40957 | 127° | 11km/h | 22226m | 4.5m/s | -52.7°C | 3.7% | 41.1hPa | 2.7V | 00:00:00 | 01:32:16 | 00:00:00 | |
| OE5WHR-10 | 2026-09-02 12:01:44 | 48.13927 | 12.40953 | 128° | 11km/h | 22221m | 5.0m/s | -52.7°C | 3.7% | 41.2hPa | 2.7V | 00:00:00 | 01:32:15 | 00:00:00 | |
| DO3MHA-11 | 2026-09-02 12:01:42 | 48.13932 | 12.40948 | 159° | 13km/h | 22211m | 4.5m/s | -52.6°C | 3.7% | 41.3hPa | 2.7V | 00:00:00 | 01:32:13 | 00:00:00 | |
| PETON7-10 | 2026-09-02 12:01:37 | 48.13944 | 12.40948 | 180° | 13km/h | 22186m | 5.8m/s | -52.5°C | 3.7% | 41.4hPa | 2.7V | 00:00:00 | 00:00:00 | 00:00:00 | |
| DG1MFX-10 | 2026-09-02 12:01:36 | 48.13948 | 12.40947 | 174° | 16km/h | 22180m | 4.9m/s | -52.4°C | 1.0% | 41.5hPa | 2.7V | 00:00:00 | 00:00:00 | 00:00:00 | |
| OE5MMP-10 | 2026-09-02 12:01:34 | 48.13955 | 12.40945 | 161° | 11km/h | 22169m | 5.0m/s | -52.4°C | 3.6% | 41.6hPa | 2.7V | 00:00:00 | 01:32:05 | 08:30:00 | |
| DK5PH-5 | 2026-09-02 12:01:33 | 48.13958 | 12.40944 | 158° | 11km/h | 22164m | 4.2m/s | -52.3°C | 3.6% | 41.6hPa | 2.7V | 00:00:00 | 01:32:04 | 08:30:00 | |
| DO3MHA-11 | 2026-09-02 12:01:32 | 48.13960 | 12.40942 | 160° | 11km/h | 22160m | 5.8m/s | -52.3°C | 3.6% | 41.6hPa | 2.7V | 00:00:00 | 01:32:03 | 08:30:00 | |
| OE5REO-15 | 2026-09-02 12:01:29 | 48.13967 | 12.40938 | 157° | 13km/h | 22149m | 4.5m/s | -52.3°C | 0.9% | 41.7hPa | 2.7V | 00:00:00 | 00:00:00 | 00:00:00 | |
| OE8JPQ-2 | 2026-09-02 12:01:28 | 48.13971 | 12.40935 | 133° | 11km/h | 22139m | 5.1m/s | -52.2°C | 3.6% | 41.7hPa | 2.7V | 00:00:00 | 00:00:00 | 00:00:00 | |
| OE5DXL-15 | 2026-09-02 12:01:25 | 48.13976 | 12.40927 | 144° | 11km/h | 22124m | 5.0m/s | -52.2°C | 3.6% | 41.8hPa | 2.7V | 00:00:00 | 00:00:00 | 00:00:00 | |
| OE5MMP-10 | 2026-09-02 12:01:24 | 48.13979 | 12.40924 | 146° | 13km/h | 22119m | 5.0m/s | -52.3°C | 3.5% | 41.9hPa | 2.7V | 00:00:00 | 01:31:55 | 00:00:00 | |
| DO3MHA-11 | 2026-09-02 12:01:22 | 48.13984 | 12.40918 | 142° | 11km/h | 22108m | 5.1m/s | -52.2°C | 3.6% | 41.9hPa | 2.7V | 00:00:00 | 01:31:53 | 00:00:00 | |
| PETON7-10 | 2026-09-02 12:01:21 | 48.13986 | 12.40915 | 142° | 11km/h | 22103m | 4.3m/s | -52.3°C | 3.6% | 42.0hPa | 2.7V | 00:00:00 | 00:00:00 | 00:00:00 | |
| OE5REO-15 | 2026-09-02 12:01:14 | 48.14003 | 12.40900 | 124° | 7km/h | 22067m | 5.2m/s | -52.4°C | 0.9% | 42.2hPa | 2.7V | 00:00:00 | 00:00:00 | 00:00:00 | |
| DO3MHA-11 | 2026-09-02 12:01:12 | 48.14005 | 12.40894 | 107° | 13km/h | 22057m | 4.2m/s | -52.3°C | 3.6% | 42.3hPa | 2.7V | 00:00:00 | 01:31:43 | 00:00:00 | |
| OE8JPQ-2 | 2026-09-02 12:01:08 | 48.14007 | 12.40875 | 112° | 11km/h | 22036m | 5.8m/s | -52.3°C | 3.5% | 42.4hPa | 2.7V | 00:00:00 | 00:00:00 | 00:00:00 | |
| OE5MMP-10 | 2026-09-02 12:01:04 | 48.14016 | 12.40860 | 144° | 9km/h | 22016m | 5.7m/s | -52.3°C | 3.6% | 42.5hPa | 2.7V | 00:00:00 | 01:31:35 | 00:00:00 | |
| DO3MHA-11 | 2026-09-02 12:01:03 | 48.14018 | 12.40858 | 68° | 9km/h | 22007m | 4.3m/s | -52.3°C | 3.5% | 42.6hPa | 2.7V | 00:00:00 | 01:31:33 | 00:00:00 | |
| OE5WHR-10 | 2026-09-02 12:01:02 | 48.14018 | 12.40858 | 68° | 7km/h | 22007m | 4.3m/s | -52.3°C | 3.5% | 42.6hPa | 2.7V | 00:00:00 | 00:00:00 | 00:00:00 | |
| PETON7-10 | 2026-09-02 12:01:01 | 48.14017 | 12.40856 | 70° | 7km/h | 22002m | 5.5m/s | -52.3°C | 3.5% | 42.6hPa | 2.7V | 00:00:00 | 01:31:32 | 00:00:00 | |
| OM5KV | 2026-09-02 12:01:00 | 48.14017 | 12.40856 | 71° | 4km/h | 22002m | 5.6m/s | -52.4°C | 0.9% | 42.7hPa | 2.7V | 00:00:00 | 00:00:00 | 00:00:00 | |
| OM5KV | 2026-09-02 12:00:58 | 48.14016 | 12.40848 | 78° | 11km/h | 21987m | 4.4m/s | -52.6°C | 0.9% | 42.8hPa | 2.7V | 00:00:00 | 00:00:00 | 00:00:00 | |
| OE5DXL-15 | 2026-09-02 12:00:55 | 48.14013 | 12.40834 | 71° | 11km/h | 21971m | 4.6m/s | -52.6°C | 3.7% | 42.8hPa | 2.7V | 00:00:00 | 00:00:00 | 00:00:00 | |
| OE5MMP-10 | 2026-09-02 12:00:54 | 48.14012 | 12.40830 | 87° | 7km/h | 21966m | 5.9m/s | -52.6°C | 3.7% | 42.9hPa | 2.7V | 00:00:00 | 01:31:25 | 00:00:00 | |
| OM5KV | 2026-09-02 12:00:52 | 48.14013 | 12.40822 | 111° | 9km/h | 21956m | 4.4m/s | -52.6°C | 1.0% | 43.0hPa | 2.7V | 00:00:00 | 00:00:00 | 00:00:00 | |
| OM5KV | 2026-09-02 12:00:50 | 48.14014 | 12.40819 | 105° | 7km/h | 21951m | 5.5m/s | -52.7°C | 0.9% | 43.0hPa | 2.7V | 00:00:00 | 00:00:00 | 00:00:00 | |
| OM5KV | 2026-09-02 12:00:49 | 48.14014 | 12.40817 | 89° | 5km/h | 21946m | 5.2m/s | -52.7°C | 0.9% | 43.1hPa | 2.7V | 00:00:00 | 00:00:00 | 00:00:00 | |
| OE8JPQ-2 | 2026-09-02 12:00:48 | 48.14014 | 12.40812 | 106° | 9km/h | 21930m | 5.2m/s | -52.7°C | 3.8% | 43.1hPa | 2.7V | 00:00:00 | 01:31:18 | 00:00:00 | |
| OM5KV | 2026-09-02 12:00:47 | 48.14014 | 12.40812 | 107° | 5km/h | 21930m | 5.2m/s | -52.7°C | 1.0% | 43.2hPa | 2.7V | 00:00:00 | 00:00:00 | 00:00:00 | |
| PETON7-10 | 2026-09-02 12:00:46 | 48.14014 | 12.40810 | 93° | 13km/h | 21925m | 4.4m/s | -52.7°C | 3.7% | 43.1hPa | 2.7V | 00:00:00 | 00:00:00 | 08:30:00 | |
| OM5KV | 2026-09-02 12:00:44 | 48.14013 | 12.40806 | 46° | 7km/h | 21915m | 4.7m/s | -52.7°C | 0.9% | 43.3hPa | 2.7V | 00:00:00 | 00:00:00 | 00:00:00 | |
| OE5REO-15 | 2026-09-02 12:00:42 | 48.14012 | 12.40804 | 43° | 7km/h | 21910m | 3.8m/s | -52.6°C | 0.9% | 43.3hPa | 2.7V | 00:00:00 | 00:00:00 | 00:00:00 | |
| OE5WHR-10 | 2026-09-02 12:00:41 | 48.14010 | 12.40800 | 94° | 13km/h | 21900m | 5.4m/s | -52.6°C | 3.7% | 43.3hPa | 2.7V | 00:00:00 | 01:31:12 | 00:00:00 | |
| OM5KV | 2026-09-02 12:00:40 | 48.14010 | 12.40800 | 95° | 7km/h | 21900m | 5.5m/s | -52.6°C | 0.9% | 43.4hPa | 2.7V | 00:00:00 | 00:00:00 | 00:00:00 | |
| OM5KV | 2026-09-02 12:00:37 | 48.14012 | 12.40790 | 104° | 11km/h | 21885m | 5.8m/s | -52.5°C | 0.9% | 43.5hPa | 2.7V | 00:00:00 | 00:00:00 | 00:00:00 | |
| OM5KV | 2026-09-02 12:00:35 | 48.14016 | 12.40775 | 118° | 18km/h | 21868m | 6.4m/s | -52.5°C | 0.9% | 43.6hPa | 2.7V | 00:00:00 | 00:00:00 | 00:00:00 | |
| OE5MMP-10 | 2026-09-02 12:00:34 | 48.14018 | 12.40768 | 123° | 15km/h | 21862m | 4.9m/s | -52.3°C | 3.6% | 43.6hPa | 2.7V | 00:00:00 | 01:31:05 | 00:00:00 | |
| DK5PH-5 | 2026-09-02 12:00:33 | 48.14021 | 12.40761 | 121° | 15km/h | 21858m | 4.6m/s | -52.3°C | 3.7% | 43.6hPa | 2.7V | 00:00:00 | 01:31:04 | 00:00:00 | |
| PETON7-10 | 2026-09-02 12:00:30 | 48.14027 | 12.40744 | 122° | 13km/h | 21843m | 4.3m/s | -52.2°C | 3.7% | 43.7hPa | 2.7V | 00:00:00 | 00:00:00 | 00:00:00 | |
| OM5KV | 2026-09-02 12:00:29 | 48.14029 | 12.40741 | 130° | 11km/h | 21838m | 5.6m/s | -52.2°C | 0.9% | 43.8hPa | 2.7V | 00:00:00 | 00:00:00 | 00:00:00 | |
| OE5REO-15 | 2026-09-02 12:00:27 | 48.14033 | 12.40735 | 134° | 11km/h | 21828m | 4.7m/s | -52.2°C | 0.9% | 43.9hPa | 2.7V | 00:00:00 | 00:00:00 | 00:00:00 | |
| OM5KV | 2026-09-02 12:00:26 | 48.14033 | 12.40735 | 134° | 11km/h | 21828m | 4.7m/s | -52.2°C | 0.9% | 43.9hPa | 2.7V | 00:00:00 | 00:00:00 | 00:00:00 | |
| OE5MMP-10 | 2026-09-02 12:00:25 | 48.14036 | 12.40726 | 111° | 15km/h | 21812m | 4.1m/s | -52.1°C | 3.6% | 43.9hPa | 2.7V | 00:00:00 | 01:30:55 | 00:00:00 | |
| OM5KV | 2026-09-02 12:00:22 | 48.14037 | 12.40723 | 124° | 11km/h | 21807m | 6.1m/s | -52.1°C | 0.9% | 44.0hPa | 2.7V | 00:00:00 | 00:00:00 | 00:00:00 | |
| OM5KV | 2026-09-02 12:00:20 | 48.14045 | 12.40710 | 135° | 16km/h | 21791m | 5.2m/s | -52.0°C | 0.9% | 44.1hPa | 2.7V | 00:00:00 | 00:00:00 | 00:00:00 | |
| OM5KV | 2026-09-02 12:00:16 | 48.14053 | 12.40697 | 136° | 16km/h | 21775m | 5.1m/s | -52.0°C | 0.9% | 44.2hPa | 2.7V | 00:00:00 | 00:00:00 | 00:00:00 | |
| PETON7-10 | 2026-09-02 12:00:15 | 48.14060 | 12.40689 | 149° | 18km/h | 21765m | 4.4m/s | -51.9°C | 3.5% | 44.2hPa | 2.7V | 00:00:00 | 01:30:46 | 00:00:00 | |
| OE5MMP-10 | 2026-09-02 12:00:14 | 48.14064 | 12.40686 | 151° | 15km/h | 21760m | 4.4m/s | -51.8°C | 3.5% | 44.3hPa | 2.7V | 00:00:00 | 01:30:45 | 00:00:00 | |
| DG1MFX-10 | 2026-09-02 12:00:13 | 48.14067 | 12.40683 | 150° | 15km/h | 21755m | 6.0m/s | -51.9°C | 0.9% | 44.4hPa | 2.7V | 00:00:00 | 00:00:00 | 00:00:00 | |
| OM5KV | 2026-09-02 12:00:11 | 48.14072 | 12.40678 | 155° | 11km/h | 21744m | 5.0m/s | -51.9°C | 0.9% | 44.4hPa | 2.7V | 00:00:00 | 00:00:00 | 00:00:00 | |
| BAUMI2-15 | 2026-09-02 12:00:10 | 48.14075 | 12.40676 | 164° | 15km/h | 21739m | 6.0m/s | -52.0°C | 3.5% | 44.4hPa | 2.7V | 00:00:00 | 01:30:41 | 00:00:00 | |
| OM5KV | 2026-09-02 12:00:07 | 48.14082 | 12.40673 | 163° | 15km/h | 21729m | 4.3m/s | -52.1°C | 0.9% | 44.6hPa | 2.7V | 00:00:00 | 00:00:00 | 00:00:00 | |
| OE8JPQ-2 | 2026-09-02 12:00:06 | 48.14089 | 12.40669 | 141° | 20km/h | 21718m | 4.8m/s | -52.1°C | 3.6% | 44.6hPa | 2.7V | 00:00:00 | 00:00:00 | 00:00:00 | |
| OM5KV | 2026-09-02 12:00:04 | 48.14096 | 12.40659 | 136° | 22km/h | 21708m | 6.3m/s | -52.2°C | 0.9% | 44.7hPa | 2.7V | 00:00:00 | 00:00:00 | 00:00:00 | |
| DG1MJG | 2026-09-02 12:00:03 | 48.14096 | 12.40659 | 136° | 22km/h | 21708m | 6.3m/s | -52.2°C | 0.9% | 44.7hPa | 2.7V | 00:00:00 | 00:00:00 | 00:00:00 | |
| PETON7-10 | 2026-09-02 12:00:00 | 48.14116 | 12.40629 | 132° | 20km/h | 21687m | 5.3m/s | -52.1°C | 3.6% | 44.8hPa | 2.7V | 00:00:00 | 00:00:00 | 00:00:00 | |
| OE5WHR-10 | 2026-09-02 11:59:59 | 48.14120 | 12.40622 | 132° | 18km/h | 21682m | 4.7m/s | -52.2°C | 3.6% | 44.8hPa | 2.7V | 00:00:00 | 00:00:00 | 00:00:00 | |
| OE5DXL-15 | 2026-09-02 11:59:55 | 48.14136 | 12.40599 | 141° | 16km/h | 21662m | 5.3m/s | -52.1°C | 3.6% | 45.0hPa | 2.7V | 00:00:00 | 00:00:00 | 00:00:00 | |
| OM5KV | 2026-09-02 11:59:54 | 48.14140 | 12.40594 | 137° | 18km/h | 21656m | 5.6m/s | -52.2°C | 0.9% | 45.0hPa | 2.7V | 00:00:00 | 00:00:00 | 00:00:00 | |
| DG1MFX-10 | 2026-09-02 11:59:52 | 48.14143 | 12.40589 | 135° | 16km/h | 21651m | 4.7m/s | -52.2°C | 0.9% | 45.1hPa | 2.7V | 00:00:00 | 00:00:00 | 00:00:00 | |
| BAUMI2-15 | 2026-09-02 11:59:49 | 48.14158 | 12.40572 | 141° | 16km/h | 21631m | 5.2m/s | -52.1°C | 3.6% | 45.2hPa | 2.7V | 00:00:00 | 01:30:20 | 00:00:00 | |
| OM5KV | 2026-09-02 11:59:47 | 48.14161 | 12.40568 | 131° | 16km/h | 21626m | 5.6m/s | -52.1°C | 0.9% | 45.3hPa | 2.7V | 00:00:00 | 00:00:00 | 00:00:00 | |
| PETON7-10 | 2026-09-02 11:59:45 | 48.14167 | 12.40552 | 123° | 15km/h | 21611m | 5.6m/s | -52.1°C | 3.6% | 45.3hPa | 2.7V | 00:00:00 | 00:00:00 | 00:00:00 | |
| OE5MMP-10 | 2026-09-02 11:59:44 | 48.14170 | 12.40547 | 132° | 16km/h | 21605m | 5.0m/s | -52.0°C | 3.5% | 45.4hPa | 2.7V | 00:00:00 | 01:30:15 | 00:00:00 | |
| OM5KV | 2026-09-02 11:59:42 | 48.14176 | 12.40538 | 132° | 16km/h | 21596m | 4.9m/s | -52.0°C | 0.9% | 45.5hPa | 2.7V | 00:00:00 | 00:00:00 | 00:00:00 | |
| OM5KV | 2026-09-02 11:59:41 | 48.14176 | 12.40538 | 132° | 16km/h | 21596m | 4.9m/s | -52.0°C | 0.9% | 45.5hPa | 2.7V | 00:00:00 | 00:00:00 | 00:00:00 | |
| OM5KV | 2026-09-02 11:59:40 | 48.14178 | 12.40532 | 124° | 16km/h | 21591m | 5.6m/s | -52.1°C | 0.9% | 45.5hPa | 2.7V | 00:00:00 | 00:00:00 | 00:00:00 | |
| BAUMI2-15 | 2026-09-02 11:59:39 | 48.14182 | 12.40521 | 117° | 15km/h | 21580m | 4.9m/s | -52.1°C | 3.6% | 45.5hPa | 2.7V | 00:00:00 | 01:30:10 | 00:00:00 | |
| OE5WHR-10 | 2026-09-02 11:59:38 | 48.14184 | 12.40516 | 124° | 13km/h | 21575m | 5.9m/s | -52.1°C | 3.6% | 45.6hPa | 2.7V | 00:00:00 | 01:30:09 | 00:00:00 | |
| OE5MMP-10 | 2026-09-02 11:59:35 | 48.14190 | 12.40498 | 93° | 13km/h | 21555m | 5.0m/s | -51.9°C | 3.7% | 45.7hPa | 2.7V | 00:00:00 | 01:30:05 | 00:00:00 | |
| DK5PH-5 | 2026-09-02 11:59:33 | 48.14190 | 12.40493 | 88° | 16km/h | 21550m | 4.4m/s | -51.9°C | 3.7% | 45.8hPa | 2.7V | 00:00:00 | 01:30:04 | 00:00:00 | |
| DG1MJG | 2026-09-02 11:59:32 | 48.14190 | 12.40493 | 88° | 15km/h | 21550m | 4.4m/s | -52.0°C | 1.0% | 45.8hPa | 2.7V | 00:00:00 | 00:00:00 | 00:00:00 | |
| DG1MFX-10 | 2026-09-02 11:59:31 | 48.14190 | 12.40487 | 92° | 15km/h | 21545m | 5.6m/s | -52.0°C | 1.0% | 45.8hPa | 2.7V | 00:00:00 | 00:00:00 | 00:00:00 | |
| PETON7-10 | 2026-09-02 11:59:30 | 48.14191 | 12.40477 | 98° | 15km/h | 21534m | 5.0m/s | -52.0°C | 3.6% | 45.9hPa | 2.7V | 00:00:00 | 01:30:01 | 00:00:00 | |
| OE5DXL-15 | 2026-09-02 11:59:25 | 48.14189 | 12.40454 | 82° | 16km/h | 21509m | 5.3m/s | -51.9°C | 3.5% | 46.0hPa | 2.7V | 00:00:00 | 01:29:56 | 00:00:00 | |
| OE5MMP-10 | 2026-09-02 11:59:24 | 48.14188 | 12.40451 | 73° | 15km/h | 21505m | 4.1m/s | -51.8°C | 3.5% | 46.1hPa | 2.7V | 00:00:00 | 01:29:55 | 00:00:00 | |
| OM5KV | 2026-09-02 11:59:23 | 48.14188 | 12.40447 | 59° | 11km/h | 21500m | 5.0m/s | -51.8°C | 0.9% | 46.2hPa | 2.7V | 00:00:00 | 00:00:00 | 00:00:00 | |
| OE8JPQ-2 | 2026-09-02 11:59:21 | 48.14183 | 12.40440 | 46° | 20km/h | 21489m | 4.8m/s | -51.7°C | 3.5% | 46.2hPa | 2.7V | 00:00:00 | 00:00:00 | 00:00:00 | |
| BAUMI2-15 | 2026-09-02 11:59:19 | 48.14177 | 12.40430 | 58° | 16km/h | 21478m | 5.7m/s | -51.8°C | 3.6% | 46.3hPa | 2.7V | 00:00:00 | 01:29:50 | 00:00:00 | |
| OE5WHR-10 | 2026-09-02 11:59:17 | 48.14173 | 12.40419 | 59° | 16km/h | 21467m | 6.1m/s | -51.8°C | 3.6% | 46.4hPa | 2.7V | 00:00:00 | 00:00:00 | 08:30:00 | |
| PETON7-10 | 2026-09-02 11:59:15 | 48.14168 | 12.40408 | 50° | 18km/h | 21456m | 4.3m/s | -51.7°C | 3.5% | 46.4hPa | 2.7V | 00:00:00 | 00:00:00 | 00:00:00 | |
| OE5MMP-10 | 2026-09-02 11:59:14 | 48.14165 | 12.40404 | 50° | 16km/h | 21451m | 5.4m/s | -51.7°C | 3.5% | 46.5hPa | 2.7V | 00:00:00 | 01:29:45 | 00:00:00 | |
| DG1MFX-10 | 2026-09-02 11:59:11 | 48.14162 | 12.40397 | 57° | 9km/h | 21441m | 4.1m/s | -51.6°C | 0.9% | 46.6hPa | 2.7V | 00:00:00 | 00:00:00 | 00:00:00 | |
| BAUMI2-15 | 2026-09-02 11:59:09 | 48.14156 | 12.40386 | 48° | 22km/h | 21426m | 4.7m/s | -51.6°C | 3.5% | 46.7hPa | 2.7V | 00:00:00 | 01:29:40 | 00:00:00 | |
| OE5REO-15 | 2026-09-02 11:59:08 | 48.14156 | 12.40386 | 49° | 20km/h | 21426m | 4.8m/s | -51.6°C | 0.9% | 46.7hPa | 2.7V | 00:00:00 | 00:00:00 | 00:00:00 | |
| OM5KV | 2026-09-02 11:59:07 | 48.14153 | 12.40380 | 49° | 24km/h | 21422m | 4.6m/s | -51.6°C | 0.9% | 46.7hPa | 2.7V | 00:00:00 | 00:00:00 | 00:00:00 | |
| OE5MMP-10 | 2026-09-02 11:59:04 | 48.14137 | 12.40352 | 52° | 15km/h | 21401m | 4.5m/s | -51.5°C | 3.4% | 46.8hPa | 2.7V | 00:00:00 | 01:29:35 | 00:00:00 | |
| DK5PH-5 | 2026-09-02 11:59:00 | 48.14124 | 12.40329 | 59° | 11km/h | 21382m | 6.1m/s | -51.6°C | 3.4% | 47.0hPa | 2.7V | 00:00:00 | 01:29:31 | 00:00:00 | |
| OE5HKT-10 | 2026-09-02 11:58:59 | 48.14123 | 12.40324 | 69° | 11km/h | 21377m | 4.0m/s | -51.7°C | 3.4% | 47.0hPa | 2.7V | 00:00:00 | 01:29:30 | 00:00:00 | |
| OM5KV | 2026-09-02 11:58:57 | 48.14120 | 12.40317 | 48° | 7km/h | 21367m | 6.2m/s | -52.0°C | 0% | 47.1hPa | 2.7V | 00:00:00 | 00:00:00 | 00:00:00 | |
| OE5WHR-10 | 2026-09-02 11:58:56 | 48.14119 | 12.40315 | 22° | 13km/h | 21361m | 5.1m/s | -52.0°C | 3.4% | 47.1hPa | 2.7V | 00:00:00 | 00:00:00 | 00:00:00 | |
| OE5DXL-15 | 2026-09-02 11:58:55 | 48.14117 | 12.40314 | 18° | 11km/h | 21356m | 5.0m/s | -52.1°C | 3.5% | 47.2hPa | 2.7V | 00:00:00 | 00:00:00 | 00:00:00 | |
| OE5MMP-10 | 2026-09-02 11:58:54 | 48.14115 | 12.40313 | 31° | 15km/h | 21351m | 5.8m/s | -52.2°C | 3.5% | 47.2hPa | 2.7V | 00:00:00 | 01:29:25 | 00:00:00 | |
| OE5REO-15 | 2026-09-02 11:58:53 | 48.14113 | 12.40311 | 41° | 11km/h | 21346m | 4.3m/s | -52.3°C | 0.9% | 47.3hPa | 2.7V | 00:00:00 | 00:00:00 | 00:00:00 | |
| DG1MFX-10 | 2026-09-02 11:58:51 | 48.14111 | 12.40308 | 42° | 15km/h | 21341m | 4.1m/s | -52.4°C | 1.0% | 47.3hPa | 2.7V | 00:00:00 | 00:00:00 | 00:00:00 | |
| OE8JPQ-2 | 2026-09-02 11:58:49 | 48.14099 | 12.40296 | 33° | 16km/h | 21326m | 4.2m/s | -52.5°C | 3.6% | 47.4hPa | 2.7V | 00:00:00 | 00:00:00 | 00:00:00 | |
| BAUMI2-15 | 2026-09-02 11:58:48 | 48.14096 | 12.40292 | 41° | 13km/h | 21322m | 5.2m/s | -52.5°C | 3.6% | 47.4hPa | 2.7V | 00:00:00 | 01:29:19 | 00:00:00 | |
| OM5KV | 2026-09-02 11:58:46 | 48.14091 | 12.40284 | 60° | 11km/h | 21312m | 4.5m/s | 0°C | 0% | 47.5hPa | 2.7V | 00:00:00 | 00:00:00 | 00:00:00 | |
| PETON7-10 | 2026-09-02 11:58:45 | 48.14090 | 12.40281 | 54° | 11km/h | 21307m | 5.3m/s | -52.3°C | 3.7% | 47.5hPa | 2.7V | 00:00:00 | 01:29:16 | 00:00:00 | |
| OE5MMP-10 | 2026-09-02 11:58:44 | 48.14088 | 12.40279 | 40° | 13km/h | 21302m | 5.0m/s | -52.3°C | 3.6% | 47.6hPa | 2.7V | 00:00:00 | 01:29:15 | 00:00:00 | |
| BAUMI2-15 | 2026-09-02 11:58:43 | 48.14086 | 12.40277 | 27° | 11km/h | 21296m | 4.9m/s | -52.4°C | 3.7% | 47.6hPa | 2.7V | 00:00:00 | 01:29:14 | 08:30:00 | |
| OM5KV | 2026-09-02 11:58:42 | 48.14086 | 12.40277 | 28° | 11km/h | 21296m | 4.9m/s | -52.4°C | 0% | 47.6hPa | 2.7V | 00:00:00 | 00:00:00 | 00:00:00 | |
| OM5KV | 2026-09-02 11:58:39 | 48.14080 | 12.40274 | 356° | 9km/h | 21282m | 4.2m/s | 0°C | 0% | 47.8hPa | 2.7V | 00:00:00 | 00:00:00 | 00:00:00 | |
| OE5REO-15 | 2026-09-02 11:58:36 | 48.14070 | 12.40280 | 334° | 18km/h | 21268m | 4.5m/s | -52.7°C | 0.9% | 47.9hPa | 2.7V | 00:00:00 | 00:00:00 | 00:00:00 | |
| OE5WHR-10 | 2026-09-02 11:58:35 | 48.14062 | 12.40286 | 330° | 7km/h | 21258m | 5.6m/s | -52.7°C | 3.7% | 47.9hPa | 2.7V | 00:00:00 | 01:29:06 | 00:00:00 | |
| OE5HKT-10 | 2026-09-02 11:58:34 | 48.14059 | 12.40288 | 333° | 7km/h | 21253m | 4.3m/s | -52.5°C | 3.7% | 47.9hPa | 2.7V | 00:00:00 | 00:00:00 | 08:30:00 | |
| OM5KV | 2026-09-02 11:58:33 | 48.14057 | 12.40290 | 341° | 9km/h | 21248m | 4.8m/s | -52.4°C | 1.0% | 48.0hPa | 2.7V | 00:00:00 | 00:00:00 | 00:00:00 | |
| DG1MJG | 2026-09-02 11:58:32 | 48.14057 | 12.40290 | 341° | 9km/h | 21248m | 4.8m/s | -52.4°C | 1.0% | 48.0hPa | 2.7V | 00:00:00 | 00:00:00 | 00:00:00 | |
| DK5PH-5 | 2026-09-02 11:58:30 | 48.14051 | 12.40290 | 19° | 7km/h | 21234m | 4.2m/s | -52.2°C | 3.7% | 48.1hPa | 2.7V | 00:00:00 | 01:29:01 | 00:00:00 | |
| OM5KV | 2026-09-02 11:58:27 | 48.14049 | 12.40288 | 79° | 5km/h | 21224m | 5.5m/s | -52.3°C | 0% | 0hPa | 2.7V | 00:00:00 | 00:00:00 | 00:00:00 | |
| OM5KV | 2026-09-02 11:58:26 | 48.14049 | 12.40283 | 54° | 5km/h | 21214m | 4.7m/s | -52.4°C | 0% | 48.3hPa | 2.7V | 00:00:00 | 00:00:00 | 00:00:00 | |
| OE5DXL-15 | 2026-09-02 11:58:25 | 48.14047 | 12.40282 | 23° | 7km/h | 21210m | 5.0m/s | -52.4°C | 3.6% | 48.3hPa | 2.7V | 00:00:00 | 00:00:00 | 00:00:00 | |
| OE5MMP-10 | 2026-09-02 11:58:24 | 48.14045 | 12.40281 | 360° | 7km/h | 21205m | 4.5m/s | -52.4°C | 3.7% | 48.3hPa | 2.7V | 00:00:00 | 01:28:55 | 00:00:00 | |
| OE8JPQ-2 | 2026-09-02 11:58:22 | 48.14040 | 12.40282 | 341° | 7km/h | 21195m | 5.6m/s | -52.3°C | 3.7% | 48.4hPa | 2.7V | 00:00:00 | 01:28:53 | 00:00:00 | |
| OE5REO-15 | 2026-09-02 11:58:21 | 48.14038 | 12.40284 | 324° | 7km/h | 21190m | 4.4m/s | -52.2°C | 1.0% | 48.5hPa | 2.7V | 00:00:00 | 00:00:00 | 00:00:00 | |
| OM5KV | 2026-09-02 11:58:20 | 48.14037 | 12.40286 | 303° | 7km/h | 21186m | 4.3m/s | 0°C | 0% | 48.5hPa | 2.7V | 00:00:00 | 00:00:00 | 00:00:00 | |
| PETON7-10 | 2026-09-02 11:58:15 | 48.14036 | 12.40291 | 97° | 7km/h | 21163m | 5.3m/s | -51.8°C | 3.5% | 48.6hPa | 2.7V | 00:00:00 | 00:00:00 | 00:00:00 | |
| OE5WHR-10 | 2026-09-02 11:58:14 | 48.14036 | 12.40288 | 82° | 7km/h | 21157m | 4.7m/s | -51.8°C | 3.5% | 48.7hPa | 2.7V | 00:00:00 | 00:00:00 | 00:00:00 | |
| OE5HKT-10 | 2026-09-02 11:58:13 | 48.14035 | 12.40282 | 69° | 7km/h | 21153m | 4.6m/s | -51.9°C | 3.4% | 48.7hPa | 2.7V | 00:00:00 | 00:00:00 | 00:00:00 | |
| OM5KV | 2026-09-02 11:58:10 | 48.14032 | 12.40275 | 27° | 11km/h | 21142m | 5.4m/s | -51.9°C | 0% | 0hPa | 2.7V | 00:00:00 | 00:00:00 | 00:00:00 | |
| OM5KV | 2026-09-02 11:58:09 | 48.14029 | 12.40275 | 351° | 7km/h | 21137m | 4.5m/s | 0°C | 0% | 48.9hPa | 2.7V | 00:00:00 | 00:00:00 | 00:00:00 | |
| OM5KV | 2026-09-02 11:58:07 | 48.14028 | 12.40279 | 214° | 5km/h | 21121m | 6.2m/s | -52.2°C | 0% | 49.0hPa | 2.7V | 00:00:00 | 00:00:00 | 00:00:00 | |
| OE5MMP-10 | 2026-09-02 11:58:04 | 48.14032 | 12.40277 | 132° | 5km/h | 21104m | 6.3m/s | -52.2°C | 3.5% | 49.1hPa | 2.7V | 00:00:00 | 01:28:35 | 00:00:00 | |
| DG1MJG | 2026-09-02 11:58:03 | 48.14032 | 12.40275 | 106° | 4km/h | 21098m | 5.5m/s | -52.2°C | 0.9% | 49.2hPa | 2.7V | 00:00:00 | 00:00:00 | 00:00:00 | |
| OM5KV | 2026-09-02 11:58:02 | 48.14032 | 12.40274 | 93° | 5km/h | 21093m | 4.4m/s | -52.1°C | 0% | 49.2hPa | 2.7V | 00:00:00 | 00:00:00 | 00:00:00 | |
| PETON7-10 | 2026-09-02 11:58:00 | 48.14033 | 12.40269 | 111° | 9km/h | 21082m | 6.0m/s | -52.3°C | 3.6% | 49.2hPa | 2.7V | 00:00:00 | 01:28:31 | 00:00:00 | |
| OE8JPQ-2 | 2026-09-02 11:57:59 | 48.14034 | 12.40267 | 122° | 11km/h | 21077m | 4.4m/s | -52.2°C | 3.5% | 49.3hPa | 2.7V | 00:00:00 | 00:00:00 | 00:00:00 | |
| OM5KV | 2026-09-02 11:57:58 | 48.14034 | 12.40267 | 122° | 7km/h | 21077m | 4.4m/s | 0°C | 0% | 0hPa | 2.7V | 00:00:00 | 00:00:00 | 00:00:00 | |
| OM5KV | 2026-09-02 11:57:57 | 48.14035 | 12.40264 | 130° | 7km/h | 21072m | 4.5m/s | 0°C | 0% | 49.4hPa | 2.7V | 00:00:00 | 00:00:00 | 00:00:00 | |
| OE5DXL-15 | 2026-09-02 11:57:55 | 48.14038 | 12.40261 | 148° | 15km/h | 21056m | 4.7m/s | -52.4°C | 3.6% | 49.4hPa | 2.7V | 00:00:00 | 00:00:00 | 00:00:00 | |
| OE5MMP-10 | 2026-09-02 11:57:54 | 48.14039 | 12.40260 | 140° | 11km/h | 21051m | 5.6m/s | -52.5°C | 3.5% | 49.5hPa | 2.7V | 00:00:00 | 01:28:25 | 00:00:00 | |
| OE5WHR-10 | 2026-09-02 11:57:53 | 48.14040 | 12.40258 | 138° | 15km/h | 21046m | 4.3m/s | -52.4°C | 3.5% | 49.5hPa | 2.7V | 00:00:00 | 00:00:00 | 00:00:00 | |
| OE5HKT-10 | 2026-09-02 11:57:52 | 48.14042 | 12.40256 | 141° | 15km/h | 21042m | 4.8m/s | -52.5°C | 3.6% | 49.5hPa | 2.7V | 00:00:00 | 01:28:23 | 00:00:00 | |
| OM5KV | 2026-09-02 11:57:51 | 48.14042 | 12.40256 | 142° | 7km/h | 21042m | 4.9m/s | 0°C | 0% | 0hPa | 2.7V | 00:00:00 | 00:00:00 | 00:00:00 | |
| DG1MFX-10 | 2026-09-02 11:57:49 | 48.14045 | 12.40254 | 175° | 7km/h | 21032m | 4.3m/s | -52.6°C | 1.0% | 49.7hPa | 2.7V | 00:00:00 | 00:00:00 | 00:00:00 | |
| OM5KV | 2026-09-02 11:57:47 | 48.14050 | 12.40253 | 171° | 13km/h | 21022m | 5.7m/s | 0°C | 0% | 49.7hPa | 2.7V | 00:00:00 | 00:00:00 | 00:00:00 | |
| PETON7-10 | 2026-09-02 11:57:45 | 48.14062 | 12.40248 | 161° | 16km/h | 21008m | 5.7m/s | -52.8°C | 3.8% | 49.8hPa | 2.7V | 00:00:00 | 00:00:00 | 00:00:00 | |
| DO3MHA-11 | 2026-09-02 11:57:44 | 48.14065 | 12.40246 | 149° | 15km/h | 21003m | 4.6m/s | -52.8°C | 3.8% | 49.8hPa | 2.7V | 00:00:00 | 01:28:15 | 00:00:00 | |
| OM5KV | 2026-09-02 11:57:43 | 48.14067 | 12.40243 | 124° | 11km/h | 20998m | 4.4m/s | 0°C | 0% | 0hPa | 2.7V | 00:00:00 | 00:00:00 | 00:00:00 | |
| OM5KV | 2026-09-02 11:57:42 | 48.14068 | 12.40239 | 106° | 13km/h | 20993m | 5.7m/s | 0°C | 0% | 0hPa | 2.7V | 00:00:00 | 00:00:00 | 00:00:00 | |
| OM5KV | 2026-09-02 11:57:40 | 48.14069 | 12.40233 | 93° | 18km/h | 20987m | 5.5m/s | 0°C | 0% | 0hPa | 2.7V | 00:00:00 | 00:00:00 | 00:00:00 | |
| OE8JPQ-2 | 2026-09-02 11:57:39 | 48.14067 | 12.40219 | 77° | 16km/h | 20977m | 5.4m/s | -52.8°C | 3.6% | 50.0hPa | 2.7V | 00:00:00 | 00:00:00 | 00:00:00 | |
| OE5MMP-10 | 2026-09-02 11:57:34 | 48.14065 | 12.40187 | 116° | 15km/h | 20952m | 4.7m/s | -52.6°C | 3.6% | 50.3hPa | 2.7V | 00:00:00 | 01:28:05 | 00:00:00 | |
| OE5WHR-10 | 2026-09-02 11:57:32 | 48.14070 | 12.40176 | 130° | 20km/h | 20942m | 5.7m/s | -52.7°C | 3.6% | 50.3hPa | 2.7V | 00:00:00 | 01:28:03 | 00:00:00 | |
| OE5HKT-10 | 2026-09-02 11:57:31 | 48.14072 | 12.40172 | 135° | 22km/h | 20937m | 4.3m/s | -52.6°C | 3.6% | 50.4hPa | 2.7V | 00:00:00 | 00:00:00 | 00:00:00 | |
| PETON7-10 | 2026-09-02 11:57:30 | 48.14075 | 12.40168 | 135° | 18km/h | 20932m | 5.1m/s | -52.6°C | 3.6% | 50.4hPa | 2.7V | 00:00:00 | 00:00:00 | 00:00:00 | |
| DG1MFX-10 | 2026-09-02 11:57:28 | 48.14078 | 12.40164 | 133° | 16km/h | 20926m | 5.6m/s | -52.6°C | 1.0% | 50.5hPa | 2.7V | 00:00:00 | 00:00:00 | 00:00:00 | |
| OM5KV | 2026-09-02 11:57:27 | 48.14081 | 12.40159 | 129° | 16km/h | 20921m | 4.5m/s | 0°C | 0% | 0hPa | 2.7V | 00:00:00 | 00:00:00 | 00:00:00 | |
| OM5KV | 2026-09-02 11:57:26 | 48.14083 | 12.40154 | 124° | 13km/h | 20916m | 5.8m/s | 0°C | 0% | 0hPa | 2.7V | 00:00:00 | 00:00:00 | 00:00:00 | |
| OE5DXL-15 | 2026-09-02 11:57:25 | 48.14086 | 12.40146 | 111° | 24km/h | 20906m | 4.3m/s | -52.8°C | 3.6% | 50.6hPa | 2.7V | 00:00:00 | 00:00:00 | 00:00:00 | |
| OE5MMP-10 | 2026-09-02 11:57:24 | 48.14086 | 12.40142 | 110° | 22km/h | 20901m | 5.7m/s | -52.8°C | 3.6% | 50.7hPa | 2.7V | 00:00:00 | 01:27:55 | 00:00:00 | |
| OE8JPQ-2 | 2026-09-02 11:57:19 | 48.14100 | 12.40112 | 136° | 24km/h | 20876m | 4.5m/s | -53.0°C | 3.7% | 50.8hPa | 2.7V | 00:00:00 | 01:27:50 | 00:00:00 | |
| PETON7-10 | 2026-09-02 11:57:15 | 48.14116 | 12.40084 | 122° | 27km/h | 20855m | 5.1m/s | -53.2°C | 3.6% | 51.0hPa | 2.7V | 00:00:00 | 01:27:46 | 00:00:00 | |
| OE5MMP-10 | 2026-09-02 11:57:14 | 48.14120 | 12.40074 | 117° | 29km/h | 20850m | 4.9m/s | -53.2°C | 3.7% | 51.1hPa | 2.7V | 00:00:00 | 01:27:45 | 00:00:00 | |
| OE5WHR-10 | 2026-09-02 11:57:11 | 48.14127 | 12.40044 | 106° | 24km/h | 20835m | 5.6m/s | -53.3°C | 3.6% | 51.2hPa | 2.7V | 00:00:00 | 00:00:00 | 00:00:00 | |
| OE5HKT-10 | 2026-09-02 11:57:10 | 48.14130 | 12.40033 | 106° | 26km/h | 20830m | 5.3m/s | -53.3°C | 3.6% | 51.3hPa | 2.7V | 00:00:00 | 00:00:00 | 00:00:00 | |
| DG1MFX-10 | 2026-09-02 11:57:07 | 48.14134 | 12.40010 | 110° | 31km/h | 20820m | 5.0m/s | -53.4°C | 1.0% | 51.4hPa | 2.7V | 00:00:00 | 00:00:00 | 00:00:00 | |
| OE5MMP-10 | 2026-09-02 11:57:04 | 48.14144 | 12.39974 | 109° | 22km/h | 20799m | 6.1m/s | -53.5°C | 3.8% | 51.5hPa | 2.7V | 00:00:00 | 01:27:35 | 08:30:00 | |
| DG1MJG | 2026-09-02 11:57:01 | 48.14147 | 12.39956 | 98° | 24km/h | 20789m | 4.4m/s | -53.7°C | 1.0% | 51.6hPa | 2.7V | 00:00:00 | 00:00:00 | 00:00:00 | |
| PETON7-10 | 2026-09-02 11:57:00 | 48.14147 | 12.39940 | 93° | 16km/h | 20778m | 5.0m/s | -53.7°C | 3.8% | 51.6hPa | 2.7V | 00:00:00 | 00:00:00 | 00:00:00 | |
| OE5DXL-15 | 2026-09-02 11:56:55 | 48.14150 | 12.39901 | 98° | 9km/h | 20752m | 6.1m/s | -54.2°C | 3.9% | 51.9hPa | 2.7V | 00:00:00 | 00:00:00 | 00:00:00 | |
| OE5MMP-10 | 2026-09-02 11:56:54 | 48.14151 | 12.39893 | 98° | 15km/h | 20747m | 5.4m/s | -54.1°C | 3.9% | 51.9hPa | 2.7V | 00:00:00 | 01:27:25 | 00:00:00 | |
| OE5FHM-15 | 2026-09-02 11:56:52 | 48.14151 | 12.39880 | 90° | 13km/h | 20736m | 5.7m/s | -54.0°C | 3.9% | 52.0hPa | 2.7V | 00:00:00 | 01:27:23 | 00:00:00 | |
| OE5WHR-10 | 2026-09-02 11:56:50 | 48.14150 | 12.39867 | 77° | 9km/h | 20726m | 4.6m/s | -54.1°C | 3.9% | 52.0hPa | 2.7V | 00:00:00 | 00:00:00 | 00:00:00 | |
| OE5HKT-10 | 2026-09-02 11:56:49 | 48.14149 | 12.39862 | 72° | 9km/h | 20721m | 6.2m/s | -54.1°C | 3.8% | 52.1hPa | 2.7V | 00:00:00 | 01:27:20 | 00:00:00 | |
| DG1MFX-10 | 2026-09-02 11:56:48 | 48.14148 | 12.39858 | 60° | 9km/h | 20715m | 5.0m/s | -54.0°C | 1.1% | 52.2hPa | 2.7V | 00:00:00 | 00:00:00 | 00:00:00 | |
| PETON7-10 | 2026-09-02 11:56:45 | 48.14143 | 12.39850 | 44° | 9km/h | 20700m | 4.9m/s | -54.1°C | 3.8% | 52.3hPa | 2.7V | 00:00:00 | 00:00:00 | 00:00:00 | |
| OE5MMP-10 | 2026-09-02 11:56:44 | 48.14141 | 12.39847 | 42° | 9km/h | 20695m | 4.4m/s | -54.0°C | 3.8% | 52.3hPa | 2.7V | 00:00:00 | 01:27:15 | 00:00:00 | |
| BAUMI2-15 | 2026-09-02 11:56:35 | 48.14126 | 12.39825 | 38° | 7km/h | 20651m | 4.3m/s | -54.7°C | 4.0% | 52.7hPa | 2.7V | 00:00:00 | 01:27:06 | 00:00:00 | |
| OE8JPQ-2 | 2026-09-02 11:56:34 | 48.14124 | 12.39823 | 46° | 5km/h | 20646m | 5.7m/s | -54.7°C | 4.0% | 52.7hPa | 2.7V | 00:00:00 | 00:00:00 | 00:00:00 | |
| OE5DRO-10 | 2026-09-02 11:56:32 | 48.14122 | 12.39818 | 68° | 5km/h | 20635m | 4.8m/s | -54.8°C | 4.1% | 52.8hPa | 2.7V | 00:00:00 | 00:00:00 | 00:00:00 | |
| PETON7-10 | 2026-09-02 11:56:30 | 48.14121 | 12.39815 | 208° | 5km/h | 20624m | 5.0m/s | -54.6°C | 4.0% | 52.9hPa | 2.7V | 00:00:00 | 01:27:01 | 00:00:00 | |
| OE5WHR-10 | 2026-09-02 11:56:29 | 48.14122 | 12.39816 | 223° | 5km/h | 20620m | 3.8m/s | -54.7°C | 4.1% | 52.9hPa | 2.7V | 00:00:00 | 01:27:00 | 00:00:00 | |
| OE5HKT-10 | 2026-09-02 11:56:28 | 48.14122 | 12.39816 | 195° | 5km/h | 20615m | 5.0m/s | -54.7°C | 4.1% | 53.0hPa | 2.7V | 00:00:00 | 00:00:00 | 00:00:00 | |
| DG1MFX-10 | 2026-09-02 11:56:26 | 48.14123 | 12.39816 | 122° | 2km/h | 20610m | 5.1m/s | -54.6°C | 1.1% | 53.1hPa | 2.7V | 00:00:00 | 00:00:00 | 00:00:00 | |
| BAUMI2-15 | 2026-09-02 11:56:25 | 48.14122 | 12.39814 | 36° | 7km/h | 20601m | 5.7m/s | -54.5°C | 4.1% | 53.1hPa | 2.7V | 00:00:00 | 01:26:56 | 00:00:00 | |
| OE5MMP-10 | 2026-09-02 11:56:24 | 48.14121 | 12.39814 | 4° | 7km/h | 20595m | 5.0m/s | -54.6°C | 4.1% | 53.2hPa | 2.7V | 00:00:00 | 01:26:55 | 00:00:00 | |
| BAUMI2-15 | 2026-09-02 11:56:19 | 48.14113 | 12.39808 | 51° | 5km/h | 20571m | 5.4m/s | -54.3°C | 4.0% | 53.4hPa | 2.7V | 00:00:00 | 01:26:50 | 00:00:00 | |
| PETON7-10 | 2026-09-02 11:56:15 | 48.14115 | 12.39801 | 131° | 5km/h | 20551m | 4.7m/s | -54.4°C | 4.1% | 53.5hPa | 2.7V | 00:00:00 | 00:00:00 | 08:30:00 | |
| OE5MMP-10 | 2026-09-02 11:56:14 | 48.14117 | 12.39799 | 145° | 5km/h | 20546m | 4.0m/s | -54.3°C | 4.1% | 53.6hPa | 2.7V | 00:00:00 | 01:26:45 | 00:00:00 | |
| OE5DRO-10 | 2026-09-02 11:56:13 | 48.14119 | 12.39797 | 165° | 9km/h | 20541m | 5.9m/s | -54.1°C | 4.0% | 53.6hPa | 2.7V | 00:00:00 | 00:00:00 | 00:00:00 | |
| OE8JPQ-2 | 2026-09-02 11:56:12 | 48.14121 | 12.39797 | 192° | 9km/h | 20536m | 4.8m/s | -54.1°C | 4.0% | 53.6hPa | 2.7V | 00:00:00 | 01:26:43 | 00:00:00 | |
| BAUMI2-15 | 2026-09-02 11:56:09 | 48.14126 | 12.39799 | 173° | 4km/h | 20522m | 5.2m/s | -54.1°C | 3.9% | 53.8hPa | 2.7V | 00:00:00 | 01:26:40 | 00:00:00 | |
| OE5WHR-10 | 2026-09-02 11:56:08 | 48.14127 | 12.39799 | 145° | 9km/h | 20517m | 4.2m/s | -54.0°C | 3.9% | 53.8hPa | 2.7V | 00:00:00 | 00:00:00 | 08:30:00 | |
| OE5HKT-10 | 2026-09-02 11:56:06 | 48.14128 | 12.39797 | 114° | 11km/h | 20507m | 5.1m/s | -54.1°C | 3.9% | 53.9hPa | 2.7V | 00:00:00 | 00:00:00 | 00:00:00 | |
| DG1MFX-10 | 2026-09-02 11:56:05 | 48.14128 | 12.39797 | 114° | 2km/h | 20507m | 5.1m/s | -54.1°C | 1.1% | 53.9hPa | 2.7V | 00:00:00 | 00:00:00 | 00:00:00 | |
| OE5MMP-10 | 2026-09-02 11:56:04 | 48.14128 | 12.39795 | 78° | 11km/h | 20498m | 4.0m/s | -53.8°C | 3.8% | 54.0hPa | 2.7V | 00:00:00 | 01:26:35 | 00:00:00 | |
| BAUMI2-15 | 2026-09-02 11:56:02 | 48.14128 | 12.39791 | 103° | 11km/h | 20488m | 4.7m/s | -53.9°C | 3.8% | 54.0hPa | 2.7V | 00:00:00 | 01:26:33 | 00:00:00 | |
| PETON7-10 | 2026-09-02 11:56:00 | 48.14130 | 12.39786 | 150° | 11km/h | 20479m | 5.6m/s | -53.9°C | 3.9% | 54.1hPa | 2.7V | 00:00:00 | 00:00:00 | 00:00:00 | |
| DG1MJG | 2026-09-02 11:55:59 | 48.14130 | 12.39786 | 151° | 7km/h | 20479m | 5.7m/s | -53.9°C | 1.0% | 54.2hPa | 2.7V | 00:00:00 | 00:00:00 | 00:00:00 | |
| BAUMI2-15 | 2026-09-02 11:55:57 | 48.14139 | 12.39788 | 193° | 15km/h | 20464m | 5.4m/s | -53.8°C | 3.9% | 54.3hPa | 2.7V | 00:00:00 | 01:26:28 | 00:00:00 | |
| OE5DXL-15 | 2026-09-02 11:55:55 | 48.14147 | 12.39790 | 185° | 16km/h | 20455m | 4.4m/s | -53.8°C | 3.9% | 54.3hPa | 2.7V | 00:00:00 | 00:00:00 | 08:30:00 | |
| OE5MMP-10 | 2026-09-02 11:55:54 | 48.14151 | 12.39790 | 189° | 9km/h | 20450m | 5.2m/s | -53.8°C | 3.9% | 54.4hPa | 2.7V | 00:00:00 | 01:26:25 | 00:00:00 | |
| BAUMI2-15 | 2026-09-02 11:55:52 | 48.14157 | 12.39792 | 190° | 7km/h | 20440m | 4.4m/s | -53.8°C | 3.8% | 54.5hPa | 2.7V | 00:00:00 | 01:26:23 | 08:30:00 | |
| DO3MHA-11 | 2026-09-02 11:55:48 | 48.14162 | 12.39785 | 122° | 15km/h | 20419m | 5.5m/s | -54.1°C | 3.9% | 54.6hPa | 2.7V | 00:00:00 | 01:26:19 | 00:00:00 | |
| OE5WHR-10 | 2026-09-02 11:55:47 | 48.14163 | 12.39783 | 154° | 20km/h | 20414m | 4.6m/s | -54.1°C | 3.8% | 54.7hPa | 2.7V | 00:00:00 | 00:00:00 | 00:00:00 | |
| PETON7-10 | 2026-09-02 11:55:45 | 48.14169 | 12.39782 | 175° | 20km/h | 20406m | 4.7m/s | -54.1°C | 3.9% | 54.7hPa | 2.7V | 00:00:00 | 01:26:16 | 00:00:00 | |
| OE5MMP-10 | 2026-09-02 11:55:44 | 48.14174 | 12.39781 | 173° | 20km/h | 20401m | 6.0m/s | -54.1°C | 3.9% | 54.8hPa | 2.7V | 00:00:00 | 01:26:15 | 00:00:00 | |
| OE5HKT-10 | 2026-09-02 11:55:43 | 48.14180 | 12.39780 | 174° | 33km/h | 20395m | 4.7m/s | -54.1°C | 3.9% | 54.9hPa | 2.7V | 00:00:00 | 01:26:14 | 00:00:00 | |
| BAUMI2-15 | 2026-09-02 11:55:42 | 48.14186 | 12.39779 | 177° | 20km/h | 20391m | 4.6m/s | -54.0°C | 4.0% | 54.9hPa | 2.7V | 00:00:00 | 01:26:13 | 00:00:00 | |
| DO3MHA-11 | 2026-09-02 11:55:38 | 48.14206 | 12.39773 | 146° | 22km/h | 20371m | 5.2m/s | -53.9°C | 3.9% | 55.0hPa | 2.7V | 00:00:00 | 01:26:09 | 00:00:00 | |
| BAUMI2-15 | 2026-09-02 11:55:37 | 48.14209 | 12.39768 | 135° | 16km/h | 20366m | 4.3m/s | -54.0°C | 4.0% | 55.1hPa | 2.7V | 00:00:00 | 01:26:08 | 00:00:00 | |
| OE5DRO-10 | 2026-09-02 11:55:35 | 48.14215 | 12.39758 | 132° | 16km/h | 20356m | 5.2m/s | -53.9°C | 3.9% | 55.2hPa | 2.7V | 00:00:00 | 00:00:00 | 00:00:00 | |
| OE5MMP-10 | 2026-09-02 11:55:34 | 48.14218 | 12.39754 | 139° | 20km/h | 20352m | 4.2m/s | -53.9°C | 3.9% | 55.2hPa | 2.7V | 00:00:00 | 01:26:05 | 08:30:00 | |
| BAUMI2-15 | 2026-09-02 11:55:33 | 48.14225 | 12.39746 | 150° | 22km/h | 20343m | 5.4m/s | -54.1°C | 3.9% | 55.3hPa | 2.7V | 00:00:00 | 01:26:03 | 00:00:00 | |
| PETON7-10 | 2026-09-02 11:55:30 | 48.14236 | 12.39739 | 162° | 15km/h | 20334m | 4.3m/s | -53.9°C | 3.9% | 55.4hPa | 2.7V | 00:00:00 | 00:00:00 | 00:00:00 | |
| OE8JPQ-2 | 2026-09-02 11:55:28 | 48.14247 | 12.39736 | 175° | 13km/h | 20323m | 4.5m/s | 0°C | 0% | 0hPa | 2.7V | 00:00:00 | 00:00:00 | 00:00:00 | |
| DO3MHA-11 | 2026-09-02 11:55:27 | 48.14252 | 12.39735 | 175° | 13km/h | 20319m | 4.1m/s | -53.8°C | 4.0% | 55.5hPa | 2.7V | 00:00:00 | 01:25:58 | 00:00:00 | |
| OE5WHR-10 | 2026-09-02 11:55:26 | 48.14257 | 12.39734 | 169° | 13km/h | 20314m | 5.4m/s | -53.8°C | 4.0% | 55.6hPa | 2.7V | 00:00:00 | 01:25:57 | 00:00:00 | |
| OE5DXL-15 | 2026-09-02 11:55:25 | 48.14261 | 12.39732 | 162° | 13km/h | 20309m | 4.6m/s | -53.8°C | 4.0% | 55.6hPa | 2.7V | 00:00:00 | 00:00:00 | 00:00:00 | |
| OE5MMP-10 | 2026-09-02 11:55:24 | 48.14264 | 12.39730 | 159° | 11km/h | 20304m | 4.8m/s | -53.8°C | 4.0% | 55.6hPa | 2.7V | 00:00:00 | 01:25:55 | 00:00:00 | |
| BAUMI2-15 | 2026-09-02 11:55:22 | 48.14269 | 12.39728 | 151° | 11km/h | 20295m | 4.3m/s | -53.6°C | 3.9% | 55.7hPa | 2.7V | 00:00:00 | 01:25:53 | 00:00:00 | |
| BAUMI2-15 | 2026-09-02 11:55:17 | 48.14279 | 12.39714 | 157° | 13km/h | 20270m | 4.9m/s | -53.4°C | 3.7% | 56.0hPa | 2.7V | 00:00:00 | 01:25:48 | 00:00:00 | |
| OE5DRO-10 | 2026-09-02 11:55:16 | 48.14282 | 12.39713 | 165° | 13km/h | 20265m | 4.4m/s | -53.4°C | 3.7% | 56.0hPa | 2.7V | 00:00:00 | 00:00:00 | 08:30:00 | |
| PETON7-10 | 2026-09-02 11:55:15 | 48.14285 | 12.39711 | 164° | 13km/h | 20260m | 6.0m/s | -53.5°C | 3.7% | 56.1hPa | 2.7V | 00:00:00 | 00:00:00 | 00:00:00 | |
| OE5MMP-10 | 2026-09-02 11:55:14 | 48.14288 | 12.39710 | 164° | 13km/h | 20254m | 4.8m/s | -53.4°C | 3.7% | 56.1hPa | 2.7V | 00:00:00 | 01:25:45 | 00:00:00 | |
| BAUMI2-15 | 2026-09-02 11:55:10 | 48.14301 | 12.39705 | 155° | 13km/h | 20235m | 4.7m/s | -53.4°C | 3.8% | 56.2hPa | 2.7V | 00:00:00 | 01:25:41 | 00:00:00 | |
| OE8JPQ-2 | 2026-09-02 11:55:08 | 48.14306 | 12.39698 | 130° | 11km/h | 20225m | 4.6m/s | 0°C | 0% | 0hPa | 2.7V | 00:00:00 | 01:25:39 | 00:00:00 | |
| DO3MHA-11 | 2026-09-02 11:55:07 | 48.14309 | 12.39693 | 123° | 13km/h | 20220m | 5.7m/s | -53.2°C | 3.7% | 56.4hPa | 2.7V | 00:00:00 | 01:25:38 | 00:00:00 | |
| OE5WHR-10 | 2026-09-02 11:55:05 | 48.14311 | 12.39684 | 109° | 13km/h | 20210m | 3.8m/s | -53.2°C | 3.7% | 56.5hPa | 2.7V | 00:00:00 | 00:00:00 | 00:00:00 | |
| OE5MMP-10 | 2026-09-02 11:55:04 | 48.14312 | 12.39680 | 110° | 11km/h | 20206m | 4.9m/s | -53.3°C | 3.7% | 56.5hPa | 2.7V | 00:00:00 | 01:25:35 | 00:00:00 | |
| PETON7-10 | 2026-09-02 11:55:00 | 48.14318 | 12.39664 | 135° | 13km/h | 20187m | 5.2m/s | -53.5°C | 3.8% | 56.7hPa | 2.7V | 00:00:00 | 01:25:31 | 00:00:00 | |
| BAUMI2-15 | 2026-09-02 11:54:59 | 48.14320 | 12.39662 | 149° | 11km/h | 20182m | 4.3m/s | -53.5°C | 3.8% | 56.7hPa | 2.7V | 00:00:00 | 01:25:30 | 00:00:00 | |
| DG1MJG | 2026-09-02 11:54:58 | 48.14320 | 12.39662 | 149° | 9km/h | 20182m | 4.4m/s | -53.5°C | 1.0% | 56.8hPa | 2.7V | 00:00:00 | 00:00:00 | 00:00:00 | |
| OE5DRO-10 | 2026-09-02 11:54:57 | 48.14325 | 12.39658 | 154° | 13km/h | 20172m | 4.9m/s | -53.6°C | 3.8% | 56.8hPa | 2.7V | 00:00:00 | 00:00:00 | 00:00:00 | |
| OE5DXL-15 | 2026-09-02 11:54:55 | 48.14331 | 12.39654 | 154° | 15km/h | 20162m | 5.5m/s | -53.7°C | 3.8% | 56.9hPa | 2.7V | 00:00:00 | 00:00:00 | 00:00:00 | |
| DO3MHA-11 | 2026-09-02 11:54:54 | 48.14333 | 12.39652 | 139° | 15km/h | 20157m | 4.2m/s | -53.7°C | 3.9% | 57.0hPa | 2.7V | 00:00:00 | 01:25:25 | 00:00:00 | |
| PETON7-10 | 2026-09-02 11:54:45 | 48.14332 | 12.39606 | 102° | 15km/h | 20113m | 4.2m/s | -53.8°C | 3.8% | 57.4hPa | 2.7V | 00:00:00 | 00:00:00 | 00:00:00 | |
| OE5WHR-10 | 2026-09-02 11:54:44 | 48.14333 | 12.39601 | 114° | 16km/h | 20108m | 5.2m/s | -53.7°C | 3.8% | 57.4hPa | 2.7V | 00:00:00 | 00:00:00 | 00:00:00 | |
| OE8JPQ-2 | 2026-09-02 11:54:43 | 48.14335 | 12.39597 | 124° | 18km/h | 20102m | 5.5m/s | 0°C | 0% | 0hPa | 2.7V | 00:00:00 | 00:00:00 | 00:00:00 | |
| OE5DRO-10 | 2026-09-02 11:54:38 | 48.14347 | 12.39578 | 131° | 20km/h | 20078m | 5.8m/s | -53.7°C | 3.8% | 57.7hPa | 2.7V | 00:00:00 | 00:00:00 | 00:00:00 | |
| OE5MMP-10 | 2026-09-02 11:54:34 | 48.14353 | 12.39558 | 106° | 20km/h | 20059m | 4.2m/s | -53.7°C | 3.8% | 57.9hPa | 2.7V | 00:00:00 | 01:25:05 | 00:00:00 | |
| DO3MHA-11 | 2026-09-02 11:54:33 | 48.14354 | 12.39551 | 105° | 20km/h | 20054m | 4.8m/s | -53.7°C | 3.8% | 57.9hPa | 2.7V | 00:00:00 | 01:25:04 | 00:00:00 | |
| PETON7-10 | 2026-09-02 11:54:30 | 48.14358 | 12.39533 | 114° | 24km/h | 20039m | 4.4m/s | -53.7°C | 3.8% | 58.0hPa | 2.7V | 00:00:00 | 00:00:00 | 00:00:00 | |
| DG1MJG | 2026-09-02 11:54:28 | 48.14360 | 12.39527 | 120° | 18km/h | 20034m | 5.7m/s | -53.8°C | 1.0% | 58.1hPa | 2.7V | 00:00:00 | 00:00:00 | 00:00:00 | |
| OE5DXL-15 | 2026-09-02 11:54:25 | 48.14375 | 12.39501 | 139° | 26km/h | 20015m | 4.6m/s | -53.8°C | 3.9% | 58.2hPa | 2.7V | 00:00:00 | 00:00:00 | 00:00:00 | |
| OE5MMP-10 | 2026-09-02 11:54:24 | 48.14378 | 12.39496 | 134° | 24km/h | 20011m | 3.6m/s | -53.8°C | 3.8% | 58.3hPa | 2.7V | 00:00:00 | 01:24:55 | 00:00:00 | |
| OE5WHR-10 | 2026-09-02 11:54:23 | 48.14382 | 12.39490 | 126° | 26km/h | 20006m | 5.5m/s | -53.8°C | 3.9% | 58.3hPa | 2.7V | 00:00:00 | 01:24:54 | 00:00:00 | |
| DO3MHA-11 | 2026-09-02 11:54:22 | 48.14385 | 12.39482 | 116° | 26km/h | 20001m | 5.1m/s | -53.8°C | 3.9% | 58.3hPa | 2.7V | 00:00:00 | 01:24:53 | 00:00:00 | |
| OE5DRO-10 | 2026-09-02 11:54:19 | 48.14390 | 12.39456 | 103° | 26km/h | 19987m | 5.2m/s | -53.7°C | 3.8% | 58.5hPa | 2.7V | 00:00:00 | 00:00:00 | 00:00:00 | |
| OE5MMP-10 | 2026-09-02 11:54:14 | 48.14401 | 12.39412 | 127° | 26km/h | 19963m | 4.8m/s | -53.8°C | 3.8% | 58.7hPa | 2.7V | 00:00:00 | 01:24:45 | 00:00:00 | |
| DO3MHA-11 | 2026-09-02 11:54:11 | 48.14415 | 12.39391 | 136° | 26km/h | 19949m | 5.5m/s | -53.8°C | 3.9% | 58.8hPa | 2.7V | 00:00:00 | 01:24:42 | 00:00:00 | |
| OE5MMP-10 | 2026-09-02 11:54:04 | 48.14440 | 12.39334 | 115° | 27km/h | 19917m | 3.9m/s | -53.7°C | 3.9% | 59.2hPa | 2.7V | 00:00:00 | 01:24:35 | 08:30:00 | |
| DG1MFX-10 | 2026-09-02 11:54:03 | 48.14443 | 12.39326 | 121° | 24km/h | 19912m | 5.2m/s | -53.8°C | 1.1% | 59.2hPa | 2.7V | 00:00:00 | 00:00:00 | 00:00:00 | |
| OE5WHR-10 | 2026-09-02 11:54:02 | 48.14447 | 12.39318 | 128° | 24km/h | 19907m | 4.7m/s | -53.8°C | 3.9% | 59.2hPa | 2.7V | 00:00:00 | 00:00:00 | 00:00:00 | |
| DO3MHA-11 | 2026-09-02 11:54:00 | 48.14455 | 12.39303 | 132° | 20km/h | 19898m | 5.7m/s | -53.8°C | 3.9% | 59.3hPa | 2.7V | 00:00:00 | 01:24:31 | 00:00:00 | |
| PETON7-10 | 2026-09-02 11:53:59 | 48.14460 | 12.39295 | 128° | 24km/h | 19893m | 4.2m/s | -53.7°C | 3.9% | 59.4hPa | 2.7V | 00:00:00 | 00:00:00 | 08:30:00 | |
| DG1MJG | 2026-09-02 11:53:58 | 48.14465 | 12.39285 | 127° | 31km/h | 19889m | 3.8m/s | -53.7°C | 1.0% | 59.4hPa | 2.7V | 00:00:00 | 00:00:00 | 00:00:00 | |
| OE5DXL-15 | 2026-09-02 11:53:55 | 48.14476 | 12.39260 | 117° | 22km/h | 19874m | 4.4m/s | -53.5°C | 3.8% | 59.5hPa | 2.7V | 00:00:00 | 00:00:00 | 00:00:00 | |
| OE5MMP-10 | 2026-09-02 11:53:54 | 48.14479 | 12.39251 | 107° | 22km/h | 19870m | 5.5m/s | -53.5°C | 3.8% | 59.6hPa | 2.7V | 00:00:00 | 01:24:25 | 00:00:00 | |
| OE5MMP-10 | 2026-09-02 11:53:44 | 48.14491 | 12.39169 | 116° | 22km/h | 19822m | 4.3m/s | -53.3°C | 3.8% | 60.0hPa | 2.7V | 00:00:00 | 01:24:15 | 00:00:00 | |
| OE8JPQ-2 | 2026-09-02 11:53:42 | 48.14495 | 12.39153 | 107° | 16km/h | 19812m | 4.2m/s | 0°C | 0% | 0hPa | 2.7V | 00:00:00 | 00:00:00 | 08:30:00 | |
| OE5WHR-10 | 2026-09-02 11:53:41 | 48.14497 | 12.39145 | 105° | 20km/h | 19808m | 4.3m/s | -53.1°C | 3.8% | 60.1hPa | 2.7V | 00:00:00 | 00:00:00 | 00:00:00 | |
| OE5MMP-10 | 2026-09-02 11:53:34 | 48.14503 | 12.39091 | 98° | 18km/h | 19775m | 5.2m/s | -53.0°C | 3.7% | 60.5hPa | 2.7V | 00:00:00 | 01:24:05 | 00:00:00 | |
| PETON7-10 | 2026-09-02 11:53:29 | 48.14507 | 12.39053 | 97° | 18km/h | 19752m | 3.8m/s | -52.9°C | 3.7% | 60.7hPa | 2.7V | 00:00:00 | 01:24:00 | 00:00:00 | |
| DG1MJG | 2026-09-02 11:53:27 | 48.14507 | 12.39046 | 97° | 20km/h | 19748m | 4.7m/s | -52.9°C | 1.0% | 60.7hPa | 2.7V | 00:00:00 | 00:00:00 | 00:00:00 | |
| OE5DXL-15 | 2026-09-02 11:53:25 | 48.14509 | 12.39028 | 101° | 15km/h | 19733m | 4.5m/s | -52.8°C | 3.6% | 60.8hPa | 2.7V | 00:00:00 | 00:00:00 | 00:00:00 | |
| OE5MMP-10 | 2026-09-02 11:53:24 | 48.14510 | 12.39022 | 100° | 18km/h | 19728m | 5.4m/s | -52.7°C | 3.6% | 60.9hPa | 2.7V | 00:00:00 | 01:23:55 | 00:00:00 | |
| OE5DRO-10 | 2026-09-02 11:53:22 | 48.14511 | 12.39008 | 91° | 16km/h | 19719m | 4.6m/s | -52.8°C | 3.6% | 61.0hPa | 2.7V | 00:00:00 | 00:00:00 | 00:00:00 | |
| OE5WHR-10 | 2026-09-02 11:53:20 | 48.14510 | 12.38995 | 81° | 15km/h | 19709m | 4.0m/s | -52.7°C | 3.7% | 61.1hPa | 2.7V | 00:00:00 | 01:23:51 | 00:00:00 | |
| PETON7-10 | 2026-09-02 11:53:14 | 48.14506 | 12.38955 | 73° | 13km/h | 19681m | 4.4m/s | -52.9°C | 3.8% | 61.3hPa | 2.7V | 00:00:00 | 00:00:00 | 00:00:00 | |
| OE8JPQ-2 | 2026-09-02 11:53:13 | 48.14505 | 12.38950 | 72° | 15km/h | 19676m | 4.3m/s | 0°C | 0% | 0hPa | 2.7V | 00:00:00 | 00:00:00 | 00:00:00 | |
| OE5MMP-10 | 2026-09-02 11:53:04 | 48.14499 | 12.38906 | 81° | 13km/h | 19633m | 4.3m/s | -52.7°C | 3.7% | 61.8hPa | 2.7V | 00:00:00 | 01:23:35 | 00:00:00 | |
| OE5DRO-10 | 2026-09-02 11:53:03 | 48.14499 | 12.38900 | 86° | 15km/h | 19629m | 3.6m/s | -52.6°C | 3.7% | 61.8hPa | 2.7V | 00:00:00 | 00:00:00 | 00:00:00 | |
| DB0UT-7 | 2026-09-02 11:53:02 | 48.14499 | 12.38894 | 85° | 29km/h | 19625m | 5.2m/s | -52.6°C | 3.6% | 61.9hPa | 2.7V | 00:00:00 | 00:00:00 | 00:00:00 | |
| DG1MFX-10 | 2026-09-02 11:53:01 | 48.14499 | 12.38894 | 86° | 13km/h | 19625m | 5.3m/s | -52.6°C | 1.0% | 61.9hPa | 2.7V | 00:00:00 | 00:00:00 | 00:00:00 | |
| OE5WHR-10 | 2026-09-02 11:52:59 | 48.14500 | 12.38886 | 148° | 18km/h | 19611m | 4.6m/s | -52.6°C | 3.6% | 62.0hPa | 2.7V | 00:00:00 | 00:00:00 | 08:30:00 | |
| DG1MJG | 2026-09-02 11:52:57 | 48.14505 | 12.38882 | 159° | 16km/h | 19600m | 4.5m/s | -52.4°C | 1.0% | 62.2hPa | 2.7V | 00:00:00 | 00:00:00 | 00:00:00 | |
| OE5DXL-15 | 2026-09-02 11:52:55 | 48.14513 | 12.38876 | 146° | 22km/h | 19591m | 5.2m/s | -52.3°C | 3.6% | 62.2hPa | 2.7V | 00:00:00 | 00:00:00 | 00:00:00 | |
| OE5MMP-10 | 2026-09-02 11:52:54 | 48.14516 | 12.38872 | 131° | 16km/h | 19586m | 5.0m/s | -52.3°C | 3.6% | 62.3hPa | 2.7V | 00:00:00 | 01:23:25 | 00:00:00 | |
| NBG1-10 | 2026-09-02 11:52:53 | 48.14518 | 12.38867 | 113° | 44km/h | 19581m | 4.6m/s | 0°C | 0% | 0hPa | 2.7V | 00:00:00 | 01:23:24 | 00:00:00 | |
| OE8JPQ-2 | 2026-09-02 11:52:51 | 48.14520 | 12.38855 | 99° | 22km/h | 19571m | 6.1m/s | 0°C | 0% | 0hPa | 2.7V | 00:00:00 | 01:23:22 | 00:00:00 | |
| DO3MHA-11 | 2026-09-02 11:52:50 | 48.14521 | 12.38848 | 99° | 20km/h | 19565m | 5.3m/s | -52.3°C | 3.6% | 62.5hPa | 2.7V | 00:00:00 | 01:23:21 | 00:00:00 | |
| OE5FHM-15 | 2026-09-02 11:52:45 | 48.14526 | 12.38816 | 126° | 27km/h | 19542m | 4.2m/s | -52.6°C | 3.6% | 62.7hPa | 2.7V | 00:00:00 | 01:23:16 | 00:00:00 | |
| PETON7-10 | 2026-09-02 11:52:44 | 48.14529 | 12.38811 | 134° | 22km/h | 19537m | 5.8m/s | -52.5°C | 3.6% | 62.7hPa | 2.7V | 00:00:00 | 01:23:15 | 00:00:00 | |
| DG1MFX-10 | 2026-09-02 11:52:40 | 48.14541 | 12.38793 | 133° | 24km/h | 19522m | 5.0m/s | -52.5°C | 1.0% | 62.9hPa | 2.7V | 00:00:00 | 00:00:00 | 00:00:00 | |
| DO3MHA-11 | 2026-09-02 11:52:39 | 48.14548 | 12.38780 | 123° | 24km/h | 19513m | 4.2m/s | -52.5°C | 3.6% | 63.0hPa | 2.7V | 00:00:00 | 01:23:10 | 08:30:00 | |
| OE5WHR-10 | 2026-09-02 11:52:38 | 48.14550 | 12.38775 | 121° | 27km/h | 19508m | 4.4m/s | -52.4°C | 3.6% | 63.0hPa | 2.7V | 00:00:00 | 00:00:00 | 00:00:00 | |
| BAUMI2-15 | 2026-09-02 11:52:37 | 48.14553 | 12.38768 | 121° | 22km/h | 19503m | 5.7m/s | -52.4°C | 3.5% | 63.1hPa | 2.7V | 00:00:00 | 01:23:08 | 00:00:00 | |
| OE5MMP-10 | 2026-09-02 11:52:34 | 48.14561 | 12.38745 | 115° | 27km/h | 19489m | 5.0m/s | -52.4°C | 3.5% | 63.2hPa | 2.7V | 00:00:00 | 01:23:05 | 08:30:00 | |
| BAUMI2-15 | 2026-09-02 11:52:31 | 48.14567 | 12.38720 | 108° | 27km/h | 19475m | 5.4m/s | -52.5°C | 3.4% | 63.3hPa | 2.7V | 00:00:00 | 01:23:02 | 00:00:00 | |
| PETON7-10 | 2026-09-02 11:52:29 | 48.14571 | 12.38699 | 111° | 33km/h | 19465m | 4.8m/s | -52.5°C | 3.5% | 63.4hPa | 2.7V | 00:00:00 | 00:00:00 | 00:00:00 | |
| OE8JPQ-2 | 2026-09-02 11:52:28 | 48.14574 | 12.38689 | 112° | 38km/h | 19459m | 6.0m/s | 0°C | 0% | 0hPa | 2.7V | 00:00:00 | 00:00:00 | 00:00:00 | |
| BAUMI2-15 | 2026-09-02 11:52:26 | 48.14580 | 12.38669 | 114° | 31km/h | 19449m | 4.5m/s | -52.7°C | 3.4% | 63.6hPa | 2.7V | 00:00:00 | 01:22:57 | 00:00:00 | |
| OE5DXL-15 | 2026-09-02 11:52:25 | 48.14582 | 12.38659 | 116° | 40km/h | 19444m | 5.9m/s | -52.6°C | 3.4% | 63.7hPa | 2.7V | 00:00:00 | 00:00:00 | 00:00:00 | |
| OE5MMP-10 | 2026-09-02 11:52:24 | 48.14586 | 12.38649 | 116° | 35km/h | 19439m | 4.7m/s | -52.8°C | 3.5% | 63.7hPa | 2.7V | 00:00:00 | 01:22:55 | 00:00:00 | |
| BAUMI2-15 | 2026-09-02 11:52:21 | 48.14596 | 12.38616 | 112° | 31km/h | 19424m | 4.7m/s | -53.3°C | 3.6% | 63.9hPa | 2.7V | 00:00:00 | 01:22:52 | 00:00:00 | |
| DO3MHA-11 | 2026-09-02 11:52:19 | 48.14601 | 12.38595 | 110° | 40km/h | 19415m | 5.0m/s | -53.6°C | 3.8% | 64.0hPa | 2.7V | 00:00:00 | 01:22:50 | 00:00:00 | |
| OE5WHR-10 | 2026-09-02 11:52:17 | 48.14607 | 12.38569 | 107° | 44km/h | 19404m | 4.0m/s | -53.8°C | 3.9% | 64.0hPa | 2.7V | 00:00:00 | 01:22:48 | 00:00:00 | |
| OE5FHM-15 | 2026-09-02 11:52:14 | 48.14614 | 12.38523 | 103° | 40km/h | 19390m | 4.4m/s | -53.8°C | 3.9% | 64.2hPa | 2.7V | 00:00:00 | 01:22:45 | 00:00:00 | |
| BAUMI2-15 | 2026-09-02 11:52:11 | 48.14623 | 12.38475 | 107° | 42km/h | 19376m | 4.6m/s | -54.0°C | 4.0% | 64.3hPa | 2.7V | 00:00:00 | 01:22:42 | 00:00:00 | |
| DO3MHA-11 | 2026-09-02 11:52:09 | 48.14628 | 12.38445 | 104° | 44km/h | 19365m | 4.4m/s | -54.0°C | 4.0% | 64.4hPa | 2.7V | 00:00:00 | 01:22:40 | 00:00:00 | |
| BAUMI2-15 | 2026-09-02 11:52:06 | 48.14636 | 12.38399 | 103° | 46km/h | 19351m | 3.7m/s | -54.0°C | 4.0% | 64.6hPa | 2.7V | 00:00:00 | 01:22:37 | 08:30:00 | |
| OE5MMP-10 | 2026-09-02 11:52:04 | 48.14640 | 12.38364 | 97° | 46km/h | 19341m | 5.3m/s | -53.8°C | 3.9% | 64.7hPa | 2.7V | 00:00:00 | 01:22:35 | 00:00:00 | |
| DL6DJ-15 | 2026-09-02 11:51:57 | 48.14667 | 12.38105 | 102° | 42km/h | 19263m | 4.0m/s | -53.4°C | 1.0% | 65.5hPa | 2.7V | 00:00:00 | 00:00:00 | 00:00:00 | |
| OE5WHR-10 | 2026-09-02 11:51:56 | 48.14653 | 12.38229 | 98° | 38km/h | 19304m | 4.7m/s | -53.5°C | 3.9% | 65.1hPa | 2.7V | 00:00:00 | 00:00:00 | 00:00:00 | |
| OE5DXL-15 | 2026-09-02 11:51:55 | 48.14655 | 12.38213 | 100° | 35km/h | 19298m | 6.0m/s | -53.5°C | 3.9% | 65.1hPa | 2.7V | 00:00:00 | 00:00:00 | 00:00:00 | |
| OE5MMP-10 | 2026-09-02 11:51:54 | 48.14657 | 12.38197 | 102° | 40km/h | 19293m | 4.7m/s | -53.4°C | 3.9% | 65.2hPa | 2.7V | 00:00:00 | 01:22:25 | 00:00:00 | |
| OE3JTB-15 | 2026-09-02 11:51:53 | 48.14662 | 12.38152 | 99° | 35km/h | 19279m | 5.5m/s | -53.6°C | 3.9% | 65.3hPa | 2.7V | 00:00:00 | 01:22:22 | 00:00:00 | |
| BAUMI2-15 | 2026-09-02 11:51:51 | 48.14662 | 12.38152 | 99° | 40km/h | 19279m | 5.5m/s | -53.6°C | 3.9% | 65.3hPa | 2.7V | 00:00:00 | 01:22:22 | 00:00:00 | |
| DB0UT-7 | 2026-09-02 11:51:47 | 48.14670 | 12.38090 | 105° | 29km/h | 19260m | 3.6m/s | -53.4°C | 3.8% | 65.5hPa | 2.7V | 00:00:00 | 01:22:18 | 08:30:00 | |
| BAUMI2-15 | 2026-09-02 11:51:45 | 48.14675 | 12.38062 | 105° | 35km/h | 19250m | 5.3m/s | -53.4°C | 3.8% | 65.6hPa | 2.7V | 00:00:00 | 01:22:16 | 00:00:00 | |
| OE5MMP-10 | 2026-09-02 11:51:44 | 48.14677 | 12.38049 | 102° | 35km/h | 19244m | 5.1m/s | -53.4°C | 3.9% | 65.7hPa | 2.7V | 00:00:00 | 01:22:15 | 00:00:00 | |
| BAUMI2-15 | 2026-09-02 11:51:40 | 48.14681 | 12.37996 | 98° | 35km/h | 19224m | 6.0m/s | -53.3°C | 3.8% | 65.9hPa | 2.7V | 00:00:00 | 01:22:11 | 00:00:00 | |
| DO3MHA-11 | 2026-09-02 11:51:39 | 48.14682 | 12.37982 | 99° | 33km/h | 19217m | 7.1m/s | -53.3°C | 3.8% | 65.9hPa | 2.7V | 00:00:00 | 01:22:10 | 00:00:00 | |
| DG1MFX-10 | 2026-09-02 11:51:37 | 48.14684 | 12.37970 | 101° | 33km/h | 19211m | 5.3m/s | -53.2°C | 1.1% | 66.1hPa | 2.7V | 00:00:00 | 00:00:00 | 00:00:00 | |
| OE5WHR-10 | 2026-09-02 11:51:35 | 48.14690 | 12.37932 | 107° | 27km/h | 19195m | 5.0m/s | -53.3°C | 3.7% | 66.2hPa | 2.7V | 00:00:00 | 00:00:00 | 00:00:00 | |
| OE5MMP-10 | 2026-09-02 11:51:34 | 48.14693 | 12.37918 | 106° | 29km/h | 19190m | 4.6m/s | -53.3°C | 3.7% | 66.2hPa | 2.7V | 00:00:00 | 01:22:05 | 00:00:00 | |
| BAUMI2-15 | 2026-09-02 11:51:30 | 48.14701 | 12.37871 | 103° | 24km/h | 19168m | 5.6m/s | -53.4°C | 3.7% | 66.5hPa | 2.7V | 00:00:00 | 01:22:01 | 00:00:00 | |
| DO3MHA-11 | 2026-09-02 11:51:29 | 48.14702 | 12.37860 | 104° | 24km/h | 19163m | 5.4m/s | -53.5°C | 3.7% | 66.5hPa | 2.7V | 00:00:00 | 01:22:00 | 00:00:00 | |
| OE5DRO-10 | 2026-09-02 11:51:28 | 48.14704 | 12.37850 | 105° | 24km/h | 19158m | 4.0m/s | -53.6°C | 3.7% | 66.6hPa | 2.7V | 00:00:00 | 00:00:00 | 00:00:00 | |
| OE8JPQ-2 | 2026-09-02 11:51:27 | 48.14706 | 12.37841 | 106° | 24km/h | 19154m | 4.5m/s | 0°C | 0% | 0hPa | 2.7V | 00:00:00 | 01:21:58 | 00:00:00 | |
| OE5DXL-15 | 2026-09-02 11:51:25 | 48.14709 | 12.37825 | 113° | 29km/h | 19143m | 4.8m/s | -53.5°C | 3.8% | 66.7hPa | 2.7V | 00:00:00 | 00:00:00 | 08:30:00 | |
| OE5MMP-10 | 2026-09-02 11:51:24 | 48.14711 | 12.37818 | 120° | 24km/h | 19138m | 4.9m/s | -53.5°C | 3.8% | 66.8hPa | 2.7V | 00:00:00 | 01:21:55 | 00:00:00 | |
| DO7DH-14 | 2026-09-02 11:51:20 | 48.14725 | 12.37790 | 131° | 29km/h | 19118m | 5.0m/s | -53.6°C | 3.9% | 67.0hPa | 2.7V | 00:00:00 | 01:21:51 | 00:00:00 | |
| DO3MHA-11 | 2026-09-02 11:51:19 | 48.14729 | 12.37783 | 129° | 26km/h | 19113m | 4.3m/s | -53.6°C | 3.9% | 67.0hPa | 2.7V | 00:00:00 | 01:21:50 | 00:00:00 | |
| DB0UT-7 | 2026-09-02 11:51:17 | 48.14737 | 12.37767 | 124° | 29km/h | 19104m | 3.9m/s | -53.5°C | 3.9% | 67.1hPa | 2.7V | 00:00:00 | 00:00:00 | 00:00:00 | |
| OE5FHM-15 | 2026-09-02 11:51:15 | 48.14743 | 12.37751 | 116° | 33km/h | 19095m | 5.2m/s | -53.6°C | 3.9% | 67.2hPa | 2.7V | 00:00:00 | 01:21:46 | 00:00:00 | |
| PETON7-10 | 2026-09-02 11:51:14 | 48.14746 | 12.37742 | 113° | 31km/h | 19090m | 4.4m/s | -53.5°C | 3.8% | 67.3hPa | 2.7V | 00:00:00 | 01:21:45 | 00:00:00 | |
| BAUMI2-15 | 2026-09-02 11:51:09 | 48.14757 | 12.37698 | 107° | 33km/h | 19065m | 5.1m/s | -53.5°C | 3.8% | 67.5hPa | 2.7V | 00:00:00 | 01:21:40 | 00:00:00 | |
| OE8JPQ-2 | 2026-09-02 11:51:07 | 48.14762 | 12.37678 | 109° | 37km/h | 19056m | 5.4m/s | 0°C | 0% | 0hPa | 2.7V | 00:00:00 | 00:00:00 | 00:00:00 | |
| OE5MMP-10 | 2026-09-02 11:51:04 | 48.14772 | 12.37640 | 114° | 35km/h | 19040m | 5.7m/s | -53.3°C | 3.8% | 67.8hPa | 2.7V | 00:00:00 | 01:21:35 | 08:30:00 | |
| PETON7-10 | 2026-09-02 11:50:59 | 48.14792 | 12.37578 | 118° | 38km/h | 19015m | 5.0m/s | -53.1°C | 3.8% | 68.0hPa | 2.7V | 00:00:00 | 00:00:00 | 00:00:00 | |
| PG1ADW-2 | 2026-09-02 11:50:56 | 48.14801 | 12.37545 | 108° | 38km/h | 19001m | 3.0m/s | -53.4°C | 3.8% | 68.2hPa | 2.7V | 00:00:00 | 01:21:27 | 08:30:00 | |
| OE5DXL-15 | 2026-09-02 11:50:55 | 48.14803 | 12.37534 | 109° | 38km/h | 18997m | 4.9m/s | -53.5°C | 3.8% | 68.3hPa | 2.7V | 00:00:00 | 00:00:00 | 00:00:00 | |
| OE5MMP-10 | 2026-09-02 11:50:54 | 48.14806 | 12.37522 | 113° | 40km/h | 18991m | 5.6m/s | -53.7°C | 3.9% | 68.3hPa | 2.7V | 00:00:00 | 01:21:25 | 00:00:00 | |
| OE5WHR-10 | 2026-09-02 11:50:53 | 48.14810 | 12.37509 | 118° | 40km/h | 18986m | 4.3m/s | -53.7°C | 3.9% | 68.4hPa | 2.7V | 00:00:00 | 00:00:00 | 00:00:00 | |
| DO7DH-14 | 2026-09-02 11:50:50 | 48.14826 | 12.37470 | 124° | 38km/h | 18972m | 5.6m/s | -53.5°C | 3.9% | 68.5hPa | 2.7V | 00:00:00 | 01:21:21 | 00:00:00 | |
| BAUMI2-15 | 2026-09-02 11:50:49 | 48.14831 | 12.37458 | 125° | 40km/h | 18966m | 4.7m/s | -53.5°C | 3.8% | 68.6hPa | 2.7V | 00:00:00 | 01:21:20 | 00:00:00 | |
| OE5REO-15 | 2026-09-02 11:50:48 | 48.14831 | 12.37458 | 125° | 38km/h | 18966m | 4.8m/s | -53.6°C | 1.0% | 68.7hPa | 2.7V | 00:00:00 | 00:00:00 | 00:00:00 | |
| DO3MHA-11 | 2026-09-02 11:50:47 | 48.14842 | 12.37434 | 124° | 40km/h | 18957m | 6.1m/s | -53.5°C | 3.9% | 68.7hPa | 2.7V | 00:00:00 | 01:21:18 | 00:00:00 | |
| OE5FHM-15 | 2026-09-02 11:50:45 | 48.14854 | 12.37407 | 120° | 40km/h | 18947m | 4.2m/s | -53.3°C | 3.9% | 68.8hPa | 2.7V | 00:00:00 | 01:21:16 | 00:00:00 | |
| OE5MMP-10 | 2026-09-02 11:50:44 | 48.14859 | 12.37393 | 118° | 40km/h | 18942m | 5.8m/s | -53.3°C | 3.9% | 68.9hPa | 2.7V | 00:00:00 | 01:21:15 | 00:00:00 | |
| DO3MHA-11 | 2026-09-02 11:50:35 | 48.14891 | 12.37268 | 117° | 38km/h | 18894m | 6.2m/s | -53.1°C | 3.7% | 69.4hPa | 2.7V | 00:00:00 | 01:21:06 | 00:00:00 | |
| OE5MMP-10 | 2026-09-02 11:50:34 | 48.14895 | 12.37255 | 118° | 37km/h | 18888m | 4.6m/s | -53.1°C | 3.7% | 69.4hPa | 2.7V | 00:00:00 | 01:21:05 | 00:00:00 | |
| OE5WHR-10 | 2026-09-02 11:50:32 | 48.14904 | 12.37229 | 116° | 35km/h | 18878m | 5.9m/s | -53.1°C | 3.8% | 69.5hPa | 2.7V | 00:00:00 | 00:00:00 | 00:00:00 | |
| OE5DRO-10 | 2026-09-02 11:50:31 | 48.14908 | 12.37217 | 113° | 37km/h | 18873m | 4.8m/s | -53.1°C | 3.8% | 69.6hPa | 2.7V | 00:00:00 | 00:00:00 | 00:00:00 | |
| DO3MHA-11 | 2026-09-02 11:50:25 | 48.14925 | 12.37137 | 110° | 37km/h | 18844m | 5.5m/s | -52.7°C | 3.7% | 69.9hPa | 2.7V | 00:00:00 | 01:20:56 | 00:00:00 | |
| OE5MMP-10 | 2026-09-02 11:50:24 | 48.14929 | 12.37125 | 112° | 33km/h | 18839m | 4.7m/s | -52.7°C | 3.7% | 70.0hPa | 2.7V | 00:00:00 | 01:20:55 | 00:00:00 | |
| DG1MJG | 2026-09-02 11:50:23 | 48.14929 | 12.37125 | 113° | 33km/h | 18839m | 4.8m/s | -52.7°C | 1.1% | 70.0hPa | 2.7V | 00:00:00 | 00:00:00 | 00:00:00 | |
| OE3JTB-15 | 2026-09-02 11:50:19 | 48.14952 | 12.37033 | 108° | 37km/h | 18800m | 5.5m/s | -52.7°C | 3.7% | 70.4hPa | 2.7V | 00:00:00 | 00:00:00 | 00:00:00 | |
| OE5FHM-15 | 2026-09-02 11:50:15 | 48.14955 | 12.37022 | 109° | 35km/h | 18795m | 4.6m/s | -52.7°C | 3.7% | 70.4hPa | 2.7V | 00:00:00 | 01:20:46 | 00:00:00 | |
| OE5MMP-10 | 2026-09-02 11:50:14 | 48.14957 | 12.37011 | 108° | 33km/h | 18790m | 5.1m/s | -52.7°C | 3.7% | 70.5hPa | 2.7V | 00:00:00 | 01:20:45 | 00:00:00 | |
| OE5WHR-10 | 2026-09-02 11:50:11 | 48.14963 | 12.36977 | 106° | 35km/h | 18774m | 5.6m/s | -52.6°C | 3.7% | 70.7hPa | 2.7V | 00:00:00 | 01:20:42 | 00:00:00 | |
| OE5MMP-10 | 2026-09-02 11:50:04 | 48.14977 | 12.36893 | 108° | 37km/h | 18740m | 5.0m/s | -52.4°C | 3.6% | 71.0hPa | 2.7V | 00:00:00 | 01:20:35 | 00:00:00 | |
| OE5REO-15 | 2026-09-02 11:50:00 | 48.14984 | 12.36855 | 106° | 37km/h | 18726m | 5.1m/s | -52.5°C | 1.0% | 71.3hPa | 2.7V | 00:00:00 | 00:00:00 | 00:00:00 | |
| OE5DXL-15 | 2026-09-02 11:49:55 | 48.14999 | 12.36773 | 100° | 37km/h | 18696m | 3.5m/s | -52.7°C | 3.7% | 71.5hPa | 2.7V | 00:00:00 | 00:00:00 | 00:00:00 | |
| OE5MMP-10 | 2026-09-02 11:49:54 | 48.15000 | 12.36759 | 101° | 29km/h | 18692m | 5.2m/s | -52.7°C | 3.7% | 71.6hPa | 2.7V | 00:00:00 | 01:20:25 | 00:00:00 | |
| DG1MJG | 2026-09-02 11:49:52 | 48.15002 | 12.36745 | 102° | 35km/h | 18687m | 4.7m/s | -52.7°C | 1.0% | 71.7hPa | 2.7V | 00:00:00 | 00:00:00 | 00:00:00 | |
| OE5WHR-10 | 2026-09-02 11:49:50 | 48.15005 | 12.36710 | 93° | 37km/h | 18673m | 4.5m/s | -52.6°C | 3.6% | 71.8hPa | 2.7V | 00:00:00 | 00:00:00 | 08:30:00 | |
| DO3MHA-11 | 2026-09-02 11:49:49 | 48.15005 | 12.36700 | 95° | 38km/h | 18668m | 5.1m/s | -52.7°C | 3.6% | 71.8hPa | 2.7V | 00:00:00 | 01:20:20 | 00:00:00 | |
| OE5REO-15 | 2026-09-02 11:49:45 | 48.15009 | 12.36659 | 94° | 29km/h | 18649m | 4.5m/s | -52.9°C | 1.0% | 72.1hPa | 2.7V | 00:00:00 | 00:00:00 | 00:00:00 | |
| OE5MMP-10 | 2026-09-02 11:49:44 | 48.15009 | 12.36647 | 93° | 42km/h | 18645m | 3.9m/s | -52.9°C | 3.6% | 72.1hPa | 2.7V | 00:00:00 | 01:20:15 | 00:00:00 | |
| DO3MHA-11 | 2026-09-02 11:49:36 | 48.15016 | 12.36521 | 97° | 40km/h | 18607m | 4.7m/s | -52.9°C | 3.6% | 72.6hPa | 2.7V | 00:00:00 | 01:20:07 | 00:00:00 | |
| OE5MMP-10 | 2026-09-02 11:49:34 | 48.15019 | 12.36487 | 98° | 40km/h | 18599m | 3.9m/s | -53.0°C | 3.6% | 72.6hPa | 2.7V | 00:00:00 | 01:20:05 | 08:30:00 | |
| DG1MFX-10 | 2026-09-02 11:49:33 | 48.15019 | 12.36487 | 99° | 44km/h | 18599m | 4.0m/s | -53.0°C | 1.1% | 72.7hPa | 2.7V | 00:00:00 | 00:00:00 | 00:00:00 | |
| OE5WHR-10 | 2026-09-02 11:49:29 | 48.15025 | 12.36414 | 102° | 40km/h | 18575m | 4.1m/s | -53.3°C | 3.7% | 72.9hPa | 2.7V | 00:00:00 | 00:00:00 | 00:00:00 | |
| DO3MHA-11 | 2026-09-02 11:49:26 | 48.15030 | 12.36370 | 95° | 42km/h | 18563m | 4.3m/s | -53.6°C | 3.7% | 73.0hPa | 2.7V | 00:00:00 | 01:19:57 | 00:00:00 | |
| OE5DXL-15 | 2026-09-02 11:49:25 | 48.15031 | 12.36354 | 91° | 38km/h | 18558m | 4.4m/s | -53.5°C | 3.7% | 73.1hPa | 2.7V | 00:00:00 | 00:00:00 | 00:00:00 | |
| OE5MMP-10 | 2026-09-02 11:49:24 | 48.15031 | 12.36337 | 90° | 40km/h | 18553m | 5.3m/s | -53.5°C | 3.6% | 73.2hPa | 2.7V | 00:00:00 | 01:19:55 | 00:00:00 | |
| DG1MJG | 2026-09-02 11:49:21 | 48.15030 | 12.36301 | 86° | 47km/h | 18544m | 4.3m/s | -53.7°C | 1.0% | 73.3hPa | 2.7V | 00:00:00 | 00:00:00 | 00:00:00 | |
| DO3MHA-11 | 2026-09-02 11:49:16 | 48.15025 | 12.36210 | 89° | 37km/h | 18518m | 4.5m/s | -54.1°C | 3.9% | 73.6hPa | 2.7V | 00:00:00 | 01:19:47 | 00:00:00 | |
| OE5MMP-10 | 2026-09-02 11:49:14 | 48.15023 | 12.36186 | 82° | 38km/h | 18508m | 3.5m/s | -54.1°C | 3.9% | 73.7hPa | 2.7V | 00:00:00 | 01:19:45 | 00:00:00 | |
| OE8JPQ-2 | 2026-09-02 11:49:13 | 48.15022 | 12.36175 | 81° | 38km/h | 18505m | 3.3m/s | 0°C | 0% | 0hPa | 2.7V | 00:00:00 | 00:00:00 | 00:00:00 | |
| OE5WHR-10 | 2026-09-02 11:49:08 | 48.15012 | 12.36104 | 72° | 42km/h | 18482m | 3.9m/s | -54.2°C | 4.0% | 74.0hPa | 2.7V | 00:00:00 | 01:19:39 | 00:00:00 | |
| DO7DH-14 | 2026-09-02 11:49:06 | 48.15006 | 12.36073 | 76° | 42km/h | 18473m | 4.4m/s | -54.3°C | 4.0% | 74.1hPa | 2.7V | 00:00:00 | 01:19:37 | 00:00:00 | |
| OE5MMP-10 | 2026-09-02 11:49:04 | 48.15001 | 12.36044 | 77° | 37km/h | 18464m | 5.1m/s | -54.4°C | 3.9% | 74.2hPa | 2.7V | 00:00:00 | 01:19:35 | 00:00:00 | |
| DL6DJ-15 | 2026-09-02 11:48:51 | 48.14941 | 12.35828 | 60° | 49km/h | 18397m | 4.7m/s | -54.2°C | 1.1% | 75.0hPa | 2.7V | 00:00:00 | 00:00:00 | 00:00:00 | |
| DG1MJG | 2026-09-02 11:48:50 | 48.14955 | 12.35860 | 57° | 51km/h | 18406m | 3.5m/s | -54.1°C | 1.1% | 74.9hPa | 2.7V | 00:00:00 | 00:00:00 | 00:00:00 | |
| OE5WHR-10 | 2026-09-02 11:48:47 | 48.14931 | 12.35796 | 66° | 42km/h | 18389m | 4.1m/s | -54.0°C | 4.0% | 75.1hPa | 2.7V | 00:00:00 | 00:00:00 | 00:00:00 | |
| DO3MHA-11 | 2026-09-02 11:48:46 | 48.14926 | 12.35782 | 66° | 44km/h | 18384m | 5.6m/s | -54.1°C | 4.0% | 75.1hPa | 2.7V | 00:00:00 | 01:19:17 | 00:00:00 | |
| OE5MMP-10 | 2026-09-02 11:48:44 | 48.14918 | 12.35756 | 65° | 46km/h | 18374m | 4.2m/s | -53.9°C | 4.0% | 75.2hPa | 2.7V | 00:00:00 | 01:19:15 | 00:00:00 | |
| OE5FHM-15 | 2026-09-02 11:48:41 | 48.14904 | 12.35715 | 60° | 42km/h | 18361m | 4.0m/s | -53.8°C | 4.0% | 75.4hPa | 2.7V | 00:00:00 | 01:19:12 | 00:00:00 | |
| OE3JTB-15 | 2026-09-02 11:48:40 | 48.14885 | 12.35671 | 57° | 42km/h | 18347m | 4.3m/s | -53.7°C | 3.9% | 75.5hPa | 2.7V | 00:00:00 | 01:19:09 | 00:00:00 | |
| BAUMI2-15 | 2026-09-02 11:48:37 | 48.14878 | 12.35655 | 60° | 51km/h | 18343m | 4.9m/s | -53.7°C | 4.0% | 75.6hPa | 2.7V | 00:00:00 | 01:19:08 | 00:00:00 | |
| DO3MHA-11 | 2026-09-02 11:48:36 | 48.14872 | 12.35638 | 62° | 42km/h | 18338m | 4.1m/s | -53.6°C | 3.9% | 75.7hPa | 2.7V | 00:00:00 | 01:19:07 | 00:00:00 | |
| OE5MMP-10 | 2026-09-02 11:48:34 | 48.14860 | 12.35606 | 62° | 40km/h | 18329m | 4.3m/s | -53.6°C | 3.9% | 75.8hPa | 2.7V | 00:00:00 | 01:19:05 | 00:00:00 | |
| BAUMI2-15 | 2026-09-02 11:48:32 | 48.14850 | 12.35576 | 65° | 38km/h | 18320m | 6.1m/s | -53.5°C | 3.9% | 75.9hPa | 2.7V | 00:00:00 | 01:19:03 | 08:30:00 | |
| DG1MFX-10 | 2026-09-02 11:48:31 | 48.14850 | 12.35576 | 65° | 42km/h | 18320m | 6.1m/s | -53.5°C | 1.1% | 76.0hPa | 2.7V | 00:00:00 | 00:00:00 | 00:00:00 | |
| BAUMI2-15 | 2026-09-02 11:48:27 | 48.14828 | 12.35512 | 60° | 40km/h | 18294m | 4.6m/s | -53.2°C | 3.8% | 76.2hPa | 2.7V | 00:00:00 | 01:18:58 | 00:00:00 | |
| OE5DXL-15 | 2026-09-02 11:48:26 | 48.14818 | 12.35486 | 62° | 40km/h | 18284m | 4.6m/s | -53.1°C | 3.8% | 76.3hPa | 2.7V | 00:00:00 | 00:00:00 | 00:00:00 | |
| OE5MMP-10 | 2026-09-02 11:48:24 | 48.14813 | 12.35472 | 62° | 44km/h | 18279m | 5.4m/s | -53.1°C | 3.8% | 76.4hPa | 2.7V | 00:00:00 | 01:18:55 | 00:00:00 | |
| BAUMI2-15 | 2026-09-02 11:48:22 | 48.14803 | 12.35444 | 62° | 44km/h | 18269m | 4.1m/s | -53.0°C | 3.8% | 76.5hPa | 2.7V | 00:00:00 | 01:18:53 | 00:00:00 | |
| DG1MJG | 2026-09-02 11:48:19 | 48.14793 | 12.35415 | 66° | 44km/h | 18260m | 5.8m/s | -52.9°C | 1.1% | 76.6hPa | 2.7V | 00:00:00 | 00:00:00 | 00:00:00 | |
| BAUMI2-15 | 2026-09-02 11:48:17 | 48.14777 | 12.35370 | 60° | 40km/h | 18245m | 5.6m/s | -52.7°C | 3.7% | 76.8hPa | 2.7V | 00:00:00 | 01:18:48 | 00:00:00 | |
| DO3MHA-11 | 2026-09-02 11:48:16 | 48.14772 | 12.35356 | 57° | 38km/h | 18240m | 4.3m/s | -52.7°C | 3.7% | 76.8hPa | 2.7V | 00:00:00 | 01:18:47 | 00:00:00 | |
| OE5MMP-10 | 2026-09-02 11:48:14 | 48.14760 | 12.35330 | 58° | 40km/h | 18231m | 5.4m/s | -52.6°C | 3.7% | 76.9hPa | 2.7V | 00:00:00 | 01:18:45 | 00:00:00 | |
| OE5DRO-10 | 2026-09-02 11:48:13 | 48.14756 | 12.35318 | 59° | 38km/h | 18226m | 3.9m/s | -52.6°C | 3.7% | 77.0hPa | 2.7V | 00:00:00 | 00:00:00 | 00:00:00 | |
| BAUMI2-15 | 2026-09-02 11:48:12 | 48.14751 | 12.35306 | 59° | 37km/h | 18222m | 4.3m/s | -52.5°C | 3.7% | 77.1hPa | 2.7V | 00:00:00 | 01:18:43 | 00:00:00 | |
| DO7DH-14 | 2026-09-02 11:48:11 | 48.14746 | 12.35295 | 56° | 38km/h | 18217m | 5.1m/s | -52.5°C | 3.7% | 77.1hPa | 2.7V | 00:00:00 | 01:18:42 | 00:00:00 | |
| OE3JTB-15 | 2026-09-02 11:48:10 | 48.14736 | 12.35273 | 60° | 37km/h | 18208m | 4.9m/s | -52.4°C | 3.7% | 77.2hPa | 2.7V | 00:00:00 | 00:00:00 | 00:00:00 | |
| BAUMI2-15 | 2026-09-02 11:48:07 | 48.14727 | 12.35246 | 67° | 44km/h | 18197m | 4.7m/s | -52.4°C | 3.7% | 77.3hPa | 2.7V | 00:00:00 | 01:18:38 | 00:00:00 | |
| DO3MHA-11 | 2026-09-02 11:48:06 | 48.14723 | 12.35230 | 66° | 40km/h | 18193m | 5.1m/s | -52.2°C | 3.7% | 77.4hPa | 2.7V | 00:00:00 | 01:18:37 | 00:00:00 | |
| OE5WHR-10 | 2026-09-02 11:48:05 | 48.14718 | 12.35215 | 64° | 38km/h | 18187m | 4.9m/s | -52.2°C | 3.7% | 77.5hPa | 2.7V | 00:00:00 | 01:18:36 | 00:00:00 | |
| OE5MMP-10 | 2026-09-02 11:48:04 | 48.14712 | 12.35200 | 62° | 38km/h | 18183m | 3.3m/s | -52.2°C | 3.6% | 77.5hPa | 2.7V | 00:00:00 | 01:18:35 | 08:30:00 | |
| DL6DJ-15 | 2026-09-02 11:47:49 | 48.14637 | 12.34983 | 69° | 29km/h | 18101m | 3.8m/s | -52.1°C | 1.0% | 78.6hPa | 2.7V | 00:00:00 | 00:00:00 | 00:00:00 | |
| BAUMI2-15 | 2026-09-02 11:47:47 | 48.14637 | 12.34983 | 70° | 31km/h | 18101m | 3.8m/s | -52.1°C | 3.4% | 78.5hPa | 2.7V | 00:00:00 | 01:18:18 | 08:30:00 | |
| DO3MHA-11 | 2026-09-02 11:47:46 | 48.14634 | 12.34973 | 66° | 33km/h | 18096m | 6.0m/s | -52.1°C | 3.4% | 78.6hPa | 2.7V | 00:00:00 | 01:18:17 | 00:00:00 | |
| OE5MMP-10 | 2026-09-02 11:47:44 | 48.14627 | 12.34953 | 56° | 35km/h | 18085m | 4.2m/s | -52.4°C | 3.5% | 78.7hPa | 2.7V | 00:00:00 | 01:18:15 | 00:00:00 | |
| BAUMI2-15 | 2026-09-02 11:47:42 | 48.14619 | 12.34932 | 65° | 33km/h | 18076m | 5.4m/s | -52.7°C | 3.6% | 78.8hPa | 2.7V | 00:00:00 | 01:18:13 | 00:00:00 | |
| OE3JTB-15 | 2026-09-02 11:47:38 | 48.14610 | 12.34884 | 75° | 40km/h | 18056m | 5.5m/s | -52.7°C | 3.6% | 79.1hPa | 2.7V | 00:00:00 | 00:00:00 | 00:00:00 | |
| BAUMI2-15 | 2026-09-02 11:47:37 | 48.14607 | 12.34871 | 70° | 37km/h | 18051m | 5.4m/s | -52.7°C | 3.6% | 79.2hPa | 2.7V | 00:00:00 | 01:18:08 | 00:00:00 | |
| DO3MHA-11 | 2026-09-02 11:47:36 | 48.14604 | 12.34859 | 67° | 33km/h | 18046m | 4.7m/s | -52.7°C | 3.5% | 79.2hPa | 2.7V | 00:00:00 | 01:18:07 | 08:30:00 | |
| OE5DRO-10 | 2026-09-02 11:47:35 | 48.14601 | 12.34847 | 68° | 35km/h | 18041m | 5.5m/s | -52.7°C | 3.6% | 79.3hPa | 2.7V | 00:00:00 | 00:00:00 | 08:30:00 | |
| OE5MMP-10 | 2026-09-02 11:47:34 | 48.14597 | 12.34834 | 70° | 31km/h | 18036m | 4.4m/s | -52.9°C | 3.6% | 79.3hPa | 2.7V | 00:00:00 | 01:18:05 | 00:00:00 | |
| BAUMI2-15 | 2026-09-02 11:47:32 | 48.14591 | 12.34809 | 72° | 31km/h | 18026m | 5.5m/s | -53.2°C | 3.7% | 79.5hPa | 2.7V | 00:00:00 | 01:18:03 | 00:00:00 | |
| PETON7-10 | 2026-09-02 11:47:29 | 48.14585 | 12.34774 | 81° | 33km/h | 18011m | 4.7m/s | 0°C | 0% | 0hPa | 2.7V | 00:00:00 | 00:00:00 | 00:00:00 | |
| BAUMI2-15 | 2026-09-02 11:47:27 | 48.14583 | 12.34751 | 83° | 31km/h | 18001m | 6.2m/s | -53.4°C | 3.8% | 79.8hPa | 2.7V | 00:00:00 | 01:17:58 | 00:00:00 | |
| DO3MHA-11 | 2026-09-02 11:47:26 | 48.14582 | 12.34740 | 87° | 31km/h | 17995m | 4.8m/s | -53.4°C | 3.7% | 79.8hPa | 2.7V | 00:00:00 | 01:17:57 | 00:00:00 | |
| OE5DXL-15 | 2026-09-02 11:47:25 | 48.14582 | 12.34729 | 92° | 42km/h | 17990m | 5.7m/s | -53.5°C | 3.8% | 79.9hPa | 2.7V | 00:00:00 | 00:00:00 | 00:00:00 | |
| OE5MMP-10 | 2026-09-02 11:47:24 | 48.14583 | 12.34717 | 96° | 33km/h | 17984m | 5.3m/s | -53.6°C | 3.9% | 79.9hPa | 2.7V | 00:00:00 | 01:17:55 | 00:00:00 | |
| BAUMI2-15 | 2026-09-02 11:47:23 | 48.14585 | 12.34692 | 98° | 31km/h | 17976m | 4.9m/s | -53.4°C | 3.8% | 80.1hPa | 2.7V | 00:00:00 | 01:17:53 | 00:00:00 | |
| DG1MJG | 2026-09-02 11:47:19 | 48.14586 | 12.34669 | 92° | 29km/h | 17965m | 4.7m/s | -53.6°C | 1.1% | 80.3hPa | 2.7V | 00:00:00 | 00:00:00 | 00:00:00 | |
| BAUMI2-15 | 2026-09-02 11:47:17 | 48.14587 | 12.34634 | 93° | 38km/h | 17950m | 5.0m/s | -53.6°C | 3.9% | 80.4hPa | 2.7V | 00:00:00 | 01:17:48 | 00:00:00 | |
| DO3MHA-11 | 2026-09-02 11:47:16 | 48.14587 | 12.34619 | 92° | 40km/h | 17946m | 4.1m/s | -53.6°C | 3.8% | 80.5hPa | 2.7V | 00:00:00 | 01:17:47 | 00:00:00 | |
| OE5MMP-10 | 2026-09-02 11:47:14 | 48.14587 | 12.34590 | 90° | 42km/h | 17936m | 5.3m/s | -53.6°C | 3.8% | 80.6hPa | 2.7V | 00:00:00 | 01:17:45 | 00:00:00 | |
| BAUMI2-15 | 2026-09-02 11:47:12 | 48.14587 | 12.34560 | 92° | 42km/h | 17925m | 5.5m/s | -53.6°C | 3.8% | 80.7hPa | 2.7V | 00:00:00 | 01:17:43 | 00:00:00 | |
| DG1MFX-10 | 2026-09-02 11:47:10 | 48.14589 | 12.34529 | 99° | 44km/h | 17915m | 4.3m/s | -53.5°C | 1.1% | 80.8hPa | 2.7V | 00:00:00 | 00:00:00 | 00:00:00 | |
| BAUMI2-15 | 2026-09-02 11:47:07 | 48.14593 | 12.34481 | 96° | 46km/h | 17899m | 4.2m/s | -53.7°C | 3.8% | 81.0hPa | 2.7V | 00:00:00 | 01:17:38 | 00:00:00 | |
| DO3MHA-11 | 2026-09-02 11:47:06 | 48.14594 | 12.34465 | 96° | 53km/h | 17894m | 5.6m/s | -53.9°C | 3.9% | 81.1hPa | 2.7V | 00:00:00 | 01:17:37 | 00:00:00 | |
| OE5MMP-10 | 2026-09-02 11:47:04 | 48.14596 | 12.34430 | 95° | 55km/h | 17884m | 5.2m/s | -53.9°C | 3.9% | 81.2hPa | 2.7V | 00:00:00 | 01:17:35 | 00:00:00 | |
| OE5WHR-10 | 2026-09-02 11:47:02 | 48.14597 | 12.34393 | 92° | 55km/h | 17872m | 4.3m/s | -53.8°C | 3.9% | 81.4hPa | 2.7V | 00:00:00 | 01:17:33 | 00:00:00 | |
| PETON7-10 | 2026-09-02 11:46:59 | 48.14599 | 12.34330 | 93° | 58km/h | 17856m | 4.3m/s | 0°C | 0% | 0hPa | 2.7V | 00:00:00 | 00:00:00 | 00:00:00 | |
| BAUMI2-15 | 2026-09-02 11:46:57 | 48.14600 | 12.34284 | 92° | 55km/h | 17846m | 5.7m/s | -53.7°C | 3.9% | 81.7hPa | 2.7V | 00:00:00 | 01:17:28 | 00:00:00 | |
| DO3MHA-11 | 2026-09-02 11:46:56 | 48.14600 | 12.34262 | 92° | 49km/h | 17841m | 4.6m/s | -53.7°C | 3.9% | 81.7hPa | 2.7V | 00:00:00 | 01:17:27 | 00:00:00 | |
| OE5DXL-15 | 2026-09-02 11:46:55 | 48.14601 | 12.34242 | 93° | 49km/h | 17837m | 3.7m/s | -53.6°C | 3.9% | 81.8hPa | 2.7V | 00:00:00 | 00:00:00 | 08:30:00 | |
| OE5MMP-10 | 2026-09-02 11:46:54 | 48.14601 | 12.34222 | 94° | 53km/h | 17832m | 5.2m/s | -53.6°C | 3.8% | 81.9hPa | 2.7V | 00:00:00 | 01:17:25 | 00:00:00 | |
| PG1ADW-2 | 2026-09-02 11:46:52 | 48.14604 | 12.34182 | 98° | 49km/h | 17822m | 5.8m/s | -53.7°C | 3.8% | 82.0hPa | 2.7V | 00:00:00 | 00:00:00 | 00:00:00 | |
| DG1MFX-10 | 2026-09-02 11:46:49 | 48.14610 | 12.34126 | 99° | 53km/h | 17807m | 5.4m/s | -53.6°C | 1.2% | 82.3hPa | 2.7V | 00:00:00 | 00:00:00 | 00:00:00 | |
| BAUMI2-15 | 2026-09-02 11:46:47 | 48.14613 | 12.34085 | 96° | 55km/h | 17797m | 5.2m/s | -53.3°C | 3.9% | 82.3hPa | 2.7V | 00:00:00 | 01:17:18 | 00:00:00 | |
| OE5MMP-10 | 2026-09-02 11:46:44 | 48.14614 | 12.34023 | 90° | 47km/h | 17783m | 5.3m/s | -53.2°C | 3.8% | 82.5hPa | 2.7V | 00:00:00 | 01:17:15 | 00:00:00 | |
| BAUMI2-15 | 2026-09-02 11:46:42 | 48.14614 | 12.33980 | 88° | 49km/h | 17774m | 4.1m/s | -53.2°C | 3.8% | 82.6hPa | 2.7V | 00:00:00 | 01:17:13 | 00:00:00 | |
| OE5WHR-10 | 2026-09-02 11:46:41 | 48.14613 | 12.33960 | 88° | 44km/h | 17769m | 5.9m/s | -53.2°C | 3.7% | 82.7hPa | 2.7V | 00:00:00 | 00:00:00 | 08:30:00 | |
| DO7DH-14 | 2026-09-02 11:46:40 | 48.14613 | 12.33942 | 88° | 42km/h | 17763m | 5.0m/s | -53.2°C | 3.7% | 82.8hPa | 2.7V | 00:00:00 | 01:17:11 | 00:00:00 | |
| OE5FHM-15 | 2026-09-02 11:46:37 | 48.14613 | 12.33895 | 94° | 38km/h | 17749m | 5.4m/s | -53.3°C | 3.7% | 82.9hPa | 2.7V | 00:00:00 | 01:17:08 | 00:00:00 | |
| OE3JTB-15 | 2026-09-02 11:46:36 | 48.14614 | 12.33879 | 95° | 46km/h | 17744m | 4.6m/s | -53.2°C | 3.7% | 83.0hPa | 2.7V | 00:00:00 | 01:17:07 | 00:00:00 | |
| OE5MMP-10 | 2026-09-02 11:46:34 | 48.14616 | 12.33845 | 96° | 46km/h | 17733m | 5.6m/s | -53.1°C | 3.7% | 83.2hPa | 2.7V | 00:00:00 | 01:17:05 | 08:30:00 | |
| PG1ADW-2 | 2026-09-02 11:46:30 | 48.14618 | 12.33770 | 91° | 42km/h | 17713m | 3.8m/s | -53.5°C | 3.8% | 83.4hPa | 2.7V | 00:00:00 | 01:17:01 | 00:00:00 | |
| DG1MFX-10 | 2026-09-02 11:46:29 | 48.14619 | 12.33751 | 91° | 49km/h | 17709m | 5.1m/s | -53.6°C | 1.2% | 83.5hPa | 2.7V | 00:00:00 | 00:00:00 | 00:00:00 | |
| OE5DXL-15 | 2026-09-02 11:46:25 | 48.14618 | 12.33689 | 87° | 40km/h | 17689m | 5.3m/s | -53.6°C | 3.8% | 83.7hPa | 2.7V | 00:00:00 | 00:00:00 | 00:00:00 | |
| OE5MMP-10 | 2026-09-02 11:46:24 | 48.14617 | 12.33675 | 88° | 42km/h | 17684m | 4.1m/s | -53.7°C | 3.9% | 83.8hPa | 2.7V | 00:00:00 | 01:16:55 | 00:00:00 | |
| DG1MJG | 2026-09-02 11:46:20 | 48.14622 | 12.33618 | 105° | 40km/h | 17666m | 4.2m/s | -53.8°C | 1.2% | 84.1hPa | 2.7V | 00:00:00 | 00:00:00 | 00:00:00 | |
| DO3MHA-11 | 2026-09-02 11:46:18 | 48.14626 | 12.33586 | 100° | 44km/h | 17656m | 4.3m/s | -53.8°C | 3.9% | 84.2hPa | 2.7V | 00:00:00 | 01:16:49 | 00:00:00 | |
| OE5MMP-10 | 2026-09-02 11:46:14 | 48.14632 | 12.33520 | 97° | 40km/h | 17638m | 4.3m/s | -53.8°C | 3.9% | 84.4hPa | 2.7V | 00:00:00 | 01:16:45 | 00:00:00 | |
| DO7DH-14 | 2026-09-02 11:46:10 | 48.14636 | 12.33456 | 93° | 37km/h | 17618m | 5.1m/s | -53.8°C | 3.8% | 84.6hPa | 2.7V | 00:00:00 | 01:16:41 | 00:00:00 | |
| PG1ADW-2 | 2026-09-02 11:46:09 | 48.14637 | 12.33441 | 91° | 37km/h | 17614m | 3.8m/s | -53.8°C | 3.8% | 84.7hPa | 2.7V | 00:00:00 | 00:00:00 | 00:00:00 | |
| DO3MHA-11 | 2026-09-02 11:46:08 | 48.14637 | 12.33426 | 91° | 40km/h | 17609m | 5.2m/s | -53.9°C | 3.9% | 84.8hPa | 2.7V | 00:00:00 | 01:16:39 | 00:00:00 | |
| DG1MFX-10 | 2026-09-02 11:46:07 | 48.14637 | 12.33426 | 91° | 40km/h | 17609m | 5.3m/s | -53.9°C | 1.2% | 84.8hPa | 2.7V | 00:00:00 | 00:00:00 | 00:00:00 | |
| OE3JTB-15 | 2026-09-02 11:46:05 | 48.14638 | 12.33383 | 95° | 42km/h | 17595m | 5.5m/s | -53.6°C | 3.9% | 85.0hPa | 2.7V | 00:00:00 | 00:00:00 | 08:30:00 | |
| OE5MMP-10 | 2026-09-02 11:46:04 | 48.14638 | 12.33370 | 98° | 37km/h | 17590m | 4.0m/s | -53.6°C | 3.8% | 85.0hPa | 2.7V | 00:00:00 | 01:16:35 | 00:00:00 | |
| OE5FHM-15 | 2026-09-02 11:46:03 | 48.14640 | 12.33356 | 100° | 37km/h | 17585m | 5.5m/s | -53.7°C | 3.8% | 85.1hPa | 2.7V | 00:00:00 | 01:16:34 | 00:00:00 | |
| OE5WHR-10 | 2026-09-02 11:45:59 | 48.14646 | 12.33303 | 99° | 35km/h | 17565m | 4.4m/s | -54.0°C | 3.9% | 85.4hPa | 2.7V | 00:00:00 | 01:16:30 | 00:00:00 | |
| OE5DXL-15 | 2026-09-02 11:45:55 | 48.14649 | 12.33248 | 93° | 38km/h | 17545m | 5.6m/s | -54.1°C | 3.9% | 85.6hPa | 2.7V | 00:00:00 | 00:00:00 | 00:00:00 | |
| OE5MMP-10 | 2026-09-02 11:45:54 | 48.14650 | 12.33236 | 96° | 33km/h | 17540m | 4.3m/s | -54.1°C | 4.0% | 85.7hPa | 2.7V | 00:00:00 | 01:16:25 | 00:00:00 | |
| DG1MJG | 2026-09-02 11:45:49 | 48.14658 | 12.33177 | 110° | 31km/h | 17515m | 4.7m/s | -54.1°C | 1.2% | 86.1hPa | 2.7V | 00:00:00 | 00:00:00 | 00:00:00 | |
| DG1MFX-10 | 2026-09-02 11:45:47 | 48.14661 | 12.33166 | 111° | 31km/h | 17510m | 4.3m/s | -54.2°C | 1.2% | 86.2hPa | 2.7V | 00:00:00 | 00:00:00 | 00:00:00 | |
| OE5MMP-10 | 2026-09-02 11:45:44 | 48.14672 | 12.33119 | 114° | 42km/h | 17492m | 5.6m/s | -54.0°C | 4.0% | 86.3hPa | 2.7V | 00:00:00 | 01:16:15 | 00:00:00 | |
| OE5DRO-10 | 2026-09-02 11:45:41 | 48.14685 | 12.33080 | 117° | 44km/h | 17478m | 4.9m/s | -53.9°C | 3.9% | 86.6hPa | 2.7V | 00:00:00 | 00:00:00 | 00:00:00 | |
| DO3MHA-11 | 2026-09-02 11:45:39 | 48.14696 | 12.33051 | 119° | 44km/h | 17468m | 5.8m/s | -53.9°C | 3.9% | 86.7hPa | 2.7V | 00:00:00 | 01:16:10 | 00:00:00 | |
| OE5WHR-10 | 2026-09-02 11:45:38 | 48.14701 | 12.33036 | 120° | 46km/h | 17463m | 4.4m/s | -53.9°C | 3.9% | 86.8hPa | 2.7V | 00:00:00 | 00:00:00 | 00:00:00 | |
| DO7DH-14 | 2026-09-02 11:45:37 | 48.14706 | 12.33022 | 119° | 46km/h | 17459m | 3.8m/s | -53.9°C | 3.9% | 86.8hPa | 2.7V | 00:00:00 | 01:16:08 | 00:00:00 | |
| OE5MMP-10 | 2026-09-02 11:45:34 | 48.14719 | 12.32978 | 109° | 42km/h | 17446m | 4.2m/s | -54.0°C | 3.9% | 87.0hPa | 2.7V | 00:00:00 | 01:16:05 | 00:00:00 | |
| OE5FHM-15 | 2026-09-02 11:45:33 | 48.14722 | 12.32962 | 109° | 47km/h | 17441m | 4.2m/s | -53.9°C | 3.9% | 87.1hPa | 2.7V | 00:00:00 | 01:16:04 | 00:00:00 | |
| PG1ADW-2 | 2026-09-02 11:45:29 | 48.14739 | 12.32905 | 117° | 47km/h | 17422m | 5.2m/s | -53.9°C | 3.9% | 87.3hPa | 2.7V | 00:00:00 | 00:00:00 | 00:00:00 | |
| DG1MFX-10 | 2026-09-02 11:45:27 | 48.14744 | 12.32890 | 116° | 44km/h | 17417m | 4.2m/s | -53.9°C | 1.2% | 87.4hPa | 2.7V | 00:00:00 | 00:00:00 | 00:00:00 | |
| DO3MHA-11 | 2026-09-02 11:45:26 | 48.14753 | 12.32861 | 115° | 47km/h | 17408m | 4.4m/s | -53.8°C | 4.0% | 87.5hPa | 2.7V | 00:00:00 | 01:15:57 | 08:30:00 | |
| OE5DXL-15 | 2026-09-02 11:45:25 | 48.14757 | 12.32846 | 112° | 49km/h | 17403m | 3.7m/s | -53.8°C | 3.9% | 87.6hPa | 2.7V | 00:00:00 | 00:00:00 | 00:00:00 | |
| OE5MMP-10 | 2026-09-02 11:45:24 | 48.14761 | 12.32830 | 109° | 49km/h | 17399m | 5.5m/s | -53.7°C | 3.9% | 87.6hPa | 2.7V | 00:00:00 | 01:15:55 | 00:00:00 | |
| OE5DRO-10 | 2026-09-02 11:45:22 | 48.14768 | 12.32796 | 108° | 49km/h | 17389m | 4.7m/s | -53.8°C | 3.9% | 87.8hPa | 2.7V | 00:00:00 | 00:00:00 | 00:00:00 | |
| OE5WHR-10 | 2026-09-02 11:45:18 | 48.14791 | 12.32706 | 113° | 49km/h | 17366m | 4.1m/s | -54.0°C | 4.0% | 88.1hPa | 2.7V | 00:00:00 | 00:00:00 | 00:00:00 | |
| OE5MMP-10 | 2026-09-02 11:45:14 | 48.14807 | 12.32656 | 117° | 49km/h | 17352m | 5.0m/s | -54.0°C | 4.0% | 88.2hPa | 2.7V | 00:00:00 | 01:15:45 | 00:00:00 | |
| DL6DJ-15 | 2026-09-02 11:45:13 | 48.14812 | 12.32639 | 114° | 49km/h | 17347m | 4.2m/s | -54.0°C | 1.2% | 88.4hPa | 2.7V | 00:00:00 | 00:00:00 | 00:00:00 | |
| DO3MHA-11 | 2026-09-02 11:45:11 | 48.14821 | 12.32604 | 109° | 47km/h | 17340m | 4.7m/s | -53.9°C | 4.0% | 88.4hPa | 2.7V | 00:00:00 | 01:15:42 | 00:00:00 | |
| PG1ADW-2 | 2026-09-02 11:45:09 | 48.14828 | 12.32570 | 104° | 49km/h | 17330m | 3.8m/s | -53.8°C | 4.0% | 88.6hPa | 2.7V | 00:00:00 | 01:15:40 | 00:00:00 | |
| DG1MFX-10 | 2026-09-02 11:45:06 | 48.14834 | 12.32535 | 106° | 51km/h | 17320m | 5.6m/s | -53.7°C | 1.2% | 88.8hPa | 2.7V | 00:00:00 | 00:00:00 | 00:00:00 | |
| OE5MMP-10 | 2026-09-02 11:45:04 | 48.14845 | 12.32479 | 107° | 47km/h | 17307m | 5.3m/s | -53.6°C | 3.8% | 88.9hPa | 2.7V | 00:00:00 | 01:15:35 | 08:30:00 | |
| DO7DH-14 | 2026-09-02 11:45:03 | 48.14848 | 12.32461 | 104° | 51km/h | 17302m | 4.5m/s | -53.6°C | 3.9% | 89.0hPa | 2.7V | 00:00:00 | 01:15:34 | 00:00:00 | |
| DO3MHA-11 | 2026-09-02 11:44:56 | 48.14859 | 12.32338 | 97° | 49km/h | 17268m | 4.9m/s | -53.3°C | 3.8% | 89.4hPa | 2.7V | 00:00:00 | 01:15:27 | 00:00:00 | |
| PG1ADW-2 | 2026-09-02 11:44:49 | 48.14862 | 12.32208 | 90° | 51km/h | 17235m | 4.4m/s | -53.1°C | 3.8% | 89.9hPa | 2.7V | 00:00:00 | 00:00:00 | 08:30:00 | |
| DG1MJG | 2026-09-02 11:44:48 | 48.14862 | 12.32208 | 90° | 51km/h | 17235m | 4.5m/s | -53.2°C | 1.2% | 89.9hPa | 2.7V | 00:00:00 | 00:00:00 | 00:00:00 | |
| DO3MHA-11 | 2026-09-02 11:44:46 | 48.14863 | 12.32150 | 96° | 49km/h | 17221m | 4.4m/s | -53.1°C | 3.7% | 90.1hPa | 2.7V | 00:00:00 | 01:15:17 | 00:00:00 | |
| OE5MMP-10 | 2026-09-02 11:44:44 | 48.14866 | 12.32111 | 98° | 51km/h | 17213m | 5.2m/s | -53.0°C | 3.7% | 90.2hPa | 2.7V | 00:00:00 | 01:15:15 | 00:00:00 | |
| BAUMI2-15 | 2026-09-02 11:44:37 | 48.14869 | 12.31980 | 84° | 57km/h | 17179m | 5.0m/s | -53.1°C | 3.7% | 90.7hPa | 2.7V | 00:00:00 | 01:15:08 | 00:00:00 | |
| DO3MHA-11 | 2026-09-02 11:44:36 | 48.14867 | 12.31959 | 81° | 53km/h | 17174m | 4.6m/s | -53.1°C | 3.8% | 90.8hPa | 2.7V | 00:00:00 | 01:15:07 | 00:00:00 | |
| OE5WHR-10 | 2026-09-02 11:44:35 | 48.14865 | 12.31938 | 82° | 53km/h | 17169m | 5.5m/s | -53.1°C | 3.7% | 90.8hPa | 2.7V | 00:00:00 | 00:00:00 | 00:00:00 | |
| OE5MMP-10 | 2026-09-02 11:44:34 | 48.14863 | 12.31917 | 83° | 55km/h | 17165m | 4.0m/s | -53.2°C | 3.8% | 90.9hPa | 2.7V | 00:00:00 | 01:15:05 | 00:00:00 | |
| OE5FHM-15 | 2026-09-02 11:44:33 | 48.14861 | 12.31895 | 83° | 53km/h | 17161m | 3.9m/s | -53.2°C | 3.8% | 91.0hPa | 2.7V | 00:00:00 | 01:15:04 | 00:00:00 | |
| BAUMI2-15 | 2026-09-02 11:44:32 | 48.14859 | 12.31874 | 83° | 55km/h | 17156m | 4.8m/s | -53.2°C | 3.7% | 91.0hPa | 2.7V | 00:00:00 | 01:15:03 | 00:00:00 | |
| DO7DH-14 | 2026-09-02 11:44:30 | 48.14856 | 12.31832 | 87° | 51km/h | 17147m | 5.2m/s | -53.2°C | 3.8% | 91.1hPa | 2.7V | 00:00:00 | 01:15:01 | 00:00:00 | |
| PG1ADW-2 | 2026-09-02 11:44:29 | 48.14856 | 12.31811 | 89° | 51km/h | 17142m | 4.0m/s | -53.2°C | 3.8% | 91.2hPa | 2.7V | 00:00:00 | 00:00:00 | 00:00:00 | |
| OE5DXL-15 | 2026-09-02 11:44:25 | 48.14855 | 12.31734 | 90° | 51km/h | 17124m | 5.2m/s | -53.4°C | 3.9% | 91.5hPa | 2.7V | 00:00:00 | 00:00:00 | 00:00:00 | |
| OE5MMP-10 | 2026-09-02 11:44:24 | 48.14854 | 12.31716 | 90° | 53km/h | 17119m | 4.0m/s | -53.3°C | 3.8% | 91.6hPa | 2.7V | 00:00:00 | 01:14:55 | 00:00:00 | |
| BAUMI2-15 | 2026-09-02 11:44:22 | 48.14853 | 12.31680 | 87° | 53km/h | 17109m | 4.6m/s | -53.4°C | 3.9% | 91.7hPa | 2.7V | 00:00:00 | 01:14:53 | 00:00:00 | |
| BAUMI2-15 | 2026-09-02 11:44:17 | 48.14851 | 12.31578 | 87° | 57km/h | 17086m | 5.2m/s | -53.3°C | 3.8% | 92.0hPa | 2.7V | 00:00:00 | 01:14:48 | 08:30:00 | |
| OE5WHR-10 | 2026-09-02 11:44:15 | 48.14849 | 12.31514 | 89° | 51km/h | 17072m | 4.1m/s | -53.2°C | 3.8% | 92.2hPa | 2.7V | 00:00:00 | 00:00:00 | 00:00:00 | |
| BAUMI2-15 | 2026-09-02 11:44:12 | 48.14848 | 12.31473 | 86° | 51km/h | 17063m | 4.8m/s | -53.2°C | 3.8% | 92.3hPa | 2.7V | 00:00:00 | 01:14:43 | 00:00:00 | |
| DL6DJ-15 | 2026-09-02 11:44:11 | 48.14847 | 12.31453 | 84° | 51km/h | 17058m | 4.5m/s | -53.3°C | 1.2% | 92.5hPa | 2.7V | 00:00:00 | 00:00:00 | 00:00:00 | |
| PG1ADW-2 | 2026-09-02 11:44:08 | 48.14844 | 12.31397 | 86° | 49km/h | 17044m | 5.3m/s | -53.5°C | 3.9% | 92.6hPa | 2.7V | 00:00:00 | 00:00:00 | 00:00:00 | |
| BAUMI2-15 | 2026-09-02 11:44:07 | 48.14843 | 12.31379 | 88° | 49km/h | 17039m | 4.0m/s | -53.5°C | 3.9% | 92.7hPa | 2.7V | 00:00:00 | 01:14:38 | 00:00:00 | |
| OE5DRO-10 | 2026-09-02 11:44:06 | 48.14843 | 12.31361 | 91° | 49km/h | 17035m | 4.7m/s | -53.5°C | 3.8% | 92.7hPa | 2.7V | 00:00:00 | 00:00:00 | 00:00:00 | |
| OE5MMP-10 | 2026-09-02 11:44:04 | 48.14844 | 12.31324 | 96° | 51km/h | 17025m | 3.5m/s | -53.5°C | 3.8% | 92.9hPa | 2.7V | 00:00:00 | 01:14:35 | 00:00:00 | |
| BAUMI2-15 | 2026-09-02 11:44:02 | 48.14847 | 12.31285 | 97° | 53km/h | 17016m | 4.2m/s | -53.5°C | 3.9% | 93.0hPa | 2.7V | 00:00:00 | 01:14:33 | 00:00:00 | |
| DO7DH-14 | 2026-09-02 11:44:00 | 48.14850 | 12.31246 | 98° | 47km/h | 17007m | 5.1m/s | -53.5°C | 3.9% | 93.2hPa | 2.7V | 00:00:00 | 01:14:31 | 00:00:00 | |
| BAUMI2-15 | 2026-09-02 11:43:57 | 48.14854 | 12.31188 | 92° | 49km/h | 16992m | 4.5m/s | -53.4°C | 3.9% | 93.3hPa | 2.7V | 00:00:00 | 01:14:28 | 00:00:00 | |
| OE5DXL-15 | 2026-09-02 11:43:55 | 48.14855 | 12.31151 | 92° | 44km/h | 16983m | 4.9m/s | -53.4°C | 3.9% | 93.5hPa | 2.7V | 00:00:00 | 00:00:00 | 00:00:00 | |
| OE5MMP-10 | 2026-09-02 11:43:54 | 48.14855 | 12.31132 | 92° | 47km/h | 16979m | 4.4m/s | -53.4°C | 3.9% | 93.6hPa | 2.7V | 00:00:00 | 01:14:25 | 00:00:00 | |
| OE5WHR-10 | 2026-09-02 11:43:53 | 48.14855 | 12.31114 | 90° | 46km/h | 16975m | 4.1m/s | -53.3°C | 3.9% | 93.7hPa | 2.7V | 00:00:00 | 01:14:24 | 00:00:00 | |
| BAUMI2-15 | 2026-09-02 11:43:52 | 48.14855 | 12.31096 | 88° | 49km/h | 16970m | 5.1m/s | -53.4°C | 3.9% | 93.7hPa | 2.7V | 00:00:00 | 01:14:23 | 00:00:00 | |
| DO3MHA-11 | 2026-09-02 11:43:51 | 48.14854 | 12.31078 | 86° | 46km/h | 16965m | 4.0m/s | -53.3°C | 3.9% | 93.7hPa | 2.7V | 00:00:00 | 01:14:22 | 00:00:00 | |
| PG1ADW-2 | 2026-09-02 11:43:48 | 48.14852 | 12.31023 | 89° | 44km/h | 16951m | 3.9m/s | -53.4°C | 3.9% | 93.9hPa | 2.7V | 00:00:00 | 01:14:19 | 00:00:00 | |
| DG1MJG | 2026-09-02 11:43:47 | 48.14852 | 12.31023 | 90° | 49km/h | 16951m | 3.9m/s | -53.4°C | 1.2% | 94.0hPa | 2.7V | 00:00:00 | 00:00:00 | 00:00:00 | |
| OE5MMP-10 | 2026-09-02 11:43:44 | 48.14851 | 12.30953 | 90° | 46km/h | 16935m | 4.9m/s | -53.4°C | 3.8% | 94.2hPa | 2.7V | 00:00:00 | 01:14:15 | 00:00:00 | |
| DG1MFX-10 | 2026-09-02 11:43:43 | 48.14851 | 12.30953 | 91° | 46km/h | 16935m | 5.0m/s | -53.4°C | 1.2% | 94.2hPa | 2.7V | 00:00:00 | 00:00:00 | 00:00:00 | |
| BAUMI2-15 | 2026-09-02 11:43:42 | 48.14851 | 12.30918 | 90° | 46km/h | 16925m | 4.9m/s | -53.4°C | 3.8% | 94.4hPa | 2.7V | 00:00:00 | 01:14:13 | 00:00:00 | |
| DL6DJ-15 | 2026-09-02 11:43:40 | 48.14850 | 12.30884 | 87° | 44km/h | 16916m | 3.7m/s | -53.4°C | 1.2% | 94.5hPa | 2.7V | 00:00:00 | 00:00:00 | 00:00:00 | |
| DO3MHA-11 | 2026-09-02 11:43:37 | 48.14849 | 12.30830 | 89° | 42km/h | 16903m | 3.5m/s | -53.4°C | 3.8% | 94.7hPa | 2.7V | 00:00:00 | 01:14:08 | 00:00:00 | |
| OE5MMP-10 | 2026-09-02 11:43:34 | 48.14848 | 12.30780 | 90° | 38km/h | 16890m | 4.1m/s | -53.4°C | 3.8% | 94.9hPa | 2.7V | 00:00:00 | 01:14:05 | 08:30:00 | |
| OE5FHM-15 | 2026-09-02 11:43:33 | 48.14848 | 12.30765 | 93° | 40km/h | 16886m | 5.1m/s | -53.5°C | 3.9% | 95.0hPa | 2.7V | 00:00:00 | 01:14:04 | 00:00:00 | |
| OE5WHR-10 | 2026-09-02 11:43:32 | 48.14849 | 12.30750 | 94° | 38km/h | 16881m | 4.2m/s | -53.4°C | 3.9% | 95.0hPa | 2.7V | 00:00:00 | 00:00:00 | 08:30:00 | |
| DO7DH-14 | 2026-09-02 11:43:30 | 48.14850 | 12.30724 | 92° | 40km/h | 16871m | 3.8m/s | -53.4°C | 3.9% | 95.1hPa | 2.7V | 00:00:00 | 01:14:01 | 00:00:00 | |
| OE5DRO-10 | 2026-09-02 11:43:28 | 48.14850 | 12.30697 | 93° | 40km/h | 16864m | 4.9m/s | -53.4°C | 3.9% | 95.3hPa | 2.7V | 00:00:00 | 00:00:00 | 00:00:00 | |
| BAUMI2-15 | 2026-09-02 11:43:27 | 48.14851 | 12.30682 | 92° | 44km/h | 16859m | 4.5m/s | -53.4°C | 3.9% | 95.3hPa | 2.7V | 00:00:00 | 01:13:58 | 00:00:00 | |
| DO3MHA-11 | 2026-09-02 11:43:26 | 48.14851 | 12.30666 | 89° | 38km/h | 16855m | 4.1m/s | -53.4°C | 3.9% | 95.4hPa | 2.7V | 00:00:00 | 01:13:57 | 00:00:00 | |
| OE5DXL-15 | 2026-09-02 11:43:25 | 48.14850 | 12.30649 | 85° | 40km/h | 16850m | 5.1m/s | -53.5°C | 3.9% | 95.5hPa | 2.7V | 00:00:00 | 00:00:00 | 00:00:00 | |
| OE5MMP-10 | 2026-09-02 11:43:24 | 48.14849 | 12.30632 | 82° | 38km/h | 16845m | 3.9m/s | -53.5°C | 3.9% | 95.5hPa | 2.7V | 00:00:00 | 01:13:55 | 00:00:00 | |
| BAUMI2-15 | 2026-09-02 11:43:22 | 48.14846 | 12.30599 | 86° | 37km/h | 16837m | 4.6m/s | -53.5°C | 3.9% | 95.6hPa | 2.7V | 00:00:00 | 01:13:53 | 00:00:00 | |
| BAUMI2-15 | 2026-09-02 11:43:17 | 48.14847 | 12.30530 | 96° | 38km/h | 16816m | 4.7m/s | -53.4°C | 3.9% | 96.0hPa | 2.7V | 00:00:00 | 01:13:48 | 00:00:00 | |
| DO3MHA-11 | 2026-09-02 11:43:16 | 48.14847 | 12.30516 | 96° | 40km/h | 16811m | 4.1m/s | -53.4°C | 3.9% | 96.0hPa | 2.7V | 00:00:00 | 01:13:47 | 08:30:00 | |
| OE5MMP-10 | 2026-09-02 11:43:14 | 48.14848 | 12.30486 | 90° | 40km/h | 16802m | 4.5m/s | -53.4°C | 3.9% | 96.2hPa | 2.7V | 00:00:00 | 01:13:45 | 00:00:00 | |
| BAUMI2-15 | 2026-09-02 11:43:12 | 48.14848 | 12.30455 | 91° | 40km/h | 16794m | 4.9m/s | -53.4°C | 3.8% | 96.3hPa | 2.7V | 00:00:00 | 01:13:43 | 00:00:00 | |
| OE5WHR-10 | 2026-09-02 11:43:11 | 48.14849 | 12.30439 | 94° | 44km/h | 16789m | 4.6m/s | -53.3°C | 3.9% | 96.4hPa | 2.7V | 00:00:00 | 00:00:00 | 00:00:00 | |
| OE5DRO-10 | 2026-09-02 11:43:09 | 48.14850 | 12.30408 | 95° | 44km/h | 16781m | 4.8m/s | -53.3°C | 3.8% | 96.5hPa | 2.7V | 00:00:00 | 00:00:00 | 08:30:00 | |
| PG1ADW-2 | 2026-09-02 11:43:08 | 48.14851 | 12.30393 | 95° | 44km/h | 16776m | 3.7m/s | -53.4°C | 3.8% | 96.6hPa | 2.7V | 00:00:00 | 00:00:00 | 00:00:00 | |
| BAUMI2-15 | 2026-09-02 11:43:07 | 48.14852 | 12.30379 | 97° | 40km/h | 16773m | 4.0m/s | -53.3°C | 3.8% | 96.6hPa | 2.7V | 00:00:00 | 01:13:38 | 00:00:00 | |
| OE5MMP-10 | 2026-09-02 11:43:04 | 48.14856 | 12.30335 | 99° | 44km/h | 16759m | 5.1m/s | -53.4°C | 3.8% | 96.8hPa | 2.7V | 00:00:00 | 01:13:35 | 00:00:00 | |
| OE5FHM-15 | 2026-09-02 11:43:03 | 48.14858 | 12.30320 | 98° | 46km/h | 16754m | 4.4m/s | -53.4°C | 3.8% | 96.9hPa | 2.7V | 00:00:00 | 01:13:34 | 08:30:00 | |
| DO7DH-14 | 2026-09-02 11:43:00 | 48.14862 | 12.30273 | 99° | 46km/h | 16741m | 3.7m/s | -53.6°C | 4.0% | 97.1hPa | 2.7V | 00:00:00 | 01:13:31 | 00:00:00 | |
| BAUMI2-15 | 2026-09-02 11:42:57 | 48.14867 | 12.30222 | 96° | 46km/h | 16728m | 4.7m/s | -53.8°C | 4.0% | 97.3hPa | 2.7V | 00:00:00 | 01:13:28 | 00:00:00 | |
| OE5DXL-15 | 2026-09-02 11:42:55 | 48.14869 | 12.30190 | 96° | 46km/h | 16720m | 3.6m/s | -53.9°C | 4.1% | 97.4hPa | 2.7V | 00:00:00 | 00:00:00 | 00:00:00 | |
| OE5MMP-10 | 2026-09-02 11:42:54 | 48.14870 | 12.30173 | 97° | 49km/h | 16716m | 4.1m/s | -53.9°C | 4.1% | 97.5hPa | 2.7V | 00:00:00 | 01:13:25 | 00:00:00 | |
| DO3MHA-11 | 2026-09-02 11:42:52 | 48.14873 | 12.30136 | 98° | 46km/h | 16708m | 4.2m/s | -53.9°C | 4.1% | 97.6hPa | 2.7V | 00:00:00 | 01:13:23 | 00:00:00 | |
| OE5WHR-10 | 2026-09-02 11:42:50 | 48.14876 | 12.30097 | 96° | 46km/h | 16699m | 4.3m/s | -53.9°C | 4.1% | 97.7hPa | 2.7V | 00:00:00 | 01:13:21 | 00:00:00 | |
| PG1ADW-2 | 2026-09-02 11:42:48 | 48.14878 | 12.30060 | 94° | 46km/h | 16691m | 4.6m/s | -53.8°C | 4.0% | 97.9hPa | 2.7V | 00:00:00 | 00:00:00 | 00:00:00 | |
| BAUMI2-15 | 2026-09-02 11:42:47 | 48.14878 | 12.30040 | 92° | 49km/h | 16686m | 4.4m/s | -53.9°C | 4.1% | 97.9hPa | 2.7V | 00:00:00 | 01:13:18 | 08:30:00 | |
| DG1MJG | 2026-09-02 11:42:46 | 48.14878 | 12.30040 | 93° | 51km/h | 16686m | 4.4m/s | -53.9°C | 1.3% | 98.0hPa | 2.7V | 00:00:00 | 00:00:00 | 00:00:00 | |
| OE5MMP-10 | 2026-09-02 11:42:44 | 48.14878 | 12.29984 | 89° | 46km/h | 16673m | 3.3m/s | -53.8°C | 4.0% | 98.1hPa | 2.7V | 00:00:00 | 01:13:15 | 00:00:00 | |
| BAUMI2-15 | 2026-09-02 11:42:42 | 48.14878 | 12.29949 | 92° | 40km/h | 16665m | 3.7m/s | -53.8°C | 4.1% | 98.2hPa | 2.7V | 00:00:00 | 01:13:13 | 00:00:00 | |
| DG1MFX-10 | 2026-09-02 11:42:41 | 48.14878 | 12.29949 | 92° | 47km/h | 16665m | 3.8m/s | -53.9°C | 1.4% | 98.3hPa | 2.7V | 00:00:00 | 00:00:00 | 00:00:00 | |
| DL6DJ-15 | 2026-09-02 11:42:38 | 48.14880 | 12.29882 | 94° | 44km/h | 16648m | 4.8m/s | -53.9°C | 1.3% | 98.6hPa | 2.7V | 00:00:00 | 00:00:00 | 00:00:00 | |
| OE5REO-15 | 2026-09-02 11:42:35 | 48.14882 | 12.29848 | 95° | 44km/h | 16639m | 4.1m/s | -53.9°C | 1.4% | 98.7hPa | 2.7V | 00:00:00 | 00:00:00 | 00:00:00 | |
| OE5MMP-10 | 2026-09-02 11:42:34 | 48.14884 | 12.29816 | 95° | 42km/h | 16630m | 4.0m/s | -53.8°C | 4.1% | 98.8hPa | 2.7V | 00:00:00 | 01:13:05 | 00:00:00 | |
| OE5FHM-15 | 2026-09-02 11:42:33 | 48.14885 | 12.29800 | 95° | 35km/h | 16626m | 4.9m/s | -53.8°C | 4.1% | 98.9hPa | 2.7V | 00:00:00 | 01:13:04 | 00:00:00 | |
| DO3MHA-11 | 2026-09-02 11:42:31 | 48.14886 | 12.29768 | 94° | 40km/h | 16616m | 4.2m/s | -53.8°C | 4.1% | 99.0hPa | 2.7V | 00:00:00 | 01:13:02 | 00:00:00 | |
| DO7DH-14 | 2026-09-02 11:42:30 | 48.14887 | 12.29753 | 93° | 40km/h | 16612m | 4.8m/s | -53.8°C | 4.1% | 99.1hPa | 2.7V | 00:00:00 | 01:13:01 | 08:30:00 | |
| OE5WHR-10 | 2026-09-02 11:42:29 | 48.14887 | 12.29738 | 93° | 40km/h | 16607m | 3.7m/s | -53.8°C | 4.1% | 99.2hPa | 2.7V | 00:00:00 | 00:00:00 | 00:00:00 | |
| PG1ADW-2 | 2026-09-02 11:42:28 | 48.14888 | 12.29722 | 92° | 40km/h | 16603m | 3.6m/s | -53.8°C | 4.1% | 99.2hPa | 2.7V | 00:00:00 | 01:12:59 | 00:00:00 | |
| OE5DXL-15 | 2026-09-02 11:42:25 | 48.14888 | 12.29673 | 91° | 38km/h | 16590m | 4.7m/s | -53.8°C | 4.1% | 99.4hPa | 2.7V | 00:00:00 | 00:00:00 | 08:30:00 | |
| OE5MMP-10 | 2026-09-02 11:42:24 | 48.14888 | 12.29657 | 90° | 40km/h | 16586m | 4.2m/s | -53.8°C | 4.1% | 99.5hPa | 2.7V | 00:00:00 | 01:12:55 | 00:00:00 | |
| DG1MFX-10 | 2026-09-02 11:42:20 | 48.14887 | 12.29609 | 87° | 42km/h | 16572m | 4.3m/s | -53.8°C | 1.4% | 99.7hPa | 2.7V | 00:00:00 | 00:00:00 | 00:00:00 | |
| OE5REO-15 | 2026-09-02 11:42:19 | 48.14886 | 12.29593 | 87° | 40km/h | 16567m | 5.5m/s | -53.8°C | 1.3% | 99.8hPa | 2.7V | 00:00:00 | 00:00:00 | 00:00:00 | |
| DO3MHA-11 | 2026-09-02 11:42:17 | 48.14884 | 12.29549 | 89° | 38km/h | 16553m | 4.2m/s | -53.6°C | 4.1% | 100.0hPa | 2.7V | 00:00:00 | 01:12:48 | 00:00:00 | |
| DG1MJG | 2026-09-02 11:42:15 | 48.14884 | 12.29533 | 91° | 40km/h | 16549m | 3.8m/s | -53.7°C | 1.3% | 100.1hPa | 2.7V | 00:00:00 | 00:00:00 | 00:00:00 | |
| OE5MMP-10 | 2026-09-02 11:42:14 | 48.14885 | 12.29505 | 92° | 38km/h | 16540m | 4.4m/s | -53.5°C | 4.1% | 100.2hPa | 2.7V | 00:00:00 | 01:12:45 | 00:00:00 | |
| OE5DRO-10 | 2026-09-02 11:42:12 | 48.14884 | 12.29478 | 87° | 37km/h | 16531m | 5.1m/s | -53.5°C | 4.1% | 100.3hPa | 2.7V | 00:00:00 | 00:00:00 | 00:00:00 | |
| OE5WHR-10 | 2026-09-02 11:42:08 | 48.14878 | 12.29421 | 76° | 37km/h | 16513m | 3.4m/s | -53.3°C | 4.0% | 100.6hPa | 2.7V | 00:00:00 | 00:00:00 | 00:00:00 | |
| DL6DJ-15 | 2026-09-02 11:42:07 | 48.14872 | 12.29392 | 72° | 42km/h | 16505m | 4.4m/s | -53.3°C | 1.3% | 100.8hPa | 2.7V | 00:00:00 | 00:00:00 | 00:00:00 | |
| OE5MMP-10 | 2026-09-02 11:42:04 | 48.14866 | 12.29362 | 72° | 35km/h | 16497m | 5.0m/s | -53.3°C | 3.9% | 100.8hPa | 2.7V | 00:00:00 | 01:12:35 | 08:30:00 | |
| DO7DH-14 | 2026-09-02 11:42:00 | 48.14857 | 12.29307 | 85° | 33km/h | 16479m | 4.5m/s | -53.1°C | 3.9% | 101.1hPa | 2.7V | 00:00:00 | 01:12:31 | 00:00:00 | |
| OE5DXL-15 | 2026-09-02 11:41:55 | 48.14853 | 12.29247 | 80° | 33km/h | 16456m | 4.4m/s | -52.9°C | 3.9% | 101.5hPa | 2.7V | 00:00:00 | 00:00:00 | 00:00:00 | |
| OE5MMP-10 | 2026-09-02 11:41:54 | 48.14850 | 12.29233 | 76° | 37km/h | 16452m | 3.7m/s | -53.0°C | 3.9% | 101.6hPa | 2.7V | 00:00:00 | 01:12:25 | 00:00:00 | |
| OE5DRO-10 | 2026-09-02 11:41:53 | 48.14848 | 12.29219 | 73° | 35km/h | 16448m | 4.8m/s | -53.0°C | 3.9% | 101.6hPa | 2.7V | 00:00:00 | 00:00:00 | 00:00:00 | |
| DO3MHA-11 | 2026-09-02 11:41:49 | 48.14834 | 12.29162 | 72° | 35km/h | 16432m | 3.8m/s | -53.1°C | 3.9% | 101.9hPa | 2.7V | 00:00:00 | 01:12:20 | 00:00:00 | |
| PG1ADW-2 | 2026-09-02 11:41:48 | 48.14831 | 12.29149 | 73° | 31km/h | 16428m | 4.3m/s | -53.0°C | 3.8% | 102.0hPa | 2.7V | 00:00:00 | 00:00:00 | 08:30:00 | |
| OE5WHR-10 | 2026-09-02 11:41:47 | 48.14829 | 12.29137 | 72° | 31km/h | 16423m | 4.5m/s | -53.0°C | 3.8% | 102.0hPa | 2.7V | 00:00:00 | 01:12:18 | 00:00:00 | |
| OE5MMP-10 | 2026-09-02 11:41:44 | 48.14822 | 12.29107 | 77° | 35km/h | 16410m | 4.6m/s | -53.0°C | 3.9% | 102.3hPa | 2.7V | 00:00:00 | 01:12:15 | 00:00:00 | |
| OE5FHM-15 | 2026-09-02 11:41:40 | 48.14814 | 12.29062 | 68° | 29km/h | 16393m | 3.7m/s | -53.0°C | 4.0% | 102.6hPa | 2.7V | 00:00:00 | 01:12:11 | 00:00:00 | |
| DO3MHA-11 | 2026-09-02 11:41:38 | 48.14806 | 12.29036 | 69° | 37km/h | 16385m | 4.7m/s | -52.8°C | 4.0% | 102.7hPa | 2.7V | 00:00:00 | 01:12:09 | 00:00:00 | |
| OE3JTB-15 | 2026-09-02 11:41:36 | 48.14800 | 12.29009 | 74° | 29km/h | 16377m | 3.9m/s | -52.9°C | 4.0% | 102.8hPa | 2.7V | 00:00:00 | 00:00:00 | 00:00:00 | |
| OE5MMP-10 | 2026-09-02 11:41:34 | 48.14795 | 12.28985 | 73° | 29km/h | 16368m | 3.8m/s | -53.0°C | 3.9% | 102.9hPa | 2.7V | 00:00:00 | 01:12:05 | 00:00:00 | |
| DO7DH-14 | 2026-09-02 11:41:30 | 48.14786 | 12.28946 | 68° | 27km/h | 16351m | 4.3m/s | -53.1°C | 3.9% | 103.2hPa | 2.7V | 00:00:00 | 01:12:01 | 00:00:00 | |
| PG1ADW-2 | 2026-09-02 11:41:28 | 48.14781 | 12.28928 | 72° | 29km/h | 16342m | 3.6m/s | -53.2°C | 4.0% | 103.3hPa | 2.7V | 00:00:00 | 00:00:00 | 00:00:00 | |
| OE5REO-15 | 2026-09-02 11:41:27 | 48.14779 | 12.28918 | 74° | 27km/h | 16338m | 5.3m/s | -53.3°C | 1.3% | 103.5hPa | 2.7V | 00:00:00 | 00:00:00 | 00:00:00 | |
| OE5WHR-10 | 2026-09-02 11:41:26 | 48.14777 | 12.28907 | 76° | 29km/h | 16333m | 4.4m/s | -53.2°C | 4.0% | 103.5hPa | 2.7V | 00:00:00 | 00:00:00 | 00:00:00 | |
| OE5DXL-15 | 2026-09-02 11:41:25 | 48.14775 | 12.28895 | 81° | 29km/h | 16329m | 3.8m/s | -53.2°C | 4.0% | 103.6hPa | 2.7V | 00:00:00 | 00:00:00 | 00:00:00 | |
| OE5MMP-10 | 2026-09-02 11:41:24 | 48.14774 | 12.28882 | 85° | 27km/h | 16325m | 4.1m/s | -53.2°C | 4.0% | 103.6hPa | 2.7V | 00:00:00 | 01:11:55 | 00:00:00 | |
| DG1MFX-10 | 2026-09-02 11:41:19 | 48.14772 | 12.28838 | 83° | 26km/h | 16307m | 4.3m/s | -53.1°C | 1.3% | 104.0hPa | 2.7V | 00:00:00 | 00:00:00 | 00:00:00 | |
| OE5DRO-10 | 2026-09-02 11:41:15 | 48.14771 | 12.28793 | 91° | 29km/h | 16286m | 4.7m/s | -52.9°C | 3.8% | 104.3hPa | 2.7V | 00:00:00 | 00:00:00 | 00:00:00 | |
| OE5MMP-10 | 2026-09-02 11:41:14 | 48.14771 | 12.28783 | 92° | 31km/h | 16282m | 4.2m/s | -52.9°C | 3.9% | 104.3hPa | 2.7V | 00:00:00 | 01:11:45 | 00:00:00 | |
| OE5REO-15 | 2026-09-02 11:41:11 | 48.14773 | 12.28760 | 102° | 31km/h | 16273m | 4.7m/s | -52.8°C | 1.3% | 104.5hPa | 2.7V | 00:00:00 | 00:00:00 | 00:00:00 | |
| OE5FHM-15 | 2026-09-02 11:41:10 | 48.14776 | 12.28736 | 102° | 33km/h | 16264m | 5.5m/s | -52.7°C | 3.9% | 104.6hPa | 2.7V | 00:00:00 | 01:11:41 | 00:00:00 | |
| PG1ADW-2 | 2026-09-02 11:41:08 | 48.14780 | 12.28710 | 104° | 31km/h | 16255m | 3.9m/s | -52.7°C | 3.9% | 104.8hPa | 2.7V | 00:00:00 | 01:11:39 | 00:00:00 | |
| OE3JTB-15 | 2026-09-02 11:41:07 | 48.14782 | 12.28699 | 107° | 35km/h | 16251m | 4.9m/s | -52.8°C | 3.9% | 104.8hPa | 2.7V | 00:00:00 | 01:11:38 | 00:00:00 | |
| OE5WHR-10 | 2026-09-02 11:41:05 | 48.14786 | 12.28678 | 106° | 31km/h | 16243m | 4.3m/s | -52.8°C | 3.8% | 104.9hPa | 2.7V | 00:00:00 | 00:00:00 | 00:00:00 | |
| OE5MMP-10 | 2026-09-02 11:41:04 | 48.14788 | 12.28669 | 102° | 29km/h | 16238m | 4.9m/s | -52.9°C | 3.9% | 105.0hPa | 2.7V | 00:00:00 | 01:11:35 | 00:00:00 | |
| DO7DH-14 | 2026-09-02 11:41:00 | 48.14792 | 12.28630 | 104° | 35km/h | 16221m | 3.8m/s | 0°C | 0% | 0hPa | 2.7V | 00:00:00 | 01:11:31 | 00:00:00 | |
| DG1MFX-10 | 2026-09-02 11:40:58 | 48.14793 | 12.28620 | 108° | 27km/h | 16217m | 3.8m/s | -53.1°C | 1.3% | 105.5hPa | 2.7V | 00:00:00 | 00:00:00 | 00:00:00 | |
| OE5DRO-10 | 2026-09-02 11:40:56 | 48.14801 | 12.28586 | 111° | 37km/h | 16205m | 3.6m/s | -52.9°C | 3.9% | 105.6hPa | 2.7V | 00:00:00 | 00:00:00 | 00:00:00 | |
| OE5DXL-15 | 2026-09-02 11:40:55 | 48.14804 | 12.28573 | 114° | 38km/h | 16200m | 4.9m/s | -52.9°C | 3.8% | 105.6hPa | 2.7V | 00:00:00 | 00:00:00 | 00:00:00 | |
| OE5MMP-10 | 2026-09-02 11:40:54 | 48.14808 | 12.28561 | 115° | 35km/h | 16196m | 3.8m/s | -52.8°C | 3.8% | 105.7hPa | 2.7V | 00:00:00 | 01:11:25 | 00:00:00 | |
| PG1ADW-2 | 2026-09-02 11:40:48 | 48.14824 | 12.28490 | 108° | 38km/h | 16170m | 3.8m/s | -52.7°C | 3.9% | 106.1hPa | 2.7V | 00:00:00 | 00:00:00 | 00:00:00 | |
| DG1MJG | 2026-09-02 11:40:44 | 48.14835 | 12.28437 | 112° | 38km/h | 16153m | 4.7m/s | -52.7°C | 1.3% | 106.5hPa | 2.7V | 00:00:00 | 00:00:00 | 00:00:00 | |
| OE5REO-15 | 2026-09-02 11:40:41 | 48.14842 | 12.28410 | 115° | 40km/h | 16145m | 4.3m/s | -52.6°C | 1.3% | 106.6hPa | 2.7V | 00:00:00 | 00:00:00 | 00:00:00 | |
| OE5FHM-15 | 2026-09-02 11:40:40 | 48.14851 | 12.28382 | 112° | 47km/h | 16137m | 3.6m/s | -52.5°C | 3.8% | 106.7hPa | 2.7V | 00:00:00 | 01:11:11 | 00:00:00 | |
| OE5DRO-10 | 2026-09-02 11:40:37 | 48.14861 | 12.28341 | 111° | 42km/h | 16124m | 3.5m/s | -52.5°C | 3.7% | 106.9hPa | 2.7V | 00:00:00 | 00:00:00 | 00:00:00 | |
| OE5MMP-10 | 2026-09-02 11:40:34 | 48.14870 | 12.28302 | 108° | 44km/h | 16111m | 4.1m/s | -52.4°C | 3.6% | 107.1hPa | 2.7V | 00:00:00 | 01:11:05 | 08:30:00 | |
| DO7DH-14 | 2026-09-02 11:40:30 | 48.14885 | 12.28247 | 112° | 47km/h | 16094m | 4.5m/s | 0°C | 0% | 0hPa | 2.7V | 00:00:00 | 01:11:01 | 00:00:00 | |
| BAUMI2-15 | 2026-09-02 11:40:29 | 48.14889 | 12.28231 | 111° | 47km/h | 16089m | 4.1m/s | -52.5°C | 3.7% | 107.5hPa | 2.7V | 00:00:00 | 01:11:00 | 00:00:00 | |
| PG1ADW-2 | 2026-09-02 11:40:28 | 48.14894 | 12.28215 | 113° | 53km/h | 16085m | 5.1m/s | -52.6°C | 3.7% | 107.5hPa | 2.7V | 00:00:00 | 00:00:00 | 00:00:00 | |
| DO3MHA-11 | 2026-09-02 11:40:26 | 48.14903 | 12.28182 | 113° | 47km/h | 16076m | 3.7m/s | -52.7°C | 3.7% | 107.7hPa | 2.7V | 00:00:00 | 01:10:57 | 00:00:00 | |
| OE5DXL-15 | 2026-09-02 11:40:25 | 48.14907 | 12.28166 | 111° | 51km/h | 16072m | 5.1m/s | -52.8°C | 3.8% | 107.8hPa | 2.7V | 00:00:00 | 00:00:00 | 00:00:00 | |
| OE5MMP-10 | 2026-09-02 11:40:24 | 48.14911 | 12.28150 | 110° | 46km/h | 16068m | 3.3m/s | -52.7°C | 3.8% | 107.8hPa | 2.7V | 00:00:00 | 01:10:55 | 00:00:00 | |
| OE5WHR-10 | 2026-09-02 11:40:23 | 48.14915 | 12.28134 | 111° | 49km/h | 16064m | 3.7m/s | -52.6°C | 3.8% | 107.9hPa | 2.7V | 00:00:00 | 00:00:00 | 08:30:00 | |
| BAUMI2-15 | 2026-09-02 11:40:19 | 48.14934 | 12.28075 | 116° | 49km/h | 16047m | 4.7m/s | -52.8°C | 3.8% | 108.2hPa | 2.7V | 00:00:00 | 01:10:50 | 00:00:00 | |
| OE5DRO-10 | 2026-09-02 11:40:18 | 48.14938 | 12.28058 | 114° | 51km/h | 16043m | 3.7m/s | -52.9°C | 3.8% | 108.3hPa | 2.7V | 00:00:00 | 00:00:00 | 08:30:00 | |
| DO3MHA-11 | 2026-09-02 11:40:15 | 48.14953 | 12.28007 | 112° | 51km/h | 16029m | 5.3m/s | -53.0°C | 3.8% | 108.5hPa | 2.7V | 00:00:00 | 01:10:46 | 00:00:00 | |
| OE5MMP-10 | 2026-09-02 11:40:14 | 48.14958 | 12.27988 | 112° | 51km/h | 16024m | 4.1m/s | -53.1°C | 3.9% | 108.6hPa | 2.7V | 00:00:00 | 01:10:45 | 00:00:00 | |
| DG1MJG | 2026-09-02 11:40:13 | 48.14958 | 12.27988 | 112° | 53km/h | 16024m | 4.2m/s | -53.1°C | 1.3% | 108.6hPa | 2.7V | 00:00:00 | 00:00:00 | 00:00:00 | |
| OE5FHM-15 | 2026-09-02 11:40:10 | 48.14979 | 12.27916 | 116° | 57km/h | 16006m | 5.3m/s | -53.0°C | 3.9% | 108.9hPa | 2.7V | 00:00:00 | 01:10:41 | 00:00:00 | |
| BAUMI2-15 | 2026-09-02 11:40:09 | 48.14984 | 12.27898 | 118° | 51km/h | 16001m | 3.9m/s | -52.9°C | 3.9% | 109.0hPa | 2.7V | 00:00:00 | 01:10:40 | 00:00:00 | |
| BAUMI2-15 | 2026-09-02 11:40:05 | 48.15019 | 12.27816 | 123° | 53km/h | 15980m | 3.7m/s | -53.0°C | 3.9% | 109.4hPa | 2.7V | 00:00:00 | 01:10:35 | 00:00:00 | |
| DB0UT-7 | 2026-09-02 11:40:04 | 48.15019 | 12.27816 | 123° | 62km/h | 15980m | 3.7m/s | -53.0°C | 3.9% | 109.4hPa | 2.7V | 00:00:00 | 01:10:35 | 00:00:00 | |
| DL6DJ-15 | 2026-09-02 11:40:03 | 48.15054 | 12.27732 | 121° | 55km/h | 15958m | 4.1m/s | -52.9°C | 1.3% | 109.8hPa | 2.7V | 00:00:00 | 00:00:00 | 00:00:00 | |
| OE5WHR-10 | 2026-09-02 11:40:02 | 48.15033 | 12.27783 | 123° | 58km/h | 15971m | 4.4m/s | -53.0°C | 3.9% | 109.5hPa | 2.7V | 00:00:00 | 00:00:00 | 00:00:00 | |
| DO7DH-14 | 2026-09-02 11:40:00 | 48.15047 | 12.27749 | 122° | 62km/h | 15963m | 4.9m/s | 0°C | 0% | 0hPa | 2.7V | 00:00:00 | 01:10:31 | 00:00:00 | |
| OE5DRO-10 | 2026-09-02 11:39:59 | 48.15054 | 12.27732 | 122° | 60km/h | 15958m | 4.1m/s | -52.9°C | 3.8% | 109.7hPa | 2.7V | 00:00:00 | 00:00:00 | 00:00:00 | |
| OE5REO-15 | 2026-09-02 11:39:57 | 48.15062 | 12.27714 | 123° | 57km/h | 15954m | 4.0m/s | -52.9°C | 1.3% | 109.8hPa | 2.7V | 00:00:00 | 00:00:00 | 00:00:00 | |
| PG1ADW-2 | 2026-09-02 11:39:56 | 48.15077 | 12.27678 | 123° | 62km/h | 15946m | 3.8m/s | -52.8°C | 3.8% | 109.9hPa | 2.7V | 00:00:00 | 00:00:00 | 00:00:00 | |
| DO3MHA-11 | 2026-09-02 11:39:55 | 48.15085 | 12.27659 | 122° | 58km/h | 15941m | 5.3m/s | -52.8°C | 3.8% | 110.0hPa | 2.7V | 00:00:00 | 01:10:26 | 00:00:00 | |
| BAUMI2-15 | 2026-09-02 11:39:54 | 48.15092 | 12.27640 | 120° | 57km/h | 15936m | 3.7m/s | -52.9°C | 3.8% | 110.1hPa | 2.7V | 00:00:00 | 01:10:25 | 00:00:00 | |
| BAUMI2-15 | 2026-09-02 11:39:49 | 48.15127 | 12.27545 | 117° | 62km/h | 15914m | 4.5m/s | -52.7°C | 3.9% | 110.5hPa | 2.7V | 00:00:00 | 01:10:20 | 00:00:00 | |
| DO3MHA-11 | 2026-09-02 11:39:45 | 48.15158 | 12.27463 | 125° | 66km/h | 15895m | 3.7m/s | -52.7°C | 3.9% | 110.8hPa | 2.7V | 00:00:00 | 01:10:16 | 00:00:00 | |
| OE5MMP-10 | 2026-09-02 11:39:44 | 48.15168 | 12.27443 | 125° | 64km/h | 15891m | 4.2m/s | -52.7°C | 3.9% | 110.9hPa | 2.7V | 00:00:00 | 01:10:15 | 00:00:00 | |
| DG1MFX-10 | 2026-09-02 11:39:42 | 48.15177 | 12.27423 | 125° | 66km/h | 15886m | 5.0m/s | -52.8°C | 1.3% | 111.0hPa | 2.7V | 00:00:00 | 00:00:00 | 00:00:00 | |
| OE5WHR-10 | 2026-09-02 11:39:41 | 48.15195 | 12.27379 | 120° | 68km/h | 15878m | 4.3m/s | -52.7°C | 3.8% | 111.1hPa | 2.7V | 00:00:00 | 01:10:12 | 00:00:00 | |
| OE5DRO-10 | 2026-09-02 11:39:40 | 48.15203 | 12.27358 | 118° | 68km/h | 15874m | 4.9m/s | -52.7°C | 3.8% | 111.2hPa | 2.7V | 00:00:00 | 00:00:00 | 00:00:00 | |
| BAUMI2-15 | 2026-09-02 11:39:38 | 48.15217 | 12.27316 | 115° | 64km/h | 15865m | 4.0m/s | -52.7°C | 3.8% | 111.3hPa | 2.7V | 00:00:00 | 01:10:09 | 00:00:00 | |
| PG1ADW-2 | 2026-09-02 11:39:36 | 48.15229 | 12.27272 | 111° | 69km/h | 15855m | 3.9m/s | -52.5°C | 3.7% | 111.5hPa | 2.7V | 00:00:00 | 01:10:07 | 00:00:00 | |
| DO3MHA-11 | 2026-09-02 11:39:35 | 48.15234 | 12.27249 | 112° | 69km/h | 15851m | 4.2m/s | -52.5°C | 3.8% | 111.5hPa | 2.7V | 00:00:00 | 01:10:06 | 00:00:00 | |
| OE5MMP-10 | 2026-09-02 11:39:34 | 48.15241 | 12.27226 | 114° | 69km/h | 15846m | 5.6m/s | -52.5°C | 3.8% | 111.6hPa | 2.7V | 00:00:00 | 01:10:05 | 00:00:00 | |
| BAUMI2-15 | 2026-09-02 11:39:33 | 48.15248 | 12.27203 | 117° | 71km/h | 15842m | 4.0m/s | -52.5°C | 3.8% | 111.7hPa | 2.7V | 00:00:00 | 01:10:04 | 00:00:00 | |
| DB0UT-7 | 2026-09-02 11:39:31 | 48.15264 | 12.27157 | 118° | 69km/h | 15833m | 5.0m/s | -52.6°C | 3.8% | 111.9hPa | 2.7V | 00:00:00 | 00:00:00 | 00:00:00 | |
| DO7DH-14 | 2026-09-02 11:39:30 | 48.15273 | 12.27132 | 117° | 75km/h | 15828m | 3.9m/s | 0°C | 0% | 0hPa | 2.7V | 00:00:00 | 01:10:01 | 00:00:00 | |
| DH7VM-15 | 2026-09-02 11:39:29 | 48.15273 | 12.27132 | 117° | 73km/h | 15828m | 4.0m/s | -52.6°C | 1.3% | 112.0hPa | 2.7V | 00:00:00 | 00:00:00 | 00:00:00 | |
| BAUMI2-15 | 2026-09-02 11:39:28 | 48.15288 | 12.27082 | 116° | 69km/h | 15820m | 5.7m/s | -52.6°C | 3.8% | 112.1hPa | 2.7V | 00:00:00 | 01:09:59 | 00:00:00 | |
| OE5REO-15 | 2026-09-02 11:39:26 | 48.15296 | 12.27059 | 117° | 69km/h | 15815m | 4.8m/s | -52.7°C | 1.3% | 112.2hPa | 2.7V | 00:00:00 | 00:00:00 | 00:00:00 | |
| DO3MHA-11 | 2026-09-02 11:39:25 | 48.15311 | 12.27011 | 114° | 71km/h | 15805m | 5.2m/s | -52.6°C | 3.8% | 112.3hPa | 2.7V | 00:00:00 | 01:09:56 | 00:00:00 | |
| OE5MMP-10 | 2026-09-02 11:39:24 | 48.15318 | 12.26987 | 113° | 73km/h | 15800m | 4.8m/s | -52.6°C | 3.8% | 112.4hPa | 2.7V | 00:00:00 | 01:09:55 | 00:00:00 | |
| BAUMI2-15 | 2026-09-02 11:39:23 | 48.15324 | 12.26963 | 112° | 71km/h | 15795m | 5.6m/s | -52.7°C | 3.8% | 112.5hPa | 2.7V | 00:00:00 | 01:09:54 | 00:00:00 | |
| OE5DRO-10 | 2026-09-02 11:39:21 | 48.15336 | 12.26914 | 108° | 77km/h | 15786m | 4.5m/s | -52.7°C | 3.8% | 112.7hPa | 2.7V | 00:00:00 | 00:00:00 | 00:00:00 | |
| OE5WHR-10 | 2026-09-02 11:39:20 | 48.15342 | 12.26888 | 107° | 78km/h | 15781m | 5.4m/s | -52.7°C | 3.8% | 112.8hPa | 2.7V | 00:00:00 | 00:00:00 | 00:00:00 | |
| BAUMI2-15 | 2026-09-02 11:39:18 | 48.15353 | 12.26833 | 107° | 77km/h | 15772m | 4.1m/s | -52.8°C | 3.8% | 113.0hPa | 2.7V | 00:00:00 | 01:09:49 | 00:00:00 | |
| PG1ADW-2 | 2026-09-02 11:39:16 | 48.15364 | 12.26778 | 111° | 77km/h | 15762m | 3.7m/s | -52.8°C | 3.8% | 113.1hPa | 2.7V | 00:00:00 | 00:00:00 | 00:00:00 | |
| DO3MHA-11 | 2026-09-02 11:39:15 | 48.15371 | 12.26751 | 112° | 77km/h | 15759m | 3.7m/s | -52.9°C | 3.8% | 113.2hPa | 2.7V | 00:00:00 | 01:09:46 | 00:00:00 | |
| OE5MMP-10 | 2026-09-02 11:39:14 | 48.15378 | 12.26725 | 113° | 77km/h | 15754m | 5.0m/s | -52.9°C | 3.8% | 113.3hPa | 2.7V | 00:00:00 | 01:09:45 | 00:00:00 | |
| BAUMI2-15 | 2026-09-02 11:39:13 | 48.15385 | 12.26699 | 112° | 75km/h | 15750m | 4.1m/s | -52.9°C | 3.8% | 113.3hPa | 2.7V | 00:00:00 | 01:09:44 | 08:30:00 | |
| DG1MJG | 2026-09-02 11:39:12 | 48.15385 | 12.26699 | 112° | 77km/h | 15750m | 4.1m/s | -53.0°C | 1.3% | 113.4hPa | 2.7V | 00:00:00 | 00:00:00 | 00:00:00 | |
| OE5REO-15 | 2026-09-02 11:39:11 | 48.15392 | 12.26672 | 111° | 77km/h | 15746m | 3.6m/s | -53.0°C | 1.3% | 113.5hPa | 2.7V | 00:00:00 | 00:00:00 | 00:00:00 | |
| BAUMI2-15 | 2026-09-02 11:39:08 | 48.15413 | 12.26564 | 103° | 80km/h | 15729m | 4.7m/s | -52.9°C | 3.8% | 113.7hPa | 2.7V | 00:00:00 | 01:09:39 | 00:00:00 | |
| OE5MMP-10 | 2026-09-02 11:39:04 | 48.15429 | 12.26443 | 103° | 78km/h | 15710m | 3.7m/s | -53.1°C | 3.8% | 114.0hPa | 2.7V | 00:00:00 | 01:09:35 | 08:30:00 | |
| BAUMI2-15 | 2026-09-02 11:39:03 | 48.15434 | 12.26412 | 102° | 82km/h | 15706m | 5.0m/s | -53.1°C | 3.8% | 114.1hPa | 2.7V | 00:00:00 | 01:09:34 | 00:00:00 | |
| OE5DRO-10 | 2026-09-02 11:39:02 | 48.15438 | 12.26381 | 102° | 80km/h | 15701m | 3.9m/s | -53.2°C | 3.8% | 114.2hPa | 2.7V | 00:00:00 | 00:00:00 | 00:00:00 | |
| DO7DH-14 | 2026-09-02 11:39:00 | 48.15447 | 12.26320 | 102° | 77km/h | 15694m | 5.2m/s | 0°C | 0% | 0hPa | 2.7V | 00:00:00 | 01:09:31 | 00:00:00 | |
| OE5WHR-10 | 2026-09-02 11:38:59 | 48.15450 | 12.26292 | 102° | 78km/h | 15689m | 4.1m/s | -53.6°C | 3.9% | 114.4hPa | 2.7V | 00:00:00 | 00:00:00 | 00:00:00 | |
| BAUMI2-15 | 2026-09-02 11:38:58 | 48.15453 | 12.26264 | 100° | 75km/h | 15684m | 4.1m/s | -53.7°C | 3.9% | 114.5hPa | 2.7V | 00:00:00 | 01:09:29 | 00:00:00 | |
| OE5REO-15 | 2026-09-02 11:38:55 | 48.15461 | 12.26182 | 99° | 75km/h | 15672m | 4.0m/s | -53.7°C | 1.4% | 114.8hPa | 2.7V | 00:00:00 | 00:00:00 | 00:00:00 | |
| DO3MHA-11 | 2026-09-02 11:38:54 | 48.15464 | 12.26153 | 100° | 80km/h | 15668m | 4.5m/s | -53.7°C | 4.0% | 114.8hPa | 2.7V | 00:00:00 | 01:09:25 | 00:00:00 | |
| BAUMI2-15 | 2026-09-02 11:38:53 | 48.15467 | 12.26124 | 101° | 82km/h | 15664m | 3.5m/s | -53.7°C | 4.0% | 114.8hPa | 2.7V | 00:00:00 | 01:09:24 | 00:00:00 | |
| PG1ADW-2 | 2026-09-02 11:38:52 | 48.15471 | 12.26094 | 101° | 78km/h | 15659m | 4.8m/s | -53.7°C | 4.1% | 115.0hPa | 2.7V | 00:00:00 | 00:00:00 | 00:00:00 | |
| BAUMI2-15 | 2026-09-02 11:38:49 | 48.15485 | 12.25969 | 101° | 82km/h | 15643m | 3.5m/s | -53.8°C | 4.0% | 115.2hPa | 2.7V | 00:00:00 | 01:09:19 | 00:00:00 | |
| OE5MMP-10 | 2026-09-02 11:38:44 | 48.15496 | 12.25847 | 96° | 77km/h | 15627m | 3.4m/s | -54.0°C | 4.0% | 115.5hPa | 2.7V | 00:00:00 | 01:09:15 | 00:00:00 | |
| BAUMI2-15 | 2026-09-02 11:38:43 | 48.15498 | 12.25817 | 97° | 78km/h | 15623m | 4.9m/s | -54.1°C | 4.1% | 115.6hPa | 2.7V | 00:00:00 | 01:09:14 | 00:00:00 | |
| DO3MHA-11 | 2026-09-02 11:38:42 | 48.15501 | 12.25787 | 97° | 73km/h | 15618m | 4.2m/s | -54.2°C | 4.0% | 115.7hPa | 2.7V | 00:00:00 | 01:09:13 | 00:00:00 | |
| DG1MJG | 2026-09-02 11:38:41 | 48.15501 | 12.25787 | 98° | 78km/h | 15618m | 4.2m/s | -54.2°C | 1.4% | 115.7hPa | 2.7V | 00:00:00 | 00:00:00 | 00:00:00 | |
| DG1MFX-10 | 2026-09-02 11:38:39 | 48.15505 | 12.25729 | 96° | 78km/h | 15609m | 5.3m/s | -54.3°C | 1.5% | 115.9hPa | 2.7V | 00:00:00 | 00:00:00 | 00:00:00 | |
| OE5WHR-10 | 2026-09-02 11:38:38 | 48.15508 | 12.25670 | 93° | 73km/h | 15601m | 3.1m/s | -54.3°C | 4.1% | 116.0hPa | 2.7V | 00:00:00 | 01:09:09 | 00:00:00 | |
| OE5MMP-10 | 2026-09-02 11:38:34 | 48.15513 | 12.25561 | 95° | 75km/h | 15584m | 4.9m/s | -54.2°C | 4.2% | 116.3hPa | 2.7V | 00:00:00 | 01:09:05 | 00:00:00 | |
| PG1ADW-2 | 2026-09-02 11:38:32 | 48.15516 | 12.25506 | 96° | 71km/h | 15576m | 3.3m/s | -54.2°C | 4.2% | 116.4hPa | 2.7V | 00:00:00 | 00:00:00 | 08:30:00 | |
| DL6DJ-15 | 2026-09-02 11:38:29 | 48.15523 | 12.25424 | 99° | 73km/h | 15563m | 4.2m/s | -54.3°C | 1.5% | 116.8hPa | 2.7V | 00:00:00 | 00:00:00 | 00:00:00 | |
| DO3MHA-11 | 2026-09-02 11:38:28 | 48.15526 | 12.25396 | 100° | 68km/h | 15559m | 4.7m/s | -54.3°C | 4.2% | 116.7hPa | 2.7V | 00:00:00 | 01:08:59 | 08:30:00 | |
| OE5DXL-15 | 2026-09-02 11:38:26 | 48.15536 | 12.25310 | 101° | 68km/h | 15547m | 4.5m/s | -54.2°C | 4.2% | 117.0hPa | 2.7V | 00:00:00 | 00:00:00 | 00:00:00 | |
| OE5REO-15 | 2026-09-02 11:38:25 | 48.15540 | 12.25283 | 101° | 73km/h | 15543m | 3.5m/s | -54.3°C | 1.5% | 117.1hPa | 2.7V | 00:00:00 | 00:00:00 | 00:00:00 | |
| DG1MFX-10 | 2026-09-02 11:38:18 | 48.15545 | 12.25152 | 90° | 64km/h | 15521m | 4.5m/s | -54.4°C | 1.5% | 117.5hPa | 2.7V | 00:00:00 | 00:00:00 | 00:00:00 | |
| OE5WHR-10 | 2026-09-02 11:38:17 | 48.15545 | 12.25103 | 90° | 66km/h | 15513m | 4.7m/s | -54.3°C | 4.2% | 117.6hPa | 2.7V | 00:00:00 | 00:00:00 | 00:00:00 | |
| OE5MMP-10 | 2026-09-02 11:38:14 | 48.15545 | 12.25027 | 93° | 68km/h | 15501m | 4.9m/s | -54.1°C | 4.1% | 117.8hPa | 2.7V | 00:00:00 | 01:08:45 | 00:00:00 | |
| DB0UT-7 | 2026-09-02 11:38:12 | 48.15547 | 12.24976 | 94° | 58km/h | 15491m | 4.8m/s | -54.1°C | 4.1% | 118.0hPa | 2.7V | 00:00:00 | 01:08:43 | 00:00:00 | |
| DG1MJG | 2026-09-02 11:38:10 | 48.15548 | 12.24950 | 95° | 71km/h | 15487m | 4.2m/s | -54.2°C | 1.4% | 118.1hPa | 2.7V | 00:00:00 | 00:00:00 | 00:00:00 | |
| OE5REO-15 | 2026-09-02 11:38:07 | 48.15553 | 12.24873 | 96° | 66km/h | 15474m | 3.7m/s | -54.0°C | 1.5% | 118.3hPa | 2.7V | 00:00:00 | 00:00:00 | 00:00:00 | |
| DH7VM-15 | 2026-09-02 11:38:06 | 48.15553 | 12.24848 | 94° | 66km/h | 15470m | 4.9m/s | -54.1°C | 0% | 0hPa | 2.7V | 00:00:00 | 00:00:00 | 00:00:00 | |
| OE5MMP-10 | 2026-09-02 11:38:04 | 48.15556 | 12.24775 | 95° | 64km/h | 15457m | 5.4m/s | -54.0°C | 4.1% | 118.6hPa | 2.7V | 00:00:00 | 01:08:35 | 00:00:00 | |
| DL6DJ-15 | 2026-09-02 11:37:58 | 48.15560 | 12.24629 | 91° | 62km/h | 15431m | 4.9m/s | -54.0°C | 1.5% | 119.2hPa | 2.7V | 00:00:00 | 00:00:00 | 00:00:00 | |
| DG1MFX-10 | 2026-09-02 11:37:57 | 48.15560 | 12.24629 | 92° | 64km/h | 15431m | 4.9m/s | -54.0°C | 1.5% | 119.2hPa | 2.7V | 00:00:00 | 00:00:00 | 00:00:00 | |
| OE5WHR-10 | 2026-09-02 11:37:56 | 48.15561 | 12.24582 | 92° | 60km/h | 15423m | 3.9m/s | -54.0°C | 4.0% | 119.3hPa | 2.7V | 00:00:00 | 00:00:00 | 00:00:00 | |
| OE5DXL-15 | 2026-09-02 11:37:55 | 48.15562 | 12.24558 | 90° | 60km/h | 15419m | 4.4m/s | -54.1°C | 4.0% | 119.3hPa | 2.7V | 00:00:00 | 00:00:00 | 08:30:00 | |
| OE5MMP-10 | 2026-09-02 11:37:54 | 48.15561 | 12.24534 | 89° | 58km/h | 15415m | 3.9m/s | -54.2°C | 4.0% | 119.4hPa | 2.7V | 00:00:00 | 01:08:25 | 00:00:00 | |
| PG1ADW-2 | 2026-09-02 11:37:51 | 48.15560 | 12.24465 | 88° | 58km/h | 15402m | 3.9m/s | -54.1°C | 4.1% | 119.7hPa | 2.7V | 00:00:00 | 00:00:00 | 00:00:00 | |
| OE3JTB-15 | 2026-09-02 11:37:49 | 48.15556 | 12.24380 | 90° | 57km/h | 15383m | 4.5m/s | -54.1°C | 4.2% | 120.0hPa | 2.7V | 00:00:00 | 01:08:18 | 00:00:00 | |
| OE5MMP-10 | 2026-09-02 11:37:44 | 48.15558 | 12.24314 | 93° | 60km/h | 15369m | 4.1m/s | -54.3°C | 4.2% | 120.3hPa | 2.7V | 00:00:00 | 01:08:15 | 00:00:00 | |
| DG1MJG | 2026-09-02 11:37:40 | 48.15561 | 12.24245 | 97° | 60km/h | 15356m | 3.7m/s | -54.5°C | 1.5% | 120.6hPa | 2.7V | 00:00:00 | 00:00:00 | 00:00:00 | |
| DG1MFX-10 | 2026-09-02 11:37:36 | 48.15566 | 12.24156 | 94° | 58km/h | 15338m | 4.9m/s | -54.6°C | 1.5% | 120.9hPa | 2.7V | 00:00:00 | 00:00:00 | 00:00:00 | |
| OE5WHR-10 | 2026-09-02 11:37:35 | 48.15567 | 12.24112 | 93° | 60km/h | 15329m | 5.1m/s | -54.6°C | 4.1% | 121.1hPa | 2.7V | 00:00:00 | 01:08:06 | 00:00:00 | |
| OE5MMP-10 | 2026-09-02 11:37:34 | 48.15567 | 12.24089 | 91° | 60km/h | 15325m | 4.2m/s | -54.5°C | 4.2% | 121.1hPa | 2.7V | 00:00:00 | 01:08:05 | 08:30:00 | |
| PG1ADW-2 | 2026-09-02 11:37:31 | 48.15567 | 12.24021 | 89° | 60km/h | 15312m | 4.0m/s | -54.4°C | 4.1% | 121.4hPa | 2.7V | 00:00:00 | 00:00:00 | 00:00:00 | |
| DL6DJ-15 | 2026-09-02 11:37:27 | 48.15564 | 12.23929 | 86° | 60km/h | 15294m | 5.1m/s | -54.5°C | 1.4% | 121.7hPa | 2.7V | 00:00:00 | 00:00:00 | 00:00:00 | |
| OE5DXL-15 | 2026-09-02 11:37:25 | 48.15562 | 12.23884 | 88° | 57km/h | 15286m | 4.6m/s | -54.6°C | 4.1% | 121.9hPa | 2.7V | 00:00:00 | 01:07:56 | 00:00:00 | |
| OE5MMP-10 | 2026-09-02 11:37:24 | 48.15562 | 12.23860 | 88° | 58km/h | 15281m | 4.6m/s | -54.7°C | 4.2% | 121.9hPa | 2.7V | 00:00:00 | 01:07:55 | 00:00:00 | |
| OE5REO-15 | 2026-09-02 11:37:20 | 48.15560 | 12.23791 | 91° | 58km/h | 15268m | 4.8m/s | -54.7°C | 1.5% | 122.2hPa | 2.7V | 00:00:00 | 00:00:00 | 00:00:00 | |
| DG1MFX-10 | 2026-09-02 11:37:15 | 48.15556 | 12.23683 | 85° | 57km/h | 15246m | 5.1m/s | -54.7°C | 1.6% | 122.7hPa | 2.7V | 00:00:00 | 00:00:00 | 00:00:00 | |
| OE5MMP-10 | 2026-09-02 11:37:14 | 48.15553 | 12.23640 | 85° | 60km/h | 15238m | 4.6m/s | -54.7°C | 4.4% | 122.8hPa | 2.7V | 00:00:00 | 01:07:45 | 00:00:00 | |
| PG1ADW-2 | 2026-09-02 11:37:11 | 48.15549 | 12.23570 | 86° | 55km/h | 15225m | 4.7m/s | -54.6°C | 4.4% | 123.0hPa | 2.7V | 00:00:00 | 00:00:00 | 00:00:00 | |
| DG1MJG | 2026-09-02 11:37:10 | 48.15549 | 12.23570 | 87° | 64km/h | 15225m | 4.7m/s | -54.7°C | 1.5% | 123.1hPa | 2.7V | 00:00:00 | 00:00:00 | 00:00:00 | |
| OE5MMP-10 | 2026-09-02 11:37:04 | 48.15538 | 12.23417 | 79° | 53km/h | 15194m | 4.7m/s | -54.6°C | 4.2% | 123.6hPa | 2.7V | 00:00:00 | 01:07:35 | 00:00:00 | |
| DL6DJ-15 | 2026-09-02 11:36:56 | 48.15520 | 12.23260 | 83° | 55km/h | 15159m | 4.9m/s | -54.6°C | 1.5% | 124.3hPa | 2.7V | 00:00:00 | 00:00:00 | 00:00:00 | |
| OE5DXL-15 | 2026-09-02 11:36:55 | 48.15518 | 12.23239 | 85° | 49km/h | 15155m | 3.6m/s | -54.5°C | 4.4% | 124.4hPa | 2.7V | 00:00:00 | 00:00:00 | 00:00:00 | |
| OE5MMP-10 | 2026-09-02 11:36:54 | 48.15517 | 12.23218 | 86° | 53km/h | 15151m | 4.6m/s | -54.5°C | 4.3% | 124.4hPa | 2.7V | 00:00:00 | 01:07:25 | 00:00:00 | |
| OE5WHR-10 | 2026-09-02 11:36:53 | 48.15516 | 12.23197 | 88° | 49km/h | 15146m | 4.9m/s | -54.5°C | 4.4% | 124.5hPa | 2.7V | 00:00:00 | 00:00:00 | 00:00:00 | |
| PG1ADW-2 | 2026-09-02 11:36:51 | 48.15515 | 12.23156 | 88° | 49km/h | 15138m | 4.5m/s | -54.4°C | 4.3% | 124.7hPa | 2.7V | 00:00:00 | 01:07:22 | 00:00:00 | |
| OE5REO-15 | 2026-09-02 11:36:49 | 48.15514 | 12.23136 | 87° | 55km/h | 15133m | 4.5m/s | -54.5°C | 1.6% | 124.9hPa | 2.7V | 00:00:00 | 00:00:00 | 00:00:00 | |
| OE5MMP-10 | 2026-09-02 11:36:44 | 48.15511 | 12.23018 | 86° | 47km/h | 15107m | 4.6m/s | -54.3°C | 4.2% | 125.3hPa | 2.7V | 00:00:00 | 01:07:15 | 00:00:00 | |
| OE3JTB-15 | 2026-09-02 11:36:42 | 48.15509 | 12.22962 | 91° | 46km/h | 15094m | 4.6m/s | -54.2°C | 4.3% | 125.6hPa | 2.7V | 00:00:00 | 00:00:00 | 00:00:00 | |
| DG1MJG | 2026-09-02 11:36:41 | 48.15509 | 12.22962 | 92° | 47km/h | 15094m | 4.7m/s | -54.3°C | 1.5% | 125.6hPa | 2.7V | 00:00:00 | 00:00:00 | 00:00:00 | |
| BAUMI2-15 | 2026-09-02 11:36:37 | 48.15508 | 12.22892 | 87° | 47km/h | 15076m | 3.8m/s | -54.0°C | 4.3% | 125.9hPa | 2.7V | 00:00:00 | 01:07:08 | 00:00:00 | |
| OE5REO-15 | 2026-09-02 11:36:35 | 48.15508 | 12.22858 | 94° | 47km/h | 15067m | 4.9m/s | -53.8°C | 1.6% | 126.2hPa | 2.7V | 00:00:00 | 00:00:00 | 00:00:00 | |
| OE5MMP-10 | 2026-09-02 11:36:34 | 48.15509 | 12.22840 | 98° | 47km/h | 15063m | 3.6m/s | -53.8°C | 4.3% | 126.2hPa | 2.7V | 00:00:00 | 01:07:05 | 00:00:00 | |
| DG1MFX-10 | 2026-09-02 11:36:33 | 48.15509 | 12.22840 | 99° | 47km/h | 15063m | 3.6m/s | -53.8°C | 1.6% | 126.2hPa | 2.7V | 00:00:00 | 00:00:00 | 00:00:00 | |
| OE5WHR-10 | 2026-09-02 11:36:32 | 48.15513 | 12.22802 | 99° | 46km/h | 15053m | 4.9m/s | -53.9°C | 4.3% | 126.4hPa | 2.7V | 00:00:00 | 01:07:03 | 00:00:00 | |
| PG1ADW-2 | 2026-09-02 11:36:31 | 48.15514 | 12.22783 | 99° | 46km/h | 15049m | 3.8m/s | -53.9°C | 4.3% | 126.4hPa | 2.7V | 00:00:00 | 00:00:00 | 00:00:00 | |
| DB0UT-7 | 2026-09-02 11:36:29 | 48.15519 | 12.22746 | 99° | 58km/h | 15039m | 4.3m/s | -53.8°C | 4.3% | 126.7hPa | 2.7V | 00:00:00 | 00:00:00 | 08:30:00 | |
| BAUMI2-15 | 2026-09-02 11:36:27 | 48.15521 | 12.22712 | 93° | 44km/h | 15030m | 3.9m/s | -53.7°C | 4.2% | 126.9hPa | 2.7V | 00:00:00 | 01:06:58 | 08:30:00 | |
| OE5DXL-15 | 2026-09-02 11:36:25 | 48.15522 | 12.22679 | 93° | 47km/h | 15021m | 5.7m/s | -53.6°C | 4.1% | 127.0hPa | 2.7V | 00:00:00 | 00:00:00 | 00:00:00 | |
| OE5MMP-10 | 2026-09-02 11:36:24 | 48.15523 | 12.22662 | 95° | 46km/h | 15016m | 4.2m/s | -53.5°C | 4.2% | 127.1hPa | 2.7V | 00:00:00 | 01:06:55 | 00:00:00 | |
| DO3MHA-11 | 2026-09-02 11:36:22 | 48.15525 | 12.22630 | 96° | 47km/h | 15008m | 4.9m/s | -53.6°C | 4.1% | 127.2hPa | 2.7V | 00:00:00 | 01:06:53 | 00:00:00 | |
| OE5REO-15 | 2026-09-02 11:36:18 | 48.15527 | 12.22578 | 96° | 46km/h | 14994m | 5.1m/s | -53.5°C | 0% | 127.6hPa | 2.7V | 00:00:00 | 00:00:00 | 00:00:00 | |
| BAUMI2-15 | 2026-09-02 11:36:17 | 48.15530 | 12.22545 | 101° | 46km/h | 14985m | 4.1m/s | -53.3°C | 4.1% | 127.8hPa | 2.7V | 00:00:00 | 01:06:48 | 00:00:00 | |
| OE5MMP-10 | 2026-09-02 11:36:14 | 48.15537 | 12.22494 | 102° | 49km/h | 14971m | 4.1m/s | -53.2°C | 4.1% | 128.0hPa | 2.7V | 00:00:00 | 01:06:45 | 00:00:00 | |
| DG1MFX-10 | 2026-09-02 11:36:13 | 48.15539 | 12.22477 | 103° | 46km/h | 14967m | 5.0m/s | -53.2°C | 1.6% | 128.1hPa | 2.7V | 00:00:00 | 00:00:00 | 00:00:00 | |
| BAUMI2-15 | 2026-09-02 11:36:12 | 48.15542 | 12.22459 | 103° | 51km/h | 14962m | 3.4m/s | -53.1°C | 4.1% | 128.2hPa | 2.7V | 00:00:00 | 01:06:43 | 00:00:00 | |
| OE5WHR-10 | 2026-09-02 11:36:11 | 48.15545 | 12.22441 | 102° | 51km/h | 14959m | 4.1m/s | -53.1°C | 4.1% | 128.2hPa | 2.7V | 00:00:00 | 00:00:00 | 00:00:00 | |
| DG1MJG | 2026-09-02 11:36:09 | 48.15547 | 12.22422 | 101° | 53km/h | 14954m | 4.9m/s | -53.2°C | 1.5% | 128.4hPa | 2.7V | 00:00:00 | 00:00:00 | 00:00:00 | |
| DO3MHA-11 | 2026-09-02 11:36:08 | 48.15551 | 12.22382 | 98° | 49km/h | 14945m | 5.0m/s | -53.3°C | 4.1% | 128.5hPa | 2.7V | 00:00:00 | 01:06:39 | 00:00:00 | |
| BAUMI2-15 | 2026-09-02 11:36:07 | 48.15553 | 12.22362 | 97° | 47km/h | 14941m | 4.0m/s | -53.3°C | 4.1% | 128.6hPa | 2.7V | 00:00:00 | 01:06:38 | 00:00:00 | |
| OE5MMP-10 | 2026-09-02 11:36:04 | 48.15558 | 12.22309 | 101° | 49km/h | 14928m | 4.0m/s | -53.4°C | 4.0% | 128.9hPa | 2.7V | 00:00:00 | 01:06:35 | 08:30:00 | |
| BAUMI2-15 | 2026-09-02 11:36:02 | 48.15563 | 12.22277 | 105° | 47km/h | 14918m | 4.1m/s | -53.5°C | 4.1% | 129.1hPa | 2.7V | 00:00:00 | 01:06:33 | 00:00:00 | |
| BAUMI2-15 | 2026-09-02 11:35:57 | 48.15582 | 12.22189 | 107° | 55km/h | 14895m | 5.7m/s | -53.3°C | 4.0% | 129.5hPa | 2.7V | 00:00:00 | 01:06:28 | 00:00:00 | |
| DO3MHA-11 | 2026-09-02 11:35:56 | 48.15586 | 12.22169 | 106° | 51km/h | 14890m | 4.1m/s | -53.4°C | 4.1% | 129.6hPa | 2.7V | 00:00:00 | 01:06:27 | 00:00:00 | |
| OE5DXL-15 | 2026-09-02 11:35:55 | 48.15589 | 12.22149 | 106° | 53km/h | 14886m | 4.8m/s | -53.5°C | 4.2% | 129.7hPa | 2.7V | 00:00:00 | 00:00:00 | 00:00:00 | |
| DO7DH-14 | 2026-09-02 11:35:54 | 48.15593 | 12.22129 | 106° | 57km/h | 14881m | 3.8m/s | 0°C | 0% | 0hPa | 2.7V | 00:00:00 | 01:06:25 | 00:00:00 | |
| BAUMI2-15 | 2026-09-02 11:35:52 | 48.15600 | 12.22089 | 106° | 49km/h | 14873m | 4.7m/s | -53.8°C | 4.3% | 130.0hPa | 2.7V | 00:00:00 | 01:06:23 | 00:00:00 | |
| PG1ADW-2 | 2026-09-02 11:35:51 | 48.15604 | 12.22071 | 107° | 51km/h | 14869m | 3.3m/s | -53.8°C | 4.3% | 130.1hPa | 2.7V | 00:00:00 | 00:00:00 | 00:00:00 | |
| OE5WHR-10 | 2026-09-02 11:35:50 | 48.15608 | 12.22053 | 110° | 53km/h | 14864m | 4.7m/s | -53.8°C | 4.3% | 130.1hPa | 2.7V | 00:00:00 | 00:00:00 | 00:00:00 | |
| BAUMI2-15 | 2026-09-02 11:35:47 | 48.15623 | 12.22003 | 116° | 51km/h | 14852m | 4.3m/s | -53.8°C | 4.3% | 130.4hPa | 2.7V | 00:00:00 | 01:06:18 | 00:00:00 | |
| DO3MHA-11 | 2026-09-02 11:35:46 | 48.15628 | 12.21986 | 115° | 53km/h | 14847m | 4.6m/s | -53.8°C | 4.3% | 130.5hPa | 2.7V | 00:00:00 | 01:06:17 | 00:00:00 | |
| OE5MMP-10 | 2026-09-02 11:35:44 | 48.15638 | 12.21951 | 114° | 53km/h | 14839m | 4.0m/s | -53.8°C | 4.3% | 130.7hPa | 2.7V | 00:00:00 | 01:06:15 | 00:00:00 | |
| BAUMI2-15 | 2026-09-02 11:35:42 | 48.15650 | 12.21913 | 116° | 55km/h | 14830m | 4.2m/s | -53.8°C | 4.2% | 130.8hPa | 2.7V | 00:00:00 | 01:06:13 | 08:30:00 | |
| DG1MJG | 2026-09-02 11:35:39 | 48.15662 | 12.21875 | 115° | 57km/h | 14822m | 4.2m/s | -53.8°C | 1.6% | 131.1hPa | 2.7V | 00:00:00 | 00:00:00 | 00:00:00 | |
| BAUMI2-15 | 2026-09-02 11:35:37 | 48.15679 | 12.21819 | 116° | 51km/h | 14809m | 3.8m/s | -53.7°C | 4.2% | 131.3hPa | 2.7V | 00:00:00 | 01:06:08 | 00:00:00 | |
| DO3MHA-11 | 2026-09-02 11:35:36 | 48.15684 | 12.21801 | 114° | 55km/h | 14804m | 5.0m/s | -53.7°C | 4.2% | 131.4hPa | 2.7V | 00:00:00 | 01:06:07 | 00:00:00 | |
| OE5MMP-10 | 2026-09-02 11:35:34 | 48.15693 | 12.21766 | 112° | 57km/h | 14796m | 3.8m/s | -53.6°C | 4.2% | 131.5hPa | 2.7V | 00:00:00 | 01:06:05 | 00:00:00 | |
| BAUMI2-15 | 2026-09-02 11:35:32 | 48.15703 | 12.21730 | 113° | 57km/h | 14787m | 3.6m/s | -53.5°C | 4.2% | 131.7hPa | 2.7V | 00:00:00 | 01:06:03 | 00:00:00 | |
| PG1ADW-2 | 2026-09-02 11:35:31 | 48.15708 | 12.21710 | 111° | 57km/h | 14783m | 4.5m/s | -53.5°C | 4.2% | 131.8hPa | 2.7V | 00:00:00 | 01:06:02 | 08:30:00 | |
| OE5WHR-10 | 2026-09-02 11:35:29 | 48.15718 | 12.21669 | 107° | 57km/h | 14775m | 3.1m/s | -53.5°C | 4.2% | 132.0hPa | 2.7V | 00:00:00 | 01:06:00 | 00:00:00 | |
| BAUMI2-15 | 2026-09-02 11:35:27 | 48.15727 | 12.21626 | 111° | 58km/h | 14766m | 4.7m/s | -53.6°C | 4.2% | 132.2hPa | 2.7V | 00:00:00 | 01:05:58 | 00:00:00 | |
| OE5DXL-15 | 2026-09-02 11:35:25 | 48.15738 | 12.21583 | 112° | 57km/h | 14758m | 3.5m/s | -53.7°C | 4.3% | 132.3hPa | 2.7V | 00:00:00 | 00:00:00 | 00:00:00 | |
| OE5MMP-10 | 2026-09-02 11:35:24 | 48.15744 | 12.21562 | 111° | 53km/h | 14754m | 4.7m/s | -53.6°C | 4.3% | 132.4hPa | 2.7V | 00:00:00 | 01:05:55 | 00:00:00 | |
| DL6DJ-15 | 2026-09-02 11:35:23 | 48.15752 | 12.21522 | 105° | 53km/h | 14745m | 4.4m/s | -53.7°C | 1.6% | 132.6hPa | 2.7V | 00:00:00 | 00:00:00 | 00:00:00 | |
| BAUMI2-15 | 2026-09-02 11:35:22 | 48.15752 | 12.21522 | 106° | 51km/h | 14746m | 4.3m/s | -53.7°C | 4.2% | 132.6hPa | 2.7V | 00:00:00 | 01:05:53 | 00:00:00 | |
| OE5REO-15 | 2026-09-02 11:35:17 | 48.15769 | 12.21428 | 104° | 49km/h | 14725m | 3.6m/s | 0°C | 0% | 0hPa | 2.7V | 00:00:00 | 00:00:00 | 00:00:00 | |
| OE5DRO-10 | 2026-09-02 11:35:16 | 48.15772 | 12.21410 | 107° | 58km/h | 14720m | 4.9m/s | -53.8°C | 4.3% | 133.1hPa | 2.7V | 00:00:00 | 00:00:00 | 00:00:00 | |
| OE5MMP-10 | 2026-09-02 11:35:14 | 48.15781 | 12.21371 | 110° | 60km/h | 14711m | 4.4m/s | -53.7°C | 4.3% | 133.3hPa | 2.7V | 00:00:00 | 01:05:45 | 00:00:00 | |
| BAUMI2-15 | 2026-09-02 11:35:12 | 48.15791 | 12.21328 | 111° | 60km/h | 14703m | 2.9m/s | -53.7°C | 4.3% | 133.5hPa | 2.7V | 00:00:00 | 01:05:43 | 00:00:00 | |
| PG1ADW-2 | 2026-09-02 11:35:11 | 48.15797 | 12.21307 | 113° | 60km/h | 14700m | 4.3m/s | -53.7°C | 4.4% | 133.6hPa | 2.7V | 00:00:00 | 00:00:00 | 00:00:00 | |
| DG1MJG | 2026-09-02 11:35:10 | 48.15803 | 12.21286 | 115° | 60km/h | 14695m | 5.1m/s | -53.8°C | 1.7% | 133.7hPa | 2.7V | 00:00:00 | 00:00:00 | 00:00:00 | |
| OE5WHR-10 | 2026-09-02 11:35:08 | 48.15815 | 12.21244 | 112° | 60km/h | 14686m | 4.7m/s | -53.8°C | 4.5% | 133.8hPa | 2.7V | 00:00:00 | 00:00:00 | 00:00:00 | |
| BAUMI2-15 | 2026-09-02 11:35:07 | 48.15820 | 12.21223 | 109° | 57km/h | 14682m | 3.3m/s | -53.8°C | 4.4% | 133.9hPa | 2.7V | 00:00:00 | 01:05:38 | 00:00:00 | |
| OE5MMP-10 | 2026-09-02 11:35:04 | 48.15833 | 12.21160 | 106° | 60km/h | 14669m | 4.2m/s | -53.8°C | 4.3% | 134.2hPa | 2.7V | 00:00:00 | 01:05:35 | 00:00:00 | |
| DL6DJ-15 | 2026-09-02 11:34:52 | 48.15899 | 12.20880 | 111° | 60km/h | 14614m | 3.8m/s | -53.5°C | 1.6% | 135.4hPa | 2.7V | 00:00:00 | 00:00:00 | 00:00:00 | |
| PG1ADW-2 | 2026-09-02 11:34:51 | 48.15899 | 12.20880 | 112° | 62km/h | 14614m | 3.7m/s | -53.4°C | 4.2% | 135.3hPa | 2.7V | 00:00:00 | 00:00:00 | 00:00:00 | |
| DO3MHA-11 | 2026-09-02 11:34:50 | 48.15904 | 12.20858 | 112° | 62km/h | 14610m | 4.3m/s | -53.4°C | 4.2% | 135.4hPa | 2.7V | 00:00:00 | 01:05:21 | 00:00:00 | |
| OE5WHR-10 | 2026-09-02 11:34:47 | 48.15921 | 12.20797 | 112° | 62km/h | 14597m | 4.8m/s | -53.5°C | 4.3% | 135.7hPa | 2.7V | 00:00:00 | 00:00:00 | 00:00:00 | |
| OE5MMP-10 | 2026-09-02 11:34:44 | 48.15938 | 12.20732 | 112° | 64km/h | 14583m | 5.2m/s | -53.4°C | 4.3% | 136.0hPa | 2.7V | 00:00:00 | 01:05:15 | 00:00:00 | |
| BAUMI2-15 | 2026-09-02 11:34:42 | 48.15949 | 12.20689 | 112° | 69km/h | 14575m | 4.6m/s | -53.4°C | 4.3% | 136.2hPa | 2.7V | 00:00:00 | 01:05:13 | 00:00:00 | |
| DO3MHA-11 | 2026-09-02 11:34:38 | 48.15973 | 12.20599 | 113° | 64km/h | 14557m | 3.6m/s | -53.4°C | 4.3% | 136.6hPa | 2.7V | 00:00:00 | 01:05:09 | 00:00:00 | |
| OE5DRO-10 | 2026-09-02 11:34:37 | 48.15979 | 12.20577 | 114° | 64km/h | 14552m | 4.9m/s | -53.5°C | 4.3% | 136.6hPa | 2.7V | 00:00:00 | 00:00:00 | 00:00:00 | |
| OE5HKT-10 | 2026-09-02 11:34:34 | 48.15999 | 12.20511 | 117° | 64km/h | 14538m | 4.3m/s | -53.5°C | 4.2% | 137.0hPa | 2.7V | 00:00:00 | 00:00:00 | 08:30:00 | |
| PG1ADW-2 | 2026-09-02 11:34:31 | 48.16019 | 12.20449 | 114° | 64km/h | 14526m | 3.7m/s | -53.4°C | 4.2% | 137.2hPa | 2.7V | 00:00:00 | 00:00:00 | 00:00:00 | |
| DG1MFX-10 | 2026-09-02 11:34:30 | 48.16019 | 12.20449 | 115° | 62km/h | 14526m | 3.8m/s | -53.4°C | 1.7% | 137.3hPa | 2.7V | 00:00:00 | 00:00:00 | 00:00:00 | |
| DO3MHA-11 | 2026-09-02 11:34:28 | 48.16038 | 12.20383 | 111° | 66km/h | 14512m | 4.5m/s | -53.2°C | 4.2% | 137.5hPa | 2.7V | 00:00:00 | 01:04:59 | 08:30:00 | |
| OE5WHR-10 | 2026-09-02 11:34:26 | 48.16049 | 12.20336 | 109° | 64km/h | 14503m | 3.6m/s | -53.1°C | 4.2% | 137.7hPa | 2.7V | 00:00:00 | 01:04:57 | 00:00:00 | |
| OE5DXL-15 | 2026-09-02 11:34:25 | 48.16054 | 12.20312 | 109° | 64km/h | 14499m | 4.8m/s | -53.1°C | 4.3% | 137.8hPa | 2.7V | 00:00:00 | 00:00:00 | 00:00:00 | |
| OE5MMP-10 | 2026-09-02 11:34:24 | 48.16059 | 12.20289 | 109° | 62km/h | 14495m | 3.6m/s | -53.0°C | 4.3% | 137.9hPa | 2.7V | 00:00:00 | 01:04:55 | 00:00:00 | |
| DL6DJ-15 | 2026-09-02 11:34:21 | 48.16080 | 12.20197 | 110° | 60km/h | 14476m | 5.4m/s | -53.0°C | 1.7% | 138.3hPa | 2.7V | 00:00:00 | 00:00:00 | 00:00:00 | |
| DO7DH-14 | 2026-09-02 11:34:17 | 48.16097 | 12.20133 | 115° | 64km/h | 14463m | 4.2m/s | 0°C | 0% | 0hPa | 2.7V | 00:00:00 | 01:04:48 | 00:00:00 | |
| OE5FHM-15 | 2026-09-02 11:34:16 | 48.16104 | 12.20111 | 115° | 66km/h | 14459m | 3.6m/s | -52.9°C | 4.1% | 138.7hPa | 2.7V | 00:00:00 | 01:04:47 | 00:00:00 | |
| OE5MMP-10 | 2026-09-02 11:34:14 | 48.16117 | 12.20068 | 113° | 64km/h | 14450m | 4.7m/s | -52.9°C | 4.1% | 138.9hPa | 2.7V | 00:00:00 | 01:04:45 | 00:00:00 | |
| OE5HKT-10 | 2026-09-02 11:34:11 | 48.16134 | 12.19998 | 109° | 64km/h | 14437m | 4.3m/s | -53.0°C | 4.2% | 139.1hPa | 2.7V | 00:00:00 | 00:00:00 | 00:00:00 | |
| PG1ADW-2 | 2026-09-02 11:34:09 | 48.16144 | 12.19953 | 107° | 69km/h | 14427m | 4.0m/s | -52.8°C | 4.2% | 139.3hPa | 2.7V | 00:00:00 | 01:04:40 | 00:00:00 | |
| OE5REO-15 | 2026-09-02 11:34:08 | 48.16144 | 12.19953 | 107° | 62km/h | 14427m | 4.0m/s | 0°C | 0% | 0hPa | 2.7V | 00:00:00 | 00:00:00 | 00:00:00 | |
| DG1MJG | 2026-09-02 11:34:07 | 48.16148 | 12.19930 | 107° | 62km/h | 14423m | 5.3m/s | -52.8°C | 1.6% | 139.5hPa | 2.7V | 00:00:00 | 00:00:00 | 00:00:00 | |
| OE5WHR-10 | 2026-09-02 11:34:05 | 48.16162 | 12.19861 | 109° | 66km/h | 14409m | 5.5m/s | -52.7°C | 4.1% | 139.7hPa | 2.7V | 00:00:00 | 00:00:00 | 08:30:00 | |
| DL6DJ-15 | 2026-09-02 11:33:50 | 48.16241 | 12.19485 | 107° | 68km/h | 14341m | 4.4m/s | -53.3°C | 1.7% | 141.3hPa | 2.7V | 00:00:00 | 00:00:00 | 00:00:00 | |
| OE5FHM-15 | 2026-09-02 11:33:46 | 48.16255 | 12.19409 | 105° | 69km/h | 14329m | 4.5m/s | -53.2°C | 4.3% | 141.5hPa | 2.7V | 00:00:00 | 01:04:17 | 00:00:00 | |
| OE5MMP-10 | 2026-09-02 11:33:44 | 48.16264 | 12.19357 | 106° | 71km/h | 14320m | 5.1m/s | -53.3°C | 4.4% | 141.8hPa | 2.7V | 00:00:00 | 01:04:15 | 00:00:00 | |
| OE5DRO-10 | 2026-09-02 11:33:40 | 48.16285 | 12.19253 | 107° | 69km/h | 14303m | 3.4m/s | -53.4°C | 4.3% | 142.1hPa | 2.7V | 00:00:00 | 00:00:00 | 00:00:00 | |
| DO3MHA-11 | 2026-09-02 11:33:39 | 48.16291 | 12.19226 | 108° | 71km/h | 14299m | 4.4m/s | -53.5°C | 4.3% | 142.1hPa | 2.7V | 00:00:00 | 01:04:10 | 00:00:00 | |
| DG1MFX-10 | 2026-09-02 11:33:37 | 48.16296 | 12.19200 | 110° | 71km/h | 14294m | 4.3m/s | -53.6°C | 1.8% | 142.3hPa | 2.7V | 00:00:00 | 00:00:00 | 00:00:00 | |
| DG1MJG | 2026-09-02 11:33:36 | 48.16302 | 12.19174 | 109° | 71km/h | 14290m | 3.7m/s | -53.7°C | 1.7% | 142.4hPa | 2.7V | 00:00:00 | 00:00:00 | 00:00:00 | |
| OE5MMP-10 | 2026-09-02 11:33:34 | 48.16317 | 12.19097 | 105° | 69km/h | 14278m | 3.8m/s | -53.7°C | 4.4% | 142.6hPa | 2.7V | 00:00:00 | 01:04:05 | 00:00:00 | |
| OE5HKT-10 | 2026-09-02 11:33:27 | 48.16348 | 12.18917 | 107° | 66km/h | 14248m | 3.5m/s | -53.4°C | 4.3% | 143.3hPa | 2.7V | 00:00:00 | 00:00:00 | 00:00:00 | |
| OE5DXL-15 | 2026-09-02 11:33:25 | 48.16358 | 12.18868 | 107° | 68km/h | 14240m | 4.4m/s | -53.4°C | 4.3% | 143.4hPa | 2.7V | 00:00:00 | 00:00:00 | 08:30:00 | |
| OE5MMP-10 | 2026-09-02 11:33:24 | 48.16362 | 12.18843 | 106° | 64km/h | 14236m | 3.5m/s | -53.4°C | 4.4% | 143.6hPa | 2.7V | 00:00:00 | 01:03:55 | 00:00:00 | |
| OE5WHR-10 | 2026-09-02 11:33:23 | 48.16367 | 12.18819 | 105° | 66km/h | 14232m | 4.2m/s | -53.6°C | 4.4% | 143.6hPa | 2.7V | 00:00:00 | 01:03:54 | 00:00:00 | |
| OE5DRO-10 | 2026-09-02 11:33:21 | 48.16375 | 12.18773 | 104° | 66km/h | 14223m | 4.6m/s | -53.7°C | 4.5% | 143.9hPa | 2.7V | 00:00:00 | 00:00:00 | 00:00:00 | |
| DL6DJ-15 | 2026-09-02 11:33:18 | 48.16385 | 12.18703 | 100° | 62km/h | 14210m | 5.2m/s | -53.9°C | 1.9% | 144.1hPa | 2.7V | 00:00:00 | 00:00:00 | 00:00:00 | |
| DG1MFX-10 | 2026-09-02 11:33:17 | 48.16384 | 12.18703 | 101° | 62km/h | 14211m | 5.2m/s | -53.9°C | 1.9% | 144.1hPa | 2.7V | 00:00:00 | 00:00:00 | 00:00:00 | |
| OE5FHM-15 | 2026-09-02 11:33:16 | 48.16390 | 12.18655 | 99° | 73km/h | 14202m | 4.0m/s | -53.8°C | 4.6% | 144.3hPa | 2.7V | 00:00:00 | 01:03:47 | 00:00:00 | |
| OE5MMP-10 | 2026-09-02 11:33:14 | 48.16395 | 12.18605 | 101° | 66km/h | 14194m | 4.3m/s | -53.6°C | 4.6% | 144.5hPa | 2.7V | 00:00:00 | 01:03:45 | 00:00:00 | |
| DB0UT-7 | 2026-09-02 11:33:09 | 48.16415 | 12.18480 | 105° | 75km/h | 14172m | 3.9m/s | -53.5°C | 4.4% | 145.0hPa | 2.7V | 00:00:00 | 01:03:40 | 00:00:00 | |
| DG1MJG | 2026-09-02 11:33:06 | 48.16425 | 12.18408 | 97° | 64km/h | 14160m | 2.2m/s | -53.6°C | 1.8% | 145.3hPa | 2.7V | 00:00:00 | 00:00:00 | 00:00:00 | |
| OE5MMP-10 | 2026-09-02 11:33:04 | 48.16427 | 12.18358 | 94° | 75km/h | 14153m | 5.2m/s | -53.5°C | 4.4% | 145.4hPa | 2.7V | 00:00:00 | 01:03:35 | 08:30:00 | |
| OE5HKT-10 | 2026-09-02 11:33:03 | 48.16428 | 12.18332 | 96° | 77km/h | 14148m | 4.3m/s | 0°C | 0% | 0hPa | 2.7V | 00:00:00 | 00:00:00 | 00:00:00 | |
| DL6DJ-15 | 2026-09-02 11:32:48 | 48.16503 | 12.17881 | 103° | 78km/h | 14076m | 2.9m/s | -53.3°C | 1.8% | 147.2hPa | 2.7V | 00:00:00 | 00:00:00 | 00:00:00 | |
| OE5FHM-15 | 2026-09-02 11:32:46 | 48.16508 | 12.17852 | 105° | 82km/h | 14073m | 4.4m/s | -53.2°C | 4.3% | 147.2hPa | 2.7V | 00:00:00 | 01:03:17 | 08:30:00 | |
| OE5MMP-10 | 2026-09-02 11:32:44 | 48.16519 | 12.17794 | 108° | 78km/h | 14064m | 4.4m/s | -53.2°C | 4.3% | 147.4hPa | 2.7V | 00:00:00 | 01:03:15 | 00:00:00 | |
| OE5DRO-10 | 2026-09-02 11:32:43 | 48.16525 | 12.17765 | 110° | 82km/h | 14059m | 5.1m/s | -53.3°C | 4.3% | 147.5hPa | 2.7V | 00:00:00 | 00:00:00 | 00:00:00 | |
| OE5WHR-10 | 2026-09-02 11:32:41 | 48.16538 | 12.17711 | 112° | 84km/h | 14051m | 3.7m/s | -53.3°C | 4.4% | 147.8hPa | 2.7V | 00:00:00 | 00:00:00 | 00:00:00 | |
| DB0UT-7 | 2026-09-02 11:32:39 | 48.16553 | 12.17656 | 111° | 73km/h | 14043m | 3.4m/s | -53.4°C | 4.5% | 147.9hPa | 2.7V | 00:00:00 | 00:00:00 | 00:00:00 | |
| DO3MHA-11 | 2026-09-02 11:32:37 | 48.16566 | 12.17600 | 109° | 84km/h | 14035m | 4.2m/s | -53.4°C | 4.6% | 148.1hPa | 2.7V | 00:00:00 | 01:03:08 | 00:00:00 | |
| DG1MFX-10 | 2026-09-02 11:32:36 | 48.16566 | 12.17600 | 109° | 78km/h | 14035m | 4.3m/s | -53.4°C | 2.0% | 148.2hPa | 2.7V | 00:00:00 | 00:00:00 | 00:00:00 | |
| BAUMI2-15 | 2026-09-02 11:32:35 | 48.16578 | 12.17543 | 108° | 84km/h | 14027m | 4.3m/s | -53.4°C | 4.6% | 148.3hPa | 2.7V | 00:00:00 | 01:03:06 | 00:00:00 | |
| OE5MMP-10 | 2026-09-02 11:32:34 | 48.16585 | 12.17513 | 109° | 86km/h | 14022m | 4.8m/s | -53.3°C | 4.6% | 148.4hPa | 2.7V | 00:00:00 | 01:03:05 | 00:00:00 | |
| BAUMI2-15 | 2026-09-02 11:32:30 | 48.16612 | 12.17390 | 108° | 86km/h | 14006m | 3.4m/s | -53.2°C | 4.5% | 148.8hPa | 2.7V | 00:00:00 | 01:03:01 | 00:00:00 | |
| DO3MHA-11 | 2026-09-02 11:32:27 | 48.16631 | 12.17298 | 108° | 82km/h | 13994m | 3.9m/s | -53.2°C | 4.4% | 149.1hPa | 2.7V | 00:00:00 | 01:02:58 | 00:00:00 | |
| OE5DXL-15 | 2026-09-02 11:32:25 | 48.16644 | 12.17234 | 107° | 78km/h | 13987m | 3.9m/s | -53.1°C | 4.4% | 149.2hPa | 2.7V | 00:00:00 | 00:00:00 | 00:00:00 | |
| OE5MMP-10 | 2026-09-02 11:32:24 | 48.16650 | 12.17203 | 107° | 80km/h | 13982m | 4.4m/s | -53.1°C | 4.4% | 149.4hPa | 2.7V | 00:00:00 | 01:02:55 | 00:00:00 | |
| OE5HKT-10 | 2026-09-02 11:32:21 | 48.16670 | 12.17113 | 111° | 78km/h | 13969m | 3.6m/s | 0°C | 0% | 0hPa | 2.7V | 00:00:00 | 00:00:00 | 00:00:00 | |
| OE5WHR-10 | 2026-09-02 11:32:20 | 48.16677 | 12.17085 | 111° | 77km/h | 13966m | 3.5m/s | -52.9°C | 4.4% | 149.7hPa | 2.7V | 00:00:00 | 01:02:51 | 00:00:00 | |
| DO3MHA-11 | 2026-09-02 11:32:17 | 48.16697 | 12.17004 | 112° | 80km/h | 13953m | 4.3m/s | -52.9°C | 4.3% | 150.0hPa | 2.7V | 00:00:00 | 01:02:48 | 00:00:00 | |
| OE5FHM-15 | 2026-09-02 11:32:16 | 48.16704 | 12.16977 | 112° | 77km/h | 13949m | 4.3m/s | -52.9°C | 4.4% | 150.1hPa | 2.7V | 00:00:00 | 01:02:47 | 00:00:00 | |
| BAUMI2-15 | 2026-09-02 11:32:15 | 48.16712 | 12.16949 | 113° | 80km/h | 13945m | 3.1m/s | 0°C | 0% | 0hPa | 2.7V | 00:00:00 | 01:02:46 | 00:00:00 | |
| OE5MMP-10 | 2026-09-02 11:32:14 | 48.16720 | 12.16920 | 112° | 78km/h | 13942m | 4.1m/s | -52.9°C | 4.5% | 150.3hPa | 2.7V | 00:00:00 | 01:02:45 | 00:00:00 | |
| BAUMI2-15 | 2026-09-02 11:32:10 | 48.16746 | 12.16805 | 108° | 77km/h | 13925m | 4.7m/s | 0°C | 0% | 0hPa | 2.7V | 00:00:00 | 01:02:41 | 08:30:00 | |
| DO3MHA-11 | 2026-09-02 11:32:07 | 48.16764 | 12.16720 | 107° | 75km/h | 13913m | 5.1m/s | -52.7°C | 4.4% | 151.0hPa | 2.7V | 00:00:00 | 01:02:38 | 00:00:00 | |
| BAUMI2-15 | 2026-09-02 11:32:05 | 48.16774 | 12.16667 | 106° | 75km/h | 13905m | 4.3m/s | 0°C | 0% | 0hPa | 2.7V | 00:00:00 | 01:02:36 | 00:00:00 | |
| OE5MMP-10 | 2026-09-02 11:32:04 | 48.16779 | 12.16640 | 106° | 75km/h | 13900m | 4.6m/s | -52.7°C | 4.4% | 151.2hPa | 2.7V | 00:00:00 | 01:02:35 | 00:00:00 | |
| DL6DJ-15 | 2026-09-02 11:31:46 | 48.16869 | 12.16125 | 106° | 75km/h | 13824m | 4.2m/s | -52.5°C | 1.9% | 153.1hPa | 2.7V | 00:00:00 | 00:00:00 | 00:00:00 | |
| OE5MMP-10 | 2026-09-02 11:31:44 | 48.16875 | 12.16097 | 107° | 69km/h | 13821m | 2.9m/s | -52.4°C | 4.4% | 153.2hPa | 2.7V | 00:00:00 | 01:02:15 | 00:00:00 | |
| PG1ADW-2 | 2026-09-02 11:31:41 | 48.16888 | 12.16017 | 102° | 69km/h | 13809m | 2.9m/s | -52.4°C | 4.4% | 153.5hPa | 2.7V | 00:00:00 | 00:00:00 | 00:00:00 | |
| OE5HKT-10 | 2026-09-02 11:31:39 | 48.16895 | 12.15966 | 103° | 68km/h | 13801m | 4.2m/s | 0°C | 0% | 0hPa | 2.7V | 00:00:00 | 01:02:10 | 00:00:00 | |
| OE5WHR-10 | 2026-09-02 11:31:38 | 48.16899 | 12.15942 | 103° | 69km/h | 13796m | 4.1m/s | -52.4°C | 4.4% | 153.8hPa | 2.7V | 00:00:00 | 00:00:00 | 00:00:00 | |
| DO3MHA-11 | 2026-09-02 11:31:37 | 48.16902 | 12.15919 | 104° | 69km/h | 13793m | 3.6m/s | -52.4°C | 4.3% | 153.9hPa | 2.7V | 00:00:00 | 01:02:08 | 00:00:00 | |
| DG1MFX-10 | 2026-09-02 11:31:36 | 48.16906 | 12.15895 | 104° | 66km/h | 13789m | 4.3m/s | -52.5°C | 1.9% | 154.0hPa | 2.7V | 00:00:00 | 00:00:00 | 00:00:00 | |
| OE5MMP-10 | 2026-09-02 11:31:34 | 48.16914 | 12.15844 | 104° | 69km/h | 13780m | 4.2m/s | -52.3°C | 4.4% | 154.2hPa | 2.7V | 00:00:00 | 01:02:05 | 08:30:00 | |
| DG1MJG | 2026-09-02 11:31:33 | 48.16914 | 12.15844 | 105° | 69km/h | 13780m | 4.2m/s | -52.4°C | 1.9% | 154.2hPa | 2.7V | 00:00:00 | 00:00:00 | 00:00:00 | |
| BAUMI2-15 | 2026-09-02 11:31:29 | 48.16936 | 12.15712 | 103° | 71km/h | 13761m | 3.2m/s | 0°C | 0% | 0hPa | 2.7V | 00:00:00 | 01:02:00 | 00:00:00 | |
| DO3MHA-11 | 2026-09-02 11:31:27 | 48.16944 | 12.15661 | 106° | 68km/h | 13752m | 4.1m/s | -52.3°C | 4.3% | 154.8hPa | 2.7V | 00:00:00 | 01:01:58 | 00:00:00 | |
| OE5DXL-15 | 2026-09-02 11:31:25 | 48.16953 | 12.15614 | 105° | 69km/h | 13743m | 4.7m/s | -52.3°C | 4.3% | 155.0hPa | 2.7V | 00:00:00 | 00:00:00 | 00:00:00 | |
| OE5MMP-10 | 2026-09-02 11:31:24 | 48.16957 | 12.15590 | 103° | 69km/h | 13739m | 4.3m/s | -52.3°C | 4.3% | 155.1hPa | 2.7V | 00:00:00 | 01:01:55 | 00:00:00 | |
| PG1ADW-2 | 2026-09-02 11:31:21 | 48.16968 | 12.15515 | 104° | 71km/h | 13727m | 4.3m/s | -52.2°C | 4.3% | 155.4hPa | 2.7V | 00:00:00 | 00:00:00 | 00:00:00 | |
| BAUMI2-15 | 2026-09-02 11:31:19 | 48.16976 | 12.15463 | 102° | 68km/h | 13718m | 4.7m/s | 0°C | 0% | 0hPa | 2.7V | 00:00:00 | 01:01:50 | 00:00:00 | |
| OE5HKT-10 | 2026-09-02 11:31:17 | 48.16984 | 12.15411 | 103° | 68km/h | 13710m | 4.6m/s | 0°C | 0% | 0hPa | 2.7V | 00:00:00 | 00:00:00 | 00:00:00 | |
| OE5FHM-15 | 2026-09-02 11:31:16 | 48.16988 | 12.15386 | 105° | 71km/h | 13706m | 4.2m/s | -52.1°C | 4.2% | 155.9hPa | 2.7V | 00:00:00 | 01:01:47 | 00:00:00 | |
| DG1MFX-10 | 2026-09-02 11:31:15 | 48.16988 | 12.15386 | 105° | 68km/h | 13706m | 4.3m/s | -52.2°C | 1.8% | 156.0hPa | 2.7V | 00:00:00 | 00:00:00 | 00:00:00 | |
| OE5MMP-10 | 2026-09-02 11:31:14 | 48.16995 | 12.15338 | 103° | 66km/h | 13697m | 5.0m/s | -52.1°C | 4.1% | 156.1hPa | 2.7V | 00:00:00 | 01:01:45 | 00:00:00 | |
| BAUMI2-15 | 2026-09-02 11:31:13 | 48.16999 | 12.15314 | 103° | 64km/h | 13693m | 3.2m/s | 0°C | 0% | 0hPa | 2.7V | 00:00:00 | 01:01:44 | 00:00:00 | |
| OE5DRO-10 | 2026-09-02 11:31:08 | 48.17015 | 12.15195 | 100° | 73km/h | 13674m | 3.8m/s | -52.4°C | 4.3% | 156.7hPa | 2.7V | 00:00:00 | 00:00:00 | 00:00:00 | |
| OE5MMP-10 | 2026-09-02 11:31:04 | 48.17027 | 12.15090 | 100° | 75km/h | 13658m | 4.3m/s | -52.6°C | 4.4% | 157.1hPa | 2.7V | 00:00:00 | 01:01:35 | 00:00:00 | |
| BAUMI2-15 | 2026-09-02 11:31:03 | 48.17030 | 12.15064 | 100° | 77km/h | 13654m | 4.0m/s | 0°C | 0% | 0hPa | 2.7V | 00:00:00 | 01:01:34 | 00:00:00 | |
| DO3MHA-11 | 2026-09-02 11:30:58 | 48.17048 | 12.14922 | 99° | 75km/h | 13635m | 3.0m/s | -52.6°C | 4.3% | 157.6hPa | 2.7V | 00:00:00 | 01:01:29 | 00:00:00 | |
| BAUMI2-15 | 2026-09-02 11:30:57 | 48.17051 | 12.14893 | 99° | 75km/h | 13631m | 3.7m/s | 0°C | 0% | 0hPa | 2.7V | 00:00:00 | 01:01:28 | 00:00:00 | |
| OE5WHR-10 | 2026-09-02 11:30:56 | 48.17053 | 12.14864 | 99° | 71km/h | 13627m | 4.9m/s | -52.5°C | 4.3% | 157.8hPa | 2.7V | 00:00:00 | 00:00:00 | 08:30:00 | |
| OE5DXL-15 | 2026-09-02 11:30:55 | 48.17056 | 12.14837 | 99° | 69km/h | 13623m | 3.6m/s | -52.5°C | 4.2% | 157.9hPa | 2.7V | 00:00:00 | 00:00:00 | 00:00:00 | |
| OE5MMP-10 | 2026-09-02 11:30:54 | 48.17059 | 12.14809 | 98° | 73km/h | 13618m | 4.4m/s | -52.5°C | 4.3% | 158.0hPa | 2.7V | 00:00:00 | 01:01:25 | 00:00:00 | |
| BAUMI2-15 | 2026-09-02 11:30:52 | 48.17063 | 12.14754 | 97° | 73km/h | 13610m | 4.2m/s | 0°C | 0% | 0hPa | 2.7V | 00:00:00 | 01:01:23 | 00:00:00 | |
| OE5DRO-10 | 2026-09-02 11:30:49 | 48.17070 | 12.14671 | 97° | 69km/h | 13598m | 3.5m/s | -52.4°C | 4.3% | 158.5hPa | 2.7V | 00:00:00 | 00:00:00 | 00:00:00 | |
| DO3MHA-11 | 2026-09-02 11:30:48 | 48.17072 | 12.14643 | 96° | 71km/h | 13594m | 4.4m/s | -52.3°C | 4.3% | 158.7hPa | 2.7V | 00:00:00 | 01:01:19 | 00:00:00 | |
| BAUMI2-15 | 2026-09-02 11:30:47 | 48.17073 | 12.14616 | 94° | 69km/h | 13590m | 3.7m/s | 0°C | 0% | 0hPa | 2.7V | 00:00:00 | 01:01:18 | 00:00:00 | |
| OE5FHM-15 | 2026-09-02 11:30:46 | 48.17074 | 12.14589 | 93° | 68km/h | 13586m | 3.4m/s | -52.3°C | 4.3% | 158.9hPa | 2.7V | 00:00:00 | 01:01:17 | 00:00:00 | |
| OE5MMP-10 | 2026-09-02 11:30:44 | 48.17076 | 12.14537 | 94° | 69km/h | 13578m | 4.3m/s | -52.2°C | 4.3% | 159.0hPa | 2.7V | 00:00:00 | 01:01:15 | 00:00:00 | |
| DL6DJ-15 | 2026-09-02 11:30:43 | 48.17077 | 12.14511 | 93° | 68km/h | 13575m | 2.9m/s | -52.3°C | 1.8% | 159.2hPa | 2.7V | 00:00:00 | 00:00:00 | 00:00:00 | |
| BAUMI2-15 | 2026-09-02 11:30:41 | 48.17079 | 12.14458 | 93° | 68km/h | 13566m | 3.8m/s | 0°C | 0% | 0hPa | 2.7V | 00:00:00 | 01:01:12 | 00:00:00 | |
| DO3MHA-11 | 2026-09-02 11:30:38 | 48.17082 | 12.14378 | 94° | 69km/h | 13554m | 3.4m/s | -52.2°C | 4.2% | 159.6hPa | 2.7V | 00:00:00 | 01:01:09 | 00:00:00 | |
| OE5WHR-10 | 2026-09-02 11:30:35 | 48.17084 | 12.14298 | 92° | 66km/h | 13542m | 3.1m/s | -52.1°C | 4.1% | 159.9hPa | 2.7V | 00:00:00 | 00:00:00 | 00:00:00 | |
| OE5MMP-10 | 2026-09-02 11:30:34 | 48.17085 | 12.14271 | 92° | 66km/h | 13538m | 3.5m/s | -52.2°C | 4.1% | 160.0hPa | 2.7V | 00:00:00 | 01:01:05 | 00:00:00 | |
| DG1MJG | 2026-09-02 11:30:33 | 48.17085 | 12.14271 | 93° | 69km/h | 13538m | 3.6m/s | -52.2°C | 1.7% | 160.1hPa | 2.7V | 00:00:00 | 00:00:00 | 00:00:00 | |
| OE5DRO-10 | 2026-09-02 11:30:30 | 48.17090 | 12.14170 | 95° | 64km/h | 13522m | 4.2m/s | -52.1°C | 4.2% | 160.4hPa | 2.7V | 00:00:00 | 00:00:00 | 00:00:00 | |
| DO3MHA-11 | 2026-09-02 11:30:28 | 48.17093 | 12.14120 | 97° | 64km/h | 13514m | 4.4m/s | -52.0°C | 4.2% | 160.6hPa | 2.7V | 00:00:00 | 01:00:59 | 00:00:00 | |
| OE5DXL-15 | 2026-09-02 11:30:25 | 48.17098 | 12.14048 | 93° | 60km/h | 13502m | 4.6m/s | -52.0°C | 4.2% | 160.9hPa | 2.7V | 00:00:00 | 00:00:00 | 00:00:00 | |
| OE5MMP-10 | 2026-09-02 11:30:24 | 48.17098 | 12.14025 | 91° | 64km/h | 13498m | 3.7m/s | -52.0°C | 4.2% | 161.0hPa | 2.7V | 00:00:00 | 01:00:55 | 00:00:00 | |
| DO3MHA-11 | 2026-09-02 11:30:18 | 48.17099 | 12.13879 | 94° | 64km/h | 13474m | 3.0m/s | -51.9°C | 4.1% | 161.6hPa | 2.7V | 00:00:00 | 01:00:49 | 00:00:00 | |
| OE5FHM-15 | 2026-09-02 11:30:16 | 48.17102 | 12.13831 | 98° | 57km/h | 13466m | 3.9m/s | -52.0°C | 4.1% | 161.8hPa | 2.7V | 00:00:00 | 01:00:47 | 00:00:00 | |
| DG1MFX-10 | 2026-09-02 11:30:14 | 48.17106 | 12.13783 | 97° | 62km/h | 13458m | 3.9m/s | -52.0°C | 1.7% | 162.0hPa | 2.7V | 00:00:00 | 00:00:00 | 00:00:00 | |
| PG1ADW-2 | 2026-09-02 11:30:13 | 48.17108 | 12.13760 | 95° | 58km/h | 13454m | 3.5m/s | -51.9°C | 4.0% | 162.1hPa | 2.7V | 00:00:00 | 00:00:00 | 08:30:00 | |
| DL6DJ-15 | 2026-09-02 11:30:12 | 48.17109 | 12.13736 | 94° | 62km/h | 13450m | 4.2m/s | -52.0°C | 1.7% | 162.3hPa | 2.7V | 00:00:00 | 00:00:00 | 00:00:00 | |
| OE5DRO-10 | 2026-09-02 11:30:11 | 48.17110 | 12.13712 | 94° | 57km/h | 13446m | 3.7m/s | -52.0°C | 4.0% | 162.3hPa | 2.7V | 00:00:00 | 00:00:00 | 00:00:00 | |
| DO3MHA-11 | 2026-09-02 11:30:08 | 48.17112 | 12.13643 | 94° | 58km/h | 13434m | 4.1m/s | -52.0°C | 4.1% | 162.6hPa | 2.7V | 00:00:00 | 01:00:39 | 08:30:00 | |
| OE5MMP-10 | 2026-09-02 11:30:04 | 48.17117 | 12.13556 | 96° | 57km/h | 13417m | 4.5m/s | -51.9°C | 4.0% | 163.1hPa | 2.7V | 00:00:00 | 01:00:35 | 08:30:00 | |
| DG1MJG | 2026-09-02 11:30:03 | 48.17117 | 12.13556 | 96° | 55km/h | 13417m | 4.5m/s | -51.9°C | 1.7% | 163.1hPa | 2.7V | 00:00:00 | 00:00:00 | 00:00:00 | |
| DO3MHA-11 | 2026-09-02 11:29:58 | 48.17129 | 12.13423 | 97° | 51km/h | 13392m | 5.0m/s | -52.0°C | 4.1% | 163.7hPa | 2.7V | 00:00:00 | 01:00:29 | 00:00:00 | |
| OE5DXL-15 | 2026-09-02 11:29:55 | 48.17133 | 12.13362 | 95° | 49km/h | 13380m | 4.4m/s | -52.0°C | 4.1% | 164.0hPa | 2.7V | 00:00:00 | 00:00:00 | 00:00:00 | |
| OE5MMP-10 | 2026-09-02 11:29:54 | 48.17134 | 12.13343 | 94° | 49km/h | 13375m | 4.5m/s | -51.9°C | 4.1% | 164.1hPa | 2.7V | 00:00:00 | 01:00:25 | 00:00:00 | |
| DG1MFX-10 | 2026-09-02 11:29:53 | 48.17134 | 12.13323 | 94° | 51km/h | 13371m | 3.8m/s | -52.0°C | 1.7% | 164.3hPa | 2.7V | 00:00:00 | 00:00:00 | 00:00:00 | |
| OE5DRO-10 | 2026-09-02 11:29:52 | 48.17136 | 12.13304 | 96° | 51km/h | 13368m | 3.0m/s | -52.0°C | 4.2% | 164.3hPa | 2.7V | 00:00:00 | 00:00:00 | 00:00:00 | |
| DO3MHA-11 | 2026-09-02 11:29:48 | 48.17143 | 12.13230 | 101° | 51km/h | 13351m | 3.9m/s | -52.0°C | 4.1% | 164.7hPa | 2.7V | 00:00:00 | 01:00:19 | 00:00:00 | |
| OE5FHM-15 | 2026-09-02 11:29:46 | 48.17148 | 12.13193 | 103° | 51km/h | 13343m | 4.4m/s | -52.1°C | 4.1% | 164.9hPa | 2.7V | 00:00:00 | 01:00:17 | 00:00:00 | |
| OE5MMP-10 | 2026-09-02 11:29:44 | 48.17154 | 12.13157 | 104° | 51km/h | 13335m | 3.4m/s | -52.1°C | 4.1% | 165.1hPa | 2.7V | 00:00:00 | 01:00:15 | 00:00:00 | |
| DL6DJ-15 | 2026-09-02 11:29:41 | 48.17162 | 12.13097 | 98° | 55km/h | 13323m | 3.6m/s | -52.2°C | 1.8% | 165.5hPa | 2.7V | 00:00:00 | 00:00:00 | 00:00:00 | |
| DO3MHA-11 | 2026-09-02 11:29:38 | 48.17169 | 12.13037 | 104° | 46km/h | 13311m | 4.2m/s | -52.0°C | 4.3% | 165.8hPa | 2.7V | 00:00:00 | 01:00:09 | 00:00:00 | |
| OE5MMP-10 | 2026-09-02 11:29:34 | 48.17186 | 12.12970 | 117° | 49km/h | 13294m | 2.9m/s | -51.9°C | 4.3% | 166.2hPa | 2.7V | 00:00:00 | 01:00:05 | 00:00:00 | |
| PG1ADW-2 | 2026-09-02 11:29:33 | 48.17190 | 12.12956 | 116° | 49km/h | 13290m | 3.9m/s | -52.0°C | 4.2% | 166.3hPa | 2.7V | 00:00:00 | 00:00:00 | 00:00:00 | |
| OE5WHR-10 | 2026-09-02 11:29:32 | 48.17194 | 12.12943 | 111° | 51km/h | 13285m | 5.4m/s | -52.0°C | 4.2% | 166.4hPa | 2.7V | 00:00:00 | 00:00:00 | 00:00:00 | |
| DG1MFX-10 | 2026-09-02 11:29:31 | 48.17194 | 12.12943 | 112° | 38km/h | 13285m | 5.4m/s | -52.1°C | 1.8% | 166.4hPa | 2.7V | 00:00:00 | 00:00:00 | 00:00:00 | |
| DO3MHA-11 | 2026-09-02 11:29:28 | 48.17204 | 12.12875 | 103° | 55km/h | 13265m | 6.1m/s | -51.9°C | 4.1% | 166.9hPa | 2.7V | 00:00:00 | 00:59:59 | 00:00:00 | |
| OE5DXL-15 | 2026-09-02 11:29:25 | 48.17219 | 12.12810 | 112° | 51km/h | 13252m | 5.0m/s | -51.7°C | 4.0% | 167.2hPa | 2.7V | 00:00:00 | 00:00:00 | 00:00:00 | |
| OE5MMP-10 | 2026-09-02 11:29:24 | 48.17224 | 12.12788 | 113° | 49km/h | 13248m | 4.0m/s | -51.8°C | 4.1% | 167.4hPa | 2.7V | 00:00:00 | 00:59:55 | 00:00:00 | |
| DO3MHA-11 | 2026-09-02 11:29:18 | 48.17256 | 12.12685 | 119° | 51km/h | 13219m | 3.4m/s | -51.4°C | 4.1% | 168.2hPa | 2.7V | 00:00:00 | 00:59:49 | 00:00:00 | |
| OE5FHM-15 | 2026-09-02 11:29:16 | 48.17267 | 12.12653 | 113° | 53km/h | 13210m | 4.8m/s | -51.4°C | 4.2% | 168.3hPa | 2.7V | 00:00:00 | 00:59:47 | 00:00:00 | |
| OE5MMP-10 | 2026-09-02 11:29:14 | 48.17277 | 12.12618 | 115° | 51km/h | 13202m | 4.9m/s | -51.2°C | 4.2% | 168.6hPa | 2.7V | 00:00:00 | 00:59:45 | 00:00:00 | |
| PG1ADW-2 | 2026-09-02 11:29:13 | 48.17282 | 12.12600 | 118° | 51km/h | 13198m | 4.3m/s | -51.2°C | 4.1% | 168.7hPa | 2.7V | 00:00:00 | 00:59:44 | 00:00:00 | |
| OE5WHR-10 | 2026-09-02 11:29:11 | 48.17295 | 12.12566 | 122° | 53km/h | 13189m | 5.2m/s | -51.3°C | 4.1% | 168.9hPa | 2.7V | 00:00:00 | 00:59:42 | 00:00:00 | |
| DL6DJ-15 | 2026-09-02 11:29:10 | 48.17303 | 12.12549 | 122° | 51km/h | 13184m | 5.2m/s | -51.4°C | 1.8% | 169.1hPa | 2.7V | 00:00:00 | 00:00:00 | 00:00:00 | |
| DO3MHA-11 | 2026-09-02 11:29:08 | 48.17317 | 12.12516 | 121° | 57km/h | 13174m | 3.1m/s | -51.2°C | 4.1% | 169.3hPa | 2.7V | 00:00:00 | 00:59:39 | 00:00:00 | |
| OE5MMP-10 | 2026-09-02 11:29:04 | 48.17337 | 12.12446 | 110° | 51km/h | 13157m | 4.7m/s | -51.3°C | 4.0% | 169.7hPa | 2.7V | 00:00:00 | 00:59:35 | 00:00:00 | |
| DG1MJG | 2026-09-02 11:29:01 | 48.17347 | 12.12410 | 115° | 53km/h | 13148m | 4.1m/s | 0°C | 0% | 170.1hPa | 2.7V | 00:00:00 | 00:00:00 | 00:00:00 | |
| OE5DXL-15 | 2026-09-02 11:28:55 | 48.17397 | 12.12297 | 125° | 58km/h | 13119m | 4.1m/s | -51.3°C | 4.1% | 170.8hPa | 2.7V | 00:00:00 | 00:00:00 | 08:30:00 | |
| OE5MMP-10 | 2026-09-02 11:28:54 | 48.17405 | 12.12279 | 123° | 57km/h | 13114m | 4.2m/s | -51.3°C | 4.0% | 170.8hPa | 2.7V | 00:00:00 | 00:59:25 | 00:00:00 | |
| PG1ADW-2 | 2026-09-02 11:28:53 | 48.17412 | 12.12261 | 121° | 58km/h | 13110m | 4.4m/s | -51.3°C | 4.0% | 170.9hPa | 2.7V | 00:00:00 | 00:00:00 | 00:00:00 | |
| OE5WHR-10 | 2026-09-02 11:28:50 | 48.17434 | 12.12205 | 123° | 58km/h | 13097m | 4.5m/s | -51.3°C | 4.0% | 171.3hPa | 2.7V | 00:00:00 | 00:00:00 | 00:00:00 | |
| DG1MFX-10 | 2026-09-02 11:28:49 | 48.17434 | 12.12205 | 123° | 58km/h | 13097m | 4.6m/s | -51.4°C | 1.8% | 171.4hPa | 2.7V | 00:00:00 | 00:00:00 | 00:00:00 | |
| DO3MHA-11 | 2026-09-02 11:28:48 | 48.17451 | 12.12169 | 126° | 57km/h | 13089m | 4.3m/s | -51.3°C | 4.0% | 171.5hPa | 2.7V | 00:00:00 | 00:59:19 | 00:00:00 | |
| OE5FHM-15 | 2026-09-02 11:28:46 | 48.17468 | 12.12137 | 133° | 60km/h | 13081m | 4.5m/s | -51.2°C | 4.0% | 171.7hPa | 2.7V | 00:00:00 | 00:59:17 | 00:00:00 | |
| OE5MMP-10 | 2026-09-02 11:28:44 | 48.17487 | 12.12108 | 136° | 58km/h | 13073m | 3.9m/s | -51.3°C | 4.1% | 171.9hPa | 2.7V | 00:00:00 | 00:59:15 | 00:00:00 | |
| DL6DJ-15 | 2026-09-02 11:28:39 | 48.17536 | 12.12028 | 129° | 60km/h | 13054m | 4.1m/s | -51.4°C | 1.9% | 172.6hPa | 2.7V | 00:00:00 | 00:00:00 | 00:00:00 | |
| DO3MHA-11 | 2026-09-02 11:28:38 | 48.17545 | 12.12010 | 129° | 62km/h | 13050m | 3.9m/s | -51.4°C | 4.3% | 172.6hPa | 2.7V | 00:00:00 | 00:59:09 | 00:00:00 | |
| OE5DRO-10 | 2026-09-02 11:28:36 | 48.17564 | 12.11974 | 131° | 62km/h | 13042m | 4.0m/s | -51.5°C | 4.3% | 172.8hPa | 2.7V | 00:00:00 | 00:00:00 | 08:30:00 | |
| BAUMI2-15 | 2026-09-02 11:28:34 | 48.17585 | 12.11940 | 132° | 66km/h | 13034m | 4.2m/s | 0°C | 0% | 0hPa | 2.7V | 00:00:00 | 00:59:05 | 00:00:00 | |
| PG1ADW-2 | 2026-09-02 11:28:33 | 48.17595 | 12.11922 | 132° | 62km/h | 13030m | 3.7m/s | -51.6°C | 4.3% | 173.1hPa | 2.7V | 00:00:00 | 00:00:00 | 00:00:00 | |
| DG1MJG | 2026-09-02 11:28:31 | 48.17605 | 12.11905 | 132° | 60km/h | 13027m | 3.5m/s | 0°C | 0% | 173.2hPa | 2.7V | 00:00:00 | 00:00:00 | 00:00:00 | |
| OE5WHR-10 | 2026-09-02 11:28:29 | 48.17636 | 12.11853 | 132° | 62km/h | 13015m | 4.0m/s | -51.6°C | 4.2% | 173.5hPa | 2.7V | 00:00:00 | 00:00:00 | 00:00:00 | |
| DO3MHA-11 | 2026-09-02 11:28:28 | 48.17647 | 12.11835 | 132° | 62km/h | 13011m | 3.9m/s | -51.6°C | 4.2% | 173.6hPa | 2.7V | 00:00:00 | 00:58:59 | 08:30:00 | |
| OE5DXL-15 | 2026-09-02 11:28:25 | 48.17678 | 12.11781 | 131° | 62km/h | 12999m | 3.1m/s | -51.5°C | 4.2% | 174.0hPa | 2.7V | 00:00:00 | 00:00:00 | 00:00:00 | |
| OE5MMP-10 | 2026-09-02 11:28:24 | 48.17689 | 12.11762 | 130° | 62km/h | 12996m | 4.1m/s | -51.5°C | 4.2% | 174.1hPa | 2.7V | 00:00:00 | 00:58:55 | 00:00:00 | |
| DO3MHA-11 | 2026-09-02 11:28:18 | 48.17742 | 12.11649 | 121° | 62km/h | 12973m | 3.9m/s | -51.9°C | 4.5% | 174.7hPa | 2.7V | 00:00:00 | 00:58:49 | 00:00:00 | |
| OE5DRO-10 | 2026-09-02 11:28:17 | 48.17750 | 12.11629 | 122° | 62km/h | 12969m | 3.6m/s | -51.9°C | 4.5% | 174.8hPa | 2.7V | 00:00:00 | 00:00:00 | 00:00:00 | |
| OE5FHM-15 | 2026-09-02 11:28:16 | 48.17758 | 12.11609 | 124° | 64km/h | 12965m | 3.5m/s | -52.0°C | 4.5% | 174.9hPa | 2.7V | 00:00:00 | 00:58:47 | 08:30:00 | |
| OE5MMP-10 | 2026-09-02 11:28:14 | 48.17776 | 12.11571 | 127° | 64km/h | 12958m | 3.6m/s | -52.0°C | 4.7% | 175.1hPa | 2.7V | 00:00:00 | 00:58:45 | 00:00:00 | |
| PG1ADW-2 | 2026-09-02 11:28:13 | 48.17786 | 12.11551 | 127° | 64km/h | 12953m | 4.2m/s | -51.9°C | 4.6% | 175.1hPa | 2.7V | 00:00:00 | 00:00:00 | 00:00:00 | |
| OE5WHR-10 | 2026-09-02 11:28:08 | 48.17832 | 12.11451 | 124° | 64km/h | 12934m | 3.7m/s | -52.1°C | 4.5% | 175.7hPa | 2.7V | 00:00:00 | 00:58:39 | 00:00:00 | |
| DG1MFX-10 | 2026-09-02 11:28:07 | 48.17832 | 12.11451 | 125° | 66km/h | 12934m | 3.8m/s | -52.1°C | 2.2% | 175.7hPa | 2.7V | 00:00:00 | 00:00:00 | 00:00:00 | |
| OE5MMP-10 | 2026-09-02 11:28:04 | 48.17866 | 12.11369 | 122° | 62km/h | 12917m | 3.8m/s | -52.1°C | 4.5% | 176.1hPa | 2.7V | 00:00:00 | 00:58:35 | 00:00:00 | |
| DO3MHA-11 | 2026-09-02 11:27:58 | 48.17916 | 12.11254 | 128° | 66km/h | 12893m | 4.7m/s | -52.3°C | 4.9% | 176.8hPa | 2.7V | 00:00:00 | 00:58:29 | 00:00:00 | |
| OE5DXL-15 | 2026-09-02 11:27:55 | 48.17949 | 12.11197 | 132° | 68km/h | 12881m | 4.2m/s | -52.3°C | 4.9% | 177.1hPa | 2.7V | 00:00:00 | 00:00:00 | 00:00:00 | |
| OE5MMP-10 | 2026-09-02 11:27:54 | 48.17961 | 12.11178 | 132° | 64km/h | 12877m | 3.6m/s | -52.3°C | 4.9% | 177.2hPa | 2.7V | 00:00:00 | 00:58:25 | 00:00:00 | |
| PG1ADW-2 | 2026-09-02 11:27:53 | 48.17972 | 12.11158 | 132° | 66km/h | 12873m | 4.5m/s | -52.3°C | 4.9% | 177.3hPa | 2.7V | 00:00:00 | 00:58:24 | 00:00:00 | |
| OE3JTB-15 | 2026-09-02 11:27:51 | 48.17994 | 12.11119 | 129° | 69km/h | 12864m | 4.6m/s | -52.3°C | 4.8% | 177.6hPa | 2.7V | 00:00:00 | 00:00:00 | 08:30:00 | |
| DO3MHA-11 | 2026-09-02 11:27:48 | 48.18024 | 12.11062 | 129° | 66km/h | 12853m | 4.3m/s | -52.4°C | 4.8% | 177.9hPa | 2.7V | 00:00:00 | 00:58:19 | 00:00:00 | |
| OE5WHR-10 | 2026-09-02 11:27:47 | 48.18034 | 12.11044 | 130° | 69km/h | 12849m | 3.5m/s | -52.4°C | 4.8% | 178.0hPa | 2.7V | 00:00:00 | 00:00:00 | 08:30:00 | |
| OE5FHM-15 | 2026-09-02 11:27:46 | 48.18043 | 12.11026 | 130° | 69km/h | 12845m | 4.2m/s | -52.3°C | 4.9% | 178.2hPa | 2.7V | 00:00:00 | 00:58:17 | 00:00:00 | |
| OE5MMP-10 | 2026-09-02 11:27:44 | 48.18062 | 12.10990 | 128° | 69km/h | 12837m | 3.2m/s | -52.3°C | 5.0% | 178.4hPa | 2.7V | 00:00:00 | 00:58:15 | 00:00:00 | |
| OE5DRO-10 | 2026-09-02 11:27:39 | 48.18116 | 12.10886 | 127° | 71km/h | 12817m | 4.5m/s | -52.2°C | 5.1% | 178.9hPa | 2.7V | 00:00:00 | 00:00:00 | 00:00:00 | |
| DO3MHA-11 | 2026-09-02 11:27:38 | 48.18127 | 12.10864 | 127° | 69km/h | 12813m | 3.1m/s | -52.2°C | 5.0% | 179.0hPa | 2.7V | 00:00:00 | 00:58:09 | 00:00:00 | |
| DL6DJ-15 | 2026-09-02 11:27:37 | 48.18148 | 12.10823 | 127° | 66km/h | 12805m | 3.0m/s | -52.2°C | 2.5% | 179.3hPa | 2.7V | 00:00:00 | 00:00:00 | 00:00:00 | |
| OE5MMP-10 | 2026-09-02 11:27:34 | 48.18168 | 12.10782 | 126° | 71km/h | 12796m | 3.7m/s | -52.1°C | 4.9% | 179.5hPa | 2.7V | 00:00:00 | 00:58:05 | 00:00:00 | |
| PG1ADW-2 | 2026-09-02 11:27:33 | 48.18178 | 12.10762 | 126° | 73km/h | 12791m | 5.5m/s | -52.1°C | 5.0% | 179.6hPa | 2.7V | 00:00:00 | 00:00:00 | 00:00:00 | |
| DO3MHA-11 | 2026-09-02 11:27:28 | 48.18228 | 12.10649 | 124° | 73km/h | 12767m | 4.4m/s | -52.0°C | 5.0% | 180.3hPa | 2.7V | 00:00:00 | 00:57:59 | 00:00:00 | |
| OE5WHR-10 | 2026-09-02 11:27:26 | 48.18249 | 12.10603 | 123° | 75km/h | 12759m | 5.0m/s | -51.9°C | 5.1% | 180.5hPa | 2.7V | 00:00:00 | 00:00:00 | 00:00:00 | |
| OE5DXL-15 | 2026-09-02 11:27:25 | 48.18258 | 12.10580 | 123° | 77km/h | 12755m | 3.1m/s | -51.9°C | 5.1% | 180.6hPa | 2.7V | 00:00:00 | 00:00:00 | 00:00:00 | |
| OE5MMP-10 | 2026-09-02 11:27:24 | 48.18268 | 12.10557 | 123° | 73km/h | 12752m | 2.9m/s | -51.8°C | 5.1% | 180.7hPa | 2.7V | 00:00:00 | 00:57:55 | 00:00:00 | |
| DB0UT-7 | 2026-09-02 11:27:23 | 48.18278 | 12.10535 | 125° | 91km/h | 12748m | 4.6m/s | -51.8°C | 5.1% | 180.8hPa | 2.7V | 00:00:00 | 00:00:00 | 00:00:00 | |
| OE5DRO-10 | 2026-09-02 11:27:20 | 48.18311 | 12.10469 | 128° | 77km/h | 12736m | 2.9m/s | -51.9°C | 5.2% | 181.2hPa | 2.7V | 00:00:00 | 00:00:00 | 00:00:00 | |
| DO3MHA-11 | 2026-09-02 11:27:18 | 48.18333 | 12.10424 | 124° | 77km/h | 12728m | 3.7m/s | -52.1°C | 5.2% | 181.4hPa | 2.7V | 00:00:00 | 00:57:49 | 00:00:00 | |
| OE5FHM-15 | 2026-09-02 11:27:16 | 48.18353 | 12.10375 | 122° | 78km/h | 12719m | 4.1m/s | -52.2°C | 5.3% | 181.6hPa | 2.7V | 00:00:00 | 00:57:47 | 00:00:00 | |
| OE5MMP-10 | 2026-09-02 11:27:14 | 48.18373 | 12.10325 | 120° | 77km/h | 12710m | 4.1m/s | -52.3°C | 5.3% | 181.9hPa | 2.7V | 00:00:00 | 00:57:45 | 00:00:00 | |
| PG1ADW-2 | 2026-09-02 11:27:13 | 48.18382 | 12.10300 | 120° | 78km/h | 12706m | 3.6m/s | -52.3°C | 5.4% | 182.0hPa | 2.7V | 00:00:00 | 00:00:00 | 08:30:00 | |
| OE3JTB-15 | 2026-09-02 11:27:07 | 48.18441 | 12.10151 | 120° | 84km/h | 12683m | 4.1m/s | -52.3°C | 5.4% | 182.7hPa | 2.7V | 00:00:00 | 00:00:00 | 00:00:00 | |
| DL6DJ-15 | 2026-09-02 11:27:06 | 48.18460 | 12.10099 | 119° | 80km/h | 12674m | 3.8m/s | -52.4°C | 2.9% | 182.9hPa | 2.7V | 00:00:00 | 00:00:00 | 00:00:00 | |
| OE5WHR-10 | 2026-09-02 11:27:05 | 48.18460 | 12.10099 | 120° | 82km/h | 12675m | 3.7m/s | -52.3°C | 5.4% | 182.9hPa | 2.7V | 00:00:00 | 00:57:36 | 00:00:00 | |
| OE5MMP-10 | 2026-09-02 11:27:04 | 48.18471 | 12.10073 | 120° | 80km/h | 12671m | 4.4m/s | -52.4°C | 5.5% | 183.0hPa | 2.7V | 00:00:00 | 00:57:35 | 08:30:00 | |
| OE5DRO-10 | 2026-09-02 11:27:01 | 48.18503 | 12.09993 | 125° | 82km/h | 12658m | 3.9m/s | -52.7°C | 5.9% | 183.4hPa | 2.7V | 00:00:00 | 00:00:00 | 00:00:00 | |
| DH7VM-15 | 2026-09-02 11:26:56 | 48.18554 | 12.09898 | 133° | 75km/h | 12642m | 3.6m/s | -52.8°C | 0% | 0hPa | 2.7V | 00:00:00 | 00:00:00 | 00:00:00 | |
| DO3MHA-11 | 2026-09-02 11:26:55 | 48.18579 | 12.09856 | 133° | 82km/h | 12634m | 3.9m/s | -52.8°C | 5.8% | 184.0hPa | 2.7V | 00:00:00 | 00:57:26 | 00:00:00 | |
| OE5MMP-10 | 2026-09-02 11:26:54 | 48.18592 | 12.09836 | 131° | 84km/h | 12630m | 3.7m/s | -52.8°C | 5.8% | 184.1hPa | 2.7V | 00:00:00 | 00:57:25 | 00:00:00 | |
| PG1ADW-2 | 2026-09-02 11:26:53 | 48.18603 | 12.09814 | 129° | 86km/h | 12626m | 3.5m/s | -52.8°C | 5.8% | 184.2hPa | 2.7V | 00:00:00 | 00:00:00 | 00:00:00 | |
| DO3MHA-11 | 2026-09-02 11:26:45 | 48.18710 | 12.09613 | 133° | 86km/h | 12594m | 3.9m/s | -52.5°C | 6.2% | 185.2hPa | 2.7V | 00:00:00 | 00:57:16 | 08:30:00 | |
| OE5WHR-10 | 2026-09-02 11:26:44 | 48.18725 | 12.09589 | 133° | 88km/h | 12590m | 4.8m/s | -52.5°C | 6.3% | 185.3hPa | 2.7V | 00:00:00 | 00:00:00 | 00:00:00 | |
| OE5DRO-10 | 2026-09-02 11:26:42 | 48.18755 | 12.09541 | 135° | 89km/h | 12581m | 5.0m/s | -52.4°C | 6.2% | 185.6hPa | 2.7V | 00:00:00 | 00:00:00 | 00:00:00 | |
| DH7VM-15 | 2026-09-02 11:26:35 | 48.18840 | 12.09396 | 131° | 86km/h | 12556m | 4.8m/s | -52.7°C | 0% | 0hPa | 2.7V | 00:00:00 | 00:00:00 | 00:00:00 | |
| DO3MHA-11 | 2026-09-02 11:26:34 | 48.18869 | 12.09347 | 133° | 91km/h | 12548m | 4.3m/s | -52.7°C | 6.6% | 186.5hPa | 2.7V | 00:00:00 | 00:57:05 | 00:00:00 | |
| PG1ADW-2 | 2026-09-02 11:26:33 | 48.18884 | 12.09323 | 133° | 97km/h | 12543m | 4.1m/s | -52.8°C | 6.7% | 186.6hPa | 2.7V | 00:00:00 | 00:57:04 | 00:00:00 | |
| OE5DXL-15 | 2026-09-02 11:26:25 | 48.19013 | 12.09125 | 135° | 100km/h | 12506m | 4.9m/s | -53.3°C | 7.4% | 187.7hPa | 2.7V | 00:00:00 | 00:00:00 | 00:00:00 | |
| OE5MMP-10 | 2026-09-02 11:26:24 | 48.19030 | 12.09099 | 136° | 100km/h | 12502m | 4.1m/s | -53.4°C | 7.4% | 187.8hPa | 2.7V | 00:00:00 | 00:56:55 | 00:00:00 | |
| OE5WHR-10 | 2026-09-02 11:26:23 | 48.19047 | 12.09075 | 136° | 100km/h | 12498m | 3.7m/s | -53.4°C | 7.5% | 187.9hPa | 2.7V | 00:00:00 | 00:00:00 | 00:00:00 | |
| OE5FHM-15 | 2026-09-02 11:26:16 | 48.19169 | 12.08885 | 132° | 100km/h | 12469m | 3.4m/s | 0°C | 0% | 0hPa | 2.7V | 00:00:00 | 00:56:47 | 00:00:00 | |
| DB0UT-7 | 2026-09-02 11:26:15 | 48.19187 | 12.08855 | 132° | 102km/h | 12465m | 4.3m/s | -53.4°C | 7.9% | 189.0hPa | 2.7V | 00:00:00 | 00:56:46 | 00:00:00 | |
| OE5MMP-10 | 2026-09-02 11:26:14 | 48.19205 | 12.08825 | 132° | 100km/h | 12460m | 4.5m/s | -53.4°C | 7.9% | 189.1hPa | 2.7V | 00:00:00 | 00:56:45 | 00:00:00 | |
| PG1ADW-2 | 2026-09-02 11:26:13 | 48.19222 | 12.08796 | 132° | 100km/h | 12456m | 4.3m/s | -53.4°C | 8.0% | 189.2hPa | 2.7V | 00:00:00 | 00:00:00 | 00:00:00 | |
| DO3MHA-11 | 2026-09-02 11:26:04 | 48.19371 | 12.08540 | 130° | 102km/h | 12418m | 4.5m/s | -53.4°C | 7.9% | 190.3hPa | 2.7V | 00:00:00 | 00:56:35 | 00:00:00 | |
| DL6DJ-15 | 2026-09-02 11:26:03 | 48.19388 | 12.08509 | 128° | 104km/h | 12414m | 3.3m/s | -53.4°C | 4.9% | 190.4hPa | 2.7V | 00:00:00 | 00:00:00 | 00:00:00 | |
| OE5WHR-10 | 2026-09-02 11:26:02 | 48.19405 | 12.08478 | 128° | 97km/h | 12411m | 3.9m/s | -53.3°C | 7.8% | 190.5hPa | 2.7V | 00:00:00 | 00:56:33 | 00:00:00 | |
| OE5DRO-10 | 2026-09-02 11:25:59 | 48.19451 | 12.08382 | 126° | 93km/h | 12399m | 3.5m/s | -53.2°C | 7.8% | 190.9hPa | 2.7V | 00:00:00 | 00:00:00 | 00:00:00 | |
| DG1MFX-10 | 2026-09-02 11:25:58 | 48.19451 | 12.08382 | 126° | 102km/h | 12399m | 3.6m/s | -53.3°C | 5.0% | 191.0hPa | 2.7V | 00:00:00 | 00:00:00 | 00:00:00 | |
| OE5DXL-15 | 2026-09-02 11:25:55 | 48.19512 | 12.08263 | 128° | 91km/h | 12381m | 5.1m/s | -53.1°C | 8.0% | 191.4hPa | 2.7V | 00:00:00 | 00:00:00 | 00:00:00 | |
| DO3MHA-11 | 2026-09-02 11:25:54 | 48.19526 | 12.08235 | 128° | 95km/h | 12377m | 4.5m/s | -53.1°C | 8.1% | 191.5hPa | 2.7V | 00:00:00 | 00:56:25 | 00:00:00 | |
| PG1ADW-2 | 2026-09-02 11:25:53 | 48.19541 | 12.08206 | 128° | 93km/h | 12372m | 4.8m/s | -53.2°C | 8.2% | 191.7hPa | 2.7V | 00:00:00 | 00:00:00 | 00:00:00 | |
| OE5FHM-15 | 2026-09-02 11:25:46 | 48.19643 | 12.08007 | 127° | 88km/h | 12342m | 4.6m/s | 0°C | 0% | 0hPa | 2.7V | 00:00:00 | 00:56:17 | 00:00:00 | |
| DB0UT-7 | 2026-09-02 11:25:45 | 48.19657 | 12.07978 | 127° | 99km/h | 12337m | 4.6m/s | -53.6°C | 8.8% | 192.7hPa | 2.7V | 00:00:00 | 00:00:00 | 00:00:00 | |
| OE5MMP-10 | 2026-09-02 11:25:44 | 48.19671 | 12.07949 | 127° | 93km/h | 12333m | 4.4m/s | -53.6°C | 8.8% | 192.8hPa | 2.7V | 00:00:00 | 00:56:15 | 00:00:00 | |
| OE5WHR-10 | 2026-09-02 11:25:41 | 48.19714 | 12.07862 | 126° | 86km/h | 12320m | 3.8m/s | -53.6°C | 9.1% | 193.2hPa | 2.7V | 00:00:00 | 00:00:00 | 00:00:00 | |
| DG1MFX-10 | 2026-09-02 11:25:37 | 48.19755 | 12.07775 | 125° | 91km/h | 12306m | 3.9m/s | -53.5°C | 6.2% | 193.7hPa | 2.7V | 00:00:00 | 00:00:00 | 00:00:00 | |
| DO3MHA-11 | 2026-09-02 11:25:34 | 48.19804 | 12.07665 | 124° | 86km/h | 12287m | 4.4m/s | -53.6°C | 9.5% | 194.2hPa | 2.7V | 00:00:00 | 00:56:05 | 00:00:00 | |
| DL6DJ-15 | 2026-09-02 11:25:32 | 48.19828 | 12.07611 | 123° | 86km/h | 12277m | 3.1m/s | -53.9°C | 6.6% | 194.5hPa | 2.7V | 00:00:00 | 00:00:00 | 00:00:00 | |
| DO3MHA-11 | 2026-09-02 11:25:24 | 48.19921 | 12.07395 | 121° | 82km/h | 12241m | 4.6m/s | -53.9°C | 10.6% | 195.6hPa | 2.7V | 00:00:00 | 00:55:55 | 00:00:00 | |
| OE5WHR-10 | 2026-09-02 11:25:20 | 48.19960 | 12.07287 | 119° | 88km/h | 12222m | 3.6m/s | -53.7°C | 10.8% | 196.2hPa | 2.7V | 00:00:00 | 00:00:00 | 00:00:00 | |
| DG1MFX-10 | 2026-09-02 11:25:16 | 48.19990 | 12.07204 | 118° | 86km/h | 12209m | 4.3m/s | -53.7°C | 7.5% | 196.6hPa | 2.7V | 00:00:00 | 00:00:00 | 00:00:00 | |
| OE5FHM-15 | 2026-09-02 11:25:14 | 48.20018 | 12.07118 | 117° | 91km/h | 12195m | 4.7m/s | 0°C | 0% | 0hPa | 2.7V | 00:00:00 | 00:55:45 | 00:00:00 | |
| PG1ADW-2 | 2026-09-02 11:25:13 | 48.20027 | 12.07090 | 117° | 91km/h | 12190m | 5.0m/s | -54.0°C | 11.3% | 197.1hPa | 2.7V | 00:00:00 | 00:55:44 | 00:00:00 | |
| OE5MMP-10 | 2026-09-02 11:25:04 | 48.20123 | 12.06823 | 122° | 93km/h | 12150m | 4.3m/s | -53.7°C | 11.5% | 198.4hPa | 2.7V | 00:00:00 | 00:55:35 | 00:00:00 | |
| DL6DJ-15 | 2026-09-02 11:25:01 | 48.20157 | 12.06736 | 120° | 91km/h | 12136m | 5.2m/s | -53.7°C | 8.5% | 198.8hPa | 2.7V | 00:00:00 | 00:00:00 | 00:00:00 | |
| OE5WHR-10 | 2026-09-02 11:24:59 | 48.20181 | 12.06674 | 118° | 91km/h | 12128m | 4.6m/s | -53.6°C | 12.1% | 199.0hPa | 2.7V | 00:00:00 | 00:55:30 | 00:00:00 | |
| DG1MFX-10 | 2026-09-02 11:24:56 | 48.20203 | 12.06610 | 117° | 95km/h | 12120m | 3.6m/s | -53.7°C | 8.8% | 199.3hPa | 2.7V | 00:00:00 | 00:00:00 | 00:00:00 | |
| OE5DXL-15 | 2026-09-02 11:24:55 | 48.20224 | 12.06545 | 117° | 93km/h | 12112m | 4.1m/s | -53.8°C | 12.6% | 199.6hPa | 2.7V | 00:00:00 | 00:00:00 | 00:00:00 | |
| DO3MHA-11 | 2026-09-02 11:24:54 | 48.20234 | 12.06514 | 117° | 89km/h | 12107m | 4.9m/s | -53.9°C | 12.7% | 199.8hPa | 2.7V | 00:00:00 | 00:55:25 | 00:00:00 | |
| PG1ADW-2 | 2026-09-02 11:24:53 | 48.20245 | 12.06483 | 117° | 91km/h | 12103m | 3.6m/s | -53.9°C | 12.8% | 199.9hPa | 2.7V | 00:00:00 | 00:00:00 | 00:00:00 | |
| DO3MHA-11 | 2026-09-02 11:24:44 | 48.20345 | 12.06219 | 121° | 95km/h | 12067m | 3.8m/s | -53.7°C | 13.2% | 201.0hPa | 2.7V | 00:00:00 | 00:55:15 | 00:00:00 | |
| OE5DRO-10 | 2026-09-02 11:24:43 | 48.20357 | 12.06189 | 121° | 95km/h | 12063m | 4.3m/s | -53.7°C | 13.1% | 201.1hPa | 2.7V | 00:00:00 | 00:00:00 | 00:00:00 | |
| OE5WHR-10 | 2026-09-02 11:24:38 | 48.20412 | 12.06031 | 114° | 97km/h | 12044m | 4.0m/s | -53.6°C | 12.7% | 201.7hPa | 2.7V | 00:00:00 | 00:00:00 | 08:30:00 | |
| DG1MFX-10 | 2026-09-02 11:24:35 | 48.20430 | 12.05964 | 113° | 95km/h | 12036m | 3.6m/s | -53.7°C | 9.2% | 202.0hPa | 2.7V | 00:00:00 | 00:00:00 | 00:00:00 | |
| DO3MHA-11 | 2026-09-02 11:24:34 | 48.20448 | 12.05898 | 114° | 95km/h | 12029m | 3.7m/s | -53.5°C | 12.6% | 202.2hPa | 2.7V | 00:00:00 | 00:55:05 | 00:00:00 | |
| PG1ADW-2 | 2026-09-02 11:24:33 | 48.20458 | 12.05866 | 115° | 97km/h | 12025m | 4.3m/s | -53.5°C | 12.6% | 202.3hPa | 2.7V | 00:00:00 | 00:00:00 | 00:00:00 | |
| DL6DJ-15 | 2026-09-02 11:24:30 | 48.20488 | 12.05771 | 116° | 89km/h | 12012m | 3.8m/s | -53.6°C | 9.6% | 202.7hPa | 2.7V | 00:00:00 | 00:00:00 | 00:00:00 | |
| OE5DXL-15 | 2026-09-02 11:24:25 | 48.20545 | 12.05610 | 119° | 102km/h | 11993m | 3.8m/s | -53.4°C | 13.5% | 203.3hPa | 2.7V | 00:00:00 | 00:00:00 | 08:30:00 | |
| OE5MMP-10 | 2026-09-02 11:24:24 | 48.20557 | 12.05577 | 119° | 97km/h | 11989m | 4.1m/s | -53.4°C | 13.4% | 203.5hPa | 2.7V | 00:00:00 | 00:54:55 | 00:00:00 | |
| OE5DRO-10 | 2026-09-02 11:24:23 | 48.20569 | 12.05543 | 119° | 102km/h | 11985m | 4.1m/s | -53.4°C | 13.5% | 203.6hPa | 2.7V | 00:00:00 | 00:00:00 | 00:00:00 | |
| OE5WHR-10 | 2026-09-02 11:24:17 | 48.20636 | 12.05348 | 117° | 102km/h | 11960m | 4.0m/s | -53.4°C | 13.8% | 204.4hPa | 2.7V | 00:00:00 | 00:00:00 | 00:00:00 | |
| DG1MFX-10 | 2026-09-02 11:24:15 | 48.20647 | 12.05315 | 118° | 97km/h | 11957m | 3.5m/s | -53.5°C | 10.4% | 204.5hPa | 2.7V | 00:00:00 | 00:00:00 | 00:00:00 | |
| DO3MHA-11 | 2026-09-02 11:24:14 | 48.20669 | 12.05250 | 119° | 104km/h | 11949m | 3.5m/s | -53.4°C | 14.5% | 204.7hPa | 2.7V | 00:00:00 | 00:54:45 | 00:00:00 | |
| PG1ADW-2 | 2026-09-02 11:24:13 | 48.20682 | 12.05217 | 119° | 102km/h | 11945m | 4.3m/s | -53.4°C | 14.7% | 204.8hPa | 2.7V | 00:00:00 | 00:00:00 | 08:30:00 | |
| DO3MHA-11 | 2026-09-02 11:24:04 | 48.20800 | 12.04909 | 119° | 102km/h | 11909m | 3.6m/s | -53.7°C | 16.1% | 206.0hPa | 2.7V | 00:00:00 | 00:54:35 | 00:00:00 | |
| OE5DRO-10 | 2026-09-02 11:24:03 | 48.20813 | 12.04873 | 118° | 99km/h | 11905m | 4.2m/s | -53.8°C | 16.4% | 206.2hPa | 2.7V | 00:00:00 | 00:00:00 | 00:00:00 | |
| DB0UT-7 | 2026-09-02 11:24:02 | 48.20825 | 12.04837 | 116° | 91km/h | 11901m | 3.4m/s | -53.8°C | 16.6% | 206.3hPa | 2.7V | 00:00:00 | 00:54:33 | 08:30:00 | |
| OE3JTB-15 | 2026-09-02 11:23:59 | 48.20860 | 12.04730 | 117° | 89km/h | 11890m | 3.3m/s | -54.0°C | 17.3% | 206.6hPa | 2.7V | 00:00:00 | 00:00:00 | 00:00:00 | |
| OE5WHR-10 | 2026-09-02 11:23:56 | 48.20895 | 12.04628 | 118° | 95km/h | 11877m | 4.3m/s | -54.0°C | 17.7% | 207.0hPa | 2.7V | 00:00:00 | 00:54:27 | 00:00:00 | |
| OE5DXL-15 | 2026-09-02 11:23:55 | 48.20906 | 12.04596 | 120° | 91km/h | 11873m | 3.8m/s | -54.0°C | 17.7% | 207.2hPa | 2.7V | 00:00:00 | 00:00:00 | 00:00:00 | |
| DO3MHA-11 | 2026-09-02 11:23:54 | 48.20919 | 12.04565 | 121° | 95km/h | 11870m | 3.5m/s | -54.0°C | 17.8% | 207.3hPa | 2.7V | 00:00:00 | 00:54:25 | 00:00:00 | |
| PG1ADW-2 | 2026-09-02 11:23:53 | 48.20931 | 12.04534 | 122° | 95km/h | 11866m | 4.4m/s | -54.0°C | 18.0% | 207.4hPa | 2.7V | 00:00:00 | 00:54:24 | 00:00:00 | |
| OE5MMP-10 | 2026-09-02 11:23:44 | 48.21029 | 12.04244 | 116° | 93km/h | 11830m | 4.1m/s | -54.2°C | 19.7% | 208.6hPa | 2.7V | 00:00:00 | 00:54:15 | 00:00:00 | |
| OE5WHR-10 | 2026-09-02 11:23:35 | 48.21111 | 12.03954 | 109° | 86km/h | 11793m | 3.2m/s | -54.7°C | 21.0% | 209.8hPa | 2.7V | 00:00:00 | 00:00:00 | 00:00:00 | |
| DO3MHA-11 | 2026-09-02 11:23:34 | 48.21119 | 12.03920 | 110° | 86km/h | 11790m | 3.3m/s | -54.8°C | 20.9% | 209.9hPa | 2.7V | 00:00:00 | 00:54:05 | 00:00:00 | |
| PG1ADW-2 | 2026-09-02 11:23:33 | 48.21127 | 12.03886 | 111° | 86km/h | 11786m | 5.6m/s | -55.0°C | 21.3% | 210.0hPa | 2.7V | 00:00:00 | 00:00:00 | 00:00:00 | |
| DL6DJ-15 | 2026-09-02 11:23:28 | 48.21169 | 12.03733 | 112° | 80km/h | 11763m | 4.7m/s | -55.3°C | 17.8% | 210.8hPa | 2.7V | 00:00:00 | 00:00:00 | 00:00:00 | |
| OE5FHM-15 | 2026-09-02 11:23:27 | 48.21177 | 12.03705 | 113° | 88km/h | 11759m | 4.2m/s | 0°C | 0% | 0hPa | 2.7V | 00:00:00 | 00:53:58 | 00:00:00 | |
| OE5DXL-15 | 2026-09-02 11:23:25 | 48.21192 | 12.03647 | 113° | 84km/h | 11752m | 3.7m/s | -55.4°C | 22.7% | 211.2hPa | 2.7V | 00:00:00 | 00:00:00 | 00:00:00 | |
| DO3MHA-11 | 2026-09-02 11:23:24 | 48.21201 | 12.03618 | 114° | 86km/h | 11748m | 3.9m/s | -55.3°C | 23.0% | 211.3hPa | 2.7V | 00:00:00 | 00:53:55 | 00:00:00 | |
| OE5WHR-10 | 2026-09-02 11:23:14 | 48.21275 | 12.03317 | 109° | 84km/h | 11709m | 4.1m/s | -55.6°C | 27.0% | 212.6hPa | 2.7V | 00:00:00 | 00:00:00 | 00:00:00 | |
| PG1ADW-2 | 2026-09-02 11:23:13 | 48.21282 | 12.03288 | 109° | 84km/h | 11704m | 5.0m/s | -55.5°C | 27.2% | 212.8hPa | 2.7V | 00:00:00 | 00:00:00 | 00:00:00 | |
| OE5DRO-10 | 2026-09-02 11:23:05 | 48.21340 | 12.03052 | 107° | 86km/h | 11671m | 4.4m/s | -55.3°C | 27.8% | 213.8hPa | 2.7V | 00:00:00 | 00:00:00 | 00:00:00 | |
| OE5MMP-10 | 2026-09-02 11:23:04 | 48.21347 | 12.03019 | 108° | 84km/h | 11667m | 3.2m/s | -55.3°C | 27.4% | 214.0hPa | 2.7V | 00:00:00 | 00:53:35 | 00:00:00 | |
| DL6DJ-15 | 2026-09-02 11:22:57 | 48.21394 | 12.02809 | 105° | 78km/h | 11638m | 4.3m/s | -55.2°C | 24.1% | 215.0hPa | 2.7V | 00:00:00 | 00:00:00 | 00:00:00 | |
| OE5DXL-15 | 2026-09-02 11:22:55 | 48.21405 | 12.02749 | 106° | 84km/h | 11631m | 3.8m/s | -55.2°C | 29.9% | 215.2hPa | 2.7V | 00:00:00 | 00:00:00 | 00:00:00 | |
| DO3MHA-11 | 2026-09-02 11:22:54 | 48.21411 | 12.02718 | 106° | 86km/h | 11627m | 4.9m/s | -55.3°C | 30.1% | 215.3hPa | 2.7V | 00:00:00 | 00:53:25 | 00:00:00 | |
| OE5WHR-10 | 2026-09-02 11:22:53 | 48.21417 | 12.02688 | 108° | 86km/h | 11622m | 3.4m/s | -55.3°C | 30.4% | 215.4hPa | 2.7V | 00:00:00 | 00:53:24 | 00:00:00 | |
| DG1MFX-10 | 2026-09-02 11:22:52 | 48.21417 | 12.02688 | 108° | 86km/h | 11622m | 3.4m/s | -55.3°C | 25.1% | 215.5hPa | 2.7V | 00:00:00 | 00:00:00 | 00:00:00 | |
| OE5DRO-10 | 2026-09-02 11:22:46 | 48.21460 | 12.02466 | 105° | 84km/h | 11595m | 4.0m/s | -55.4°C | 31.6% | 216.4hPa | 2.7V | 00:00:00 | 00:00:00 | 00:00:00 | |
| DO3MHA-11 | 2026-09-02 11:22:44 | 48.21470 | 12.02406 | 106° | 86km/h | 11587m | 4.9m/s | -55.5°C | 32.0% | 216.7hPa | 2.7V | 00:00:00 | 00:53:15 | 00:00:00 | |
| DB0UT-7 | 2026-09-02 11:22:38 | 48.21503 | 12.02220 | 103° | 80km/h | 11563m | 3.2m/s | -55.3°C | 32.1% | 217.5hPa | 2.7V | 00:00:00 | 00:00:00 | 00:00:00 | |
| DO3MHA-11 | 2026-09-02 11:22:34 | 48.21519 | 12.02090 | 102° | 82km/h | 11548m | 4.2m/s | -55.3°C | 32.4% | 218.0hPa | 2.7V | 00:00:00 | 00:53:05 | 00:00:00 | |
| PG1ADW-2 | 2026-09-02 11:22:33 | 48.21524 | 12.02058 | 103° | 80km/h | 11544m | 3.6m/s | -55.3°C | 33.0% | 218.1hPa | 2.7V | 00:00:00 | 00:53:04 | 00:00:00 | |
| OE5WHR-10 | 2026-09-02 11:22:32 | 48.21528 | 12.02028 | 103° | 80km/h | 11540m | 3.8m/s | -55.3°C | 33.6% | 218.3hPa | 2.7V | 00:00:00 | 00:00:00 | 00:00:00 | |
| OE5DRO-10 | 2026-09-02 11:22:27 | 48.21553 | 12.01880 | 104° | 80km/h | 11520m | 3.7m/s | -55.5°C | 36.1% | 219.0hPa | 2.7V | 00:00:00 | 00:00:00 | 00:00:00 | |
| DL6DJ-15 | 2026-09-02 11:22:26 | 48.21557 | 12.01850 | 103° | 82km/h | 11516m | 3.9m/s | -55.7°C | 30.6% | 219.1hPa | 2.7V | 00:00:00 | 00:00:00 | 00:00:00 | |
| OE5DXL-15 | 2026-09-02 11:22:25 | 48.21562 | 12.01820 | 105° | 80km/h | 11512m | 4.5m/s | -55.6°C | 37.3% | 219.3hPa | 2.7V | 00:00:00 | 00:00:00 | 00:00:00 | |
| OE5MMP-10 | 2026-09-02 11:22:24 | 48.21568 | 12.01788 | 104° | 78km/h | 11508m | 3.4m/s | -55.6°C | 37.5% | 219.4hPa | 2.7V | 00:00:00 | 00:52:55 | 00:00:00 | |
| OE3JTB-15 | 2026-09-02 11:22:15 | 48.21607 | 12.01526 | 106° | 80km/h | 11474m | 4.7m/s | -56.0°C | 38.2% | 220.6hPa | 2.7V | 00:00:00 | 00:00:00 | 00:00:00 | |
| DO3MHA-11 | 2026-09-02 11:22:14 | 48.21612 | 12.01497 | 105° | 82km/h | 11470m | 3.2m/s | -56.1°C | 38.8% | 220.7hPa | 2.7V | 00:00:00 | 00:52:45 | 08:30:00 | |
| PG1ADW-2 | 2026-09-02 11:22:13 | 48.21617 | 12.01468 | 102° | 82km/h | 11466m | 4.1m/s | -56.0°C | 38.8% | 220.8hPa | 2.7V | 00:00:00 | 00:00:00 | 00:00:00 | |
| OE5WHR-10 | 2026-09-02 11:22:11 | 48.21623 | 12.01408 | 97° | 82km/h | 11458m | 3.1m/s | -55.9°C | 38.7% | 221.1hPa | 2.7V | 00:00:00 | 00:00:00 | 00:00:00 | |
| OE5DRO-10 | 2026-09-02 11:22:08 | 48.21631 | 12.01314 | 98° | 82km/h | 11447m | 3.5m/s | -55.9°C | 39.0% | 221.5hPa | 2.7V | 00:00:00 | 00:00:00 | 08:30:00 | |
| OE5MMP-10 | 2026-09-02 11:22:04 | 48.21643 | 12.01190 | 101° | 80km/h | 11432m | 3.4m/s | -55.9°C | 39.5% | 222.0hPa | 2.7V | 00:00:00 | 00:52:35 | 00:00:00 | |
| OE5DXL-15 | 2026-09-02 11:21:55 | 48.21673 | 12.00918 | 100° | 82km/h | 11400m | 3.7m/s | -55.8°C | 40.6% | 223.2hPa | 2.7V | 00:00:00 | 00:00:00 | 00:00:00 | |
| OE5MMP-10 | 2026-09-02 11:21:54 | 48.21676 | 12.00888 | 100° | 80km/h | 11396m | 3.2m/s | -55.8°C | 40.3% | 223.3hPa | 2.7V | 00:00:00 | 00:52:25 | 00:00:00 | |
| PG1ADW-2 | 2026-09-02 11:21:53 | 48.21680 | 12.00857 | 100° | 80km/h | 11392m | 4.3m/s | -55.8°C | 40.1% | 223.5hPa | 2.7V | 00:00:00 | 00:00:00 | 00:00:00 | |
| OE5WHR-10 | 2026-09-02 11:21:50 | 48.21689 | 12.00767 | 99° | 80km/h | 11381m | 3.0m/s | -55.7°C | 39.6% | 223.9hPa | 2.7V | 00:00:00 | 00:52:21 | 00:00:00 | |
| OE5DRO-10 | 2026-09-02 11:21:49 | 48.21692 | 12.00738 | 100° | 80km/h | 11377m | 5.1m/s | -55.7°C | 39.2% | 224.0hPa | 2.7V | 00:00:00 | 00:00:00 | 00:00:00 | |
| OE5MMP-10 | 2026-09-02 11:21:44 | 48.21708 | 12.00589 | 100° | 82km/h | 11357m | 3.6m/s | -55.5°C | 40.5% | 224.7hPa | 2.7V | 00:00:00 | 00:52:15 | 00:00:00 | |
| OE3JTB-15 | 2026-09-02 11:21:43 | 48.21712 | 12.00558 | 100° | 84km/h | 11353m | 3.4m/s | -55.5°C | 41.2% | 224.8hPa | 2.7V | 00:00:00 | 00:00:00 | 00:00:00 | |
| DO3MHA-11 | 2026-09-02 11:21:34 | 48.21746 | 12.00281 | 103° | 80km/h | 11320m | 3.1m/s | -55.7°C | 43.6% | 226.0hPa | 2.7V | 00:00:00 | 00:52:05 | 00:00:00 | |
| PG1ADW-2 | 2026-09-02 11:21:33 | 48.21750 | 12.00252 | 102° | 84km/h | 11317m | 4.2m/s | -55.7°C | 43.7% | 226.1hPa | 2.7V | 00:00:00 | 00:00:00 | 00:00:00 | |
| OE5DRO-10 | 2026-09-02 11:21:30 | 48.21761 | 12.00162 | 100° | 84km/h | 11305m | 4.4m/s | -55.6°C | 43.0% | 226.6hPa | 2.7V | 00:00:00 | 00:00:00 | 00:00:00 | |
| OE5WHR-10 | 2026-09-02 11:21:29 | 48.21765 | 12.00130 | 100° | 84km/h | 11302m | 3.4m/s | -55.6°C | 43.4% | 226.7hPa | 2.7V | 00:00:00 | 00:00:00 | 08:30:00 | |
| OE5DXL-15 | 2026-09-02 11:21:25 | 48.21779 | 12.00005 | 101° | 82km/h | 11286m | 4.2m/s | -55.6°C | 43.7% | 227.2hPa | 2.7V | 00:00:00 | 00:00:00 | 00:00:00 | |
| DO3MHA-11 | 2026-09-02 11:21:24 | 48.21783 | 11.99973 | 101° | 86km/h | 11282m | 3.8m/s | -55.6°C | 44.2% | 227.4hPa | 2.7V | 00:00:00 | 00:51:55 | 00:00:00 | |
| DO3MHA-11 | 2026-09-02 11:21:14 | 48.21822 | 11.99654 | 101° | 80km/h | 11242m | 3.2m/s | -55.6°C | 46.0% | 228.8hPa | 2.7V | 00:00:00 | 00:51:45 | 00:00:00 | |
| PG1ADW-2 | 2026-09-02 11:21:13 | 48.21826 | 11.99624 | 102° | 80km/h | 11238m | 4.9m/s | -55.7°C | 46.0% | 228.9hPa | 2.7V | 00:00:00 | 00:51:44 | 08:30:00 | |
| OE5DRO-10 | 2026-09-02 11:21:11 | 48.21833 | 11.99564 | 100° | 80km/h | 11230m | 4.5m/s | -55.9°C | 46.5% | 229.2hPa | 2.7V | 00:00:00 | 00:00:00 | 00:00:00 | |
| DG1MFX-10 | 2026-09-02 11:21:09 | 48.21836 | 11.99533 | 98° | 82km/h | 11226m | 3.8m/s | -55.9°C | 40.6% | 229.4hPa | 2.7V | 00:00:00 | 00:00:00 | 00:00:00 | |
| OE5WHR-10 | 2026-09-02 11:21:08 | 48.21840 | 11.99473 | 96° | 80km/h | 11218m | 5.0m/s | -56.0°C | 48.3% | 229.6hPa | 2.7V | 00:00:00 | 00:00:00 | 00:00:00 | |
| DO3MHA-11 | 2026-09-02 11:21:04 | 48.21849 | 11.99353 | 97° | 78km/h | 11204m | 3.2m/s | -56.0°C | 48.9% | 230.2hPa | 2.7V | 00:00:00 | 00:51:35 | 00:00:00 | |
| DL6DJ-15 | 2026-09-02 11:20:53 | 48.21888 | 11.98994 | 95° | 88km/h | 11156m | 3.4m/s | -55.8°C | 41.3% | 231.9hPa | 2.7V | 00:00:00 | 00:00:00 | 00:00:00 | |
| OE5DRO-10 | 2026-09-02 11:20:52 | 48.21888 | 11.98994 | 96° | 80km/h | 11156m | 3.3m/s | -55.7°C | 47.9% | 231.8hPa | 2.7V | 00:00:00 | 00:00:00 | 00:00:00 | |
| DG1MFX-10 | 2026-09-02 11:20:49 | 48.21893 | 11.98929 | 100° | 84km/h | 11148m | 3.8m/s | -55.7°C | 41.7% | 232.2hPa | 2.7V | 00:00:00 | 00:00:00 | 00:00:00 | |
| OE5WHR-10 | 2026-09-02 11:20:47 | 48.21903 | 11.98839 | 98° | 78km/h | 11136m | 3.4m/s | -55.7°C | 48.1% | 232.6hPa | 2.7V | 00:00:00 | 00:51:18 | 00:00:00 | |
| OE3JTB-15 | 2026-09-02 11:20:45 | 48.21907 | 11.98782 | 93° | 80km/h | 11127m | 3.9m/s | -55.6°C | 48.6% | 232.9hPa | 2.7V | 00:00:00 | 00:00:00 | 08:30:00 | |
| DO3MHA-11 | 2026-09-02 11:20:44 | 48.21908 | 11.98753 | 93° | 80km/h | 11124m | 3.9m/s | -55.6°C | 48.9% | 233.0hPa | 2.7V | 00:00:00 | 00:51:15 | 08:30:00 | |
| OE5MMP-10 | 2026-09-02 11:20:34 | 48.21942 | 11.98453 | 103° | 78km/h | 11085m | 3.8m/s | -55.4°C | 47.5% | 234.5hPa | 2.7V | 00:00:00 | 00:51:05 | 00:00:00 | |
| OE5DRO-10 | 2026-09-02 11:20:33 | 48.21946 | 11.98423 | 101° | 80km/h | 11080m | 5.1m/s | -55.3°C | 47.6% | 234.6hPa | 2.7V | 00:00:00 | 00:00:00 | 00:00:00 | |
| DB0UT-7 | 2026-09-02 11:20:31 | 48.21953 | 11.98363 | 99° | 88km/h | 11071m | 5.4m/s | -55.3°C | 47.5% | 235.0hPa | 2.7V | 00:00:00 | 00:51:02 | 00:00:00 | |
| DG1MFX-10 | 2026-09-02 11:20:29 | 48.21955 | 11.98333 | 97° | 78km/h | 11066m | 4.4m/s | 0°C | 0% | 235.2hPa | 2.7V | 00:00:00 | 00:00:00 | 00:00:00 | |
| OE5WHR-10 | 2026-09-02 11:20:26 | 48.21959 | 11.98218 | 91° | 80km/h | 11048m | 2.3m/s | -55.0°C | 46.4% | 235.9hPa | 2.7V | 00:00:00 | 00:00:00 | 00:00:00 | |
| OE5DXL-15 | 2026-09-02 11:20:25 | 48.21959 | 11.98189 | 90° | 80km/h | 11044m | 5.5m/s | -55.1°C | 46.6% | 236.0hPa | 2.7V | 00:00:00 | 00:00:00 | 00:00:00 | |
| OE5MMP-10 | 2026-09-02 11:20:24 | 48.21959 | 11.98161 | 91° | 82km/h | 11040m | 3.6m/s | -55.0°C | 47.2% | 236.2hPa | 2.7V | 00:00:00 | 00:50:55 | 00:00:00 | |
| DL6DJ-15 | 2026-09-02 11:20:22 | 48.21961 | 11.98072 | 94° | 82km/h | 11028m | 4.3m/s | -55.0°C | 40.2% | 236.7hPa | 2.7V | 00:00:00 | 00:00:00 | 00:00:00 | |
| OE3JTB-15 | 2026-09-02 11:20:16 | 48.21974 | 11.97913 | 100° | 80km/h | 11004m | 3.4m/s | -54.7°C | 45.9% | 237.5hPa | 2.7V | 00:00:00 | 00:00:00 | 00:00:00 | |
| OE5MMP-10 | 2026-09-02 11:20:14 | 48.21982 | 11.97855 | 103° | 82km/h | 10994m | 4.9m/s | -54.6°C | 45.6% | 237.8hPa | 2.7V | 00:00:00 | 00:50:45 | 00:00:00 | |
| PG1ADW-2 | 2026-09-02 11:20:13 | 48.21986 | 11.97827 | 103° | 80km/h | 10989m | 4.5m/s | -54.6°C | 45.6% | 238.0hPa | 2.7V | 00:00:00 | 00:00:00 | 00:00:00 | |
| DG1MFX-10 | 2026-09-02 11:20:08 | 48.22003 | 11.97710 | 100° | 82km/h | 10969m | 5.9m/s | 0°C | 0% | 0hPa | 2.7V | 00:00:00 | 00:00:00 | 00:00:00 | |
| OE5WHR-10 | 2026-09-02 11:20:05 | 48.22010 | 11.97578 | 95° | 80km/h | 10950m | 5.8m/s | -54.2°C | 47.5% | 239.5hPa | 2.7V | 00:00:00 | 00:00:00 | 00:00:00 | |
| DO3MHA-11 | 2026-09-02 11:20:04 | 48.22013 | 11.97543 | 98° | 78km/h | 10946m | 2.5m/s | -54.2°C | 48.9% | 239.6hPa | 2.7V | 00:00:00 | 00:50:35 | 00:00:00 | |
| DL6DJ-15 | 2026-09-02 11:19:50 | 48.22044 | 11.97130 | 97° | 84km/h | 10870m | 4.4m/s | -53.9°C | 43.7% | 242.6hPa | 2.7V | 00:00:00 | 00:00:00 | 00:00:00 | |
| OE3JTB-15 | 2026-09-02 11:19:46 | 48.22056 | 11.97002 | 97° | 88km/h | 10850m | 3.1m/s | -53.7°C | 51.2% | 243.3hPa | 2.7V | 00:00:00 | 00:50:17 | 00:00:00 | |
| OE5WHR-10 | 2026-09-02 11:19:44 | 48.22061 | 11.96939 | 97° | 86km/h | 10841m | 4.7m/s | -53.6°C | 51.0% | 243.6hPa | 2.7V | 00:00:00 | 00:50:15 | 00:00:00 | |
| OE5DRO-10 | 2026-09-02 11:19:36 | 48.22078 | 11.96684 | 98° | 88km/h | 10805m | 3.5m/s | -53.4°C | 52.7% | 245.0hPa | 2.7V | 00:00:00 | 00:00:00 | 00:00:00 | |
| DO3MHA-11 | 2026-09-02 11:19:34 | 48.22083 | 11.96619 | 95° | 88km/h | 10795m | 4.3m/s | -53.2°C | 53.7% | 245.4hPa | 2.7V | 00:00:00 | 00:50:05 | 00:00:00 | |
| PG1ADW-2 | 2026-09-02 11:19:33 | 48.22085 | 11.96585 | 94° | 89km/h | 10791m | 3.7m/s | -53.2°C | 53.5% | 245.5hPa | 2.7V | 00:00:00 | 00:00:00 | 00:00:00 | |
| OE5DXL-15 | 2026-09-02 11:19:25 | 48.22103 | 11.96322 | 97° | 93km/h | 10755m | 4.9m/s | -53.0°C | 58.4% | 246.9hPa | 2.7V | 00:00:00 | 00:00:00 | 00:00:00 | |
| DO3MHA-11 | 2026-09-02 11:19:24 | 48.22105 | 11.96287 | 96° | 89km/h | 10751m | 4.0m/s | -52.9°C | 58.9% | 247.0hPa | 2.7V | 00:00:00 | 00:49:55 | 00:00:00 | |
| OE5WHR-10 | 2026-09-02 11:19:23 | 48.22108 | 11.96252 | 95° | 91km/h | 10747m | 4.8m/s | -52.9°C | 59.3% | 247.2hPa | 2.7V | 00:00:00 | 00:00:00 | 00:00:00 | |
| DH7VM-15 | 2026-09-02 11:19:22 | 48.22108 | 11.96252 | 96° | 93km/h | 10747m | 4.8m/s | -52.9°C | 0% | 0hPa | 2.7V | 00:00:00 | 00:00:00 | 00:00:00 | |
| DL6DJ-15 | 2026-09-02 11:19:19 | 48.22115 | 11.96119 | 95° | 86km/h | 10729m | 4.0m/s | -52.9°C | 55.0% | 247.9hPa | 2.7V | 00:00:00 | 00:00:00 | 00:00:00 | |
| OE5DRO-10 | 2026-09-02 11:19:17 | 48.22120 | 11.96053 | 97° | 93km/h | 10719m | 5.9m/s | -52.8°C | 64.6% | 248.2hPa | 2.7V | 00:00:00 | 00:00:00 | 08:30:00 | |
| DO3MHA-11 | 2026-09-02 11:19:14 | 48.22128 | 11.95948 | 98° | 93km/h | 10704m | 4.9m/s | -52.8°C | 67.2% | 248.8hPa | 2.7V | 00:00:00 | 00:49:45 | 08:30:00 | |
| PG1ADW-2 | 2026-09-02 11:19:13 | 48.22131 | 11.95911 | 98° | 95km/h | 10700m | 3.5m/s | -52.8°C | 67.3% | 249.0hPa | 2.7V | 00:00:00 | 00:00:00 | 00:00:00 | |
| OE5MMP-10 | 2026-09-02 11:19:04 | 48.22147 | 11.95600 | 92° | 97km/h | 10659m | 4.9m/s | -52.4°C | 66.4% | 250.6hPa | 2.7V | 00:00:00 | 00:49:35 | 00:00:00 | |
| DL6DJ-15 | 2026-09-02 11:18:48 | 48.22168 | 11.95021 | 88° | 91km/h | 10585m | 5.2m/s | -51.8°C | 56.5% | 253.5hPa | 2.7V | 00:00:00 | 00:00:00 | 00:00:00 | |
| OE5MMP-10 | 2026-09-02 11:18:44 | 48.22167 | 11.94876 | 92° | 93km/h | 10566m | 4.6m/s | -51.6°C | 63.4% | 254.2hPa | 2.7V | 00:00:00 | 00:49:15 | 00:00:00 | |
| DO3MHA-11 | 2026-09-02 11:18:41 | 48.22172 | 11.94765 | 96° | 97km/h | 10552m | 3.1m/s | -51.5°C | 64.5% | 254.8hPa | 2.7V | 00:00:00 | 00:49:12 | 00:00:00 | |
| OE5DRO-10 | 2026-09-02 11:18:39 | 48.22176 | 11.94693 | 95° | 91km/h | 10543m | 4.0m/s | -51.5°C | 63.8% | 255.1hPa | 2.7V | 00:00:00 | 00:00:00 | 00:00:00 | |
| OE5MMP-10 | 2026-09-02 11:18:34 | 48.22178 | 11.94527 | 90° | 95km/h | 10521m | 3.6m/s | -51.4°C | 62.1% | 256.0hPa | 2.7V | 00:00:00 | 00:49:05 | 00:00:00 | |
| PG1ADW-2 | 2026-09-02 11:18:33 | 48.22178 | 11.94495 | 89° | 95km/h | 10517m | 4.8m/s | -51.4°C | 62.0% | 256.1hPa | 2.7V | 00:00:00 | 00:49:04 | 00:00:00 | |
| DO3MHA-11 | 2026-09-02 11:18:22 | 48.22189 | 11.94100 | 88° | 97km/h | 10468m | 4.5m/s | -50.9°C | 59.2% | 258.0hPa | 2.7V | 00:00:00 | 00:48:53 | 00:00:00 | |
| OE5WHR-10 | 2026-09-02 11:18:20 | 48.22184 | 11.94032 | 83° | 93km/h | 10459m | 5.6m/s | -50.9°C | 58.6% | 258.4hPa | 2.7V | 00:00:00 | 00:00:00 | 08:30:00 | |
| OE3JTB-15 | 2026-09-02 11:18:19 | 48.22182 | 11.93996 | 84° | 93km/h | 10454m | 3.0m/s | -50.8°C | 58.7% | 258.6hPa | 2.7V | 00:00:00 | 00:48:50 | 00:00:00 | |
| DL6DJ-15 | 2026-09-02 11:18:17 | 48.22178 | 11.93922 | 86° | 99km/h | 10446m | 5.8m/s | -50.8°C | 52.4% | 259.0hPa | 2.7V | 00:00:00 | 00:00:00 | 00:00:00 | |
| OE5MMP-10 | 2026-09-02 11:18:14 | 48.22180 | 11.93810 | 97° | 95km/h | 10430m | 4.3m/s | -50.6°C | 57.7% | 259.5hPa | 2.7V | 00:00:00 | 00:48:45 | 00:00:00 | |
| PG1ADW-2 | 2026-09-02 11:18:13 | 48.22182 | 11.93773 | 97° | 95km/h | 10424m | 6.2m/s | -50.6°C | 57.6% | 259.8hPa | 2.7V | 00:00:00 | 00:00:00 | 08:30:00 | |
| DO3MHA-11 | 2026-09-02 11:18:12 | 48.22185 | 11.93735 | 98° | 91km/h | 10418m | 5.3m/s | -50.5°C | 57.5% | 260.0hPa | 2.7V | 00:00:00 | 00:48:43 | 00:00:00 | |
| OE5MMP-10 | 2026-09-02 11:18:04 | 48.22198 | 11.93456 | 94° | 93km/h | 10371m | 4.5m/s | -50.1°C | 56.9% | 261.9hPa | 2.7V | 00:00:00 | 00:48:35 | 08:30:00 | |
| DL6DJ-15 | 2026-09-02 11:17:46 | 48.22237 | 11.92814 | 96° | 84km/h | 10285m | 6.9m/s | -49.4°C | 52.1% | 265.5hPa | 2.7V | 00:00:00 | 00:00:00 | 00:00:00 | |
| DB0UT-7 | 2026-09-02 11:17:45 | 48.22240 | 11.92782 | 98° | 93km/h | 10279m | 4.7m/s | -49.3°C | 58.7% | 265.7hPa | 2.7V | 00:00:00 | 00:48:16 | 00:00:00 | |
| OE5MMP-10 | 2026-09-02 11:17:44 | 48.22242 | 11.92749 | 97° | 91km/h | 10274m | 5.0m/s | -49.2°C | 58.6% | 265.9hPa | 2.7V | 00:00:00 | 00:48:15 | 00:00:00 | |
| DO3MHA-11 | 2026-09-02 11:17:42 | 48.22246 | 11.92681 | 92° | 93km/h | 10264m | 4.1m/s | -49.1°C | 59.4% | 266.3hPa | 2.7V | 00:00:00 | 00:48:13 | 00:00:00 | |
| OE5FHM-15 | 2026-09-02 11:17:38 | 48.22249 | 11.92543 | 95° | 97km/h | 10246m | 3.2m/s | 0°C | 0% | 0hPa | 2.7V | 00:00:00 | 00:48:09 | 00:00:00 | |
| OE5MMP-10 | 2026-09-02 11:17:34 | 48.22258 | 11.92400 | 97° | 95km/h | 10228m | 4.0m/s | -48.8°C | 58.7% | 267.7hPa | 2.7V | 00:00:00 | 00:48:05 | 00:00:00 | |
| PG1ADW-2 | 2026-09-02 11:17:33 | 48.22260 | 11.92363 | 97° | 93km/h | 10224m | 5.1m/s | -48.8°C | 59.0% | 268.0hPa | 2.7V | 00:00:00 | 00:00:00 | 00:00:00 | |
| DO3MHA-11 | 2026-09-02 11:17:32 | 48.22263 | 11.92326 | 97° | 95km/h | 10220m | 2.6m/s | -48.7°C | 59.3% | 268.1hPa | 2.7V | 00:00:00 | 00:48:03 | 00:00:00 | |
| OE5DXL-15 | 2026-09-02 11:17:25 | 48.22274 | 11.92077 | 93° | 97km/h | 10189m | 3.2m/s | -48.4°C | 62.0% | 269.4hPa | 2.7V | 00:00:00 | 00:00:00 | 00:00:00 | |
| OE5MMP-10 | 2026-09-02 11:17:24 | 48.22275 | 11.92042 | 93° | 93km/h | 10185m | 4.8m/s | -48.4°C | 62.7% | 269.5hPa | 2.7V | 00:00:00 | 00:47:55 | 00:00:00 | |
| OE5DRO-10 | 2026-09-02 11:17:23 | 48.22276 | 11.92007 | 93° | 97km/h | 10181m | 3.7m/s | -48.4°C | 64.0% | 269.7hPa | 2.7V | 00:00:00 | 00:00:00 | 00:00:00 | |
| DO3MHA-11 | 2026-09-02 11:17:22 | 48.22277 | 11.91971 | 94° | 95km/h | 10178m | 1.7m/s | -48.3°C | 64.5% | 269.9hPa | 2.7V | 00:00:00 | 00:47:53 | 08:30:00 | |
| OE5WHR-10 | 2026-09-02 11:17:17 | 48.22281 | 11.91794 | 88° | 99km/h | 10155m | 5.1m/s | -48.2°C | 70.1% | 270.7hPa | 2.7V | 00:00:00 | 00:00:00 | 00:00:00 | |
| DB0UT-7 | 2026-09-02 11:17:15 | 48.22278 | 11.91725 | 87° | 93km/h | 10146m | 2.7m/s | -48.1°C | 72.5% | 271.1hPa | 2.7V | 00:00:00 | 00:00:00 | 00:00:00 | |
| OE5MMP-10 | 2026-09-02 11:17:14 | 48.22277 | 11.91690 | 89° | 100km/h | 10143m | 4.5m/s | -48.1°C | 72.2% | 271.3hPa | 2.7V | 00:00:00 | 00:47:45 | 00:00:00 | |
| PG1ADW-2 | 2026-09-02 11:17:13 | 48.22277 | 11.91654 | 92° | 99km/h | 10139m | 3.7m/s | -48.0°C | 71.8% | 271.4hPa | 2.7V | 00:00:00 | 00:47:44 | 00:00:00 | |
| DG1MJG | 2026-09-02 11:17:07 | 48.22289 | 11.91460 | 98° | 106km/h | 10118m | 5.0m/s | -47.9°C | 61.0% | 272.3hPa | 2.7V | 00:00:00 | 00:00:00 | 00:00:00 | |
| OE5MMP-10 | 2026-09-02 11:17:04 | 48.22300 | 11.91307 | 92° | 97km/h | 10102m | 4.6m/s | -47.7°C | 67.7% | 273.0hPa | 2.7V | 00:00:00 | 00:47:35 | 00:00:00 | |
| OE5WHR-10 | 2026-09-02 11:16:56 | 48.22291 | 11.91017 | 91° | 93km/h | 10064m | 4.2m/s | -47.4°C | 68.5% | 274.6hPa | 2.7V | 00:00:00 | 00:00:00 | 00:00:00 | |
| OE5DXL-15 | 2026-09-02 11:16:55 | 48.22291 | 11.90980 | 89° | 91km/h | 10059m | 6.0m/s | -47.3°C | 68.3% | 274.8hPa | 2.7V | 00:00:00 | 00:00:00 | 00:00:00 | |
| OE5MMP-10 | 2026-09-02 11:16:54 | 48.22290 | 11.90943 | 86° | 91km/h | 10054m | 6.0m/s | -47.3°C | 68.6% | 275.0hPa | 2.7V | 00:00:00 | 00:47:25 | 00:00:00 | |
| PG1ADW-2 | 2026-09-02 11:16:53 | 48.22287 | 11.90909 | 83° | 91km/h | 10048m | 4.1m/s | -47.2°C | 68.8% | 275.2hPa | 2.7V | 00:00:00 | 00:00:00 | 00:00:00 | |
| DO3MHA-11 | 2026-09-02 11:16:50 | 48.22279 | 11.90808 | 86° | 91km/h | 10033m | 3.9m/s | -47.0°C | 70.1% | 275.8hPa | 2.7V | 00:00:00 | 00:47:21 | 00:00:00 | |
| OE3JTB-15 | 2026-09-02 11:16:46 | 48.22277 | 11.90671 | 90° | 91km/h | 10016m | 3.7m/s | -46.9°C | 70.2% | 276.5hPa | 2.7V | 00:00:00 | 00:47:17 | 00:00:00 | |
| OE5DRO-10 | 2026-09-02 11:16:45 | 48.22277 | 11.90636 | 91° | 91km/h | 10011m | 5.6m/s | -46.9°C | 70.7% | 276.7hPa | 2.7V | 00:00:00 | 00:00:00 | 00:00:00 | |
| OE5MMP-10 | 2026-09-02 11:16:44 | 48.22277 | 11.90602 | 91° | 93km/h | 10007m | 2.8m/s | -46.8°C | 71.4% | 276.9hPa | 2.7V | 00:00:00 | 00:47:15 | 00:00:00 | |
| DO3MHA-11 | 2026-09-02 11:16:40 | 48.22274 | 11.90456 | 87° | 91km/h | 9993m | 2.6m/s | -46.7°C | 71.7% | 277.5hPa | 2.7V | 00:00:00 | 00:47:11 | 00:00:00 | |
| DG1MJG | 2026-09-02 11:16:37 | 48.22272 | 11.90348 | 92° | 91km/h | 9980m | 4.9m/s | -46.6°C | 65.2% | 278.1hPa | 2.7V | 00:00:00 | 00:00:00 | 00:00:00 | |
| OE5WHR-10 | 2026-09-02 11:16:35 | 48.22273 | 11.90280 | 91° | 89km/h | 9969m | 5.8m/s | -46.4°C | 71.5% | 278.5hPa | 2.7V | 00:00:00 | 00:47:06 | 00:00:00 | |
| OE5MMP-10 | 2026-09-02 11:16:34 | 48.22272 | 11.90248 | 89° | 89km/h | 9964m | 4.6m/s | -46.4°C | 72.3% | 278.8hPa | 2.7V | 00:00:00 | 00:47:05 | 08:30:00 | |
| PG1ADW-2 | 2026-09-02 11:16:33 | 48.22272 | 11.90216 | 88° | 89km/h | 9961m | 2.5m/s | -46.4°C | 72.0% | 278.9hPa | 2.7V | 00:00:00 | 00:00:00 | 00:00:00 | |
| DO3MHA-11 | 2026-09-02 11:16:30 | 48.22269 | 11.90116 | 88° | 89km/h | 9945m | 5.4m/s | -46.2°C | 71.5% | 279.6hPa | 2.7V | 00:00:00 | 00:47:01 | 00:00:00 | |
| OE5DRO-10 | 2026-09-02 11:16:26 | 48.22264 | 11.89976 | 89° | 89km/h | 9923m | 5.4m/s | -46.0°C | 71.8% | 280.4hPa | 2.7V | 00:00:00 | 00:00:00 | 08:30:00 | |
| OE5DXL-15 | 2026-09-02 11:16:25 | 48.22264 | 11.89941 | 89° | 89km/h | 9919m | 3.7m/s | -46.0°C | 71.7% | 280.7hPa | 2.7V | 00:00:00 | 00:00:00 | 00:00:00 | |
| OE5MMP-10 | 2026-09-02 11:16:24 | 48.22264 | 11.89907 | 90° | 88km/h | 9914m | 6.0m/s | -45.9°C | 71.1% | 280.8hPa | 2.7V | 00:00:00 | 00:46:55 | 00:00:00 | |
| DO3MHA-11 | 2026-09-02 11:16:20 | 48.22264 | 11.89777 | 90° | 91km/h | 9891m | 6.5m/s | -45.7°C | 70.6% | 281.8hPa | 2.7V | 00:00:00 | 00:46:51 | 00:00:00 | |
| OE3JTB-15 | 2026-09-02 11:16:16 | 48.22258 | 11.89642 | 85° | 89km/h | 9867m | 6.1m/s | -45.5°C | 67.6% | 282.8hPa | 2.7V | 00:00:00 | 00:00:00 | 08:30:00 | |
| OE5WHR-10 | 2026-09-02 11:16:14 | 48.22254 | 11.89570 | 86° | 89km/h | 9858m | 5.6m/s | -45.4°C | 68.2% | 283.3hPa | 2.7V | 00:00:00 | 00:00:00 | 00:00:00 | |
| PG1ADW-2 | 2026-09-02 11:16:13 | 48.22252 | 11.89534 | 88° | 89km/h | 9852m | 5.9m/s | -45.3°C | 68.8% | 283.6hPa | 2.7V | 00:00:00 | 00:00:00 | 00:00:00 | |
| DO3MHA-11 | 2026-09-02 11:16:10 | 48.22251 | 11.89432 | 91° | 78km/h | 9838m | 5.9m/s | -45.2°C | 69.0% | 284.2hPa | 2.7V | 00:00:00 | 00:46:41 | 00:00:00 | |
| OE5DRO-10 | 2026-09-02 11:16:07 | 48.22250 | 11.89335 | 89° | 89km/h | 9825m | 6.1m/s | -45.1°C | 69.3% | 284.8hPa | 2.7V | 00:00:00 | 00:00:00 | 00:00:00 | |
| DG1MJG | 2026-09-02 11:16:06 | 48.22250 | 11.89335 | 89° | 84km/h | 9825m | 6.2m/s | -45.1°C | 63.7% | 284.9hPa | 2.7V | 00:00:00 | 00:00:00 | 00:00:00 | |
| DB0UT-7 | 2026-09-02 11:15:55 | 48.22242 | 11.88912 | 86° | 80km/h | 9800m | 3.7m/s | -44.6°C | 70.8% | 287.3hPa | 2.7V | 00:00:00 | 00:46:26 | 00:00:00 | |
| OE5WHR-10 | 2026-09-02 11:15:53 | 48.22232 | 11.88821 | 88° | 78km/h | 9830m | 4.5m/s | -44.5°C | 70.8% | 287.8hPa | 2.7V | 00:00:00 | 00:00:00 | 00:00:00 | |
| OE5DRO-10 | 2026-09-02 11:15:48 | 48.22219 | 11.88626 | 94° | 78km/h | 9855m | 4.7m/s | -44.2°C | 71.5% | 288.8hPa | 2.7V | 00:00:00 | 00:00:00 | 00:00:00 | |
| DL6DJ-15 | 2026-09-02 11:15:42 | 48.22216 | 11.88394 | 73° | 86km/h | 9886m | 26.2m/s | -44.0°C | 65.5% | 290.1hPa | 2.7V | 00:00:00 | 00:00:00 | 00:00:00 | |
| DO3MHA-11 | 2026-09-02 11:15:40 | 48.22201 | 11.88347 | 145° | 75km/h | 9794m | 13.9m/s | -43.9°C | 71.7% | 290.5hPa | 2.7V | 00:00:00 | 00:46:11 | 00:00:00 | |
| OE5MMP-10 | 2026-09-02 11:15:36 | 48.22216 | 11.88273 | 105° | 82km/h | 9681m | 4.0m/s | -43.7°C | 73.1% | 291.3hPa | 2.7V | 00:00:00 | 00:46:07 | 00:00:00 | |
| PG1ADW-2 | 2026-09-02 11:15:33 | 48.22231 | 11.88210 | 88° | 82km/h | 9666m | 5.2m/s | -43.6°C | 71.2% | 291.9hPa | 2.7V | 00:00:00 | 00:00:00 | 00:00:00 | |
| OE5WHR-10 | 2026-09-02 11:15:32 | 48.22230 | 11.88175 | 88° | 80km/h | 9660m | 6.2m/s | -43.6°C | 70.5% | 292.1hPa | 2.7V | 00:00:00 | 00:46:03 | 00:00:00 | |
| DO3MHA-11 | 2026-09-02 11:15:30 | 48.22225 | 11.88106 | 85° | 82km/h | 9646m | 6.9m/s | -43.5°C | 71.1% | 292.5hPa | 2.7V | 00:00:00 | 00:46:01 | 00:00:00 | |
| OE5DRO-10 | 2026-09-02 11:15:29 | 48.22223 | 11.88072 | 85° | 80km/h | 9639m | 7.4m/s | -43.5°C | 72.3% | 292.9hPa | 2.7V | 00:00:00 | 00:00:00 | 00:00:00 | |
| OE5MMP-10 | 2026-09-02 11:15:26 | 48.22223 | 11.87981 | 100° | 78km/h | 9620m | 3.6m/s | -43.3°C | 73.1% | 293.6hPa | 2.7V | 00:00:00 | 00:45:57 | 00:00:00 | |
| OE5DXL-15 | 2026-09-02 11:15:25 | 48.22225 | 11.87952 | 92° | 80km/h | 9615m | 5.5m/s | -43.3°C | 72.4% | 293.7hPa | 2.7V | 00:00:00 | 00:45:56 | 08:30:00 | |
| DB0UT-7 | 2026-09-02 11:15:23 | 48.22228 | 11.87886 | 100° | 84km/h | 9607m | 3.7m/s | -43.2°C | 72.6% | 294.0hPa | 2.7V | 00:00:00 | 00:00:00 | 00:00:00 | |
| DO3MHA-11 | 2026-09-02 11:15:20 | 48.22238 | 11.87795 | 96° | 78km/h | 9588m | 2.2m/s | -43.0°C | 74.3% | 294.6hPa | 2.7V | 00:00:00 | 00:45:51 | 00:00:00 | |
| OE5MMP-10 | 2026-09-02 11:15:16 | 48.22238 | 11.87682 | 86° | 80km/h | 9573m | 6.6m/s | -43.0°C | 72.4% | 295.4hPa | 2.7V | 00:00:00 | 00:45:47 | 00:00:00 | |
| PG1ADW-2 | 2026-09-02 11:15:13 | 48.22232 | 11.87592 | 83° | 80km/h | 9559m | 5.8m/s | -42.8°C | 71.1% | 296.1hPa | 2.7V | 00:00:00 | 00:00:00 | 08:30:00 | |
| OE5WHR-10 | 2026-09-02 11:15:11 | 48.22228 | 11.87529 | 86° | 80km/h | 9548m | 5.4m/s | -42.7°C | 71.4% | 296.6hPa | 2.7V | 00:00:00 | 00:00:00 | 08:30:00 | |
| DO3MHA-11 | 2026-09-02 11:15:10 | 48.22226 | 11.87497 | 88° | 80km/h | 9543m | 5.3m/s | -42.6°C | 71.8% | 296.8hPa | 2.7V | 00:00:00 | 00:45:41 | 08:30:00 | |
| OE5MMP-10 | 2026-09-02 11:15:06 | 48.22230 | 11.87376 | 98° | 80km/h | 9525m | 6.0m/s | -42.5°C | 71.5% | 297.6hPa | 2.7V | 00:00:00 | 00:45:37 | 00:00:00 | |
| DG1MJG | 2026-09-02 11:15:05 | 48.22230 | 11.87376 | 98° | 77km/h | 9525m | 6.0m/s | -42.5°C | 66.3% | 297.7hPa | 2.7V | 00:00:00 | 00:00:00 | 00:00:00 | |
| DO3MHA-11 | 2026-09-02 11:15:00 | 48.22238 | 11.87194 | 89° | 78km/h | 9494m | 7.0m/s | -42.2°C | 73.0% | 299.0hPa | 2.7V | 00:00:00 | 00:45:31 | 00:00:00 | |
| OE5MMP-10 | 2026-09-02 11:14:56 | 48.22238 | 11.87073 | 94° | 78km/h | 9469m | 5.4m/s | -42.0°C | 73.2% | 300.2hPa | 2.7V | 00:00:00 | 00:45:27 | 00:00:00 | |
| OE5DXL-15 | 2026-09-02 11:14:55 | 48.22239 | 11.87043 | 95° | 78km/h | 9464m | 4.8m/s | -41.9°C | 72.9% | 300.5hPa | 2.7V | 00:00:00 | 00:00:00 | 00:00:00 | |
| PG1ADW-2 | 2026-09-02 11:14:53 | 48.22242 | 11.86984 | 94° | 78km/h | 9452m | 7.4m/s | -41.9°C | 72.6% | 300.9hPa | 2.7V | 00:00:00 | 00:00:00 | 00:00:00 | |
| OE5DRO-10 | 2026-09-02 11:14:51 | 48.22244 | 11.86927 | 91° | 80km/h | 9441m | 4.1m/s | -41.7°C | 72.7% | 301.4hPa | 2.7V | 00:00:00 | 00:00:00 | 00:00:00 | |
| DO3MHA-11 | 2026-09-02 11:14:50 | 48.22244 | 11.86897 | 90° | 78km/h | 9435m | 7.5m/s | -41.7°C | 72.7% | 301.6hPa | 2.7V | 00:00:00 | 00:45:21 | 00:00:00 | |
| OE5MMP-10 | 2026-09-02 11:14:46 | 48.22246 | 11.86780 | 94° | 78km/h | 9417m | 4.0m/s | -41.5°C | 72.5% | 302.5hPa | 2.7V | 00:00:00 | 00:45:17 | 00:00:00 | |
| DL6DJ-15 | 2026-09-02 11:14:40 | 48.22258 | 11.86571 | 92° | 71km/h | 9379m | 4.2m/s | -41.2°C | 66.8% | 304.2hPa | 2.7V | 00:00:00 | 00:00:00 | 00:00:00 | |
| OE5MMP-10 | 2026-09-02 11:14:36 | 48.22261 | 11.86484 | 92° | 80km/h | 9365m | 4.4m/s | -41.0°C | 71.1% | 304.7hPa | 2.7V | 00:00:00 | 00:45:07 | 08:30:00 | |
| DG1MJG | 2026-09-02 11:14:35 | 48.22261 | 11.86484 | 92° | 82km/h | 9365m | 4.4m/s | -41.1°C | 66.2% | 304.8hPa | 2.7V | 00:00:00 | 00:00:00 | 00:00:00 | |
| DO3MHA-11 | 2026-09-02 11:14:32 | 48.22261 | 11.86355 | 93° | 82km/h | 9345m | 4.7m/s | -40.9°C | 72.8% | 305.6hPa | 2.7V | 00:00:00 | 00:45:03 | 00:00:00 | |
| OE5WHR-10 | 2026-09-02 11:14:29 | 48.22267 | 11.86265 | 98° | 78km/h | 9333m | 4.7m/s | -40.7°C | 72.0% | 306.2hPa | 2.7V | 00:00:00 | 00:45:00 | 00:00:00 | |
| OE5MMP-10 | 2026-09-02 11:14:26 | 48.22272 | 11.86180 | 95° | 80km/h | 9318m | 5.9m/s | -40.6°C | 70.6% | 306.9hPa | 2.7V | 00:00:00 | 00:44:57 | 00:00:00 | |
| OE5DXL-15 | 2026-09-02 11:14:25 | 48.22273 | 11.86149 | 93° | 77km/h | 9313m | 3.5m/s | -40.6°C | 70.4% | 307.0hPa | 2.7V | 00:00:00 | 00:00:00 | 00:00:00 | |
| DB0UT-7 | 2026-09-02 11:14:20 | 48.22277 | 11.85991 | 90° | 75km/h | 9288m | 6.0m/s | -40.4°C | 71.0% | 308.2hPa | 2.7V | 00:00:00 | 00:44:51 | 00:00:00 | |
| DO3MHA-11 | 2026-09-02 11:14:17 | 48.22278 | 11.85903 | 92° | 77km/h | 9274m | 5.0m/s | -40.3°C | 70.9% | 308.8hPa | 2.7V | 00:00:00 | 00:44:48 | 00:00:00 | |
| OE5MMP-10 | 2026-09-02 11:14:16 | 48.22279 | 11.85872 | 94° | 75km/h | 9270m | 4.6m/s | -40.2°C | 70.8% | 309.0hPa | 2.7V | 00:00:00 | 00:44:47 | 00:00:00 | |
| OE5DRO-10 | 2026-09-02 11:14:13 | 48.22284 | 11.85780 | 98° | 73km/h | 9256m | 3.8m/s | -40.1°C | 72.2% | 309.6hPa | 2.7V | 00:00:00 | 00:00:00 | 00:00:00 | |
| DL6DJ-15 | 2026-09-02 11:14:09 | 48.22293 | 11.85643 | 92° | 64km/h | 9231m | 5.0m/s | -39.9°C | 65.7% | 310.8hPa | 2.7V | 00:00:00 | 00:00:00 | 00:00:00 | |
| OE5WHR-10 | 2026-09-02 11:14:08 | 48.22293 | 11.85643 | 93° | 75km/h | 9231m | 5.0m/s | -39.9°C | 70.4% | 310.7hPa | 2.7V | 00:00:00 | 00:00:00 | 00:00:00 | |
| DO3MHA-11 | 2026-09-02 11:14:07 | 48.22293 | 11.85619 | 90° | 73km/h | 9227m | 4.3m/s | -39.8°C | 70.3% | 310.9hPa | 2.7V | 00:00:00 | 00:44:38 | 00:00:00 | |
| OE5MMP-10 | 2026-09-02 11:14:06 | 48.22293 | 11.85593 | 89° | 75km/h | 9222m | 5.1m/s | -39.8°C | 69.5% | 311.2hPa | 2.7V | 00:00:00 | 00:44:37 | 00:00:00 | |
| DG1MJG | 2026-09-02 11:14:05 | 48.22293 | 11.85593 | 90° | 68km/h | 9222m | 5.1m/s | -39.8°C | 64.8% | 311.2hPa | 2.7V | 00:00:00 | 00:00:00 | 00:00:00 | |
| DO3MHA-11 | 2026-09-02 11:13:57 | 48.22289 | 11.85341 | 96° | 77km/h | 9178m | 4.6m/s | -39.5°C | 70.1% | 313.1hPa | 2.7V | 00:00:00 | 00:44:28 | 00:00:00 | |
| OE5MMP-10 | 2026-09-02 11:13:56 | 48.22291 | 11.85313 | 96° | 78km/h | 9173m | 6.2m/s | 0°C | 0% | 0hPa | 2.7V | 00:00:00 | 00:44:27 | 00:00:00 | |
| OE5DXL-15 | 2026-09-02 11:13:55 | 48.22293 | 11.85284 | 95° | 75km/h | 9168m | 3.4m/s | -39.4°C | 71.4% | 313.6hPa | 2.7V | 00:00:00 | 00:00:00 | 00:00:00 | |
| OE5DRO-10 | 2026-09-02 11:13:54 | 48.22295 | 11.85255 | 96° | 78km/h | 9163m | 5.3m/s | -39.3°C | 70.9% | 313.8hPa | 2.7V | 00:00:00 | 00:00:00 | 00:00:00 | |
| PG1ADW-2 | 2026-09-02 11:13:53 | 48.22296 | 11.85227 | 96° | 78km/h | 9158m | 5.2m/s | -39.3°C | 71.8% | 314.1hPa | 2.7V | 00:00:00 | 00:00:00 | 00:00:00 | |
| DB0UT-7 | 2026-09-02 11:13:50 | 48.22299 | 11.85142 | 91° | 80km/h | 9145m | 5.1m/s | -39.2°C | 68.8% | 314.6hPa | 2.7V | 00:00:00 | 00:00:00 | 08:30:00 | |
| DO3MHA-11 | 2026-09-02 11:13:47 | 48.22301 | 11.85049 | 95° | 78km/h | 9127m | 4.6m/s | -39.1°C | 70.7% | 315.5hPa | 2.7V | 00:00:00 | 00:44:18 | 00:00:00 | |
| OE5MMP-10 | 2026-09-02 11:13:46 | 48.22303 | 11.85019 | 98° | 78km/h | 9124m | 2.5m/s | 0°C | 0% | 0hPa | 2.7V | 00:00:00 | 00:44:17 | 00:00:00 | |
| DL6DJ-15 | 2026-09-02 11:13:38 | 48.22323 | 11.84757 | 98° | 80km/h | 9078m | 2.9m/s | -38.7°C | 65.9% | 317.9hPa | 2.7V | 00:00:00 | 00:00:00 | 00:00:00 | |
| DO3MHA-11 | 2026-09-02 11:13:37 | 48.22323 | 11.84756 | 99° | 73km/h | 9078m | 2.9m/s | -38.6°C | 70.4% | 317.8hPa | 2.7V | 00:00:00 | 00:44:08 | 00:00:00 | |
| OE5MMP-10 | 2026-09-02 11:13:36 | 48.22327 | 11.84726 | 101° | 71km/h | 9075m | 5.1m/s | 0°C | 0% | 0hPa | 2.7V | 00:00:00 | 00:44:07 | 00:00:00 | |
| OE5DRO-10 | 2026-09-02 11:13:35 | 48.22330 | 11.84697 | 101° | 71km/h | 9069m | 5.1m/s | -38.6°C | 69.5% | 318.2hPa | 2.7V | 00:00:00 | 00:00:00 | 08:30:00 | |
| DG1MJG | 2026-09-02 11:13:34 | 48.22330 | 11.84697 | 101° | 77km/h | 9069m | 5.2m/s | -38.6°C | 0% | 318.3hPa | 2.7V | 00:00:00 | 00:00:00 | 00:00:00 | |
| PG1ADW-2 | 2026-09-02 11:13:33 | 48.22337 | 11.84642 | 104° | 73km/h | 9060m | 3.7m/s | -38.5°C | 68.4% | 318.7hPa | 2.7V | 00:00:00 | 00:00:00 | 00:00:00 | |
| DO3MHA-11 | 2026-09-02 11:13:27 | 48.22365 | 11.84489 | 100° | 71km/h | 9031m | 5.2m/s | -38.2°C | 68.8% | 320.1hPa | 2.7V | 00:00:00 | 00:43:58 | 08:30:00 | |
| OE5WHR-10 | 2026-09-02 11:13:26 | 48.22367 | 11.84462 | 98° | 73km/h | 9026m | 3.8m/s | -38.2°C | 69.2% | 320.3hPa | 2.7V | 00:00:00 | 00:43:57 | 00:00:00 | |
| OE5DXL-15 | 2026-09-02 11:13:25 | 48.22369 | 11.84436 | 97° | 73km/h | 9023m | 4.0m/s | -38.1°C | 69.5% | 320.5hPa | 2.7V | 00:00:00 | 00:00:00 | 00:00:00 | |
| DO3MHA-11 | 2026-09-02 11:13:17 | 48.22397 | 11.84219 | 106° | 73km/h | 8993m | 5.1m/s | -37.9°C | 70.4% | 321.8hPa | 2.7V | 00:00:00 | 00:43:48 | 00:00:00 | |
| OE5MMP-10 | 2026-09-02 11:13:16 | 48.22402 | 11.84191 | 105° | 77km/h | 8989m | 2.6m/s | 0°C | 0% | 0hPa | 2.7V | 00:00:00 | 00:43:47 | 00:00:00 | |
| PG1ADW-2 | 2026-09-02 11:13:13 | 48.22416 | 11.84108 | 105° | 71km/h | 8979m | 3.9m/s | -37.8°C | 72.9% | 322.6hPa | 2.7V | 00:00:00 | 00:43:44 | 00:00:00 | |
| OE3JTB-15 | 2026-09-02 11:13:12 | 48.22427 | 11.84030 | 98° | 69km/h | 8967m | 3.9m/s | -37.7°C | 73.5% | 323.1hPa | 2.7V | 00:00:00 | 00:00:00 | 00:00:00 | |
| DL6DJ-15 | 2026-09-02 11:13:07 | 48.22437 | 11.83923 | 100° | 75km/h | 8946m | 5.4m/s | -37.7°C | 70.2% | 324.0hPa | 2.7V | 00:00:00 | 00:00:00 | 00:00:00 | |
| OE5WHR-10 | 2026-09-02 11:13:05 | 48.22441 | 11.83894 | 103° | 71km/h | 8940m | 5.3m/s | -37.6°C | 75.6% | 324.3hPa | 2.7V | 00:00:00 | 00:00:00 | 00:00:00 | |
| DG1MJG | 2026-09-02 11:13:04 | 48.22441 | 11.83894 | 103° | 78km/h | 8940m | 5.4m/s | -37.6°C | 0% | 0hPa | 2.7V | 00:00:00 | 00:00:00 | 00:00:00 | |
| DO3MHA-11 | 2026-09-02 11:12:57 | 48.22468 | 11.83678 | 103° | 69km/h | 8903m | 6.1m/s | -37.3°C | 76.9% | 326.1hPa | 2.7V | 00:00:00 | 00:43:28 | 00:00:00 | |
| OE5DXL-15 | 2026-09-02 11:12:55 | 48.22477 | 11.83627 | 108° | 68km/h | 8892m | 4.3m/s | -37.3°C | 77.3% | 326.6hPa | 2.7V | 00:00:00 | 00:00:00 | 00:00:00 | |
| PG1ADW-2 | 2026-09-02 11:12:53 | 48.22489 | 11.83577 | 110° | 66km/h | 8885m | 4.3m/s | -37.2°C | 78.1% | 327.0hPa | 2.7V | 00:00:00 | 00:00:00 | 00:00:00 | |
| DO3MHA-11 | 2026-09-02 11:12:47 | 48.22513 | 11.83427 | 100° | 66km/h | 8859m | 4.4m/s | -37.0°C | 78.9% | 328.3hPa | 2.7V | 00:00:00 | 00:43:18 | 00:00:00 | |
| OE5WHR-10 | 2026-09-02 11:12:44 | 48.22518 | 11.83349 | 95° | 66km/h | 8847m | 2.2m/s | -36.9°C | 77.7% | 328.8hPa | 2.7V | 00:00:00 | 00:00:00 | 00:00:00 | |
| OE5DRO-10 | 2026-09-02 11:12:38 | 48.22542 | 11.83202 | 112° | 66km/h | 8820m | 4.2m/s | -36.7°C | 77.0% | 330.0hPa | 2.7V | 00:00:00 | 00:00:00 | 00:00:00 | |
| DL6DJ-15 | 2026-09-02 11:12:36 | 48.22556 | 11.83137 | 104° | 62km/h | 8806m | 5.4m/s | -36.7°C | 73.3% | 330.7hPa | 2.7V | 00:00:00 | 00:00:00 | 00:00:00 | |
| DG1MJG | 2026-09-02 11:12:34 | 48.22556 | 11.83137 | 105° | 64km/h | 8806m | 5.4m/s | 0°C | 0% | 0hPa | 2.7V | 00:00:00 | 00:00:00 | 00:00:00 | |
| PG1ADW-2 | 2026-09-02 11:12:33 | 48.22565 | 11.83088 | 107° | 64km/h | 8798m | 3.6m/s | -36.5°C | 77.0% | 331.1hPa | 2.7V | 00:00:00 | 00:00:00 | 00:00:00 | |
| DO3MHA-11 | 2026-09-02 11:12:26 | 48.22595 | 11.82919 | 99° | 66km/h | 8763m | 7.1m/s | -36.3°C | 75.0% | 333.1hPa | 2.7V | 00:00:00 | 00:42:57 | 00:00:00 | |
| OE5DXL-15 | 2026-09-02 11:12:25 | 48.22598 | 11.82894 | 100° | 60km/h | 8756m | 7.0m/s | -36.2°C | 75.4% | 333.1hPa | 2.7V | 00:00:00 | 00:00:00 | 00:00:00 | |
| OE5WHR-10 | 2026-09-02 11:12:23 | 48.22605 | 11.82842 | 102° | 58km/h | 8745m | 4.5m/s | -36.1°C | 76.7% | 333.6hPa | 2.7V | 00:00:00 | 00:42:54 | 00:00:00 | |
| OE5DRO-10 | 2026-09-02 11:12:19 | 48.22620 | 11.82741 | 106° | 57km/h | 8729m | 4.4m/s | -36.0°C | 77.9% | 334.5hPa | 2.7V | 00:00:00 | 00:00:00 | 00:00:00 | |
| DO3MHA-11 | 2026-09-02 11:12:16 | 48.22637 | 11.82679 | 118° | 53km/h | 8715m | 4.0m/s | -35.9°C | 77.5% | 335.1hPa | 2.7V | 00:00:00 | 00:42:47 | 00:00:00 | |
| PG1ADW-2 | 2026-09-02 11:12:13 | 48.22654 | 11.82627 | 111° | 57km/h | 8697m | 5.1m/s | -35.8°C | 78.3% | 335.9hPa | 2.7V | 00:00:00 | 00:00:00 | 08:30:00 | |
| DO3MHA-11 | 2026-09-02 11:12:06 | 48.22682 | 11.82487 | 104° | 60km/h | 8661m | 3.3m/s | -35.4°C | 78.3% | 337.6hPa | 2.7V | 00:00:00 | 00:42:37 | 00:00:00 | |
| OE3JTB-15 | 2026-09-02 11:12:05 | 48.22684 | 11.82467 | 103° | 58km/h | 8657m | 5.9m/s | -35.4°C | 77.8% | 337.8hPa | 2.7V | 00:00:00 | 00:42:36 | 00:00:00 | |
| DG1MJG | 2026-09-02 11:12:04 | 48.22684 | 11.82467 | 103° | 55km/h | 8657m | 6.0m/s | 0°C | 0% | 0hPa | 2.7V | 00:00:00 | 00:00:00 | 00:00:00 | |
| OE5WHR-10 | 2026-09-02 11:12:02 | 48.22695 | 11.82403 | 106° | 58km/h | 8643m | 3.8m/s | -35.3°C | 77.3% | 338.5hPa | 2.7V | 00:00:00 | 00:00:00 | 08:30:00 | |
| OE5DRO-10 | 2026-09-02 11:12:00 | 48.22704 | 11.82358 | 110° | 58km/h | 8634m | 4.8m/s | -35.2°C | 76.4% | 339.0hPa | 2.7V | 00:00:00 | 00:00:00 | 00:00:00 | |
| DO3MHA-11 | 2026-09-02 11:11:56 | 48.22726 | 11.82273 | 114° | 58km/h | 8616m | 5.2m/s | -35.1°C | 74.8% | 339.8hPa | 2.7V | 00:00:00 | 00:42:27 | 08:30:00 | |
| OE5DXL-15 | 2026-09-02 11:11:55 | 48.22732 | 11.82253 | 115° | 60km/h | 8612m | 3.7m/s | -35.0°C | 75.2% | 340.1hPa | 2.7V | 00:00:00 | 00:00:00 | 00:00:00 | |
| PG1ADW-2 | 2026-09-02 11:11:53 | 48.22743 | 11.82216 | 113° | 60km/h | 8604m | 4.3m/s | -35.0°C | 76.2% | 340.4hPa | 2.7V | 00:00:00 | 00:42:24 | 00:00:00 | |
| DO3MHA-11 | 2026-09-02 11:11:46 | 48.22782 | 11.82069 | 113° | 60km/h | 8576m | 3.4m/s | -34.7°C | 74.8% | 341.8hPa | 2.7V | 00:00:00 | 00:42:17 | 00:00:00 | |
| OE5WHR-10 | 2026-09-02 11:11:41 | 48.22815 | 11.81969 | 113° | 64km/h | 8549m | 4.0m/s | -34.5°C | 75.3% | 343.2hPa | 2.7V | 00:00:00 | 00:00:00 | 00:00:00 | |
| DO3MHA-11 | 2026-09-02 11:11:36 | 48.22841 | 11.81857 | 109° | 64km/h | 8529m | 3.6m/s | -34.3°C | 73.0% | 344.1hPa | 2.7V | 00:00:00 | 00:42:07 | 00:00:00 | |
| PG1ADW-2 | 2026-09-02 11:11:33 | 48.22860 | 11.81787 | 115° | 64km/h | 8517m | 3.2m/s | -34.2°C | 72.3% | 344.8hPa | 2.7V | 00:00:00 | 00:00:00 | 00:00:00 | |
| OE3JTB-15 | 2026-09-02 11:11:30 | 48.22879 | 11.81721 | 115° | 68km/h | 8506m | 3.2m/s | -34.1°C | 74.0% | 345.3hPa | 2.7V | 00:00:00 | 00:00:00 | 00:00:00 | |
| DO3MHA-11 | 2026-09-02 11:11:26 | 48.22903 | 11.81632 | 108° | 64km/h | 8491m | 2.7m/s | -34.0°C | 78.9% | 346.1hPa | 2.7V | 00:00:00 | 00:41:57 | 00:00:00 | |
| OE5DXL-15 | 2026-09-02 11:11:25 | 48.22908 | 11.81609 | 107° | 68km/h | 8487m | 5.3m/s | -34.0°C | 78.3% | 346.2hPa | 2.7V | 00:00:00 | 00:00:00 | 00:00:00 | |
| OE5DRO-10 | 2026-09-02 11:11:22 | 48.22918 | 11.81538 | 101° | 66km/h | 8474m | 4.1m/s | -33.9°C | 77.3% | 346.9hPa | 2.7V | 00:00:00 | 00:00:00 | 00:00:00 | |
| OE5WHR-10 | 2026-09-02 11:11:20 | 48.22923 | 11.81491 | 100° | 68km/h | 8464m | 5.1m/s | -33.8°C | 78.0% | 347.3hPa | 2.7V | 00:00:00 | 00:41:51 | 00:00:00 | |
| DO3MHA-11 | 2026-09-02 11:11:16 | 48.22944 | 11.81401 | 116° | 64km/h | 8442m | 6.5m/s | -33.7°C | 77.1% | 348.4hPa | 2.7V | 00:00:00 | 00:41:47 | 00:00:00 | |
| PG1ADW-2 | 2026-09-02 11:11:13 | 48.22963 | 11.81334 | 109° | 71km/h | 8424m | 7.1m/s | -33.6°C | 77.0% | 349.3hPa | 2.7V | 00:00:00 | 00:00:00 | 00:00:00 | |
| DO3MHA-11 | 2026-09-02 11:11:06 | 48.23002 | 11.81173 | 118° | 75km/h | 8390m | 5.1m/s | -33.3°C | 78.3% | 351.1hPa | 2.7V | 00:00:00 | 00:41:37 | 00:00:00 | |
| OE5DRO-10 | 2026-09-02 11:11:03 | 48.23023 | 11.81098 | 110° | 75km/h | 8377m | 4.6m/s | -33.2°C | 77.2% | 351.8hPa | 2.7V | 00:00:00 | 00:00:00 | 00:00:00 | |
| DL6DJ-15 | 2026-09-02 11:11:02 | 48.23030 | 11.81072 | 110° | 71km/h | 8371m | 5.8m/s | -33.2°C | 72.9% | 352.1hPa | 2.7V | 00:00:00 | 00:00:00 | 00:00:00 | |
| OE5WHR-10 | 2026-09-02 11:10:59 | 48.23049 | 11.80992 | 109° | 73km/h | 8356m | 4.8m/s | -33.0°C | 75.8% | 352.8hPa | 2.7V | 00:00:00 | 00:00:00 | 00:00:00 | |
| OE3JTB-15 | 2026-09-02 11:10:57 | 48.23063 | 11.80936 | 113° | 68km/h | 8348m | 3.4m/s | -32.9°C | 76.9% | 353.3hPa | 2.7V | 00:00:00 | 00:00:00 | 00:00:00 | |
| DO3MHA-11 | 2026-09-02 11:10:56 | 48.23071 | 11.80908 | 116° | 73km/h | 8344m | 5.1m/s | -32.9°C | 77.7% | 353.5hPa | 2.7V | 00:00:00 | 00:41:27 | 00:00:00 | |
| OE5DXL-15 | 2026-09-02 11:10:55 | 48.23079 | 11.80882 | 116° | 69km/h | 8339m | 4.9m/s | -32.8°C | 78.5% | 353.7hPa | 2.7V | 00:00:00 | 00:00:00 | 08:30:00 | |
| PG1ADW-2 | 2026-09-02 11:10:53 | 48.23094 | 11.80836 | 116° | 69km/h | 8328m | 6.0m/s | -32.8°C | 78.0% | 354.2hPa | 2.7V | 00:00:00 | 00:00:00 | 00:00:00 | |
| DO3MHA-11 | 2026-09-02 11:10:46 | 48.23132 | 11.80650 | 108° | 68km/h | 8296m | 3.5m/s | -32.5°C | 77.4% | 355.9hPa | 2.7V | 00:00:00 | 00:41:17 | 00:00:00 | |
| OE5DRO-10 | 2026-09-02 11:10:44 | 48.23144 | 11.80596 | 111° | 68km/h | 8284m | 7.3m/s | -32.4°C | 75.5% | 356.5hPa | 2.7V | 00:00:00 | 00:00:00 | 08:30:00 | |
| OE5WHR-10 | 2026-09-02 11:10:38 | 48.23192 | 11.80465 | 115° | 68km/h | 8252m | 5.1m/s | -32.1°C | 76.5% | 358.1hPa | 2.7V | 00:00:00 | 00:00:00 | 00:00:00 | |
| DO3MHA-11 | 2026-09-02 11:10:36 | 48.23203 | 11.80420 | 111° | 68km/h | 8241m | 6.4m/s | -32.0°C | 76.2% | 358.7hPa | 2.7V | 00:00:00 | 00:41:07 | 00:00:00 | |
| PG1ADW-2 | 2026-09-02 11:10:33 | 48.23221 | 11.80346 | 112° | 68km/h | 8225m | 4.3m/s | -31.8°C | 75.5% | 359.5hPa | 2.7V | 00:00:00 | 00:41:04 | 00:00:00 | |
| DL6DJ-15 | 2026-09-02 11:10:31 | 48.23234 | 11.80298 | 114° | 66km/h | 8215m | 3.5m/s | -31.8°C | 72.7% | 360.1hPa | 2.7V | 00:00:00 | 00:00:00 | 00:00:00 | |
| DB0UT-7 | 2026-09-02 11:10:29 | 48.23248 | 11.80251 | 112° | 68km/h | 8204m | 5.3m/s | -31.7°C | 77.3% | 360.6hPa | 2.7V | 00:00:00 | 00:00:00 | 00:00:00 | |
| OE3JTB-15 | 2026-09-02 11:10:28 | 48.23254 | 11.80227 | 113° | 66km/h | 8199m | 5.7m/s | -31.6°C | 77.2% | 360.9hPa | 2.7V | 00:00:00 | 00:40:59 | 00:00:00 | |
| DO3MHA-11 | 2026-09-02 11:10:26 | 48.23267 | 11.80179 | 113° | 68km/h | 8189m | 3.4m/s | -31.5°C | 77.9% | 361.3hPa | 2.7V | 00:00:00 | 00:40:57 | 08:30:00 | |
| OE5DXL-15 | 2026-09-02 11:10:25 | 48.23273 | 11.80155 | 111° | 66km/h | 8185m | 5.6m/s | -31.5°C | 76.9% | 361.6hPa | 2.7V | 00:00:00 | 00:00:00 | 00:00:00 | |
| OE5WHR-10 | 2026-09-02 11:10:17 | 48.23322 | 11.79963 | 117° | 66km/h | 8145m | 3.9m/s | -31.2°C | 77.9% | 363.6hPa | 2.7V | 00:00:00 | 00:40:48 | 00:00:00 | |
| DO3MHA-11 | 2026-09-02 11:10:16 | 48.23330 | 11.79940 | 118° | 68km/h | 8140m | 5.2m/s | -31.1°C | 77.9% | 363.8hPa | 2.7V | 00:00:00 | 00:40:47 | 00:00:00 | |
| PG1ADW-2 | 2026-09-02 11:10:13 | 48.23355 | 11.79871 | 117° | 66km/h | 8128m | 3.1m/s | -31.0°C | 79.9% | 364.5hPa | 2.7V | 00:00:00 | 00:00:00 | 00:00:00 | |
| DO3MHA-11 | 2026-09-02 11:10:06 | 48.23399 | 11.79710 | 113° | 64km/h | 8098m | 5.6m/s | -30.8°C | 80.1% | 365.9hPa | 2.7V | 00:00:00 | 00:40:37 | 00:00:00 | |
| DL6DJ-15 | 2026-09-02 11:10:00 | 48.23443 | 11.79582 | 118° | 66km/h | 8070m | 5.0m/s | -30.7°C | 77.5% | 367.4hPa | 2.7V | 00:00:00 | 00:00:00 | 00:00:00 | |
| DB0UT-7 | 2026-09-02 11:09:59 | 48.23451 | 11.79560 | 120° | 68km/h | 8066m | 3.7m/s | -30.6°C | 82.2% | 367.7hPa | 2.7V | 00:00:00 | 00:40:30 | 00:00:00 | |
| DO3MHA-11 | 2026-09-02 11:09:56 | 48.23473 | 11.79492 | 113° | 64km/h | 8053m | 4.3m/s | -30.6°C | 84.0% | 368.2hPa | 2.7V | 00:00:00 | 00:40:27 | 00:00:00 | |
| OE5DXL-15 | 2026-09-02 11:09:55 | 48.23479 | 11.79469 | 113° | 66km/h | 8049m | 4.0m/s | -30.5°C | 85.1% | 368.5hPa | 2.7V | 00:00:00 | 00:00:00 | 00:00:00 | |
| PG1ADW-2 | 2026-09-02 11:09:53 | 48.23492 | 11.79422 | 112° | 66km/h | 8042m | 5.0m/s | -30.5°C | 86.1% | 368.9hPa | 2.7V | 00:00:00 | 00:00:00 | 00:00:00 | |
| OE5DRO-10 | 2026-09-02 11:09:47 | 48.23534 | 11.79291 | 124° | 66km/h | 8016m | 3.0m/s | -30.3°C | 89.0% | 370.2hPa | 2.7V | 00:00:00 | 00:00:00 | 00:00:00 | |
| DO3MHA-11 | 2026-09-02 11:09:46 | 48.23542 | 11.79273 | 123° | 62km/h | 8013m | 4.5m/s | -30.3°C | 89.1% | 370.3hPa | 2.7V | 00:00:00 | 00:40:17 | 00:00:00 | |
| DO3MHA-11 | 2026-09-02 11:09:36 | 48.23621 | 11.79062 | 123° | 68km/h | 7966m | 5.7m/s | -29.9°C | 87.1% | 372.7hPa | 2.7V | 00:00:00 | 00:40:07 | 00:00:00 | |
| OE5WHR-10 | 2026-09-02 11:09:35 | 48.23631 | 11.79036 | 122° | 68km/h | 7961m | 4.8m/s | -29.8°C | 87.5% | 373.0hPa | 2.7V | 00:00:00 | 00:00:00 | 00:00:00 | |
| PG1ADW-2 | 2026-09-02 11:09:33 | 48.23649 | 11.78988 | 118° | 68km/h | 7952m | 4.3m/s | -29.7°C | 87.5% | 373.5hPa | 2.7V | 00:00:00 | 00:00:00 | 00:00:00 | |
| OE3JTB-15 | 2026-09-02 11:09:29 | 48.23676 | 11.78899 | 111° | 68km/h | 7931m | 5.5m/s | -29.6°C | 89.8% | 374.6hPa | 2.7V | 00:00:00 | 00:00:00 | 00:00:00 | |
| OE5DRO-10 | 2026-09-02 11:09:28 | 48.23682 | 11.78878 | 113° | 68km/h | 7926m | 4.4m/s | -29.5°C | 90.2% | 374.9hPa | 2.7V | 00:00:00 | 00:00:00 | 00:00:00 | |
| DO3MHA-11 | 2026-09-02 11:09:26 | 48.23695 | 11.78834 | 116° | 69km/h | 7917m | 4.3m/s | -29.5°C | 88.9% | 375.2hPa | 2.7V | 00:00:00 | 00:39:57 | 00:00:00 | |
| OE5DXL-15 | 2026-09-02 11:09:25 | 48.23701 | 11.78812 | 114° | 68km/h | 7912m | 7.0m/s | -29.5°C | 88.3% | 375.5hPa | 2.7V | 00:00:00 | 00:00:00 | 00:00:00 | |
| DO3MHA-11 | 2026-09-02 11:09:16 | 48.23774 | 11.78596 | 121° | 66km/h | 7868m | 7.5m/s | -29.3°C | 87.6% | 377.8hPa | 2.7V | 00:00:00 | 00:39:47 | 00:00:00 | |
| OE5WHR-10 | 2026-09-02 11:09:14 | 48.23792 | 11.78554 | 124° | 68km/h | 7855m | 5.7m/s | -29.1°C | 87.4% | 378.6hPa | 2.7V | 00:00:00 | 00:39:45 | 00:00:00 | |
| PG1ADW-2 | 2026-09-02 11:09:13 | 48.23800 | 11.78535 | 123° | 68km/h | 7851m | 2.3m/s | -29.0°C | 88.1% | 378.8hPa | 2.7V | 00:00:00 | 00:39:44 | 08:30:00 | |
| OE5DRO-10 | 2026-09-02 11:09:09 | 48.23829 | 11.78450 | 115° | 71km/h | 7834m | 4.6m/s | -29.0°C | 88.3% | 379.8hPa | 2.7V | 00:00:00 | 00:00:00 | 00:00:00 | |
| DO3MHA-11 | 2026-09-02 11:09:06 | 48.23853 | 11.78379 | 121° | 69km/h | 7817m | 3.2m/s | -28.9°C | 89.6% | 380.6hPa | 2.7V | 00:00:00 | 00:39:37 | 00:00:00 | |
| DB0UT-7 | 2026-09-02 11:09:03 | 48.23878 | 11.78310 | 115° | 69km/h | 7803m | 5.4m/s | 0°C | 0% | 0hPa | 2.7V | 00:00:00 | 00:00:00 | 00:00:00 | |
| DL6DJ-15 | 2026-09-02 11:08:58 | 48.23910 | 11.78191 | 108° | 71km/h | 7778m | 5.8m/s | -28.8°C | 85.3% | 382.8hPa | 2.7V | 00:00:00 | 00:00:00 | 00:00:00 | |
| DO3MHA-11 | 2026-09-02 11:08:56 | 48.23922 | 11.78139 | 112° | 71km/h | 7767m | 5.5m/s | -28.6°C | 90.0% | 383.4hPa | 2.7V | 00:00:00 | 00:39:27 | 08:30:00 | |
| OE5DXL-15 | 2026-09-02 11:08:55 | 48.23929 | 11.78114 | 115° | 69km/h | 7761m | 4.6m/s | -28.6°C | 89.9% | 383.7hPa | 2.7V | 00:00:00 | 00:00:00 | 00:00:00 | |
| OE5WHR-10 | 2026-09-02 11:08:53 | 48.23946 | 11.78065 | 120° | 69km/h | 7753m | 5.9m/s | -28.5°C | 87.7% | 384.2hPa | 2.7V | 00:00:00 | 00:00:00 | 08:30:00 | |
| OE5DRO-10 | 2026-09-02 11:08:50 | 48.23974 | 11.77992 | 118° | 68km/h | 7734m | 5.6m/s | -28.4°C | 87.7% | 385.2hPa | 2.7V | 00:00:00 | 00:00:00 | 00:00:00 | |
| DO3MHA-11 | 2026-09-02 11:08:46 | 48.24007 | 11.77899 | 121° | 68km/h | 7711m | 7.6m/s | -28.2°C | 86.3% | 386.4hPa | 2.7V | 00:00:00 | 00:39:17 | 00:00:00 | |
| DG1MJG | 2026-09-02 11:08:38 | 48.24060 | 11.77742 | 119° | 71km/h | 7672m | 7.1m/s | 0°C | 0% | 0hPa | 2.7V | 00:00:00 | 00:00:00 | 00:00:00 | |
| DO3MHA-11 | 2026-09-02 11:08:36 | 48.24083 | 11.77671 | 114° | 68km/h | 7651m | 5.8m/s | -27.8°C | 84.9% | 389.5hPa | 2.7V | 00:00:00 | 00:39:07 | 00:00:00 | |
| DB0UT-7 | 2026-09-02 11:08:33 | 48.24102 | 11.77600 | 111° | 73km/h | 7633m | 4.5m/s | 0°C | 0% | 0hPa | 2.7V | 00:00:00 | 00:39:04 | 00:00:00 | |
| OE5WHR-10 | 2026-09-02 11:08:32 | 48.24108 | 11.77577 | 111° | 71km/h | 7627m | 6.7m/s | -27.6°C | 83.9% | 390.8hPa | 2.7V | 00:00:00 | 00:00:00 | 00:00:00 | |
| OE5DRO-10 | 2026-09-02 11:08:31 | 48.24114 | 11.77554 | 112° | 71km/h | 7621m | 4.7m/s | -27.6°C | 83.6% | 391.1hPa | 2.7V | 00:00:00 | 00:00:00 | 00:00:00 | |
| OE3JTB-15 | 2026-09-02 11:08:30 | 48.24120 | 11.77531 | 111° | 71km/h | 7616m | 6.0m/s | -27.5°C | 82.9% | 391.4hPa | 2.7V | 00:00:00 | 00:00:00 | 00:00:00 | |
| DL6DJ-15 | 2026-09-02 11:08:27 | 48.24139 | 11.77458 | 111° | 68km/h | 7598m | 5.7m/s | -27.4°C | 78.8% | 392.4hPa | 2.7V | 00:00:00 | 00:00:00 | 00:00:00 | |
| DO3MHA-11 | 2026-09-02 11:08:26 | 48.24145 | 11.77434 | 115° | 69km/h | 7593m | 4.8m/s | -27.3°C | 82.3% | 392.7hPa | 2.7V | 00:00:00 | 00:38:57 | 00:00:00 | |
| OE5DXL-15 | 2026-09-02 11:08:25 | 48.24153 | 11.77410 | 115° | 73km/h | 7587m | 6.7m/s | -27.4°C | 82.6% | 393.0hPa | 2.7V | 00:00:00 | 00:00:00 | 00:00:00 | |
| DO3MHA-11 | 2026-09-02 11:08:16 | 48.24213 | 11.77190 | 109° | 75km/h | 7542m | 4.1m/s | -27.1°C | 85.8% | 395.5hPa | 2.7V | 00:00:00 | 00:38:47 | 00:00:00 | |
| PG1ADW-2 | 2026-09-02 11:08:13 | 48.24233 | 11.77107 | 113° | 73km/h | 7528m | 4.2m/s | -27.0°C | 84.7% | 396.2hPa | 2.7V | 00:00:00 | 00:00:00 | 00:00:00 | |
| OE5DRO-10 | 2026-09-02 11:08:12 | 48.24240 | 11.77079 | 112° | 73km/h | 7523m | 5.0m/s | -27.0°C | 84.3% | 396.5hPa | 2.7V | 00:00:00 | 00:00:00 | 00:00:00 | |
| OE5WHR-10 | 2026-09-02 11:08:11 | 48.24248 | 11.77052 | 115° | 73km/h | 7518m | 5.3m/s | -26.9°C | 84.3% | 396.8hPa | 2.7V | 00:00:00 | 00:38:42 | 00:00:00 | |
| DO3MHA-11 | 2026-09-02 11:08:06 | 48.24285 | 11.76929 | 104° | 73km/h | 7494m | 3.8m/s | -26.7°C | 84.9% | 398.1hPa | 2.7V | 00:00:00 | 00:38:37 | 00:00:00 | |
| OE3JTB-15 | 2026-09-02 11:08:01 | 48.24303 | 11.76800 | 103° | 77km/h | 7464m | 5.0m/s | -26.5°C | 84.7% | 399.7hPa | 2.7V | 00:00:00 | 00:00:00 | 00:00:00 | |
| DO3MHA-11 | 2026-09-02 11:07:56 | 48.24320 | 11.76653 | 99° | 80km/h | 7434m | 4.7m/s | -26.3°C | 86.1% | 401.4hPa | 2.7V | 00:00:00 | 00:38:27 | 00:00:00 | |
| OE5DXL-15 | 2026-09-02 11:07:55 | 48.24323 | 11.76625 | 101° | 77km/h | 7429m | 5.8m/s | -26.3°C | 86.4% | 401.6hPa | 2.7V | 00:00:00 | 00:00:00 | 00:00:00 | |
| PG1ADW-2 | 2026-09-02 11:07:53 | 48.24332 | 11.76572 | 107° | 77km/h | 7418m | 5.9m/s | -26.2°C | 85.2% | 402.3hPa | 2.7V | 00:00:00 | 00:38:24 | 00:00:00 | |
| OE5WHR-10 | 2026-09-02 11:07:50 | 48.24351 | 11.76484 | 110° | 82km/h | 7401m | 4.5m/s | -26.0°C | 84.2% | 403.3hPa | 2.7V | 00:00:00 | 00:00:00 | 00:00:00 | |
| DO3MHA-11 | 2026-09-02 11:07:46 | 48.24371 | 11.76356 | 95° | 73km/h | 7381m | 5.7m/s | -25.9°C | 84.5% | 404.4hPa | 2.7V | 00:00:00 | 00:38:17 | 00:00:00 | |
| DO3MHA-11 | 2026-09-02 11:07:36 | 48.24402 | 11.76086 | 101° | 77km/h | 7319m | 6.1m/s | -25.4°C | 83.0% | 407.8hPa | 2.7V | 00:00:00 | 00:38:07 | 00:00:00 | |
| OE5DRO-10 | 2026-09-02 11:07:34 | 48.24410 | 11.76029 | 106° | 75km/h | 7308m | 6.2m/s | -25.3°C | 82.2% | 408.3hPa | 2.7V | 00:00:00 | 00:00:00 | 00:00:00 | |
| PG1ADW-2 | 2026-09-02 11:07:33 | 48.24416 | 11.76001 | 107° | 75km/h | 7302m | 4.5m/s | -25.3°C | 81.8% | 408.7hPa | 2.7V | 00:00:00 | 00:00:00 | 00:00:00 | |
| OE3JTB-15 | 2026-09-02 11:07:32 | 48.24421 | 11.75973 | 109° | 75km/h | 7296m | 7.0m/s | -25.2°C | 81.9% | 409.0hPa | 2.7V | 00:00:00 | 00:38:03 | 00:00:00 | |
| DO3MHA-11 | 2026-09-02 11:07:26 | 48.24439 | 11.75801 | 98° | 71km/h | 7262m | 6.1m/s | -25.0°C | 81.9% | 410.9hPa | 2.7V | 00:00:00 | 00:37:57 | 08:30:00 | |
| DL6DJ-15 | 2026-09-02 11:07:25 | 48.24442 | 11.75771 | 101° | 75km/h | 7257m | 3.9m/s | -25.0°C | 78.8% | 411.5hPa | 2.7V | 00:00:00 | 00:00:00 | 00:00:00 | |
| DO3MHA-11 | 2026-09-02 11:07:16 | 48.24480 | 11.75536 | 103° | 75km/h | 7212m | 4.2m/s | -24.6°C | 80.7% | 413.8hPa | 2.7V | 00:00:00 | 00:37:47 | 00:00:00 | |
| OE5DRO-10 | 2026-09-02 11:07:15 | 48.24484 | 11.75505 | 103° | 71km/h | 7207m | 6.0m/s | -24.6°C | 80.2% | 414.0hPa | 2.7V | 00:00:00 | 00:00:00 | 00:00:00 | |
| PG1ADW-2 | 2026-09-02 11:07:13 | 48.24492 | 11.75447 | 99° | 71km/h | 7192m | 7.3m/s | -24.4°C | 80.2% | 414.9hPa | 2.7V | 00:00:00 | 00:00:00 | 00:00:00 | |
| DG1MJG | 2026-09-02 11:07:10 | 48.24495 | 11.75397 | 88° | 64km/h | 7180m | 5.8m/s | 0°C | 0% | 0hPa | 2.7V | 00:00:00 | 00:00:00 | 00:00:00 | |
| DO3MHA-11 | 2026-09-02 11:07:06 | 48.24490 | 11.75257 | 98° | 69km/h | 7152m | 6.1m/s | -24.1°C | 78.8% | 417.3hPa | 2.7V | 00:00:00 | 00:37:37 | 00:00:00 | |
| DL6DJ-15 | 2026-09-02 11:06:54 | 48.24523 | 11.74939 | 85° | 73km/h | 7083m | 7.4m/s | -24.2°C | 77.1% | 421.4hPa | 2.7V | 00:00:00 | 00:00:00 | 00:00:00 | |
| PG1ADW-2 | 2026-09-02 11:06:53 | 48.24521 | 11.74912 | 84° | 69km/h | 7077m | 5.2m/s | -24.1°C | 80.3% | 421.7hPa | 2.7V | 00:00:00 | 00:00:00 | 00:00:00 | |
| DB0UT-7 | 2026-09-02 11:06:51 | 48.24517 | 11.74863 | 83° | 60km/h | 7066m | 5.8m/s | 0°C | 0% | 0hPa | 2.7V | 00:00:00 | 00:37:22 | 00:00:00 | |
| DO3MHA-11 | 2026-09-02 11:06:46 | 48.24520 | 11.74731 | 98° | 71km/h | 7037m | 4.8m/s | -24.1°C | 79.8% | 423.9hPa | 2.7V | 00:00:00 | 00:37:17 | 00:00:00 | |
| OE5WHR-10 | 2026-09-02 11:06:44 | 48.24523 | 11.74677 | 93° | 69km/h | 7027m | 5.2m/s | 0°C | 0% | 0hPa | 2.7V | 00:00:00 | 00:37:15 | 00:00:00 | |
| OE5DRO-10 | 2026-09-02 11:06:37 | 48.24503 | 11.74491 | 70° | 68km/h | 6985m | 4.6m/s | -23.8°C | 79.7% | 427.0hPa | 2.7V | 00:00:00 | 00:00:00 | 00:00:00 | |
| DO3MHA-11 | 2026-09-02 11:06:36 | 48.24497 | 11.74467 | 69° | 68km/h | 6981m | 4.5m/s | -23.8°C | 79.7% | 427.4hPa | 2.7V | 00:00:00 | 00:37:07 | 00:00:00 | |
| PG1ADW-2 | 2026-09-02 11:06:33 | 48.24483 | 11.74392 | 84° | 68km/h | 6964m | 5.2m/s | -23.7°C | 80.4% | 428.3hPa | 2.7V | 00:00:00 | 00:37:04 | 00:00:00 | |
| DO3MHA-11 | 2026-09-02 11:06:26 | 48.24490 | 11.74213 | 90° | 66km/h | 6925m | 5.3m/s | -23.4°C | 80.8% | 430.6hPa | 2.7V | 00:00:00 | 00:36:57 | 00:00:00 | |
| OE5DXL-15 | 2026-09-02 11:06:25 | 48.24490 | 11.74187 | 87° | 68km/h | 6919m | 7.4m/s | -23.3°C | 80.2% | 431.0hPa | 2.7V | 00:00:00 | 00:00:00 | 08:30:00 | |
| OE5WHR-10 | 2026-09-02 11:06:23 | 48.24485 | 11.74133 | 79° | 66km/h | 6906m | 5.1m/s | 0°C | 0% | 0hPa | 2.7V | 00:00:00 | 00:00:00 | 00:00:00 | |
| OE5DRO-10 | 2026-09-02 11:06:18 | 48.24475 | 11.74015 | 94° | 68km/h | 6876m | 8.0m/s | -23.1°C | 78.1% | 433.6hPa | 2.7V | 00:00:00 | 00:00:00 | 00:00:00 | |
| DO3MHA-11 | 2026-09-02 11:06:16 | 48.24478 | 11.73968 | 94° | 68km/h | 6865m | 3.7m/s | -23.0°C | 79.4% | 434.2hPa | 2.7V | 00:00:00 | 00:36:47 | 00:00:00 | |
| PG1ADW-2 | 2026-09-02 11:06:13 | 48.24477 | 11.73888 | 86° | 69km/h | 6847m | 7.4m/s | -22.9°C | 79.1% | 435.3hPa | 2.7V | 00:00:00 | 00:00:00 | 08:30:00 | |
| DO3MHA-11 | 2026-09-02 11:06:06 | 48.24473 | 11.73713 | 95° | 69km/h | 6804m | 4.2m/s | -22.9°C | 78.3% | 437.8hPa | 2.7V | 00:00:00 | 00:36:37 | 00:00:00 | |
| DL6DJ-15 | 2026-09-02 11:05:52 | 48.24472 | 11.73315 | 95° | 69km/h | 6717m | 6.5m/s | -22.3°C | 72.1% | 443.1hPa | 2.7V | 00:00:00 | 00:00:00 | 00:00:00 | |
| DO3MHA-11 | 2026-09-02 11:05:46 | 48.24478 | 11.73187 | 93° | 49km/h | 6686m | 5.7m/s | -22.0°C | 75.1% | 444.8hPa | 2.7V | 00:00:00 | 00:36:17 | 00:00:00 | |
| OE5DRO-10 | 2026-09-02 11:05:40 | 48.24484 | 11.73075 | 92° | 57km/h | 6648m | 6.8m/s | -21.8°C | 74.5% | 447.0hPa | 2.7V | 00:00:00 | 00:00:00 | 00:00:00 | |
| DB0UT-7 | 2026-09-02 11:05:38 | 48.24483 | 11.73040 | 84° | 58km/h | 6635m | 7.0m/s | 0°C | 0% | 0hPa | 2.7V | 00:00:00 | 00:00:00 | 00:00:00 | |
| DO3MHA-11 | 2026-09-02 11:05:36 | 48.24479 | 11.72999 | 81° | 62km/h | 6623m | 7.5m/s | -21.5°C | 73.5% | 448.7hPa | 2.7V | 00:00:00 | 00:36:07 | 00:00:00 | |
| PG1ADW-2 | 2026-09-02 11:05:33 | 48.24468 | 11.72927 | 77° | 58km/h | 6606m | 7.5m/s | -21.4°C | 72.6% | 449.6hPa | 2.7V | 00:00:00 | 00:00:00 | 00:00:00 | |
| DO3MHA-11 | 2026-09-02 11:05:26 | 48.24460 | 11.72770 | 96° | 64km/h | 6563m | 7.4m/s | -21.0°C | 70.7% | 452.4hPa | 2.7V | 00:00:00 | 00:35:57 | 00:00:00 | |
| OE5DXL-15 | 2026-09-02 11:05:25 | 48.24461 | 11.72750 | 92° | 62km/h | 6557m | 4.5m/s | -20.9°C | 70.9% | 452.8hPa | 2.7V | 00:00:00 | 00:00:00 | 00:00:00 | |
| DL6DJ-15 | 2026-09-02 11:05:21 | 48.24463 | 11.72642 | 89° | 58km/h | 6530m | 7.1m/s | -20.7°C | 67.2% | 454.4hPa | 2.7V | 00:00:00 | 00:00:00 | 00:00:00 | |
| PG1ADW-2 | 2026-09-02 11:05:13 | 48.24462 | 11.72483 | 90° | 64km/h | 6493m | 2.9m/s | -20.4°C | 68.9% | 456.6hPa | 2.7V | 00:00:00 | 00:35:44 | 00:00:00 | |
| DB0UT-7 | 2026-09-02 11:05:08 | 48.24462 | 11.72368 | 89° | 69km/h | 6472m | 4.1m/s | 0°C | 0% | 0hPa | 2.7V | 00:00:00 | 00:35:39 | 00:00:00 | |
| DO3MHA-11 | 2026-09-02 11:05:05 | 48.24461 | 11.72288 | 91° | 64km/h | 6459m | 6.1m/s | -20.2°C | 65.8% | 458.7hPa | 2.7V | 00:00:00 | 00:35:36 | 00:00:00 | |
| DL6DJ-15 | 2026-09-02 11:04:50 | 48.24472 | 11.71902 | 83° | 73km/h | 6378m | 2.5m/s | -19.7°C | 50.2% | 463.9hPa | 2.7V | 00:00:00 | 00:00:00 | 00:00:00 | |
| DO3MHA-11 | 2026-09-02 11:04:45 | 48.24468 | 11.71787 | 93° | 62km/h | 6361m | 3.9m/s | -19.4°C | 50.4% | 464.9hPa | 2.7V | 00:00:00 | 00:35:16 | 00:00:00 | |
| OE5DRO-10 | 2026-09-02 11:04:43 | 48.24472 | 11.71735 | 101° | 62km/h | 6351m | 5.0m/s | -19.3°C | 49.9% | 465.6hPa | 2.7V | 00:00:00 | 00:00:00 | 00:00:00 | |
| OE3JTB-15 | 2026-09-02 11:04:39 | 48.24480 | 11.71651 | 86° | 64km/h | 6330m | 4.8m/s | -19.2°C | 48.9% | 466.9hPa | 2.7V | 00:00:00 | 00:00:00 | 08:30:00 | |
| DO3MHA-11 | 2026-09-02 11:04:35 | 48.24479 | 11.71551 | 99° | 62km/h | 6310m | 5.3m/s | -19.0°C | 46.4% | 468.1hPa | 2.7V | 00:00:00 | 00:35:06 | 00:00:00 | |
| PG1ADW-2 | 2026-09-02 11:04:33 | 48.24487 | 11.71498 | 109° | 64km/h | 6299m | 6.9m/s | 0°C | 0% | 0hPa | 2.7V | 00:00:00 | 00:00:00 | 00:00:00 | |
| DO3MHA-11 | 2026-09-02 11:04:25 | 48.24503 | 11.71319 | 97° | 66km/h | 6257m | 4.9m/s | -18.5°C | 53.0% | 471.6hPa | 2.7V | 00:00:00 | 00:34:56 | 00:00:00 | |
| OE5DRO-10 | 2026-09-02 11:04:24 | 48.24507 | 11.71291 | 102° | 62km/h | 6251m | 5.9m/s | -18.5°C | 52.8% | 471.9hPa | 2.7V | 00:00:00 | 00:00:00 | 00:00:00 | |
| DL6DJ-15 | 2026-09-02 11:04:19 | 48.24535 | 11.71148 | 95° | 55km/h | 6221m | 5.4m/s | -18.2°C | 50.0% | 473.9hPa | 2.7V | 00:00:00 | 00:00:00 | 00:00:00 | |
| DO3MHA-11 | 2026-09-02 11:04:15 | 48.24535 | 11.71080 | 89° | 62km/h | 6204m | 6.3m/s | -18.0°C | 51.3% | 474.9hPa | 2.7V | 00:00:00 | 00:34:46 | 08:30:00 | |
| PG1ADW-2 | 2026-09-02 11:04:13 | 48.24538 | 11.71027 | 100° | 58km/h | 6194m | 4.1m/s | 0°C | 0% | 0hPa | 2.7V | 00:00:00 | 00:00:00 | 00:00:00 | |
| OE3JTB-15 | 2026-09-02 11:04:10 | 48.24549 | 11.70958 | 104° | 58km/h | 6177m | 6.4m/s | -17.8°C | 50.6% | 476.5hPa | 2.7V | 00:00:00 | 00:00:00 | 00:00:00 | |
| DO3MHA-11 | 2026-09-02 11:04:05 | 48.24551 | 11.70850 | 88° | 58km/h | 6151m | 4.5m/s | -17.5°C | 49.9% | 478.2hPa | 2.7V | 00:00:00 | 00:34:36 | 00:00:00 | |
| DL6DJ-15 | 2026-09-02 11:03:48 | 48.24568 | 11.70450 | 104° | 69km/h | 6055m | 2.8m/s | -16.7°C | 50.0% | 484.6hPa | 2.7V | 00:00:00 | 00:00:00 | 00:00:00 | |
| OE5DRO-10 | 2026-09-02 11:03:46 | 48.24572 | 11.70425 | 106° | 57km/h | 6051m | 4.6m/s | -16.6°C | 51.0% | 484.6hPa | 2.7V | 00:00:00 | 00:00:00 | 00:00:00 | |
| OE3JTB-15 | 2026-09-02 11:03:41 | 48.24586 | 11.70316 | 93° | 58km/h | 6022m | 6.8m/s | -16.4°C | 43.3% | 486.4hPa | 2.7V | 00:00:00 | 00:34:12 | 00:00:00 | |
| DO3MHA-11 | 2026-09-02 11:03:37 | 48.24584 | 11.70231 | 84° | 55km/h | 5999m | 5.5m/s | -16.2°C | 39.7% | 487.9hPa | 2.7V | 00:00:00 | 00:34:08 | 00:00:00 | |
| PG1ADW-2 | 2026-09-02 11:03:33 | 48.24586 | 11.70147 | 106° | 58km/h | 5980m | 6.4m/s | 0°C | 0% | 0hPa | 2.7V | 00:00:00 | 00:00:00 | 00:00:00 | |
| DO3MHA-11 | 2026-09-02 11:03:27 | 48.24615 | 11.70030 | 100° | 60km/h | 5946m | 6.0m/s | -15.8°C | 28.3% | 491.3hPa | 2.7V | 00:00:00 | 00:33:58 | 00:00:00 | |
| OE5DXL-15 | 2026-09-02 11:03:25 | 48.24616 | 11.69983 | 89° | 58km/h | 5934m | 5.6m/s | -15.7°C | 19.3% | 492.2hPa | 2.7V | 00:00:00 | 00:00:00 | 00:00:00 | |
| DO3MHA-11 | 2026-09-02 11:03:17 | 48.24614 | 11.69801 | 93° | 60km/h | 5890m | 5.4m/s | -15.6°C | 16.2% | 495.0hPa | 2.7V | 00:00:00 | 00:33:48 | 00:00:00 | |
| DL6DJ-15 | 2026-09-02 11:03:16 | 48.24614 | 11.69777 | 92° | 60km/h | 5884m | 5.1m/s | -15.6°C | 16.1% | 495.5hPa | 2.7V | 00:00:00 | 00:00:00 | 00:00:00 | |
| PG1ADW-2 | 2026-09-02 11:03:13 | 48.24614 | 11.69713 | 93° | 58km/h | 5870m | 5.3m/s | 0°C | 0% | 0hPa | 2.7V | 00:00:00 | 00:00:00 | 00:00:00 | |
| OE3JTB-15 | 2026-09-02 11:03:12 | 48.24616 | 11.69693 | 97° | 58km/h | 5863m | 7.9m/s | -15.6°C | 20.2% | 496.7hPa | 2.7V | 00:00:00 | 00:00:00 | 00:00:00 | |
| OE5DRO-10 | 2026-09-02 11:03:08 | 48.24629 | 11.69600 | 105° | 55km/h | 5839m | 7.2m/s | -15.6°C | 31.6% | 498.5hPa | 2.7V | 00:00:00 | 00:00:00 | 00:00:00 | |
| DO3MHA-11 | 2026-09-02 11:03:07 | 48.24633 | 11.69577 | 105° | 57km/h | 5833m | 4.4m/s | -15.5°C | 33.2% | 498.9hPa | 2.7V | 00:00:00 | 00:33:38 | 00:00:00 | |
| DL6DJ-15 | 2026-09-02 11:02:45 | 48.24672 | 11.69115 | 90° | 60km/h | 5712m | 7.4m/s | -15.1°C | 63.7% | 507.1hPa | 2.7V | 00:00:00 | 00:00:00 | 00:00:00 | |
| OE3JTB-15 | 2026-09-02 11:02:43 | 48.24674 | 11.69070 | 98° | 57km/h | 5699m | 5.5m/s | -14.9°C | 64.5% | 507.9hPa | 2.7V | 00:00:00 | 00:00:00 | 00:00:00 | |
| DO3MHA-11 | 2026-09-02 11:02:37 | 48.24687 | 11.68941 | 94° | 57km/h | 5669m | 4.9m/s | -14.6°C | 64.7% | 510.0hPa | 2.7V | 00:00:00 | 00:33:08 | 08:30:00 | |
| OE5DRO-10 | 2026-09-02 11:02:30 | 48.24690 | 11.68794 | 97° | 60km/h | 5635m | 5.8m/s | -14.3°C | 64.6% | 512.3hPa | 2.7V | 00:00:00 | 00:00:00 | 00:00:00 | |
| DO3MHA-11 | 2026-09-02 11:02:27 | 48.24695 | 11.68725 | 95° | 55km/h | 5618m | 5.2m/s | -14.2°C | 63.9% | 513.4hPa | 2.7V | 00:00:00 | 00:32:58 | 00:00:00 | |
| OE5DXL-15 | 2026-09-02 11:02:25 | 48.24696 | 11.68682 | 93° | 57km/h | 5606m | 6.1m/s | -14.0°C | 64.1% | 514.3hPa | 2.7V | 00:00:00 | 00:00:00 | 00:00:00 | |
| DO3MHA-11 | 2026-09-02 11:02:17 | 48.24702 | 11.68516 | 92° | 60km/h | 5563m | 4.9m/s | -13.6°C | 59.4% | 517.2hPa | 2.7V | 00:00:00 | 00:32:48 | 00:00:00 | |
| DL6DJ-15 | 2026-09-02 11:02:14 | 48.24703 | 11.68440 | 92° | 68km/h | 5551m | 4.8m/s | -13.6°C | 51.5% | 517.9hPa | 2.7V | 00:00:00 | 00:00:00 | 00:00:00 | |
| OE3JTB-15 | 2026-09-02 11:02:13 | 48.24703 | 11.68415 | 92° | 57km/h | 5548m | 2.3m/s | -13.5°C | 52.4% | 518.2hPa | 2.7V | 00:00:00 | 00:32:44 | 00:00:00 | |
| OE5DRO-10 | 2026-09-02 11:02:11 | 48.24704 | 11.68369 | 89° | 57km/h | 5540m | 5.4m/s | -13.4°C | 49.1% | 518.7hPa | 2.7V | 00:00:00 | 00:00:00 | 08:30:00 | |
| DO3MHA-11 | 2026-09-02 11:02:07 | 48.24701 | 11.68290 | 89° | 55km/h | 5516m | 6.7m/s | -13.2°C | 41.5% | 520.2hPa | 2.7V | 00:00:00 | 00:32:38 | 00:00:00 | |
| DO3MHA-11 | 2026-09-02 11:01:57 | 48.24706 | 11.68080 | 96° | 58km/h | 5467m | 4.8m/s | -12.8°C | 29.9% | 523.7hPa | 2.7V | 00:00:00 | 00:32:28 | 00:00:00 | |
| OE5DXL-15 | 2026-09-02 11:01:55 | 48.24708 | 11.68032 | 94° | 55km/h | 5459m | 3.5m/s | -12.7°C | 28.4% | 524.2hPa | 2.7V | 00:00:00 | 00:00:00 | 08:30:00 | |
| OE5DRO-10 | 2026-09-02 11:01:52 | 48.24710 | 11.67962 | 90° | 53km/h | 5442m | 5.5m/s | -12.6°C | 26.9% | 525.3hPa | 2.7V | 00:00:00 | 00:00:00 | 00:00:00 | |
| DO3MHA-11 | 2026-09-02 11:01:47 | 48.24716 | 11.67865 | 97° | 53km/h | 5412m | 6.2m/s | -12.3°C | 23.4% | 527.4hPa | 2.7V | 00:00:00 | 00:32:18 | 00:00:00 | |
| DL6DJ-15 | 2026-09-02 11:01:43 | 48.24719 | 11.67784 | 96° | 55km/h | 5396m | 4.8m/s | -12.2°C | 18.8% | 528.6hPa | 2.7V | 00:00:00 | 00:00:00 | 00:00:00 | |
| DO3MHA-11 | 2026-09-02 11:01:37 | 48.24736 | 11.67665 | 103° | 55km/h | 5365m | 4.3m/s | -12.0°C | 14.4% | 530.7hPa | 2.7V | 00:00:00 | 00:32:08 | 00:00:00 | |
| OE5DRO-10 | 2026-09-02 11:01:33 | 48.24740 | 11.67577 | 85° | 51km/h | 5345m | 2.8m/s | -11.9°C | 15.4% | 532.0hPa | 2.7V | 00:00:00 | 00:00:00 | 00:00:00 | |
| DO3MHA-11 | 2026-09-02 11:01:27 | 48.24739 | 11.67463 | 101° | 51km/h | 5318m | 5.9m/s | -11.7°C | 15.9% | 533.9hPa | 2.7V | 00:00:00 | 00:31:58 | 00:00:00 | |
| OE5DXL-15 | 2026-09-02 11:01:25 | 48.24743 | 11.67427 | 101° | 49km/h | 5307m | 5.1m/s | -11.6°C | 16.0% | 534.6hPa | 2.7V | 00:00:00 | 00:00:00 | 00:00:00 | |
| DO3MHA-11 | 2026-09-02 11:01:17 | 48.24762 | 11.67269 | 90° | 51km/h | 5269m | 5.2m/s | -11.3°C | 14.9% | 537.3hPa | 2.7V | 00:00:00 | 00:31:48 | 00:00:00 | |
| OE3JTB-15 | 2026-09-02 11:01:15 | 48.24762 | 11.67233 | 92° | 47km/h | 5257m | 6.2m/s | -11.2°C | 14.0% | 538.1hPa | 2.7V | 00:00:00 | 00:00:00 | 00:00:00 | |
| OE5DRO-10 | 2026-09-02 11:01:14 | 48.24762 | 11.67215 | 95° | 49km/h | 5252m | 4.3m/s | -11.2°C | 13.8% | 538.6hPa | 2.7V | 00:00:00 | 00:00:00 | 00:00:00 | |
| DL6DJ-15 | 2026-09-02 11:01:13 | 48.24765 | 11.67178 | 96° | 49km/h | 5243m | 5.6m/s | -11.1°C | 12.4% | 539.2hPa | 2.7V | 00:00:00 | 00:00:00 | 00:00:00 | |
| DO3MHA-11 | 2026-09-02 11:01:07 | 48.24779 | 11.67083 | 97° | 47km/h | 5222m | 4.1m/s | -10.9°C | 11.3% | 540.8hPa | 2.7V | 00:00:00 | 00:31:38 | 08:30:00 | |
| DO3MHA-11 | 2026-09-02 11:00:57 | 48.24789 | 11.66903 | 96° | 44km/h | 5176m | 4.0m/s | -10.6°C | 11.2% | 544.0hPa | 2.7V | 00:00:00 | 00:31:28 | 00:00:00 | |
| OE5DXL-15 | 2026-09-02 11:00:55 | 48.24790 | 11.66865 | 91° | 46km/h | 5169m | 4.5m/s | -10.5°C | 11.3% | 544.5hPa | 2.7V | 00:00:00 | 00:00:00 | 00:00:00 | |
| DO3MHA-11 | 2026-09-02 11:00:47 | 48.24792 | 11.66741 | 101° | 46km/h | 5140m | 3.4m/s | -10.3°C | 9.3% | 546.5hPa | 2.7V | 00:00:00 | 00:31:18 | 00:00:00 | |
| DL6DJ-15 | 2026-09-02 11:00:41 | 48.24792 | 11.66641 | 89° | 44km/h | 5105m | 8.2m/s | -10.2°C | 7.8% | 549.2hPa | 2.7V | 00:00:00 | 00:00:00 | 00:00:00 | |
| DO3MHA-11 | 2026-09-02 11:00:37 | 48.24793 | 11.66568 | 90° | 49km/h | 5078m | 4.7m/s | -9.9°C | 8.1% | 551.1hPa | 2.7V | 00:00:00 | 00:31:08 | 00:00:00 | |
| OE5DRO-10 | 2026-09-02 11:00:36 | 48.24792 | 11.66549 | 89° | 47km/h | 5074m | 3.4m/s | -9.9°C | 8.2% | 551.3hPa | 2.7V | 00:00:00 | 00:00:00 | 00:00:00 | |
| DO3MHA-11 | 2026-09-02 11:00:27 | 48.24797 | 11.66386 | 88° | 47km/h | 5030m | 6.8m/s | -9.5°C | 8.2% | 554.3hPa | 2.7V | 00:00:00 | 00:30:58 | 00:00:00 | |
| OE5DXL-15 | 2026-09-02 11:00:25 | 48.24797 | 11.66354 | 92° | 51km/h | 5017m | 6.4m/s | -9.4°C | 8.1% | 555.3hPa | 2.7V | 00:00:00 | 00:00:00 | 00:00:00 | |
| DO3MHA-11 | 2026-09-02 11:00:17 | 48.24804 | 11.66204 | 85° | 49km/h | 4973m | 6.6m/s | -9.1°C | 7.9% | 558.6hPa | 2.7V | 00:00:00 | 00:30:48 | 00:00:00 | |
| OE3JTB-15 | 2026-09-02 11:00:16 | 48.24802 | 11.66182 | 83° | 51km/h | 4967m | 4.8m/s | -9.0°C | 7.9% | 559.0hPa | 2.7V | 00:00:00 | 00:30:47 | 00:00:00 | |
| DL6DJ-15 | 2026-09-02 11:00:10 | 48.24792 | 11.66067 | 81° | 40km/h | 4938m | 6.9m/s | -9.0°C | 11.0% | 561.1hPa | 2.7V | 00:00:00 | 00:00:00 | 00:00:00 | |
| DO3MHA-11 | 2026-09-02 11:00:07 | 48.24787 | 11.66020 | 89° | 53km/h | 4917m | 6.3m/s | -8.8°C | 12.6% | 562.6hPa | 2.7V | 00:00:00 | 00:30:38 | 00:00:00 | |
| OE5DRO-10 | 2026-09-02 10:59:58 | 48.24796 | 11.65839 | 86° | 51km/h | 4868m | 6.8m/s | 0°C | 0% | 0hPa | 2.7V | 00:00:00 | 00:00:00 | 00:00:00 | |
| DO3MHA-11 | 2026-09-02 10:59:57 | 48.24795 | 11.65819 | 85° | 49km/h | 4862m | 5.8m/s | -8.4°C | 12.2% | 566.6hPa | 2.7V | 00:00:00 | 00:30:28 | 00:00:00 | |
| OE5DXL-15 | 2026-09-02 10:59:55 | 48.24793 | 11.65780 | 88° | 47km/h | 4852m | 4.7m/s | -8.3°C | 10.6% | 567.3hPa | 2.7V | 00:00:00 | 00:00:00 | 00:00:00 | |
| OE3JTB-15 | 2026-09-02 10:59:47 | 48.24775 | 11.65632 | 78° | 47km/h | 4815m | 2.9m/s | -8.1°C | 11.2% | 569.9hPa | 2.7V | 00:00:00 | 00:00:00 | 08:30:00 | |
| OE5DRO-10 | 2026-09-02 10:59:39 | 48.24768 | 11.65478 | 82° | 46km/h | 4769m | 6.0m/s | 0°C | 0% | 0hPa | 2.7V | 00:00:00 | 00:00:00 | 00:00:00 | |
| DO3MHA-11 | 2026-09-02 10:59:37 | 48.24764 | 11.65445 | 78° | 47km/h | 4758m | 6.9m/s | -7.7°C | 11.3% | 574.2hPa | 2.7V | 00:00:00 | 00:30:08 | 08:30:00 | |
| DO3MHA-11 | 2026-09-02 10:59:27 | 48.24769 | 11.65271 | 97° | 44km/h | 4706m | 5.3m/s | -7.4°C | 14.0% | 577.9hPa | 2.7V | 00:00:00 | 00:29:58 | 00:00:00 | |
| OE5DXL-15 | 2026-09-02 10:59:25 | 48.24772 | 11.65240 | 99° | 47km/h | 4696m | 4.5m/s | -7.4°C | 14.3% | 578.7hPa | 2.7V | 00:00:00 | 00:00:00 | 00:00:00 | |
| OE5DRO-10 | 2026-09-02 10:59:20 | 48.24775 | 11.65151 | 87° | 49km/h | 4666m | 7.6m/s | 0°C | 0% | 0hPa | 2.7V | 00:00:00 | 00:00:00 | 00:00:00 | |
| OE3JTB-15 | 2026-09-02 10:59:18 | 48.24773 | 11.65119 | 89° | 49km/h | 4654m | 4.1m/s | -7.1°C | 13.0% | 581.8hPa | 2.7V | 00:00:00 | 00:00:00 | 00:00:00 | |
| DO3MHA-11 | 2026-09-02 10:59:17 | 48.24773 | 11.65103 | 90° | 51km/h | 4650m | 3.7m/s | -7.1°C | 12.5% | 582.0hPa | 2.7V | 00:00:00 | 00:29:48 | 00:00:00 | |
| DL6DJ-15 | 2026-09-02 10:59:08 | 48.24775 | 11.64931 | 90° | 53km/h | 4602m | 6.1m/s | -6.8°C | 10.8% | 585.7hPa | 2.7V | 00:00:00 | 00:00:00 | 00:00:00 | |
| DO3MHA-11 | 2026-09-02 10:59:07 | 48.24775 | 11.64911 | 90° | 46km/h | 4596m | 5.0m/s | -6.7°C | 10.6% | 586.0hPa | 2.7V | 00:00:00 | 00:29:38 | 00:00:00 | |
| DO3MHA-11 | 2026-09-02 10:58:57 | 48.24772 | 11.64738 | 95° | 51km/h | 4550m | 5.7m/s | -6.4°C | 10.9% | 589.6hPa | 2.7V | 00:00:00 | 00:29:28 | 00:00:00 | |
| OE5DXL-15 | 2026-09-02 10:58:55 | 48.24773 | 11.64704 | 94° | 49km/h | 4538m | 7.2m/s | -6.4°C | 10.8% | 590.5hPa | 2.7V | 00:00:00 | 00:00:00 | 00:00:00 | |
| OE3JTB-15 | 2026-09-02 10:58:49 | 48.24773 | 11.64583 | 86° | 49km/h | 4504m | 5.7m/s | -6.2°C | 9.5% | 593.0hPa | 2.7V | 00:00:00 | 00:29:20 | 00:00:00 | |
| DO3MHA-11 | 2026-09-02 10:58:47 | 48.24771 | 11.64541 | 88° | 51km/h | 4493m | 7.0m/s | -6.2°C | 9.4% | 594.0hPa | 2.7V | 00:00:00 | 00:29:18 | 00:00:00 | |
| DO3MHA-11 | 2026-09-02 10:58:37 | 48.24758 | 11.64353 | 81° | 44km/h | 4444m | 5.1m/s | -6.0°C | 11.0% | 597.7hPa | 2.7V | 00:00:00 | 00:29:08 | 00:00:00 | |
| DO3MHA-11 | 2026-09-02 10:58:27 | 48.24762 | 11.64189 | 92° | 49km/h | 4389m | 3.5m/s | -5.9°C | 19.4% | 601.9hPa | 2.7V | 00:00:00 | 00:28:58 | 00:00:00 | |
| OE5DXL-15 | 2026-09-02 10:58:25 | 48.24763 | 11.64149 | 93° | 47km/h | 4378m | 5.8m/s | -5.8°C | 19.2% | 602.7hPa | 2.7V | 00:00:00 | 00:00:00 | 00:00:00 | |
| OE3JTB-15 | 2026-09-02 10:58:20 | 48.24761 | 11.64048 | 84° | 44km/h | 4351m | 5.2m/s | -5.6°C | 18.8% | 604.7hPa | 2.7V | 00:00:00 | 00:00:00 | 00:00:00 | |
| DO3MHA-11 | 2026-09-02 10:58:17 | 48.24757 | 11.64001 | 84° | 42km/h | 4336m | 4.6m/s | -5.5°C | 18.6% | 605.9hPa | 2.7V | 00:00:00 | 00:28:48 | 00:00:00 | |
| DO3MHA-11 | 2026-09-02 10:58:07 | 48.24756 | 11.63839 | 87° | 47km/h | 4287m | 5.0m/s | -5.0°C | 18.0% | 609.9hPa | 2.7V | 00:00:00 | 00:28:38 | 08:30:00 | |
| DL6DJ-15 | 2026-09-02 10:58:06 | 48.24757 | 11.63804 | 92° | 46km/h | 4278m | 4.7m/s | -5.0°C | 17.7% | 610.5hPa | 2.7V | 00:00:00 | 00:00:00 | 00:00:00 | |
| DO3MHA-11 | 2026-09-02 10:57:57 | 48.24752 | 11.63657 | 86° | 46km/h | 4238m | 2.1m/s | -4.6°C | 18.2% | 613.5hPa | 2.7V | 00:00:00 | 00:28:28 | 00:00:00 | |
| OE5DXL-15 | 2026-09-02 10:57:55 | 48.24751 | 11.63621 | 87° | 46km/h | 4228m | 6.0m/s | -4.5°C | 18.4% | 614.3hPa | 2.7V | 00:00:00 | 00:00:00 | 00:00:00 | |
| OE3JTB-15 | 2026-09-02 10:57:51 | 48.24745 | 11.63560 | 79° | 46km/h | 4208m | 3.6m/s | -4.3°C | 18.0% | 615.9hPa | 2.7V | 00:00:00 | 00:00:00 | 00:00:00 | |
| DO3MHA-11 | 2026-09-02 10:57:47 | 48.24744 | 11.63484 | 95° | 51km/h | 4189m | 5.1m/s | -4.2°C | 18.1% | 617.5hPa | 2.7V | 00:00:00 | 00:28:18 | 00:00:00 | |
| DO3MHA-11 | 2026-09-02 10:57:37 | 48.24750 | 11.63292 | 89° | 44km/h | 4136m | 6.8m/s | -3.8°C | 18.5% | 621.6hPa | 2.7V | 00:00:00 | 00:28:08 | 00:00:00 | |
| DL6DJ-15 | 2026-09-02 10:57:35 | 48.24752 | 11.63235 | 92° | 44km/h | 4117m | 5.3m/s | -3.7°C | 18.5% | 623.0hPa | 2.7V | 00:00:00 | 00:00:00 | 00:00:00 | |
| DO3MHA-11 | 2026-09-02 10:57:27 | 48.24742 | 11.63133 | 89° | 40km/h | 4084m | 3.6m/s | -3.4°C | 18.4% | 625.5hPa | 2.7V | 00:00:00 | 00:27:58 | 00:00:00 | |
| OE5DXL-15 | 2026-09-02 10:57:25 | 48.24743 | 11.63107 | 97° | 44km/h | 4075m | 4.4m/s | -3.3°C | 18.3% | 626.3hPa | 2.7V | 00:00:00 | 00:00:00 | 08:30:00 | |
| OE3JTB-15 | 2026-09-02 10:57:20 | 48.24755 | 11.63030 | 101° | 44km/h | 4044m | 4.4m/s | -3.0°C | 17.9% | 628.9hPa | 2.7V | 00:00:00 | 00:27:51 | 00:00:00 | |
| DO3MHA-11 | 2026-09-02 10:57:17 | 48.24757 | 11.62980 | 87° | 46km/h | 4029m | 5.8m/s | -2.9°C | 17.7% | 630.2hPa | 2.7V | 00:00:00 | 00:27:48 | 00:00:00 | |
| DO3MHA-11 | 2026-09-02 10:57:07 | 48.24757 | 11.62803 | 92° | 42km/h | 3988m | 3.0m/s | -2.5°C | 17.2% | 633.5hPa | 2.7V | 00:00:00 | 00:27:38 | 00:00:00 | |
| DL6DJ-15 | 2026-09-02 10:57:04 | 48.24756 | 11.62730 | 82° | 37km/h | 3970m | 6.9m/s | -2.4°C | 16.8% | 634.9hPa | 2.7V | 00:00:00 | 00:00:00 | 00:00:00 | |
| DO3MHA-11 | 2026-09-02 10:56:57 | 48.24756 | 11.62649 | 102° | 47km/h | 3935m | 5.9m/s | -2.1°C | 13.9% | 637.6hPa | 2.7V | 00:00:00 | 00:27:28 | 00:00:00 | |
| OE5DXL-15 | 2026-09-02 10:56:55 | 48.24759 | 11.62614 | 97° | 46km/h | 3924m | 6.4m/s | -2.0°C | 13.8% | 638.5hPa | 2.7V | 00:00:00 | 00:00:00 | 00:00:00 | |
| OE3JTB-15 | 2026-09-02 10:56:52 | 48.24760 | 11.62541 | 88° | 44km/h | 3904m | 4.7m/s | -1.8°C | 14.5% | 640.2hPa | 2.7V | 00:00:00 | 00:00:00 | 00:00:00 | |
| DO3MHA-11 | 2026-09-02 10:56:47 | 48.24758 | 11.62466 | 87° | 42km/h | 3888m | 4.0m/s | -1.7°C | 15.2% | 641.4hPa | 2.7V | 00:00:00 | 00:27:18 | 00:00:00 | |
| DO3MHA-11 | 2026-09-02 10:56:37 | 48.24774 | 11.62308 | 97° | 46km/h | 3837m | 3.8m/s | -1.3°C | 16.7% | 645.6hPa | 2.7V | 00:00:00 | 00:27:08 | 08:30:00 | |
| DL6DJ-15 | 2026-09-02 10:56:33 | 48.24766 | 11.62220 | 82° | 51km/h | 3812m | 4.9m/s | -1.2°C | 16.8% | 647.6hPa | 2.7V | 00:00:00 | 00:00:00 | 00:00:00 | |
| DO3MHA-11 | 2026-09-02 10:56:27 | 48.24766 | 11.62138 | 97° | 46km/h | 3785m | 5.4m/s | -1.0°C | 17.8% | 649.6hPa | 2.7V | 00:00:00 | 00:26:58 | 00:00:00 | |
| OE5DXL-15 | 2026-09-02 10:56:25 | 48.24767 | 11.62106 | 90° | 44km/h | 3776m | 2.8m/s | -0.9°C | 17.9% | 650.6hPa | 2.7V | 00:00:00 | 00:00:00 | 00:00:00 | |
| OE3JTB-15 | 2026-09-02 10:56:22 | 48.24766 | 11.62056 | 87° | 44km/h | 3764m | 3.1m/s | -0.7°C | 17.8% | 651.6hPa | 2.7V | 00:00:00 | 00:00:00 | 00:00:00 | |
| DO3MHA-11 | 2026-09-02 10:56:17 | 48.24760 | 11.61959 | 85° | 46km/h | 3744m | 2.9m/s | -0.6°C | 18.1% | 653.2hPa | 2.7V | 00:00:00 | 00:26:48 | 00:00:00 | |
| DO3MHA-11 | 2026-09-02 10:56:07 | 48.24763 | 11.61790 | 94° | 40km/h | 3689m | 4.8m/s | -0.2°C | 19.2% | 657.7hPa | 2.7V | 00:00:00 | 00:26:38 | 00:00:00 | |
| DL6DJ-15 | 2026-09-02 10:56:01 | 48.24768 | 11.61703 | 90° | 38km/h | 3662m | 5.1m/s | -0.0°C | 17.0% | 660.0hPa | 2.7V | 00:00:00 | 00:00:00 | 00:00:00 | |
| DO3MHA-11 | 2026-09-02 10:55:57 | 48.24766 | 11.61638 | 88° | 42km/h | 3644m | 3.2m/s | 0.0°C | 16.3% | 661.4hPa | 2.7V | 00:00:00 | 00:26:28 | 00:00:00 | |
| OE5DXL-15 | 2026-09-02 10:55:55 | 48.24764 | 11.61603 | 85° | 38km/h | 3636m | 4.8m/s | 0.0°C | 22.9% | 662.0hPa | 2.7V | 00:00:00 | 00:00:00 | 00:00:00 | |
| OE3JTB-15 | 2026-09-02 10:55:53 | 48.24763 | 11.61572 | 88° | 38km/h | 3629m | 4.1m/s | 0°C | 0% | 0hPa | 2.7V | 00:00:00 | 00:26:24 | 00:00:00 | |
| DO3MHA-11 | 2026-09-02 10:55:47 | 48.24770 | 11.61482 | 96° | 38km/h | 3604m | 3.5m/s | 0.2°C | 27.0% | 664.8hPa | 2.7V | 00:00:00 | 00:26:18 | 00:00:00 | |
| DO3MHA-11 | 2026-09-02 10:55:37 | 48.24759 | 11.61336 | 76° | 40km/h | 3561m | 4.5m/s | 0.5°C | 24.8% | 668.3hPa | 2.7V | 00:00:00 | 00:26:08 | 00:00:00 | |
| DL6DJ-15 | 2026-09-02 10:55:30 | 48.24755 | 11.61228 | 89° | 38km/h | 3528m | 5.4m/s | 0.8°C | 23.6% | 671.0hPa | 2.7V | 00:00:00 | 00:00:00 | 00:00:00 | |
| DO3MHA-11 | 2026-09-02 10:55:27 | 48.24753 | 11.61185 | 83° | 37km/h | 3517m | 2.8m/s | 0.9°C | 22.4% | 672.0hPa | 2.7V | 00:00:00 | 00:25:58 | 00:00:00 | |
| OE5DXL-15 | 2026-09-02 10:55:25 | 48.24751 | 11.61161 | 88° | 38km/h | 3510m | 3.2m/s | 0.9°C | 21.2% | 672.4hPa | 2.7V | 00:00:00 | 00:00:00 | 00:00:00 | |
| OE3JTB-15 | 2026-09-02 10:55:24 | 48.24751 | 11.61148 | 86° | 38km/h | 3507m | 3.0m/s | 0°C | 0% | 0hPa | 2.7V | 00:00:00 | 00:00:00 | 00:00:00 | |
| DO3MHA-11 | 2026-09-02 10:55:17 | 48.24749 | 11.61045 | 94° | 42km/h | 3481m | 4.4m/s | 1.0°C | 22.0% | 674.7hPa | 2.7V | 00:00:00 | 00:25:48 | 00:00:00 | |
| DO3MHA-11 | 2026-09-02 10:55:07 | 48.24748 | 11.60885 | 91° | 37km/h | 3442m | 3.9m/s | 1.0°C | 24.6% | 678.2hPa | 2.7V | 00:00:00 | 00:25:38 | 08:30:00 | |
| DL6DJ-15 | 2026-09-02 10:54:59 | 48.24751 | 11.60776 | 88° | 35km/h | 3397m | 3.7m/s | 1.2°C | 31.1% | 682.0hPa | 2.7V | 00:00:00 | 00:00:00 | 00:00:00 | |
| DO3MHA-11 | 2026-09-02 10:54:57 | 48.24751 | 11.60749 | 89° | 38km/h | 3389m | 4.8m/s | 1.2°C | 30.4% | 682.6hPa | 2.7V | 00:00:00 | 00:25:28 | 00:00:00 | |
| OE5DXL-15 | 2026-09-02 10:54:56 | 48.24751 | 11.60722 | 94° | 37km/h | 3380m | 4.1m/s | 1.2°C | 31.0% | 683.5hPa | 2.7V | 00:00:00 | 00:00:00 | 00:00:00 | |
| DO3MHA-11 | 2026-09-02 10:54:47 | 48.24757 | 11.60603 | 92° | 33km/h | 3346m | 4.6m/s | 1.3°C | 34.6% | 686.2hPa | 2.7V | 00:00:00 | 00:25:18 | 00:00:00 | |
| DO3MHA-11 | 2026-09-02 10:54:37 | 48.24767 | 11.60477 | 83° | 35km/h | 3309m | 4.1m/s | 1.5°C | 37.2% | 689.4hPa | 2.7V | 00:00:00 | 00:25:08 | 00:00:00 | |
| DL6DJ-15 | 2026-09-02 10:54:29 | 48.24761 | 11.60357 | 93° | 35km/h | 3261m | 4.1m/s | 1.7°C | 39.1% | 693.7hPa | 2.7V | 00:00:00 | 00:00:00 | 00:00:00 | |
| DO3MHA-11 | 2026-09-02 10:54:27 | 48.24762 | 11.60344 | 92° | 42km/h | 3256m | 6.3m/s | 1.7°C | 39.2% | 694.0hPa | 2.7V | 00:00:00 | 00:24:58 | 00:00:00 | |
| OE5DXL-15 | 2026-09-02 10:54:25 | 48.24760 | 11.60317 | 83° | 40km/h | 3247m | 4.6m/s | 0°C | 0% | 0hPa | 2.7V | 00:00:00 | 00:00:00 | 00:00:00 | |
| DO3MHA-11 | 2026-09-02 10:54:17 | 48.24759 | 11.60185 | 110° | 38km/h | 3213m | 6.7m/s | 2.0°C | 34.1% | 697.7hPa | 2.7V | 00:00:00 | 00:24:48 | 00:00:00 | |
| DO3MHA-11 | 2026-09-02 10:54:07 | 48.24794 | 11.60052 | 103° | 38km/h | 3159m | 3.0m/s | 2.6°C | 27.4% | 702.5hPa | 2.7V | 00:00:00 | 00:24:38 | 00:00:00 | |
| DO3MHA-11 | 2026-09-02 10:53:57 | 48.24820 | 11.59909 | 105° | 42km/h | 3109m | 3.5m/s | 3.0°C | 24.6% | 706.9hPa | 2.7V | 00:00:00 | 00:24:28 | 00:00:00 | |
| OE5DXL-15 | 2026-09-02 10:53:55 | 48.24825 | 11.59883 | 112° | 44km/h | 3100m | 4.6m/s | 0°C | 0% | 0hPa | 2.7V | 00:00:00 | 00:00:00 | 00:00:00 | |
| DO3MHA-11 | 2026-09-02 10:53:49 | 48.24839 | 11.59753 | 102° | 44km/h | 3068m | 3.1m/s | 3.4°C | 23.8% | 710.6hPa | 2.7V | 00:00:00 | 00:24:18 | 00:00:00 | |
| DO3MHA-11 | 2026-09-02 10:53:37 | 48.24854 | 11.59592 | 109° | 49km/h | 3025m | 3.8m/s | 3.7°C | 29.5% | 714.3hPa | 2.7V | 00:00:00 | 00:24:08 | 08:30:00 | |
| DO3MHA-11 | 2026-09-02 10:53:27 | 48.24871 | 11.59406 | 100° | 47km/h | 2973m | 4.6m/s | 4.1°C | 30.5% | 718.8hPa | 2.7V | 00:00:00 | 00:23:58 | 00:00:00 | |
| DL6DJ-15 | 2026-09-02 10:53:26 | 48.24873 | 11.59390 | 102° | 44km/h | 2968m | 4.8m/s | 4.2°C | 28.7% | 719.4hPa | 2.7V | 00:00:00 | 00:00:00 | 00:00:00 | |
| OE5DXL-15 | 2026-09-02 10:53:25 | 48.24875 | 11.59373 | 103° | 46km/h | 2963m | 5.2m/s | 0°C | 0% | 0hPa | 2.7V | 00:00:00 | 00:23:56 | 00:00:00 | |
| DO3MHA-11 | 2026-09-02 10:53:17 | 48.24898 | 11.59229 | 97° | 47km/h | 2931m | 5.2m/s | 4.4°C | 30.6% | 722.7hPa | 2.7V | 00:00:00 | 00:23:48 | 00:00:00 | |
| DO3MHA-11 | 2026-09-02 10:53:07 | 48.24913 | 11.59049 | 95° | 47km/h | 2878m | 3.4m/s | 4.9°C | 25.8% | 727.4hPa | 2.7V | 00:00:00 | 00:23:38 | 00:00:00 | |
| DL6DJ-15 | 2026-09-02 10:52:55 | 48.24922 | 11.58837 | 83° | 47km/h | 2831m | 3.1m/s | 5.3°C | 23.0% | 731.7hPa | 2.7V | 00:00:00 | 00:00:00 | 00:00:00 | |
| DO3MHA-11 | 2026-09-02 10:52:47 | 48.24926 | 11.58699 | 111° | 40km/h | 2795m | 7.1m/s | 5.4°C | 23.1% | 734.8hPa | 2.7V | 00:00:00 | 00:23:18 | 00:00:00 | |
| OE5DXL-15 | 2026-09-02 10:52:44 | 48.24939 | 11.58648 | 109° | 40km/h | 2777m | 4.5m/s | 0°C | 0% | 0hPa | 2.7V | 00:00:00 | 00:00:00 | 00:00:00 | |
| DO3MHA-11 | 2026-09-02 10:52:37 | 48.24953 | 11.58553 | 96° | 40km/h | 2742m | 5.2m/s | 5.7°C | 31.0% | 739.7hPa | 2.7V | 00:00:00 | 00:23:08 | 00:00:00 | |
| DO3MHA-11 | 2026-09-02 10:52:27 | 48.24972 | 11.58405 | 104° | 46km/h | 2695m | 3.6m/s | 5.9°C | 24.5% | 743.9hPa | 2.7V | 00:00:00 | 00:22:58 | 00:00:00 | |
| DL6DJ-15 | 2026-09-02 10:52:24 | 48.24981 | 11.58355 | 107° | 44km/h | 2681m | 4.7m/s | 5.9°C | 23.9% | 745.2hPa | 2.7V | 00:00:00 | 00:00:00 | 00:00:00 | |
| DO3MHA-11 | 2026-09-02 10:52:17 | 48.25000 | 11.58236 | 105° | 42km/h | 2646m | 6.6m/s | 5.9°C | 27.3% | 748.3hPa | 2.7V | 00:00:00 | 00:22:48 | 00:00:00 | |
| DO3MHA-11 | 2026-09-02 10:52:07 | 48.25012 | 11.58075 | 96° | 44km/h | 2601m | 4.0m/s | 5.8°C | 33.5% | 752.5hPa | 2.7V | 00:00:00 | 00:22:38 | 08:30:00 | |
| DL6DJ-15 | 2026-09-02 10:51:53 | 48.24994 | 11.57840 | 87° | 40km/h | 2529m | 3.7m/s | 6.0°C | -1.0% | 759.1hPa | 2.7V | 00:00:00 | 00:00:00 | 00:00:00 | |
| DO3MHA-11 | 2026-09-02 10:51:47 | 48.24990 | 11.57764 | 89° | 47km/h | 2509m | 4.7m/s | 6.0°C | 38.4% | 761.0hPa | 2.7V | 00:00:00 | 00:22:18 | 00:00:00 | |
| DO3MHA-11 | 2026-09-02 10:51:37 | 48.24959 | 11.57586 | 70° | 40km/h | 2466m | 6.7m/s | 6.0°C | 43.6% | 765.0hPa | 2.7V | 00:00:00 | 00:22:08 | 00:00:00 | |
| DO3MHA-11 | 2026-09-02 10:51:27 | 48.24927 | 11.57439 | 76° | 47km/h | 2423m | 5.2m/s | 6.0°C | 59.6% | 769.2hPa | 2.7V | 00:00:00 | 00:21:58 | 00:00:00 | |
| DL6DJ-15 | 2026-09-02 10:51:24 | 48.24899 | 11.57334 | 70° | 42km/h | 2390m | 7.5m/s | 0°C | -1.0% | -1.0hPa | 2.7V | 00:00:00 | 00:00:00 | 00:00:00 | |
| DO3MHA-11 | 2026-09-02 10:51:17 | 48.24890 | 11.57274 | 72° | 46km/h | 2372m | 2.8m/s | 6.1°C | 75.1% | 774.1hPa | 2.7V | 00:00:00 | 00:21:48 | 00:00:00 | |
| DO3MHA-11 | 2026-09-02 10:51:07 | 48.24845 | 11.57111 | 64° | 53km/h | 2321m | 5.8m/s | 6.4°C | 85.5% | 779.2hPa | 2.7V | 00:00:00 | 00:21:38 | 00:00:00 | |
| DO3MHA-11 | 2026-09-02 10:50:57 | 48.24796 | 11.56927 | 78° | 46km/h | 2272m | 4.2m/s | 6.7°C | 84.9% | 783.6hPa | 2.7V | 00:00:00 | 00:21:28 | 00:00:00 | |
| DO3MHA-11 | 2026-09-02 10:50:37 | 48.24689 | 11.56633 | 69° | 37km/h | 2168m | 4.6m/s | 7.2°C | 86.7% | 793.5hPa | 2.7V | 00:00:00 | 00:21:08 | 08:30:00 | |
| DO3MHA-11 | 2026-09-02 10:50:27 | 48.24658 | 11.56502 | 84° | 33km/h | 2120m | 3.8m/s | 7.6°C | 83.8% | 798.3hPa | 2.7V | 00:00:00 | 00:20:58 | 00:00:00 | |
| DO3MHA-11 | 2026-09-02 10:50:17 | 48.24640 | 11.56383 | 66° | 22km/h | 2070m | 5.8m/s | 8.0°C | 80.9% | 803.2hPa | 2.7V | 00:00:00 | 00:20:48 | 00:00:00 | |
| DO3MHA-11 | 2026-09-02 10:50:07 | 48.24627 | 11.56299 | 79° | 27km/h | 2022m | 6.7m/s | 8.4°C | 74.1% | 807.8hPa | 2.7V | 00:00:00 | 00:20:38 | 00:00:00 | |
| DO3MHA-11 | 2026-09-02 10:49:57 | 48.24622 | 11.56196 | 100° | 27km/h | 1976m | 3.9m/s | 8.7°C | 79.3% | 812.3hPa | 2.7V | 00:00:00 | 00:20:28 | 00:00:00 | |
| DO3MHA-11 | 2026-09-02 10:49:47 | 48.24619 | 11.56097 | 88° | 29km/h | 1929m | 6.0m/s | 9.0°C | 76.2% | 817.1hPa | 2.7V | 00:00:00 | 00:20:18 | 00:00:00 | |
| DO3MHA-11 | 2026-09-02 10:49:37 | 48.24621 | 11.55990 | 70° | 24km/h | 1875m | 5.7m/s | 9.5°C | 75.1% | 822.3hPa | 2.7V | 00:00:00 | 00:20:08 | 00:00:00 | |
| DO3MHA-11 | 2026-09-02 10:49:27 | 48.24605 | 11.55901 | 87° | 22km/h | 1829m | 3.6m/s | 9.9°C | 72.4% | 827.0hPa | 2.7V | 00:00:00 | 00:19:58 | 00:00:00 | |
| DO3MHA-11 | 2026-09-02 10:49:17 | 48.24613 | 11.55819 | 102° | 20km/h | 1785m | 4.7m/s | 10.3°C | 70.7% | 831.6hPa | 2.7V | 00:00:00 | 00:19:48 | 00:00:00 | |
| DO3MHA-11 | 2026-09-02 10:49:07 | 48.24613 | 11.55750 | 99° | 18km/h | 1729m | 6.8m/s | 10.7°C | 69.0% | 836.8hPa | 2.7V | 00:00:00 | 00:19:38 | 08:30:00 | |
| DO3MHA-11 | 2026-09-02 10:48:57 | 48.24608 | 11.55685 | 72° | 16km/h | 1679m | 4.2m/s | 11.1°C | 68.7% | 842.0hPa | 2.7V | 00:00:00 | 00:19:28 | 00:00:00 | |
| DO3MHA-11 | 2026-09-02 10:48:47 | 48.24606 | 11.55625 | 78° | 15km/h | 1628m | 5.8m/s | 11.6°C | 67.3% | 846.9hPa | 2.7V | 00:00:00 | 00:19:18 | 00:00:00 | |
| DO3MHA-11 | 2026-09-02 10:48:37 | 48.24603 | 11.55571 | 91° | 13km/h | 1579m | 4.1m/s | 12.0°C | 66.5% | 851.9hPa | 2.7V | 00:00:00 | 00:19:08 | 00:00:00 | |
| DO3MHA-11 | 2026-09-02 10:48:28 | 48.24603 | 11.55524 | 93° | 13km/h | 1530m | 5.6m/s | 12.5°C | 64.8% | 857.0hPa | 2.7V | 00:00:00 | 00:18:58 | 00:00:00 | |
| DO3MHA-11 | 2026-09-02 10:48:17 | 48.24601 | 11.55477 | 68° | 11km/h | 1482m | 4.2m/s | 13.0°C | 63.3% | 861.9hPa | 2.7V | 00:00:00 | 00:18:48 | 00:00:00 | |
| DO3MHA-11 | 2026-09-02 10:48:07 | 48.24591 | 11.55439 | 67° | 15km/h | 1439m | 3.2m/s | 13.4°C | 61.2% | 866.3hPa | 2.7V | 00:00:00 | 00:18:38 | 00:00:00 | |
| DO3MHA-11 | 2026-09-02 10:47:57 | 48.24586 | 11.55385 | 80° | 16km/h | 1395m | 6.8m/s | 13.8°C | 60.1% | 870.8hPa | 2.7V | 00:00:00 | 00:18:28 | 00:00:00 | |
| DO3MHA-11 | 2026-09-02 10:47:47 | 48.24576 | 11.55332 | 44° | 13km/h | 1351m | 4.0m/s | 14.3°C | 59.2% | 875.7hPa | 2.7V | 00:00:00 | 00:18:18 | 00:00:00 | |
| DO3MHA-11 | 2026-09-02 10:47:37 | 48.24569 | 11.55286 | 107° | 15km/h | 1305m | 7.3m/s | 14.7°C | 57.0% | 880.4hPa | 2.7V | 00:00:00 | 00:18:08 | 08:30:00 | |
| DO3MHA-11 | 2026-09-02 10:47:27 | 48.24553 | 11.55245 | 103° | 11km/h | 1254m | 3.4m/s | 15.2°C | 56.7% | 885.8hPa | 2.7V | 00:00:00 | 00:17:58 | 00:00:00 | |
| DO3MHA-11 | 2026-09-02 10:47:17 | 48.24542 | 11.55219 | 155° | 11km/h | 1206m | 4.4m/s | 15.5°C | 57.3% | 890.6hPa | 2.7V | 00:00:00 | 00:17:48 | 00:00:00 | |
| DO3MHA-11 | 2026-09-02 10:47:07 | 48.24530 | 11.55197 | 170° | 9km/h | 1158m | 5.4m/s | 15.6°C | 66.9% | 895.6hPa | 2.7V | 00:00:00 | 00:17:38 | 00:00:00 | |
| DO3MHA-11 | 2026-09-02 10:46:57 | 48.24517 | 11.55203 | 106° | 13km/h | 1104m | 6.9m/s | 16.1°C | 66.1% | 901.2hPa | 0V | 00:00:00 | 00:17:28 | 00:00:00 | |
| DO3MHA-11 | 2026-09-02 10:46:37 | 48.24507 | 11.55206 | 216° | 7km/h | 998m | 4.3m/s | 0°C | 0% | 0hPa | 0V | 00:00:00 | 00:17:08 | 00:00:00 | |
| DO3MHA-11 | 2026-09-02 10:46:27 | 48.24509 | 11.55207 | 335° | 13km/h | 944m | 5.1m/s | 0°C | 0% | 0hPa | 0V | 00:00:00 | 00:16:58 | 00:00:00 | |
| DO3MHA-11 | 2026-09-02 10:46:17 | 48.24503 | 11.55219 | 273° | 13km/h | 893m | 5.5m/s | 0°C | 0% | 0hPa | 0V | 00:00:00 | 00:16:48 | 00:00:00 | |
| DO3MHA-11 | 2026-09-02 10:46:07 | 48.24504 | 11.55220 | 195° | 13km/h | 845m | 4.4m/s | 0°C | 0% | 0hPa | 0V | 00:00:00 | 00:16:38 | 00:00:00 |